<?xml version="1.0" encoding="UTF-8" standalone="no" ?>
<gpx xmlns="http://www.topografix.com/GPX/1/1" xmlns:xsi="http://www.w3.org/2001/XMLSchema-instance" xsi:schemaLocation="http://www.topografix.com/GPX/1/1 http://www.topografix.com/GPX/1/1/gpx.xsd" version="1.1" creator="VisuGPX - https://www.visugpx.com">
  <metadata>
    <name>Dolomites jour 6</name>
    <desc><![CDATA[De Domegge di cadore, jusqu\'a Vigo di fasse, en passant par les Tre Cime !]]></desc>
  </metadata>
  <trk>
    <name><![CDATA[Jour 6 - 01/08/2012]]></name>
    <trkseg>
      <trkpt lat="46.46217" lon="12.4186">
        <ele>765.83</ele>
        <time>2012-08-01T07:29:41Z</time>
      </trkpt>
      <trkpt lat="46.46218" lon="12.41861">
        <ele>767.27</ele>
        <time>2012-08-01T07:29:57Z</time>
      </trkpt>
      <trkpt lat="46.46221" lon="12.41856">
        <ele>770.63</ele>
        <time>2012-08-01T07:30:10Z</time>
      </trkpt>
      <trkpt lat="46.46222" lon="12.41854">
        <ele>773.52</ele>
        <time>2012-08-01T07:30:14Z</time>
      </trkpt>
      <trkpt lat="46.46223" lon="12.41854">
        <ele>776.88</ele>
        <time>2012-08-01T07:30:18Z</time>
      </trkpt>
      <trkpt lat="46.46223" lon="12.41854">
        <ele>779.77</ele>
        <time>2012-08-01T07:30:23Z</time>
      </trkpt>
      <trkpt lat="46.46223" lon="12.41854">
        <ele>782.17</ele>
        <time>2012-08-01T07:30:27Z</time>
      </trkpt>
      <trkpt lat="46.46222" lon="12.41855">
        <ele>785.53</ele>
        <time>2012-08-01T07:30:34Z</time>
      </trkpt>
      <trkpt lat="46.46221" lon="12.41857">
        <ele>787.46</ele>
        <time>2012-08-01T07:30:41Z</time>
      </trkpt>
      <trkpt lat="46.46224" lon="12.41863">
        <ele>789.86</ele>
        <time>2012-08-01T07:31:15Z</time>
      </trkpt>
      <trkpt lat="46.46223" lon="12.41863">
        <ele>789.86</ele>
        <time>2012-08-01T07:31:50Z</time>
      </trkpt>
      <trkpt lat="46.46222" lon="12.41864">
        <ele>790.34</ele>
        <time>2012-08-01T07:32:21Z</time>
      </trkpt>
      <trkpt lat="46.46221" lon="12.41863">
        <ele>790.34</ele>
        <time>2012-08-01T07:32:55Z</time>
      </trkpt>
      <trkpt lat="46.46221" lon="12.41863">
        <ele>789.86</ele>
        <time>2012-08-01T07:33:29Z</time>
      </trkpt>
      <trkpt lat="46.46222" lon="12.41864">
        <ele>790.82</ele>
        <time>2012-08-01T07:34:02Z</time>
      </trkpt>
      <trkpt lat="46.46223" lon="12.41865">
        <ele>790.82</ele>
        <time>2012-08-01T07:34:33Z</time>
      </trkpt>
      <trkpt lat="46.46223" lon="12.41865">
        <ele>790.82</ele>
        <time>2012-08-01T07:35:02Z</time>
      </trkpt>
      <trkpt lat="46.46222" lon="12.41864">
        <ele>791.3</ele>
        <time>2012-08-01T07:35:34Z</time>
      </trkpt>
      <trkpt lat="46.46222" lon="12.41863">
        <ele>791.3</ele>
        <time>2012-08-01T07:36:02Z</time>
      </trkpt>
      <trkpt lat="46.46223" lon="12.41863">
        <ele>790.82</ele>
        <time>2012-08-01T07:36:35Z</time>
      </trkpt>
      <trkpt lat="46.46223" lon="12.41862">
        <ele>791.78</ele>
        <time>2012-08-01T07:37:07Z</time>
      </trkpt>
      <trkpt lat="46.46222" lon="12.41862">
        <ele>791.78</ele>
        <time>2012-08-01T07:37:36Z</time>
      </trkpt>
      <trkpt lat="46.46221" lon="12.41863">
        <ele>791.78</ele>
        <time>2012-08-01T07:38:11Z</time>
      </trkpt>
      <trkpt lat="46.46221" lon="12.41863">
        <ele>791.78</ele>
        <time>2012-08-01T07:38:38Z</time>
      </trkpt>
      <trkpt lat="46.46221" lon="12.41864">
        <ele>791.78</ele>
        <time>2012-08-01T07:39:11Z</time>
      </trkpt>
      <trkpt lat="46.4622" lon="12.41866">
        <ele>791.78</ele>
        <time>2012-08-01T07:39:46Z</time>
      </trkpt>
      <trkpt lat="46.46221" lon="12.41867">
        <ele>792.26</ele>
        <time>2012-08-01T07:40:23Z</time>
      </trkpt>
      <trkpt lat="46.46222" lon="12.41867">
        <ele>792.74</ele>
        <time>2012-08-01T07:41:01Z</time>
      </trkpt>
      <trkpt lat="46.46223" lon="12.41866">
        <ele>792.26</ele>
        <time>2012-08-01T07:41:34Z</time>
      </trkpt>
      <trkpt lat="46.46224" lon="12.41864">
        <ele>792.74</ele>
        <time>2012-08-01T07:42:07Z</time>
      </trkpt>
      <trkpt lat="46.46224" lon="12.41863">
        <ele>792.74</ele>
        <time>2012-08-01T07:42:41Z</time>
      </trkpt>
      <trkpt lat="46.46225" lon="12.41867">
        <ele>792.74</ele>
        <time>2012-08-01T07:43:17Z</time>
      </trkpt>
      <trkpt lat="46.46226" lon="12.41868">
        <ele>792.74</ele>
        <time>2012-08-01T07:43:51Z</time>
      </trkpt>
      <trkpt lat="46.46226" lon="12.41868">
        <ele>792.74</ele>
        <time>2012-08-01T07:44:24Z</time>
      </trkpt>
      <trkpt lat="46.46226" lon="12.41867">
        <ele>792.74</ele>
        <time>2012-08-01T07:44:54Z</time>
      </trkpt>
      <trkpt lat="46.46227" lon="12.41866">
        <ele>792.74</ele>
        <time>2012-08-01T07:45:26Z</time>
      </trkpt>
      <trkpt lat="46.46227" lon="12.41865">
        <ele>793.22</ele>
        <time>2012-08-01T07:46:01Z</time>
      </trkpt>
      <trkpt lat="46.46226" lon="12.41864">
        <ele>793.22</ele>
        <time>2012-08-01T07:46:37Z</time>
      </trkpt>
      <trkpt lat="46.46226" lon="12.41864">
        <ele>793.22</ele>
        <time>2012-08-01T07:47:06Z</time>
      </trkpt>
      <trkpt lat="46.46226" lon="12.41865">
        <ele>793.22</ele>
        <time>2012-08-01T07:47:36Z</time>
      </trkpt>
      <trkpt lat="46.46226" lon="12.41866">
        <ele>793.22</ele>
        <time>2012-08-01T07:48:03Z</time>
      </trkpt>
      <trkpt lat="46.46226" lon="12.41865">
        <ele>793.71</ele>
        <time>2012-08-01T07:48:32Z</time>
      </trkpt>
      <trkpt lat="46.46225" lon="12.41865">
        <ele>793.22</ele>
        <time>2012-08-01T07:49:00Z</time>
      </trkpt>
      <trkpt lat="46.46226" lon="12.41865">
        <ele>793.22</ele>
        <time>2012-08-01T07:49:32Z</time>
      </trkpt>
      <trkpt lat="46.46228" lon="12.41864">
        <ele>793.71</ele>
        <time>2012-08-01T07:50:04Z</time>
      </trkpt>
      <trkpt lat="46.46228" lon="12.41865">
        <ele>793.22</ele>
        <time>2012-08-01T07:50:43Z</time>
      </trkpt>
      <trkpt lat="46.46227" lon="12.41865">
        <ele>793.22</ele>
        <time>2012-08-01T07:51:17Z</time>
      </trkpt>
      <trkpt lat="46.46227" lon="12.41862">
        <ele>793.22</ele>
        <time>2012-08-01T07:51:45Z</time>
      </trkpt>
      <trkpt lat="46.46225" lon="12.41861">
        <ele>793.71</ele>
        <time>2012-08-01T07:52:14Z</time>
      </trkpt>
      <trkpt lat="46.46225" lon="12.41861">
        <ele>793.22</ele>
        <time>2012-08-01T07:52:42Z</time>
      </trkpt>
      <trkpt lat="46.46225" lon="12.41861">
        <ele>792.74</ele>
        <time>2012-08-01T07:52:48Z</time>
      </trkpt>
      <trkpt lat="46.46225" lon="12.41861">
        <ele>793.22</ele>
        <time>2012-08-01T07:53:12Z</time>
      </trkpt>
      <trkpt lat="46.46225" lon="12.41862">
        <ele>793.71</ele>
        <time>2012-08-01T07:53:35Z</time>
      </trkpt>
      <trkpt lat="46.46225" lon="12.41861">
        <ele>793.22</ele>
        <time>2012-08-01T07:54:04Z</time>
      </trkpt>
      <trkpt lat="46.46225" lon="12.41861">
        <ele>793.22</ele>
        <time>2012-08-01T07:54:30Z</time>
      </trkpt>
      <trkpt lat="46.46225" lon="12.41859">
        <ele>794.19</ele>
        <time>2012-08-01T07:54:51Z</time>
      </trkpt>
      <trkpt lat="46.46225" lon="12.41861">
        <ele>793.71</ele>
        <time>2012-08-01T07:55:12Z</time>
      </trkpt>
      <trkpt lat="46.46225" lon="12.41861">
        <ele>792.74</ele>
        <time>2012-08-01T07:55:39Z</time>
      </trkpt>
      <trkpt lat="46.46225" lon="12.41861">
        <ele>792.74</ele>
        <time>2012-08-01T07:56:09Z</time>
      </trkpt>
      <trkpt lat="46.46224" lon="12.41861">
        <ele>793.22</ele>
        <time>2012-08-01T07:56:30Z</time>
      </trkpt>
      <trkpt lat="46.46223" lon="12.41862">
        <ele>797.55</ele>
        <time>2012-08-01T07:56:46Z</time>
      </trkpt>
      <trkpt lat="46.46223" lon="12.41862">
        <ele>791.78</ele>
        <time>2012-08-01T07:56:47Z</time>
      </trkpt>
      <trkpt lat="46.46223" lon="12.41862">
        <ele>791.78</ele>
        <time>2012-08-01T07:56:48Z</time>
      </trkpt>
      <trkpt lat="46.46223" lon="12.41862">
        <ele>794.19</ele>
        <time>2012-08-01T07:56:53Z</time>
      </trkpt>
      <trkpt lat="46.46223" lon="12.41862">
        <ele>791.78</ele>
        <time>2012-08-01T07:56:56Z</time>
      </trkpt>
      <trkpt lat="46.46222" lon="12.4186">
        <ele>792.74</ele>
        <time>2012-08-01T07:57:13Z</time>
      </trkpt>
      <trkpt lat="46.46222" lon="12.41857">
        <ele>792.74</ele>
        <time>2012-08-01T07:57:21Z</time>
      </trkpt>
      <trkpt lat="46.46219" lon="12.41854">
        <ele>792.26</ele>
        <time>2012-08-01T07:57:26Z</time>
      </trkpt>
      <trkpt lat="46.46197" lon="12.41869">
        <ele>788.9</ele>
        <time>2012-08-01T07:57:35Z</time>
      </trkpt>
      <trkpt lat="46.46183" lon="12.41877">
        <ele>787.94</ele>
        <time>2012-08-01T07:57:45Z</time>
      </trkpt>
      <trkpt lat="46.46181" lon="12.41878">
        <ele>787.94</ele>
        <time>2012-08-01T07:57:55Z</time>
      </trkpt>
      <trkpt lat="46.46176" lon="12.41872">
        <ele>787.46</ele>
        <time>2012-08-01T07:57:58Z</time>
      </trkpt>
      <trkpt lat="46.46172" lon="12.41867">
        <ele>787.94</ele>
        <time>2012-08-01T07:57:59Z</time>
      </trkpt>
      <trkpt lat="46.46169" lon="12.41861">
        <ele>787.46</ele>
        <time>2012-08-01T07:58:00Z</time>
      </trkpt>
      <trkpt lat="46.46165" lon="12.41853">
        <ele>787.94</ele>
        <time>2012-08-01T07:58:01Z</time>
      </trkpt>
      <trkpt lat="46.46161" lon="12.41843">
        <ele>788.42</ele>
        <time>2012-08-01T07:58:02Z</time>
      </trkpt>
      <trkpt lat="46.46126" lon="12.41756">
        <ele>788.42</ele>
        <time>2012-08-01T07:58:10Z</time>
      </trkpt>
      <trkpt lat="46.46097" lon="12.41714">
        <ele>787.46</ele>
        <time>2012-08-01T07:58:16Z</time>
      </trkpt>
      <trkpt lat="46.46081" lon="12.41693">
        <ele>787.46</ele>
        <time>2012-08-01T07:58:24Z</time>
      </trkpt>
      <trkpt lat="46.46054" lon="12.4166">
        <ele>787.46</ele>
        <time>2012-08-01T07:58:33Z</time>
      </trkpt>
      <trkpt lat="46.46032" lon="12.41631">
        <ele>786.98</ele>
        <time>2012-08-01T07:58:41Z</time>
      </trkpt>
      <trkpt lat="46.46021" lon="12.41614">
        <ele>786.98</ele>
        <time>2012-08-01T07:58:47Z</time>
      </trkpt>
      <trkpt lat="46.46018" lon="12.41609">
        <ele>786.98</ele>
        <time>2012-08-01T07:58:48Z</time>
      </trkpt>
      <trkpt lat="46.46015" lon="12.41602">
        <ele>786.98</ele>
        <time>2012-08-01T07:58:49Z</time>
      </trkpt>
      <trkpt lat="46.4598" lon="12.41497">
        <ele>786.02</ele>
        <time>2012-08-01T07:59:01Z</time>
      </trkpt>
      <trkpt lat="46.45943" lon="12.41391">
        <ele>784.09</ele>
        <time>2012-08-01T07:59:14Z</time>
      </trkpt>
      <trkpt lat="46.45933" lon="12.41358">
        <ele>782.65</ele>
        <time>2012-08-01T07:59:18Z</time>
      </trkpt>
      <trkpt lat="46.45927" lon="12.41276">
        <ele>780.25</ele>
        <time>2012-08-01T07:59:27Z</time>
      </trkpt>
      <trkpt lat="46.45927" lon="12.41265">
        <ele>779.77</ele>
        <time>2012-08-01T07:59:28Z</time>
      </trkpt>
      <trkpt lat="46.45924" lon="12.41254">
        <ele>779.77</ele>
        <time>2012-08-01T07:59:29Z</time>
      </trkpt>
      <trkpt lat="46.45921" lon="12.41244">
        <ele>779.77</ele>
        <time>2012-08-01T07:59:30Z</time>
      </trkpt>
      <trkpt lat="46.45917" lon="12.41234">
        <ele>779.77</ele>
        <time>2012-08-01T07:59:31Z</time>
      </trkpt>
      <trkpt lat="46.45904" lon="12.41208">
        <ele>778.32</ele>
        <time>2012-08-01T07:59:34Z</time>
      </trkpt>
      <trkpt lat="46.45842" lon="12.41101">
        <ele>778.32</ele>
        <time>2012-08-01T07:59:45Z</time>
      </trkpt>
      <trkpt lat="46.45789" lon="12.41008">
        <ele>774.96</ele>
        <time>2012-08-01T07:59:53Z</time>
      </trkpt>
      <trkpt lat="46.45696" lon="12.40885">
        <ele>774.48</ele>
        <time>2012-08-01T08:00:05Z</time>
      </trkpt>
      <trkpt lat="46.45622" lon="12.40803">
        <ele>773.52</ele>
        <time>2012-08-01T08:00:13Z</time>
      </trkpt>
      <trkpt lat="46.4553" lon="12.40649">
        <ele>774</ele>
        <time>2012-08-01T08:00:24Z</time>
      </trkpt>
      <trkpt lat="46.45489" lon="12.40566">
        <ele>774.96</ele>
        <time>2012-08-01T08:00:29Z</time>
      </trkpt>
      <trkpt lat="46.45479" lon="12.40552">
        <ele>775.44</ele>
        <time>2012-08-01T08:00:30Z</time>
      </trkpt>
      <trkpt lat="46.45467" lon="12.4054">
        <ele>775.92</ele>
        <time>2012-08-01T08:00:31Z</time>
      </trkpt>
      <trkpt lat="46.45455" lon="12.40529">
        <ele>776.4</ele>
        <time>2012-08-01T08:00:32Z</time>
      </trkpt>
      <trkpt lat="46.45442" lon="12.4052">
        <ele>776.88</ele>
        <time>2012-08-01T08:00:33Z</time>
      </trkpt>
      <trkpt lat="46.45368" lon="12.40459">
        <ele>778.32</ele>
        <time>2012-08-01T08:00:39Z</time>
      </trkpt>
      <trkpt lat="46.45332" lon="12.40404">
        <ele>779.29</ele>
        <time>2012-08-01T08:00:43Z</time>
      </trkpt>
      <trkpt lat="46.45326" lon="12.40387">
        <ele>777.84</ele>
        <time>2012-08-01T08:00:44Z</time>
      </trkpt>
      <trkpt lat="46.45323" lon="12.4037">
        <ele>777.36</ele>
        <time>2012-08-01T08:00:45Z</time>
      </trkpt>
      <trkpt lat="46.4532" lon="12.40351">
        <ele>777.36</ele>
        <time>2012-08-01T08:00:46Z</time>
      </trkpt>
      <trkpt lat="46.45319" lon="12.40332">
        <ele>775.92</ele>
        <time>2012-08-01T08:00:47Z</time>
      </trkpt>
      <trkpt lat="46.45318" lon="12.40314">
        <ele>775.92</ele>
        <time>2012-08-01T08:00:48Z</time>
      </trkpt>
      <trkpt lat="46.45318" lon="12.40295">
        <ele>775.44</ele>
        <time>2012-08-01T08:00:49Z</time>
      </trkpt>
      <trkpt lat="46.45319" lon="12.40276">
        <ele>775.44</ele>
        <time>2012-08-01T08:00:50Z</time>
      </trkpt>
      <trkpt lat="46.45329" lon="12.40183">
        <ele>772.56</ele>
        <time>2012-08-01T08:00:55Z</time>
      </trkpt>
      <trkpt lat="46.45328" lon="12.40164">
        <ele>771.6</ele>
        <time>2012-08-01T08:00:56Z</time>
      </trkpt>
      <trkpt lat="46.45326" lon="12.40145">
        <ele>771.6</ele>
        <time>2012-08-01T08:00:57Z</time>
      </trkpt>
      <trkpt lat="46.4532" lon="12.40089">
        <ele>769.19</ele>
        <time>2012-08-01T08:01:00Z</time>
      </trkpt>
      <trkpt lat="46.45321" lon="12.40071">
        <ele>767.75</ele>
        <time>2012-08-01T08:01:01Z</time>
      </trkpt>
      <trkpt lat="46.45321" lon="12.39998">
        <ele>766.31</ele>
        <time>2012-08-01T08:01:05Z</time>
      </trkpt>
      <trkpt lat="46.45317" lon="12.39981">
        <ele>766.31</ele>
        <time>2012-08-01T08:01:06Z</time>
      </trkpt>
      <trkpt lat="46.45312" lon="12.39965">
        <ele>765.83</ele>
        <time>2012-08-01T08:01:07Z</time>
      </trkpt>
      <trkpt lat="46.45291" lon="12.39922">
        <ele>763.9</ele>
        <time>2012-08-01T08:01:10Z</time>
      </trkpt>
      <trkpt lat="46.45283" lon="12.39911">
        <ele>762.94</ele>
        <time>2012-08-01T08:01:11Z</time>
      </trkpt>
      <trkpt lat="46.45274" lon="12.39903">
        <ele>761.98</ele>
        <time>2012-08-01T08:01:12Z</time>
      </trkpt>
      <trkpt lat="46.45264" lon="12.39899">
        <ele>761.5</ele>
        <time>2012-08-01T08:01:13Z</time>
      </trkpt>
      <trkpt lat="46.45254" lon="12.39901">
        <ele>761.5</ele>
        <time>2012-08-01T08:01:14Z</time>
      </trkpt>
      <trkpt lat="46.45244" lon="12.39907">
        <ele>761.5</ele>
        <time>2012-08-01T08:01:15Z</time>
      </trkpt>
      <trkpt lat="46.45234" lon="12.39915">
        <ele>760.54</ele>
        <time>2012-08-01T08:01:16Z</time>
      </trkpt>
      <trkpt lat="46.45224" lon="12.39921">
        <ele>759.58</ele>
        <time>2012-08-01T08:01:17Z</time>
      </trkpt>
      <trkpt lat="46.45212" lon="12.39923">
        <ele>759.58</ele>
        <time>2012-08-01T08:01:18Z</time>
      </trkpt>
      <trkpt lat="46.45201" lon="12.39921">
        <ele>759.58</ele>
        <time>2012-08-01T08:01:19Z</time>
      </trkpt>
      <trkpt lat="46.4519" lon="12.39914">
        <ele>759.1</ele>
        <time>2012-08-01T08:01:20Z</time>
      </trkpt>
      <trkpt lat="46.45179" lon="12.39906">
        <ele>759.58</ele>
        <time>2012-08-01T08:01:21Z</time>
      </trkpt>
      <trkpt lat="46.45154" lon="12.39888">
        <ele>760.54</ele>
        <time>2012-08-01T08:01:23Z</time>
      </trkpt>
      <trkpt lat="46.45132" lon="12.39864">
        <ele>760.06</ele>
        <time>2012-08-01T08:01:25Z</time>
      </trkpt>
      <trkpt lat="46.45122" lon="12.39848">
        <ele>760.54</ele>
        <time>2012-08-01T08:01:26Z</time>
      </trkpt>
      <trkpt lat="46.45106" lon="12.39814">
        <ele>760.54</ele>
        <time>2012-08-01T08:01:28Z</time>
      </trkpt>
      <trkpt lat="46.45097" lon="12.39799">
        <ele>761.5</ele>
        <time>2012-08-01T08:01:29Z</time>
      </trkpt>
      <trkpt lat="46.45085" lon="12.39786">
        <ele>761.5</ele>
        <time>2012-08-01T08:01:30Z</time>
      </trkpt>
      <trkpt lat="46.45073" lon="12.39775">
        <ele>761.5</ele>
        <time>2012-08-01T08:01:31Z</time>
      </trkpt>
      <trkpt lat="46.4506" lon="12.39766">
        <ele>762.46</ele>
        <time>2012-08-01T08:01:32Z</time>
      </trkpt>
      <trkpt lat="46.45047" lon="12.39758">
        <ele>762.94</ele>
        <time>2012-08-01T08:01:33Z</time>
      </trkpt>
      <trkpt lat="46.45033" lon="12.39751">
        <ele>762.94</ele>
        <time>2012-08-01T08:01:34Z</time>
      </trkpt>
      <trkpt lat="46.44939" lon="12.39683">
        <ele>765.35</ele>
        <time>2012-08-01T08:01:41Z</time>
      </trkpt>
      <trkpt lat="46.44927" lon="12.39669">
        <ele>765.35</ele>
        <time>2012-08-01T08:01:42Z</time>
      </trkpt>
      <trkpt lat="46.44917" lon="12.39653">
        <ele>765.35</ele>
        <time>2012-08-01T08:01:43Z</time>
      </trkpt>
      <trkpt lat="46.44909" lon="12.39635">
        <ele>765.83</ele>
        <time>2012-08-01T08:01:44Z</time>
      </trkpt>
      <trkpt lat="46.44902" lon="12.39614">
        <ele>766.31</ele>
        <time>2012-08-01T08:01:45Z</time>
      </trkpt>
      <trkpt lat="46.44897" lon="12.39593">
        <ele>766.79</ele>
        <time>2012-08-01T08:01:46Z</time>
      </trkpt>
      <trkpt lat="46.44892" lon="12.39571">
        <ele>767.75</ele>
        <time>2012-08-01T08:01:47Z</time>
      </trkpt>
      <trkpt lat="46.44854" lon="12.39374">
        <ele>770.15</ele>
        <time>2012-08-01T08:01:56Z</time>
      </trkpt>
      <trkpt lat="46.44817" lon="12.39183">
        <ele>771.6</ele>
        <time>2012-08-01T08:02:06Z</time>
      </trkpt>
      <trkpt lat="46.44814" lon="12.39165">
        <ele>771.6</ele>
        <time>2012-08-01T08:02:07Z</time>
      </trkpt>
      <trkpt lat="46.44813" lon="12.39148">
        <ele>771.11</ele>
        <time>2012-08-01T08:02:08Z</time>
      </trkpt>
      <trkpt lat="46.44814" lon="12.3913">
        <ele>771.6</ele>
        <time>2012-08-01T08:02:09Z</time>
      </trkpt>
      <trkpt lat="46.44829" lon="12.39017">
        <ele>769.19</ele>
        <time>2012-08-01T08:02:15Z</time>
      </trkpt>
      <trkpt lat="46.44838" lon="12.38965">
        <ele>769.19</ele>
        <time>2012-08-01T08:02:18Z</time>
      </trkpt>
      <trkpt lat="46.44844" lon="12.3895">
        <ele>768.23</ele>
        <time>2012-08-01T08:02:19Z</time>
      </trkpt>
      <trkpt lat="46.4485" lon="12.38936">
        <ele>767.27</ele>
        <time>2012-08-01T08:02:20Z</time>
      </trkpt>
      <trkpt lat="46.44858" lon="12.38924">
        <ele>766.79</ele>
        <time>2012-08-01T08:02:21Z</time>
      </trkpt>
      <trkpt lat="46.44868" lon="12.38913">
        <ele>767.27</ele>
        <time>2012-08-01T08:02:22Z</time>
      </trkpt>
      <trkpt lat="46.44878" lon="12.38903">
        <ele>766.31</ele>
        <time>2012-08-01T08:02:23Z</time>
      </trkpt>
      <trkpt lat="46.44888" lon="12.38894">
        <ele>765.83</ele>
        <time>2012-08-01T08:02:24Z</time>
      </trkpt>
      <trkpt lat="46.44897" lon="12.38884">
        <ele>765.83</ele>
        <time>2012-08-01T08:02:25Z</time>
      </trkpt>
      <trkpt lat="46.44904" lon="12.38872">
        <ele>765.83</ele>
        <time>2012-08-01T08:02:26Z</time>
      </trkpt>
      <trkpt lat="46.44914" lon="12.38844">
        <ele>764.87</ele>
        <time>2012-08-01T08:02:28Z</time>
      </trkpt>
      <trkpt lat="46.44913" lon="12.38828">
        <ele>764.87</ele>
        <time>2012-08-01T08:02:29Z</time>
      </trkpt>
      <trkpt lat="46.44909" lon="12.38812">
        <ele>764.39</ele>
        <time>2012-08-01T08:02:30Z</time>
      </trkpt>
      <trkpt lat="46.44903" lon="12.38797">
        <ele>764.87</ele>
        <time>2012-08-01T08:02:31Z</time>
      </trkpt>
      <trkpt lat="46.44895" lon="12.38785">
        <ele>764.87</ele>
        <time>2012-08-01T08:02:32Z</time>
      </trkpt>
      <trkpt lat="46.44885" lon="12.38773">
        <ele>764.87</ele>
        <time>2012-08-01T08:02:33Z</time>
      </trkpt>
      <trkpt lat="46.44875" lon="12.38764">
        <ele>764.39</ele>
        <time>2012-08-01T08:02:34Z</time>
      </trkpt>
      <trkpt lat="46.44866" lon="12.38758">
        <ele>764.39</ele>
        <time>2012-08-01T08:02:35Z</time>
      </trkpt>
      <trkpt lat="46.44857" lon="12.38754">
        <ele>763.9</ele>
        <time>2012-08-01T08:02:36Z</time>
      </trkpt>
      <trkpt lat="46.44847" lon="12.38751">
        <ele>764.39</ele>
        <time>2012-08-01T08:02:37Z</time>
      </trkpt>
      <trkpt lat="46.44838" lon="12.3875">
        <ele>764.39</ele>
        <time>2012-08-01T08:02:38Z</time>
      </trkpt>
      <trkpt lat="46.44829" lon="12.38753">
        <ele>764.87</ele>
        <time>2012-08-01T08:02:39Z</time>
      </trkpt>
      <trkpt lat="46.4482" lon="12.38757">
        <ele>765.35</ele>
        <time>2012-08-01T08:02:40Z</time>
      </trkpt>
      <trkpt lat="46.44812" lon="12.38762">
        <ele>765.35</ele>
        <time>2012-08-01T08:02:41Z</time>
      </trkpt>
      <trkpt lat="46.44802" lon="12.38766">
        <ele>765.83</ele>
        <time>2012-08-01T08:02:42Z</time>
      </trkpt>
      <trkpt lat="46.44791" lon="12.38768">
        <ele>766.31</ele>
        <time>2012-08-01T08:02:43Z</time>
      </trkpt>
      <trkpt lat="46.44779" lon="12.38769">
        <ele>767.27</ele>
        <time>2012-08-01T08:02:44Z</time>
      </trkpt>
      <trkpt lat="46.44709" lon="12.3877">
        <ele>770.63</ele>
        <time>2012-08-01T08:02:50Z</time>
      </trkpt>
      <trkpt lat="46.44671" lon="12.38758">
        <ele>771.11</ele>
        <time>2012-08-01T08:02:54Z</time>
      </trkpt>
      <trkpt lat="46.44662" lon="12.38751">
        <ele>771.6</ele>
        <time>2012-08-01T08:02:55Z</time>
      </trkpt>
      <trkpt lat="46.44654" lon="12.38743">
        <ele>771.6</ele>
        <time>2012-08-01T08:02:56Z</time>
      </trkpt>
      <trkpt lat="46.44648" lon="12.38732">
        <ele>771.6</ele>
        <time>2012-08-01T08:02:57Z</time>
      </trkpt>
      <trkpt lat="46.44641" lon="12.38719">
        <ele>772.08</ele>
        <time>2012-08-01T08:02:58Z</time>
      </trkpt>
      <trkpt lat="46.44636" lon="12.38706">
        <ele>772.56</ele>
        <time>2012-08-01T08:02:59Z</time>
      </trkpt>
      <trkpt lat="46.44604" lon="12.38642">
        <ele>774.96</ele>
        <time>2012-08-01T08:03:04Z</time>
      </trkpt>
      <trkpt lat="46.44596" lon="12.38631">
        <ele>774.96</ele>
        <time>2012-08-01T08:03:05Z</time>
      </trkpt>
      <trkpt lat="46.44586" lon="12.38622">
        <ele>775.44</ele>
        <time>2012-08-01T08:03:06Z</time>
      </trkpt>
      <trkpt lat="46.44575" lon="12.38615">
        <ele>776.4</ele>
        <time>2012-08-01T08:03:07Z</time>
      </trkpt>
      <trkpt lat="46.44564" lon="12.3861">
        <ele>776.88</ele>
        <time>2012-08-01T08:03:08Z</time>
      </trkpt>
      <trkpt lat="46.44551" lon="12.38605">
        <ele>777.36</ele>
        <time>2012-08-01T08:03:09Z</time>
      </trkpt>
      <trkpt lat="46.44487" lon="12.38581">
        <ele>780.25</ele>
        <time>2012-08-01T08:03:14Z</time>
      </trkpt>
      <trkpt lat="46.44427" lon="12.38535">
        <ele>783.61</ele>
        <time>2012-08-01T08:03:19Z</time>
      </trkpt>
      <trkpt lat="46.44416" lon="12.38524">
        <ele>783.61</ele>
        <time>2012-08-01T08:03:20Z</time>
      </trkpt>
      <trkpt lat="46.44405" lon="12.38511">
        <ele>784.09</ele>
        <time>2012-08-01T08:03:21Z</time>
      </trkpt>
      <trkpt lat="46.44396" lon="12.38497">
        <ele>785.53</ele>
        <time>2012-08-01T08:03:22Z</time>
      </trkpt>
      <trkpt lat="46.44386" lon="12.38482">
        <ele>785.53</ele>
        <time>2012-08-01T08:03:23Z</time>
      </trkpt>
      <trkpt lat="46.44366" lon="12.3845">
        <ele>786.98</ele>
        <time>2012-08-01T08:03:25Z</time>
      </trkpt>
      <trkpt lat="46.44307" lon="12.38358">
        <ele>790.82</ele>
        <time>2012-08-01T08:03:32Z</time>
      </trkpt>
      <trkpt lat="46.44273" lon="12.38293">
        <ele>794.19</ele>
        <time>2012-08-01T08:03:36Z</time>
      </trkpt>
      <trkpt lat="46.44244" lon="12.38224">
        <ele>796.59</ele>
        <time>2012-08-01T08:03:40Z</time>
      </trkpt>
      <trkpt lat="46.44235" lon="12.38209">
        <ele>797.55</ele>
        <time>2012-08-01T08:03:41Z</time>
      </trkpt>
      <trkpt lat="46.44227" lon="12.38196">
        <ele>797.55</ele>
        <time>2012-08-01T08:03:42Z</time>
      </trkpt>
      <trkpt lat="46.44218" lon="12.38184">
        <ele>798.51</ele>
        <time>2012-08-01T08:03:43Z</time>
      </trkpt>
      <trkpt lat="46.44209" lon="12.38172">
        <ele>798.51</ele>
        <time>2012-08-01T08:03:44Z</time>
      </trkpt>
      <trkpt lat="46.44181" lon="12.38138">
        <ele>800.44</ele>
        <time>2012-08-01T08:03:47Z</time>
      </trkpt>
      <trkpt lat="46.44137" lon="12.38093">
        <ele>802.36</ele>
        <time>2012-08-01T08:03:52Z</time>
      </trkpt>
      <trkpt lat="46.44128" lon="12.38087">
        <ele>802.84</ele>
        <time>2012-08-01T08:03:53Z</time>
      </trkpt>
      <trkpt lat="46.44118" lon="12.38082">
        <ele>802.84</ele>
        <time>2012-08-01T08:03:54Z</time>
      </trkpt>
      <trkpt lat="46.44066" lon="12.38055">
        <ele>806.2</ele>
        <time>2012-08-01T08:03:59Z</time>
      </trkpt>
      <trkpt lat="46.44013" lon="12.38026">
        <ele>809.57</ele>
        <time>2012-08-01T08:04:04Z</time>
      </trkpt>
      <trkpt lat="46.43978" lon="12.3801">
        <ele>812.45</ele>
        <time>2012-08-01T08:04:07Z</time>
      </trkpt>
      <trkpt lat="46.43965" lon="12.38007">
        <ele>813.89</ele>
        <time>2012-08-01T08:04:08Z</time>
      </trkpt>
      <trkpt lat="46.43952" lon="12.38006">
        <ele>814.37</ele>
        <time>2012-08-01T08:04:09Z</time>
      </trkpt>
      <trkpt lat="46.4394" lon="12.38006">
        <ele>814.85</ele>
        <time>2012-08-01T08:04:10Z</time>
      </trkpt>
      <trkpt lat="46.43915" lon="12.3801">
        <ele>816.3</ele>
        <time>2012-08-01T08:04:12Z</time>
      </trkpt>
      <trkpt lat="46.43863" lon="12.38017">
        <ele>818.7</ele>
        <time>2012-08-01T08:04:16Z</time>
      </trkpt>
      <trkpt lat="46.43823" lon="12.38016">
        <ele>822.06</ele>
        <time>2012-08-01T08:04:19Z</time>
      </trkpt>
      <trkpt lat="46.4381" lon="12.38013">
        <ele>822.06</ele>
        <time>2012-08-01T08:04:20Z</time>
      </trkpt>
      <trkpt lat="46.43744" lon="12.37989">
        <ele>825.91</ele>
        <time>2012-08-01T08:04:25Z</time>
      </trkpt>
      <trkpt lat="46.43665" lon="12.37957">
        <ele>829.27</ele>
        <time>2012-08-01T08:04:32Z</time>
      </trkpt>
      <trkpt lat="46.43657" lon="12.37951">
        <ele>829.76</ele>
        <time>2012-08-01T08:04:33Z</time>
      </trkpt>
      <trkpt lat="46.4365" lon="12.37944">
        <ele>829.76</ele>
        <time>2012-08-01T08:04:34Z</time>
      </trkpt>
      <trkpt lat="46.43644" lon="12.37936">
        <ele>830.24</ele>
        <time>2012-08-01T08:04:35Z</time>
      </trkpt>
      <trkpt lat="46.43638" lon="12.37927">
        <ele>830.72</ele>
        <time>2012-08-01T08:04:36Z</time>
      </trkpt>
      <trkpt lat="46.43634" lon="12.37918">
        <ele>830.72</ele>
        <time>2012-08-01T08:04:37Z</time>
      </trkpt>
      <trkpt lat="46.4363" lon="12.37909">
        <ele>830.72</ele>
        <time>2012-08-01T08:04:38Z</time>
      </trkpt>
      <trkpt lat="46.43626" lon="12.37902">
        <ele>831.68</ele>
        <time>2012-08-01T08:04:39Z</time>
      </trkpt>
      <trkpt lat="46.43621" lon="12.37897">
        <ele>831.68</ele>
        <time>2012-08-01T08:04:40Z</time>
      </trkpt>
      <trkpt lat="46.43614" lon="12.37896">
        <ele>832.16</ele>
        <time>2012-08-01T08:04:41Z</time>
      </trkpt>
      <trkpt lat="46.43606" lon="12.37894">
        <ele>831.68</ele>
        <time>2012-08-01T08:04:42Z</time>
      </trkpt>
      <trkpt lat="46.43598" lon="12.3789">
        <ele>831.2</ele>
        <time>2012-08-01T08:04:43Z</time>
      </trkpt>
      <trkpt lat="46.4359" lon="12.37882">
        <ele>831.68</ele>
        <time>2012-08-01T08:04:44Z</time>
      </trkpt>
      <trkpt lat="46.43581" lon="12.37874">
        <ele>832.16</ele>
        <time>2012-08-01T08:04:45Z</time>
      </trkpt>
      <trkpt lat="46.43571" lon="12.37866">
        <ele>831.68</ele>
        <time>2012-08-01T08:04:46Z</time>
      </trkpt>
      <trkpt lat="46.43561" lon="12.37859">
        <ele>831.68</ele>
        <time>2012-08-01T08:04:47Z</time>
      </trkpt>
      <trkpt lat="46.43535" lon="12.37848">
        <ele>831.68</ele>
        <time>2012-08-01T08:04:49Z</time>
      </trkpt>
      <trkpt lat="46.43521" lon="12.37846">
        <ele>832.16</ele>
        <time>2012-08-01T08:04:50Z</time>
      </trkpt>
      <trkpt lat="46.43507" lon="12.37847">
        <ele>831.68</ele>
        <time>2012-08-01T08:04:51Z</time>
      </trkpt>
      <trkpt lat="46.43492" lon="12.3785">
        <ele>832.64</ele>
        <time>2012-08-01T08:04:52Z</time>
      </trkpt>
      <trkpt lat="46.43477" lon="12.37857">
        <ele>832.16</ele>
        <time>2012-08-01T08:04:53Z</time>
      </trkpt>
      <trkpt lat="46.43462" lon="12.37867">
        <ele>832.16</ele>
        <time>2012-08-01T08:04:54Z</time>
      </trkpt>
      <trkpt lat="46.43448" lon="12.37878">
        <ele>831.68</ele>
        <time>2012-08-01T08:04:55Z</time>
      </trkpt>
      <trkpt lat="46.43294" lon="12.37959">
        <ele>828.79</ele>
        <time>2012-08-01T08:05:05Z</time>
      </trkpt>
      <trkpt lat="46.43161" lon="12.37962">
        <ele>827.83</ele>
        <time>2012-08-01T08:05:13Z</time>
      </trkpt>
      <trkpt lat="46.42996" lon="12.37914">
        <ele>828.79</ele>
        <time>2012-08-01T08:05:23Z</time>
      </trkpt>
      <trkpt lat="46.42949" lon="12.37889">
        <ele>829.76</ele>
        <time>2012-08-01T08:05:27Z</time>
      </trkpt>
      <trkpt lat="46.42933" lon="12.37879">
        <ele>832.16</ele>
        <time>2012-08-01T08:05:40Z</time>
      </trkpt>
      <trkpt lat="46.42917" lon="12.37865">
        <ele>832.16</ele>
        <time>2012-08-01T08:05:45Z</time>
      </trkpt>
      <trkpt lat="46.42913" lon="12.37862">
        <ele>834.08</ele>
        <time>2012-08-01T08:05:47Z</time>
      </trkpt>
      <trkpt lat="46.42904" lon="12.37854">
        <ele>834.56</ele>
        <time>2012-08-01T08:05:55Z</time>
      </trkpt>
      <trkpt lat="46.42903" lon="12.37853">
        <ele>834.08</ele>
        <time>2012-08-01T08:05:56Z</time>
      </trkpt>
      <trkpt lat="46.42902" lon="12.37852">
        <ele>835.52</ele>
        <time>2012-08-01T08:05:57Z</time>
      </trkpt>
      <trkpt lat="46.42899" lon="12.3785">
        <ele>836.96</ele>
        <time>2012-08-01T08:05:59Z</time>
      </trkpt>
      <trkpt lat="46.42893" lon="12.37844">
        <ele>837.93</ele>
        <time>2012-08-01T08:06:04Z</time>
      </trkpt>
      <trkpt lat="46.4289" lon="12.37841">
        <ele>835.52</ele>
        <time>2012-08-01T08:06:05Z</time>
      </trkpt>
      <trkpt lat="46.42901" lon="12.37851">
        <ele>839.37</ele>
        <time>2012-08-01T08:06:06Z</time>
      </trkpt>
      <trkpt lat="46.42892" lon="12.37843">
        <ele>841.29</ele>
        <time>2012-08-01T08:06:10Z</time>
      </trkpt>
      <trkpt lat="46.42504" lon="12.37017">
        <ele>841.77</ele>
        <time>2012-08-01T08:06:11Z</time>
      </trkpt>
      <trkpt lat="46.42498" lon="12.36969">
        <ele>843.21</ele>
        <time>2012-08-01T08:06:13Z</time>
      </trkpt>
      <trkpt lat="46.42495" lon="12.36889">
        <ele>846.1</ele>
        <time>2012-08-01T08:06:16Z</time>
      </trkpt>
      <trkpt lat="46.42493" lon="12.36844">
        <ele>847.06</ele>
        <time>2012-08-01T08:06:18Z</time>
      </trkpt>
      <trkpt lat="46.42502" lon="12.36847">
        <ele>844.66</ele>
        <time>2012-08-01T08:06:19Z</time>
      </trkpt>
      <trkpt lat="46.42501" lon="12.36854">
        <ele>848.02</ele>
        <time>2012-08-01T08:06:20Z</time>
      </trkpt>
      <trkpt lat="46.42501" lon="12.36852">
        <ele>850.9</ele>
        <time>2012-08-01T08:06:21Z</time>
      </trkpt>
      <trkpt lat="46.42504" lon="12.36836">
        <ele>851.87</ele>
        <time>2012-08-01T08:06:24Z</time>
      </trkpt>
      <trkpt lat="46.42504" lon="12.36834">
        <ele>849.46</ele>
        <time>2012-08-01T08:06:25Z</time>
      </trkpt>
      <trkpt lat="46.42504" lon="12.36834">
        <ele>851.38</ele>
        <time>2012-08-01T08:06:26Z</time>
      </trkpt>
      <trkpt lat="46.42499" lon="12.36538">
        <ele>850.9</ele>
        <time>2012-08-01T08:06:31Z</time>
      </trkpt>
      <trkpt lat="46.42496" lon="12.36521">
        <ele>849.94</ele>
        <time>2012-08-01T08:06:32Z</time>
      </trkpt>
      <trkpt lat="46.42489" lon="12.36508">
        <ele>849.94</ele>
        <time>2012-08-01T08:06:33Z</time>
      </trkpt>
      <trkpt lat="46.4248" lon="12.36498">
        <ele>849.94</ele>
        <time>2012-08-01T08:06:34Z</time>
      </trkpt>
      <trkpt lat="46.42468" lon="12.3649">
        <ele>849.46</ele>
        <time>2012-08-01T08:06:35Z</time>
      </trkpt>
      <trkpt lat="46.42455" lon="12.36484">
        <ele>849.46</ele>
        <time>2012-08-01T08:06:36Z</time>
      </trkpt>
      <trkpt lat="46.4244" lon="12.36481">
        <ele>849.94</ele>
        <time>2012-08-01T08:06:37Z</time>
      </trkpt>
      <trkpt lat="46.42425" lon="12.36481">
        <ele>848.98</ele>
        <time>2012-08-01T08:06:38Z</time>
      </trkpt>
      <trkpt lat="46.4241" lon="12.36483">
        <ele>847.54</ele>
        <time>2012-08-01T08:06:39Z</time>
      </trkpt>
      <trkpt lat="46.42396" lon="12.36488">
        <ele>847.06</ele>
        <time>2012-08-01T08:06:40Z</time>
      </trkpt>
      <trkpt lat="46.42382" lon="12.36492">
        <ele>846.58</ele>
        <time>2012-08-01T08:06:41Z</time>
      </trkpt>
      <trkpt lat="46.42341" lon="12.36504">
        <ele>844.18</ele>
        <time>2012-08-01T08:06:44Z</time>
      </trkpt>
      <trkpt lat="46.42312" lon="12.36514">
        <ele>840.33</ele>
        <time>2012-08-01T08:06:47Z</time>
      </trkpt>
      <trkpt lat="46.42306" lon="12.36515">
        <ele>838.89</ele>
        <time>2012-08-01T08:06:48Z</time>
      </trkpt>
      <trkpt lat="46.42302" lon="12.36512">
        <ele>838.41</ele>
        <time>2012-08-01T08:06:49Z</time>
      </trkpt>
      <trkpt lat="46.423" lon="12.36508">
        <ele>838.41</ele>
        <time>2012-08-01T08:06:50Z</time>
      </trkpt>
      <trkpt lat="46.42299" lon="12.36502">
        <ele>838.41</ele>
        <time>2012-08-01T08:06:51Z</time>
      </trkpt>
      <trkpt lat="46.42298" lon="12.36494">
        <ele>839.37</ele>
        <time>2012-08-01T08:06:52Z</time>
      </trkpt>
      <trkpt lat="46.42299" lon="12.36483">
        <ele>838.89</ele>
        <time>2012-08-01T08:06:53Z</time>
      </trkpt>
      <trkpt lat="46.42301" lon="12.3647">
        <ele>839.85</ele>
        <time>2012-08-01T08:06:54Z</time>
      </trkpt>
      <trkpt lat="46.42309" lon="12.3642">
        <ele>841.77</ele>
        <time>2012-08-01T08:06:57Z</time>
      </trkpt>
      <trkpt lat="46.42323" lon="12.36269">
        <ele>842.25</ele>
        <time>2012-08-01T08:07:04Z</time>
      </trkpt>
      <trkpt lat="46.42328" lon="12.36241">
        <ele>841.29</ele>
        <time>2012-08-01T08:07:06Z</time>
      </trkpt>
      <trkpt lat="46.42329" lon="12.36228">
        <ele>841.29</ele>
        <time>2012-08-01T08:07:08Z</time>
      </trkpt>
      <trkpt lat="46.42329" lon="12.36231">
        <ele>840.81</ele>
        <time>2012-08-01T08:07:12Z</time>
      </trkpt>
      <trkpt lat="46.4233" lon="12.36229">
        <ele>840.81</ele>
        <time>2012-08-01T08:07:13Z</time>
      </trkpt>
      <trkpt lat="46.42332" lon="12.36228">
        <ele>840.81</ele>
        <time>2012-08-01T08:07:14Z</time>
      </trkpt>
      <trkpt lat="46.42333" lon="12.36227">
        <ele>840.81</ele>
        <time>2012-08-01T08:07:15Z</time>
      </trkpt>
      <trkpt lat="46.42334" lon="12.36226">
        <ele>841.29</ele>
        <time>2012-08-01T08:07:16Z</time>
      </trkpt>
      <trkpt lat="46.42335" lon="12.36226">
        <ele>841.29</ele>
        <time>2012-08-01T08:07:17Z</time>
      </trkpt>
      <trkpt lat="46.42335" lon="12.36225">
        <ele>840.81</ele>
        <time>2012-08-01T08:07:18Z</time>
      </trkpt>
      <trkpt lat="46.42337" lon="12.36223">
        <ele>840.33</ele>
        <time>2012-08-01T08:07:19Z</time>
      </trkpt>
      <trkpt lat="46.42339" lon="12.3622">
        <ele>841.29</ele>
        <time>2012-08-01T08:07:20Z</time>
      </trkpt>
      <trkpt lat="46.42342" lon="12.36215">
        <ele>841.29</ele>
        <time>2012-08-01T08:07:21Z</time>
      </trkpt>
      <trkpt lat="46.42344" lon="12.3621">
        <ele>841.29</ele>
        <time>2012-08-01T08:07:22Z</time>
      </trkpt>
      <trkpt lat="46.42345" lon="12.36205">
        <ele>841.29</ele>
        <time>2012-08-01T08:07:29Z</time>
      </trkpt>
      <trkpt lat="46.42341" lon="12.36207">
        <ele>841.29</ele>
        <time>2012-08-01T08:07:53Z</time>
      </trkpt>
      <trkpt lat="46.4234" lon="12.36205">
        <ele>841.77</ele>
        <time>2012-08-01T08:07:54Z</time>
      </trkpt>
      <trkpt lat="46.4234" lon="12.36202">
        <ele>841.77</ele>
        <time>2012-08-01T08:07:55Z</time>
      </trkpt>
      <trkpt lat="46.42341" lon="12.36197">
        <ele>841.77</ele>
        <time>2012-08-01T08:07:56Z</time>
      </trkpt>
      <trkpt lat="46.42346" lon="12.36191">
        <ele>841.77</ele>
        <time>2012-08-01T08:07:57Z</time>
      </trkpt>
      <trkpt lat="46.4235" lon="12.36185">
        <ele>841.77</ele>
        <time>2012-08-01T08:07:58Z</time>
      </trkpt>
      <trkpt lat="46.4237" lon="12.36157">
        <ele>841.77</ele>
        <time>2012-08-01T08:08:02Z</time>
      </trkpt>
      <trkpt lat="46.42389" lon="12.36119">
        <ele>842.73</ele>
        <time>2012-08-01T08:08:09Z</time>
      </trkpt>
      <trkpt lat="46.42392" lon="12.36113">
        <ele>843.21</ele>
        <time>2012-08-01T08:08:31Z</time>
      </trkpt>
      <trkpt lat="46.42394" lon="12.3611">
        <ele>843.21</ele>
        <time>2012-08-01T08:08:32Z</time>
      </trkpt>
      <trkpt lat="46.42395" lon="12.36107">
        <ele>843.21</ele>
        <time>2012-08-01T08:08:33Z</time>
      </trkpt>
      <trkpt lat="46.42398" lon="12.36093">
        <ele>844.18</ele>
        <time>2012-08-01T08:08:37Z</time>
      </trkpt>
      <trkpt lat="46.42396" lon="12.36086">
        <ele>844.18</ele>
        <time>2012-08-01T08:08:38Z</time>
      </trkpt>
      <trkpt lat="46.42392" lon="12.3608">
        <ele>844.18</ele>
        <time>2012-08-01T08:08:39Z</time>
      </trkpt>
      <trkpt lat="46.42375" lon="12.36049">
        <ele>843.69</ele>
        <time>2012-08-01T08:08:47Z</time>
      </trkpt>
      <trkpt lat="46.42368" lon="12.36036">
        <ele>843.69</ele>
        <time>2012-08-01T08:08:54Z</time>
      </trkpt>
      <trkpt lat="46.42363" lon="12.36028">
        <ele>844.66</ele>
        <time>2012-08-01T08:09:00Z</time>
      </trkpt>
      <trkpt lat="46.42343" lon="12.3599">
        <ele>844.18</ele>
        <time>2012-08-01T08:09:05Z</time>
      </trkpt>
      <trkpt lat="46.42335" lon="12.35975">
        <ele>844.18</ele>
        <time>2012-08-01T08:09:12Z</time>
      </trkpt>
      <trkpt lat="46.4233" lon="12.3596">
        <ele>844.18</ele>
        <time>2012-08-01T08:09:16Z</time>
      </trkpt>
      <trkpt lat="46.42326" lon="12.35954">
        <ele>845.14</ele>
        <time>2012-08-01T08:09:17Z</time>
      </trkpt>
      <trkpt lat="46.42322" lon="12.35946">
        <ele>845.14</ele>
        <time>2012-08-01T08:09:18Z</time>
      </trkpt>
      <trkpt lat="46.4226" lon="12.35842">
        <ele>846.1</ele>
        <time>2012-08-01T08:09:29Z</time>
      </trkpt>
      <trkpt lat="46.42197" lon="12.35752">
        <ele>849.46</ele>
        <time>2012-08-01T08:09:39Z</time>
      </trkpt>
      <trkpt lat="46.42155" lon="12.35692">
        <ele>851.38</ele>
        <time>2012-08-01T08:09:46Z</time>
      </trkpt>
      <trkpt lat="46.42085" lon="12.35593">
        <ele>854.75</ele>
        <time>2012-08-01T08:09:57Z</time>
      </trkpt>
      <trkpt lat="46.42078" lon="12.35582">
        <ele>855.23</ele>
        <time>2012-08-01T08:09:58Z</time>
      </trkpt>
      <trkpt lat="46.42044" lon="12.35522">
        <ele>856.67</ele>
        <time>2012-08-01T08:10:03Z</time>
      </trkpt>
      <trkpt lat="46.42039" lon="12.35507">
        <ele>857.15</ele>
        <time>2012-08-01T08:10:04Z</time>
      </trkpt>
      <trkpt lat="46.42035" lon="12.35491">
        <ele>857.63</ele>
        <time>2012-08-01T08:10:05Z</time>
      </trkpt>
      <trkpt lat="46.42031" lon="12.35474">
        <ele>857.63</ele>
        <time>2012-08-01T08:10:06Z</time>
      </trkpt>
      <trkpt lat="46.42029" lon="12.35456">
        <ele>858.11</ele>
        <time>2012-08-01T08:10:07Z</time>
      </trkpt>
      <trkpt lat="46.42027" lon="12.35438">
        <ele>858.11</ele>
        <time>2012-08-01T08:10:08Z</time>
      </trkpt>
      <trkpt lat="46.42012" lon="12.35266">
        <ele>857.15</ele>
        <time>2012-08-01T08:10:19Z</time>
      </trkpt>
      <trkpt lat="46.42" lon="12.3511">
        <ele>857.63</ele>
        <time>2012-08-01T08:10:30Z</time>
      </trkpt>
      <trkpt lat="46.41982" lon="12.34907">
        <ele>856.67</ele>
        <time>2012-08-01T08:10:42Z</time>
      </trkpt>
      <trkpt lat="46.41968" lon="12.34742">
        <ele>857.15</ele>
        <time>2012-08-01T08:10:50Z</time>
      </trkpt>
      <trkpt lat="46.41962" lon="12.34678">
        <ele>856.19</ele>
        <time>2012-08-01T08:10:53Z</time>
      </trkpt>
      <trkpt lat="46.41942" lon="12.34425">
        <ele>852.83</ele>
        <time>2012-08-01T08:11:05Z</time>
      </trkpt>
      <trkpt lat="46.41934" lon="12.34339">
        <ele>851.87</ele>
        <time>2012-08-01T08:11:09Z</time>
      </trkpt>
      <trkpt lat="46.41928" lon="12.34257">
        <ele>850.42</ele>
        <time>2012-08-01T08:11:13Z</time>
      </trkpt>
      <trkpt lat="46.41935" lon="12.3399">
        <ele>847.06</ele>
        <time>2012-08-01T08:11:26Z</time>
      </trkpt>
      <trkpt lat="46.41936" lon="12.33971">
        <ele>846.58</ele>
        <time>2012-08-01T08:11:27Z</time>
      </trkpt>
      <trkpt lat="46.41935" lon="12.33917">
        <ele>845.62</ele>
        <time>2012-08-01T08:11:30Z</time>
      </trkpt>
      <trkpt lat="46.41931" lon="12.33902">
        <ele>845.62</ele>
        <time>2012-08-01T08:11:31Z</time>
      </trkpt>
      <trkpt lat="46.41925" lon="12.33888">
        <ele>845.62</ele>
        <time>2012-08-01T08:11:32Z</time>
      </trkpt>
      <trkpt lat="46.41918" lon="12.33875">
        <ele>845.62</ele>
        <time>2012-08-01T08:11:33Z</time>
      </trkpt>
      <trkpt lat="46.41908" lon="12.33864">
        <ele>845.14</ele>
        <time>2012-08-01T08:11:34Z</time>
      </trkpt>
      <trkpt lat="46.41899" lon="12.33853">
        <ele>844.66</ele>
        <time>2012-08-01T08:11:35Z</time>
      </trkpt>
      <trkpt lat="46.41766" lon="12.33695">
        <ele>844.18</ele>
        <time>2012-08-01T08:11:48Z</time>
      </trkpt>
      <trkpt lat="46.41757" lon="12.33683">
        <ele>843.21</ele>
        <time>2012-08-01T08:11:49Z</time>
      </trkpt>
      <trkpt lat="46.4175" lon="12.33671">
        <ele>842.25</ele>
        <time>2012-08-01T08:11:50Z</time>
      </trkpt>
      <trkpt lat="46.41744" lon="12.33657">
        <ele>842.25</ele>
        <time>2012-08-01T08:11:51Z</time>
      </trkpt>
      <trkpt lat="46.4174" lon="12.33643">
        <ele>842.25</ele>
        <time>2012-08-01T08:11:52Z</time>
      </trkpt>
      <trkpt lat="46.41739" lon="12.33628">
        <ele>841.29</ele>
        <time>2012-08-01T08:11:53Z</time>
      </trkpt>
      <trkpt lat="46.4174" lon="12.33612">
        <ele>841.77</ele>
        <time>2012-08-01T08:11:54Z</time>
      </trkpt>
      <trkpt lat="46.41743" lon="12.33597">
        <ele>841.77</ele>
        <time>2012-08-01T08:11:55Z</time>
      </trkpt>
      <trkpt lat="46.41748" lon="12.33582">
        <ele>841.77</ele>
        <time>2012-08-01T08:11:56Z</time>
      </trkpt>
      <trkpt lat="46.41754" lon="12.33567">
        <ele>842.25</ele>
        <time>2012-08-01T08:11:57Z</time>
      </trkpt>
      <trkpt lat="46.41779" lon="12.33509">
        <ele>841.29</ele>
        <time>2012-08-01T08:12:01Z</time>
      </trkpt>
      <trkpt lat="46.41779" lon="12.33494">
        <ele>841.29</ele>
        <time>2012-08-01T08:12:02Z</time>
      </trkpt>
      <trkpt lat="46.41776" lon="12.33479">
        <ele>841.77</ele>
        <time>2012-08-01T08:12:03Z</time>
      </trkpt>
      <trkpt lat="46.41771" lon="12.33464">
        <ele>842.25</ele>
        <time>2012-08-01T08:12:04Z</time>
      </trkpt>
      <trkpt lat="46.41766" lon="12.3345">
        <ele>842.25</ele>
        <time>2012-08-01T08:12:05Z</time>
      </trkpt>
      <trkpt lat="46.41729" lon="12.33354">
        <ele>841.29</ele>
        <time>2012-08-01T08:12:12Z</time>
      </trkpt>
      <trkpt lat="46.41727" lon="12.33342">
        <ele>840.81</ele>
        <time>2012-08-01T08:12:13Z</time>
      </trkpt>
      <trkpt lat="46.41727" lon="12.33328">
        <ele>841.29</ele>
        <time>2012-08-01T08:12:14Z</time>
      </trkpt>
      <trkpt lat="46.41734" lon="12.33162">
        <ele>841.29</ele>
        <time>2012-08-01T08:12:25Z</time>
      </trkpt>
      <trkpt lat="46.41737" lon="12.33118">
        <ele>841.29</ele>
        <time>2012-08-01T08:12:28Z</time>
      </trkpt>
      <trkpt lat="46.4174" lon="12.33104">
        <ele>841.77</ele>
        <time>2012-08-01T08:12:29Z</time>
      </trkpt>
      <trkpt lat="46.41776" lon="12.32981">
        <ele>842.25</ele>
        <time>2012-08-01T08:12:38Z</time>
      </trkpt>
      <trkpt lat="46.41774" lon="12.32968">
        <ele>842.73</ele>
        <time>2012-08-01T08:12:39Z</time>
      </trkpt>
      <trkpt lat="46.4177" lon="12.32957">
        <ele>843.21</ele>
        <time>2012-08-01T08:12:40Z</time>
      </trkpt>
      <trkpt lat="46.41763" lon="12.32944">
        <ele>843.69</ele>
        <time>2012-08-01T08:12:41Z</time>
      </trkpt>
      <trkpt lat="46.41756" lon="12.32932">
        <ele>843.69</ele>
        <time>2012-08-01T08:12:42Z</time>
      </trkpt>
      <trkpt lat="46.41686" lon="12.32818">
        <ele>847.06</ele>
        <time>2012-08-01T08:12:51Z</time>
      </trkpt>
      <trkpt lat="46.41663" lon="12.32781">
        <ele>847.06</ele>
        <time>2012-08-01T08:12:54Z</time>
      </trkpt>
      <trkpt lat="46.41655" lon="12.32771">
        <ele>848.02</ele>
        <time>2012-08-01T08:12:55Z</time>
      </trkpt>
      <trkpt lat="46.41645" lon="12.32763">
        <ele>848.02</ele>
        <time>2012-08-01T08:12:56Z</time>
      </trkpt>
      <trkpt lat="46.41635" lon="12.32758">
        <ele>848.02</ele>
        <time>2012-08-01T08:12:57Z</time>
      </trkpt>
      <trkpt lat="46.41626" lon="12.32755">
        <ele>848.02</ele>
        <time>2012-08-01T08:12:58Z</time>
      </trkpt>
      <trkpt lat="46.41617" lon="12.32753">
        <ele>848.02</ele>
        <time>2012-08-01T08:12:59Z</time>
      </trkpt>
      <trkpt lat="46.4161" lon="12.32752">
        <ele>847.06</ele>
        <time>2012-08-01T08:13:00Z</time>
      </trkpt>
      <trkpt lat="46.41598" lon="12.32753">
        <ele>847.54</ele>
        <time>2012-08-01T08:13:02Z</time>
      </trkpt>
      <trkpt lat="46.41593" lon="12.32753">
        <ele>847.54</ele>
        <time>2012-08-01T08:13:03Z</time>
      </trkpt>
      <trkpt lat="46.41587" lon="12.32753">
        <ele>848.02</ele>
        <time>2012-08-01T08:13:04Z</time>
      </trkpt>
      <trkpt lat="46.41574" lon="12.32748">
        <ele>847.54</ele>
        <time>2012-08-01T08:13:08Z</time>
      </trkpt>
      <trkpt lat="46.41574" lon="12.32749">
        <ele>848.02</ele>
        <time>2012-08-01T08:13:21Z</time>
      </trkpt>
      <trkpt lat="46.41574" lon="12.32748">
        <ele>848.02</ele>
        <time>2012-08-01T08:13:57Z</time>
      </trkpt>
      <trkpt lat="46.41571" lon="12.32747">
        <ele>848.02</ele>
        <time>2012-08-01T08:14:17Z</time>
      </trkpt>
      <trkpt lat="46.41522" lon="12.32738">
        <ele>850.42</ele>
        <time>2012-08-01T08:14:24Z</time>
      </trkpt>
      <trkpt lat="46.41515" lon="12.32734">
        <ele>850.42</ele>
        <time>2012-08-01T08:14:25Z</time>
      </trkpt>
      <trkpt lat="46.4151" lon="12.32729">
        <ele>850.9</ele>
        <time>2012-08-01T08:14:26Z</time>
      </trkpt>
      <trkpt lat="46.41507" lon="12.32722">
        <ele>850.9</ele>
        <time>2012-08-01T08:14:27Z</time>
      </trkpt>
      <trkpt lat="46.41507" lon="12.32714">
        <ele>850.42</ele>
        <time>2012-08-01T08:14:28Z</time>
      </trkpt>
      <trkpt lat="46.41509" lon="12.32706">
        <ele>851.38</ele>
        <time>2012-08-01T08:14:29Z</time>
      </trkpt>
      <trkpt lat="46.41512" lon="12.32697">
        <ele>852.35</ele>
        <time>2012-08-01T08:14:30Z</time>
      </trkpt>
      <trkpt lat="46.41518" lon="12.32688">
        <ele>852.35</ele>
        <time>2012-08-01T08:14:31Z</time>
      </trkpt>
      <trkpt lat="46.41523" lon="12.32677">
        <ele>851.87</ele>
        <time>2012-08-01T08:14:32Z</time>
      </trkpt>
      <trkpt lat="46.41553" lon="12.32587">
        <ele>851.38</ele>
        <time>2012-08-01T08:14:39Z</time>
      </trkpt>
      <trkpt lat="46.41552" lon="12.32576">
        <ele>851.38</ele>
        <time>2012-08-01T08:14:40Z</time>
      </trkpt>
      <trkpt lat="46.41548" lon="12.32565">
        <ele>851.38</ele>
        <time>2012-08-01T08:14:41Z</time>
      </trkpt>
      <trkpt lat="46.41542" lon="12.32555">
        <ele>851.38</ele>
        <time>2012-08-01T08:14:42Z</time>
      </trkpt>
      <trkpt lat="46.41535" lon="12.32545">
        <ele>851.38</ele>
        <time>2012-08-01T08:14:43Z</time>
      </trkpt>
      <trkpt lat="46.41514" lon="12.32515">
        <ele>852.35</ele>
        <time>2012-08-01T08:14:46Z</time>
      </trkpt>
      <trkpt lat="46.4151" lon="12.32505">
        <ele>851.38</ele>
        <time>2012-08-01T08:14:47Z</time>
      </trkpt>
      <trkpt lat="46.41508" lon="12.32493">
        <ele>851.87</ele>
        <time>2012-08-01T08:14:48Z</time>
      </trkpt>
      <trkpt lat="46.41507" lon="12.3248">
        <ele>851.87</ele>
        <time>2012-08-01T08:14:49Z</time>
      </trkpt>
      <trkpt lat="46.41508" lon="12.32467">
        <ele>851.38</ele>
        <time>2012-08-01T08:14:50Z</time>
      </trkpt>
      <trkpt lat="46.41509" lon="12.32452">
        <ele>852.35</ele>
        <time>2012-08-01T08:14:51Z</time>
      </trkpt>
      <trkpt lat="46.41508" lon="12.32425">
        <ele>851.38</ele>
        <time>2012-08-01T08:14:53Z</time>
      </trkpt>
      <trkpt lat="46.41504" lon="12.32412">
        <ele>852.35</ele>
        <time>2012-08-01T08:14:54Z</time>
      </trkpt>
      <trkpt lat="46.41499" lon="12.324">
        <ele>853.31</ele>
        <time>2012-08-01T08:14:55Z</time>
      </trkpt>
      <trkpt lat="46.41491" lon="12.32388">
        <ele>852.83</ele>
        <time>2012-08-01T08:14:56Z</time>
      </trkpt>
      <trkpt lat="46.41419" lon="12.32249">
        <ele>850.42</ele>
        <time>2012-08-01T08:15:06Z</time>
      </trkpt>
      <trkpt lat="46.41416" lon="12.32235">
        <ele>850.42</ele>
        <time>2012-08-01T08:15:07Z</time>
      </trkpt>
      <trkpt lat="46.41416" lon="12.3222">
        <ele>849.94</ele>
        <time>2012-08-01T08:15:08Z</time>
      </trkpt>
      <trkpt lat="46.41419" lon="12.32204">
        <ele>850.42</ele>
        <time>2012-08-01T08:15:09Z</time>
      </trkpt>
      <trkpt lat="46.41425" lon="12.32189">
        <ele>850.9</ele>
        <time>2012-08-01T08:15:10Z</time>
      </trkpt>
      <trkpt lat="46.41432" lon="12.32174">
        <ele>850.9</ele>
        <time>2012-08-01T08:15:11Z</time>
      </trkpt>
      <trkpt lat="46.41501" lon="12.32016">
        <ele>848.98</ele>
        <time>2012-08-01T08:15:21Z</time>
      </trkpt>
      <trkpt lat="46.41508" lon="12.32003">
        <ele>848.5</ele>
        <time>2012-08-01T08:15:22Z</time>
      </trkpt>
      <trkpt lat="46.41517" lon="12.31991">
        <ele>848.5</ele>
        <time>2012-08-01T08:15:23Z</time>
      </trkpt>
      <trkpt lat="46.41526" lon="12.31979">
        <ele>848.98</ele>
        <time>2012-08-01T08:15:24Z</time>
      </trkpt>
      <trkpt lat="46.41569" lon="12.31941">
        <ele>848.5</ele>
        <time>2012-08-01T08:15:28Z</time>
      </trkpt>
      <trkpt lat="46.41579" lon="12.31936">
        <ele>848.98</ele>
        <time>2012-08-01T08:15:29Z</time>
      </trkpt>
      <trkpt lat="46.41591" lon="12.31934">
        <ele>849.46</ele>
        <time>2012-08-01T08:15:30Z</time>
      </trkpt>
      <trkpt lat="46.41603" lon="12.31932">
        <ele>848.5</ele>
        <time>2012-08-01T08:15:31Z</time>
      </trkpt>
      <trkpt lat="46.41615" lon="12.31926">
        <ele>848.5</ele>
        <time>2012-08-01T08:15:32Z</time>
      </trkpt>
      <trkpt lat="46.41627" lon="12.31917">
        <ele>848.5</ele>
        <time>2012-08-01T08:15:33Z</time>
      </trkpt>
      <trkpt lat="46.41636" lon="12.31904">
        <ele>848.5</ele>
        <time>2012-08-01T08:15:34Z</time>
      </trkpt>
      <trkpt lat="46.41644" lon="12.31887">
        <ele>848.5</ele>
        <time>2012-08-01T08:15:35Z</time>
      </trkpt>
      <trkpt lat="46.41651" lon="12.31869">
        <ele>848.98</ele>
        <time>2012-08-01T08:15:36Z</time>
      </trkpt>
      <trkpt lat="46.41726" lon="12.31681">
        <ele>847.06</ele>
        <time>2012-08-01T08:15:46Z</time>
      </trkpt>
      <trkpt lat="46.41732" lon="12.31663">
        <ele>846.58</ele>
        <time>2012-08-01T08:15:47Z</time>
      </trkpt>
      <trkpt lat="46.41735" lon="12.31644">
        <ele>846.1</ele>
        <time>2012-08-01T08:15:48Z</time>
      </trkpt>
      <trkpt lat="46.41735" lon="12.31625">
        <ele>846.58</ele>
        <time>2012-08-01T08:15:49Z</time>
      </trkpt>
      <trkpt lat="46.41731" lon="12.31605">
        <ele>846.1</ele>
        <time>2012-08-01T08:15:50Z</time>
      </trkpt>
      <trkpt lat="46.41724" lon="12.31587">
        <ele>846.1</ele>
        <time>2012-08-01T08:15:51Z</time>
      </trkpt>
      <trkpt lat="46.41716" lon="12.31572">
        <ele>846.1</ele>
        <time>2012-08-01T08:15:52Z</time>
      </trkpt>
      <trkpt lat="46.41709" lon="12.31556">
        <ele>845.62</ele>
        <time>2012-08-01T08:15:53Z</time>
      </trkpt>
      <trkpt lat="46.41705" lon="12.31539">
        <ele>845.14</ele>
        <time>2012-08-01T08:15:54Z</time>
      </trkpt>
      <trkpt lat="46.41705" lon="12.31522">
        <ele>844.66</ele>
        <time>2012-08-01T08:15:55Z</time>
      </trkpt>
      <trkpt lat="46.41707" lon="12.31503">
        <ele>844.66</ele>
        <time>2012-08-01T08:15:56Z</time>
      </trkpt>
      <trkpt lat="46.41712" lon="12.31486">
        <ele>845.62</ele>
        <time>2012-08-01T08:15:57Z</time>
      </trkpt>
      <trkpt lat="46.41719" lon="12.31468">
        <ele>845.14</ele>
        <time>2012-08-01T08:15:58Z</time>
      </trkpt>
      <trkpt lat="46.41742" lon="12.31415">
        <ele>846.1</ele>
        <time>2012-08-01T08:16:01Z</time>
      </trkpt>
      <trkpt lat="46.418" lon="12.3131">
        <ele>844.18</ele>
        <time>2012-08-01T08:16:07Z</time>
      </trkpt>
      <trkpt lat="46.41808" lon="12.31294">
        <ele>843.21</ele>
        <time>2012-08-01T08:16:08Z</time>
      </trkpt>
      <trkpt lat="46.41817" lon="12.3128">
        <ele>842.73</ele>
        <time>2012-08-01T08:16:09Z</time>
      </trkpt>
      <trkpt lat="46.41829" lon="12.31269">
        <ele>842.73</ele>
        <time>2012-08-01T08:16:10Z</time>
      </trkpt>
      <trkpt lat="46.41841" lon="12.31262">
        <ele>843.21</ele>
        <time>2012-08-01T08:16:11Z</time>
      </trkpt>
      <trkpt lat="46.41871" lon="12.31255">
        <ele>843.21</ele>
        <time>2012-08-01T08:16:13Z</time>
      </trkpt>
      <trkpt lat="46.41887" lon="12.31248">
        <ele>842.73</ele>
        <time>2012-08-01T08:16:14Z</time>
      </trkpt>
      <trkpt lat="46.41902" lon="12.31238">
        <ele>842.73</ele>
        <time>2012-08-01T08:16:15Z</time>
      </trkpt>
      <trkpt lat="46.41916" lon="12.31226">
        <ele>843.21</ele>
        <time>2012-08-01T08:16:16Z</time>
      </trkpt>
      <trkpt lat="46.41929" lon="12.31214">
        <ele>842.73</ele>
        <time>2012-08-01T08:16:17Z</time>
      </trkpt>
      <trkpt lat="46.41942" lon="12.312">
        <ele>843.21</ele>
        <time>2012-08-01T08:16:18Z</time>
      </trkpt>
      <trkpt lat="46.41993" lon="12.31124">
        <ele>841.29</ele>
        <time>2012-08-01T08:16:23Z</time>
      </trkpt>
      <trkpt lat="46.41999" lon="12.3111">
        <ele>841.29</ele>
        <time>2012-08-01T08:16:24Z</time>
      </trkpt>
      <trkpt lat="46.42001" lon="12.31095">
        <ele>841.29</ele>
        <time>2012-08-01T08:16:25Z</time>
      </trkpt>
      <trkpt lat="46.42" lon="12.31079">
        <ele>841.29</ele>
        <time>2012-08-01T08:16:26Z</time>
      </trkpt>
      <trkpt lat="46.41997" lon="12.31063">
        <ele>840.81</ele>
        <time>2012-08-01T08:16:27Z</time>
      </trkpt>
      <trkpt lat="46.41994" lon="12.31049">
        <ele>841.29</ele>
        <time>2012-08-01T08:16:28Z</time>
      </trkpt>
      <trkpt lat="46.4199" lon="12.31038">
        <ele>840.81</ele>
        <time>2012-08-01T08:16:29Z</time>
      </trkpt>
      <trkpt lat="46.41983" lon="12.31027">
        <ele>840.81</ele>
        <time>2012-08-01T08:16:30Z</time>
      </trkpt>
      <trkpt lat="46.41974" lon="12.31021">
        <ele>840.33</ele>
        <time>2012-08-01T08:16:31Z</time>
      </trkpt>
      <trkpt lat="46.41963" lon="12.3102">
        <ele>840.81</ele>
        <time>2012-08-01T08:16:32Z</time>
      </trkpt>
      <trkpt lat="46.41951" lon="12.31025">
        <ele>840.33</ele>
        <time>2012-08-01T08:16:33Z</time>
      </trkpt>
      <trkpt lat="46.41938" lon="12.31034">
        <ele>840.81</ele>
        <time>2012-08-01T08:16:34Z</time>
      </trkpt>
      <trkpt lat="46.41917" lon="12.31055">
        <ele>840.33</ele>
        <time>2012-08-01T08:16:36Z</time>
      </trkpt>
      <trkpt lat="46.41906" lon="12.31063">
        <ele>840.33</ele>
        <time>2012-08-01T08:16:37Z</time>
      </trkpt>
      <trkpt lat="46.41892" lon="12.31068">
        <ele>840.81</ele>
        <time>2012-08-01T08:16:38Z</time>
      </trkpt>
      <trkpt lat="46.41878" lon="12.31069">
        <ele>841.29</ele>
        <time>2012-08-01T08:16:39Z</time>
      </trkpt>
      <trkpt lat="46.41864" lon="12.31066">
        <ele>841.77</ele>
        <time>2012-08-01T08:16:40Z</time>
      </trkpt>
      <trkpt lat="46.41849" lon="12.31059">
        <ele>841.77</ele>
        <time>2012-08-01T08:16:41Z</time>
      </trkpt>
      <trkpt lat="46.41836" lon="12.31048">
        <ele>843.21</ele>
        <time>2012-08-01T08:16:42Z</time>
      </trkpt>
      <trkpt lat="46.41823" lon="12.31034">
        <ele>843.21</ele>
        <time>2012-08-01T08:16:43Z</time>
      </trkpt>
      <trkpt lat="46.41811" lon="12.31018">
        <ele>844.18</ele>
        <time>2012-08-01T08:16:44Z</time>
      </trkpt>
      <trkpt lat="46.41797" lon="12.31004">
        <ele>844.66</ele>
        <time>2012-08-01T08:16:45Z</time>
      </trkpt>
      <trkpt lat="46.41782" lon="12.30993">
        <ele>845.62</ele>
        <time>2012-08-01T08:16:46Z</time>
      </trkpt>
      <trkpt lat="46.41709" lon="12.30963">
        <ele>845.62</ele>
        <time>2012-08-01T08:16:51Z</time>
      </trkpt>
      <trkpt lat="46.41696" lon="12.30965">
        <ele>846.1</ele>
        <time>2012-08-01T08:16:52Z</time>
      </trkpt>
      <trkpt lat="46.41682" lon="12.30971">
        <ele>847.06</ele>
        <time>2012-08-01T08:16:53Z</time>
      </trkpt>
      <trkpt lat="46.41627" lon="12.31008">
        <ele>849.46</ele>
        <time>2012-08-01T08:16:57Z</time>
      </trkpt>
      <trkpt lat="46.41614" lon="12.3102">
        <ele>849.94</ele>
        <time>2012-08-01T08:16:58Z</time>
      </trkpt>
      <trkpt lat="46.41533" lon="12.31127">
        <ele>851.87</ele>
        <time>2012-08-01T08:17:05Z</time>
      </trkpt>
      <trkpt lat="46.41524" lon="12.31145">
        <ele>852.35</ele>
        <time>2012-08-01T08:17:06Z</time>
      </trkpt>
      <trkpt lat="46.41517" lon="12.31165">
        <ele>851.87</ele>
        <time>2012-08-01T08:17:07Z</time>
      </trkpt>
      <trkpt lat="46.41505" lon="12.31205">
        <ele>853.31</ele>
        <time>2012-08-01T08:17:09Z</time>
      </trkpt>
      <trkpt lat="46.41497" lon="12.31223">
        <ele>852.83</ele>
        <time>2012-08-01T08:17:10Z</time>
      </trkpt>
      <trkpt lat="46.41486" lon="12.31239">
        <ele>854.27</ele>
        <time>2012-08-01T08:17:11Z</time>
      </trkpt>
      <trkpt lat="46.41475" lon="12.31255">
        <ele>854.27</ele>
        <time>2012-08-01T08:17:12Z</time>
      </trkpt>
      <trkpt lat="46.41464" lon="12.31269">
        <ele>854.75</ele>
        <time>2012-08-01T08:17:13Z</time>
      </trkpt>
      <trkpt lat="46.41441" lon="12.31293">
        <ele>855.23</ele>
        <time>2012-08-01T08:17:15Z</time>
      </trkpt>
      <trkpt lat="46.41429" lon="12.31301">
        <ele>854.75</ele>
        <time>2012-08-01T08:17:16Z</time>
      </trkpt>
      <trkpt lat="46.41415" lon="12.31305">
        <ele>855.71</ele>
        <time>2012-08-01T08:17:17Z</time>
      </trkpt>
      <trkpt lat="46.41401" lon="12.31307">
        <ele>855.71</ele>
        <time>2012-08-01T08:17:18Z</time>
      </trkpt>
      <trkpt lat="46.41387" lon="12.31307">
        <ele>856.19</ele>
        <time>2012-08-01T08:17:19Z</time>
      </trkpt>
      <trkpt lat="46.4136" lon="12.31304">
        <ele>856.67</ele>
        <time>2012-08-01T08:17:21Z</time>
      </trkpt>
      <trkpt lat="46.41348" lon="12.313">
        <ele>856.67</ele>
        <time>2012-08-01T08:17:22Z</time>
      </trkpt>
      <trkpt lat="46.41337" lon="12.31293">
        <ele>856.67</ele>
        <time>2012-08-01T08:17:23Z</time>
      </trkpt>
      <trkpt lat="46.41326" lon="12.31282">
        <ele>857.15</ele>
        <time>2012-08-01T08:17:24Z</time>
      </trkpt>
      <trkpt lat="46.41318" lon="12.31271">
        <ele>857.63</ele>
        <time>2012-08-01T08:17:25Z</time>
      </trkpt>
      <trkpt lat="46.4131" lon="12.31259">
        <ele>857.63</ele>
        <time>2012-08-01T08:17:26Z</time>
      </trkpt>
      <trkpt lat="46.41297" lon="12.31235">
        <ele>857.15</ele>
        <time>2012-08-01T08:17:28Z</time>
      </trkpt>
      <trkpt lat="46.41293" lon="12.31221">
        <ele>857.15</ele>
        <time>2012-08-01T08:17:29Z</time>
      </trkpt>
      <trkpt lat="46.41291" lon="12.31205">
        <ele>857.63</ele>
        <time>2012-08-01T08:17:30Z</time>
      </trkpt>
      <trkpt lat="46.41291" lon="12.31189">
        <ele>858.11</ele>
        <time>2012-08-01T08:17:31Z</time>
      </trkpt>
      <trkpt lat="46.41291" lon="12.31172">
        <ele>857.63</ele>
        <time>2012-08-01T08:17:32Z</time>
      </trkpt>
      <trkpt lat="46.41292" lon="12.31127">
        <ele>859.08</ele>
        <time>2012-08-01T08:17:35Z</time>
      </trkpt>
      <trkpt lat="46.41292" lon="12.31113">
        <ele>860.04</ele>
        <time>2012-08-01T08:17:36Z</time>
      </trkpt>
      <trkpt lat="46.4129" lon="12.31099">
        <ele>860.52</ele>
        <time>2012-08-01T08:17:37Z</time>
      </trkpt>
      <trkpt lat="46.41287" lon="12.31086">
        <ele>861.96</ele>
        <time>2012-08-01T08:17:38Z</time>
      </trkpt>
      <trkpt lat="46.41284" lon="12.31074">
        <ele>862.44</ele>
        <time>2012-08-01T08:17:39Z</time>
      </trkpt>
      <trkpt lat="46.4128" lon="12.31063">
        <ele>863.4</ele>
        <time>2012-08-01T08:17:40Z</time>
      </trkpt>
      <trkpt lat="46.41276" lon="12.31053">
        <ele>863.88</ele>
        <time>2012-08-01T08:17:41Z</time>
      </trkpt>
      <trkpt lat="46.41272" lon="12.31043">
        <ele>865.32</ele>
        <time>2012-08-01T08:17:42Z</time>
      </trkpt>
      <trkpt lat="46.41269" lon="12.31034">
        <ele>864.84</ele>
        <time>2012-08-01T08:17:43Z</time>
      </trkpt>
      <trkpt lat="46.41267" lon="12.31026">
        <ele>865.32</ele>
        <time>2012-08-01T08:17:44Z</time>
      </trkpt>
      <trkpt lat="46.41264" lon="12.31002">
        <ele>867.25</ele>
        <time>2012-08-01T08:17:48Z</time>
      </trkpt>
      <trkpt lat="46.41265" lon="12.30993">
        <ele>868.21</ele>
        <time>2012-08-01T08:17:49Z</time>
      </trkpt>
      <trkpt lat="46.41265" lon="12.30983">
        <ele>869.17</ele>
        <time>2012-08-01T08:17:50Z</time>
      </trkpt>
      <trkpt lat="46.41265" lon="12.30974">
        <ele>869.65</ele>
        <time>2012-08-01T08:17:51Z</time>
      </trkpt>
      <trkpt lat="46.41264" lon="12.30966">
        <ele>870.13</ele>
        <time>2012-08-01T08:17:52Z</time>
      </trkpt>
      <trkpt lat="46.41263" lon="12.30959">
        <ele>870.13</ele>
        <time>2012-08-01T08:17:53Z</time>
      </trkpt>
      <trkpt lat="46.41263" lon="12.30954">
        <ele>870.61</ele>
        <time>2012-08-01T08:17:54Z</time>
      </trkpt>
      <trkpt lat="46.41263" lon="12.30951">
        <ele>871.09</ele>
        <time>2012-08-01T08:17:55Z</time>
      </trkpt>
      <trkpt lat="46.41268" lon="12.30934">
        <ele>872.05</ele>
        <time>2012-08-01T08:18:02Z</time>
      </trkpt>
      <trkpt lat="46.4127" lon="12.30921">
        <ele>873.5</ele>
        <time>2012-08-01T08:18:04Z</time>
      </trkpt>
      <trkpt lat="46.41272" lon="12.30904">
        <ele>874.94</ele>
        <time>2012-08-01T08:18:08Z</time>
      </trkpt>
      <trkpt lat="46.41272" lon="12.30902">
        <ele>874.94</ele>
        <time>2012-08-01T08:18:09Z</time>
      </trkpt>
      <trkpt lat="46.41274" lon="12.309">
        <ele>875.9</ele>
        <time>2012-08-01T08:18:11Z</time>
      </trkpt>
      <trkpt lat="46.41275" lon="12.30901">
        <ele>875.42</ele>
        <time>2012-08-01T08:18:12Z</time>
      </trkpt>
      <trkpt lat="46.41276" lon="12.30903">
        <ele>875.9</ele>
        <time>2012-08-01T08:18:13Z</time>
      </trkpt>
      <trkpt lat="46.41277" lon="12.3091">
        <ele>875.9</ele>
        <time>2012-08-01T08:18:14Z</time>
      </trkpt>
      <trkpt lat="46.41276" lon="12.30921">
        <ele>876.38</ele>
        <time>2012-08-01T08:18:15Z</time>
      </trkpt>
      <trkpt lat="46.41277" lon="12.30958">
        <ele>874.94</ele>
        <time>2012-08-01T08:18:19Z</time>
      </trkpt>
      <trkpt lat="46.41276" lon="12.30962">
        <ele>874.46</ele>
        <time>2012-08-01T08:18:20Z</time>
      </trkpt>
      <trkpt lat="46.41284" lon="12.3096">
        <ele>878.3</ele>
        <time>2012-08-01T08:18:41Z</time>
      </trkpt>
      <trkpt lat="46.41274" lon="12.30967">
        <ele>878.3</ele>
        <time>2012-08-01T08:19:15Z</time>
      </trkpt>
      <trkpt lat="46.41275" lon="12.30967">
        <ele>878.3</ele>
        <time>2012-08-01T08:19:50Z</time>
      </trkpt>
      <trkpt lat="46.41276" lon="12.30966">
        <ele>877.82</ele>
        <time>2012-08-01T08:20:32Z</time>
      </trkpt>
      <trkpt lat="46.41276" lon="12.30967">
        <ele>878.3</ele>
        <time>2012-08-01T08:21:11Z</time>
      </trkpt>
      <trkpt lat="46.41277" lon="12.30968">
        <ele>877.82</ele>
        <time>2012-08-01T08:21:54Z</time>
      </trkpt>
      <trkpt lat="46.41276" lon="12.30967">
        <ele>877.82</ele>
        <time>2012-08-01T08:22:38Z</time>
      </trkpt>
      <trkpt lat="46.41275" lon="12.30968">
        <ele>878.3</ele>
        <time>2012-08-01T08:23:21Z</time>
      </trkpt>
      <trkpt lat="46.41275" lon="12.30969">
        <ele>878.3</ele>
        <time>2012-08-01T08:23:59Z</time>
      </trkpt>
      <trkpt lat="46.41276" lon="12.30969">
        <ele>878.78</ele>
        <time>2012-08-01T08:24:39Z</time>
      </trkpt>
      <trkpt lat="46.41275" lon="12.30968">
        <ele>878.3</ele>
        <time>2012-08-01T08:25:24Z</time>
      </trkpt>
      <trkpt lat="46.41275" lon="12.30968">
        <ele>878.3</ele>
        <time>2012-08-01T08:26:05Z</time>
      </trkpt>
      <trkpt lat="46.41274" lon="12.3097">
        <ele>878.3</ele>
        <time>2012-08-01T08:26:44Z</time>
      </trkpt>
      <trkpt lat="46.41275" lon="12.30968">
        <ele>878.3</ele>
        <time>2012-08-01T08:27:24Z</time>
      </trkpt>
      <trkpt lat="46.41276" lon="12.30968">
        <ele>878.78</ele>
        <time>2012-08-01T08:27:58Z</time>
      </trkpt>
      <trkpt lat="46.41275" lon="12.30968">
        <ele>877.34</ele>
        <time>2012-08-01T08:28:33Z</time>
      </trkpt>
      <trkpt lat="46.41274" lon="12.30966">
        <ele>878.3</ele>
        <time>2012-08-01T08:29:00Z</time>
      </trkpt>
      <trkpt lat="46.41274" lon="12.30967">
        <ele>877.34</ele>
        <time>2012-08-01T08:29:14Z</time>
      </trkpt>
      <trkpt lat="46.41282" lon="12.30981">
        <ele>877.82</ele>
        <time>2012-08-01T08:29:22Z</time>
      </trkpt>
      <trkpt lat="46.4128" lon="12.30981">
        <ele>877.34</ele>
        <time>2012-08-01T08:29:28Z</time>
      </trkpt>
      <trkpt lat="46.41278" lon="12.30963">
        <ele>877.82</ele>
        <time>2012-08-01T08:29:35Z</time>
      </trkpt>
      <trkpt lat="46.41277" lon="12.30962">
        <ele>877.34</ele>
        <time>2012-08-01T08:29:53Z</time>
      </trkpt>
      <trkpt lat="46.41276" lon="12.30945">
        <ele>877.82</ele>
        <time>2012-08-01T08:29:59Z</time>
      </trkpt>
      <trkpt lat="46.41277" lon="12.30869">
        <ele>880.71</ele>
        <time>2012-08-01T08:30:14Z</time>
      </trkpt>
      <trkpt lat="46.41276" lon="12.30824">
        <ele>885.03</ele>
        <time>2012-08-01T08:30:19Z</time>
      </trkpt>
      <trkpt lat="46.41275" lon="12.30814">
        <ele>885.03</ele>
        <time>2012-08-01T08:30:20Z</time>
      </trkpt>
      <trkpt lat="46.41273" lon="12.3077">
        <ele>888.88</ele>
        <time>2012-08-01T08:30:24Z</time>
      </trkpt>
      <trkpt lat="46.41272" lon="12.3076">
        <ele>888.88</ele>
        <time>2012-08-01T08:30:25Z</time>
      </trkpt>
      <trkpt lat="46.41265" lon="12.30704">
        <ele>892.72</ele>
        <time>2012-08-01T08:30:30Z</time>
      </trkpt>
      <trkpt lat="46.41257" lon="12.3063">
        <ele>895.61</ele>
        <time>2012-08-01T08:30:36Z</time>
      </trkpt>
      <trkpt lat="46.41256" lon="12.30606">
        <ele>896.57</ele>
        <time>2012-08-01T08:30:38Z</time>
      </trkpt>
      <trkpt lat="46.41252" lon="12.30556">
        <ele>898.97</ele>
        <time>2012-08-01T08:30:42Z</time>
      </trkpt>
      <trkpt lat="46.41247" lon="12.30506">
        <ele>902.33</ele>
        <time>2012-08-01T08:30:46Z</time>
      </trkpt>
      <trkpt lat="46.41243" lon="12.30446">
        <ele>906.66</ele>
        <time>2012-08-01T08:30:51Z</time>
      </trkpt>
      <trkpt lat="46.41241" lon="12.30423">
        <ele>907.62</ele>
        <time>2012-08-01T08:30:53Z</time>
      </trkpt>
      <trkpt lat="46.41235" lon="12.30368">
        <ele>910.99</ele>
        <time>2012-08-01T08:30:58Z</time>
      </trkpt>
      <trkpt lat="46.41233" lon="12.30356">
        <ele>910.99</ele>
        <time>2012-08-01T08:30:59Z</time>
      </trkpt>
      <trkpt lat="46.41195" lon="12.30209">
        <ele>909.06</ele>
        <time>2012-08-01T08:31:12Z</time>
      </trkpt>
      <trkpt lat="46.4119" lon="12.30199">
        <ele>909.54</ele>
        <time>2012-08-01T08:31:13Z</time>
      </trkpt>
      <trkpt lat="46.41185" lon="12.30191">
        <ele>908.58</ele>
        <time>2012-08-01T08:31:14Z</time>
      </trkpt>
      <trkpt lat="46.41169" lon="12.30164">
        <ele>905.22</ele>
        <time>2012-08-01T08:31:17Z</time>
      </trkpt>
      <trkpt lat="46.41164" lon="12.30155">
        <ele>905.22</ele>
        <time>2012-08-01T08:31:18Z</time>
      </trkpt>
      <trkpt lat="46.4116" lon="12.30145">
        <ele>904.74</ele>
        <time>2012-08-01T08:31:19Z</time>
      </trkpt>
      <trkpt lat="46.41148" lon="12.30111">
        <ele>904.26</ele>
        <time>2012-08-01T08:31:23Z</time>
      </trkpt>
      <trkpt lat="46.4113" lon="12.30049">
        <ele>902.82</ele>
        <time>2012-08-01T08:31:29Z</time>
      </trkpt>
      <trkpt lat="46.41126" lon="12.30041">
        <ele>902.82</ele>
        <time>2012-08-01T08:31:30Z</time>
      </trkpt>
      <trkpt lat="46.41121" lon="12.30034">
        <ele>902.33</ele>
        <time>2012-08-01T08:31:31Z</time>
      </trkpt>
      <trkpt lat="46.41115" lon="12.30028">
        <ele>902.33</ele>
        <time>2012-08-01T08:31:32Z</time>
      </trkpt>
      <trkpt lat="46.41109" lon="12.30022">
        <ele>901.37</ele>
        <time>2012-08-01T08:31:33Z</time>
      </trkpt>
      <trkpt lat="46.41102" lon="12.30015">
        <ele>900.41</ele>
        <time>2012-08-01T08:31:34Z</time>
      </trkpt>
      <trkpt lat="46.41096" lon="12.30007">
        <ele>899.93</ele>
        <time>2012-08-01T08:31:35Z</time>
      </trkpt>
      <trkpt lat="46.4109" lon="12.29997">
        <ele>899.45</ele>
        <time>2012-08-01T08:31:36Z</time>
      </trkpt>
      <trkpt lat="46.41061" lon="12.29949">
        <ele>896.57</ele>
        <time>2012-08-01T08:31:41Z</time>
      </trkpt>
      <trkpt lat="46.4103" lon="12.29894">
        <ele>892.72</ele>
        <time>2012-08-01T08:31:47Z</time>
      </trkpt>
      <trkpt lat="46.41018" lon="12.29869">
        <ele>889.36</ele>
        <time>2012-08-01T08:31:51Z</time>
      </trkpt>
      <trkpt lat="46.40999" lon="12.29824">
        <ele>886.47</ele>
        <time>2012-08-01T08:31:56Z</time>
      </trkpt>
      <trkpt lat="46.40976" lon="12.29765">
        <ele>882.63</ele>
        <time>2012-08-01T08:32:01Z</time>
      </trkpt>
      <trkpt lat="46.4096" lon="12.2973">
        <ele>879.74</ele>
        <time>2012-08-01T08:32:05Z</time>
      </trkpt>
      <trkpt lat="46.40957" lon="12.29723">
        <ele>879.74</ele>
        <time>2012-08-01T08:32:06Z</time>
      </trkpt>
      <trkpt lat="46.40952" lon="12.29711">
        <ele>878.3</ele>
        <time>2012-08-01T08:32:08Z</time>
      </trkpt>
      <trkpt lat="46.4095" lon="12.29706">
        <ele>878.3</ele>
        <time>2012-08-01T08:32:09Z</time>
      </trkpt>
      <trkpt lat="46.40949" lon="12.29702">
        <ele>877.82</ele>
        <time>2012-08-01T08:32:10Z</time>
      </trkpt>
      <trkpt lat="46.40946" lon="12.2969">
        <ele>877.82</ele>
        <time>2012-08-01T08:32:12Z</time>
      </trkpt>
      <trkpt lat="46.40947" lon="12.29681">
        <ele>878.78</ele>
        <time>2012-08-01T08:32:13Z</time>
      </trkpt>
      <trkpt lat="46.40948" lon="12.29661">
        <ele>880.22</ele>
        <time>2012-08-01T08:32:15Z</time>
      </trkpt>
      <trkpt lat="46.4095" lon="12.29652">
        <ele>881.19</ele>
        <time>2012-08-01T08:32:16Z</time>
      </trkpt>
      <trkpt lat="46.40951" lon="12.29631">
        <ele>881.67</ele>
        <time>2012-08-01T08:32:18Z</time>
      </trkpt>
      <trkpt lat="46.40954" lon="12.2961">
        <ele>882.15</ele>
        <time>2012-08-01T08:32:20Z</time>
      </trkpt>
      <trkpt lat="46.40954" lon="12.296">
        <ele>882.63</ele>
        <time>2012-08-01T08:32:21Z</time>
      </trkpt>
      <trkpt lat="46.40953" lon="12.29591">
        <ele>882.63</ele>
        <time>2012-08-01T08:32:22Z</time>
      </trkpt>
      <trkpt lat="46.40952" lon="12.29583">
        <ele>882.63</ele>
        <time>2012-08-01T08:32:23Z</time>
      </trkpt>
      <trkpt lat="46.4095" lon="12.29575">
        <ele>882.63</ele>
        <time>2012-08-01T08:32:24Z</time>
      </trkpt>
      <trkpt lat="46.40941" lon="12.29544">
        <ele>882.15</ele>
        <time>2012-08-01T08:32:28Z</time>
      </trkpt>
      <trkpt lat="46.40937" lon="12.29539">
        <ele>881.67</ele>
        <time>2012-08-01T08:32:29Z</time>
      </trkpt>
      <trkpt lat="46.40933" lon="12.29537">
        <ele>881.19</ele>
        <time>2012-08-01T08:32:30Z</time>
      </trkpt>
      <trkpt lat="46.40928" lon="12.29537">
        <ele>881.19</ele>
        <time>2012-08-01T08:32:31Z</time>
      </trkpt>
      <trkpt lat="46.40923" lon="12.2954">
        <ele>880.22</ele>
        <time>2012-08-01T08:32:32Z</time>
      </trkpt>
      <trkpt lat="46.40918" lon="12.29545">
        <ele>879.74</ele>
        <time>2012-08-01T08:32:33Z</time>
      </trkpt>
      <trkpt lat="46.40915" lon="12.29552">
        <ele>878.78</ele>
        <time>2012-08-01T08:32:34Z</time>
      </trkpt>
      <trkpt lat="46.40902" lon="12.29563">
        <ele>875.9</ele>
        <time>2012-08-01T08:32:41Z</time>
      </trkpt>
      <trkpt lat="46.40899" lon="12.29562">
        <ele>875.9</ele>
        <time>2012-08-01T08:32:42Z</time>
      </trkpt>
      <trkpt lat="46.40896" lon="12.29559">
        <ele>875.9</ele>
        <time>2012-08-01T08:32:43Z</time>
      </trkpt>
      <trkpt lat="46.40891" lon="12.29554">
        <ele>876.86</ele>
        <time>2012-08-01T08:32:44Z</time>
      </trkpt>
      <trkpt lat="46.40844" lon="12.29472">
        <ele>878.78</ele>
        <time>2012-08-01T08:32:52Z</time>
      </trkpt>
      <trkpt lat="46.40814" lon="12.29327">
        <ele>881.19</ele>
        <time>2012-08-01T08:33:01Z</time>
      </trkpt>
      <trkpt lat="46.40793" lon="12.29178">
        <ele>882.15</ele>
        <time>2012-08-01T08:33:09Z</time>
      </trkpt>
      <trkpt lat="46.40788" lon="12.29159">
        <ele>882.15</ele>
        <time>2012-08-01T08:33:10Z</time>
      </trkpt>
      <trkpt lat="46.40724" lon="12.28963">
        <ele>881.67</ele>
        <time>2012-08-01T08:33:21Z</time>
      </trkpt>
      <trkpt lat="46.40682" lon="12.28743">
        <ele>882.63</ele>
        <time>2012-08-01T08:33:32Z</time>
      </trkpt>
      <trkpt lat="46.40669" lon="12.28473">
        <ele>884.55</ele>
        <time>2012-08-01T08:33:44Z</time>
      </trkpt>
      <trkpt lat="46.4067" lon="12.28452">
        <ele>885.03</ele>
        <time>2012-08-01T08:33:45Z</time>
      </trkpt>
      <trkpt lat="46.40673" lon="12.28431">
        <ele>884.55</ele>
        <time>2012-08-01T08:33:46Z</time>
      </trkpt>
      <trkpt lat="46.40678" lon="12.28412">
        <ele>884.55</ele>
        <time>2012-08-01T08:33:47Z</time>
      </trkpt>
      <trkpt lat="46.40685" lon="12.28394">
        <ele>885.51</ele>
        <time>2012-08-01T08:33:48Z</time>
      </trkpt>
      <trkpt lat="46.40693" lon="12.28376">
        <ele>887.43</ele>
        <time>2012-08-01T08:33:49Z</time>
      </trkpt>
      <trkpt lat="46.40699" lon="12.28358">
        <ele>888.4</ele>
        <time>2012-08-01T08:33:50Z</time>
      </trkpt>
      <trkpt lat="46.40704" lon="12.28338">
        <ele>889.36</ele>
        <time>2012-08-01T08:33:51Z</time>
      </trkpt>
      <trkpt lat="46.40707" lon="12.28319">
        <ele>889.84</ele>
        <time>2012-08-01T08:33:52Z</time>
      </trkpt>
      <trkpt lat="46.40709" lon="12.283">
        <ele>888.88</ele>
        <time>2012-08-01T08:33:53Z</time>
      </trkpt>
      <trkpt lat="46.40713" lon="12.28282">
        <ele>888.88</ele>
        <time>2012-08-01T08:33:54Z</time>
      </trkpt>
      <trkpt lat="46.40719" lon="12.28265">
        <ele>890.32</ele>
        <time>2012-08-01T08:33:55Z</time>
      </trkpt>
      <trkpt lat="46.40728" lon="12.2825">
        <ele>890.8</ele>
        <time>2012-08-01T08:33:56Z</time>
      </trkpt>
      <trkpt lat="46.40738" lon="12.28237">
        <ele>891.28</ele>
        <time>2012-08-01T08:33:57Z</time>
      </trkpt>
      <trkpt lat="46.40749" lon="12.28226">
        <ele>892.24</ele>
        <time>2012-08-01T08:33:58Z</time>
      </trkpt>
      <trkpt lat="46.40762" lon="12.28218">
        <ele>892.24</ele>
        <time>2012-08-01T08:33:59Z</time>
      </trkpt>
      <trkpt lat="46.40774" lon="12.28209">
        <ele>892.72</ele>
        <time>2012-08-01T08:34:00Z</time>
      </trkpt>
      <trkpt lat="46.40785" lon="12.28199">
        <ele>893.2</ele>
        <time>2012-08-01T08:34:01Z</time>
      </trkpt>
      <trkpt lat="46.40795" lon="12.28187">
        <ele>894.64</ele>
        <time>2012-08-01T08:34:02Z</time>
      </trkpt>
      <trkpt lat="46.40806" lon="12.28174">
        <ele>894.64</ele>
        <time>2012-08-01T08:34:03Z</time>
      </trkpt>
      <trkpt lat="46.40833" lon="12.2813">
        <ele>895.61</ele>
        <time>2012-08-01T08:34:06Z</time>
      </trkpt>
      <trkpt lat="46.40839" lon="12.28112">
        <ele>895.61</ele>
        <time>2012-08-01T08:34:07Z</time>
      </trkpt>
      <trkpt lat="46.40845" lon="12.28095">
        <ele>895.61</ele>
        <time>2012-08-01T08:34:08Z</time>
      </trkpt>
      <trkpt lat="46.40854" lon="12.28079">
        <ele>896.09</ele>
        <time>2012-08-01T08:34:09Z</time>
      </trkpt>
      <trkpt lat="46.40863" lon="12.28063">
        <ele>896.57</ele>
        <time>2012-08-01T08:34:10Z</time>
      </trkpt>
      <trkpt lat="46.40874" lon="12.28048">
        <ele>896.57</ele>
        <time>2012-08-01T08:34:11Z</time>
      </trkpt>
      <trkpt lat="46.40884" lon="12.28035">
        <ele>895.61</ele>
        <time>2012-08-01T08:34:12Z</time>
      </trkpt>
      <trkpt lat="46.40913" lon="12.27998">
        <ele>893.2</ele>
        <time>2012-08-01T08:34:15Z</time>
      </trkpt>
      <trkpt lat="46.40922" lon="12.2799">
        <ele>893.2</ele>
        <time>2012-08-01T08:34:16Z</time>
      </trkpt>
      <trkpt lat="46.40933" lon="12.27985">
        <ele>893.2</ele>
        <time>2012-08-01T08:34:17Z</time>
      </trkpt>
      <trkpt lat="46.40944" lon="12.27986">
        <ele>892.72</ele>
        <time>2012-08-01T08:34:18Z</time>
      </trkpt>
      <trkpt lat="46.40955" lon="12.27988">
        <ele>891.76</ele>
        <time>2012-08-01T08:34:19Z</time>
      </trkpt>
      <trkpt lat="46.40965" lon="12.27989">
        <ele>891.28</ele>
        <time>2012-08-01T08:34:20Z</time>
      </trkpt>
      <trkpt lat="46.40973" lon="12.27986">
        <ele>891.28</ele>
        <time>2012-08-01T08:34:21Z</time>
      </trkpt>
      <trkpt lat="46.40981" lon="12.2798">
        <ele>891.28</ele>
        <time>2012-08-01T08:34:22Z</time>
      </trkpt>
      <trkpt lat="46.40987" lon="12.27972">
        <ele>891.28</ele>
        <time>2012-08-01T08:34:23Z</time>
      </trkpt>
      <trkpt lat="46.40991" lon="12.27961">
        <ele>891.28</ele>
        <time>2012-08-01T08:34:24Z</time>
      </trkpt>
      <trkpt lat="46.40994" lon="12.27949">
        <ele>891.28</ele>
        <time>2012-08-01T08:34:25Z</time>
      </trkpt>
      <trkpt lat="46.40997" lon="12.27845">
        <ele>888.88</ele>
        <time>2012-08-01T08:34:31Z</time>
      </trkpt>
      <trkpt lat="46.40997" lon="12.27825">
        <ele>888.4</ele>
        <time>2012-08-01T08:34:32Z</time>
      </trkpt>
      <trkpt lat="46.41002" lon="12.27807">
        <ele>888.4</ele>
        <time>2012-08-01T08:34:33Z</time>
      </trkpt>
      <trkpt lat="46.41008" lon="12.2779">
        <ele>887.91</ele>
        <time>2012-08-01T08:34:34Z</time>
      </trkpt>
      <trkpt lat="46.41015" lon="12.27775">
        <ele>886.95</ele>
        <time>2012-08-01T08:34:35Z</time>
      </trkpt>
      <trkpt lat="46.41022" lon="12.27762">
        <ele>886.95</ele>
        <time>2012-08-01T08:34:36Z</time>
      </trkpt>
      <trkpt lat="46.41029" lon="12.27749">
        <ele>886.47</ele>
        <time>2012-08-01T08:34:37Z</time>
      </trkpt>
      <trkpt lat="46.41037" lon="12.27739">
        <ele>886.47</ele>
        <time>2012-08-01T08:34:38Z</time>
      </trkpt>
      <trkpt lat="46.41047" lon="12.27734">
        <ele>886.47</ele>
        <time>2012-08-01T08:34:39Z</time>
      </trkpt>
      <trkpt lat="46.41057" lon="12.27733">
        <ele>885.99</ele>
        <time>2012-08-01T08:34:40Z</time>
      </trkpt>
      <trkpt lat="46.41069" lon="12.27735">
        <ele>886.47</ele>
        <time>2012-08-01T08:34:41Z</time>
      </trkpt>
      <trkpt lat="46.41079" lon="12.27737">
        <ele>886.47</ele>
        <time>2012-08-01T08:34:42Z</time>
      </trkpt>
      <trkpt lat="46.41123" lon="12.27752">
        <ele>886.47</ele>
        <time>2012-08-01T08:34:46Z</time>
      </trkpt>
      <trkpt lat="46.41133" lon="12.2776">
        <ele>886.95</ele>
        <time>2012-08-01T08:34:47Z</time>
      </trkpt>
      <trkpt lat="46.41164" lon="12.27786">
        <ele>887.43</ele>
        <time>2012-08-01T08:34:50Z</time>
      </trkpt>
      <trkpt lat="46.41176" lon="12.27791">
        <ele>887.43</ele>
        <time>2012-08-01T08:34:51Z</time>
      </trkpt>
      <trkpt lat="46.41189" lon="12.27794">
        <ele>888.4</ele>
        <time>2012-08-01T08:34:52Z</time>
      </trkpt>
      <trkpt lat="46.41202" lon="12.27795">
        <ele>888.4</ele>
        <time>2012-08-01T08:34:53Z</time>
      </trkpt>
      <trkpt lat="46.41215" lon="12.27795">
        <ele>888.4</ele>
        <time>2012-08-01T08:34:54Z</time>
      </trkpt>
      <trkpt lat="46.41303" lon="12.27793">
        <ele>888.4</ele>
        <time>2012-08-01T08:35:01Z</time>
      </trkpt>
      <trkpt lat="46.41313" lon="12.27789">
        <ele>887.43</ele>
        <time>2012-08-01T08:35:02Z</time>
      </trkpt>
      <trkpt lat="46.41322" lon="12.27782">
        <ele>887.91</ele>
        <time>2012-08-01T08:35:03Z</time>
      </trkpt>
      <trkpt lat="46.4133" lon="12.27773">
        <ele>888.4</ele>
        <time>2012-08-01T08:35:04Z</time>
      </trkpt>
      <trkpt lat="46.41336" lon="12.2776">
        <ele>888.4</ele>
        <time>2012-08-01T08:35:05Z</time>
      </trkpt>
      <trkpt lat="46.41341" lon="12.27745">
        <ele>888.4</ele>
        <time>2012-08-01T08:35:06Z</time>
      </trkpt>
      <trkpt lat="46.41342" lon="12.27729">
        <ele>888.4</ele>
        <time>2012-08-01T08:35:07Z</time>
      </trkpt>
      <trkpt lat="46.41342" lon="12.27712">
        <ele>888.88</ele>
        <time>2012-08-01T08:35:08Z</time>
      </trkpt>
      <trkpt lat="46.41338" lon="12.27694">
        <ele>888.88</ele>
        <time>2012-08-01T08:35:09Z</time>
      </trkpt>
      <trkpt lat="46.41333" lon="12.27678">
        <ele>889.84</ele>
        <time>2012-08-01T08:35:10Z</time>
      </trkpt>
      <trkpt lat="46.41325" lon="12.27663">
        <ele>889.84</ele>
        <time>2012-08-01T08:35:11Z</time>
      </trkpt>
      <trkpt lat="46.41315" lon="12.27651">
        <ele>889.84</ele>
        <time>2012-08-01T08:35:12Z</time>
      </trkpt>
      <trkpt lat="46.41269" lon="12.27588">
        <ele>891.76</ele>
        <time>2012-08-01T08:35:17Z</time>
      </trkpt>
      <trkpt lat="46.41259" lon="12.27576">
        <ele>891.76</ele>
        <time>2012-08-01T08:35:18Z</time>
      </trkpt>
      <trkpt lat="46.41248" lon="12.27567">
        <ele>891.76</ele>
        <time>2012-08-01T08:35:19Z</time>
      </trkpt>
      <trkpt lat="46.41236" lon="12.27558">
        <ele>891.76</ele>
        <time>2012-08-01T08:35:20Z</time>
      </trkpt>
      <trkpt lat="46.41143" lon="12.27504">
        <ele>891.76</ele>
        <time>2012-08-01T08:35:28Z</time>
      </trkpt>
      <trkpt lat="46.41134" lon="12.27492">
        <ele>892.24</ele>
        <time>2012-08-01T08:35:29Z</time>
      </trkpt>
      <trkpt lat="46.41127" lon="12.27478">
        <ele>892.72</ele>
        <time>2012-08-01T08:35:30Z</time>
      </trkpt>
      <trkpt lat="46.41122" lon="12.27462">
        <ele>893.2</ele>
        <time>2012-08-01T08:35:31Z</time>
      </trkpt>
      <trkpt lat="46.41119" lon="12.27444">
        <ele>893.2</ele>
        <time>2012-08-01T08:35:32Z</time>
      </trkpt>
      <trkpt lat="46.41118" lon="12.27426">
        <ele>892.72</ele>
        <time>2012-08-01T08:35:33Z</time>
      </trkpt>
      <trkpt lat="46.4112" lon="12.27406">
        <ele>893.2</ele>
        <time>2012-08-01T08:35:34Z</time>
      </trkpt>
      <trkpt lat="46.41124" lon="12.27388">
        <ele>893.68</ele>
        <time>2012-08-01T08:35:35Z</time>
      </trkpt>
      <trkpt lat="46.4113" lon="12.2737">
        <ele>894.16</ele>
        <time>2012-08-01T08:35:36Z</time>
      </trkpt>
      <trkpt lat="46.41139" lon="12.27353">
        <ele>894.64</ele>
        <time>2012-08-01T08:35:37Z</time>
      </trkpt>
      <trkpt lat="46.41192" lon="12.27225">
        <ele>896.57</ele>
        <time>2012-08-01T08:35:44Z</time>
      </trkpt>
      <trkpt lat="46.41198" lon="12.27205">
        <ele>896.57</ele>
        <time>2012-08-01T08:35:45Z</time>
      </trkpt>
      <trkpt lat="46.41242" lon="12.26993">
        <ele>899.45</ele>
        <time>2012-08-01T08:35:55Z</time>
      </trkpt>
      <trkpt lat="46.41293" lon="12.26729">
        <ele>901.37</ele>
        <time>2012-08-01T08:36:07Z</time>
      </trkpt>
      <trkpt lat="46.41294" lon="12.26708">
        <ele>900.89</ele>
        <time>2012-08-01T08:36:08Z</time>
      </trkpt>
      <trkpt lat="46.41295" lon="12.2663">
        <ele>900.89</ele>
        <time>2012-08-01T08:36:12Z</time>
      </trkpt>
      <trkpt lat="46.41298" lon="12.26611">
        <ele>901.37</ele>
        <time>2012-08-01T08:36:13Z</time>
      </trkpt>
      <trkpt lat="46.41303" lon="12.26593">
        <ele>901.37</ele>
        <time>2012-08-01T08:36:14Z</time>
      </trkpt>
      <trkpt lat="46.41309" lon="12.26575">
        <ele>900.41</ele>
        <time>2012-08-01T08:36:15Z</time>
      </trkpt>
      <trkpt lat="46.41317" lon="12.26557">
        <ele>900.89</ele>
        <time>2012-08-01T08:36:16Z</time>
      </trkpt>
      <trkpt lat="46.41326" lon="12.26541">
        <ele>900.89</ele>
        <time>2012-08-01T08:36:17Z</time>
      </trkpt>
      <trkpt lat="46.41336" lon="12.26525">
        <ele>901.85</ele>
        <time>2012-08-01T08:36:18Z</time>
      </trkpt>
      <trkpt lat="46.41407" lon="12.26421">
        <ele>901.85</ele>
        <time>2012-08-01T08:36:26Z</time>
      </trkpt>
      <trkpt lat="46.41413" lon="12.26408">
        <ele>902.33</ele>
        <time>2012-08-01T08:36:27Z</time>
      </trkpt>
      <trkpt lat="46.41417" lon="12.26395">
        <ele>902.82</ele>
        <time>2012-08-01T08:36:28Z</time>
      </trkpt>
      <trkpt lat="46.4142" lon="12.2638">
        <ele>902.82</ele>
        <time>2012-08-01T08:36:29Z</time>
      </trkpt>
      <trkpt lat="46.41422" lon="12.26363">
        <ele>903.3</ele>
        <time>2012-08-01T08:36:30Z</time>
      </trkpt>
      <trkpt lat="46.41422" lon="12.26346">
        <ele>903.3</ele>
        <time>2012-08-01T08:36:31Z</time>
      </trkpt>
      <trkpt lat="46.41422" lon="12.26328">
        <ele>903.3</ele>
        <time>2012-08-01T08:36:32Z</time>
      </trkpt>
      <trkpt lat="46.41444" lon="12.26177">
        <ele>903.78</ele>
        <time>2012-08-01T08:36:41Z</time>
      </trkpt>
      <trkpt lat="46.41492" lon="12.2598">
        <ele>901.85</ele>
        <time>2012-08-01T08:36:53Z</time>
      </trkpt>
      <trkpt lat="46.41498" lon="12.25969">
        <ele>901.85</ele>
        <time>2012-08-01T08:36:54Z</time>
      </trkpt>
      <trkpt lat="46.41505" lon="12.25961">
        <ele>901.85</ele>
        <time>2012-08-01T08:36:55Z</time>
      </trkpt>
      <trkpt lat="46.41514" lon="12.25954">
        <ele>901.85</ele>
        <time>2012-08-01T08:36:56Z</time>
      </trkpt>
      <trkpt lat="46.41523" lon="12.25947">
        <ele>902.33</ele>
        <time>2012-08-01T08:36:57Z</time>
      </trkpt>
      <trkpt lat="46.41581" lon="12.25901">
        <ele>903.3</ele>
        <time>2012-08-01T08:37:03Z</time>
      </trkpt>
      <trkpt lat="46.41588" lon="12.2589">
        <ele>902.82</ele>
        <time>2012-08-01T08:37:04Z</time>
      </trkpt>
      <trkpt lat="46.41593" lon="12.25877">
        <ele>903.3</ele>
        <time>2012-08-01T08:37:05Z</time>
      </trkpt>
      <trkpt lat="46.41597" lon="12.25863">
        <ele>903.3</ele>
        <time>2012-08-01T08:37:06Z</time>
      </trkpt>
      <trkpt lat="46.41598" lon="12.25849">
        <ele>903.78</ele>
        <time>2012-08-01T08:37:07Z</time>
      </trkpt>
      <trkpt lat="46.41599" lon="12.25834">
        <ele>903.3</ele>
        <time>2012-08-01T08:37:08Z</time>
      </trkpt>
      <trkpt lat="46.41598" lon="12.25818">
        <ele>903.3</ele>
        <time>2012-08-01T08:37:09Z</time>
      </trkpt>
      <trkpt lat="46.41595" lon="12.25803">
        <ele>903.78</ele>
        <time>2012-08-01T08:37:10Z</time>
      </trkpt>
      <trkpt lat="46.41591" lon="12.25788">
        <ele>903.3</ele>
        <time>2012-08-01T08:37:11Z</time>
      </trkpt>
      <trkpt lat="46.41586" lon="12.25772">
        <ele>903.3</ele>
        <time>2012-08-01T08:37:12Z</time>
      </trkpt>
      <trkpt lat="46.41564" lon="12.25707">
        <ele>903.78</ele>
        <time>2012-08-01T08:37:16Z</time>
      </trkpt>
      <trkpt lat="46.41556" lon="12.25692">
        <ele>903.3</ele>
        <time>2012-08-01T08:37:17Z</time>
      </trkpt>
      <trkpt lat="46.41531" lon="12.25649">
        <ele>903.3</ele>
        <time>2012-08-01T08:37:20Z</time>
      </trkpt>
      <trkpt lat="46.41524" lon="12.25632">
        <ele>903.78</ele>
        <time>2012-08-01T08:37:21Z</time>
      </trkpt>
      <trkpt lat="46.41519" lon="12.25615">
        <ele>903.78</ele>
        <time>2012-08-01T08:37:22Z</time>
      </trkpt>
      <trkpt lat="46.41514" lon="12.25595">
        <ele>903.78</ele>
        <time>2012-08-01T08:37:23Z</time>
      </trkpt>
      <trkpt lat="46.41511" lon="12.25576">
        <ele>903.78</ele>
        <time>2012-08-01T08:37:24Z</time>
      </trkpt>
      <trkpt lat="46.41491" lon="12.25424">
        <ele>904.26</ele>
        <time>2012-08-01T08:37:32Z</time>
      </trkpt>
      <trkpt lat="46.41491" lon="12.25405">
        <ele>904.74</ele>
        <time>2012-08-01T08:37:33Z</time>
      </trkpt>
      <trkpt lat="46.41493" lon="12.25385">
        <ele>905.22</ele>
        <time>2012-08-01T08:37:34Z</time>
      </trkpt>
      <trkpt lat="46.41498" lon="12.25366">
        <ele>905.22</ele>
        <time>2012-08-01T08:37:35Z</time>
      </trkpt>
      <trkpt lat="46.41502" lon="12.25347">
        <ele>905.22</ele>
        <time>2012-08-01T08:37:36Z</time>
      </trkpt>
      <trkpt lat="46.41524" lon="12.25275">
        <ele>906.18</ele>
        <time>2012-08-01T08:37:40Z</time>
      </trkpt>
      <trkpt lat="46.41531" lon="12.25261">
        <ele>905.22</ele>
        <time>2012-08-01T08:37:41Z</time>
      </trkpt>
      <trkpt lat="46.4154" lon="12.25249">
        <ele>905.22</ele>
        <time>2012-08-01T08:37:42Z</time>
      </trkpt>
      <trkpt lat="46.4155" lon="12.2524">
        <ele>905.22</ele>
        <time>2012-08-01T08:37:43Z</time>
      </trkpt>
      <trkpt lat="46.41562" lon="12.25233">
        <ele>906.18</ele>
        <time>2012-08-01T08:37:44Z</time>
      </trkpt>
      <trkpt lat="46.41574" lon="12.2523">
        <ele>905.7</ele>
        <time>2012-08-01T08:37:45Z</time>
      </trkpt>
      <trkpt lat="46.41587" lon="12.25228">
        <ele>906.18</ele>
        <time>2012-08-01T08:37:46Z</time>
      </trkpt>
      <trkpt lat="46.41632" lon="12.25212">
        <ele>905.22</ele>
        <time>2012-08-01T08:37:50Z</time>
      </trkpt>
      <trkpt lat="46.41641" lon="12.25203">
        <ele>905.7</ele>
        <time>2012-08-01T08:37:51Z</time>
      </trkpt>
      <trkpt lat="46.41649" lon="12.25191">
        <ele>905.22</ele>
        <time>2012-08-01T08:37:52Z</time>
      </trkpt>
      <trkpt lat="46.41656" lon="12.25178">
        <ele>905.7</ele>
        <time>2012-08-01T08:37:53Z</time>
      </trkpt>
      <trkpt lat="46.41663" lon="12.25165">
        <ele>905.7</ele>
        <time>2012-08-01T08:37:54Z</time>
      </trkpt>
      <trkpt lat="46.41683" lon="12.25126">
        <ele>905.7</ele>
        <time>2012-08-01T08:37:57Z</time>
      </trkpt>
      <trkpt lat="46.41692" lon="12.25117">
        <ele>906.18</ele>
        <time>2012-08-01T08:37:58Z</time>
      </trkpt>
      <trkpt lat="46.41702" lon="12.25111">
        <ele>906.18</ele>
        <time>2012-08-01T08:37:59Z</time>
      </trkpt>
      <trkpt lat="46.41798" lon="12.25052">
        <ele>903.78</ele>
        <time>2012-08-01T08:38:09Z</time>
      </trkpt>
      <trkpt lat="46.41805" lon="12.25045">
        <ele>904.26</ele>
        <time>2012-08-01T08:38:10Z</time>
      </trkpt>
      <trkpt lat="46.41812" lon="12.25038">
        <ele>904.74</ele>
        <time>2012-08-01T08:38:11Z</time>
      </trkpt>
      <trkpt lat="46.41818" lon="12.25029">
        <ele>904.74</ele>
        <time>2012-08-01T08:38:12Z</time>
      </trkpt>
      <trkpt lat="46.41823" lon="12.25018">
        <ele>905.22</ele>
        <time>2012-08-01T08:38:13Z</time>
      </trkpt>
      <trkpt lat="46.41827" lon="12.25006">
        <ele>905.22</ele>
        <time>2012-08-01T08:38:14Z</time>
      </trkpt>
      <trkpt lat="46.41829" lon="12.24993">
        <ele>905.22</ele>
        <time>2012-08-01T08:38:15Z</time>
      </trkpt>
      <trkpt lat="46.41832" lon="12.2498">
        <ele>905.7</ele>
        <time>2012-08-01T08:38:16Z</time>
      </trkpt>
      <trkpt lat="46.41848" lon="12.24906">
        <ele>906.66</ele>
        <time>2012-08-01T08:38:22Z</time>
      </trkpt>
      <trkpt lat="46.41853" lon="12.24895">
        <ele>907.14</ele>
        <time>2012-08-01T08:38:23Z</time>
      </trkpt>
      <trkpt lat="46.41859" lon="12.24885">
        <ele>907.62</ele>
        <time>2012-08-01T08:38:24Z</time>
      </trkpt>
      <trkpt lat="46.41866" lon="12.24877">
        <ele>907.62</ele>
        <time>2012-08-01T08:38:25Z</time>
      </trkpt>
      <trkpt lat="46.41874" lon="12.24871">
        <ele>908.1</ele>
        <time>2012-08-01T08:38:26Z</time>
      </trkpt>
      <trkpt lat="46.41882" lon="12.24866">
        <ele>908.1</ele>
        <time>2012-08-01T08:38:27Z</time>
      </trkpt>
      <trkpt lat="46.41912" lon="12.24841">
        <ele>909.54</ele>
        <time>2012-08-01T08:38:31Z</time>
      </trkpt>
      <trkpt lat="46.41919" lon="12.24832">
        <ele>910.03</ele>
        <time>2012-08-01T08:38:32Z</time>
      </trkpt>
      <trkpt lat="46.41925" lon="12.24822">
        <ele>910.51</ele>
        <time>2012-08-01T08:38:33Z</time>
      </trkpt>
      <trkpt lat="46.41929" lon="12.24811">
        <ele>910.51</ele>
        <time>2012-08-01T08:38:34Z</time>
      </trkpt>
      <trkpt lat="46.41931" lon="12.248">
        <ele>910.03</ele>
        <time>2012-08-01T08:38:35Z</time>
      </trkpt>
      <trkpt lat="46.41934" lon="12.2479">
        <ele>910.51</ele>
        <time>2012-08-01T08:38:36Z</time>
      </trkpt>
      <trkpt lat="46.41955" lon="12.24704">
        <ele>912.91</ele>
        <time>2012-08-01T08:38:44Z</time>
      </trkpt>
      <trkpt lat="46.42013" lon="12.24584">
        <ele>915.79</ele>
        <time>2012-08-01T08:38:55Z</time>
      </trkpt>
      <trkpt lat="46.42019" lon="12.24574">
        <ele>915.79</ele>
        <time>2012-08-01T08:38:56Z</time>
      </trkpt>
      <trkpt lat="46.42026" lon="12.24564">
        <ele>916.27</ele>
        <time>2012-08-01T08:38:57Z</time>
      </trkpt>
      <trkpt lat="46.42109" lon="12.24457">
        <ele>919.64</ele>
        <time>2012-08-01T08:39:08Z</time>
      </trkpt>
      <trkpt lat="46.42165" lon="12.24387">
        <ele>922.04</ele>
        <time>2012-08-01T08:39:15Z</time>
      </trkpt>
      <trkpt lat="46.42171" lon="12.24376">
        <ele>922.04</ele>
        <time>2012-08-01T08:39:16Z</time>
      </trkpt>
      <trkpt lat="46.42176" lon="12.24364">
        <ele>923</ele>
        <time>2012-08-01T08:39:17Z</time>
      </trkpt>
      <trkpt lat="46.4218" lon="12.2435">
        <ele>923.48</ele>
        <time>2012-08-01T08:39:18Z</time>
      </trkpt>
      <trkpt lat="46.42181" lon="12.24337">
        <ele>923.48</ele>
        <time>2012-08-01T08:39:19Z</time>
      </trkpt>
      <trkpt lat="46.4218" lon="12.24323">
        <ele>923.48</ele>
        <time>2012-08-01T08:39:20Z</time>
      </trkpt>
      <trkpt lat="46.4218" lon="12.2431">
        <ele>924.45</ele>
        <time>2012-08-01T08:39:21Z</time>
      </trkpt>
      <trkpt lat="46.42176" lon="12.2427">
        <ele>925.41</ele>
        <time>2012-08-01T08:39:24Z</time>
      </trkpt>
      <trkpt lat="46.42174" lon="12.24257">
        <ele>926.37</ele>
        <time>2012-08-01T08:39:25Z</time>
      </trkpt>
      <trkpt lat="46.4217" lon="12.24245">
        <ele>926.37</ele>
        <time>2012-08-01T08:39:26Z</time>
      </trkpt>
      <trkpt lat="46.42161" lon="12.24209">
        <ele>927.81</ele>
        <time>2012-08-01T08:39:29Z</time>
      </trkpt>
      <trkpt lat="46.42152" lon="12.24083">
        <ele>930.21</ele>
        <time>2012-08-01T08:39:38Z</time>
      </trkpt>
      <trkpt lat="46.42153" lon="12.24012">
        <ele>932.14</ele>
        <time>2012-08-01T08:39:42Z</time>
      </trkpt>
      <trkpt lat="46.42156" lon="12.23994">
        <ele>932.14</ele>
        <time>2012-08-01T08:39:43Z</time>
      </trkpt>
      <trkpt lat="46.42161" lon="12.23977">
        <ele>932.62</ele>
        <time>2012-08-01T08:39:44Z</time>
      </trkpt>
      <trkpt lat="46.42168" lon="12.23961">
        <ele>933.58</ele>
        <time>2012-08-01T08:39:45Z</time>
      </trkpt>
      <trkpt lat="46.42176" lon="12.23947">
        <ele>934.06</ele>
        <time>2012-08-01T08:39:46Z</time>
      </trkpt>
      <trkpt lat="46.42185" lon="12.23934">
        <ele>934.54</ele>
        <time>2012-08-01T08:39:47Z</time>
      </trkpt>
      <trkpt lat="46.4222" lon="12.23874">
        <ele>937.42</ele>
        <time>2012-08-01T08:39:51Z</time>
      </trkpt>
      <trkpt lat="46.42226" lon="12.23857">
        <ele>938.38</ele>
        <time>2012-08-01T08:39:52Z</time>
      </trkpt>
      <trkpt lat="46.42249" lon="12.23764">
        <ele>939.35</ele>
        <time>2012-08-01T08:39:58Z</time>
      </trkpt>
      <trkpt lat="46.42267" lon="12.23694">
        <ele>941.75</ele>
        <time>2012-08-01T08:40:03Z</time>
      </trkpt>
      <trkpt lat="46.42274" lon="12.2368">
        <ele>942.23</ele>
        <time>2012-08-01T08:40:04Z</time>
      </trkpt>
      <trkpt lat="46.42281" lon="12.23666">
        <ele>942.71</ele>
        <time>2012-08-01T08:40:05Z</time>
      </trkpt>
      <trkpt lat="46.4229" lon="12.23654">
        <ele>943.19</ele>
        <time>2012-08-01T08:40:06Z</time>
      </trkpt>
      <trkpt lat="46.42299" lon="12.23644">
        <ele>943.67</ele>
        <time>2012-08-01T08:40:07Z</time>
      </trkpt>
      <trkpt lat="46.42309" lon="12.23636">
        <ele>943.19</ele>
        <time>2012-08-01T08:40:08Z</time>
      </trkpt>
      <trkpt lat="46.42319" lon="12.2363">
        <ele>944.15</ele>
        <time>2012-08-01T08:40:09Z</time>
      </trkpt>
      <trkpt lat="46.4233" lon="12.23625">
        <ele>944.63</ele>
        <time>2012-08-01T08:40:10Z</time>
      </trkpt>
      <trkpt lat="46.42342" lon="12.23622">
        <ele>945.11</ele>
        <time>2012-08-01T08:40:11Z</time>
      </trkpt>
      <trkpt lat="46.42411" lon="12.23598">
        <ele>946.56</ele>
        <time>2012-08-01T08:40:17Z</time>
      </trkpt>
      <trkpt lat="46.42421" lon="12.2359">
        <ele>947.52</ele>
        <time>2012-08-01T08:40:18Z</time>
      </trkpt>
      <trkpt lat="46.42431" lon="12.2358">
        <ele>947.04</ele>
        <time>2012-08-01T08:40:19Z</time>
      </trkpt>
      <trkpt lat="46.4244" lon="12.23568">
        <ele>947.52</ele>
        <time>2012-08-01T08:40:20Z</time>
      </trkpt>
      <trkpt lat="46.42448" lon="12.23555">
        <ele>947.52</ele>
        <time>2012-08-01T08:40:21Z</time>
      </trkpt>
      <trkpt lat="46.42455" lon="12.2354">
        <ele>947.52</ele>
        <time>2012-08-01T08:40:22Z</time>
      </trkpt>
      <trkpt lat="46.42462" lon="12.23524">
        <ele>947.52</ele>
        <time>2012-08-01T08:40:23Z</time>
      </trkpt>
      <trkpt lat="46.42544" lon="12.23325">
        <ele>950.88</ele>
        <time>2012-08-01T08:40:35Z</time>
      </trkpt>
      <trkpt lat="46.42561" lon="12.23289">
        <ele>952.32</ele>
        <time>2012-08-01T08:40:37Z</time>
      </trkpt>
      <trkpt lat="46.42593" lon="12.23227">
        <ele>954.73</ele>
        <time>2012-08-01T08:40:40Z</time>
      </trkpt>
      <trkpt lat="46.42673" lon="12.23085">
        <ele>954.73</ele>
        <time>2012-08-01T08:40:47Z</time>
      </trkpt>
      <trkpt lat="46.42735" lon="12.22998">
        <ele>957.13</ele>
        <time>2012-08-01T08:40:52Z</time>
      </trkpt>
      <trkpt lat="46.42875" lon="12.22814">
        <ele>957.61</ele>
        <time>2012-08-01T08:41:02Z</time>
      </trkpt>
      <trkpt lat="46.42965" lon="12.22698">
        <ele>958.57</ele>
        <time>2012-08-01T08:41:11Z</time>
      </trkpt>
      <trkpt lat="46.43015" lon="12.22636">
        <ele>958.09</ele>
        <time>2012-08-01T08:41:17Z</time>
      </trkpt>
      <trkpt lat="46.43024" lon="12.22629">
        <ele>958.57</ele>
        <time>2012-08-01T08:41:18Z</time>
      </trkpt>
      <trkpt lat="46.43034" lon="12.22624">
        <ele>959.05</ele>
        <time>2012-08-01T08:41:19Z</time>
      </trkpt>
      <trkpt lat="46.43044" lon="12.2262">
        <ele>959.05</ele>
        <time>2012-08-01T08:41:20Z</time>
      </trkpt>
      <trkpt lat="46.43054" lon="12.22617">
        <ele>959.05</ele>
        <time>2012-08-01T08:41:21Z</time>
      </trkpt>
      <trkpt lat="46.43065" lon="12.22615">
        <ele>959.53</ele>
        <time>2012-08-01T08:41:22Z</time>
      </trkpt>
      <trkpt lat="46.43128" lon="12.22594">
        <ele>960.49</ele>
        <time>2012-08-01T08:41:29Z</time>
      </trkpt>
      <trkpt lat="46.43196" lon="12.2253">
        <ele>960.49</ele>
        <time>2012-08-01T08:41:39Z</time>
      </trkpt>
      <trkpt lat="46.4331" lon="12.22457">
        <ele>959.53</ele>
        <time>2012-08-01T08:41:50Z</time>
      </trkpt>
      <trkpt lat="46.43433" lon="12.2238">
        <ele>957.61</ele>
        <time>2012-08-01T08:42:03Z</time>
      </trkpt>
      <trkpt lat="46.43489" lon="12.22349">
        <ele>956.65</ele>
        <time>2012-08-01T08:42:09Z</time>
      </trkpt>
      <trkpt lat="46.43499" lon="12.22347">
        <ele>956.65</ele>
        <time>2012-08-01T08:42:10Z</time>
      </trkpt>
      <trkpt lat="46.43509" lon="12.22347">
        <ele>956.65</ele>
        <time>2012-08-01T08:42:11Z</time>
      </trkpt>
      <trkpt lat="46.43519" lon="12.22348">
        <ele>956.65</ele>
        <time>2012-08-01T08:42:12Z</time>
      </trkpt>
      <trkpt lat="46.43529" lon="12.2235">
        <ele>955.69</ele>
        <time>2012-08-01T08:42:13Z</time>
      </trkpt>
      <trkpt lat="46.43633" lon="12.22358">
        <ele>954.73</ele>
        <time>2012-08-01T08:42:24Z</time>
      </trkpt>
      <trkpt lat="46.43671" lon="12.22339">
        <ele>954.73</ele>
        <time>2012-08-01T08:42:28Z</time>
      </trkpt>
      <trkpt lat="46.4368" lon="12.22331">
        <ele>954.73</ele>
        <time>2012-08-01T08:42:29Z</time>
      </trkpt>
      <trkpt lat="46.43689" lon="12.22321">
        <ele>955.21</ele>
        <time>2012-08-01T08:42:30Z</time>
      </trkpt>
      <trkpt lat="46.43777" lon="12.22221">
        <ele>953.28</ele>
        <time>2012-08-01T08:42:41Z</time>
      </trkpt>
      <trkpt lat="46.43787" lon="12.22206">
        <ele>953.28</ele>
        <time>2012-08-01T08:42:43Z</time>
      </trkpt>
      <trkpt lat="46.43791" lon="12.22198">
        <ele>953.77</ele>
        <time>2012-08-01T08:42:44Z</time>
      </trkpt>
      <trkpt lat="46.43793" lon="12.22188">
        <ele>953.77</ele>
        <time>2012-08-01T08:42:45Z</time>
      </trkpt>
      <trkpt lat="46.43794" lon="12.22178">
        <ele>953.28</ele>
        <time>2012-08-01T08:42:46Z</time>
      </trkpt>
      <trkpt lat="46.43795" lon="12.22167">
        <ele>953.77</ele>
        <time>2012-08-01T08:42:47Z</time>
      </trkpt>
      <trkpt lat="46.43794" lon="12.22093">
        <ele>953.77</ele>
        <time>2012-08-01T08:42:53Z</time>
      </trkpt>
      <trkpt lat="46.43799" lon="12.21938">
        <ele>954.73</ele>
        <time>2012-08-01T08:43:04Z</time>
      </trkpt>
      <trkpt lat="46.43812" lon="12.21877">
        <ele>956.17</ele>
        <time>2012-08-01T08:43:08Z</time>
      </trkpt>
      <trkpt lat="46.43854" lon="12.21781">
        <ele>958.09</ele>
        <time>2012-08-01T08:43:15Z</time>
      </trkpt>
      <trkpt lat="46.43863" lon="12.21769">
        <ele>959.05</ele>
        <time>2012-08-01T08:43:16Z</time>
      </trkpt>
      <trkpt lat="46.43872" lon="12.21757">
        <ele>959.53</ele>
        <time>2012-08-01T08:43:17Z</time>
      </trkpt>
      <trkpt lat="46.43883" lon="12.21745">
        <ele>960.49</ele>
        <time>2012-08-01T08:43:18Z</time>
      </trkpt>
      <trkpt lat="46.43894" lon="12.21734">
        <ele>960.98</ele>
        <time>2012-08-01T08:43:19Z</time>
      </trkpt>
      <trkpt lat="46.43986" lon="12.21654">
        <ele>963.38</ele>
        <time>2012-08-01T08:43:28Z</time>
      </trkpt>
      <trkpt lat="46.44086" lon="12.21582">
        <ele>966.26</ele>
        <time>2012-08-01T08:43:37Z</time>
      </trkpt>
      <trkpt lat="46.44098" lon="12.21574">
        <ele>966.26</ele>
        <time>2012-08-01T08:43:38Z</time>
      </trkpt>
      <trkpt lat="46.44179" lon="12.21515">
        <ele>969.63</ele>
        <time>2012-08-01T08:43:45Z</time>
      </trkpt>
      <trkpt lat="46.44201" lon="12.21494">
        <ele>970.59</ele>
        <time>2012-08-01T08:43:47Z</time>
      </trkpt>
      <trkpt lat="46.44286" lon="12.21386">
        <ele>973.95</ele>
        <time>2012-08-01T08:43:56Z</time>
      </trkpt>
      <trkpt lat="46.44355" lon="12.21284">
        <ele>973.95</ele>
        <time>2012-08-01T08:44:04Z</time>
      </trkpt>
      <trkpt lat="46.44366" lon="12.21274">
        <ele>973.95</ele>
        <time>2012-08-01T08:44:05Z</time>
      </trkpt>
      <trkpt lat="46.44489" lon="12.21195">
        <ele>975.88</ele>
        <time>2012-08-01T08:44:14Z</time>
      </trkpt>
      <trkpt lat="46.44504" lon="12.21188">
        <ele>976.84</ele>
        <time>2012-08-01T08:44:15Z</time>
      </trkpt>
      <trkpt lat="46.44556" lon="12.21172">
        <ele>981.16</ele>
        <time>2012-08-01T08:44:18Z</time>
      </trkpt>
      <trkpt lat="46.44574" lon="12.21168">
        <ele>980.68</ele>
        <time>2012-08-01T08:44:19Z</time>
      </trkpt>
      <trkpt lat="46.44632" lon="12.21143">
        <ele>982.12</ele>
        <time>2012-08-01T08:44:23Z</time>
      </trkpt>
      <trkpt lat="46.44677" lon="12.21109">
        <ele>984.53</ele>
        <time>2012-08-01T08:44:27Z</time>
      </trkpt>
      <trkpt lat="46.44801" lon="12.21021">
        <ele>981.64</ele>
        <time>2012-08-01T08:44:38Z</time>
      </trkpt>
      <trkpt lat="46.44814" lon="12.21018">
        <ele>982.12</ele>
        <time>2012-08-01T08:44:39Z</time>
      </trkpt>
      <trkpt lat="46.44828" lon="12.21018">
        <ele>981.64</ele>
        <time>2012-08-01T08:44:40Z</time>
      </trkpt>
      <trkpt lat="46.44842" lon="12.21021">
        <ele>981.16</ele>
        <time>2012-08-01T08:44:41Z</time>
      </trkpt>
      <trkpt lat="46.44855" lon="12.21025">
        <ele>981.64</ele>
        <time>2012-08-01T08:44:42Z</time>
      </trkpt>
      <trkpt lat="46.4499" lon="12.21089">
        <ele>979.72</ele>
        <time>2012-08-01T08:44:52Z</time>
      </trkpt>
      <trkpt lat="46.45043" lon="12.21122">
        <ele>981.64</ele>
        <time>2012-08-01T08:44:56Z</time>
      </trkpt>
      <trkpt lat="46.45057" lon="12.21126">
        <ele>983.57</ele>
        <time>2012-08-01T08:44:57Z</time>
      </trkpt>
      <trkpt lat="46.45072" lon="12.21128">
        <ele>983.57</ele>
        <time>2012-08-01T08:44:58Z</time>
      </trkpt>
      <trkpt lat="46.45087" lon="12.21129">
        <ele>984.53</ele>
        <time>2012-08-01T08:44:59Z</time>
      </trkpt>
      <trkpt lat="46.45102" lon="12.21127">
        <ele>985.01</ele>
        <time>2012-08-01T08:45:00Z</time>
      </trkpt>
      <trkpt lat="46.45117" lon="12.21125">
        <ele>985.01</ele>
        <time>2012-08-01T08:45:01Z</time>
      </trkpt>
      <trkpt lat="46.45172" lon="12.21108">
        <ele>986.45</ele>
        <time>2012-08-01T08:45:05Z</time>
      </trkpt>
      <trkpt lat="46.45185" lon="12.21101">
        <ele>986.93</ele>
        <time>2012-08-01T08:45:06Z</time>
      </trkpt>
      <trkpt lat="46.45197" lon="12.21092">
        <ele>988.37</ele>
        <time>2012-08-01T08:45:07Z</time>
      </trkpt>
      <trkpt lat="46.45209" lon="12.21081">
        <ele>988.85</ele>
        <time>2012-08-01T08:45:08Z</time>
      </trkpt>
      <trkpt lat="46.45219" lon="12.21071">
        <ele>988.85</ele>
        <time>2012-08-01T08:45:09Z</time>
      </trkpt>
      <trkpt lat="46.45258" lon="12.21027">
        <ele>991.74</ele>
        <time>2012-08-01T08:45:13Z</time>
      </trkpt>
      <trkpt lat="46.45292" lon="12.20983">
        <ele>995.1</ele>
        <time>2012-08-01T08:45:17Z</time>
      </trkpt>
      <trkpt lat="46.45392" lon="12.20856">
        <ele>995.1</ele>
        <time>2012-08-01T08:45:30Z</time>
      </trkpt>
      <trkpt lat="46.45495" lon="12.20747">
        <ele>995.58</ele>
        <time>2012-08-01T08:45:42Z</time>
      </trkpt>
      <trkpt lat="46.45611" lon="12.20657">
        <ele>997.51</ele>
        <time>2012-08-01T08:45:54Z</time>
      </trkpt>
      <trkpt lat="46.45697" lon="12.20601">
        <ele>998.47</ele>
        <time>2012-08-01T08:46:04Z</time>
      </trkpt>
      <trkpt lat="46.45744" lon="12.20576">
        <ele>999.43</ele>
        <time>2012-08-01T08:46:09Z</time>
      </trkpt>
      <trkpt lat="46.45754" lon="12.20573">
        <ele>999.43</ele>
        <time>2012-08-01T08:46:10Z</time>
      </trkpt>
      <trkpt lat="46.45764" lon="12.20572">
        <ele>999.43</ele>
        <time>2012-08-01T08:46:11Z</time>
      </trkpt>
      <trkpt lat="46.45866" lon="12.20587">
        <ele>1002.31</ele>
        <time>2012-08-01T08:46:22Z</time>
      </trkpt>
      <trkpt lat="46.45884" lon="12.20589">
        <ele>1002.79</ele>
        <time>2012-08-01T08:46:24Z</time>
      </trkpt>
      <trkpt lat="46.45893" lon="12.20586">
        <ele>1003.27</ele>
        <time>2012-08-01T08:46:25Z</time>
      </trkpt>
      <trkpt lat="46.45902" lon="12.20581">
        <ele>1003.75</ele>
        <time>2012-08-01T08:46:26Z</time>
      </trkpt>
      <trkpt lat="46.4591" lon="12.20574">
        <ele>1004.23</ele>
        <time>2012-08-01T08:46:27Z</time>
      </trkpt>
      <trkpt lat="46.45919" lon="12.20567">
        <ele>1004.23</ele>
        <time>2012-08-01T08:46:28Z</time>
      </trkpt>
      <trkpt lat="46.45926" lon="12.20559">
        <ele>1004.23</ele>
        <time>2012-08-01T08:46:29Z</time>
      </trkpt>
      <trkpt lat="46.45933" lon="12.20551">
        <ele>1004.72</ele>
        <time>2012-08-01T08:46:30Z</time>
      </trkpt>
      <trkpt lat="46.45957" lon="12.20522">
        <ele>1005.2</ele>
        <time>2012-08-01T08:46:34Z</time>
      </trkpt>
      <trkpt lat="46.45989" lon="12.20496">
        <ele>1007.12</ele>
        <time>2012-08-01T08:46:39Z</time>
      </trkpt>
      <trkpt lat="46.46012" lon="12.20488">
        <ele>1008.08</ele>
        <time>2012-08-01T08:46:42Z</time>
      </trkpt>
      <trkpt lat="46.46088" lon="12.20476">
        <ele>1010.96</ele>
        <time>2012-08-01T08:46:53Z</time>
      </trkpt>
      <trkpt lat="46.46161" lon="12.20466">
        <ele>1013.85</ele>
        <time>2012-08-01T08:47:05Z</time>
      </trkpt>
      <trkpt lat="46.46241" lon="12.20456">
        <ele>1016.73</ele>
        <time>2012-08-01T08:47:16Z</time>
      </trkpt>
      <trkpt lat="46.46266" lon="12.20458">
        <ele>1017.69</ele>
        <time>2012-08-01T08:47:19Z</time>
      </trkpt>
      <trkpt lat="46.46273" lon="12.2046">
        <ele>1018.17</ele>
        <time>2012-08-01T08:47:20Z</time>
      </trkpt>
      <trkpt lat="46.46304" lon="12.20476">
        <ele>1018.65</ele>
        <time>2012-08-01T08:47:25Z</time>
      </trkpt>
      <trkpt lat="46.4635" lon="12.205">
        <ele>1017.21</ele>
        <time>2012-08-01T08:47:32Z</time>
      </trkpt>
      <trkpt lat="46.46358" lon="12.20501">
        <ele>1016.73</ele>
        <time>2012-08-01T08:47:33Z</time>
      </trkpt>
      <trkpt lat="46.46366" lon="12.20498">
        <ele>1016.73</ele>
        <time>2012-08-01T08:47:34Z</time>
      </trkpt>
      <trkpt lat="46.46374" lon="12.20494">
        <ele>1016.73</ele>
        <time>2012-08-01T08:47:35Z</time>
      </trkpt>
      <trkpt lat="46.46382" lon="12.20487">
        <ele>1016.73</ele>
        <time>2012-08-01T08:47:36Z</time>
      </trkpt>
      <trkpt lat="46.46389" lon="12.20477">
        <ele>1016.73</ele>
        <time>2012-08-01T08:47:37Z</time>
      </trkpt>
      <trkpt lat="46.46395" lon="12.20467">
        <ele>1016.73</ele>
        <time>2012-08-01T08:47:38Z</time>
      </trkpt>
      <trkpt lat="46.464" lon="12.20455">
        <ele>1016.73</ele>
        <time>2012-08-01T08:47:39Z</time>
      </trkpt>
      <trkpt lat="46.46423" lon="12.20408">
        <ele>1017.69</ele>
        <time>2012-08-01T08:47:44Z</time>
      </trkpt>
      <trkpt lat="46.46429" lon="12.20401">
        <ele>1017.69</ele>
        <time>2012-08-01T08:47:45Z</time>
      </trkpt>
      <trkpt lat="46.46436" lon="12.20397">
        <ele>1018.17</ele>
        <time>2012-08-01T08:47:46Z</time>
      </trkpt>
      <trkpt lat="46.46445" lon="12.20393">
        <ele>1018.17</ele>
        <time>2012-08-01T08:47:47Z</time>
      </trkpt>
      <trkpt lat="46.46455" lon="12.20391">
        <ele>1018.65</ele>
        <time>2012-08-01T08:47:48Z</time>
      </trkpt>
      <trkpt lat="46.46466" lon="12.2039">
        <ele>1019.13</ele>
        <time>2012-08-01T08:47:49Z</time>
      </trkpt>
      <trkpt lat="46.46477" lon="12.2039">
        <ele>1018.65</ele>
        <time>2012-08-01T08:47:50Z</time>
      </trkpt>
      <trkpt lat="46.46611" lon="12.20407">
        <ele>1021.54</ele>
        <time>2012-08-01T08:48:03Z</time>
      </trkpt>
      <trkpt lat="46.46715" lon="12.2043">
        <ele>1022.98</ele>
        <time>2012-08-01T08:48:13Z</time>
      </trkpt>
      <trkpt lat="46.46858" lon="12.20483">
        <ele>1024.9</ele>
        <time>2012-08-01T08:48:26Z</time>
      </trkpt>
      <trkpt lat="46.46988" lon="12.20542">
        <ele>1024.9</ele>
        <time>2012-08-01T08:48:38Z</time>
      </trkpt>
      <trkpt lat="46.47026" lon="12.20574">
        <ele>1026.34</ele>
        <time>2012-08-01T08:48:43Z</time>
      </trkpt>
      <trkpt lat="46.47035" lon="12.20578">
        <ele>1026.83</ele>
        <time>2012-08-01T08:48:44Z</time>
      </trkpt>
      <trkpt lat="46.47044" lon="12.20579">
        <ele>1027.31</ele>
        <time>2012-08-01T08:48:45Z</time>
      </trkpt>
      <trkpt lat="46.47054" lon="12.20578">
        <ele>1027.79</ele>
        <time>2012-08-01T08:48:46Z</time>
      </trkpt>
      <trkpt lat="46.47065" lon="12.20575">
        <ele>1028.27</ele>
        <time>2012-08-01T08:48:47Z</time>
      </trkpt>
      <trkpt lat="46.47075" lon="12.2057">
        <ele>1028.27</ele>
        <time>2012-08-01T08:48:48Z</time>
      </trkpt>
      <trkpt lat="46.47131" lon="12.20542">
        <ele>1029.23</ele>
        <time>2012-08-01T08:48:53Z</time>
      </trkpt>
      <trkpt lat="46.47141" lon="12.20534">
        <ele>1029.71</ele>
        <time>2012-08-01T08:48:54Z</time>
      </trkpt>
      <trkpt lat="46.47211" lon="12.20467">
        <ele>1030.67</ele>
        <time>2012-08-01T08:49:02Z</time>
      </trkpt>
      <trkpt lat="46.47221" lon="12.20462">
        <ele>1031.15</ele>
        <time>2012-08-01T08:49:03Z</time>
      </trkpt>
      <trkpt lat="46.47232" lon="12.2046">
        <ele>1031.63</ele>
        <time>2012-08-01T08:49:04Z</time>
      </trkpt>
      <trkpt lat="46.47243" lon="12.20459">
        <ele>1032.11</ele>
        <time>2012-08-01T08:49:05Z</time>
      </trkpt>
      <trkpt lat="46.47254" lon="12.20459">
        <ele>1032.59</ele>
        <time>2012-08-01T08:49:06Z</time>
      </trkpt>
      <trkpt lat="46.47297" lon="12.20459">
        <ele>1033.55</ele>
        <time>2012-08-01T08:49:10Z</time>
      </trkpt>
      <trkpt lat="46.47306" lon="12.20456">
        <ele>1034.04</ele>
        <time>2012-08-01T08:49:11Z</time>
      </trkpt>
      <trkpt lat="46.47315" lon="12.20451">
        <ele>1034.52</ele>
        <time>2012-08-01T08:49:12Z</time>
      </trkpt>
      <trkpt lat="46.47324" lon="12.20444">
        <ele>1034.52</ele>
        <time>2012-08-01T08:49:13Z</time>
      </trkpt>
      <trkpt lat="46.47332" lon="12.20436">
        <ele>1035</ele>
        <time>2012-08-01T08:49:14Z</time>
      </trkpt>
      <trkpt lat="46.47357" lon="12.20416">
        <ele>1035.48</ele>
        <time>2012-08-01T08:49:17Z</time>
      </trkpt>
      <trkpt lat="46.47366" lon="12.20411">
        <ele>1035.96</ele>
        <time>2012-08-01T08:49:18Z</time>
      </trkpt>
      <trkpt lat="46.47374" lon="12.20408">
        <ele>1036.44</ele>
        <time>2012-08-01T08:49:19Z</time>
      </trkpt>
      <trkpt lat="46.47382" lon="12.20406">
        <ele>1036.92</ele>
        <time>2012-08-01T08:49:20Z</time>
      </trkpt>
      <trkpt lat="46.4739" lon="12.20403">
        <ele>1036.92</ele>
        <time>2012-08-01T08:49:21Z</time>
      </trkpt>
      <trkpt lat="46.47397" lon="12.20399">
        <ele>1037.88</ele>
        <time>2012-08-01T08:49:22Z</time>
      </trkpt>
      <trkpt lat="46.47402" lon="12.20393">
        <ele>1037.88</ele>
        <time>2012-08-01T08:49:23Z</time>
      </trkpt>
      <trkpt lat="46.47407" lon="12.20387">
        <ele>1037.88</ele>
        <time>2012-08-01T08:49:24Z</time>
      </trkpt>
      <trkpt lat="46.4741" lon="12.20381">
        <ele>1037.88</ele>
        <time>2012-08-01T08:49:25Z</time>
      </trkpt>
      <trkpt lat="46.47412" lon="12.20375">
        <ele>1037.88</ele>
        <time>2012-08-01T08:49:26Z</time>
      </trkpt>
      <trkpt lat="46.47413" lon="12.2037">
        <ele>1038.84</ele>
        <time>2012-08-01T08:49:27Z</time>
      </trkpt>
      <trkpt lat="46.47414" lon="12.20366">
        <ele>1038.36</ele>
        <time>2012-08-01T08:49:28Z</time>
      </trkpt>
      <trkpt lat="46.47414" lon="12.2036">
        <ele>1037.88</ele>
        <time>2012-08-01T08:49:38Z</time>
      </trkpt>
      <trkpt lat="46.47412" lon="12.2036">
        <ele>1038.36</ele>
        <time>2012-08-01T08:50:10Z</time>
      </trkpt>
      <trkpt lat="46.47418" lon="12.20346">
        <ele>1039.32</ele>
        <time>2012-08-01T08:50:36Z</time>
      </trkpt>
      <trkpt lat="46.47421" lon="12.20333">
        <ele>1040.28</ele>
        <time>2012-08-01T08:50:37Z</time>
      </trkpt>
      <trkpt lat="46.47426" lon="12.20319">
        <ele>1040.76</ele>
        <time>2012-08-01T08:50:38Z</time>
      </trkpt>
      <trkpt lat="46.47448" lon="12.20268">
        <ele>1044.13</ele>
        <time>2012-08-01T08:50:41Z</time>
      </trkpt>
      <trkpt lat="46.47475" lon="12.20212">
        <ele>1046.05</ele>
        <time>2012-08-01T08:50:44Z</time>
      </trkpt>
      <trkpt lat="46.47529" lon="12.20138">
        <ele>1049.42</ele>
        <time>2012-08-01T08:50:49Z</time>
      </trkpt>
      <trkpt lat="46.47541" lon="12.20122">
        <ele>1049.9</ele>
        <time>2012-08-01T08:50:50Z</time>
      </trkpt>
      <trkpt lat="46.4759" lon="12.20059">
        <ele>1053.26</ele>
        <time>2012-08-01T08:50:54Z</time>
      </trkpt>
      <trkpt lat="46.47637" lon="12.19995">
        <ele>1056.63</ele>
        <time>2012-08-01T08:50:58Z</time>
      </trkpt>
      <trkpt lat="46.4766" lon="12.19961">
        <ele>1057.11</ele>
        <time>2012-08-01T08:51:00Z</time>
      </trkpt>
      <trkpt lat="46.47715" lon="12.1988">
        <ele>1060.47</ele>
        <time>2012-08-01T08:51:05Z</time>
      </trkpt>
      <trkpt lat="46.47748" lon="12.19832">
        <ele>1063.84</ele>
        <time>2012-08-01T08:51:08Z</time>
      </trkpt>
      <trkpt lat="46.47781" lon="12.19782">
        <ele>1067.68</ele>
        <time>2012-08-01T08:51:11Z</time>
      </trkpt>
      <trkpt lat="46.47792" lon="12.19766">
        <ele>1067.68</ele>
        <time>2012-08-01T08:51:12Z</time>
      </trkpt>
      <trkpt lat="46.47814" lon="12.19735">
        <ele>1069.12</ele>
        <time>2012-08-01T08:51:14Z</time>
      </trkpt>
      <trkpt lat="46.47834" lon="12.19706">
        <ele>1075.85</ele>
        <time>2012-08-01T08:51:16Z</time>
      </trkpt>
      <trkpt lat="46.47844" lon="12.19693">
        <ele>1072.49</ele>
        <time>2012-08-01T08:51:17Z</time>
      </trkpt>
      <trkpt lat="46.47865" lon="12.1967">
        <ele>1071.05</ele>
        <time>2012-08-01T08:51:19Z</time>
      </trkpt>
      <trkpt lat="46.479" lon="12.19639">
        <ele>1071.53</ele>
        <time>2012-08-01T08:51:22Z</time>
      </trkpt>
      <trkpt lat="46.47913" lon="12.19631">
        <ele>1072.49</ele>
        <time>2012-08-01T08:51:23Z</time>
      </trkpt>
      <trkpt lat="46.47927" lon="12.19625">
        <ele>1073.93</ele>
        <time>2012-08-01T08:51:24Z</time>
      </trkpt>
      <trkpt lat="46.47942" lon="12.19622">
        <ele>1075.37</ele>
        <time>2012-08-01T08:51:25Z</time>
      </trkpt>
      <trkpt lat="46.47956" lon="12.19619">
        <ele>1075.85</ele>
        <time>2012-08-01T08:51:26Z</time>
      </trkpt>
      <trkpt lat="46.47971" lon="12.19614">
        <ele>1076.81</ele>
        <time>2012-08-01T08:51:27Z</time>
      </trkpt>
      <trkpt lat="46.47984" lon="12.19607">
        <ele>1077.78</ele>
        <time>2012-08-01T08:51:28Z</time>
      </trkpt>
      <trkpt lat="46.47996" lon="12.19598">
        <ele>1077.78</ele>
        <time>2012-08-01T08:51:29Z</time>
      </trkpt>
      <trkpt lat="46.48008" lon="12.19588">
        <ele>1078.26</ele>
        <time>2012-08-01T08:51:30Z</time>
      </trkpt>
      <trkpt lat="46.48019" lon="12.19576">
        <ele>1078.74</ele>
        <time>2012-08-01T08:51:31Z</time>
      </trkpt>
      <trkpt lat="46.48031" lon="12.19564">
        <ele>1079.7</ele>
        <time>2012-08-01T08:51:32Z</time>
      </trkpt>
      <trkpt lat="46.48055" lon="12.1954">
        <ele>1080.66</ele>
        <time>2012-08-01T08:51:34Z</time>
      </trkpt>
      <trkpt lat="46.48096" lon="12.19507">
        <ele>1082.58</ele>
        <time>2012-08-01T08:51:37Z</time>
      </trkpt>
      <trkpt lat="46.48139" lon="12.19471">
        <ele>1084.02</ele>
        <time>2012-08-01T08:51:40Z</time>
      </trkpt>
      <trkpt lat="46.48199" lon="12.19424">
        <ele>1087.87</ele>
        <time>2012-08-01T08:51:44Z</time>
      </trkpt>
      <trkpt lat="46.48214" lon="12.19412">
        <ele>1088.35</ele>
        <time>2012-08-01T08:51:45Z</time>
      </trkpt>
      <trkpt lat="46.48327" lon="12.19353">
        <ele>1091.23</ele>
        <time>2012-08-01T08:51:52Z</time>
      </trkpt>
      <trkpt lat="46.48406" lon="12.19316">
        <ele>1094.6</ele>
        <time>2012-08-01T08:51:57Z</time>
      </trkpt>
      <trkpt lat="46.48523" lon="12.19223">
        <ele>1096.04</ele>
        <time>2012-08-01T08:52:05Z</time>
      </trkpt>
      <trkpt lat="46.48626" lon="12.19124">
        <ele>1098.92</ele>
        <time>2012-08-01T08:52:12Z</time>
      </trkpt>
      <trkpt lat="46.4864" lon="12.19108">
        <ele>1099.4</ele>
        <time>2012-08-01T08:52:13Z</time>
      </trkpt>
      <trkpt lat="46.48652" lon="12.1909">
        <ele>1099.4</ele>
        <time>2012-08-01T08:52:14Z</time>
      </trkpt>
      <trkpt lat="46.48664" lon="12.19071">
        <ele>1100.37</ele>
        <time>2012-08-01T08:52:15Z</time>
      </trkpt>
      <trkpt lat="46.48673" lon="12.1905">
        <ele>1100.85</ele>
        <time>2012-08-01T08:52:16Z</time>
      </trkpt>
      <trkpt lat="46.48682" lon="12.19027">
        <ele>1101.33</ele>
        <time>2012-08-01T08:52:17Z</time>
      </trkpt>
      <trkpt lat="46.4869" lon="12.19004">
        <ele>1102.29</ele>
        <time>2012-08-01T08:52:18Z</time>
      </trkpt>
      <trkpt lat="46.48697" lon="12.1898">
        <ele>1102.29</ele>
        <time>2012-08-01T08:52:19Z</time>
      </trkpt>
      <trkpt lat="46.48758" lon="12.18786">
        <ele>1104.69</ele>
        <time>2012-08-01T08:52:27Z</time>
      </trkpt>
      <trkpt lat="46.48802" lon="12.18671">
        <ele>1107.58</ele>
        <time>2012-08-01T08:52:32Z</time>
      </trkpt>
      <trkpt lat="46.48813" lon="12.1865">
        <ele>1108.54</ele>
        <time>2012-08-01T08:52:33Z</time>
      </trkpt>
      <trkpt lat="46.48825" lon="12.1863">
        <ele>1109.02</ele>
        <time>2012-08-01T08:52:34Z</time>
      </trkpt>
      <trkpt lat="46.48838" lon="12.18611">
        <ele>1109.98</ele>
        <time>2012-08-01T08:52:35Z</time>
      </trkpt>
      <trkpt lat="46.48853" lon="12.18594">
        <ele>1110.46</ele>
        <time>2012-08-01T08:52:36Z</time>
      </trkpt>
      <trkpt lat="46.48867" lon="12.18578">
        <ele>1111.42</ele>
        <time>2012-08-01T08:52:37Z</time>
      </trkpt>
      <trkpt lat="46.48914" lon="12.18532">
        <ele>1114.79</ele>
        <time>2012-08-01T08:52:40Z</time>
      </trkpt>
      <trkpt lat="46.48929" lon="12.18516">
        <ele>1114.79</ele>
        <time>2012-08-01T08:52:41Z</time>
      </trkpt>
      <trkpt lat="46.49006" lon="12.18437">
        <ele>1119.11</ele>
        <time>2012-08-01T08:52:46Z</time>
      </trkpt>
      <trkpt lat="46.49048" lon="12.18387">
        <ele>1120.55</ele>
        <time>2012-08-01T08:52:49Z</time>
      </trkpt>
      <trkpt lat="46.49087" lon="12.18332">
        <ele>1122</ele>
        <time>2012-08-01T08:52:52Z</time>
      </trkpt>
      <trkpt lat="46.49146" lon="12.18242">
        <ele>1124.88</ele>
        <time>2012-08-01T08:52:57Z</time>
      </trkpt>
      <trkpt lat="46.49301" lon="12.18038">
        <ele>1124.88</ele>
        <time>2012-08-01T08:53:10Z</time>
      </trkpt>
      <trkpt lat="46.49439" lon="12.1796">
        <ele>1124.4</ele>
        <time>2012-08-01T08:53:19Z</time>
      </trkpt>
      <trkpt lat="46.4958" lon="12.17861">
        <ele>1124.88</ele>
        <time>2012-08-01T08:53:29Z</time>
      </trkpt>
      <trkpt lat="46.4969" lon="12.17694">
        <ele>1125.36</ele>
        <time>2012-08-01T08:53:39Z</time>
      </trkpt>
      <trkpt lat="46.49745" lon="12.17536">
        <ele>1124.4</ele>
        <time>2012-08-01T08:53:48Z</time>
      </trkpt>
      <trkpt lat="46.49757" lon="12.17381">
        <ele>1124.4</ele>
        <time>2012-08-01T08:53:56Z</time>
      </trkpt>
      <trkpt lat="46.49775" lon="12.17218">
        <ele>1125.36</ele>
        <time>2012-08-01T08:54:04Z</time>
      </trkpt>
      <trkpt lat="46.49785" lon="12.17055">
        <ele>1125.84</ele>
        <time>2012-08-01T08:54:12Z</time>
      </trkpt>
      <trkpt lat="46.4979" lon="12.17036">
        <ele>1124.88</ele>
        <time>2012-08-01T08:54:13Z</time>
      </trkpt>
      <trkpt lat="46.49797" lon="12.17018">
        <ele>1125.36</ele>
        <time>2012-08-01T08:54:14Z</time>
      </trkpt>
      <trkpt lat="46.49805" lon="12.17001">
        <ele>1125.36</ele>
        <time>2012-08-01T08:54:15Z</time>
      </trkpt>
      <trkpt lat="46.49815" lon="12.16985">
        <ele>1124.88</ele>
        <time>2012-08-01T08:54:16Z</time>
      </trkpt>
      <trkpt lat="46.49826" lon="12.16969">
        <ele>1124.88</ele>
        <time>2012-08-01T08:54:17Z</time>
      </trkpt>
      <trkpt lat="46.49839" lon="12.16956">
        <ele>1125.36</ele>
        <time>2012-08-01T08:54:18Z</time>
      </trkpt>
      <trkpt lat="46.49852" lon="12.16945">
        <ele>1125.36</ele>
        <time>2012-08-01T08:54:19Z</time>
      </trkpt>
      <trkpt lat="46.49865" lon="12.16935">
        <ele>1124.88</ele>
        <time>2012-08-01T08:54:20Z</time>
      </trkpt>
      <trkpt lat="46.49902" lon="12.169">
        <ele>1125.84</ele>
        <time>2012-08-01T08:54:23Z</time>
      </trkpt>
      <trkpt lat="46.49913" lon="12.16885">
        <ele>1124.88</ele>
        <time>2012-08-01T08:54:24Z</time>
      </trkpt>
      <trkpt lat="46.49922" lon="12.16869">
        <ele>1125.36</ele>
        <time>2012-08-01T08:54:25Z</time>
      </trkpt>
      <trkpt lat="46.50013" lon="12.16671">
        <ele>1124.88</ele>
        <time>2012-08-01T08:54:36Z</time>
      </trkpt>
      <trkpt lat="46.50103" lon="12.16571">
        <ele>1124.88</ele>
        <time>2012-08-01T08:54:44Z</time>
      </trkpt>
      <trkpt lat="46.50232" lon="12.16444">
        <ele>1124.4</ele>
        <time>2012-08-01T08:54:55Z</time>
      </trkpt>
      <trkpt lat="46.50356" lon="12.16322">
        <ele>1126.32</ele>
        <time>2012-08-01T08:55:06Z</time>
      </trkpt>
      <trkpt lat="46.50463" lon="12.16212">
        <ele>1126.32</ele>
        <time>2012-08-01T08:55:15Z</time>
      </trkpt>
      <trkpt lat="46.50472" lon="12.16198">
        <ele>1126.8</ele>
        <time>2012-08-01T08:55:16Z</time>
      </trkpt>
      <trkpt lat="46.50479" lon="12.16183">
        <ele>1126.32</ele>
        <time>2012-08-01T08:55:17Z</time>
      </trkpt>
      <trkpt lat="46.50486" lon="12.16168">
        <ele>1126.32</ele>
        <time>2012-08-01T08:55:18Z</time>
      </trkpt>
      <trkpt lat="46.50492" lon="12.16151">
        <ele>1126.8</ele>
        <time>2012-08-01T08:55:19Z</time>
      </trkpt>
      <trkpt lat="46.50497" lon="12.16133">
        <ele>1126.32</ele>
        <time>2012-08-01T08:55:20Z</time>
      </trkpt>
      <trkpt lat="46.50502" lon="12.16115">
        <ele>1125.84</ele>
        <time>2012-08-01T08:55:21Z</time>
      </trkpt>
      <trkpt lat="46.50526" lon="12.16027">
        <ele>1125.36</ele>
        <time>2012-08-01T08:55:26Z</time>
      </trkpt>
      <trkpt lat="46.50533" lon="12.16012">
        <ele>1125.84</ele>
        <time>2012-08-01T08:55:27Z</time>
      </trkpt>
      <trkpt lat="46.50542" lon="12.15998">
        <ele>1126.32</ele>
        <time>2012-08-01T08:55:28Z</time>
      </trkpt>
      <trkpt lat="46.50659" lon="12.15858">
        <ele>1127.76</ele>
        <time>2012-08-01T08:55:40Z</time>
      </trkpt>
      <trkpt lat="46.50713" lon="12.15794">
        <ele>1129.69</ele>
        <time>2012-08-01T08:55:48Z</time>
      </trkpt>
      <trkpt lat="46.50741" lon="12.15762">
        <ele>1130.65</ele>
        <time>2012-08-01T08:55:52Z</time>
      </trkpt>
      <trkpt lat="46.50819" lon="12.15674">
        <ele>1133.05</ele>
        <time>2012-08-01T08:56:01Z</time>
      </trkpt>
      <trkpt lat="46.50828" lon="12.15667">
        <ele>1133.53</ele>
        <time>2012-08-01T08:56:02Z</time>
      </trkpt>
      <trkpt lat="46.50839" lon="12.15661">
        <ele>1134.01</ele>
        <time>2012-08-01T08:56:03Z</time>
      </trkpt>
      <trkpt lat="46.5085" lon="12.15657">
        <ele>1134.49</ele>
        <time>2012-08-01T08:56:04Z</time>
      </trkpt>
      <trkpt lat="46.50863" lon="12.15655">
        <ele>1135.45</ele>
        <time>2012-08-01T08:56:05Z</time>
      </trkpt>
      <trkpt lat="46.50943" lon="12.15642">
        <ele>1137.38</ele>
        <time>2012-08-01T08:56:11Z</time>
      </trkpt>
      <trkpt lat="46.50957" lon="12.15636">
        <ele>1138.34</ele>
        <time>2012-08-01T08:56:12Z</time>
      </trkpt>
      <trkpt lat="46.50971" lon="12.15628">
        <ele>1138.82</ele>
        <time>2012-08-01T08:56:13Z</time>
      </trkpt>
      <trkpt lat="46.50983" lon="12.15617">
        <ele>1139.3</ele>
        <time>2012-08-01T08:56:14Z</time>
      </trkpt>
      <trkpt lat="46.50996" lon="12.15605">
        <ele>1139.3</ele>
        <time>2012-08-01T08:56:15Z</time>
      </trkpt>
      <trkpt lat="46.51007" lon="12.1559">
        <ele>1139.3</ele>
        <time>2012-08-01T08:56:16Z</time>
      </trkpt>
      <trkpt lat="46.51017" lon="12.15575">
        <ele>1139.3</ele>
        <time>2012-08-01T08:56:17Z</time>
      </trkpt>
      <trkpt lat="46.51026" lon="12.15558">
        <ele>1138.82</ele>
        <time>2012-08-01T08:56:18Z</time>
      </trkpt>
      <trkpt lat="46.51132" lon="12.15403">
        <ele>1140.26</ele>
        <time>2012-08-01T08:56:28Z</time>
      </trkpt>
      <trkpt lat="46.51182" lon="12.15346">
        <ele>1141.7</ele>
        <time>2012-08-01T08:56:32Z</time>
      </trkpt>
      <trkpt lat="46.51194" lon="12.15329">
        <ele>1142.66</ele>
        <time>2012-08-01T08:56:33Z</time>
      </trkpt>
      <trkpt lat="46.51204" lon="12.15311">
        <ele>1142.66</ele>
        <time>2012-08-01T08:56:34Z</time>
      </trkpt>
      <trkpt lat="46.51213" lon="12.15293">
        <ele>1142.66</ele>
        <time>2012-08-01T08:56:35Z</time>
      </trkpt>
      <trkpt lat="46.51221" lon="12.15272">
        <ele>1142.66</ele>
        <time>2012-08-01T08:56:36Z</time>
      </trkpt>
      <trkpt lat="46.51228" lon="12.15252">
        <ele>1142.18</ele>
        <time>2012-08-01T08:56:37Z</time>
      </trkpt>
      <trkpt lat="46.51304" lon="12.15073">
        <ele>1145.55</ele>
        <time>2012-08-01T08:56:46Z</time>
      </trkpt>
      <trkpt lat="46.51321" lon="12.15034">
        <ele>1146.51</ele>
        <time>2012-08-01T08:56:48Z</time>
      </trkpt>
      <trkpt lat="46.51382" lon="12.14888">
        <ele>1147.47</ele>
        <time>2012-08-01T08:56:57Z</time>
      </trkpt>
      <trkpt lat="46.51408" lon="12.14825">
        <ele>1149.39</ele>
        <time>2012-08-01T08:57:02Z</time>
      </trkpt>
      <trkpt lat="46.51433" lon="12.14706">
        <ele>1152.76</ele>
        <time>2012-08-01T08:57:10Z</time>
      </trkpt>
      <trkpt lat="46.51434" lon="12.14694">
        <ele>1151.8</ele>
        <time>2012-08-01T08:57:11Z</time>
      </trkpt>
      <trkpt lat="46.51436" lon="12.14679">
        <ele>1151.8</ele>
        <time>2012-08-01T08:57:17Z</time>
      </trkpt>
      <trkpt lat="46.51437" lon="12.14681">
        <ele>1151.32</ele>
        <time>2012-08-01T08:57:47Z</time>
      </trkpt>
      <trkpt lat="46.51431" lon="12.14685">
        <ele>1151.8</ele>
        <time>2012-08-01T08:57:50Z</time>
      </trkpt>
      <trkpt lat="46.51429" lon="12.14693">
        <ele>1151.8</ele>
        <time>2012-08-01T08:57:51Z</time>
      </trkpt>
      <trkpt lat="46.51429" lon="12.14702">
        <ele>1151.8</ele>
        <time>2012-08-01T08:57:52Z</time>
      </trkpt>
      <trkpt lat="46.51416" lon="12.14787">
        <ele>1150.35</ele>
        <time>2012-08-01T08:57:58Z</time>
      </trkpt>
      <trkpt lat="46.51384" lon="12.14877">
        <ele>1147.47</ele>
        <time>2012-08-01T08:58:06Z</time>
      </trkpt>
      <trkpt lat="46.51381" lon="12.1488">
        <ele>1146.99</ele>
        <time>2012-08-01T08:58:07Z</time>
      </trkpt>
      <trkpt lat="46.51378" lon="12.1488">
        <ele>1146.51</ele>
        <time>2012-08-01T08:58:08Z</time>
      </trkpt>
      <trkpt lat="46.51376" lon="12.14877">
        <ele>1146.51</ele>
        <time>2012-08-01T08:58:09Z</time>
      </trkpt>
      <trkpt lat="46.51374" lon="12.14874">
        <ele>1146.99</ele>
        <time>2012-08-01T08:58:10Z</time>
      </trkpt>
      <trkpt lat="46.51372" lon="12.1487">
        <ele>1146.99</ele>
        <time>2012-08-01T08:58:11Z</time>
      </trkpt>
      <trkpt lat="46.51372" lon="12.14869">
        <ele>1146.51</ele>
        <time>2012-08-01T08:58:22Z</time>
      </trkpt>
      <trkpt lat="46.51371" lon="12.14872">
        <ele>1146.99</ele>
        <time>2012-08-01T08:58:57Z</time>
      </trkpt>
      <trkpt lat="46.51371" lon="12.1487">
        <ele>1146.51</ele>
        <time>2012-08-01T08:59:28Z</time>
      </trkpt>
      <trkpt lat="46.51372" lon="12.14868">
        <ele>1146.51</ele>
        <time>2012-08-01T08:59:50Z</time>
      </trkpt>
      <trkpt lat="46.51374" lon="12.14867">
        <ele>1146.99</ele>
        <time>2012-08-01T08:59:51Z</time>
      </trkpt>
      <trkpt lat="46.51375" lon="12.14868">
        <ele>1146.99</ele>
        <time>2012-08-01T08:59:52Z</time>
      </trkpt>
      <trkpt lat="46.51378" lon="12.14878">
        <ele>1146.51</ele>
        <time>2012-08-01T09:00:00Z</time>
      </trkpt>
      <trkpt lat="46.51378" lon="12.14879">
        <ele>1146.51</ele>
        <time>2012-08-01T09:00:11Z</time>
      </trkpt>
      <trkpt lat="46.51385" lon="12.14877">
        <ele>1146.99</ele>
        <time>2012-08-01T09:00:14Z</time>
      </trkpt>
      <trkpt lat="46.51389" lon="12.14871">
        <ele>1146.99</ele>
        <time>2012-08-01T09:00:15Z</time>
      </trkpt>
      <trkpt lat="46.51393" lon="12.14861">
        <ele>1147.47</ele>
        <time>2012-08-01T09:00:16Z</time>
      </trkpt>
      <trkpt lat="46.51415" lon="12.14804">
        <ele>1150.84</ele>
        <time>2012-08-01T09:00:20Z</time>
      </trkpt>
      <trkpt lat="46.51432" lon="12.14709">
        <ele>1153.24</ele>
        <time>2012-08-01T09:00:25Z</time>
      </trkpt>
      <trkpt lat="46.51435" lon="12.1461">
        <ele>1156.6</ele>
        <time>2012-08-01T09:00:30Z</time>
      </trkpt>
      <trkpt lat="46.51437" lon="12.14573">
        <ele>1157.56</ele>
        <time>2012-08-01T09:00:32Z</time>
      </trkpt>
      <trkpt lat="46.51439" lon="12.14556">
        <ele>1159.01</ele>
        <time>2012-08-01T09:00:33Z</time>
      </trkpt>
      <trkpt lat="46.51443" lon="12.1454">
        <ele>1159.01</ele>
        <time>2012-08-01T09:00:34Z</time>
      </trkpt>
      <trkpt lat="46.51449" lon="12.14525">
        <ele>1159.97</ele>
        <time>2012-08-01T09:00:35Z</time>
      </trkpt>
      <trkpt lat="46.51456" lon="12.14511">
        <ele>1160.45</ele>
        <time>2012-08-01T09:00:36Z</time>
      </trkpt>
      <trkpt lat="46.51464" lon="12.14499">
        <ele>1160.93</ele>
        <time>2012-08-01T09:00:37Z</time>
      </trkpt>
      <trkpt lat="46.51474" lon="12.14488">
        <ele>1161.89</ele>
        <time>2012-08-01T09:00:38Z</time>
      </trkpt>
      <trkpt lat="46.51484" lon="12.14478">
        <ele>1162.85</ele>
        <time>2012-08-01T09:00:39Z</time>
      </trkpt>
      <trkpt lat="46.51513" lon="12.14446">
        <ele>1165.26</ele>
        <time>2012-08-01T09:00:42Z</time>
      </trkpt>
      <trkpt lat="46.51523" lon="12.14437">
        <ele>1165.26</ele>
        <time>2012-08-01T09:00:43Z</time>
      </trkpt>
      <trkpt lat="46.51534" lon="12.1443">
        <ele>1165.74</ele>
        <time>2012-08-01T09:00:44Z</time>
      </trkpt>
      <trkpt lat="46.51596" lon="12.14393">
        <ele>1168.62</ele>
        <time>2012-08-01T09:00:51Z</time>
      </trkpt>
      <trkpt lat="46.51605" lon="12.14387">
        <ele>1168.62</ele>
        <time>2012-08-01T09:00:52Z</time>
      </trkpt>
      <trkpt lat="46.51642" lon="12.14347">
        <ele>1171.02</ele>
        <time>2012-08-01T09:00:56Z</time>
      </trkpt>
      <trkpt lat="46.51672" lon="12.14308">
        <ele>1173.43</ele>
        <time>2012-08-01T09:00:59Z</time>
      </trkpt>
      <trkpt lat="46.51704" lon="12.14275">
        <ele>1173.91</ele>
        <time>2012-08-01T09:01:02Z</time>
      </trkpt>
      <trkpt lat="46.51715" lon="12.14266">
        <ele>1174.39</ele>
        <time>2012-08-01T09:01:03Z</time>
      </trkpt>
      <trkpt lat="46.51728" lon="12.1426">
        <ele>1175.35</ele>
        <time>2012-08-01T09:01:04Z</time>
      </trkpt>
      <trkpt lat="46.51741" lon="12.14255">
        <ele>1175.83</ele>
        <time>2012-08-01T09:01:05Z</time>
      </trkpt>
      <trkpt lat="46.51755" lon="12.14252">
        <ele>1176.79</ele>
        <time>2012-08-01T09:01:06Z</time>
      </trkpt>
      <trkpt lat="46.51769" lon="12.14251">
        <ele>1176.79</ele>
        <time>2012-08-01T09:01:07Z</time>
      </trkpt>
      <trkpt lat="46.51783" lon="12.1425">
        <ele>1177.27</ele>
        <time>2012-08-01T09:01:08Z</time>
      </trkpt>
      <trkpt lat="46.51908" lon="12.14244">
        <ele>1180.64</ele>
        <time>2012-08-01T09:01:17Z</time>
      </trkpt>
      <trkpt lat="46.52063" lon="12.14212">
        <ele>1183.52</ele>
        <time>2012-08-01T09:01:28Z</time>
      </trkpt>
      <trkpt lat="46.52202" lon="12.14204">
        <ele>1184.48</ele>
        <time>2012-08-01T09:01:38Z</time>
      </trkpt>
      <trkpt lat="46.52241" lon="12.14198">
        <ele>1184.96</ele>
        <time>2012-08-01T09:01:41Z</time>
      </trkpt>
      <trkpt lat="46.52253" lon="12.14193">
        <ele>1184.96</ele>
        <time>2012-08-01T09:01:42Z</time>
      </trkpt>
      <trkpt lat="46.52385" lon="12.14113">
        <ele>1186.4</ele>
        <time>2012-08-01T09:01:53Z</time>
      </trkpt>
      <trkpt lat="46.52501" lon="12.14039">
        <ele>1184.96</ele>
        <time>2012-08-01T09:02:05Z</time>
      </trkpt>
      <trkpt lat="46.52539" lon="12.14014">
        <ele>1186.4</ele>
        <time>2012-08-01T09:02:10Z</time>
      </trkpt>
      <trkpt lat="46.5256" lon="12.13999">
        <ele>1187.85</ele>
        <time>2012-08-01T09:02:12Z</time>
      </trkpt>
      <trkpt lat="46.52582" lon="12.13985">
        <ele>1187.37</ele>
        <time>2012-08-01T09:02:14Z</time>
      </trkpt>
      <trkpt lat="46.52594" lon="12.13981">
        <ele>1187.37</ele>
        <time>2012-08-01T09:02:15Z</time>
      </trkpt>
      <trkpt lat="46.52605" lon="12.1398">
        <ele>1187.37</ele>
        <time>2012-08-01T09:02:16Z</time>
      </trkpt>
      <trkpt lat="46.52617" lon="12.13982">
        <ele>1187.85</ele>
        <time>2012-08-01T09:02:17Z</time>
      </trkpt>
      <trkpt lat="46.52629" lon="12.13988">
        <ele>1188.33</ele>
        <time>2012-08-01T09:02:18Z</time>
      </trkpt>
      <trkpt lat="46.5264" lon="12.13996">
        <ele>1188.81</ele>
        <time>2012-08-01T09:02:19Z</time>
      </trkpt>
      <trkpt lat="46.52651" lon="12.14005">
        <ele>1187.85</ele>
        <time>2012-08-01T09:02:20Z</time>
      </trkpt>
      <trkpt lat="46.52661" lon="12.14013">
        <ele>1188.33</ele>
        <time>2012-08-01T09:02:21Z</time>
      </trkpt>
      <trkpt lat="46.5267" lon="12.14018">
        <ele>1188.33</ele>
        <time>2012-08-01T09:02:22Z</time>
      </trkpt>
      <trkpt lat="46.52677" lon="12.14024">
        <ele>1188.33</ele>
        <time>2012-08-01T09:02:23Z</time>
      </trkpt>
      <trkpt lat="46.52683" lon="12.14031">
        <ele>1187.37</ele>
        <time>2012-08-01T09:02:24Z</time>
      </trkpt>
      <trkpt lat="46.52695" lon="12.14044">
        <ele>1186.4</ele>
        <time>2012-08-01T09:02:30Z</time>
      </trkpt>
      <trkpt lat="46.52695" lon="12.14044">
        <ele>1186.4</ele>
        <time>2012-08-01T09:02:42Z</time>
      </trkpt>
      <trkpt lat="46.52696" lon="12.14046">
        <ele>1186.4</ele>
        <time>2012-08-01T09:02:43Z</time>
      </trkpt>
      <trkpt lat="46.52697" lon="12.14059">
        <ele>1186.88</ele>
        <time>2012-08-01T09:02:48Z</time>
      </trkpt>
      <trkpt lat="46.52701" lon="12.14066">
        <ele>1186.88</ele>
        <time>2012-08-01T09:02:49Z</time>
      </trkpt>
      <trkpt lat="46.52706" lon="12.14074">
        <ele>1187.37</ele>
        <time>2012-08-01T09:02:50Z</time>
      </trkpt>
      <trkpt lat="46.52742" lon="12.14121">
        <ele>1188.33</ele>
        <time>2012-08-01T09:02:55Z</time>
      </trkpt>
      <trkpt lat="46.52752" lon="12.14128">
        <ele>1188.33</ele>
        <time>2012-08-01T09:02:56Z</time>
      </trkpt>
      <trkpt lat="46.52762" lon="12.14133">
        <ele>1188.81</ele>
        <time>2012-08-01T09:02:57Z</time>
      </trkpt>
      <trkpt lat="46.52773" lon="12.14136">
        <ele>1189.29</ele>
        <time>2012-08-01T09:02:58Z</time>
      </trkpt>
      <trkpt lat="46.52784" lon="12.14136">
        <ele>1189.29</ele>
        <time>2012-08-01T09:02:59Z</time>
      </trkpt>
      <trkpt lat="46.52796" lon="12.14134">
        <ele>1189.29</ele>
        <time>2012-08-01T09:03:00Z</time>
      </trkpt>
      <trkpt lat="46.52807" lon="12.1413">
        <ele>1189.29</ele>
        <time>2012-08-01T09:03:01Z</time>
      </trkpt>
      <trkpt lat="46.52818" lon="12.14125">
        <ele>1189.29</ele>
        <time>2012-08-01T09:03:02Z</time>
      </trkpt>
      <trkpt lat="46.52991" lon="12.14072">
        <ele>1191.69</ele>
        <time>2012-08-01T09:03:16Z</time>
      </trkpt>
      <trkpt lat="46.53088" lon="12.14053">
        <ele>1192.17</ele>
        <time>2012-08-01T09:03:25Z</time>
      </trkpt>
      <trkpt lat="46.53213" lon="12.14028">
        <ele>1194.58</ele>
        <time>2012-08-01T09:03:36Z</time>
      </trkpt>
      <trkpt lat="46.53309" lon="12.14013">
        <ele>1195.54</ele>
        <time>2012-08-01T09:03:44Z</time>
      </trkpt>
      <trkpt lat="46.53318" lon="12.14015">
        <ele>1194.58</ele>
        <time>2012-08-01T09:03:45Z</time>
      </trkpt>
      <trkpt lat="46.53327" lon="12.14017">
        <ele>1194.09</ele>
        <time>2012-08-01T09:03:46Z</time>
      </trkpt>
      <trkpt lat="46.53335" lon="12.14018">
        <ele>1194.58</ele>
        <time>2012-08-01T09:03:47Z</time>
      </trkpt>
      <trkpt lat="46.53344" lon="12.14017">
        <ele>1194.09</ele>
        <time>2012-08-01T09:03:48Z</time>
      </trkpt>
      <trkpt lat="46.53351" lon="12.14013">
        <ele>1194.58</ele>
        <time>2012-08-01T09:03:49Z</time>
      </trkpt>
      <trkpt lat="46.53368" lon="12.14004">
        <ele>1193.61</ele>
        <time>2012-08-01T09:03:51Z</time>
      </trkpt>
      <trkpt lat="46.53375" lon="12.14001">
        <ele>1193.13</ele>
        <time>2012-08-01T09:03:52Z</time>
      </trkpt>
      <trkpt lat="46.53382" lon="12.14">
        <ele>1192.65</ele>
        <time>2012-08-01T09:03:53Z</time>
      </trkpt>
      <trkpt lat="46.53438" lon="12.1399">
        <ele>1189.29</ele>
        <time>2012-08-01T09:04:00Z</time>
      </trkpt>
      <trkpt lat="46.53512" lon="12.1396">
        <ele>1189.29</ele>
        <time>2012-08-01T09:04:10Z</time>
      </trkpt>
      <trkpt lat="46.53521" lon="12.13953">
        <ele>1190.25</ele>
        <time>2012-08-01T09:04:12Z</time>
      </trkpt>
      <trkpt lat="46.53525" lon="12.13949">
        <ele>1189.77</ele>
        <time>2012-08-01T09:04:13Z</time>
      </trkpt>
      <trkpt lat="46.53531" lon="12.13945">
        <ele>1190.73</ele>
        <time>2012-08-01T09:04:14Z</time>
      </trkpt>
      <trkpt lat="46.53566" lon="12.13924">
        <ele>1194.09</ele>
        <time>2012-08-01T09:04:19Z</time>
      </trkpt>
      <trkpt lat="46.53571" lon="12.13921">
        <ele>1193.61</ele>
        <time>2012-08-01T09:04:20Z</time>
      </trkpt>
      <trkpt lat="46.53576" lon="12.1392">
        <ele>1194.09</ele>
        <time>2012-08-01T09:04:21Z</time>
      </trkpt>
      <trkpt lat="46.5358" lon="12.13922">
        <ele>1194.09</ele>
        <time>2012-08-01T09:04:22Z</time>
      </trkpt>
      <trkpt lat="46.53582" lon="12.13926">
        <ele>1195.06</ele>
        <time>2012-08-01T09:04:23Z</time>
      </trkpt>
      <trkpt lat="46.53585" lon="12.13932">
        <ele>1195.54</ele>
        <time>2012-08-01T09:04:24Z</time>
      </trkpt>
      <trkpt lat="46.53586" lon="12.1394">
        <ele>1196.02</ele>
        <time>2012-08-01T09:04:25Z</time>
      </trkpt>
      <trkpt lat="46.53586" lon="12.13949">
        <ele>1196.02</ele>
        <time>2012-08-01T09:04:26Z</time>
      </trkpt>
      <trkpt lat="46.53587" lon="12.13959">
        <ele>1196.02</ele>
        <time>2012-08-01T09:04:27Z</time>
      </trkpt>
      <trkpt lat="46.53587" lon="12.13967">
        <ele>1196.02</ele>
        <time>2012-08-01T09:04:28Z</time>
      </trkpt>
      <trkpt lat="46.53589" lon="12.13974">
        <ele>1196.02</ele>
        <time>2012-08-01T09:04:29Z</time>
      </trkpt>
      <trkpt lat="46.53591" lon="12.13978">
        <ele>1196.5</ele>
        <time>2012-08-01T09:04:30Z</time>
      </trkpt>
      <trkpt lat="46.53597" lon="12.13984">
        <ele>1196.5</ele>
        <time>2012-08-01T09:04:34Z</time>
      </trkpt>
      <trkpt lat="46.53599" lon="12.13985">
        <ele>1196.98</ele>
        <time>2012-08-01T09:04:35Z</time>
      </trkpt>
      <trkpt lat="46.53631" lon="12.14006">
        <ele>1199.86</ele>
        <time>2012-08-01T09:04:45Z</time>
      </trkpt>
      <trkpt lat="46.53634" lon="12.14009">
        <ele>1199.86</ele>
        <time>2012-08-01T09:04:46Z</time>
      </trkpt>
      <trkpt lat="46.53642" lon="12.14025">
        <ele>1201.79</ele>
        <time>2012-08-01T09:04:50Z</time>
      </trkpt>
      <trkpt lat="46.5365" lon="12.14045">
        <ele>1202.27</ele>
        <time>2012-08-01T09:04:54Z</time>
      </trkpt>
      <trkpt lat="46.53653" lon="12.14051">
        <ele>1202.27</ele>
        <time>2012-08-01T09:04:55Z</time>
      </trkpt>
      <trkpt lat="46.53657" lon="12.14056">
        <ele>1202.75</ele>
        <time>2012-08-01T09:04:56Z</time>
      </trkpt>
      <trkpt lat="46.5366" lon="12.1406">
        <ele>1202.27</ele>
        <time>2012-08-01T09:04:57Z</time>
      </trkpt>
      <trkpt lat="46.53663" lon="12.14063">
        <ele>1202.75</ele>
        <time>2012-08-01T09:04:58Z</time>
      </trkpt>
      <trkpt lat="46.53666" lon="12.14066">
        <ele>1202.75</ele>
        <time>2012-08-01T09:04:59Z</time>
      </trkpt>
      <trkpt lat="46.53983" lon="12.13682">
        <ele>1231.11</ele>
        <time>2012-08-01T09:51:24Z</time>
      </trkpt>
      <trkpt lat="46.53982" lon="12.13682">
        <ele>1230.14</ele>
        <time>2012-08-01T09:51:25Z</time>
      </trkpt>
      <trkpt lat="46.53984" lon="12.13677">
        <ele>1229.18</ele>
        <time>2012-08-01T09:51:47Z</time>
      </trkpt>
      <trkpt lat="46.53977" lon="12.13687">
        <ele>1233.03</ele>
        <time>2012-08-01T09:52:15Z</time>
      </trkpt>
      <trkpt lat="46.53977" lon="12.13688">
        <ele>1228.7</ele>
        <time>2012-08-01T09:52:16Z</time>
      </trkpt>
      <trkpt lat="46.53974" lon="12.13686">
        <ele>1228.7</ele>
        <time>2012-08-01T09:52:27Z</time>
      </trkpt>
      <trkpt lat="46.5398" lon="12.13676">
        <ele>1229.18</ele>
        <time>2012-08-01T09:52:30Z</time>
      </trkpt>
      <trkpt lat="46.53996" lon="12.13651">
        <ele>1228.7</ele>
        <time>2012-08-01T09:52:35Z</time>
      </trkpt>
      <trkpt lat="46.54" lon="12.13647">
        <ele>1229.18</ele>
        <time>2012-08-01T09:52:36Z</time>
      </trkpt>
      <trkpt lat="46.54005" lon="12.13644">
        <ele>1228.7</ele>
        <time>2012-08-01T09:52:37Z</time>
      </trkpt>
      <trkpt lat="46.54009" lon="12.13643">
        <ele>1229.18</ele>
        <time>2012-08-01T09:52:38Z</time>
      </trkpt>
      <trkpt lat="46.54013" lon="12.13646">
        <ele>1229.66</ele>
        <time>2012-08-01T09:52:39Z</time>
      </trkpt>
      <trkpt lat="46.54016" lon="12.13653">
        <ele>1229.66</ele>
        <time>2012-08-01T09:52:40Z</time>
      </trkpt>
      <trkpt lat="46.54016" lon="12.13661">
        <ele>1230.14</ele>
        <time>2012-08-01T09:52:41Z</time>
      </trkpt>
      <trkpt lat="46.54014" lon="12.13671">
        <ele>1230.62</ele>
        <time>2012-08-01T09:52:42Z</time>
      </trkpt>
      <trkpt lat="46.54012" lon="12.1369">
        <ele>1232.07</ele>
        <time>2012-08-01T09:52:44Z</time>
      </trkpt>
      <trkpt lat="46.54013" lon="12.137">
        <ele>1232.07</ele>
        <time>2012-08-01T09:52:45Z</time>
      </trkpt>
      <trkpt lat="46.54014" lon="12.13708">
        <ele>1233.51</ele>
        <time>2012-08-01T09:52:46Z</time>
      </trkpt>
      <trkpt lat="46.54018" lon="12.13716">
        <ele>1233.99</ele>
        <time>2012-08-01T09:52:47Z</time>
      </trkpt>
      <trkpt lat="46.54024" lon="12.13722">
        <ele>1234.47</ele>
        <time>2012-08-01T09:52:48Z</time>
      </trkpt>
      <trkpt lat="46.5403" lon="12.13728">
        <ele>1234.95</ele>
        <time>2012-08-01T09:52:49Z</time>
      </trkpt>
      <trkpt lat="46.54037" lon="12.13735">
        <ele>1235.91</ele>
        <time>2012-08-01T09:52:50Z</time>
      </trkpt>
      <trkpt lat="46.54042" lon="12.13743">
        <ele>1235.91</ele>
        <time>2012-08-01T09:52:51Z</time>
      </trkpt>
      <trkpt lat="46.54046" lon="12.13753">
        <ele>1237.35</ele>
        <time>2012-08-01T09:52:52Z</time>
      </trkpt>
      <trkpt lat="46.54047" lon="12.13765">
        <ele>1238.32</ele>
        <time>2012-08-01T09:52:53Z</time>
      </trkpt>
      <trkpt lat="46.54047" lon="12.13776">
        <ele>1238.8</ele>
        <time>2012-08-01T09:52:54Z</time>
      </trkpt>
      <trkpt lat="46.54046" lon="12.13788">
        <ele>1239.76</ele>
        <time>2012-08-01T09:52:55Z</time>
      </trkpt>
      <trkpt lat="46.54044" lon="12.13801">
        <ele>1240.72</ele>
        <time>2012-08-01T09:52:56Z</time>
      </trkpt>
      <trkpt lat="46.54037" lon="12.13853">
        <ele>1244.08</ele>
        <time>2012-08-01T09:53:00Z</time>
      </trkpt>
      <trkpt lat="46.54031" lon="12.13894">
        <ele>1246.97</ele>
        <time>2012-08-01T09:53:03Z</time>
      </trkpt>
      <trkpt lat="46.54031" lon="12.13907">
        <ele>1247.93</ele>
        <time>2012-08-01T09:53:04Z</time>
      </trkpt>
      <trkpt lat="46.54034" lon="12.13919">
        <ele>1248.41</ele>
        <time>2012-08-01T09:53:05Z</time>
      </trkpt>
      <trkpt lat="46.54047" lon="12.1395">
        <ele>1251.29</ele>
        <time>2012-08-01T09:53:08Z</time>
      </trkpt>
      <trkpt lat="46.54055" lon="12.13957">
        <ele>1252.25</ele>
        <time>2012-08-01T09:53:09Z</time>
      </trkpt>
      <trkpt lat="46.54064" lon="12.13963">
        <ele>1252.74</ele>
        <time>2012-08-01T09:53:10Z</time>
      </trkpt>
      <trkpt lat="46.54071" lon="12.1397">
        <ele>1253.22</ele>
        <time>2012-08-01T09:53:11Z</time>
      </trkpt>
      <trkpt lat="46.54076" lon="12.13979">
        <ele>1254.18</ele>
        <time>2012-08-01T09:53:12Z</time>
      </trkpt>
      <trkpt lat="46.5408" lon="12.13989">
        <ele>1254.66</ele>
        <time>2012-08-01T09:53:13Z</time>
      </trkpt>
      <trkpt lat="46.5408" lon="12.13998">
        <ele>1256.58</ele>
        <time>2012-08-01T09:53:14Z</time>
      </trkpt>
      <trkpt lat="46.54076" lon="12.14007">
        <ele>1256.58</ele>
        <time>2012-08-01T09:53:15Z</time>
      </trkpt>
      <trkpt lat="46.54071" lon="12.14018">
        <ele>1258.5</ele>
        <time>2012-08-01T09:53:16Z</time>
      </trkpt>
      <trkpt lat="46.54066" lon="12.14028">
        <ele>1259.46</ele>
        <time>2012-08-01T09:53:17Z</time>
      </trkpt>
      <trkpt lat="46.54058" lon="12.14049">
        <ele>1262.35</ele>
        <time>2012-08-01T09:53:19Z</time>
      </trkpt>
      <trkpt lat="46.54054" lon="12.14063">
        <ele>1262.83</ele>
        <time>2012-08-01T09:53:20Z</time>
      </trkpt>
      <trkpt lat="46.54051" lon="12.14078">
        <ele>1262.83</ele>
        <time>2012-08-01T09:53:21Z</time>
      </trkpt>
      <trkpt lat="46.5405" lon="12.14094">
        <ele>1264.27</ele>
        <time>2012-08-01T09:53:22Z</time>
      </trkpt>
      <trkpt lat="46.54052" lon="12.14109">
        <ele>1264.75</ele>
        <time>2012-08-01T09:53:23Z</time>
      </trkpt>
      <trkpt lat="46.54055" lon="12.14124">
        <ele>1265.23</ele>
        <time>2012-08-01T09:53:24Z</time>
      </trkpt>
      <trkpt lat="46.5406" lon="12.14137">
        <ele>1266.19</ele>
        <time>2012-08-01T09:53:25Z</time>
      </trkpt>
      <trkpt lat="46.54066" lon="12.14149">
        <ele>1267.64</ele>
        <time>2012-08-01T09:53:26Z</time>
      </trkpt>
      <trkpt lat="46.54074" lon="12.14158">
        <ele>1268.12</ele>
        <time>2012-08-01T09:53:27Z</time>
      </trkpt>
      <trkpt lat="46.54083" lon="12.14167">
        <ele>1269.08</ele>
        <time>2012-08-01T09:53:28Z</time>
      </trkpt>
      <trkpt lat="46.54093" lon="12.14174">
        <ele>1270.04</ele>
        <time>2012-08-01T09:53:29Z</time>
      </trkpt>
      <trkpt lat="46.54126" lon="12.14195">
        <ele>1273.4</ele>
        <time>2012-08-01T09:53:32Z</time>
      </trkpt>
      <trkpt lat="46.54147" lon="12.14211">
        <ele>1273.88</ele>
        <time>2012-08-01T09:53:34Z</time>
      </trkpt>
      <trkpt lat="46.54156" lon="12.14223">
        <ele>1275.81</ele>
        <time>2012-08-01T09:53:35Z</time>
      </trkpt>
      <trkpt lat="46.54165" lon="12.14236">
        <ele>1277.73</ele>
        <time>2012-08-01T09:53:36Z</time>
      </trkpt>
      <trkpt lat="46.54173" lon="12.1425">
        <ele>1278.21</ele>
        <time>2012-08-01T09:53:37Z</time>
      </trkpt>
      <trkpt lat="46.5418" lon="12.14266">
        <ele>1280.13</ele>
        <time>2012-08-01T09:53:38Z</time>
      </trkpt>
      <trkpt lat="46.54205" lon="12.14328">
        <ele>1283.5</ele>
        <time>2012-08-01T09:53:42Z</time>
      </trkpt>
      <trkpt lat="46.54239" lon="12.14405">
        <ele>1287.82</ele>
        <time>2012-08-01T09:53:48Z</time>
      </trkpt>
      <trkpt lat="46.54257" lon="12.14448">
        <ele>1290.71</ele>
        <time>2012-08-01T09:53:51Z</time>
      </trkpt>
      <trkpt lat="46.54283" lon="12.14512">
        <ele>1294.07</ele>
        <time>2012-08-01T09:53:55Z</time>
      </trkpt>
      <trkpt lat="46.54305" lon="12.14564">
        <ele>1297.92</ele>
        <time>2012-08-01T09:53:58Z</time>
      </trkpt>
      <trkpt lat="46.5432" lon="12.14601">
        <ele>1300.8</ele>
        <time>2012-08-01T09:54:00Z</time>
      </trkpt>
      <trkpt lat="46.54327" lon="12.14619">
        <ele>1300.8</ele>
        <time>2012-08-01T09:54:01Z</time>
      </trkpt>
      <trkpt lat="46.54342" lon="12.14654">
        <ele>1304.65</ele>
        <time>2012-08-01T09:54:03Z</time>
      </trkpt>
      <trkpt lat="46.54355" lon="12.1469">
        <ele>1306.09</ele>
        <time>2012-08-01T09:54:05Z</time>
      </trkpt>
      <trkpt lat="46.5436" lon="12.14708">
        <ele>1307.05</ele>
        <time>2012-08-01T09:54:06Z</time>
      </trkpt>
      <trkpt lat="46.5438" lon="12.14796">
        <ele>1310.9</ele>
        <time>2012-08-01T09:54:11Z</time>
      </trkpt>
      <trkpt lat="46.54383" lon="12.14813">
        <ele>1310.9</ele>
        <time>2012-08-01T09:54:12Z</time>
      </trkpt>
      <trkpt lat="46.54391" lon="12.14845">
        <ele>1314.26</ele>
        <time>2012-08-01T09:54:14Z</time>
      </trkpt>
      <trkpt lat="46.54394" lon="12.14861">
        <ele>1314.26</ele>
        <time>2012-08-01T09:54:15Z</time>
      </trkpt>
      <trkpt lat="46.54415" lon="12.1496">
        <ele>1317.62</ele>
        <time>2012-08-01T09:54:21Z</time>
      </trkpt>
      <trkpt lat="46.54432" lon="12.15048">
        <ele>1320.99</ele>
        <time>2012-08-01T09:54:26Z</time>
      </trkpt>
      <trkpt lat="46.54431" lon="12.15065">
        <ele>1320.99</ele>
        <time>2012-08-01T09:54:27Z</time>
      </trkpt>
      <trkpt lat="46.54427" lon="12.1508">
        <ele>1321.95</ele>
        <time>2012-08-01T09:54:28Z</time>
      </trkpt>
      <trkpt lat="46.54421" lon="12.15094">
        <ele>1323.39</ele>
        <time>2012-08-01T09:54:29Z</time>
      </trkpt>
      <trkpt lat="46.54413" lon="12.15107">
        <ele>1323.39</ele>
        <time>2012-08-01T09:54:30Z</time>
      </trkpt>
      <trkpt lat="46.54405" lon="12.15118">
        <ele>1323.87</ele>
        <time>2012-08-01T09:54:31Z</time>
      </trkpt>
      <trkpt lat="46.54396" lon="12.15128">
        <ele>1324.35</ele>
        <time>2012-08-01T09:54:32Z</time>
      </trkpt>
      <trkpt lat="46.54361" lon="12.15158">
        <ele>1326.28</ele>
        <time>2012-08-01T09:54:36Z</time>
      </trkpt>
      <trkpt lat="46.54351" lon="12.1516">
        <ele>1326.28</ele>
        <time>2012-08-01T09:54:37Z</time>
      </trkpt>
      <trkpt lat="46.54341" lon="12.15158">
        <ele>1326.76</ele>
        <time>2012-08-01T09:54:38Z</time>
      </trkpt>
      <trkpt lat="46.54331" lon="12.15152">
        <ele>1328.2</ele>
        <time>2012-08-01T09:54:39Z</time>
      </trkpt>
      <trkpt lat="46.54322" lon="12.15144">
        <ele>1329.16</ele>
        <time>2012-08-01T09:54:40Z</time>
      </trkpt>
      <trkpt lat="46.54295" lon="12.15125">
        <ele>1331.56</ele>
        <time>2012-08-01T09:54:43Z</time>
      </trkpt>
      <trkpt lat="46.54287" lon="12.15124">
        <ele>1333.01</ele>
        <time>2012-08-01T09:54:44Z</time>
      </trkpt>
      <trkpt lat="46.54279" lon="12.15127">
        <ele>1333.49</ele>
        <time>2012-08-01T09:54:45Z</time>
      </trkpt>
      <trkpt lat="46.54274" lon="12.15134">
        <ele>1333.97</ele>
        <time>2012-08-01T09:54:46Z</time>
      </trkpt>
      <trkpt lat="46.54271" lon="12.15144">
        <ele>1333.97</ele>
        <time>2012-08-01T09:54:47Z</time>
      </trkpt>
      <trkpt lat="46.5427" lon="12.15155">
        <ele>1334.93</ele>
        <time>2012-08-01T09:54:48Z</time>
      </trkpt>
      <trkpt lat="46.54271" lon="12.15165">
        <ele>1335.41</ele>
        <time>2012-08-01T09:54:49Z</time>
      </trkpt>
      <trkpt lat="46.54274" lon="12.15174">
        <ele>1335.89</ele>
        <time>2012-08-01T09:54:50Z</time>
      </trkpt>
      <trkpt lat="46.54278" lon="12.15181">
        <ele>1336.85</ele>
        <time>2012-08-01T09:54:51Z</time>
      </trkpt>
      <trkpt lat="46.54284" lon="12.15188">
        <ele>1336.85</ele>
        <time>2012-08-01T09:54:52Z</time>
      </trkpt>
      <trkpt lat="46.5429" lon="12.15194">
        <ele>1337.81</ele>
        <time>2012-08-01T09:54:53Z</time>
      </trkpt>
      <trkpt lat="46.54295" lon="12.152">
        <ele>1338.29</ele>
        <time>2012-08-01T09:54:54Z</time>
      </trkpt>
      <trkpt lat="46.543" lon="12.15209">
        <ele>1339.25</ele>
        <time>2012-08-01T09:54:55Z</time>
      </trkpt>
      <trkpt lat="46.54303" lon="12.1522">
        <ele>1339.73</ele>
        <time>2012-08-01T09:54:56Z</time>
      </trkpt>
      <trkpt lat="46.54306" lon="12.15232">
        <ele>1341.18</ele>
        <time>2012-08-01T09:54:57Z</time>
      </trkpt>
      <trkpt lat="46.54305" lon="12.15246">
        <ele>1341.66</ele>
        <time>2012-08-01T09:54:58Z</time>
      </trkpt>
      <trkpt lat="46.54302" lon="12.1526">
        <ele>1343.58</ele>
        <time>2012-08-01T09:54:59Z</time>
      </trkpt>
      <trkpt lat="46.54297" lon="12.15272">
        <ele>1344.54</ele>
        <time>2012-08-01T09:55:00Z</time>
      </trkpt>
      <trkpt lat="46.5429" lon="12.15283">
        <ele>1346.46</ele>
        <time>2012-08-01T09:55:01Z</time>
      </trkpt>
      <trkpt lat="46.54282" lon="12.15294">
        <ele>1347.43</ele>
        <time>2012-08-01T09:55:02Z</time>
      </trkpt>
      <trkpt lat="46.54268" lon="12.15314">
        <ele>1349.83</ele>
        <time>2012-08-01T09:55:04Z</time>
      </trkpt>
      <trkpt lat="46.54263" lon="12.15326">
        <ele>1350.79</ele>
        <time>2012-08-01T09:55:05Z</time>
      </trkpt>
      <trkpt lat="46.54259" lon="12.15339">
        <ele>1351.27</ele>
        <time>2012-08-01T09:55:06Z</time>
      </trkpt>
      <trkpt lat="46.54259" lon="12.15353">
        <ele>1352.23</ele>
        <time>2012-08-01T09:55:07Z</time>
      </trkpt>
      <trkpt lat="46.5426" lon="12.15367">
        <ele>1352.71</ele>
        <time>2012-08-01T09:55:08Z</time>
      </trkpt>
      <trkpt lat="46.54265" lon="12.1538">
        <ele>1354.15</ele>
        <time>2012-08-01T09:55:09Z</time>
      </trkpt>
      <trkpt lat="46.54271" lon="12.15389">
        <ele>1354.63</ele>
        <time>2012-08-01T09:55:10Z</time>
      </trkpt>
      <trkpt lat="46.54278" lon="12.15397">
        <ele>1356.08</ele>
        <time>2012-08-01T09:55:11Z</time>
      </trkpt>
      <trkpt lat="46.54286" lon="12.15404">
        <ele>1356.56</ele>
        <time>2012-08-01T09:55:12Z</time>
      </trkpt>
      <trkpt lat="46.54298" lon="12.15417">
        <ele>1358.48</ele>
        <time>2012-08-01T09:55:14Z</time>
      </trkpt>
      <trkpt lat="46.54304" lon="12.15424">
        <ele>1358.96</ele>
        <time>2012-08-01T09:55:15Z</time>
      </trkpt>
      <trkpt lat="46.54309" lon="12.15433">
        <ele>1359.92</ele>
        <time>2012-08-01T09:55:16Z</time>
      </trkpt>
      <trkpt lat="46.54312" lon="12.15444">
        <ele>1361.84</ele>
        <time>2012-08-01T09:55:17Z</time>
      </trkpt>
      <trkpt lat="46.54314" lon="12.15456">
        <ele>1362.81</ele>
        <time>2012-08-01T09:55:18Z</time>
      </trkpt>
      <trkpt lat="46.54316" lon="12.15471">
        <ele>1363.77</ele>
        <time>2012-08-01T09:55:19Z</time>
      </trkpt>
      <trkpt lat="46.5432" lon="12.15519">
        <ele>1367.13</ele>
        <time>2012-08-01T09:55:22Z</time>
      </trkpt>
      <trkpt lat="46.5432" lon="12.15532">
        <ele>1366.65</ele>
        <time>2012-08-01T09:55:23Z</time>
      </trkpt>
      <trkpt lat="46.5432" lon="12.15543">
        <ele>1367.13</ele>
        <time>2012-08-01T09:55:24Z</time>
      </trkpt>
      <trkpt lat="46.54318" lon="12.15553">
        <ele>1367.61</ele>
        <time>2012-08-01T09:55:25Z</time>
      </trkpt>
      <trkpt lat="46.54315" lon="12.15562">
        <ele>1368.57</ele>
        <time>2012-08-01T09:55:26Z</time>
      </trkpt>
      <trkpt lat="46.54308" lon="12.15568">
        <ele>1369.54</ele>
        <time>2012-08-01T09:55:27Z</time>
      </trkpt>
      <trkpt lat="46.54299" lon="12.15571">
        <ele>1370.98</ele>
        <time>2012-08-01T09:55:28Z</time>
      </trkpt>
      <trkpt lat="46.5429" lon="12.1557">
        <ele>1372.9</ele>
        <time>2012-08-01T09:55:29Z</time>
      </trkpt>
      <trkpt lat="46.54279" lon="12.15566">
        <ele>1373.86</ele>
        <time>2012-08-01T09:55:30Z</time>
      </trkpt>
      <trkpt lat="46.54268" lon="12.15561">
        <ele>1376.26</ele>
        <time>2012-08-01T09:55:31Z</time>
      </trkpt>
      <trkpt lat="46.54258" lon="12.15556">
        <ele>1375.78</ele>
        <time>2012-08-01T09:55:32Z</time>
      </trkpt>
      <trkpt lat="46.54249" lon="12.15548">
        <ele>1377.23</ele>
        <time>2012-08-01T09:55:33Z</time>
      </trkpt>
      <trkpt lat="46.54242" lon="12.15538">
        <ele>1378.19</ele>
        <time>2012-08-01T09:55:34Z</time>
      </trkpt>
      <trkpt lat="46.54236" lon="12.15525">
        <ele>1379.15</ele>
        <time>2012-08-01T09:55:35Z</time>
      </trkpt>
      <trkpt lat="46.54233" lon="12.15513">
        <ele>1380.11</ele>
        <time>2012-08-01T09:55:36Z</time>
      </trkpt>
      <trkpt lat="46.5423" lon="12.15503">
        <ele>1380.59</ele>
        <time>2012-08-01T09:55:37Z</time>
      </trkpt>
      <trkpt lat="46.54228" lon="12.15494">
        <ele>1380.59</ele>
        <time>2012-08-01T09:55:38Z</time>
      </trkpt>
      <trkpt lat="46.54225" lon="12.15486">
        <ele>1382.03</ele>
        <time>2012-08-01T09:55:39Z</time>
      </trkpt>
      <trkpt lat="46.5422" lon="12.1548">
        <ele>1382.03</ele>
        <time>2012-08-01T09:55:40Z</time>
      </trkpt>
      <trkpt lat="46.54215" lon="12.15477">
        <ele>1382.99</ele>
        <time>2012-08-01T09:55:41Z</time>
      </trkpt>
      <trkpt lat="46.54209" lon="12.15476">
        <ele>1384.44</ele>
        <time>2012-08-01T09:55:42Z</time>
      </trkpt>
      <trkpt lat="46.54198" lon="12.15474">
        <ele>1387.8</ele>
        <time>2012-08-01T09:55:44Z</time>
      </trkpt>
      <trkpt lat="46.54194" lon="12.15479">
        <ele>1390.2</ele>
        <time>2012-08-01T09:55:45Z</time>
      </trkpt>
      <trkpt lat="46.54188" lon="12.15489">
        <ele>1391.17</ele>
        <time>2012-08-01T09:55:46Z</time>
      </trkpt>
      <trkpt lat="46.5417" lon="12.15518">
        <ele>1393.57</ele>
        <time>2012-08-01T09:55:48Z</time>
      </trkpt>
      <trkpt lat="46.54166" lon="12.1553">
        <ele>1394.05</ele>
        <time>2012-08-01T09:55:49Z</time>
      </trkpt>
      <trkpt lat="46.54163" lon="12.15547">
        <ele>1395.49</ele>
        <time>2012-08-01T09:55:50Z</time>
      </trkpt>
      <trkpt lat="46.54163" lon="12.15562">
        <ele>1396.93</ele>
        <time>2012-08-01T09:55:51Z</time>
      </trkpt>
      <trkpt lat="46.54166" lon="12.15572">
        <ele>1398.37</ele>
        <time>2012-08-01T09:55:52Z</time>
      </trkpt>
      <trkpt lat="46.5417" lon="12.15585">
        <ele>1399.34</ele>
        <time>2012-08-01T09:55:53Z</time>
      </trkpt>
      <trkpt lat="46.54176" lon="12.156">
        <ele>1399.34</ele>
        <time>2012-08-01T09:55:54Z</time>
      </trkpt>
      <trkpt lat="46.54194" lon="12.15641">
        <ele>1401.26</ele>
        <time>2012-08-01T09:55:56Z</time>
      </trkpt>
      <trkpt lat="46.54199" lon="12.15657">
        <ele>1402.7</ele>
        <time>2012-08-01T09:55:57Z</time>
      </trkpt>
      <trkpt lat="46.542" lon="12.15674">
        <ele>1402.7</ele>
        <time>2012-08-01T09:55:58Z</time>
      </trkpt>
      <trkpt lat="46.54201" lon="12.1569">
        <ele>1403.66</ele>
        <time>2012-08-01T09:55:59Z</time>
      </trkpt>
      <trkpt lat="46.54201" lon="12.15705">
        <ele>1404.62</ele>
        <time>2012-08-01T09:56:00Z</time>
      </trkpt>
      <trkpt lat="46.54204" lon="12.15749">
        <ele>1407.51</ele>
        <time>2012-08-01T09:56:03Z</time>
      </trkpt>
      <trkpt lat="46.54208" lon="12.15763">
        <ele>1407.99</ele>
        <time>2012-08-01T09:56:04Z</time>
      </trkpt>
      <trkpt lat="46.54214" lon="12.15777">
        <ele>1411.35</ele>
        <time>2012-08-01T09:56:05Z</time>
      </trkpt>
      <trkpt lat="46.54224" lon="12.15788">
        <ele>1413.76</ele>
        <time>2012-08-01T09:56:06Z</time>
      </trkpt>
      <trkpt lat="46.54238" lon="12.15799">
        <ele>1415.2</ele>
        <time>2012-08-01T09:56:07Z</time>
      </trkpt>
      <trkpt lat="46.54292" lon="12.15847">
        <ele>1416.16</ele>
        <time>2012-08-01T09:56:12Z</time>
      </trkpt>
      <trkpt lat="46.54301" lon="12.15854">
        <ele>1416.64</ele>
        <time>2012-08-01T09:56:13Z</time>
      </trkpt>
      <trkpt lat="46.54308" lon="12.15866">
        <ele>1418.08</ele>
        <time>2012-08-01T09:56:14Z</time>
      </trkpt>
      <trkpt lat="46.54313" lon="12.1588">
        <ele>1418.56</ele>
        <time>2012-08-01T09:56:15Z</time>
      </trkpt>
      <trkpt lat="46.54314" lon="12.15895">
        <ele>1419.04</ele>
        <time>2012-08-01T09:56:16Z</time>
      </trkpt>
      <trkpt lat="46.54313" lon="12.1591">
        <ele>1419.52</ele>
        <time>2012-08-01T09:56:17Z</time>
      </trkpt>
      <trkpt lat="46.54309" lon="12.15923">
        <ele>1420.49</ele>
        <time>2012-08-01T09:56:18Z</time>
      </trkpt>
      <trkpt lat="46.54304" lon="12.15933">
        <ele>1420.97</ele>
        <time>2012-08-01T09:56:19Z</time>
      </trkpt>
      <trkpt lat="46.54296" lon="12.15941">
        <ele>1421.93</ele>
        <time>2012-08-01T09:56:20Z</time>
      </trkpt>
      <trkpt lat="46.54286" lon="12.15945">
        <ele>1423.37</ele>
        <time>2012-08-01T09:56:21Z</time>
      </trkpt>
      <trkpt lat="46.54273" lon="12.15948">
        <ele>1424.81</ele>
        <time>2012-08-01T09:56:22Z</time>
      </trkpt>
      <trkpt lat="46.54257" lon="12.1595">
        <ele>1425.77</ele>
        <time>2012-08-01T09:56:23Z</time>
      </trkpt>
      <trkpt lat="46.54239" lon="12.15951">
        <ele>1426.73</ele>
        <time>2012-08-01T09:56:24Z</time>
      </trkpt>
      <trkpt lat="46.54223" lon="12.15955">
        <ele>1426.73</ele>
        <time>2012-08-01T09:56:25Z</time>
      </trkpt>
      <trkpt lat="46.5421" lon="12.15961">
        <ele>1427.21</ele>
        <time>2012-08-01T09:56:26Z</time>
      </trkpt>
      <trkpt lat="46.542" lon="12.15974">
        <ele>1427.7</ele>
        <time>2012-08-01T09:56:27Z</time>
      </trkpt>
      <trkpt lat="46.54193" lon="12.15993">
        <ele>1429.62</ele>
        <time>2012-08-01T09:56:28Z</time>
      </trkpt>
      <trkpt lat="46.54189" lon="12.16016">
        <ele>1431.54</ele>
        <time>2012-08-01T09:56:29Z</time>
      </trkpt>
      <trkpt lat="46.54186" lon="12.16041">
        <ele>1434.91</ele>
        <time>2012-08-01T09:56:30Z</time>
      </trkpt>
      <trkpt lat="46.5418" lon="12.16096">
        <ele>1438.75</ele>
        <time>2012-08-01T09:56:32Z</time>
      </trkpt>
      <trkpt lat="46.54175" lon="12.16152">
        <ele>1442.6</ele>
        <time>2012-08-01T09:56:34Z</time>
      </trkpt>
      <trkpt lat="46.54174" lon="12.16182">
        <ele>1444.04</ele>
        <time>2012-08-01T09:56:35Z</time>
      </trkpt>
      <trkpt lat="46.54178" lon="12.16211">
        <ele>1445.48</ele>
        <time>2012-08-01T09:56:36Z</time>
      </trkpt>
      <trkpt lat="46.54181" lon="12.16239">
        <ele>1446.92</ele>
        <time>2012-08-01T09:56:37Z</time>
      </trkpt>
      <trkpt lat="46.54187" lon="12.16261">
        <ele>1447.88</ele>
        <time>2012-08-01T09:56:38Z</time>
      </trkpt>
      <trkpt lat="46.54195" lon="12.1628">
        <ele>1447.88</ele>
        <time>2012-08-01T09:56:39Z</time>
      </trkpt>
      <trkpt lat="46.54206" lon="12.16295">
        <ele>1449.32</ele>
        <time>2012-08-01T09:56:40Z</time>
      </trkpt>
      <trkpt lat="46.54221" lon="12.16306">
        <ele>1451.25</ele>
        <time>2012-08-01T09:56:41Z</time>
      </trkpt>
      <trkpt lat="46.54237" lon="12.16314">
        <ele>1455.09</ele>
        <time>2012-08-01T09:56:42Z</time>
      </trkpt>
      <trkpt lat="46.54254" lon="12.1632">
        <ele>1457.5</ele>
        <time>2012-08-01T09:56:43Z</time>
      </trkpt>
      <trkpt lat="46.54295" lon="12.16332">
        <ele>1460.86</ele>
        <time>2012-08-01T09:56:45Z</time>
      </trkpt>
      <trkpt lat="46.54316" lon="12.16337">
        <ele>1463.26</ele>
        <time>2012-08-01T09:56:46Z</time>
      </trkpt>
      <trkpt lat="46.54338" lon="12.16339">
        <ele>1465.19</ele>
        <time>2012-08-01T09:56:47Z</time>
      </trkpt>
      <trkpt lat="46.54358" lon="12.16338">
        <ele>1466.15</ele>
        <time>2012-08-01T09:56:48Z</time>
      </trkpt>
      <trkpt lat="46.54408" lon="12.16337">
        <ele>1464.71</ele>
        <time>2012-08-01T09:56:51Z</time>
      </trkpt>
      <trkpt lat="46.5442" lon="12.16344">
        <ele>1464.71</ele>
        <time>2012-08-01T09:56:52Z</time>
      </trkpt>
      <trkpt lat="46.54429" lon="12.16357">
        <ele>1465.19</ele>
        <time>2012-08-01T09:56:53Z</time>
      </trkpt>
      <trkpt lat="46.54435" lon="12.16376">
        <ele>1468.07</ele>
        <time>2012-08-01T09:56:54Z</time>
      </trkpt>
      <trkpt lat="46.5444" lon="12.16399">
        <ele>1470.47</ele>
        <time>2012-08-01T09:56:55Z</time>
      </trkpt>
      <trkpt lat="46.5445" lon="12.16448">
        <ele>1473.36</ele>
        <time>2012-08-01T09:56:57Z</time>
      </trkpt>
      <trkpt lat="46.54458" lon="12.16472">
        <ele>1474.32</ele>
        <time>2012-08-01T09:56:58Z</time>
      </trkpt>
      <trkpt lat="46.54478" lon="12.1652">
        <ele>1477.68</ele>
        <time>2012-08-01T09:57:00Z</time>
      </trkpt>
      <trkpt lat="46.54485" lon="12.16547">
        <ele>1479.13</ele>
        <time>2012-08-01T09:57:01Z</time>
      </trkpt>
      <trkpt lat="46.5449" lon="12.16572">
        <ele>1479.13</ele>
        <time>2012-08-01T09:57:02Z</time>
      </trkpt>
      <trkpt lat="46.54495" lon="12.16594">
        <ele>1479.13</ele>
        <time>2012-08-01T09:57:03Z</time>
      </trkpt>
      <trkpt lat="46.54499" lon="12.16612">
        <ele>1479.13</ele>
        <time>2012-08-01T09:57:04Z</time>
      </trkpt>
      <trkpt lat="46.54504" lon="12.16626">
        <ele>1478.65</ele>
        <time>2012-08-01T09:57:05Z</time>
      </trkpt>
      <trkpt lat="46.54512" lon="12.16633">
        <ele>1478.16</ele>
        <time>2012-08-01T09:57:06Z</time>
      </trkpt>
      <trkpt lat="46.54521" lon="12.16635">
        <ele>1478.65</ele>
        <time>2012-08-01T09:57:07Z</time>
      </trkpt>
      <trkpt lat="46.54533" lon="12.16632">
        <ele>1480.09</ele>
        <time>2012-08-01T09:57:08Z</time>
      </trkpt>
      <trkpt lat="46.54543" lon="12.16625">
        <ele>1482.01</ele>
        <time>2012-08-01T09:57:09Z</time>
      </trkpt>
      <trkpt lat="46.54554" lon="12.16612">
        <ele>1483.45</ele>
        <time>2012-08-01T09:57:10Z</time>
      </trkpt>
      <trkpt lat="46.54565" lon="12.16595">
        <ele>1483.93</ele>
        <time>2012-08-01T09:57:11Z</time>
      </trkpt>
      <trkpt lat="46.54575" lon="12.16577">
        <ele>1484.89</ele>
        <time>2012-08-01T09:57:12Z</time>
      </trkpt>
      <trkpt lat="46.54582" lon="12.16557">
        <ele>1484.89</ele>
        <time>2012-08-01T09:57:13Z</time>
      </trkpt>
      <trkpt lat="46.54585" lon="12.16537">
        <ele>1484.41</ele>
        <time>2012-08-01T09:57:14Z</time>
      </trkpt>
      <trkpt lat="46.54585" lon="12.16518">
        <ele>1483.93</ele>
        <time>2012-08-01T09:57:15Z</time>
      </trkpt>
      <trkpt lat="46.54585" lon="12.16504">
        <ele>1482.49</ele>
        <time>2012-08-01T09:57:16Z</time>
      </trkpt>
      <trkpt lat="46.54587" lon="12.16492">
        <ele>1482.49</ele>
        <time>2012-08-01T09:57:17Z</time>
      </trkpt>
      <trkpt lat="46.5459" lon="12.16483">
        <ele>1482.01</ele>
        <time>2012-08-01T09:57:18Z</time>
      </trkpt>
      <trkpt lat="46.54593" lon="12.16476">
        <ele>1482.01</ele>
        <time>2012-08-01T09:57:19Z</time>
      </trkpt>
      <trkpt lat="46.54597" lon="12.16475">
        <ele>1482.97</ele>
        <time>2012-08-01T09:57:20Z</time>
      </trkpt>
      <trkpt lat="46.54602" lon="12.16479">
        <ele>1482.97</ele>
        <time>2012-08-01T09:57:21Z</time>
      </trkpt>
      <trkpt lat="46.54606" lon="12.16487">
        <ele>1483.45</ele>
        <time>2012-08-01T09:57:22Z</time>
      </trkpt>
      <trkpt lat="46.54608" lon="12.165">
        <ele>1485.37</ele>
        <time>2012-08-01T09:57:23Z</time>
      </trkpt>
      <trkpt lat="46.54608" lon="12.16517">
        <ele>1486.82</ele>
        <time>2012-08-01T09:57:24Z</time>
      </trkpt>
      <trkpt lat="46.54607" lon="12.16537">
        <ele>1488.74</ele>
        <time>2012-08-01T09:57:25Z</time>
      </trkpt>
      <trkpt lat="46.54603" lon="12.16583">
        <ele>1493.06</ele>
        <time>2012-08-01T09:57:27Z</time>
      </trkpt>
      <trkpt lat="46.546" lon="12.16631">
        <ele>1496.43</ele>
        <time>2012-08-01T09:57:29Z</time>
      </trkpt>
      <trkpt lat="46.546" lon="12.16673">
        <ele>1497.39</ele>
        <time>2012-08-01T09:57:31Z</time>
      </trkpt>
      <trkpt lat="46.54602" lon="12.1669">
        <ele>1497.87</ele>
        <time>2012-08-01T09:57:32Z</time>
      </trkpt>
      <trkpt lat="46.54603" lon="12.16704">
        <ele>1498.35</ele>
        <time>2012-08-01T09:57:33Z</time>
      </trkpt>
      <trkpt lat="46.5461" lon="12.16742">
        <ele>1500.27</ele>
        <time>2012-08-01T09:57:36Z</time>
      </trkpt>
      <trkpt lat="46.54617" lon="12.16776">
        <ele>1503.16</ele>
        <time>2012-08-01T09:57:39Z</time>
      </trkpt>
      <trkpt lat="46.54622" lon="12.16787">
        <ele>1503.16</ele>
        <time>2012-08-01T09:57:40Z</time>
      </trkpt>
      <trkpt lat="46.54627" lon="12.16796">
        <ele>1504.12</ele>
        <time>2012-08-01T09:57:41Z</time>
      </trkpt>
      <trkpt lat="46.54633" lon="12.16804">
        <ele>1505.08</ele>
        <time>2012-08-01T09:57:42Z</time>
      </trkpt>
      <trkpt lat="46.54641" lon="12.16807">
        <ele>1506.04</ele>
        <time>2012-08-01T09:57:43Z</time>
      </trkpt>
      <trkpt lat="46.54649" lon="12.16807">
        <ele>1506.52</ele>
        <time>2012-08-01T09:57:44Z</time>
      </trkpt>
      <trkpt lat="46.54658" lon="12.16802">
        <ele>1507.48</ele>
        <time>2012-08-01T09:57:45Z</time>
      </trkpt>
      <trkpt lat="46.54667" lon="12.16794">
        <ele>1508.45</ele>
        <time>2012-08-01T09:57:46Z</time>
      </trkpt>
      <trkpt lat="46.54674" lon="12.16781">
        <ele>1510.37</ele>
        <time>2012-08-01T09:57:47Z</time>
      </trkpt>
      <trkpt lat="46.5468" lon="12.16763">
        <ele>1512.29</ele>
        <time>2012-08-01T09:57:48Z</time>
      </trkpt>
      <trkpt lat="46.54686" lon="12.16741">
        <ele>1514.21</ele>
        <time>2012-08-01T09:57:49Z</time>
      </trkpt>
      <trkpt lat="46.54711" lon="12.16649">
        <ele>1515.66</ele>
        <time>2012-08-01T09:57:53Z</time>
      </trkpt>
      <trkpt lat="46.54719" lon="12.16634">
        <ele>1515.66</ele>
        <time>2012-08-01T09:57:54Z</time>
      </trkpt>
      <trkpt lat="46.54728" lon="12.16625">
        <ele>1515.66</ele>
        <time>2012-08-01T09:57:55Z</time>
      </trkpt>
      <trkpt lat="46.54738" lon="12.1662">
        <ele>1516.14</ele>
        <time>2012-08-01T09:57:56Z</time>
      </trkpt>
      <trkpt lat="46.54748" lon="12.1662">
        <ele>1516.62</ele>
        <time>2012-08-01T09:57:57Z</time>
      </trkpt>
      <trkpt lat="46.54759" lon="12.16628">
        <ele>1517.58</ele>
        <time>2012-08-01T09:57:58Z</time>
      </trkpt>
      <trkpt lat="46.54766" lon="12.16642">
        <ele>1518.54</ele>
        <time>2012-08-01T09:57:59Z</time>
      </trkpt>
      <trkpt lat="46.5477" lon="12.16661">
        <ele>1520.46</ele>
        <time>2012-08-01T09:58:00Z</time>
      </trkpt>
      <trkpt lat="46.54771" lon="12.16682">
        <ele>1522.39</ele>
        <time>2012-08-01T09:58:01Z</time>
      </trkpt>
      <trkpt lat="46.54769" lon="12.16705">
        <ele>1524.31</ele>
        <time>2012-08-01T09:58:02Z</time>
      </trkpt>
      <trkpt lat="46.54765" lon="12.16729">
        <ele>1526.23</ele>
        <time>2012-08-01T09:58:03Z</time>
      </trkpt>
      <trkpt lat="46.54758" lon="12.16753">
        <ele>1528.63</ele>
        <time>2012-08-01T09:58:04Z</time>
      </trkpt>
      <trkpt lat="46.54749" lon="12.16777">
        <ele>1530.56</ele>
        <time>2012-08-01T09:58:05Z</time>
      </trkpt>
      <trkpt lat="46.54739" lon="12.16801">
        <ele>1532</ele>
        <time>2012-08-01T09:58:06Z</time>
      </trkpt>
      <trkpt lat="46.54729" lon="12.16823">
        <ele>1532.48</ele>
        <time>2012-08-01T09:58:07Z</time>
      </trkpt>
      <trkpt lat="46.54722" lon="12.16844">
        <ele>1533.44</ele>
        <time>2012-08-01T09:58:08Z</time>
      </trkpt>
      <trkpt lat="46.54718" lon="12.16865">
        <ele>1534.88</ele>
        <time>2012-08-01T09:58:09Z</time>
      </trkpt>
      <trkpt lat="46.54714" lon="12.16888">
        <ele>1538.25</ele>
        <time>2012-08-01T09:58:10Z</time>
      </trkpt>
      <trkpt lat="46.54713" lon="12.16914">
        <ele>1540.17</ele>
        <time>2012-08-01T09:58:11Z</time>
      </trkpt>
      <trkpt lat="46.54713" lon="12.16941">
        <ele>1542.09</ele>
        <time>2012-08-01T09:58:12Z</time>
      </trkpt>
      <trkpt lat="46.54716" lon="12.16966">
        <ele>1542.57</ele>
        <time>2012-08-01T09:58:13Z</time>
      </trkpt>
      <trkpt lat="46.54719" lon="12.16988">
        <ele>1543.53</ele>
        <time>2012-08-01T09:58:14Z</time>
      </trkpt>
      <trkpt lat="46.54719" lon="12.17008">
        <ele>1544.98</ele>
        <time>2012-08-01T09:58:15Z</time>
      </trkpt>
      <trkpt lat="46.54716" lon="12.17027">
        <ele>1547.38</ele>
        <time>2012-08-01T09:58:16Z</time>
      </trkpt>
      <trkpt lat="46.54708" lon="12.17046">
        <ele>1549.78</ele>
        <time>2012-08-01T09:58:17Z</time>
      </trkpt>
      <trkpt lat="46.54698" lon="12.17063">
        <ele>1550.26</ele>
        <time>2012-08-01T09:58:18Z</time>
      </trkpt>
      <trkpt lat="46.5469" lon="12.17079">
        <ele>1551.22</ele>
        <time>2012-08-01T09:58:19Z</time>
      </trkpt>
      <trkpt lat="46.54683" lon="12.17094">
        <ele>1552.19</ele>
        <time>2012-08-01T09:58:20Z</time>
      </trkpt>
      <trkpt lat="46.5468" lon="12.1711">
        <ele>1552.19</ele>
        <time>2012-08-01T09:58:21Z</time>
      </trkpt>
      <trkpt lat="46.5468" lon="12.17128">
        <ele>1554.59</ele>
        <time>2012-08-01T09:58:22Z</time>
      </trkpt>
      <trkpt lat="46.54684" lon="12.17146">
        <ele>1555.07</ele>
        <time>2012-08-01T09:58:23Z</time>
      </trkpt>
      <trkpt lat="46.54692" lon="12.1716">
        <ele>1555.55</ele>
        <time>2012-08-01T09:58:24Z</time>
      </trkpt>
      <trkpt lat="46.54701" lon="12.1717">
        <ele>1556.51</ele>
        <time>2012-08-01T09:58:25Z</time>
      </trkpt>
      <trkpt lat="46.54712" lon="12.17173">
        <ele>1556.99</ele>
        <time>2012-08-01T09:58:26Z</time>
      </trkpt>
      <trkpt lat="46.54723" lon="12.17172">
        <ele>1558.92</ele>
        <time>2012-08-01T09:58:27Z</time>
      </trkpt>
      <trkpt lat="46.54733" lon="12.17165">
        <ele>1559.88</ele>
        <time>2012-08-01T09:58:28Z</time>
      </trkpt>
      <trkpt lat="46.54742" lon="12.17154">
        <ele>1560.84</ele>
        <time>2012-08-01T09:58:29Z</time>
      </trkpt>
      <trkpt lat="46.5475" lon="12.1714">
        <ele>1562.28</ele>
        <time>2012-08-01T09:58:30Z</time>
      </trkpt>
      <trkpt lat="46.54757" lon="12.17126">
        <ele>1562.28</ele>
        <time>2012-08-01T09:58:31Z</time>
      </trkpt>
      <trkpt lat="46.54764" lon="12.17115">
        <ele>1562.76</ele>
        <time>2012-08-01T09:58:32Z</time>
      </trkpt>
      <trkpt lat="46.54771" lon="12.17106">
        <ele>1563.72</ele>
        <time>2012-08-01T09:58:33Z</time>
      </trkpt>
      <trkpt lat="46.5478" lon="12.17101">
        <ele>1564.68</ele>
        <time>2012-08-01T09:58:34Z</time>
      </trkpt>
      <trkpt lat="46.5479" lon="12.17098">
        <ele>1565.16</ele>
        <time>2012-08-01T09:58:35Z</time>
      </trkpt>
      <trkpt lat="46.548" lon="12.17099">
        <ele>1566.61</ele>
        <time>2012-08-01T09:58:36Z</time>
      </trkpt>
      <trkpt lat="46.5481" lon="12.17104">
        <ele>1567.57</ele>
        <time>2012-08-01T09:58:37Z</time>
      </trkpt>
      <trkpt lat="46.54818" lon="12.17112">
        <ele>1568.53</ele>
        <time>2012-08-01T09:58:38Z</time>
      </trkpt>
      <trkpt lat="46.54826" lon="12.17123">
        <ele>1569.49</ele>
        <time>2012-08-01T09:58:39Z</time>
      </trkpt>
      <trkpt lat="46.54832" lon="12.17137">
        <ele>1570.45</ele>
        <time>2012-08-01T09:58:40Z</time>
      </trkpt>
      <trkpt lat="46.54836" lon="12.17155">
        <ele>1571.89</ele>
        <time>2012-08-01T09:58:41Z</time>
      </trkpt>
      <trkpt lat="46.5484" lon="12.17176">
        <ele>1573.82</ele>
        <time>2012-08-01T09:58:42Z</time>
      </trkpt>
      <trkpt lat="46.54845" lon="12.17199">
        <ele>1576.22</ele>
        <time>2012-08-01T09:58:43Z</time>
      </trkpt>
      <trkpt lat="46.54849" lon="12.17225">
        <ele>1578.62</ele>
        <time>2012-08-01T09:58:44Z</time>
      </trkpt>
      <trkpt lat="46.54857" lon="12.17278">
        <ele>1583.43</ele>
        <time>2012-08-01T09:58:46Z</time>
      </trkpt>
      <trkpt lat="46.54864" lon="12.17332">
        <ele>1587.27</ele>
        <time>2012-08-01T09:58:48Z</time>
      </trkpt>
      <trkpt lat="46.54878" lon="12.17424">
        <ele>1590.16</ele>
        <time>2012-08-01T09:58:52Z</time>
      </trkpt>
      <trkpt lat="46.5488" lon="12.17442">
        <ele>1591.12</ele>
        <time>2012-08-01T09:58:53Z</time>
      </trkpt>
      <trkpt lat="46.5488" lon="12.1746">
        <ele>1591.6</ele>
        <time>2012-08-01T09:58:54Z</time>
      </trkpt>
      <trkpt lat="46.5488" lon="12.17476">
        <ele>1593.52</ele>
        <time>2012-08-01T09:58:55Z</time>
      </trkpt>
      <trkpt lat="46.54879" lon="12.17492">
        <ele>1594.48</ele>
        <time>2012-08-01T09:58:56Z</time>
      </trkpt>
      <trkpt lat="46.54878" lon="12.17507">
        <ele>1593.04</ele>
        <time>2012-08-01T09:58:57Z</time>
      </trkpt>
      <trkpt lat="46.54877" lon="12.1752">
        <ele>1596.89</ele>
        <time>2012-08-01T09:58:58Z</time>
      </trkpt>
      <trkpt lat="46.54874" lon="12.17559">
        <ele>1598.81</ele>
        <time>2012-08-01T09:59:01Z</time>
      </trkpt>
      <trkpt lat="46.54871" lon="12.17614">
        <ele>1602.17</ele>
        <time>2012-08-01T09:59:05Z</time>
      </trkpt>
      <trkpt lat="46.54872" lon="12.17643">
        <ele>1602.66</ele>
        <time>2012-08-01T09:59:07Z</time>
      </trkpt>
      <trkpt lat="46.54875" lon="12.17658">
        <ele>1603.14</ele>
        <time>2012-08-01T09:59:08Z</time>
      </trkpt>
      <trkpt lat="46.54879" lon="12.17672">
        <ele>1603.62</ele>
        <time>2012-08-01T09:59:09Z</time>
      </trkpt>
      <trkpt lat="46.54895" lon="12.17709">
        <ele>1604.58</ele>
        <time>2012-08-01T09:59:12Z</time>
      </trkpt>
      <trkpt lat="46.54942" lon="12.17786">
        <ele>1607.46</ele>
        <time>2012-08-01T09:59:20Z</time>
      </trkpt>
      <trkpt lat="46.54947" lon="12.17797">
        <ele>1607.46</ele>
        <time>2012-08-01T09:59:21Z</time>
      </trkpt>
      <trkpt lat="46.54951" lon="12.1781">
        <ele>1607.94</ele>
        <time>2012-08-01T09:59:22Z</time>
      </trkpt>
      <trkpt lat="46.54955" lon="12.17823">
        <ele>1606.5</ele>
        <time>2012-08-01T09:59:23Z</time>
      </trkpt>
      <trkpt lat="46.54956" lon="12.17837">
        <ele>1609.86</ele>
        <time>2012-08-01T09:59:24Z</time>
      </trkpt>
      <trkpt lat="46.54958" lon="12.17852">
        <ele>1609.86</ele>
        <time>2012-08-01T09:59:25Z</time>
      </trkpt>
      <trkpt lat="46.54962" lon="12.17929">
        <ele>1613.23</ele>
        <time>2012-08-01T09:59:30Z</time>
      </trkpt>
      <trkpt lat="46.54969" lon="12.17994">
        <ele>1617.56</ele>
        <time>2012-08-01T09:59:33Z</time>
      </trkpt>
      <trkpt lat="46.54975" lon="12.18045">
        <ele>1620.44</ele>
        <time>2012-08-01T09:59:35Z</time>
      </trkpt>
      <trkpt lat="46.54985" lon="12.18127">
        <ele>1624.28</ele>
        <time>2012-08-01T09:59:38Z</time>
      </trkpt>
      <trkpt lat="46.54987" lon="12.18156">
        <ele>1626.21</ele>
        <time>2012-08-01T09:59:39Z</time>
      </trkpt>
      <trkpt lat="46.54986" lon="12.18184">
        <ele>1626.69</ele>
        <time>2012-08-01T09:59:40Z</time>
      </trkpt>
      <trkpt lat="46.54984" lon="12.18238">
        <ele>1629.57</ele>
        <time>2012-08-01T09:59:42Z</time>
      </trkpt>
      <trkpt lat="46.54986" lon="12.18265">
        <ele>1631.01</ele>
        <time>2012-08-01T09:59:43Z</time>
      </trkpt>
      <trkpt lat="46.5499" lon="12.18291">
        <ele>1632.46</ele>
        <time>2012-08-01T09:59:44Z</time>
      </trkpt>
      <trkpt lat="46.55012" lon="12.1838">
        <ele>1634.86</ele>
        <time>2012-08-01T09:59:49Z</time>
      </trkpt>
      <trkpt lat="46.55023" lon="12.18422">
        <ele>1639.19</ele>
        <time>2012-08-01T09:59:52Z</time>
      </trkpt>
      <trkpt lat="46.55027" lon="12.18437">
        <ele>1638.7</ele>
        <time>2012-08-01T09:59:53Z</time>
      </trkpt>
      <trkpt lat="46.55039" lon="12.18481">
        <ele>1641.59</ele>
        <time>2012-08-01T09:59:56Z</time>
      </trkpt>
      <trkpt lat="46.5505" lon="12.18526">
        <ele>1645.43</ele>
        <time>2012-08-01T09:59:59Z</time>
      </trkpt>
      <trkpt lat="46.5506" lon="12.18565">
        <ele>1648.8</ele>
        <time>2012-08-01T10:00:02Z</time>
      </trkpt>
      <trkpt lat="46.55065" lon="12.18578">
        <ele>1649.76</ele>
        <time>2012-08-01T10:00:03Z</time>
      </trkpt>
      <trkpt lat="46.5509" lon="12.18632">
        <ele>1654.09</ele>
        <time>2012-08-01T10:00:07Z</time>
      </trkpt>
      <trkpt lat="46.55107" lon="12.18671">
        <ele>1656.01</ele>
        <time>2012-08-01T10:00:10Z</time>
      </trkpt>
      <trkpt lat="46.55132" lon="12.18728">
        <ele>1661.3</ele>
        <time>2012-08-01T10:00:15Z</time>
      </trkpt>
      <trkpt lat="46.55136" lon="12.18741">
        <ele>1660.81</ele>
        <time>2012-08-01T10:00:16Z</time>
      </trkpt>
      <trkpt lat="46.5514" lon="12.18754">
        <ele>1661.78</ele>
        <time>2012-08-01T10:00:17Z</time>
      </trkpt>
      <trkpt lat="46.55142" lon="12.18768">
        <ele>1662.26</ele>
        <time>2012-08-01T10:00:18Z</time>
      </trkpt>
      <trkpt lat="46.55142" lon="12.18781">
        <ele>1662.74</ele>
        <time>2012-08-01T10:00:19Z</time>
      </trkpt>
      <trkpt lat="46.55142" lon="12.18794">
        <ele>1662.74</ele>
        <time>2012-08-01T10:00:20Z</time>
      </trkpt>
      <trkpt lat="46.55143" lon="12.18876">
        <ele>1665.62</ele>
        <time>2012-08-01T10:00:26Z</time>
      </trkpt>
      <trkpt lat="46.55143" lon="12.18969">
        <ele>1668.99</ele>
        <time>2012-08-01T10:00:32Z</time>
      </trkpt>
      <trkpt lat="46.55145" lon="12.18986">
        <ele>1669.47</ele>
        <time>2012-08-01T10:00:33Z</time>
      </trkpt>
      <trkpt lat="46.55148" lon="12.19002">
        <ele>1669.47</ele>
        <time>2012-08-01T10:00:34Z</time>
      </trkpt>
      <trkpt lat="46.55151" lon="12.19016">
        <ele>1669.47</ele>
        <time>2012-08-01T10:00:35Z</time>
      </trkpt>
      <trkpt lat="46.55166" lon="12.19078">
        <ele>1671.87</ele>
        <time>2012-08-01T10:00:41Z</time>
      </trkpt>
      <trkpt lat="46.55169" lon="12.19087">
        <ele>1673.31</ele>
        <time>2012-08-01T10:00:42Z</time>
      </trkpt>
      <trkpt lat="46.55173" lon="12.19093">
        <ele>1674.27</ele>
        <time>2012-08-01T10:00:43Z</time>
      </trkpt>
      <trkpt lat="46.5518" lon="12.19095">
        <ele>1674.75</ele>
        <time>2012-08-01T10:00:44Z</time>
      </trkpt>
      <trkpt lat="46.55187" lon="12.1909">
        <ele>1675.23</ele>
        <time>2012-08-01T10:00:45Z</time>
      </trkpt>
      <trkpt lat="46.55194" lon="12.19082">
        <ele>1676.2</ele>
        <time>2012-08-01T10:00:46Z</time>
      </trkpt>
      <trkpt lat="46.552" lon="12.19068">
        <ele>1677.64</ele>
        <time>2012-08-01T10:00:47Z</time>
      </trkpt>
      <trkpt lat="46.55206" lon="12.19049">
        <ele>1680.52</ele>
        <time>2012-08-01T10:00:48Z</time>
      </trkpt>
      <trkpt lat="46.55214" lon="12.19028">
        <ele>1682.93</ele>
        <time>2012-08-01T10:00:49Z</time>
      </trkpt>
      <trkpt lat="46.5523" lon="12.18987">
        <ele>1683.89</ele>
        <time>2012-08-01T10:00:51Z</time>
      </trkpt>
      <trkpt lat="46.55237" lon="12.18972">
        <ele>1683.89</ele>
        <time>2012-08-01T10:00:52Z</time>
      </trkpt>
      <trkpt lat="46.55246" lon="12.18959">
        <ele>1684.37</ele>
        <time>2012-08-01T10:00:53Z</time>
      </trkpt>
      <trkpt lat="46.55256" lon="12.18952">
        <ele>1684.37</ele>
        <time>2012-08-01T10:00:54Z</time>
      </trkpt>
      <trkpt lat="46.55267" lon="12.18952">
        <ele>1685.81</ele>
        <time>2012-08-01T10:00:55Z</time>
      </trkpt>
      <trkpt lat="46.55279" lon="12.18959">
        <ele>1686.29</ele>
        <time>2012-08-01T10:00:56Z</time>
      </trkpt>
      <trkpt lat="46.55287" lon="12.18974">
        <ele>1688.21</ele>
        <time>2012-08-01T10:00:57Z</time>
      </trkpt>
      <trkpt lat="46.55293" lon="12.18994">
        <ele>1690.14</ele>
        <time>2012-08-01T10:00:58Z</time>
      </trkpt>
      <trkpt lat="46.55299" lon="12.19017">
        <ele>1693.5</ele>
        <time>2012-08-01T10:00:59Z</time>
      </trkpt>
      <trkpt lat="46.55312" lon="12.19067">
        <ele>1697.34</ele>
        <time>2012-08-01T10:01:01Z</time>
      </trkpt>
      <trkpt lat="46.55327" lon="12.1912">
        <ele>1702.63</ele>
        <time>2012-08-01T10:01:03Z</time>
      </trkpt>
      <trkpt lat="46.55342" lon="12.19175">
        <ele>1706.48</ele>
        <time>2012-08-01T10:01:05Z</time>
      </trkpt>
      <trkpt lat="46.55349" lon="12.19203">
        <ele>1709.84</ele>
        <time>2012-08-01T10:01:06Z</time>
      </trkpt>
      <trkpt lat="46.55366" lon="12.19258">
        <ele>1713.69</ele>
        <time>2012-08-01T10:01:08Z</time>
      </trkpt>
      <trkpt lat="46.55384" lon="12.19313">
        <ele>1718.49</ele>
        <time>2012-08-01T10:01:10Z</time>
      </trkpt>
      <trkpt lat="46.55402" lon="12.19369">
        <ele>1722.82</ele>
        <time>2012-08-01T10:01:12Z</time>
      </trkpt>
      <trkpt lat="46.5542" lon="12.19425">
        <ele>1725.22</ele>
        <time>2012-08-01T10:01:14Z</time>
      </trkpt>
      <trkpt lat="46.55438" lon="12.1948">
        <ele>1730.99</ele>
        <time>2012-08-01T10:01:16Z</time>
      </trkpt>
      <trkpt lat="46.55459" lon="12.19532">
        <ele>1734.36</ele>
        <time>2012-08-01T10:01:18Z</time>
      </trkpt>
      <trkpt lat="46.55481" lon="12.19581">
        <ele>1737.72</ele>
        <time>2012-08-01T10:01:20Z</time>
      </trkpt>
      <trkpt lat="46.55504" lon="12.19631">
        <ele>1741.57</ele>
        <time>2012-08-01T10:01:22Z</time>
      </trkpt>
      <trkpt lat="46.55527" lon="12.19681">
        <ele>1745.89</ele>
        <time>2012-08-01T10:01:24Z</time>
      </trkpt>
      <trkpt lat="46.55549" lon="12.19731">
        <ele>1750.7</ele>
        <time>2012-08-01T10:01:26Z</time>
      </trkpt>
      <trkpt lat="46.55588" lon="12.19808">
        <ele>1751.18</ele>
        <time>2012-08-01T10:01:30Z</time>
      </trkpt>
      <trkpt lat="46.55597" lon="12.19818">
        <ele>1751.66</ele>
        <time>2012-08-01T10:01:31Z</time>
      </trkpt>
      <trkpt lat="46.55607" lon="12.19824">
        <ele>1752.14</ele>
        <time>2012-08-01T10:01:32Z</time>
      </trkpt>
      <trkpt lat="46.55618" lon="12.19823">
        <ele>1753.1</ele>
        <time>2012-08-01T10:01:33Z</time>
      </trkpt>
      <trkpt lat="46.55628" lon="12.19815">
        <ele>1753.58</ele>
        <time>2012-08-01T10:01:34Z</time>
      </trkpt>
      <trkpt lat="46.55633" lon="12.19802">
        <ele>1754.54</ele>
        <time>2012-08-01T10:01:35Z</time>
      </trkpt>
      <trkpt lat="46.55635" lon="12.19785">
        <ele>1755.99</ele>
        <time>2012-08-01T10:01:36Z</time>
      </trkpt>
      <trkpt lat="46.55635" lon="12.19764">
        <ele>1757.43</ele>
        <time>2012-08-01T10:01:37Z</time>
      </trkpt>
      <trkpt lat="46.55637" lon="12.19697">
        <ele>1761.27</ele>
        <time>2012-08-01T10:01:40Z</time>
      </trkpt>
      <trkpt lat="46.55637" lon="12.19676">
        <ele>1761.27</ele>
        <time>2012-08-01T10:01:41Z</time>
      </trkpt>
      <trkpt lat="46.55639" lon="12.1966">
        <ele>1761.27</ele>
        <time>2012-08-01T10:01:42Z</time>
      </trkpt>
      <trkpt lat="46.55642" lon="12.19647">
        <ele>1761.27</ele>
        <time>2012-08-01T10:01:43Z</time>
      </trkpt>
      <trkpt lat="46.55648" lon="12.19638">
        <ele>1761.27</ele>
        <time>2012-08-01T10:01:44Z</time>
      </trkpt>
      <trkpt lat="46.55657" lon="12.19636">
        <ele>1762.23</ele>
        <time>2012-08-01T10:01:45Z</time>
      </trkpt>
      <trkpt lat="46.55667" lon="12.1964">
        <ele>1763.2</ele>
        <time>2012-08-01T10:01:46Z</time>
      </trkpt>
      <trkpt lat="46.55676" lon="12.1965">
        <ele>1765.12</ele>
        <time>2012-08-01T10:01:47Z</time>
      </trkpt>
      <trkpt lat="46.55685" lon="12.19665">
        <ele>1767.04</ele>
        <time>2012-08-01T10:01:48Z</time>
      </trkpt>
      <trkpt lat="46.55705" lon="12.19698">
        <ele>1770.89</ele>
        <time>2012-08-01T10:01:50Z</time>
      </trkpt>
      <trkpt lat="46.55717" lon="12.1971">
        <ele>1771.85</ele>
        <time>2012-08-01T10:01:51Z</time>
      </trkpt>
      <trkpt lat="46.55728" lon="12.19719">
        <ele>1771.37</ele>
        <time>2012-08-01T10:01:52Z</time>
      </trkpt>
      <trkpt lat="46.55737" lon="12.19728">
        <ele>1772.33</ele>
        <time>2012-08-01T10:01:53Z</time>
      </trkpt>
      <trkpt lat="46.55742" lon="12.1974">
        <ele>1772.33</ele>
        <time>2012-08-01T10:01:54Z</time>
      </trkpt>
      <trkpt lat="46.55745" lon="12.19754">
        <ele>1773.29</ele>
        <time>2012-08-01T10:01:55Z</time>
      </trkpt>
      <trkpt lat="46.55745" lon="12.1977">
        <ele>1774.73</ele>
        <time>2012-08-01T10:01:56Z</time>
      </trkpt>
      <trkpt lat="46.55742" lon="12.19789">
        <ele>1776.17</ele>
        <time>2012-08-01T10:01:57Z</time>
      </trkpt>
      <trkpt lat="46.55738" lon="12.19829">
        <ele>1779.54</ele>
        <time>2012-08-01T10:01:59Z</time>
      </trkpt>
      <trkpt lat="46.5574" lon="12.19852">
        <ele>1780.5</ele>
        <time>2012-08-01T10:02:00Z</time>
      </trkpt>
      <trkpt lat="46.55747" lon="12.19896">
        <ele>1782.42</ele>
        <time>2012-08-01T10:02:02Z</time>
      </trkpt>
      <trkpt lat="46.55746" lon="12.19917">
        <ele>1783.38</ele>
        <time>2012-08-01T10:02:03Z</time>
      </trkpt>
      <trkpt lat="46.55742" lon="12.19937">
        <ele>1783.86</ele>
        <time>2012-08-01T10:02:04Z</time>
      </trkpt>
      <trkpt lat="46.55737" lon="12.19957">
        <ele>1785.31</ele>
        <time>2012-08-01T10:02:05Z</time>
      </trkpt>
      <trkpt lat="46.55731" lon="12.19977">
        <ele>1785.79</ele>
        <time>2012-08-01T10:02:06Z</time>
      </trkpt>
      <trkpt lat="46.55725" lon="12.19996">
        <ele>1785.79</ele>
        <time>2012-08-01T10:02:07Z</time>
      </trkpt>
      <trkpt lat="46.55721" lon="12.20013">
        <ele>1786.27</ele>
        <time>2012-08-01T10:02:08Z</time>
      </trkpt>
      <trkpt lat="46.5572" lon="12.20029">
        <ele>1785.79</ele>
        <time>2012-08-01T10:02:09Z</time>
      </trkpt>
      <trkpt lat="46.55721" lon="12.20046">
        <ele>1785.79</ele>
        <time>2012-08-01T10:02:10Z</time>
      </trkpt>
      <trkpt lat="46.55724" lon="12.20063">
        <ele>1787.23</ele>
        <time>2012-08-01T10:02:11Z</time>
      </trkpt>
      <trkpt lat="46.55728" lon="12.20081">
        <ele>1787.71</ele>
        <time>2012-08-01T10:02:12Z</time>
      </trkpt>
      <trkpt lat="46.55732" lon="12.20098">
        <ele>1786.27</ele>
        <time>2012-08-01T10:02:13Z</time>
      </trkpt>
      <trkpt lat="46.55733" lon="12.20114">
        <ele>1784.82</ele>
        <time>2012-08-01T10:02:14Z</time>
      </trkpt>
      <trkpt lat="46.5573" lon="12.20129">
        <ele>1785.79</ele>
        <time>2012-08-01T10:02:15Z</time>
      </trkpt>
      <trkpt lat="46.55724" lon="12.20146">
        <ele>1786.27</ele>
        <time>2012-08-01T10:02:16Z</time>
      </trkpt>
      <trkpt lat="46.55716" lon="12.20162">
        <ele>1785.79</ele>
        <time>2012-08-01T10:02:17Z</time>
      </trkpt>
      <trkpt lat="46.55708" lon="12.20176">
        <ele>1785.31</ele>
        <time>2012-08-01T10:02:18Z</time>
      </trkpt>
      <trkpt lat="46.55664" lon="12.20292">
        <ele>1781.94</ele>
        <time>2012-08-01T10:02:25Z</time>
      </trkpt>
      <trkpt lat="46.55653" lon="12.20329">
        <ele>1778.58</ele>
        <time>2012-08-01T10:02:27Z</time>
      </trkpt>
      <trkpt lat="46.55637" lon="12.20384">
        <ele>1775.69</ele>
        <time>2012-08-01T10:02:30Z</time>
      </trkpt>
      <trkpt lat="46.55621" lon="12.20441">
        <ele>1772.33</ele>
        <time>2012-08-01T10:02:33Z</time>
      </trkpt>
      <trkpt lat="46.55617" lon="12.20462">
        <ele>1772.33</ele>
        <time>2012-08-01T10:02:34Z</time>
      </trkpt>
      <trkpt lat="46.5561" lon="12.20506">
        <ele>1768.96</ele>
        <time>2012-08-01T10:02:36Z</time>
      </trkpt>
      <trkpt lat="46.55607" lon="12.20567">
        <ele>1765.12</ele>
        <time>2012-08-01T10:02:39Z</time>
      </trkpt>
      <trkpt lat="46.55609" lon="12.20606">
        <ele>1762.71</ele>
        <time>2012-08-01T10:02:41Z</time>
      </trkpt>
      <trkpt lat="46.55612" lon="12.20625">
        <ele>1761.75</ele>
        <time>2012-08-01T10:02:42Z</time>
      </trkpt>
      <trkpt lat="46.55617" lon="12.20643">
        <ele>1761.27</ele>
        <time>2012-08-01T10:02:43Z</time>
      </trkpt>
      <trkpt lat="46.55632" lon="12.207">
        <ele>1758.39</ele>
        <time>2012-08-01T10:02:46Z</time>
      </trkpt>
      <trkpt lat="46.55641" lon="12.20737">
        <ele>1755.02</ele>
        <time>2012-08-01T10:02:48Z</time>
      </trkpt>
      <trkpt lat="46.55644" lon="12.20757">
        <ele>1753.58</ele>
        <time>2012-08-01T10:02:49Z</time>
      </trkpt>
      <trkpt lat="46.55647" lon="12.20777">
        <ele>1752.14</ele>
        <time>2012-08-01T10:02:50Z</time>
      </trkpt>
      <trkpt lat="46.55652" lon="12.20838">
        <ele>1748.29</ele>
        <time>2012-08-01T10:02:53Z</time>
      </trkpt>
      <trkpt lat="46.55654" lon="12.20881">
        <ele>1744.45</ele>
        <time>2012-08-01T10:02:55Z</time>
      </trkpt>
      <trkpt lat="46.55653" lon="12.20902">
        <ele>1743.01</ele>
        <time>2012-08-01T10:02:56Z</time>
      </trkpt>
      <trkpt lat="46.55652" lon="12.20924">
        <ele>1741.08</ele>
        <time>2012-08-01T10:02:57Z</time>
      </trkpt>
      <trkpt lat="46.55651" lon="12.20945">
        <ele>1739.64</ele>
        <time>2012-08-01T10:02:58Z</time>
      </trkpt>
      <trkpt lat="46.55652" lon="12.20966">
        <ele>1738.2</ele>
        <time>2012-08-01T10:02:59Z</time>
      </trkpt>
      <trkpt lat="46.55656" lon="12.20985">
        <ele>1736.76</ele>
        <time>2012-08-01T10:03:00Z</time>
      </trkpt>
      <trkpt lat="46.55658" lon="12.21005">
        <ele>1734.84</ele>
        <time>2012-08-01T10:03:01Z</time>
      </trkpt>
      <trkpt lat="46.55658" lon="12.21025">
        <ele>1733.39</ele>
        <time>2012-08-01T10:03:02Z</time>
      </trkpt>
      <trkpt lat="46.55656" lon="12.21046">
        <ele>1732.43</ele>
        <time>2012-08-01T10:03:03Z</time>
      </trkpt>
      <trkpt lat="46.55652" lon="12.21067">
        <ele>1731.47</ele>
        <time>2012-08-01T10:03:04Z</time>
      </trkpt>
      <trkpt lat="46.55647" lon="12.21088">
        <ele>1728.59</ele>
        <time>2012-08-01T10:03:05Z</time>
      </trkpt>
      <trkpt lat="46.55638" lon="12.21127">
        <ele>1725.22</ele>
        <time>2012-08-01T10:03:07Z</time>
      </trkpt>
      <trkpt lat="46.55636" lon="12.21147">
        <ele>1724.74</ele>
        <time>2012-08-01T10:03:08Z</time>
      </trkpt>
      <trkpt lat="46.5563" lon="12.21259">
        <ele>1723.3</ele>
        <time>2012-08-01T10:03:12Z</time>
      </trkpt>
      <trkpt lat="46.55627" lon="12.21317">
        <ele>1717.05</ele>
        <time>2012-08-01T10:03:14Z</time>
      </trkpt>
      <trkpt lat="46.55627" lon="12.21343">
        <ele>1713.21</ele>
        <time>2012-08-01T10:03:15Z</time>
      </trkpt>
      <trkpt lat="46.55625" lon="12.21385">
        <ele>1707.44</ele>
        <time>2012-08-01T10:03:17Z</time>
      </trkpt>
      <trkpt lat="46.55626" lon="12.21403">
        <ele>1706.96</ele>
        <time>2012-08-01T10:03:18Z</time>
      </trkpt>
      <trkpt lat="46.5563" lon="12.21418">
        <ele>1705.04</ele>
        <time>2012-08-01T10:03:19Z</time>
      </trkpt>
      <trkpt lat="46.55639" lon="12.2143">
        <ele>1705.04</ele>
        <time>2012-08-01T10:03:20Z</time>
      </trkpt>
      <trkpt lat="46.55652" lon="12.21437">
        <ele>1704.55</ele>
        <time>2012-08-01T10:03:21Z</time>
      </trkpt>
      <trkpt lat="46.55667" lon="12.2144">
        <ele>1704.55</ele>
        <time>2012-08-01T10:03:22Z</time>
      </trkpt>
      <trkpt lat="46.55681" lon="12.2144">
        <ele>1703.11</ele>
        <time>2012-08-01T10:03:23Z</time>
      </trkpt>
      <trkpt lat="46.55704" lon="12.21442">
        <ele>1700.23</ele>
        <time>2012-08-01T10:03:25Z</time>
      </trkpt>
      <trkpt lat="46.55714" lon="12.21447">
        <ele>1699.75</ele>
        <time>2012-08-01T10:03:26Z</time>
      </trkpt>
      <trkpt lat="46.55723" lon="12.21455">
        <ele>1698.79</ele>
        <time>2012-08-01T10:03:27Z</time>
      </trkpt>
      <trkpt lat="46.55729" lon="12.21467">
        <ele>1698.31</ele>
        <time>2012-08-01T10:03:28Z</time>
      </trkpt>
      <trkpt lat="46.55733" lon="12.21481">
        <ele>1697.34</ele>
        <time>2012-08-01T10:03:29Z</time>
      </trkpt>
      <trkpt lat="46.55736" lon="12.21496">
        <ele>1697.34</ele>
        <time>2012-08-01T10:03:30Z</time>
      </trkpt>
      <trkpt lat="46.55742" lon="12.21525">
        <ele>1695.9</ele>
        <time>2012-08-01T10:03:32Z</time>
      </trkpt>
      <trkpt lat="46.55747" lon="12.21539">
        <ele>1694.46</ele>
        <time>2012-08-01T10:03:33Z</time>
      </trkpt>
      <trkpt lat="46.55755" lon="12.21551">
        <ele>1694.46</ele>
        <time>2012-08-01T10:03:34Z</time>
      </trkpt>
      <trkpt lat="46.55765" lon="12.2156">
        <ele>1693.98</ele>
        <time>2012-08-01T10:03:35Z</time>
      </trkpt>
      <trkpt lat="46.55774" lon="12.21567">
        <ele>1693.02</ele>
        <time>2012-08-01T10:03:36Z</time>
      </trkpt>
      <trkpt lat="46.55783" lon="12.21572">
        <ele>1693.5</ele>
        <time>2012-08-01T10:03:37Z</time>
      </trkpt>
      <trkpt lat="46.55809" lon="12.21591">
        <ele>1695.9</ele>
        <time>2012-08-01T10:03:40Z</time>
      </trkpt>
      <trkpt lat="46.55817" lon="12.21599">
        <ele>1695.9</ele>
        <time>2012-08-01T10:03:41Z</time>
      </trkpt>
      <trkpt lat="46.55834" lon="12.21619">
        <ele>1697.34</ele>
        <time>2012-08-01T10:03:43Z</time>
      </trkpt>
      <trkpt lat="46.55841" lon="12.21632">
        <ele>1697.83</ele>
        <time>2012-08-01T10:03:44Z</time>
      </trkpt>
      <trkpt lat="46.55854" lon="12.21662">
        <ele>1698.79</ele>
        <time>2012-08-01T10:03:46Z</time>
      </trkpt>
      <trkpt lat="46.55859" lon="12.21679">
        <ele>1699.27</ele>
        <time>2012-08-01T10:03:47Z</time>
      </trkpt>
      <trkpt lat="46.55863" lon="12.21696">
        <ele>1698.79</ele>
        <time>2012-08-01T10:03:48Z</time>
      </trkpt>
      <trkpt lat="46.55865" lon="12.21714">
        <ele>1698.31</ele>
        <time>2012-08-01T10:03:49Z</time>
      </trkpt>
      <trkpt lat="46.55866" lon="12.21733">
        <ele>1697.34</ele>
        <time>2012-08-01T10:03:50Z</time>
      </trkpt>
      <trkpt lat="46.55865" lon="12.21752">
        <ele>1696.86</ele>
        <time>2012-08-01T10:03:51Z</time>
      </trkpt>
      <trkpt lat="46.55863" lon="12.21771">
        <ele>1695.9</ele>
        <time>2012-08-01T10:03:52Z</time>
      </trkpt>
      <trkpt lat="46.55859" lon="12.2179">
        <ele>1694.94</ele>
        <time>2012-08-01T10:03:53Z</time>
      </trkpt>
      <trkpt lat="46.55854" lon="12.21809">
        <ele>1694.94</ele>
        <time>2012-08-01T10:03:54Z</time>
      </trkpt>
      <trkpt lat="46.55848" lon="12.21826">
        <ele>1693.5</ele>
        <time>2012-08-01T10:03:55Z</time>
      </trkpt>
      <trkpt lat="46.5584" lon="12.21842">
        <ele>1692.06</ele>
        <time>2012-08-01T10:03:56Z</time>
      </trkpt>
      <trkpt lat="46.5583" lon="12.21857">
        <ele>1691.58</ele>
        <time>2012-08-01T10:03:57Z</time>
      </trkpt>
      <trkpt lat="46.5582" lon="12.21872">
        <ele>1690.62</ele>
        <time>2012-08-01T10:03:58Z</time>
      </trkpt>
      <trkpt lat="46.55809" lon="12.21885">
        <ele>1689.65</ele>
        <time>2012-08-01T10:03:59Z</time>
      </trkpt>
      <trkpt lat="46.55756" lon="12.2194">
        <ele>1690.14</ele>
        <time>2012-08-01T10:04:04Z</time>
      </trkpt>
      <trkpt lat="46.55748" lon="12.21955">
        <ele>1690.14</ele>
        <time>2012-08-01T10:04:05Z</time>
      </trkpt>
      <trkpt lat="46.55741" lon="12.2197">
        <ele>1690.14</ele>
        <time>2012-08-01T10:04:06Z</time>
      </trkpt>
      <trkpt lat="46.55731" lon="12.22">
        <ele>1690.62</ele>
        <time>2012-08-01T10:04:08Z</time>
      </trkpt>
      <trkpt lat="46.55728" lon="12.22018">
        <ele>1691.1</ele>
        <time>2012-08-01T10:04:09Z</time>
      </trkpt>
      <trkpt lat="46.55723" lon="12.22107">
        <ele>1694.94</ele>
        <time>2012-08-01T10:04:13Z</time>
      </trkpt>
      <trkpt lat="46.55719" lon="12.22133">
        <ele>1694.46</ele>
        <time>2012-08-01T10:04:14Z</time>
      </trkpt>
      <trkpt lat="46.55698" lon="12.22211">
        <ele>1696.86</ele>
        <time>2012-08-01T10:04:17Z</time>
      </trkpt>
      <trkpt lat="46.55689" lon="12.22232">
        <ele>1696.38</ele>
        <time>2012-08-01T10:04:18Z</time>
      </trkpt>
      <trkpt lat="46.5568" lon="12.22254">
        <ele>1696.86</ele>
        <time>2012-08-01T10:04:19Z</time>
      </trkpt>
      <trkpt lat="46.55673" lon="12.22279">
        <ele>1697.83</ele>
        <time>2012-08-01T10:04:20Z</time>
      </trkpt>
      <trkpt lat="46.55669" lon="12.22306">
        <ele>1698.79</ele>
        <time>2012-08-01T10:04:21Z</time>
      </trkpt>
      <trkpt lat="46.55667" lon="12.22332">
        <ele>1699.27</ele>
        <time>2012-08-01T10:04:22Z</time>
      </trkpt>
      <trkpt lat="46.55666" lon="12.22358">
        <ele>1698.31</ele>
        <time>2012-08-01T10:04:23Z</time>
      </trkpt>
      <trkpt lat="46.55661" lon="12.22474">
        <ele>1699.27</ele>
        <time>2012-08-01T10:04:29Z</time>
      </trkpt>
      <trkpt lat="46.55658" lon="12.22492">
        <ele>1699.27</ele>
        <time>2012-08-01T10:04:30Z</time>
      </trkpt>
      <trkpt lat="46.55651" lon="12.22529">
        <ele>1700.71</ele>
        <time>2012-08-01T10:04:32Z</time>
      </trkpt>
      <trkpt lat="46.55638" lon="12.22601">
        <ele>1704.55</ele>
        <time>2012-08-01T10:04:35Z</time>
      </trkpt>
      <trkpt lat="46.55614" lon="12.22714">
        <ele>1704.55</ele>
        <time>2012-08-01T10:04:39Z</time>
      </trkpt>
      <trkpt lat="46.55611" lon="12.22742">
        <ele>1703.59</ele>
        <time>2012-08-01T10:04:40Z</time>
      </trkpt>
      <trkpt lat="46.5561" lon="12.22799">
        <ele>1703.59</ele>
        <time>2012-08-01T10:04:42Z</time>
      </trkpt>
      <trkpt lat="46.55612" lon="12.22828">
        <ele>1703.59</ele>
        <time>2012-08-01T10:04:43Z</time>
      </trkpt>
      <trkpt lat="46.55617" lon="12.22859">
        <ele>1704.55</ele>
        <time>2012-08-01T10:04:44Z</time>
      </trkpt>
      <trkpt lat="46.55629" lon="12.22937">
        <ele>1702.63</ele>
        <time>2012-08-01T10:04:47Z</time>
      </trkpt>
      <trkpt lat="46.55645" lon="12.22997">
        <ele>1701.19</ele>
        <time>2012-08-01T10:04:49Z</time>
      </trkpt>
      <trkpt lat="46.55653" lon="12.23019">
        <ele>1700.71</ele>
        <time>2012-08-01T10:04:50Z</time>
      </trkpt>
      <trkpt lat="46.55663" lon="12.23039">
        <ele>1700.23</ele>
        <time>2012-08-01T10:04:51Z</time>
      </trkpt>
      <trkpt lat="46.55672" lon="12.23057">
        <ele>1699.27</ele>
        <time>2012-08-01T10:04:52Z</time>
      </trkpt>
      <trkpt lat="46.5568" lon="12.23075">
        <ele>1698.79</ele>
        <time>2012-08-01T10:04:53Z</time>
      </trkpt>
      <trkpt lat="46.55686" lon="12.23098">
        <ele>1699.75</ele>
        <time>2012-08-01T10:04:54Z</time>
      </trkpt>
      <trkpt lat="46.55688" lon="12.23124">
        <ele>1701.67</ele>
        <time>2012-08-01T10:04:55Z</time>
      </trkpt>
      <trkpt lat="46.55693" lon="12.2318">
        <ele>1700.71</ele>
        <time>2012-08-01T10:04:57Z</time>
      </trkpt>
      <trkpt lat="46.55701" lon="12.2323">
        <ele>1697.34</ele>
        <time>2012-08-01T10:04:59Z</time>
      </trkpt>
      <trkpt lat="46.55705" lon="12.23255">
        <ele>1696.38</ele>
        <time>2012-08-01T10:05:00Z</time>
      </trkpt>
      <trkpt lat="46.55712" lon="12.23279">
        <ele>1695.9</ele>
        <time>2012-08-01T10:05:01Z</time>
      </trkpt>
      <trkpt lat="46.55722" lon="12.23302">
        <ele>1696.86</ele>
        <time>2012-08-01T10:05:02Z</time>
      </trkpt>
      <trkpt lat="46.55755" lon="12.23365">
        <ele>1693.5</ele>
        <time>2012-08-01T10:05:05Z</time>
      </trkpt>
      <trkpt lat="46.5578" lon="12.23403">
        <ele>1692.06</ele>
        <time>2012-08-01T10:05:07Z</time>
      </trkpt>
      <trkpt lat="46.55798" lon="12.2342">
        <ele>1691.58</ele>
        <time>2012-08-01T10:05:08Z</time>
      </trkpt>
      <trkpt lat="46.55816" lon="12.23437">
        <ele>1690.62</ele>
        <time>2012-08-01T10:05:09Z</time>
      </trkpt>
      <trkpt lat="46.55834" lon="12.23458">
        <ele>1689.17</ele>
        <time>2012-08-01T10:05:10Z</time>
      </trkpt>
      <trkpt lat="46.55849" lon="12.23483">
        <ele>1688.69</ele>
        <time>2012-08-01T10:05:11Z</time>
      </trkpt>
      <trkpt lat="46.55864" lon="12.23506">
        <ele>1684.85</ele>
        <time>2012-08-01T10:05:12Z</time>
      </trkpt>
      <trkpt lat="46.55877" lon="12.23525">
        <ele>1681.48</ele>
        <time>2012-08-01T10:05:13Z</time>
      </trkpt>
      <trkpt lat="46.559" lon="12.23556">
        <ele>1677.16</ele>
        <time>2012-08-01T10:05:15Z</time>
      </trkpt>
      <trkpt lat="46.55915" lon="12.23568">
        <ele>1677.64</ele>
        <time>2012-08-01T10:05:16Z</time>
      </trkpt>
      <trkpt lat="46.55932" lon="12.23576">
        <ele>1677.16</ele>
        <time>2012-08-01T10:05:17Z</time>
      </trkpt>
      <trkpt lat="46.55963" lon="12.23586">
        <ele>1673.31</ele>
        <time>2012-08-01T10:05:19Z</time>
      </trkpt>
      <trkpt lat="46.55976" lon="12.23585">
        <ele>1672.35</ele>
        <time>2012-08-01T10:05:20Z</time>
      </trkpt>
      <trkpt lat="46.55991" lon="12.2358">
        <ele>1670.91</ele>
        <time>2012-08-01T10:05:21Z</time>
      </trkpt>
      <trkpt lat="46.56004" lon="12.23576">
        <ele>1669.47</ele>
        <time>2012-08-01T10:05:22Z</time>
      </trkpt>
      <trkpt lat="46.56019" lon="12.23578">
        <ele>1668.99</ele>
        <time>2012-08-01T10:05:23Z</time>
      </trkpt>
      <trkpt lat="46.56035" lon="12.23584">
        <ele>1668.51</ele>
        <time>2012-08-01T10:05:24Z</time>
      </trkpt>
      <trkpt lat="46.56049" lon="12.23595">
        <ele>1667.54</ele>
        <time>2012-08-01T10:05:25Z</time>
      </trkpt>
      <trkpt lat="46.56062" lon="12.2361">
        <ele>1666.58</ele>
        <time>2012-08-01T10:05:26Z</time>
      </trkpt>
      <trkpt lat="46.56073" lon="12.2363">
        <ele>1665.14</ele>
        <time>2012-08-01T10:05:27Z</time>
      </trkpt>
      <trkpt lat="46.56083" lon="12.23653">
        <ele>1663.7</ele>
        <time>2012-08-01T10:05:28Z</time>
      </trkpt>
      <trkpt lat="46.56089" lon="12.23678">
        <ele>1662.26</ele>
        <time>2012-08-01T10:05:29Z</time>
      </trkpt>
      <trkpt lat="46.56091" lon="12.23701">
        <ele>1660.81</ele>
        <time>2012-08-01T10:05:30Z</time>
      </trkpt>
      <trkpt lat="46.56093" lon="12.2372">
        <ele>1660.33</ele>
        <time>2012-08-01T10:05:31Z</time>
      </trkpt>
      <trkpt lat="46.56097" lon="12.23737">
        <ele>1659.85</ele>
        <time>2012-08-01T10:05:32Z</time>
      </trkpt>
      <trkpt lat="46.56106" lon="12.23752">
        <ele>1659.85</ele>
        <time>2012-08-01T10:05:33Z</time>
      </trkpt>
      <trkpt lat="46.56117" lon="12.23767">
        <ele>1660.33</ele>
        <time>2012-08-01T10:05:34Z</time>
      </trkpt>
      <trkpt lat="46.5613" lon="12.2378">
        <ele>1659.85</ele>
        <time>2012-08-01T10:05:35Z</time>
      </trkpt>
      <trkpt lat="46.56146" lon="12.23789">
        <ele>1657.93</ele>
        <time>2012-08-01T10:05:36Z</time>
      </trkpt>
      <trkpt lat="46.56157" lon="12.23795">
        <ele>1656.97</ele>
        <time>2012-08-01T10:05:37Z</time>
      </trkpt>
      <trkpt lat="46.56173" lon="12.23804">
        <ele>1656.01</ele>
        <time>2012-08-01T10:05:38Z</time>
      </trkpt>
      <trkpt lat="46.56184" lon="12.2382">
        <ele>1655.53</ele>
        <time>2012-08-01T10:05:39Z</time>
      </trkpt>
      <trkpt lat="46.56191" lon="12.23834">
        <ele>1654.57</ele>
        <time>2012-08-01T10:05:40Z</time>
      </trkpt>
      <trkpt lat="46.56242" lon="12.23928">
        <ele>1650.24</ele>
        <time>2012-08-01T10:05:44Z</time>
      </trkpt>
      <trkpt lat="46.56263" lon="12.23961">
        <ele>1647.36</ele>
        <time>2012-08-01T10:05:46Z</time>
      </trkpt>
      <trkpt lat="46.56277" lon="12.23974">
        <ele>1646.88</ele>
        <time>2012-08-01T10:05:47Z</time>
      </trkpt>
      <trkpt lat="46.56293" lon="12.23983">
        <ele>1645.43</ele>
        <time>2012-08-01T10:05:48Z</time>
      </trkpt>
      <trkpt lat="46.56307" lon="12.23992">
        <ele>1643.51</ele>
        <time>2012-08-01T10:05:49Z</time>
      </trkpt>
      <trkpt lat="46.56317" lon="12.24004">
        <ele>1641.59</ele>
        <time>2012-08-01T10:05:50Z</time>
      </trkpt>
      <trkpt lat="46.56323" lon="12.24022">
        <ele>1640.63</ele>
        <time>2012-08-01T10:05:51Z</time>
      </trkpt>
      <trkpt lat="46.56326" lon="12.24044">
        <ele>1640.63</ele>
        <time>2012-08-01T10:05:52Z</time>
      </trkpt>
      <trkpt lat="46.5633" lon="12.24067">
        <ele>1640.15</ele>
        <time>2012-08-01T10:05:53Z</time>
      </trkpt>
      <trkpt lat="46.56336" lon="12.24088">
        <ele>1639.19</ele>
        <time>2012-08-01T10:05:54Z</time>
      </trkpt>
      <trkpt lat="46.56344" lon="12.24107">
        <ele>1639.19</ele>
        <time>2012-08-01T10:05:55Z</time>
      </trkpt>
      <trkpt lat="46.56355" lon="12.24126">
        <ele>1638.7</ele>
        <time>2012-08-01T10:05:56Z</time>
      </trkpt>
      <trkpt lat="46.56366" lon="12.24142">
        <ele>1637.74</ele>
        <time>2012-08-01T10:05:57Z</time>
      </trkpt>
      <trkpt lat="46.5638" lon="12.24154">
        <ele>1637.26</ele>
        <time>2012-08-01T10:05:58Z</time>
      </trkpt>
      <trkpt lat="46.56396" lon="12.24163">
        <ele>1638.7</ele>
        <time>2012-08-01T10:05:59Z</time>
      </trkpt>
      <trkpt lat="46.56415" lon="12.24168">
        <ele>1640.15</ele>
        <time>2012-08-01T10:06:00Z</time>
      </trkpt>
      <trkpt lat="46.56432" lon="12.24174">
        <ele>1639.67</ele>
        <time>2012-08-01T10:06:01Z</time>
      </trkpt>
      <trkpt lat="46.56446" lon="12.24183">
        <ele>1638.22</ele>
        <time>2012-08-01T10:06:02Z</time>
      </trkpt>
      <trkpt lat="46.56457" lon="12.24195">
        <ele>1637.74</ele>
        <time>2012-08-01T10:06:03Z</time>
      </trkpt>
      <trkpt lat="46.56465" lon="12.24211">
        <ele>1637.74</ele>
        <time>2012-08-01T10:06:04Z</time>
      </trkpt>
      <trkpt lat="46.56468" lon="12.2423">
        <ele>1638.22</ele>
        <time>2012-08-01T10:06:05Z</time>
      </trkpt>
      <trkpt lat="46.56471" lon="12.24249">
        <ele>1637.74</ele>
        <time>2012-08-01T10:06:06Z</time>
      </trkpt>
      <trkpt lat="46.56475" lon="12.24267">
        <ele>1637.74</ele>
        <time>2012-08-01T10:06:07Z</time>
      </trkpt>
      <trkpt lat="46.56486" lon="12.24316">
        <ele>1635.82</ele>
        <time>2012-08-01T10:06:10Z</time>
      </trkpt>
      <trkpt lat="46.56492" lon="12.2433">
        <ele>1635.82</ele>
        <time>2012-08-01T10:06:11Z</time>
      </trkpt>
      <trkpt lat="46.56496" lon="12.24345">
        <ele>1635.82</ele>
        <time>2012-08-01T10:06:12Z</time>
      </trkpt>
      <trkpt lat="46.56508" lon="12.24403">
        <ele>1634.38</ele>
        <time>2012-08-01T10:06:16Z</time>
      </trkpt>
      <trkpt lat="46.56516" lon="12.2442">
        <ele>1632.46</ele>
        <time>2012-08-01T10:06:21Z</time>
      </trkpt>
      <trkpt lat="46.56519" lon="12.2442">
        <ele>1632.94</ele>
        <time>2012-08-01T10:06:27Z</time>
      </trkpt>
      <trkpt lat="46.56527" lon="12.24434">
        <ele>1633.42</ele>
        <time>2012-08-01T10:06:31Z</time>
      </trkpt>
      <trkpt lat="46.56532" lon="12.24437">
        <ele>1633.9</ele>
        <time>2012-08-01T10:06:32Z</time>
      </trkpt>
      <trkpt lat="46.56541" lon="12.24438">
        <ele>1634.86</ele>
        <time>2012-08-01T10:06:33Z</time>
      </trkpt>
      <trkpt lat="46.56574" lon="12.24438">
        <ele>1638.7</ele>
        <time>2012-08-01T10:06:36Z</time>
      </trkpt>
      <trkpt lat="46.56593" lon="12.24438">
        <ele>1640.15</ele>
        <time>2012-08-01T10:06:38Z</time>
      </trkpt>
      <trkpt lat="46.56602" lon="12.24442">
        <ele>1641.11</ele>
        <time>2012-08-01T10:06:39Z</time>
      </trkpt>
      <trkpt lat="46.56608" lon="12.24449">
        <ele>1641.59</ele>
        <time>2012-08-01T10:06:40Z</time>
      </trkpt>
      <trkpt lat="46.56614" lon="12.24458">
        <ele>1642.07</ele>
        <time>2012-08-01T10:06:41Z</time>
      </trkpt>
      <trkpt lat="46.56618" lon="12.24469">
        <ele>1642.07</ele>
        <time>2012-08-01T10:06:42Z</time>
      </trkpt>
      <trkpt lat="46.56619" lon="12.2448">
        <ele>1643.03</ele>
        <time>2012-08-01T10:06:43Z</time>
      </trkpt>
      <trkpt lat="46.56617" lon="12.24491">
        <ele>1643.03</ele>
        <time>2012-08-01T10:06:44Z</time>
      </trkpt>
      <trkpt lat="46.56614" lon="12.24502">
        <ele>1644.47</ele>
        <time>2012-08-01T10:06:45Z</time>
      </trkpt>
      <trkpt lat="46.56606" lon="12.24526">
        <ele>1643.99</ele>
        <time>2012-08-01T10:06:47Z</time>
      </trkpt>
      <trkpt lat="46.56605" lon="12.24537">
        <ele>1644.47</ele>
        <time>2012-08-01T10:06:48Z</time>
      </trkpt>
      <trkpt lat="46.56606" lon="12.24546">
        <ele>1644.95</ele>
        <time>2012-08-01T10:06:49Z</time>
      </trkpt>
      <trkpt lat="46.5661" lon="12.2455">
        <ele>1645.43</ele>
        <time>2012-08-01T10:06:50Z</time>
      </trkpt>
      <trkpt lat="46.56618" lon="12.24549">
        <ele>1646.88</ele>
        <time>2012-08-01T10:06:51Z</time>
      </trkpt>
      <trkpt lat="46.56627" lon="12.24545">
        <ele>1647.84</ele>
        <time>2012-08-01T10:06:52Z</time>
      </trkpt>
      <trkpt lat="46.56638" lon="12.24544">
        <ele>1650.24</ele>
        <time>2012-08-01T10:06:53Z</time>
      </trkpt>
      <trkpt lat="46.5665" lon="12.24547">
        <ele>1652.16</ele>
        <time>2012-08-01T10:06:54Z</time>
      </trkpt>
      <trkpt lat="46.56665" lon="12.24549">
        <ele>1654.57</ele>
        <time>2012-08-01T10:06:55Z</time>
      </trkpt>
      <trkpt lat="46.56695" lon="12.24551">
        <ele>1657.93</ele>
        <time>2012-08-01T10:06:57Z</time>
      </trkpt>
      <trkpt lat="46.56727" lon="12.24554">
        <ele>1660.81</ele>
        <time>2012-08-01T10:06:59Z</time>
      </trkpt>
      <trkpt lat="46.56754" lon="12.24555">
        <ele>1664.18</ele>
        <time>2012-08-01T10:07:00Z</time>
      </trkpt>
      <trkpt lat="46.56771" lon="12.24561">
        <ele>1665.62</ele>
        <time>2012-08-01T10:07:01Z</time>
      </trkpt>
      <trkpt lat="46.56785" lon="12.24568">
        <ele>1668.02</ele>
        <time>2012-08-01T10:07:02Z</time>
      </trkpt>
      <trkpt lat="46.56801" lon="12.24573">
        <ele>1669.47</ele>
        <time>2012-08-01T10:07:03Z</time>
      </trkpt>
      <trkpt lat="46.56833" lon="12.24581">
        <ele>1673.79</ele>
        <time>2012-08-01T10:07:05Z</time>
      </trkpt>
      <trkpt lat="46.56853" lon="12.2458">
        <ele>1676.2</ele>
        <time>2012-08-01T10:07:06Z</time>
      </trkpt>
      <trkpt lat="46.56917" lon="12.2457">
        <ele>1680.04</ele>
        <time>2012-08-01T10:07:09Z</time>
      </trkpt>
      <trkpt lat="46.56971" lon="12.24563">
        <ele>1684.37</ele>
        <time>2012-08-01T10:07:12Z</time>
      </trkpt>
      <trkpt lat="46.56989" lon="12.24564">
        <ele>1684.85</ele>
        <time>2012-08-01T10:07:13Z</time>
      </trkpt>
      <trkpt lat="46.57006" lon="12.24568">
        <ele>1686.29</ele>
        <time>2012-08-01T10:07:14Z</time>
      </trkpt>
      <trkpt lat="46.57024" lon="12.24574">
        <ele>1688.21</ele>
        <time>2012-08-01T10:07:15Z</time>
      </trkpt>
      <trkpt lat="46.5704" lon="12.24584">
        <ele>1689.17</ele>
        <time>2012-08-01T10:07:16Z</time>
      </trkpt>
      <trkpt lat="46.57057" lon="12.24595">
        <ele>1690.62</ele>
        <time>2012-08-01T10:07:17Z</time>
      </trkpt>
      <trkpt lat="46.57073" lon="12.24608">
        <ele>1693.02</ele>
        <time>2012-08-01T10:07:18Z</time>
      </trkpt>
      <trkpt lat="46.57121" lon="12.24647">
        <ele>1696.38</ele>
        <time>2012-08-01T10:07:21Z</time>
      </trkpt>
      <trkpt lat="46.57164" lon="12.24682">
        <ele>1700.23</ele>
        <time>2012-08-01T10:07:24Z</time>
      </trkpt>
      <trkpt lat="46.57203" lon="12.24712">
        <ele>1700.71</ele>
        <time>2012-08-01T10:07:28Z</time>
      </trkpt>
      <trkpt lat="46.5721" lon="12.24719">
        <ele>1701.19</ele>
        <time>2012-08-01T10:07:30Z</time>
      </trkpt>
      <trkpt lat="46.57212" lon="12.24722">
        <ele>1701.19</ele>
        <time>2012-08-01T10:07:31Z</time>
      </trkpt>
      <trkpt lat="46.57214" lon="12.24724">
        <ele>1701.19</ele>
        <time>2012-08-01T10:07:32Z</time>
      </trkpt>
      <trkpt lat="46.57216" lon="12.24725">
        <ele>1701.19</ele>
        <time>2012-08-01T10:07:33Z</time>
      </trkpt>
      <trkpt lat="46.57214" lon="12.24724">
        <ele>1702.15</ele>
        <time>2012-08-01T10:07:46Z</time>
      </trkpt>
      <trkpt lat="46.57215" lon="12.24724">
        <ele>1701.67</ele>
        <time>2012-08-01T10:08:16Z</time>
      </trkpt>
      <trkpt lat="46.57222" lon="12.24727">
        <ele>1702.63</ele>
        <time>2012-08-01T10:08:25Z</time>
      </trkpt>
      <trkpt lat="46.57228" lon="12.24731">
        <ele>1703.11</ele>
        <time>2012-08-01T10:08:26Z</time>
      </trkpt>
      <trkpt lat="46.57261" lon="12.24758">
        <ele>1706</ele>
        <time>2012-08-01T10:08:30Z</time>
      </trkpt>
      <trkpt lat="46.57295" lon="12.24784">
        <ele>1709.84</ele>
        <time>2012-08-01T10:08:33Z</time>
      </trkpt>
      <trkpt lat="46.57353" lon="12.24831">
        <ele>1713.69</ele>
        <time>2012-08-01T10:08:38Z</time>
      </trkpt>
      <trkpt lat="46.57414" lon="12.2488">
        <ele>1716.57</ele>
        <time>2012-08-01T10:08:43Z</time>
      </trkpt>
      <trkpt lat="46.57452" lon="12.24909">
        <ele>1719.94</ele>
        <time>2012-08-01T10:08:46Z</time>
      </trkpt>
      <trkpt lat="46.5752" lon="12.24962">
        <ele>1723.3</ele>
        <time>2012-08-01T10:08:51Z</time>
      </trkpt>
      <trkpt lat="46.57576" lon="12.25004">
        <ele>1726.67</ele>
        <time>2012-08-01T10:08:55Z</time>
      </trkpt>
      <trkpt lat="46.57635" lon="12.25036">
        <ele>1729.55</ele>
        <time>2012-08-01T10:08:59Z</time>
      </trkpt>
      <trkpt lat="46.57708" lon="12.25083">
        <ele>1733.88</ele>
        <time>2012-08-01T10:09:04Z</time>
      </trkpt>
      <trkpt lat="46.57782" lon="12.25135">
        <ele>1737.24</ele>
        <time>2012-08-01T10:09:09Z</time>
      </trkpt>
      <trkpt lat="46.57857" lon="12.25186">
        <ele>1735.8</ele>
        <time>2012-08-01T10:09:16Z</time>
      </trkpt>
      <trkpt lat="46.5799" lon="12.25192">
        <ele>1730.03</ele>
        <time>2012-08-01T10:42:01Z</time>
      </trkpt>
      <trkpt lat="46.5799" lon="12.25192">
        <ele>1730.03</ele>
        <time>2012-08-01T10:42:02Z</time>
      </trkpt>
      <trkpt lat="46.5799" lon="12.25191">
        <ele>1730.03</ele>
        <time>2012-08-01T10:42:05Z</time>
      </trkpt>
      <trkpt lat="46.58202" lon="12.25194">
        <ele>1729.55</ele>
        <time>2012-08-01T10:42:46Z</time>
      </trkpt>
      <trkpt lat="46.58211" lon="12.25203">
        <ele>1729.55</ele>
        <time>2012-08-01T10:42:47Z</time>
      </trkpt>
      <trkpt lat="46.58219" lon="12.25212">
        <ele>1729.55</ele>
        <time>2012-08-01T10:42:48Z</time>
      </trkpt>
      <trkpt lat="46.58751" lon="12.25498">
        <ele>1743.01</ele>
        <time>2012-08-01T10:43:44Z</time>
      </trkpt>
      <trkpt lat="46.58771" lon="12.25515">
        <ele>1743.01</ele>
        <time>2012-08-01T10:43:48Z</time>
      </trkpt>
      <trkpt lat="46.59008" lon="12.26158">
        <ele>1785.79</ele>
        <time>2012-08-01T10:44:48Z</time>
      </trkpt>
      <trkpt lat="46.59032" lon="12.26136">
        <ele>1788.19</ele>
        <time>2012-08-01T10:44:53Z</time>
      </trkpt>
      <trkpt lat="46.59037" lon="12.26139">
        <ele>1789.15</ele>
        <time>2012-08-01T10:44:54Z</time>
      </trkpt>
      <trkpt lat="46.59039" lon="12.26145">
        <ele>1790.11</ele>
        <time>2012-08-01T10:44:55Z</time>
      </trkpt>
      <trkpt lat="46.59981" lon="12.2698">
        <ele>1822.8</ele>
        <time>2012-08-01T10:48:45Z</time>
      </trkpt>
      <trkpt lat="46.59983" lon="12.26983">
        <ele>1822.8</ele>
        <time>2012-08-01T10:48:46Z</time>
      </trkpt>
      <trkpt lat="46.59998" lon="12.27004">
        <ele>1826.16</ele>
        <time>2012-08-01T10:49:01Z</time>
      </trkpt>
      <trkpt lat="46.59997" lon="12.27003">
        <ele>1829.53</ele>
        <time>2012-08-01T10:49:04Z</time>
      </trkpt>
      <trkpt lat="46.59997" lon="12.27003">
        <ele>1832.89</ele>
        <time>2012-08-01T10:49:07Z</time>
      </trkpt>
      <trkpt lat="46.59997" lon="12.27003">
        <ele>1834.33</ele>
        <time>2012-08-01T10:49:09Z</time>
      </trkpt>
      <trkpt lat="46.60005" lon="12.2701">
        <ele>1837.7</ele>
        <time>2012-08-01T10:49:13Z</time>
      </trkpt>
      <trkpt lat="46.60007" lon="12.27009">
        <ele>1839.62</ele>
        <time>2012-08-01T10:49:16Z</time>
      </trkpt>
      <trkpt lat="46.60006" lon="12.2701">
        <ele>1842.98</ele>
        <time>2012-08-01T10:49:20Z</time>
      </trkpt>
      <trkpt lat="46.60008" lon="12.27011">
        <ele>1846.35</ele>
        <time>2012-08-01T10:49:25Z</time>
      </trkpt>
      <trkpt lat="46.60016" lon="12.27008">
        <ele>1849.23</ele>
        <time>2012-08-01T10:49:30Z</time>
      </trkpt>
      <trkpt lat="46.60021" lon="12.27008">
        <ele>1850.19</ele>
        <time>2012-08-01T10:49:31Z</time>
      </trkpt>
      <trkpt lat="46.60027" lon="12.27009">
        <ele>1850.19</ele>
        <time>2012-08-01T10:49:32Z</time>
      </trkpt>
      <trkpt lat="46.60033" lon="12.27011">
        <ele>1850.68</ele>
        <time>2012-08-01T10:49:33Z</time>
      </trkpt>
      <trkpt lat="46.60039" lon="12.27013">
        <ele>1851.16</ele>
        <time>2012-08-01T10:49:34Z</time>
      </trkpt>
      <trkpt lat="46.60061" lon="12.27022">
        <ele>1851.64</ele>
        <time>2012-08-01T10:49:37Z</time>
      </trkpt>
      <trkpt lat="46.60067" lon="12.27029">
        <ele>1851.64</ele>
        <time>2012-08-01T10:49:38Z</time>
      </trkpt>
      <trkpt lat="46.60072" lon="12.27038">
        <ele>1851.16</ele>
        <time>2012-08-01T10:49:39Z</time>
      </trkpt>
      <trkpt lat="46.60077" lon="12.2705">
        <ele>1851.16</ele>
        <time>2012-08-01T10:49:40Z</time>
      </trkpt>
      <trkpt lat="46.6008" lon="12.27064">
        <ele>1851.16</ele>
        <time>2012-08-01T10:49:41Z</time>
      </trkpt>
      <trkpt lat="46.60081" lon="12.27078">
        <ele>1850.19</ele>
        <time>2012-08-01T10:49:42Z</time>
      </trkpt>
      <trkpt lat="46.60082" lon="12.27093">
        <ele>1850.19</ele>
        <time>2012-08-01T10:49:43Z</time>
      </trkpt>
      <trkpt lat="46.60082" lon="12.27109">
        <ele>1849.71</ele>
        <time>2012-08-01T10:49:44Z</time>
      </trkpt>
      <trkpt lat="46.60081" lon="12.27125">
        <ele>1849.23</ele>
        <time>2012-08-01T10:49:45Z</time>
      </trkpt>
      <trkpt lat="46.60081" lon="12.27159">
        <ele>1848.75</ele>
        <time>2012-08-01T10:49:47Z</time>
      </trkpt>
      <trkpt lat="46.60082" lon="12.27176">
        <ele>1848.27</ele>
        <time>2012-08-01T10:49:48Z</time>
      </trkpt>
      <trkpt lat="46.60085" lon="12.27193">
        <ele>1847.79</ele>
        <time>2012-08-01T10:49:49Z</time>
      </trkpt>
      <trkpt lat="46.60101" lon="12.27275">
        <ele>1848.27</ele>
        <time>2012-08-01T10:49:54Z</time>
      </trkpt>
      <trkpt lat="46.60123" lon="12.27381">
        <ele>1847.31</ele>
        <time>2012-08-01T10:50:01Z</time>
      </trkpt>
      <trkpt lat="46.60128" lon="12.27392">
        <ele>1847.31</ele>
        <time>2012-08-01T10:50:02Z</time>
      </trkpt>
      <trkpt lat="46.60135" lon="12.27402">
        <ele>1847.31</ele>
        <time>2012-08-01T10:50:03Z</time>
      </trkpt>
      <trkpt lat="46.60143" lon="12.2741">
        <ele>1847.31</ele>
        <time>2012-08-01T10:50:04Z</time>
      </trkpt>
      <trkpt lat="46.60153" lon="12.27417">
        <ele>1848.27</ele>
        <time>2012-08-01T10:50:05Z</time>
      </trkpt>
      <trkpt lat="46.60163" lon="12.27424">
        <ele>1848.27</ele>
        <time>2012-08-01T10:50:06Z</time>
      </trkpt>
      <trkpt lat="46.60287" lon="12.27503">
        <ele>1850.68</ele>
        <time>2012-08-01T10:50:17Z</time>
      </trkpt>
      <trkpt lat="46.60332" lon="12.2753">
        <ele>1851.16</ele>
        <time>2012-08-01T10:50:21Z</time>
      </trkpt>
      <trkpt lat="46.60342" lon="12.2753">
        <ele>1851.16</ele>
        <time>2012-08-01T10:50:22Z</time>
      </trkpt>
      <trkpt lat="46.60351" lon="12.27525">
        <ele>1851.64</ele>
        <time>2012-08-01T10:50:23Z</time>
      </trkpt>
      <trkpt lat="46.60359" lon="12.27516">
        <ele>1852.12</ele>
        <time>2012-08-01T10:50:24Z</time>
      </trkpt>
      <trkpt lat="46.60367" lon="12.27505">
        <ele>1852.6</ele>
        <time>2012-08-01T10:50:25Z</time>
      </trkpt>
      <trkpt lat="46.60376" lon="12.27498">
        <ele>1852.6</ele>
        <time>2012-08-01T10:50:26Z</time>
      </trkpt>
      <trkpt lat="46.60385" lon="12.27496">
        <ele>1852.6</ele>
        <time>2012-08-01T10:50:27Z</time>
      </trkpt>
      <trkpt lat="46.60393" lon="12.275">
        <ele>1853.56</ele>
        <time>2012-08-01T10:50:28Z</time>
      </trkpt>
      <trkpt lat="46.60401" lon="12.27509">
        <ele>1854.52</ele>
        <time>2012-08-01T10:50:29Z</time>
      </trkpt>
      <trkpt lat="46.60409" lon="12.27519">
        <ele>1855</ele>
        <time>2012-08-01T10:50:30Z</time>
      </trkpt>
      <trkpt lat="46.60418" lon="12.27527">
        <ele>1855.48</ele>
        <time>2012-08-01T10:50:31Z</time>
      </trkpt>
      <trkpt lat="46.60429" lon="12.27533">
        <ele>1856.44</ele>
        <time>2012-08-01T10:50:32Z</time>
      </trkpt>
      <trkpt lat="46.6044" lon="12.27534">
        <ele>1856.92</ele>
        <time>2012-08-01T10:50:33Z</time>
      </trkpt>
      <trkpt lat="46.60452" lon="12.27533">
        <ele>1857.4</ele>
        <time>2012-08-01T10:50:34Z</time>
      </trkpt>
      <trkpt lat="46.60464" lon="12.27532">
        <ele>1858.37</ele>
        <time>2012-08-01T10:50:35Z</time>
      </trkpt>
      <trkpt lat="46.60476" lon="12.27531">
        <ele>1858.85</ele>
        <time>2012-08-01T10:50:36Z</time>
      </trkpt>
      <trkpt lat="46.60488" lon="12.27533">
        <ele>1859.33</ele>
        <time>2012-08-01T10:50:37Z</time>
      </trkpt>
      <trkpt lat="46.605" lon="12.27537">
        <ele>1859.33</ele>
        <time>2012-08-01T10:50:38Z</time>
      </trkpt>
      <trkpt lat="46.6052" lon="12.27541">
        <ele>1858.85</ele>
        <time>2012-08-01T10:50:40Z</time>
      </trkpt>
      <trkpt lat="46.60539" lon="12.27534">
        <ele>1860.29</ele>
        <time>2012-08-01T10:50:42Z</time>
      </trkpt>
      <trkpt lat="46.6055" lon="12.27528">
        <ele>1859.81</ele>
        <time>2012-08-01T10:50:43Z</time>
      </trkpt>
      <trkpt lat="46.60559" lon="12.2752">
        <ele>1860.29</ele>
        <time>2012-08-01T10:50:44Z</time>
      </trkpt>
      <trkpt lat="46.60567" lon="12.2751">
        <ele>1860.29</ele>
        <time>2012-08-01T10:50:45Z</time>
      </trkpt>
      <trkpt lat="46.60574" lon="12.27498">
        <ele>1859.81</ele>
        <time>2012-08-01T10:50:46Z</time>
      </trkpt>
      <trkpt lat="46.6058" lon="12.27485">
        <ele>1859.81</ele>
        <time>2012-08-01T10:50:47Z</time>
      </trkpt>
      <trkpt lat="46.60584" lon="12.27471">
        <ele>1860.29</ele>
        <time>2012-08-01T10:50:48Z</time>
      </trkpt>
      <trkpt lat="46.60584" lon="12.27456">
        <ele>1861.25</ele>
        <time>2012-08-01T10:50:49Z</time>
      </trkpt>
      <trkpt lat="46.60582" lon="12.27441">
        <ele>1860.77</ele>
        <time>2012-08-01T10:50:50Z</time>
      </trkpt>
      <trkpt lat="46.6058" lon="12.27426">
        <ele>1861.73</ele>
        <time>2012-08-01T10:50:51Z</time>
      </trkpt>
      <trkpt lat="46.60576" lon="12.27412">
        <ele>1862.21</ele>
        <time>2012-08-01T10:50:52Z</time>
      </trkpt>
      <trkpt lat="46.60573" lon="12.274">
        <ele>1862.21</ele>
        <time>2012-08-01T10:50:53Z</time>
      </trkpt>
      <trkpt lat="46.60571" lon="12.27389">
        <ele>1861.73</ele>
        <time>2012-08-01T10:50:54Z</time>
      </trkpt>
      <trkpt lat="46.60572" lon="12.2738">
        <ele>1862.21</ele>
        <time>2012-08-01T10:50:55Z</time>
      </trkpt>
      <trkpt lat="46.60576" lon="12.27373">
        <ele>1862.21</ele>
        <time>2012-08-01T10:50:56Z</time>
      </trkpt>
      <trkpt lat="46.60582" lon="12.2737">
        <ele>1863.17</ele>
        <time>2012-08-01T10:50:57Z</time>
      </trkpt>
      <trkpt lat="46.60589" lon="12.2737">
        <ele>1864.13</ele>
        <time>2012-08-01T10:50:58Z</time>
      </trkpt>
      <trkpt lat="46.60599" lon="12.2737">
        <ele>1865.58</ele>
        <time>2012-08-01T10:50:59Z</time>
      </trkpt>
      <trkpt lat="46.60608" lon="12.2737">
        <ele>1867.02</ele>
        <time>2012-08-01T10:51:00Z</time>
      </trkpt>
      <trkpt lat="46.60618" lon="12.27366">
        <ele>1867.5</ele>
        <time>2012-08-01T10:51:01Z</time>
      </trkpt>
      <trkpt lat="46.60626" lon="12.27358">
        <ele>1868.94</ele>
        <time>2012-08-01T10:51:02Z</time>
      </trkpt>
      <trkpt lat="46.60644" lon="12.27342">
        <ele>1869.9</ele>
        <time>2012-08-01T10:51:04Z</time>
      </trkpt>
      <trkpt lat="46.60654" lon="12.27335">
        <ele>1872.3</ele>
        <time>2012-08-01T10:51:05Z</time>
      </trkpt>
      <trkpt lat="46.60664" lon="12.2733">
        <ele>1874.23</ele>
        <time>2012-08-01T10:51:06Z</time>
      </trkpt>
      <trkpt lat="46.60673" lon="12.27326">
        <ele>1874.71</ele>
        <time>2012-08-01T10:51:07Z</time>
      </trkpt>
      <trkpt lat="46.60682" lon="12.27324">
        <ele>1875.19</ele>
        <time>2012-08-01T10:51:08Z</time>
      </trkpt>
      <trkpt lat="46.6069" lon="12.27325">
        <ele>1876.15</ele>
        <time>2012-08-01T10:51:09Z</time>
      </trkpt>
      <trkpt lat="46.60696" lon="12.2733">
        <ele>1876.63</ele>
        <time>2012-08-01T10:51:10Z</time>
      </trkpt>
      <trkpt lat="46.60701" lon="12.2734">
        <ele>1877.59</ele>
        <time>2012-08-01T10:51:11Z</time>
      </trkpt>
      <trkpt lat="46.60702" lon="12.27352">
        <ele>1879.51</ele>
        <time>2012-08-01T10:51:12Z</time>
      </trkpt>
      <trkpt lat="46.607" lon="12.27363">
        <ele>1880.48</ele>
        <time>2012-08-01T10:51:13Z</time>
      </trkpt>
      <trkpt lat="46.60697" lon="12.27373">
        <ele>1880.96</ele>
        <time>2012-08-01T10:51:14Z</time>
      </trkpt>
      <trkpt lat="46.60692" lon="12.27383">
        <ele>1881.92</ele>
        <time>2012-08-01T10:51:15Z</time>
      </trkpt>
      <trkpt lat="46.60678" lon="12.27416">
        <ele>1885.76</ele>
        <time>2012-08-01T10:51:18Z</time>
      </trkpt>
      <trkpt lat="46.60672" lon="12.27427">
        <ele>1887.21</ele>
        <time>2012-08-01T10:51:19Z</time>
      </trkpt>
      <trkpt lat="46.60662" lon="12.27443">
        <ele>1889.13</ele>
        <time>2012-08-01T10:51:21Z</time>
      </trkpt>
      <trkpt lat="46.60659" lon="12.27452">
        <ele>1889.61</ele>
        <time>2012-08-01T10:51:22Z</time>
      </trkpt>
      <trkpt lat="46.60658" lon="12.2746">
        <ele>1890.57</ele>
        <time>2012-08-01T10:51:23Z</time>
      </trkpt>
      <trkpt lat="46.60661" lon="12.27467">
        <ele>1891.05</ele>
        <time>2012-08-01T10:51:24Z</time>
      </trkpt>
      <trkpt lat="46.60667" lon="12.27471">
        <ele>1892.01</ele>
        <time>2012-08-01T10:51:25Z</time>
      </trkpt>
      <trkpt lat="46.60674" lon="12.27472">
        <ele>1892.49</ele>
        <time>2012-08-01T10:51:26Z</time>
      </trkpt>
      <trkpt lat="46.60681" lon="12.27471">
        <ele>1893.93</ele>
        <time>2012-08-01T10:51:27Z</time>
      </trkpt>
      <trkpt lat="46.60704" lon="12.27473">
        <ele>1897.3</ele>
        <time>2012-08-01T10:51:30Z</time>
      </trkpt>
      <trkpt lat="46.60717" lon="12.27478">
        <ele>1898.26</ele>
        <time>2012-08-01T10:51:32Z</time>
      </trkpt>
      <trkpt lat="46.6072" lon="12.27485">
        <ele>1899.22</ele>
        <time>2012-08-01T10:51:33Z</time>
      </trkpt>
      <trkpt lat="46.60719" lon="12.27494">
        <ele>1899.7</ele>
        <time>2012-08-01T10:51:34Z</time>
      </trkpt>
      <trkpt lat="46.60716" lon="12.27503">
        <ele>1901.14</ele>
        <time>2012-08-01T10:51:35Z</time>
      </trkpt>
      <trkpt lat="46.60711" lon="12.2751">
        <ele>1901.63</ele>
        <time>2012-08-01T10:51:36Z</time>
      </trkpt>
      <trkpt lat="46.60707" lon="12.27516">
        <ele>1902.59</ele>
        <time>2012-08-01T10:51:37Z</time>
      </trkpt>
      <trkpt lat="46.60704" lon="12.27524">
        <ele>1904.03</ele>
        <time>2012-08-01T10:51:38Z</time>
      </trkpt>
      <trkpt lat="46.60702" lon="12.27532">
        <ele>1904.51</ele>
        <time>2012-08-01T10:51:39Z</time>
      </trkpt>
      <trkpt lat="46.60702" lon="12.27539">
        <ele>1905.95</ele>
        <time>2012-08-01T10:51:40Z</time>
      </trkpt>
      <trkpt lat="46.60703" lon="12.27547">
        <ele>1906.43</ele>
        <time>2012-08-01T10:51:41Z</time>
      </trkpt>
      <trkpt lat="46.60704" lon="12.27556">
        <ele>1908.35</ele>
        <time>2012-08-01T10:51:42Z</time>
      </trkpt>
      <trkpt lat="46.60712" lon="12.27586">
        <ele>1910.76</ele>
        <time>2012-08-01T10:51:48Z</time>
      </trkpt>
      <trkpt lat="46.60721" lon="12.27604">
        <ele>1912.2</ele>
        <time>2012-08-01T10:51:58Z</time>
      </trkpt>
      <trkpt lat="46.60723" lon="12.27614">
        <ele>1913.16</ele>
        <time>2012-08-01T10:51:59Z</time>
      </trkpt>
      <trkpt lat="46.60724" lon="12.27624">
        <ele>1914.6</ele>
        <time>2012-08-01T10:52:00Z</time>
      </trkpt>
      <trkpt lat="46.60725" lon="12.27634">
        <ele>1915.08</ele>
        <time>2012-08-01T10:52:01Z</time>
      </trkpt>
      <trkpt lat="46.60725" lon="12.27644">
        <ele>1915.08</ele>
        <time>2012-08-01T10:52:02Z</time>
      </trkpt>
      <trkpt lat="46.60725" lon="12.27667">
        <ele>1919.41</ele>
        <time>2012-08-01T10:52:04Z</time>
      </trkpt>
      <trkpt lat="46.60724" lon="12.27708">
        <ele>1922.29</ele>
        <time>2012-08-01T10:52:07Z</time>
      </trkpt>
      <trkpt lat="46.60724" lon="12.27751">
        <ele>1925.18</ele>
        <time>2012-08-01T10:52:10Z</time>
      </trkpt>
      <trkpt lat="46.60724" lon="12.27778">
        <ele>1926.62</ele>
        <time>2012-08-01T10:52:12Z</time>
      </trkpt>
      <trkpt lat="46.60724" lon="12.27799">
        <ele>1928.54</ele>
        <time>2012-08-01T10:52:14Z</time>
      </trkpt>
      <trkpt lat="46.60726" lon="12.27807">
        <ele>1928.54</ele>
        <time>2012-08-01T10:52:15Z</time>
      </trkpt>
      <trkpt lat="46.60729" lon="12.27813">
        <ele>1929.5</ele>
        <time>2012-08-01T10:52:16Z</time>
      </trkpt>
      <trkpt lat="46.60735" lon="12.27815">
        <ele>1930.46</ele>
        <time>2012-08-01T10:52:17Z</time>
      </trkpt>
      <trkpt lat="46.60741" lon="12.27814">
        <ele>1930.95</ele>
        <time>2012-08-01T10:52:18Z</time>
      </trkpt>
      <trkpt lat="46.60748" lon="12.2781">
        <ele>1933.35</ele>
        <time>2012-08-01T10:52:19Z</time>
      </trkpt>
      <trkpt lat="46.60754" lon="12.27804">
        <ele>1933.35</ele>
        <time>2012-08-01T10:52:20Z</time>
      </trkpt>
      <trkpt lat="46.60761" lon="12.27798">
        <ele>1932.87</ele>
        <time>2012-08-01T10:52:21Z</time>
      </trkpt>
      <trkpt lat="46.60775" lon="12.27782">
        <ele>1936.23</ele>
        <time>2012-08-01T10:52:23Z</time>
      </trkpt>
      <trkpt lat="46.60782" lon="12.27773">
        <ele>1935.75</ele>
        <time>2012-08-01T10:52:24Z</time>
      </trkpt>
      <trkpt lat="46.60789" lon="12.27763">
        <ele>1935.75</ele>
        <time>2012-08-01T10:52:25Z</time>
      </trkpt>
      <trkpt lat="46.60793" lon="12.27752">
        <ele>1939.6</ele>
        <time>2012-08-01T10:52:26Z</time>
      </trkpt>
      <trkpt lat="46.60798" lon="12.2774">
        <ele>1940.56</ele>
        <time>2012-08-01T10:52:27Z</time>
      </trkpt>
      <trkpt lat="46.60802" lon="12.27729">
        <ele>1942.96</ele>
        <time>2012-08-01T10:52:28Z</time>
      </trkpt>
      <trkpt lat="46.60808" lon="12.27718">
        <ele>1944.4</ele>
        <time>2012-08-01T10:52:29Z</time>
      </trkpt>
      <trkpt lat="46.60814" lon="12.27707">
        <ele>1945.85</ele>
        <time>2012-08-01T10:52:30Z</time>
      </trkpt>
      <trkpt lat="46.60822" lon="12.27697">
        <ele>1946.33</ele>
        <time>2012-08-01T10:52:31Z</time>
      </trkpt>
      <trkpt lat="46.60835" lon="12.27683">
        <ele>1946.81</ele>
        <time>2012-08-01T10:52:33Z</time>
      </trkpt>
      <trkpt lat="46.60845" lon="12.27682">
        <ele>1947.29</ele>
        <time>2012-08-01T10:52:35Z</time>
      </trkpt>
      <trkpt lat="46.60848" lon="12.27688">
        <ele>1947.77</ele>
        <time>2012-08-01T10:52:36Z</time>
      </trkpt>
      <trkpt lat="46.60848" lon="12.27698">
        <ele>1948.73</ele>
        <time>2012-08-01T10:52:37Z</time>
      </trkpt>
      <trkpt lat="46.60844" lon="12.27708">
        <ele>1949.69</ele>
        <time>2012-08-01T10:52:38Z</time>
      </trkpt>
      <trkpt lat="46.60839" lon="12.27718">
        <ele>1950.17</ele>
        <time>2012-08-01T10:52:39Z</time>
      </trkpt>
      <trkpt lat="46.60827" lon="12.2774">
        <ele>1951.13</ele>
        <time>2012-08-01T10:52:41Z</time>
      </trkpt>
      <trkpt lat="46.60823" lon="12.27753">
        <ele>1952.09</ele>
        <time>2012-08-01T10:52:42Z</time>
      </trkpt>
      <trkpt lat="46.60819" lon="12.27766">
        <ele>1953.06</ele>
        <time>2012-08-01T10:52:43Z</time>
      </trkpt>
      <trkpt lat="46.60816" lon="12.27782">
        <ele>1954.02</ele>
        <time>2012-08-01T10:52:44Z</time>
      </trkpt>
      <trkpt lat="46.60813" lon="12.27798">
        <ele>1954.98</ele>
        <time>2012-08-01T10:52:45Z</time>
      </trkpt>
      <trkpt lat="46.60804" lon="12.27849">
        <ele>1958.34</ele>
        <time>2012-08-01T10:52:48Z</time>
      </trkpt>
      <trkpt lat="46.60795" lon="12.27902">
        <ele>1962.19</ele>
        <time>2012-08-01T10:52:51Z</time>
      </trkpt>
      <trkpt lat="46.60789" lon="12.27956">
        <ele>1965.07</ele>
        <time>2012-08-01T10:52:54Z</time>
      </trkpt>
      <trkpt lat="46.60786" lon="12.28012">
        <ele>1969.4</ele>
        <time>2012-08-01T10:52:57Z</time>
      </trkpt>
      <trkpt lat="46.60785" lon="12.28049">
        <ele>1973.72</ele>
        <time>2012-08-01T10:52:59Z</time>
      </trkpt>
      <trkpt lat="46.60783" lon="12.28104">
        <ele>1978.05</ele>
        <time>2012-08-01T10:53:02Z</time>
      </trkpt>
      <trkpt lat="46.60778" lon="12.28138">
        <ele>1981.9</ele>
        <time>2012-08-01T10:53:04Z</time>
      </trkpt>
      <trkpt lat="46.60773" lon="12.28171">
        <ele>1984.78</ele>
        <time>2012-08-01T10:53:06Z</time>
      </trkpt>
      <trkpt lat="46.60769" lon="12.28205">
        <ele>1987.66</ele>
        <time>2012-08-01T10:53:08Z</time>
      </trkpt>
      <trkpt lat="46.60768" lon="12.28222">
        <ele>1989.1</ele>
        <time>2012-08-01T10:53:09Z</time>
      </trkpt>
      <trkpt lat="46.60768" lon="12.28239">
        <ele>1991.03</ele>
        <time>2012-08-01T10:53:10Z</time>
      </trkpt>
      <trkpt lat="46.60769" lon="12.28256">
        <ele>1992.95</ele>
        <time>2012-08-01T10:53:11Z</time>
      </trkpt>
      <trkpt lat="46.6077" lon="12.28273">
        <ele>1995.35</ele>
        <time>2012-08-01T10:53:12Z</time>
      </trkpt>
      <trkpt lat="46.60772" lon="12.2829">
        <ele>1996.32</ele>
        <time>2012-08-01T10:53:13Z</time>
      </trkpt>
      <trkpt lat="46.60777" lon="12.28307">
        <ele>1999.2</ele>
        <time>2012-08-01T10:53:14Z</time>
      </trkpt>
      <trkpt lat="46.60782" lon="12.28324">
        <ele>2000.64</ele>
        <time>2012-08-01T10:53:15Z</time>
      </trkpt>
      <trkpt lat="46.60789" lon="12.2834">
        <ele>2002.08</ele>
        <time>2012-08-01T10:53:16Z</time>
      </trkpt>
      <trkpt lat="46.60795" lon="12.28357">
        <ele>2004.01</ele>
        <time>2012-08-01T10:53:17Z</time>
      </trkpt>
      <trkpt lat="46.608" lon="12.28375">
        <ele>2006.41</ele>
        <time>2012-08-01T10:53:18Z</time>
      </trkpt>
      <trkpt lat="46.60804" lon="12.28394">
        <ele>2008.33</ele>
        <time>2012-08-01T10:53:19Z</time>
      </trkpt>
      <trkpt lat="46.60815" lon="12.28447">
        <ele>2012.18</ele>
        <time>2012-08-01T10:53:22Z</time>
      </trkpt>
      <trkpt lat="46.60826" lon="12.28482">
        <ele>2016.5</ele>
        <time>2012-08-01T10:53:24Z</time>
      </trkpt>
      <trkpt lat="46.60836" lon="12.28517">
        <ele>2020.35</ele>
        <time>2012-08-01T10:53:26Z</time>
      </trkpt>
      <trkpt lat="46.60839" lon="12.28534">
        <ele>2021.31</ele>
        <time>2012-08-01T10:53:27Z</time>
      </trkpt>
      <trkpt lat="46.60842" lon="12.28567">
        <ele>2024.19</ele>
        <time>2012-08-01T10:53:29Z</time>
      </trkpt>
      <trkpt lat="46.60842" lon="12.28583">
        <ele>2025.64</ele>
        <time>2012-08-01T10:53:30Z</time>
      </trkpt>
      <trkpt lat="46.6084" lon="12.28598">
        <ele>2026.6</ele>
        <time>2012-08-01T10:53:31Z</time>
      </trkpt>
      <trkpt lat="46.60835" lon="12.28613">
        <ele>2027.56</ele>
        <time>2012-08-01T10:53:32Z</time>
      </trkpt>
      <trkpt lat="46.60828" lon="12.28626">
        <ele>2029</ele>
        <time>2012-08-01T10:53:33Z</time>
      </trkpt>
      <trkpt lat="46.60821" lon="12.28639">
        <ele>2030.92</ele>
        <time>2012-08-01T10:53:34Z</time>
      </trkpt>
      <trkpt lat="46.60817" lon="12.28653">
        <ele>2032.84</ele>
        <time>2012-08-01T10:53:35Z</time>
      </trkpt>
      <trkpt lat="46.60814" lon="12.2867">
        <ele>2035.73</ele>
        <time>2012-08-01T10:53:36Z</time>
      </trkpt>
      <trkpt lat="46.60813" lon="12.28687">
        <ele>2037.17</ele>
        <time>2012-08-01T10:53:37Z</time>
      </trkpt>
      <trkpt lat="46.60807" lon="12.28721">
        <ele>2041.5</ele>
        <time>2012-08-01T10:53:39Z</time>
      </trkpt>
      <trkpt lat="46.608" lon="12.28754">
        <ele>2044.86</ele>
        <time>2012-08-01T10:53:41Z</time>
      </trkpt>
      <trkpt lat="46.60791" lon="12.28787">
        <ele>2048.23</ele>
        <time>2012-08-01T10:53:43Z</time>
      </trkpt>
      <trkpt lat="46.60783" lon="12.2882">
        <ele>2052.55</ele>
        <time>2012-08-01T10:53:45Z</time>
      </trkpt>
      <trkpt lat="46.60771" lon="12.28852">
        <ele>2056.88</ele>
        <time>2012-08-01T10:53:47Z</time>
      </trkpt>
      <trkpt lat="46.6076" lon="12.28884">
        <ele>2060.72</ele>
        <time>2012-08-01T10:53:49Z</time>
      </trkpt>
      <trkpt lat="46.60751" lon="12.28918">
        <ele>2065.05</ele>
        <time>2012-08-01T10:53:51Z</time>
      </trkpt>
      <trkpt lat="46.60745" lon="12.28933">
        <ele>2066.49</ele>
        <time>2012-08-01T10:53:52Z</time>
      </trkpt>
      <trkpt lat="46.60737" lon="12.28945">
        <ele>2067.93</ele>
        <time>2012-08-01T10:53:53Z</time>
      </trkpt>
      <trkpt lat="46.60729" lon="12.28953">
        <ele>2069.38</ele>
        <time>2012-08-01T10:53:54Z</time>
      </trkpt>
      <trkpt lat="46.60721" lon="12.28963">
        <ele>2071.3</ele>
        <time>2012-08-01T10:53:55Z</time>
      </trkpt>
      <trkpt lat="46.60715" lon="12.28975">
        <ele>2073.22</ele>
        <time>2012-08-01T10:53:56Z</time>
      </trkpt>
      <trkpt lat="46.60712" lon="12.28991">
        <ele>2074.66</ele>
        <time>2012-08-01T10:53:57Z</time>
      </trkpt>
      <trkpt lat="46.60709" lon="12.29007">
        <ele>2076.59</ele>
        <time>2012-08-01T10:53:58Z</time>
      </trkpt>
      <trkpt lat="46.60705" lon="12.29023">
        <ele>2078.51</ele>
        <time>2012-08-01T10:53:59Z</time>
      </trkpt>
      <trkpt lat="46.60701" lon="12.29039">
        <ele>2080.91</ele>
        <time>2012-08-01T10:54:00Z</time>
      </trkpt>
      <trkpt lat="46.60696" lon="12.29053">
        <ele>2081.39</ele>
        <time>2012-08-01T10:54:01Z</time>
      </trkpt>
      <trkpt lat="46.60692" lon="12.29065">
        <ele>2082.83</ele>
        <time>2012-08-01T10:54:02Z</time>
      </trkpt>
      <trkpt lat="46.6069" lon="12.29077">
        <ele>2083.79</ele>
        <time>2012-08-01T10:54:03Z</time>
      </trkpt>
      <trkpt lat="46.60689" lon="12.29087">
        <ele>2084.28</ele>
        <time>2012-08-01T10:54:04Z</time>
      </trkpt>
      <trkpt lat="46.6069" lon="12.29096">
        <ele>2085.24</ele>
        <time>2012-08-01T10:54:05Z</time>
      </trkpt>
      <trkpt lat="46.60694" lon="12.29102">
        <ele>2086.2</ele>
        <time>2012-08-01T10:54:06Z</time>
      </trkpt>
      <trkpt lat="46.60699" lon="12.29103">
        <ele>2086.68</ele>
        <time>2012-08-01T10:54:07Z</time>
      </trkpt>
      <trkpt lat="46.60705" lon="12.291">
        <ele>2087.16</ele>
        <time>2012-08-01T10:54:08Z</time>
      </trkpt>
      <trkpt lat="46.60711" lon="12.29092">
        <ele>2088.12</ele>
        <time>2012-08-01T10:54:09Z</time>
      </trkpt>
      <trkpt lat="46.60718" lon="12.2908">
        <ele>2089.08</ele>
        <time>2012-08-01T10:54:10Z</time>
      </trkpt>
      <trkpt lat="46.60727" lon="12.2907">
        <ele>2090.52</ele>
        <time>2012-08-01T10:54:11Z</time>
      </trkpt>
      <trkpt lat="46.60736" lon="12.29062">
        <ele>2092.45</ele>
        <time>2012-08-01T10:54:12Z</time>
      </trkpt>
      <trkpt lat="46.60744" lon="12.29056">
        <ele>2093.41</ele>
        <time>2012-08-01T10:54:13Z</time>
      </trkpt>
      <trkpt lat="46.60752" lon="12.29052">
        <ele>2094.85</ele>
        <time>2012-08-01T10:54:14Z</time>
      </trkpt>
      <trkpt lat="46.60759" lon="12.2905">
        <ele>2095.81</ele>
        <time>2012-08-01T10:54:15Z</time>
      </trkpt>
      <trkpt lat="46.60764" lon="12.29054">
        <ele>2097.25</ele>
        <time>2012-08-01T10:54:16Z</time>
      </trkpt>
      <trkpt lat="46.60767" lon="12.29062">
        <ele>2098.21</ele>
        <time>2012-08-01T10:54:17Z</time>
      </trkpt>
      <trkpt lat="46.60768" lon="12.29071">
        <ele>2100.14</ele>
        <time>2012-08-01T10:54:18Z</time>
      </trkpt>
      <trkpt lat="46.60766" lon="12.29081">
        <ele>2101.1</ele>
        <time>2012-08-01T10:54:19Z</time>
      </trkpt>
      <trkpt lat="46.60764" lon="12.29092">
        <ele>2103.02</ele>
        <time>2012-08-01T10:54:20Z</time>
      </trkpt>
      <trkpt lat="46.60763" lon="12.29104">
        <ele>2103.98</ele>
        <time>2012-08-01T10:54:21Z</time>
      </trkpt>
      <trkpt lat="46.60762" lon="12.29116">
        <ele>2105.91</ele>
        <time>2012-08-01T10:54:22Z</time>
      </trkpt>
      <trkpt lat="46.60762" lon="12.29128">
        <ele>2107.35</ele>
        <time>2012-08-01T10:54:23Z</time>
      </trkpt>
      <trkpt lat="46.60761" lon="12.29141">
        <ele>2108.79</ele>
        <time>2012-08-01T10:54:24Z</time>
      </trkpt>
      <trkpt lat="46.6076" lon="12.29154">
        <ele>2110.23</ele>
        <time>2012-08-01T10:54:25Z</time>
      </trkpt>
      <trkpt lat="46.60759" lon="12.29168">
        <ele>2111.67</ele>
        <time>2012-08-01T10:54:26Z</time>
      </trkpt>
      <trkpt lat="46.60756" lon="12.29182">
        <ele>2113.6</ele>
        <time>2012-08-01T10:54:27Z</time>
      </trkpt>
      <trkpt lat="46.60746" lon="12.29227">
        <ele>2117.92</ele>
        <time>2012-08-01T10:54:30Z</time>
      </trkpt>
      <trkpt lat="46.6074" lon="12.29239">
        <ele>2119.36</ele>
        <time>2012-08-01T10:54:31Z</time>
      </trkpt>
      <trkpt lat="46.60733" lon="12.29249">
        <ele>2121.29</ele>
        <time>2012-08-01T10:54:32Z</time>
      </trkpt>
      <trkpt lat="46.60713" lon="12.29281">
        <ele>2126.09</ele>
        <time>2012-08-01T10:54:35Z</time>
      </trkpt>
      <trkpt lat="46.60696" lon="12.29311">
        <ele>2128.98</ele>
        <time>2012-08-01T10:54:38Z</time>
      </trkpt>
      <trkpt lat="46.60694" lon="12.29319">
        <ele>2129.94</ele>
        <time>2012-08-01T10:54:39Z</time>
      </trkpt>
      <trkpt lat="46.60694" lon="12.29327">
        <ele>2130.42</ele>
        <time>2012-08-01T10:54:40Z</time>
      </trkpt>
      <trkpt lat="46.60697" lon="12.29336">
        <ele>2132.34</ele>
        <time>2012-08-01T10:54:44Z</time>
      </trkpt>
      <trkpt lat="46.607" lon="12.29332">
        <ele>2133.3</ele>
        <time>2012-08-01T10:54:45Z</time>
      </trkpt>
      <trkpt lat="46.60709" lon="12.29325">
        <ele>2134.74</ele>
        <time>2012-08-01T10:54:46Z</time>
      </trkpt>
      <trkpt lat="46.60716" lon="12.29321">
        <ele>2135.71</ele>
        <time>2012-08-01T10:54:47Z</time>
      </trkpt>
      <trkpt lat="46.60734" lon="12.29331">
        <ele>2139.55</ele>
        <time>2012-08-01T10:54:50Z</time>
      </trkpt>
      <trkpt lat="46.60732" lon="12.29337">
        <ele>2140.51</ele>
        <time>2012-08-01T10:54:51Z</time>
      </trkpt>
      <trkpt lat="46.60727" lon="12.29341">
        <ele>2142.44</ele>
        <time>2012-08-01T10:54:52Z</time>
      </trkpt>
      <trkpt lat="46.60721" lon="12.29348">
        <ele>2142.92</ele>
        <time>2012-08-01T10:54:53Z</time>
      </trkpt>
      <trkpt lat="46.60715" lon="12.29356">
        <ele>2145.32</ele>
        <time>2012-08-01T10:54:54Z</time>
      </trkpt>
      <trkpt lat="46.60708" lon="12.29366">
        <ele>2146.76</ele>
        <time>2012-08-01T10:54:55Z</time>
      </trkpt>
      <trkpt lat="46.60702" lon="12.29376">
        <ele>2147.72</ele>
        <time>2012-08-01T10:54:56Z</time>
      </trkpt>
      <trkpt lat="46.60692" lon="12.29398">
        <ele>2151.09</ele>
        <time>2012-08-01T10:54:58Z</time>
      </trkpt>
      <trkpt lat="46.60681" lon="12.2942">
        <ele>2154.45</ele>
        <time>2012-08-01T10:55:00Z</time>
      </trkpt>
      <trkpt lat="46.6067" lon="12.29444">
        <ele>2158.3</ele>
        <time>2012-08-01T10:55:02Z</time>
      </trkpt>
      <trkpt lat="46.60654" lon="12.29476">
        <ele>2161.66</ele>
        <time>2012-08-01T10:55:05Z</time>
      </trkpt>
      <trkpt lat="46.6065" lon="12.29484">
        <ele>2162.14</ele>
        <time>2012-08-01T10:55:06Z</time>
      </trkpt>
      <trkpt lat="46.60648" lon="12.2949">
        <ele>2162.62</ele>
        <time>2012-08-01T10:55:07Z</time>
      </trkpt>
      <trkpt lat="46.60655" lon="12.29499">
        <ele>2164.55</ele>
        <time>2012-08-01T10:55:09Z</time>
      </trkpt>
      <trkpt lat="46.60665" lon="12.29499">
        <ele>2165.51</ele>
        <time>2012-08-01T10:55:10Z</time>
      </trkpt>
      <trkpt lat="46.60674" lon="12.29495">
        <ele>2166.47</ele>
        <time>2012-08-01T10:55:11Z</time>
      </trkpt>
      <trkpt lat="46.60683" lon="12.29486">
        <ele>2167.43</ele>
        <time>2012-08-01T10:55:12Z</time>
      </trkpt>
      <trkpt lat="46.60691" lon="12.29476">
        <ele>2169.35</ele>
        <time>2012-08-01T10:55:13Z</time>
      </trkpt>
      <trkpt lat="46.60701" lon="12.29467">
        <ele>2170.31</ele>
        <time>2012-08-01T10:55:14Z</time>
      </trkpt>
      <trkpt lat="46.60712" lon="12.2946">
        <ele>2172.24</ele>
        <time>2012-08-01T10:55:15Z</time>
      </trkpt>
      <trkpt lat="46.60724" lon="12.29454">
        <ele>2173.68</ele>
        <time>2012-08-01T10:55:16Z</time>
      </trkpt>
      <trkpt lat="46.60763" lon="12.29433">
        <ele>2176.56</ele>
        <time>2012-08-01T10:55:20Z</time>
      </trkpt>
      <trkpt lat="46.60772" lon="12.2943">
        <ele>2178</ele>
        <time>2012-08-01T10:55:21Z</time>
      </trkpt>
      <trkpt lat="46.60781" lon="12.29429">
        <ele>2179.45</ele>
        <time>2012-08-01T10:55:22Z</time>
      </trkpt>
      <trkpt lat="46.60789" lon="12.29432">
        <ele>2179.45</ele>
        <time>2012-08-01T10:55:23Z</time>
      </trkpt>
      <trkpt lat="46.60795" lon="12.29437">
        <ele>2180.89</ele>
        <time>2012-08-01T10:55:24Z</time>
      </trkpt>
      <trkpt lat="46.60801" lon="12.29445">
        <ele>2181.37</ele>
        <time>2012-08-01T10:55:25Z</time>
      </trkpt>
      <trkpt lat="46.60807" lon="12.29454">
        <ele>2183.29</ele>
        <time>2012-08-01T10:55:26Z</time>
      </trkpt>
      <trkpt lat="46.60814" lon="12.29464">
        <ele>2184.73</ele>
        <time>2012-08-01T10:55:27Z</time>
      </trkpt>
      <trkpt lat="46.60821" lon="12.29472">
        <ele>2185.69</ele>
        <time>2012-08-01T10:55:28Z</time>
      </trkpt>
      <trkpt lat="46.60829" lon="12.29478">
        <ele>2186.66</ele>
        <time>2012-08-01T10:55:29Z</time>
      </trkpt>
      <trkpt lat="46.60839" lon="12.29482">
        <ele>2187.62</ele>
        <time>2012-08-01T10:55:30Z</time>
      </trkpt>
      <trkpt lat="46.60849" lon="12.29483">
        <ele>2189.06</ele>
        <time>2012-08-01T10:55:31Z</time>
      </trkpt>
      <trkpt lat="46.60859" lon="12.29483">
        <ele>2190.5</ele>
        <time>2012-08-01T10:55:32Z</time>
      </trkpt>
      <trkpt lat="46.60879" lon="12.29484">
        <ele>2193.39</ele>
        <time>2012-08-01T10:55:34Z</time>
      </trkpt>
      <trkpt lat="46.60898" lon="12.29489">
        <ele>2195.79</ele>
        <time>2012-08-01T10:55:36Z</time>
      </trkpt>
      <trkpt lat="46.60905" lon="12.29496">
        <ele>2196.75</ele>
        <time>2012-08-01T10:55:37Z</time>
      </trkpt>
      <trkpt lat="46.60911" lon="12.29507">
        <ele>2198.67</ele>
        <time>2012-08-01T10:55:38Z</time>
      </trkpt>
      <trkpt lat="46.60916" lon="12.29519">
        <ele>2200.11</ele>
        <time>2012-08-01T10:55:39Z</time>
      </trkpt>
      <trkpt lat="46.60919" lon="12.29533">
        <ele>2201.56</ele>
        <time>2012-08-01T10:55:40Z</time>
      </trkpt>
      <trkpt lat="46.60922" lon="12.29547">
        <ele>2203</ele>
        <time>2012-08-01T10:55:41Z</time>
      </trkpt>
      <trkpt lat="46.60923" lon="12.29561">
        <ele>2205.4</ele>
        <time>2012-08-01T10:55:42Z</time>
      </trkpt>
      <trkpt lat="46.60923" lon="12.29576">
        <ele>2206.36</ele>
        <time>2012-08-01T10:55:43Z</time>
      </trkpt>
      <trkpt lat="46.60923" lon="12.29591">
        <ele>2207.81</ele>
        <time>2012-08-01T10:55:44Z</time>
      </trkpt>
      <trkpt lat="46.60922" lon="12.29606">
        <ele>2209.25</ele>
        <time>2012-08-01T10:55:45Z</time>
      </trkpt>
      <trkpt lat="46.60918" lon="12.2962">
        <ele>2211.65</ele>
        <time>2012-08-01T10:55:46Z</time>
      </trkpt>
      <trkpt lat="46.60914" lon="12.29634">
        <ele>2213.09</ele>
        <time>2012-08-01T10:55:47Z</time>
      </trkpt>
      <trkpt lat="46.60909" lon="12.29647">
        <ele>2214.53</ele>
        <time>2012-08-01T10:55:48Z</time>
      </trkpt>
      <trkpt lat="46.60903" lon="12.2966">
        <ele>2215.98</ele>
        <time>2012-08-01T10:55:49Z</time>
      </trkpt>
      <trkpt lat="46.60895" lon="12.2967">
        <ele>2217.9</ele>
        <time>2012-08-01T10:55:50Z</time>
      </trkpt>
      <trkpt lat="46.60887" lon="12.29679">
        <ele>2219.34</ele>
        <time>2012-08-01T10:55:51Z</time>
      </trkpt>
      <trkpt lat="46.60878" lon="12.29686">
        <ele>2220.3</ele>
        <time>2012-08-01T10:55:52Z</time>
      </trkpt>
      <trkpt lat="46.6087" lon="12.29696">
        <ele>2221.74</ele>
        <time>2012-08-01T10:55:53Z</time>
      </trkpt>
      <trkpt lat="46.60863" lon="12.29707">
        <ele>2223.19</ele>
        <time>2012-08-01T10:55:54Z</time>
      </trkpt>
      <trkpt lat="46.60856" lon="12.29718">
        <ele>2224.63</ele>
        <time>2012-08-01T10:55:55Z</time>
      </trkpt>
      <trkpt lat="46.60851" lon="12.29728">
        <ele>2225.59</ele>
        <time>2012-08-01T10:55:56Z</time>
      </trkpt>
      <trkpt lat="46.60847" lon="12.29738">
        <ele>2227.03</ele>
        <time>2012-08-01T10:55:57Z</time>
      </trkpt>
      <trkpt lat="46.60846" lon="12.29748">
        <ele>2227.51</ele>
        <time>2012-08-01T10:55:58Z</time>
      </trkpt>
      <trkpt lat="46.60847" lon="12.29756">
        <ele>2227.99</ele>
        <time>2012-08-01T10:55:59Z</time>
      </trkpt>
      <trkpt lat="46.60849" lon="12.29762">
        <ele>2227.99</ele>
        <time>2012-08-01T10:56:00Z</time>
      </trkpt>
      <trkpt lat="46.60853" lon="12.29764">
        <ele>2228.95</ele>
        <time>2012-08-01T10:56:01Z</time>
      </trkpt>
      <trkpt lat="46.60857" lon="12.29766">
        <ele>2229.43</ele>
        <time>2012-08-01T10:56:02Z</time>
      </trkpt>
      <trkpt lat="46.60862" lon="12.29764">
        <ele>2230.4</ele>
        <time>2012-08-01T10:56:03Z</time>
      </trkpt>
      <trkpt lat="46.60866" lon="12.29759">
        <ele>2230.88</ele>
        <time>2012-08-01T10:56:04Z</time>
      </trkpt>
      <trkpt lat="46.60873" lon="12.29743">
        <ele>2231.84</ele>
        <time>2012-08-01T10:56:05Z</time>
      </trkpt>
      <trkpt lat="46.60881" lon="12.29734">
        <ele>2232.8</ele>
        <time>2012-08-01T10:56:06Z</time>
      </trkpt>
      <trkpt lat="46.60889" lon="12.29727">
        <ele>2233.76</ele>
        <time>2012-08-01T10:56:07Z</time>
      </trkpt>
      <trkpt lat="46.60898" lon="12.29722">
        <ele>2234.72</ele>
        <time>2012-08-01T10:56:08Z</time>
      </trkpt>
      <trkpt lat="46.60908" lon="12.29718">
        <ele>2236.64</ele>
        <time>2012-08-01T10:56:09Z</time>
      </trkpt>
      <trkpt lat="46.60919" lon="12.29712">
        <ele>2238.57</ele>
        <time>2012-08-01T10:56:10Z</time>
      </trkpt>
      <trkpt lat="46.60929" lon="12.29705">
        <ele>2239.53</ele>
        <time>2012-08-01T10:56:11Z</time>
      </trkpt>
      <trkpt lat="46.60938" lon="12.29697">
        <ele>2240.49</ele>
        <time>2012-08-01T10:56:12Z</time>
      </trkpt>
      <trkpt lat="46.60948" lon="12.29688">
        <ele>2242.41</ele>
        <time>2012-08-01T10:56:13Z</time>
      </trkpt>
      <trkpt lat="46.60977" lon="12.29664">
        <ele>2246.26</ele>
        <time>2012-08-01T10:56:16Z</time>
      </trkpt>
      <trkpt lat="46.61005" lon="12.29639">
        <ele>2250.58</ele>
        <time>2012-08-01T10:56:19Z</time>
      </trkpt>
      <trkpt lat="46.61014" lon="12.29633">
        <ele>2251.54</ele>
        <time>2012-08-01T10:56:20Z</time>
      </trkpt>
      <trkpt lat="46.61035" lon="12.29622">
        <ele>2255.39</ele>
        <time>2012-08-01T10:56:22Z</time>
      </trkpt>
      <trkpt lat="46.61054" lon="12.2961">
        <ele>2259.24</ele>
        <time>2012-08-01T10:56:24Z</time>
      </trkpt>
      <trkpt lat="46.61082" lon="12.29594">
        <ele>2263.56</ele>
        <time>2012-08-01T10:56:27Z</time>
      </trkpt>
      <trkpt lat="46.61091" lon="12.29587">
        <ele>2264.52</ele>
        <time>2012-08-01T10:56:28Z</time>
      </trkpt>
      <trkpt lat="46.611" lon="12.29579">
        <ele>2265.96</ele>
        <time>2012-08-01T10:56:29Z</time>
      </trkpt>
      <trkpt lat="46.61107" lon="12.2957">
        <ele>2266.93</ele>
        <time>2012-08-01T10:56:30Z</time>
      </trkpt>
      <trkpt lat="46.61121" lon="12.29551">
        <ele>2269.33</ele>
        <time>2012-08-01T10:56:32Z</time>
      </trkpt>
      <trkpt lat="46.61129" lon="12.29545">
        <ele>2270.77</ele>
        <time>2012-08-01T10:56:33Z</time>
      </trkpt>
      <trkpt lat="46.61137" lon="12.2954">
        <ele>2272.69</ele>
        <time>2012-08-01T10:56:34Z</time>
      </trkpt>
      <trkpt lat="46.61145" lon="12.29537">
        <ele>2273.66</ele>
        <time>2012-08-01T10:56:35Z</time>
      </trkpt>
      <trkpt lat="46.61154" lon="12.29533">
        <ele>2275.58</ele>
        <time>2012-08-01T10:56:36Z</time>
      </trkpt>
      <trkpt lat="46.61162" lon="12.29526">
        <ele>2276.06</ele>
        <time>2012-08-01T10:56:37Z</time>
      </trkpt>
      <trkpt lat="46.61169" lon="12.29518">
        <ele>2277.02</ele>
        <time>2012-08-01T10:56:38Z</time>
      </trkpt>
      <trkpt lat="46.61176" lon="12.29509">
        <ele>2277.98</ele>
        <time>2012-08-01T10:56:39Z</time>
      </trkpt>
      <trkpt lat="46.61182" lon="12.29501">
        <ele>2278.94</ele>
        <time>2012-08-01T10:56:40Z</time>
      </trkpt>
      <trkpt lat="46.61492" lon="12.29508">
        <ele>2339.99</ele>
        <time>2012-08-01T14:17:22Z</time>
      </trkpt>
      <trkpt lat="46.61396" lon="12.29558">
        <ele>2337.1</ele>
        <time>2012-08-01T14:17:42Z</time>
      </trkpt>
      <trkpt lat="46.61395" lon="12.29557">
        <ele>2336.62</ele>
        <time>2012-08-01T14:17:43Z</time>
      </trkpt>
      <trkpt lat="46.61392" lon="12.29555">
        <ele>2334.7</ele>
        <time>2012-08-01T14:17:45Z</time>
      </trkpt>
      <trkpt lat="46.61386" lon="12.29551">
        <ele>2332.3</ele>
        <time>2012-08-01T14:17:49Z</time>
      </trkpt>
      <trkpt lat="46.61343" lon="12.29521">
        <ele>2335.18</ele>
        <time>2012-08-01T14:18:07Z</time>
      </trkpt>
      <trkpt lat="46.61343" lon="12.29522">
        <ele>2338.54</ele>
        <time>2012-08-01T14:18:15Z</time>
      </trkpt>
      <trkpt lat="46.61343" lon="12.29521">
        <ele>2341.43</ele>
        <time>2012-08-01T14:18:24Z</time>
      </trkpt>
      <trkpt lat="46.61343" lon="12.29525">
        <ele>2345.27</ele>
        <time>2012-08-01T14:18:34Z</time>
      </trkpt>
      <trkpt lat="46.61341" lon="12.29526">
        <ele>2348.16</ele>
        <time>2012-08-01T14:18:44Z</time>
      </trkpt>
      <trkpt lat="46.61341" lon="12.29525">
        <ele>2351.04</ele>
        <time>2012-08-01T14:18:56Z</time>
      </trkpt>
      <trkpt lat="46.61341" lon="12.29526">
        <ele>2352.48</ele>
        <time>2012-08-01T14:19:03Z</time>
      </trkpt>
      <trkpt lat="46.61342" lon="12.29525">
        <ele>2352.48</ele>
        <time>2012-08-01T14:19:17Z</time>
      </trkpt>
      <trkpt lat="46.61342" lon="12.29525">
        <ele>2355.85</ele>
        <time>2012-08-01T14:19:19Z</time>
      </trkpt>
      <trkpt lat="46.61346" lon="12.29525">
        <ele>2356.33</ele>
        <time>2012-08-01T14:19:43Z</time>
      </trkpt>
      <trkpt lat="46.61343" lon="12.29525">
        <ele>2356.81</ele>
        <time>2012-08-01T14:20:16Z</time>
      </trkpt>
      <trkpt lat="46.61341" lon="12.29525">
        <ele>2356.81</ele>
        <time>2012-08-01T14:20:48Z</time>
      </trkpt>
      <trkpt lat="46.61342" lon="12.29526">
        <ele>2356.33</ele>
        <time>2012-08-01T14:21:14Z</time>
      </trkpt>
      <trkpt lat="46.61343" lon="12.29527">
        <ele>2356.33</ele>
        <time>2012-08-01T14:21:45Z</time>
      </trkpt>
      <trkpt lat="46.61344" lon="12.29526">
        <ele>2356.33</ele>
        <time>2012-08-01T14:22:19Z</time>
      </trkpt>
      <trkpt lat="46.61343" lon="12.29525">
        <ele>2357.29</ele>
        <time>2012-08-01T14:22:48Z</time>
      </trkpt>
      <trkpt lat="46.61343" lon="12.29525">
        <ele>2356.81</ele>
        <time>2012-08-01T14:23:20Z</time>
      </trkpt>
      <trkpt lat="46.61344" lon="12.29525">
        <ele>2356.81</ele>
        <time>2012-08-01T14:23:57Z</time>
      </trkpt>
      <trkpt lat="46.61343" lon="12.29525">
        <ele>2356.81</ele>
        <time>2012-08-01T14:24:29Z</time>
      </trkpt>
      <trkpt lat="46.61343" lon="12.29526">
        <ele>2353.93</ele>
        <time>2012-08-01T14:24:43Z</time>
      </trkpt>
      <trkpt lat="46.61343" lon="12.29526">
        <ele>2358.25</ele>
        <time>2012-08-01T14:24:44Z</time>
      </trkpt>
      <trkpt lat="46.61343" lon="12.29526">
        <ele>2358.25</ele>
        <time>2012-08-01T14:24:45Z</time>
      </trkpt>
      <trkpt lat="46.61344" lon="12.29526">
        <ele>2355.85</ele>
        <time>2012-08-01T14:25:17Z</time>
      </trkpt>
      <trkpt lat="46.61344" lon="12.29526">
        <ele>2357.29</ele>
        <time>2012-08-01T14:25:19Z</time>
      </trkpt>
      <trkpt lat="46.61343" lon="12.29526">
        <ele>2355.85</ele>
        <time>2012-08-01T14:25:29Z</time>
      </trkpt>
      <trkpt lat="46.61343" lon="12.29526">
        <ele>2356.33</ele>
        <time>2012-08-01T14:26:04Z</time>
      </trkpt>
      <trkpt lat="46.61344" lon="12.29525">
        <ele>2356.33</ele>
        <time>2012-08-01T14:26:36Z</time>
      </trkpt>
      <trkpt lat="46.61345" lon="12.29525">
        <ele>2356.81</ele>
        <time>2012-08-01T14:27:13Z</time>
      </trkpt>
      <trkpt lat="46.61343" lon="12.29525">
        <ele>2357.29</ele>
        <time>2012-08-01T14:27:44Z</time>
      </trkpt>
      <trkpt lat="46.61344" lon="12.29525">
        <ele>2356.81</ele>
        <time>2012-08-01T14:28:14Z</time>
      </trkpt>
      <trkpt lat="46.61343" lon="12.29524">
        <ele>2356.81</ele>
        <time>2012-08-01T14:28:46Z</time>
      </trkpt>
      <trkpt lat="46.61342" lon="12.29525">
        <ele>2356.81</ele>
        <time>2012-08-01T14:29:14Z</time>
      </trkpt>
      <trkpt lat="46.61342" lon="12.29525">
        <ele>2356.33</ele>
        <time>2012-08-01T14:29:49Z</time>
      </trkpt>
      <trkpt lat="46.61343" lon="12.29525">
        <ele>2356.81</ele>
        <time>2012-08-01T14:30:29Z</time>
      </trkpt>
      <trkpt lat="46.61344" lon="12.29524">
        <ele>2356.33</ele>
        <time>2012-08-01T14:31:07Z</time>
      </trkpt>
      <trkpt lat="46.61343" lon="12.29524">
        <ele>2355.85</ele>
        <time>2012-08-01T14:31:45Z</time>
      </trkpt>
      <trkpt lat="46.61343" lon="12.29524">
        <ele>2356.33</ele>
        <time>2012-08-01T14:32:27Z</time>
      </trkpt>
      <trkpt lat="46.61342" lon="12.29523">
        <ele>2356.33</ele>
        <time>2012-08-01T14:33:05Z</time>
      </trkpt>
      <trkpt lat="46.61343" lon="12.29523">
        <ele>2356.33</ele>
        <time>2012-08-01T14:33:41Z</time>
      </trkpt>
      <trkpt lat="46.61343" lon="12.29525">
        <ele>2355.85</ele>
        <time>2012-08-01T14:34:12Z</time>
      </trkpt>
      <trkpt lat="46.61342" lon="12.29526">
        <ele>2355.85</ele>
        <time>2012-08-01T14:34:48Z</time>
      </trkpt>
      <trkpt lat="46.61343" lon="12.29526">
        <ele>2356.33</ele>
        <time>2012-08-01T14:35:26Z</time>
      </trkpt>
      <trkpt lat="46.61344" lon="12.29525">
        <ele>2355.85</ele>
        <time>2012-08-01T14:36:04Z</time>
      </trkpt>
      <trkpt lat="46.61344" lon="12.29525">
        <ele>2355.85</ele>
        <time>2012-08-01T14:36:38Z</time>
      </trkpt>
      <trkpt lat="46.61343" lon="12.29525">
        <ele>2355.85</ele>
        <time>2012-08-01T14:37:12Z</time>
      </trkpt>
      <trkpt lat="46.61343" lon="12.29525">
        <ele>2355.85</ele>
        <time>2012-08-01T14:37:45Z</time>
      </trkpt>
      <trkpt lat="46.61344" lon="12.29525">
        <ele>2355.85</ele>
        <time>2012-08-01T14:38:16Z</time>
      </trkpt>
      <trkpt lat="46.61346" lon="12.29526">
        <ele>2355.85</ele>
        <time>2012-08-01T14:38:51Z</time>
      </trkpt>
      <trkpt lat="46.61345" lon="12.29526">
        <ele>2355.85</ele>
        <time>2012-08-01T14:39:29Z</time>
      </trkpt>
      <trkpt lat="46.61343" lon="12.29525">
        <ele>2356.33</ele>
        <time>2012-08-01T14:40:01Z</time>
      </trkpt>
      <trkpt lat="46.61342" lon="12.29525">
        <ele>2356.33</ele>
        <time>2012-08-01T14:40:30Z</time>
      </trkpt>
      <trkpt lat="46.61343" lon="12.29526">
        <ele>2355.85</ele>
        <time>2012-08-01T14:40:55Z</time>
      </trkpt>
      <trkpt lat="46.61341" lon="12.29526">
        <ele>2351.52</ele>
        <time>2012-08-01T14:41:21Z</time>
      </trkpt>
      <trkpt lat="46.61341" lon="12.29526">
        <ele>2355.85</ele>
        <time>2012-08-01T14:41:22Z</time>
      </trkpt>
      <trkpt lat="46.61342" lon="12.29525">
        <ele>2354.89</ele>
        <time>2012-08-01T14:41:48Z</time>
      </trkpt>
      <trkpt lat="46.61343" lon="12.2953">
        <ele>2355.37</ele>
        <time>2012-08-01T14:42:01Z</time>
      </trkpt>
      <trkpt lat="46.61343" lon="12.29529">
        <ele>2355.37</ele>
        <time>2012-08-01T14:42:20Z</time>
      </trkpt>
      <trkpt lat="46.61343" lon="12.29553">
        <ele>2355.37</ele>
        <time>2012-08-01T14:42:25Z</time>
      </trkpt>
      <trkpt lat="46.61344" lon="12.2957">
        <ele>2355.37</ele>
        <time>2012-08-01T14:42:28Z</time>
      </trkpt>
      <trkpt lat="46.61342" lon="12.29574">
        <ele>2354.89</ele>
        <time>2012-08-01T14:42:29Z</time>
      </trkpt>
      <trkpt lat="46.6134" lon="12.29577">
        <ele>2354.89</ele>
        <time>2012-08-01T14:42:30Z</time>
      </trkpt>
      <trkpt lat="46.61336" lon="12.2958">
        <ele>2354.41</ele>
        <time>2012-08-01T14:42:31Z</time>
      </trkpt>
      <trkpt lat="46.61331" lon="12.29582">
        <ele>2354.41</ele>
        <time>2012-08-01T14:42:32Z</time>
      </trkpt>
      <trkpt lat="46.61326" lon="12.29582">
        <ele>2353.93</ele>
        <time>2012-08-01T14:42:33Z</time>
      </trkpt>
      <trkpt lat="46.61321" lon="12.2958">
        <ele>2353.44</ele>
        <time>2012-08-01T14:42:34Z</time>
      </trkpt>
      <trkpt lat="46.61317" lon="12.29575">
        <ele>2352.48</ele>
        <time>2012-08-01T14:42:35Z</time>
      </trkpt>
      <trkpt lat="46.61315" lon="12.2957">
        <ele>2352.48</ele>
        <time>2012-08-01T14:42:36Z</time>
      </trkpt>
      <trkpt lat="46.61313" lon="12.29563">
        <ele>2351.52</ele>
        <time>2012-08-01T14:42:37Z</time>
      </trkpt>
      <trkpt lat="46.61313" lon="12.29556">
        <ele>2351.04</ele>
        <time>2012-08-01T14:42:38Z</time>
      </trkpt>
      <trkpt lat="46.61313" lon="12.29549">
        <ele>2351.04</ele>
        <time>2012-08-01T14:42:39Z</time>
      </trkpt>
      <trkpt lat="46.61314" lon="12.29542">
        <ele>2350.56</ele>
        <time>2012-08-01T14:42:40Z</time>
      </trkpt>
      <trkpt lat="46.61317" lon="12.29535">
        <ele>2350.08</ele>
        <time>2012-08-01T14:42:41Z</time>
      </trkpt>
      <trkpt lat="46.61321" lon="12.29528">
        <ele>2349.6</ele>
        <time>2012-08-01T14:42:42Z</time>
      </trkpt>
      <trkpt lat="46.61325" lon="12.2952">
        <ele>2349.12</ele>
        <time>2012-08-01T14:42:43Z</time>
      </trkpt>
      <trkpt lat="46.61345" lon="12.29477">
        <ele>2345.75</ele>
        <time>2012-08-01T14:42:48Z</time>
      </trkpt>
      <trkpt lat="46.61348" lon="12.29468">
        <ele>2344.31</ele>
        <time>2012-08-01T14:42:49Z</time>
      </trkpt>
      <trkpt lat="46.61362" lon="12.29421">
        <ele>2340.95</ele>
        <time>2012-08-01T14:42:54Z</time>
      </trkpt>
      <trkpt lat="46.61364" lon="12.2941">
        <ele>2340.47</ele>
        <time>2012-08-01T14:42:55Z</time>
      </trkpt>
      <trkpt lat="46.61374" lon="12.29372">
        <ele>2337.58</ele>
        <time>2012-08-01T14:42:59Z</time>
      </trkpt>
      <trkpt lat="46.61384" lon="12.29333">
        <ele>2334.22</ele>
        <time>2012-08-01T14:43:03Z</time>
      </trkpt>
      <trkpt lat="46.61389" lon="12.29314">
        <ele>2332.78</ele>
        <time>2012-08-01T14:43:05Z</time>
      </trkpt>
      <trkpt lat="46.6139" lon="12.29306">
        <ele>2331.81</ele>
        <time>2012-08-01T14:43:06Z</time>
      </trkpt>
      <trkpt lat="46.6139" lon="12.29299">
        <ele>2331.33</ele>
        <time>2012-08-01T14:43:07Z</time>
      </trkpt>
      <trkpt lat="46.61388" lon="12.29293">
        <ele>2331.33</ele>
        <time>2012-08-01T14:43:08Z</time>
      </trkpt>
      <trkpt lat="46.61384" lon="12.2929">
        <ele>2330.85</ele>
        <time>2012-08-01T14:43:09Z</time>
      </trkpt>
      <trkpt lat="46.61379" lon="12.2929">
        <ele>2330.37</ele>
        <time>2012-08-01T14:43:10Z</time>
      </trkpt>
      <trkpt lat="46.61373" lon="12.29293">
        <ele>2329.41</ele>
        <time>2012-08-01T14:43:11Z</time>
      </trkpt>
      <trkpt lat="46.61367" lon="12.29299">
        <ele>2328.45</ele>
        <time>2012-08-01T14:43:12Z</time>
      </trkpt>
      <trkpt lat="46.6136" lon="12.29306">
        <ele>2327.01</ele>
        <time>2012-08-01T14:43:13Z</time>
      </trkpt>
      <trkpt lat="46.61343" lon="12.29321">
        <ele>2324.61</ele>
        <time>2012-08-01T14:43:15Z</time>
      </trkpt>
      <trkpt lat="46.61321" lon="12.29335">
        <ele>2321.24</ele>
        <time>2012-08-01T14:43:17Z</time>
      </trkpt>
      <trkpt lat="46.61298" lon="12.29348">
        <ele>2316.43</ele>
        <time>2012-08-01T14:43:19Z</time>
      </trkpt>
      <trkpt lat="46.61279" lon="12.29359">
        <ele>2312.11</ele>
        <time>2012-08-01T14:43:21Z</time>
      </trkpt>
      <trkpt lat="46.61257" lon="12.29371">
        <ele>2307.3</ele>
        <time>2012-08-01T14:43:24Z</time>
      </trkpt>
      <trkpt lat="46.61243" lon="12.29383">
        <ele>2305.38</ele>
        <time>2012-08-01T14:43:27Z</time>
      </trkpt>
      <trkpt lat="46.61216" lon="12.29421">
        <ele>2302.01</ele>
        <time>2012-08-01T14:43:31Z</time>
      </trkpt>
      <trkpt lat="46.61195" lon="12.29453">
        <ele>2298.65</ele>
        <time>2012-08-01T14:43:35Z</time>
      </trkpt>
      <trkpt lat="46.61173" lon="12.29486">
        <ele>2294.32</ele>
        <time>2012-08-01T14:43:39Z</time>
      </trkpt>
      <trkpt lat="46.61149" lon="12.29518">
        <ele>2290.48</ele>
        <time>2012-08-01T14:43:43Z</time>
      </trkpt>
      <trkpt lat="46.61142" lon="12.29523">
        <ele>2289.04</ele>
        <time>2012-08-01T14:43:44Z</time>
      </trkpt>
      <trkpt lat="46.61135" lon="12.29526">
        <ele>2288.08</ele>
        <time>2012-08-01T14:43:45Z</time>
      </trkpt>
      <trkpt lat="46.61122" lon="12.29531">
        <ele>2285.67</ele>
        <time>2012-08-01T14:43:47Z</time>
      </trkpt>
      <trkpt lat="46.61116" lon="12.29536">
        <ele>2284.71</ele>
        <time>2012-08-01T14:43:48Z</time>
      </trkpt>
      <trkpt lat="46.6111" lon="12.29542">
        <ele>2283.75</ele>
        <time>2012-08-01T14:43:49Z</time>
      </trkpt>
      <trkpt lat="46.61103" lon="12.29549">
        <ele>2282.79</ele>
        <time>2012-08-01T14:43:50Z</time>
      </trkpt>
      <trkpt lat="46.61098" lon="12.29556">
        <ele>2281.35</ele>
        <time>2012-08-01T14:43:51Z</time>
      </trkpt>
      <trkpt lat="46.61086" lon="12.29571">
        <ele>2279.42</ele>
        <time>2012-08-01T14:43:53Z</time>
      </trkpt>
      <trkpt lat="46.61079" lon="12.29577">
        <ele>2277.98</ele>
        <time>2012-08-01T14:43:54Z</time>
      </trkpt>
      <trkpt lat="46.61071" lon="12.29582">
        <ele>2277.02</ele>
        <time>2012-08-01T14:43:55Z</time>
      </trkpt>
      <trkpt lat="46.61045" lon="12.29597">
        <ele>2272.69</ele>
        <time>2012-08-01T14:43:58Z</time>
      </trkpt>
      <trkpt lat="46.61018" lon="12.29612">
        <ele>2268.85</ele>
        <time>2012-08-01T14:44:01Z</time>
      </trkpt>
      <trkpt lat="46.61001" lon="12.2962">
        <ele>2265.96</ele>
        <time>2012-08-01T14:44:03Z</time>
      </trkpt>
      <trkpt lat="46.60994" lon="12.29626">
        <ele>2264.52</ele>
        <time>2012-08-01T14:44:04Z</time>
      </trkpt>
      <trkpt lat="46.60987" lon="12.29634">
        <ele>2262.6</ele>
        <time>2012-08-01T14:44:05Z</time>
      </trkpt>
      <trkpt lat="46.60975" lon="12.2965">
        <ele>2260.68</ele>
        <time>2012-08-01T14:44:07Z</time>
      </trkpt>
      <trkpt lat="46.60968" lon="12.29656">
        <ele>2259.24</ele>
        <time>2012-08-01T14:44:08Z</time>
      </trkpt>
      <trkpt lat="46.60947" lon="12.29673">
        <ele>2255.39</ele>
        <time>2012-08-01T14:44:11Z</time>
      </trkpt>
      <trkpt lat="46.60919" lon="12.29699">
        <ele>2251.54</ele>
        <time>2012-08-01T14:44:15Z</time>
      </trkpt>
      <trkpt lat="46.60911" lon="12.29704">
        <ele>2250.58</ele>
        <time>2012-08-01T14:44:16Z</time>
      </trkpt>
      <trkpt lat="46.60903" lon="12.29707">
        <ele>2249.62</ele>
        <time>2012-08-01T14:44:17Z</time>
      </trkpt>
      <trkpt lat="46.60895" lon="12.29708">
        <ele>2248.18</ele>
        <time>2012-08-01T14:44:18Z</time>
      </trkpt>
      <trkpt lat="46.60879" lon="12.2971">
        <ele>2246.26</ele>
        <time>2012-08-01T14:44:20Z</time>
      </trkpt>
      <trkpt lat="46.60872" lon="12.29715">
        <ele>2245.78</ele>
        <time>2012-08-01T14:44:21Z</time>
      </trkpt>
      <trkpt lat="46.60868" lon="12.29721">
        <ele>2244.33</ele>
        <time>2012-08-01T14:44:22Z</time>
      </trkpt>
      <trkpt lat="46.60865" lon="12.29731">
        <ele>2243.37</ele>
        <time>2012-08-01T14:44:23Z</time>
      </trkpt>
      <trkpt lat="46.60863" lon="12.2974">
        <ele>2242.89</ele>
        <time>2012-08-01T14:44:24Z</time>
      </trkpt>
      <trkpt lat="46.60861" lon="12.29747">
        <ele>2241.93</ele>
        <time>2012-08-01T14:44:25Z</time>
      </trkpt>
      <trkpt lat="46.60858" lon="12.29753">
        <ele>2242.41</ele>
        <time>2012-08-01T14:44:26Z</time>
      </trkpt>
      <trkpt lat="46.60853" lon="12.29755">
        <ele>2241.45</ele>
        <time>2012-08-01T14:44:27Z</time>
      </trkpt>
      <trkpt lat="46.60849" lon="12.29754">
        <ele>2240.97</ele>
        <time>2012-08-01T14:44:28Z</time>
      </trkpt>
      <trkpt lat="46.60846" lon="12.2975">
        <ele>2240.97</ele>
        <time>2012-08-01T14:44:29Z</time>
      </trkpt>
      <trkpt lat="46.60843" lon="12.29744">
        <ele>2240.49</ele>
        <time>2012-08-01T14:44:30Z</time>
      </trkpt>
      <trkpt lat="46.60843" lon="12.29736">
        <ele>2240.49</ele>
        <time>2012-08-01T14:44:31Z</time>
      </trkpt>
      <trkpt lat="46.60845" lon="12.29728">
        <ele>2239.53</ele>
        <time>2012-08-01T14:44:32Z</time>
      </trkpt>
      <trkpt lat="46.60848" lon="12.29721">
        <ele>2239.05</ele>
        <time>2012-08-01T14:44:33Z</time>
      </trkpt>
      <trkpt lat="46.60853" lon="12.29714">
        <ele>2238.09</ele>
        <time>2012-08-01T14:44:34Z</time>
      </trkpt>
      <trkpt lat="46.60868" lon="12.29691">
        <ele>2234.72</ele>
        <time>2012-08-01T14:44:37Z</time>
      </trkpt>
      <trkpt lat="46.60874" lon="12.29684">
        <ele>2233.76</ele>
        <time>2012-08-01T14:44:38Z</time>
      </trkpt>
      <trkpt lat="46.6088" lon="12.29678">
        <ele>2232.8</ele>
        <time>2012-08-01T14:44:39Z</time>
      </trkpt>
      <trkpt lat="46.60898" lon="12.29662">
        <ele>2229.43</ele>
        <time>2012-08-01T14:44:42Z</time>
      </trkpt>
      <trkpt lat="46.60902" lon="12.29656">
        <ele>2228.47</ele>
        <time>2012-08-01T14:44:43Z</time>
      </trkpt>
      <trkpt lat="46.60904" lon="12.2965">
        <ele>2228.47</ele>
        <time>2012-08-01T14:44:44Z</time>
      </trkpt>
      <trkpt lat="46.60919" lon="12.29574">
        <ele>2223.19</ele>
        <time>2012-08-01T14:44:49Z</time>
      </trkpt>
      <trkpt lat="46.6092" lon="12.29556">
        <ele>2220.78</ele>
        <time>2012-08-01T14:44:50Z</time>
      </trkpt>
      <trkpt lat="46.60919" lon="12.29539">
        <ele>2218.86</ele>
        <time>2012-08-01T14:44:51Z</time>
      </trkpt>
      <trkpt lat="46.60916" lon="12.29523">
        <ele>2216.94</ele>
        <time>2012-08-01T14:44:52Z</time>
      </trkpt>
      <trkpt lat="46.60911" lon="12.29508">
        <ele>2215.5</ele>
        <time>2012-08-01T14:44:53Z</time>
      </trkpt>
      <trkpt lat="46.60905" lon="12.29495">
        <ele>2213.57</ele>
        <time>2012-08-01T14:44:54Z</time>
      </trkpt>
      <trkpt lat="46.60896" lon="12.29484">
        <ele>2211.65</ele>
        <time>2012-08-01T14:44:55Z</time>
      </trkpt>
      <trkpt lat="46.60885" lon="12.29477">
        <ele>2210.69</ele>
        <time>2012-08-01T14:44:56Z</time>
      </trkpt>
      <trkpt lat="46.60871" lon="12.29474">
        <ele>2209.73</ele>
        <time>2012-08-01T14:44:57Z</time>
      </trkpt>
      <trkpt lat="46.60857" lon="12.29473">
        <ele>2208.29</ele>
        <time>2012-08-01T14:44:58Z</time>
      </trkpt>
      <trkpt lat="46.60843" lon="12.29472">
        <ele>2206.36</ele>
        <time>2012-08-01T14:44:59Z</time>
      </trkpt>
      <trkpt lat="46.6083" lon="12.29469">
        <ele>2203.96</ele>
        <time>2012-08-01T14:45:00Z</time>
      </trkpt>
      <trkpt lat="46.60818" lon="12.29461">
        <ele>2201.56</ele>
        <time>2012-08-01T14:45:01Z</time>
      </trkpt>
      <trkpt lat="46.60808" lon="12.29449">
        <ele>2199.63</ele>
        <time>2012-08-01T14:45:02Z</time>
      </trkpt>
      <trkpt lat="46.60791" lon="12.29424">
        <ele>2196.27</ele>
        <time>2012-08-01T14:45:04Z</time>
      </trkpt>
      <trkpt lat="46.60782" lon="12.29417">
        <ele>2194.35</ele>
        <time>2012-08-01T14:45:05Z</time>
      </trkpt>
      <trkpt lat="46.60772" lon="12.29414">
        <ele>2192.9</ele>
        <time>2012-08-01T14:45:06Z</time>
      </trkpt>
      <trkpt lat="46.60761" lon="12.29416">
        <ele>2192.42</ele>
        <time>2012-08-01T14:45:07Z</time>
      </trkpt>
      <trkpt lat="46.60749" lon="12.29421">
        <ele>2192.42</ele>
        <time>2012-08-01T14:45:08Z</time>
      </trkpt>
      <trkpt lat="46.60737" lon="12.29429">
        <ele>2191.46</ele>
        <time>2012-08-01T14:45:09Z</time>
      </trkpt>
      <trkpt lat="46.60713" lon="12.29443">
        <ele>2188.58</ele>
        <time>2012-08-01T14:45:11Z</time>
      </trkpt>
      <trkpt lat="46.60691" lon="12.29457">
        <ele>2184.73</ele>
        <time>2012-08-01T14:45:13Z</time>
      </trkpt>
      <trkpt lat="46.60681" lon="12.29465">
        <ele>2182.81</ele>
        <time>2012-08-01T14:45:14Z</time>
      </trkpt>
      <trkpt lat="46.60674" lon="12.29475">
        <ele>2181.37</ele>
        <time>2012-08-01T14:45:15Z</time>
      </trkpt>
      <trkpt lat="46.60668" lon="12.29483">
        <ele>2180.41</ele>
        <time>2012-08-01T14:45:16Z</time>
      </trkpt>
      <trkpt lat="46.60662" lon="12.29487">
        <ele>2178.48</ele>
        <time>2012-08-01T14:45:17Z</time>
      </trkpt>
      <trkpt lat="46.60656" lon="12.29486">
        <ele>2178</ele>
        <time>2012-08-01T14:45:18Z</time>
      </trkpt>
      <trkpt lat="46.60652" lon="12.29479">
        <ele>2176.56</ele>
        <time>2012-08-01T14:45:19Z</time>
      </trkpt>
      <trkpt lat="46.60651" lon="12.2947">
        <ele>2175.6</ele>
        <time>2012-08-01T14:45:20Z</time>
      </trkpt>
      <trkpt lat="46.60654" lon="12.29459">
        <ele>2174.64</ele>
        <time>2012-08-01T14:45:21Z</time>
      </trkpt>
      <trkpt lat="46.60661" lon="12.29448">
        <ele>2173.68</ele>
        <time>2012-08-01T14:45:22Z</time>
      </trkpt>
      <trkpt lat="46.60669" lon="12.29436">
        <ele>2172.72</ele>
        <time>2012-08-01T14:45:23Z</time>
      </trkpt>
      <trkpt lat="46.60686" lon="12.29413">
        <ele>2168.39</ele>
        <time>2012-08-01T14:45:25Z</time>
      </trkpt>
      <trkpt lat="46.60705" lon="12.29386">
        <ele>2164.55</ele>
        <time>2012-08-01T14:45:28Z</time>
      </trkpt>
      <trkpt lat="46.60708" lon="12.29379">
        <ele>2162.62</ele>
        <time>2012-08-01T14:45:29Z</time>
      </trkpt>
      <trkpt lat="46.60711" lon="12.29372">
        <ele>2161.18</ele>
        <time>2012-08-01T14:45:30Z</time>
      </trkpt>
      <trkpt lat="46.60713" lon="12.29368">
        <ele>2160.7</ele>
        <time>2012-08-01T14:45:31Z</time>
      </trkpt>
      <trkpt lat="46.60715" lon="12.29364">
        <ele>2159.74</ele>
        <time>2012-08-01T14:45:32Z</time>
      </trkpt>
      <trkpt lat="46.60716" lon="12.29362">
        <ele>2159.74</ele>
        <time>2012-08-01T14:45:33Z</time>
      </trkpt>
      <trkpt lat="46.60717" lon="12.2936">
        <ele>2158.78</ele>
        <time>2012-08-01T14:45:47Z</time>
      </trkpt>
      <trkpt lat="46.60717" lon="12.29356">
        <ele>2159.26</ele>
        <time>2012-08-01T14:46:24Z</time>
      </trkpt>
      <trkpt lat="46.60725" lon="12.29348">
        <ele>2157.82</ele>
        <time>2012-08-01T14:46:27Z</time>
      </trkpt>
      <trkpt lat="46.60751" lon="12.29323">
        <ele>2154.45</ele>
        <time>2012-08-01T14:46:32Z</time>
      </trkpt>
      <trkpt lat="46.60755" lon="12.29317">
        <ele>2153.49</ele>
        <time>2012-08-01T14:46:33Z</time>
      </trkpt>
      <trkpt lat="46.60757" lon="12.29308">
        <ele>2152.05</ele>
        <time>2012-08-01T14:46:34Z</time>
      </trkpt>
      <trkpt lat="46.60755" lon="12.293">
        <ele>2151.57</ele>
        <time>2012-08-01T14:46:35Z</time>
      </trkpt>
      <trkpt lat="46.60749" lon="12.29295">
        <ele>2150.61</ele>
        <time>2012-08-01T14:46:36Z</time>
      </trkpt>
      <trkpt lat="46.60741" lon="12.29293">
        <ele>2149.65</ele>
        <time>2012-08-01T14:46:37Z</time>
      </trkpt>
      <trkpt lat="46.60733" lon="12.29296">
        <ele>2148.68</ele>
        <time>2012-08-01T14:46:38Z</time>
      </trkpt>
      <trkpt lat="46.60726" lon="12.29303">
        <ele>2147.72</ele>
        <time>2012-08-01T14:46:39Z</time>
      </trkpt>
      <trkpt lat="46.60721" lon="12.29312">
        <ele>2146.28</ele>
        <time>2012-08-01T14:46:40Z</time>
      </trkpt>
      <trkpt lat="46.60718" lon="12.29321">
        <ele>2145.32</ele>
        <time>2012-08-01T14:46:41Z</time>
      </trkpt>
      <trkpt lat="46.60714" lon="12.29327">
        <ele>2145.32</ele>
        <time>2012-08-01T14:46:42Z</time>
      </trkpt>
      <trkpt lat="46.60708" lon="12.29328">
        <ele>2144.36</ele>
        <time>2012-08-01T14:46:43Z</time>
      </trkpt>
      <trkpt lat="46.60702" lon="12.29324">
        <ele>2143.88</ele>
        <time>2012-08-01T14:46:44Z</time>
      </trkpt>
      <trkpt lat="46.60699" lon="12.29307">
        <ele>2142.44</ele>
        <time>2012-08-01T14:46:46Z</time>
      </trkpt>
      <trkpt lat="46.60703" lon="12.29297">
        <ele>2141.95</ele>
        <time>2012-08-01T14:46:47Z</time>
      </trkpt>
      <trkpt lat="46.60709" lon="12.29288">
        <ele>2140.99</ele>
        <time>2012-08-01T14:46:48Z</time>
      </trkpt>
      <trkpt lat="46.60715" lon="12.29278">
        <ele>2139.55</ele>
        <time>2012-08-01T14:46:49Z</time>
      </trkpt>
      <trkpt lat="46.60738" lon="12.29244">
        <ele>2135.71</ele>
        <time>2012-08-01T14:46:52Z</time>
      </trkpt>
      <trkpt lat="46.60752" lon="12.29215">
        <ele>2132.34</ele>
        <time>2012-08-01T14:46:54Z</time>
      </trkpt>
      <trkpt lat="46.60756" lon="12.29198">
        <ele>2130.9</ele>
        <time>2012-08-01T14:46:55Z</time>
      </trkpt>
      <trkpt lat="46.6076" lon="12.29179">
        <ele>2129.46</ele>
        <time>2012-08-01T14:46:56Z</time>
      </trkpt>
      <trkpt lat="46.60765" lon="12.29142">
        <ele>2125.13</ele>
        <time>2012-08-01T14:46:58Z</time>
      </trkpt>
      <trkpt lat="46.60766" lon="12.29124">
        <ele>2123.21</ele>
        <time>2012-08-01T14:46:59Z</time>
      </trkpt>
      <trkpt lat="46.60766" lon="12.29092">
        <ele>2118.4</ele>
        <time>2012-08-01T14:47:01Z</time>
      </trkpt>
      <trkpt lat="46.6077" lon="12.29079">
        <ele>2116.48</ele>
        <time>2012-08-01T14:47:02Z</time>
      </trkpt>
      <trkpt lat="46.60773" lon="12.29067">
        <ele>2114.56</ele>
        <time>2012-08-01T14:47:03Z</time>
      </trkpt>
      <trkpt lat="46.60774" lon="12.29057">
        <ele>2113.6</ele>
        <time>2012-08-01T14:47:04Z</time>
      </trkpt>
      <trkpt lat="46.6077" lon="12.29049">
        <ele>2112.63</ele>
        <time>2012-08-01T14:47:05Z</time>
      </trkpt>
      <trkpt lat="46.60764" lon="12.29045">
        <ele>2111.67</ele>
        <time>2012-08-01T14:47:06Z</time>
      </trkpt>
      <trkpt lat="46.60755" lon="12.29045">
        <ele>2111.19</ele>
        <time>2012-08-01T14:47:07Z</time>
      </trkpt>
      <trkpt lat="46.60745" lon="12.29049">
        <ele>2110.23</ele>
        <time>2012-08-01T14:47:08Z</time>
      </trkpt>
      <trkpt lat="46.60734" lon="12.29056">
        <ele>2109.27</ele>
        <time>2012-08-01T14:47:09Z</time>
      </trkpt>
      <trkpt lat="46.60725" lon="12.29066">
        <ele>2106.87</ele>
        <time>2012-08-01T14:47:10Z</time>
      </trkpt>
      <trkpt lat="46.60719" lon="12.29077">
        <ele>2105.42</ele>
        <time>2012-08-01T14:47:11Z</time>
      </trkpt>
      <trkpt lat="46.60713" lon="12.29087">
        <ele>2103.98</ele>
        <time>2012-08-01T14:47:12Z</time>
      </trkpt>
      <trkpt lat="46.60706" lon="12.29094">
        <ele>2102.06</ele>
        <time>2012-08-01T14:47:13Z</time>
      </trkpt>
      <trkpt lat="46.607" lon="12.29094">
        <ele>2100.14</ele>
        <time>2012-08-01T14:47:14Z</time>
      </trkpt>
      <trkpt lat="46.60694" lon="12.29087">
        <ele>2099.66</ele>
        <time>2012-08-01T14:47:15Z</time>
      </trkpt>
      <trkpt lat="46.60693" lon="12.29076">
        <ele>2098.21</ele>
        <time>2012-08-01T14:47:16Z</time>
      </trkpt>
      <trkpt lat="46.60696" lon="12.29064">
        <ele>2096.77</ele>
        <time>2012-08-01T14:47:17Z</time>
      </trkpt>
      <trkpt lat="46.607" lon="12.29052">
        <ele>2096.29</ele>
        <time>2012-08-01T14:47:18Z</time>
      </trkpt>
      <trkpt lat="46.60704" lon="12.29039">
        <ele>2094.85</ele>
        <time>2012-08-01T14:47:19Z</time>
      </trkpt>
      <trkpt lat="46.60709" lon="12.29025">
        <ele>2093.41</ele>
        <time>2012-08-01T14:47:20Z</time>
      </trkpt>
      <trkpt lat="46.60712" lon="12.29009">
        <ele>2092.45</ele>
        <time>2012-08-01T14:47:21Z</time>
      </trkpt>
      <trkpt lat="46.60715" lon="12.28993">
        <ele>2090.04</ele>
        <time>2012-08-01T14:47:22Z</time>
      </trkpt>
      <trkpt lat="46.60717" lon="12.28977">
        <ele>2089.08</ele>
        <time>2012-08-01T14:47:23Z</time>
      </trkpt>
      <trkpt lat="46.60721" lon="12.28962">
        <ele>2087.16</ele>
        <time>2012-08-01T14:47:24Z</time>
      </trkpt>
      <trkpt lat="46.60729" lon="12.2895">
        <ele>2085.72</ele>
        <time>2012-08-01T14:47:25Z</time>
      </trkpt>
      <trkpt lat="46.60738" lon="12.2894">
        <ele>2083.31</ele>
        <time>2012-08-01T14:47:26Z</time>
      </trkpt>
      <trkpt lat="46.60746" lon="12.28928">
        <ele>2081.87</ele>
        <time>2012-08-01T14:47:27Z</time>
      </trkpt>
      <trkpt lat="46.60753" lon="12.28912">
        <ele>2080.43</ele>
        <time>2012-08-01T14:47:28Z</time>
      </trkpt>
      <trkpt lat="46.60759" lon="12.28893">
        <ele>2079.47</ele>
        <time>2012-08-01T14:47:29Z</time>
      </trkpt>
      <trkpt lat="46.60764" lon="12.28873">
        <ele>2077.07</ele>
        <time>2012-08-01T14:47:30Z</time>
      </trkpt>
      <trkpt lat="46.60771" lon="12.28854">
        <ele>2074.66</ele>
        <time>2012-08-01T14:47:31Z</time>
      </trkpt>
      <trkpt lat="46.60786" lon="12.28812">
        <ele>2070.82</ele>
        <time>2012-08-01T14:47:33Z</time>
      </trkpt>
      <trkpt lat="46.60794" lon="12.28788">
        <ele>2066.97</ele>
        <time>2012-08-01T14:47:34Z</time>
      </trkpt>
      <trkpt lat="46.608" lon="12.28765">
        <ele>2066.49</ele>
        <time>2012-08-01T14:47:35Z</time>
      </trkpt>
      <trkpt lat="46.60805" lon="12.28742">
        <ele>2061.68</ele>
        <time>2012-08-01T14:47:36Z</time>
      </trkpt>
      <trkpt lat="46.60814" lon="12.28698">
        <ele>2057.36</ele>
        <time>2012-08-01T14:47:38Z</time>
      </trkpt>
      <trkpt lat="46.60817" lon="12.28679">
        <ele>2053.99</ele>
        <time>2012-08-01T14:47:39Z</time>
      </trkpt>
      <trkpt lat="46.60819" lon="12.28659">
        <ele>2050.63</ele>
        <time>2012-08-01T14:47:40Z</time>
      </trkpt>
      <trkpt lat="46.60823" lon="12.28637">
        <ele>2047.75</ele>
        <time>2012-08-01T14:47:41Z</time>
      </trkpt>
      <trkpt lat="46.6083" lon="12.28621">
        <ele>2045.34</ele>
        <time>2012-08-01T14:47:42Z</time>
      </trkpt>
      <trkpt lat="46.60837" lon="12.28607">
        <ele>2043.42</ele>
        <time>2012-08-01T14:47:43Z</time>
      </trkpt>
      <trkpt lat="46.60842" lon="12.2859">
        <ele>2041.98</ele>
        <time>2012-08-01T14:47:44Z</time>
      </trkpt>
      <trkpt lat="46.60844" lon="12.2857">
        <ele>2041.98</ele>
        <time>2012-08-01T14:47:45Z</time>
      </trkpt>
      <trkpt lat="46.60843" lon="12.28547">
        <ele>2041.02</ele>
        <time>2012-08-01T14:47:46Z</time>
      </trkpt>
      <trkpt lat="46.6084" lon="12.28526">
        <ele>2038.61</ele>
        <time>2012-08-01T14:47:47Z</time>
      </trkpt>
      <trkpt lat="46.60837" lon="12.28506">
        <ele>2036.69</ele>
        <time>2012-08-01T14:47:48Z</time>
      </trkpt>
      <trkpt lat="46.60832" lon="12.28487">
        <ele>2033.81</ele>
        <time>2012-08-01T14:47:49Z</time>
      </trkpt>
      <trkpt lat="46.60825" lon="12.28468">
        <ele>2031.88</ele>
        <time>2012-08-01T14:47:50Z</time>
      </trkpt>
      <trkpt lat="46.60819" lon="12.28449">
        <ele>2029</ele>
        <time>2012-08-01T14:47:51Z</time>
      </trkpt>
      <trkpt lat="46.60808" lon="12.28408">
        <ele>2024.67</ele>
        <time>2012-08-01T14:47:53Z</time>
      </trkpt>
      <trkpt lat="46.608" lon="12.28365">
        <ele>2020.83</ele>
        <time>2012-08-01T14:47:55Z</time>
      </trkpt>
      <trkpt lat="46.60796" lon="12.2835">
        <ele>2019.87</ele>
        <time>2012-08-01T14:47:56Z</time>
      </trkpt>
      <trkpt lat="46.6079" lon="12.28334">
        <ele>2016.98</ele>
        <time>2012-08-01T14:47:57Z</time>
      </trkpt>
      <trkpt lat="46.60783" lon="12.28319">
        <ele>2015.54</ele>
        <time>2012-08-01T14:47:58Z</time>
      </trkpt>
      <trkpt lat="46.60773" lon="12.2829">
        <ele>2011.7</ele>
        <time>2012-08-01T14:48:00Z</time>
      </trkpt>
      <trkpt lat="46.60771" lon="12.28273">
        <ele>2009.29</ele>
        <time>2012-08-01T14:48:01Z</time>
      </trkpt>
      <trkpt lat="46.60768" lon="12.28239">
        <ele>2006.41</ele>
        <time>2012-08-01T14:48:03Z</time>
      </trkpt>
      <trkpt lat="46.60768" lon="12.28188">
        <ele>2002.56</ele>
        <time>2012-08-01T14:48:06Z</time>
      </trkpt>
      <trkpt lat="46.6077" lon="12.28169">
        <ele>2002.56</ele>
        <time>2012-08-01T14:48:07Z</time>
      </trkpt>
      <trkpt lat="46.60779" lon="12.28098">
        <ele>1998.72</ele>
        <time>2012-08-01T14:48:10Z</time>
      </trkpt>
      <trkpt lat="46.60785" lon="12.28041">
        <ele>1995.35</ele>
        <time>2012-08-01T14:48:12Z</time>
      </trkpt>
      <trkpt lat="46.60787" lon="12.28011">
        <ele>1991.03</ele>
        <time>2012-08-01T14:48:13Z</time>
      </trkpt>
      <trkpt lat="46.60792" lon="12.27951">
        <ele>1986.7</ele>
        <time>2012-08-01T14:48:15Z</time>
      </trkpt>
      <trkpt lat="46.60799" lon="12.27893">
        <ele>1981.41</ele>
        <time>2012-08-01T14:48:17Z</time>
      </trkpt>
      <trkpt lat="46.60808" lon="12.27838">
        <ele>1978.05</ele>
        <time>2012-08-01T14:48:19Z</time>
      </trkpt>
      <trkpt lat="46.60818" lon="12.27788">
        <ele>1974.69</ele>
        <time>2012-08-01T14:48:21Z</time>
      </trkpt>
      <trkpt lat="46.60827" lon="12.27749">
        <ele>1970.36</ele>
        <time>2012-08-01T14:48:23Z</time>
      </trkpt>
      <trkpt lat="46.60831" lon="12.27733">
        <ele>1967.96</ele>
        <time>2012-08-01T14:48:24Z</time>
      </trkpt>
      <trkpt lat="46.60837" lon="12.2772">
        <ele>1966.99</ele>
        <time>2012-08-01T14:48:25Z</time>
      </trkpt>
      <trkpt lat="46.60842" lon="12.27709">
        <ele>1966.03</ele>
        <time>2012-08-01T14:48:26Z</time>
      </trkpt>
      <trkpt lat="46.60847" lon="12.277">
        <ele>1965.07</ele>
        <time>2012-08-01T14:48:27Z</time>
      </trkpt>
      <trkpt lat="46.6085" lon="12.27691">
        <ele>1964.59</ele>
        <time>2012-08-01T14:48:28Z</time>
      </trkpt>
      <trkpt lat="46.60851" lon="12.27684">
        <ele>1964.11</ele>
        <time>2012-08-01T14:48:29Z</time>
      </trkpt>
      <trkpt lat="46.60849" lon="12.27678">
        <ele>1964.11</ele>
        <time>2012-08-01T14:48:30Z</time>
      </trkpt>
      <trkpt lat="46.60844" lon="12.27674">
        <ele>1963.63</ele>
        <time>2012-08-01T14:48:31Z</time>
      </trkpt>
      <trkpt lat="46.60838" lon="12.27673">
        <ele>1963.63</ele>
        <time>2012-08-01T14:48:32Z</time>
      </trkpt>
      <trkpt lat="46.60831" lon="12.27676">
        <ele>1964.11</ele>
        <time>2012-08-01T14:48:33Z</time>
      </trkpt>
      <trkpt lat="46.60825" lon="12.27682">
        <ele>1963.15</ele>
        <time>2012-08-01T14:48:34Z</time>
      </trkpt>
      <trkpt lat="46.60819" lon="12.27689">
        <ele>1963.15</ele>
        <time>2012-08-01T14:48:35Z</time>
      </trkpt>
      <trkpt lat="46.60806" lon="12.27706">
        <ele>1960.75</ele>
        <time>2012-08-01T14:48:37Z</time>
      </trkpt>
      <trkpt lat="46.60801" lon="12.27718">
        <ele>1960.27</ele>
        <time>2012-08-01T14:48:38Z</time>
      </trkpt>
      <trkpt lat="46.60796" lon="12.27732">
        <ele>1958.82</ele>
        <time>2012-08-01T14:48:39Z</time>
      </trkpt>
      <trkpt lat="46.60791" lon="12.27747">
        <ele>1957.38</ele>
        <time>2012-08-01T14:48:40Z</time>
      </trkpt>
      <trkpt lat="46.60786" lon="12.2776">
        <ele>1955.94</ele>
        <time>2012-08-01T14:48:41Z</time>
      </trkpt>
      <trkpt lat="46.60779" lon="12.27771">
        <ele>1954.02</ele>
        <time>2012-08-01T14:48:42Z</time>
      </trkpt>
      <trkpt lat="46.60772" lon="12.27781">
        <ele>1953.06</ele>
        <time>2012-08-01T14:48:43Z</time>
      </trkpt>
      <trkpt lat="46.60764" lon="12.2779">
        <ele>1951.61</ele>
        <time>2012-08-01T14:48:44Z</time>
      </trkpt>
      <trkpt lat="46.6075" lon="12.27805">
        <ele>1949.69</ele>
        <time>2012-08-01T14:48:46Z</time>
      </trkpt>
      <trkpt lat="46.60744" lon="12.27811">
        <ele>1948.25</ele>
        <time>2012-08-01T14:48:47Z</time>
      </trkpt>
      <trkpt lat="46.60737" lon="12.27811">
        <ele>1947.29</ele>
        <time>2012-08-01T14:48:48Z</time>
      </trkpt>
      <trkpt lat="46.60733" lon="12.27806">
        <ele>1945.85</ele>
        <time>2012-08-01T14:48:49Z</time>
      </trkpt>
      <trkpt lat="46.6073" lon="12.27794">
        <ele>1945.36</ele>
        <time>2012-08-01T14:48:50Z</time>
      </trkpt>
      <trkpt lat="46.60729" lon="12.27778">
        <ele>1945.36</ele>
        <time>2012-08-01T14:48:51Z</time>
      </trkpt>
      <trkpt lat="46.60733" lon="12.2769">
        <ele>1941.04</ele>
        <time>2012-08-01T14:48:55Z</time>
      </trkpt>
      <trkpt lat="46.60734" lon="12.27645">
        <ele>1937.67</ele>
        <time>2012-08-01T14:48:57Z</time>
      </trkpt>
      <trkpt lat="46.60733" lon="12.27625">
        <ele>1935.27</ele>
        <time>2012-08-01T14:48:58Z</time>
      </trkpt>
      <trkpt lat="46.60731" lon="12.27605">
        <ele>1933.35</ele>
        <time>2012-08-01T14:48:59Z</time>
      </trkpt>
      <trkpt lat="46.60727" lon="12.27587">
        <ele>1931.43</ele>
        <time>2012-08-01T14:49:00Z</time>
      </trkpt>
      <trkpt lat="46.60718" lon="12.27554">
        <ele>1926.14</ele>
        <time>2012-08-01T14:49:02Z</time>
      </trkpt>
      <trkpt lat="46.60711" lon="12.27529">
        <ele>1923.25</ele>
        <time>2012-08-01T14:49:04Z</time>
      </trkpt>
      <trkpt lat="46.60709" lon="12.27517">
        <ele>1921.81</ele>
        <time>2012-08-01T14:49:05Z</time>
      </trkpt>
      <trkpt lat="46.60711" lon="12.27507">
        <ele>1920.85</ele>
        <time>2012-08-01T14:49:06Z</time>
      </trkpt>
      <trkpt lat="46.60716" lon="12.275">
        <ele>1919.89</ele>
        <time>2012-08-01T14:49:07Z</time>
      </trkpt>
      <trkpt lat="46.60726" lon="12.27488">
        <ele>1917.97</ele>
        <time>2012-08-01T14:49:09Z</time>
      </trkpt>
      <trkpt lat="46.60728" lon="12.27482">
        <ele>1917.01</ele>
        <time>2012-08-01T14:49:10Z</time>
      </trkpt>
      <trkpt lat="46.60726" lon="12.27475">
        <ele>1917.01</ele>
        <time>2012-08-01T14:49:11Z</time>
      </trkpt>
      <trkpt lat="46.60723" lon="12.2747">
        <ele>1916.53</ele>
        <time>2012-08-01T14:49:12Z</time>
      </trkpt>
      <trkpt lat="46.60717" lon="12.27467">
        <ele>1916.53</ele>
        <time>2012-08-01T14:49:13Z</time>
      </trkpt>
      <trkpt lat="46.6071" lon="12.27465">
        <ele>1915.56</ele>
        <time>2012-08-01T14:49:14Z</time>
      </trkpt>
      <trkpt lat="46.60703" lon="12.27465">
        <ele>1914.12</ele>
        <time>2012-08-01T14:49:15Z</time>
      </trkpt>
      <trkpt lat="46.60696" lon="12.27465">
        <ele>1913.64</ele>
        <time>2012-08-01T14:49:16Z</time>
      </trkpt>
      <trkpt lat="46.6069" lon="12.27464">
        <ele>1912.68</ele>
        <time>2012-08-01T14:49:17Z</time>
      </trkpt>
      <trkpt lat="46.60671" lon="12.27463">
        <ele>1909.8</ele>
        <time>2012-08-01T14:49:20Z</time>
      </trkpt>
      <trkpt lat="46.60666" lon="12.2746">
        <ele>1909.32</ele>
        <time>2012-08-01T14:49:21Z</time>
      </trkpt>
      <trkpt lat="46.60662" lon="12.27454">
        <ele>1908.83</ele>
        <time>2012-08-01T14:49:22Z</time>
      </trkpt>
      <trkpt lat="46.60662" lon="12.27446">
        <ele>1907.87</ele>
        <time>2012-08-01T14:49:23Z</time>
      </trkpt>
      <trkpt lat="46.60665" lon="12.27437">
        <ele>1906.91</ele>
        <time>2012-08-01T14:49:24Z</time>
      </trkpt>
      <trkpt lat="46.6067" lon="12.27429">
        <ele>1906.43</ele>
        <time>2012-08-01T14:49:25Z</time>
      </trkpt>
      <trkpt lat="46.60675" lon="12.27422">
        <ele>1904.51</ele>
        <time>2012-08-01T14:49:26Z</time>
      </trkpt>
      <trkpt lat="46.6068" lon="12.27413">
        <ele>1903.55</ele>
        <time>2012-08-01T14:49:27Z</time>
      </trkpt>
      <trkpt lat="46.60697" lon="12.27375">
        <ele>1899.7</ele>
        <time>2012-08-01T14:49:31Z</time>
      </trkpt>
      <trkpt lat="46.60706" lon="12.27356">
        <ele>1898.26</ele>
        <time>2012-08-01T14:49:33Z</time>
      </trkpt>
      <trkpt lat="46.60708" lon="12.27346">
        <ele>1897.78</ele>
        <time>2012-08-01T14:49:34Z</time>
      </trkpt>
      <trkpt lat="46.60707" lon="12.27337">
        <ele>1896.82</ele>
        <time>2012-08-01T14:49:35Z</time>
      </trkpt>
      <trkpt lat="46.60705" lon="12.27329">
        <ele>1895.86</ele>
        <time>2012-08-01T14:49:36Z</time>
      </trkpt>
      <trkpt lat="46.607" lon="12.27323">
        <ele>1894.9</ele>
        <time>2012-08-01T14:49:37Z</time>
      </trkpt>
      <trkpt lat="46.60693" lon="12.27319">
        <ele>1894.42</ele>
        <time>2012-08-01T14:49:38Z</time>
      </trkpt>
      <trkpt lat="46.60686" lon="12.27318">
        <ele>1893.45</ele>
        <time>2012-08-01T14:49:39Z</time>
      </trkpt>
      <trkpt lat="46.60679" lon="12.27317">
        <ele>1892.97</ele>
        <time>2012-08-01T14:49:40Z</time>
      </trkpt>
      <trkpt lat="46.60671" lon="12.27318">
        <ele>1892.49</ele>
        <time>2012-08-01T14:49:41Z</time>
      </trkpt>
      <trkpt lat="46.60663" lon="12.27322">
        <ele>1891.53</ele>
        <time>2012-08-01T14:49:42Z</time>
      </trkpt>
      <trkpt lat="46.60654" lon="12.27328">
        <ele>1891.05</ele>
        <time>2012-08-01T14:49:43Z</time>
      </trkpt>
      <trkpt lat="46.60646" lon="12.27335">
        <ele>1889.13</ele>
        <time>2012-08-01T14:49:44Z</time>
      </trkpt>
      <trkpt lat="46.60639" lon="12.27342">
        <ele>1888.17</ele>
        <time>2012-08-01T14:49:45Z</time>
      </trkpt>
      <trkpt lat="46.60626" lon="12.27355">
        <ele>1886.72</ele>
        <time>2012-08-01T14:49:47Z</time>
      </trkpt>
      <trkpt lat="46.60619" lon="12.2736">
        <ele>1885.76</ele>
        <time>2012-08-01T14:49:48Z</time>
      </trkpt>
      <trkpt lat="46.60611" lon="12.27363">
        <ele>1883.84</ele>
        <time>2012-08-01T14:49:49Z</time>
      </trkpt>
      <trkpt lat="46.60604" lon="12.27364">
        <ele>1883.36</ele>
        <time>2012-08-01T14:49:50Z</time>
      </trkpt>
      <trkpt lat="46.60597" lon="12.27364">
        <ele>1882.88</ele>
        <time>2012-08-01T14:49:51Z</time>
      </trkpt>
      <trkpt lat="46.60585" lon="12.27365">
        <ele>1881.92</ele>
        <time>2012-08-01T14:49:53Z</time>
      </trkpt>
      <trkpt lat="46.60579" lon="12.27366">
        <ele>1881.44</ele>
        <time>2012-08-01T14:49:54Z</time>
      </trkpt>
      <trkpt lat="46.60575" lon="12.27368">
        <ele>1880.96</ele>
        <time>2012-08-01T14:49:55Z</time>
      </trkpt>
      <trkpt lat="46.60572" lon="12.27373">
        <ele>1880.48</ele>
        <time>2012-08-01T14:49:56Z</time>
      </trkpt>
      <trkpt lat="46.60571" lon="12.27379">
        <ele>1880.48</ele>
        <time>2012-08-01T14:49:57Z</time>
      </trkpt>
      <trkpt lat="46.60571" lon="12.27387">
        <ele>1880</ele>
        <time>2012-08-01T14:49:58Z</time>
      </trkpt>
      <trkpt lat="46.60573" lon="12.27396">
        <ele>1879.51</ele>
        <time>2012-08-01T14:49:59Z</time>
      </trkpt>
      <trkpt lat="46.60576" lon="12.27406">
        <ele>1879.03</ele>
        <time>2012-08-01T14:50:00Z</time>
      </trkpt>
      <trkpt lat="46.6058" lon="12.27416">
        <ele>1879.03</ele>
        <time>2012-08-01T14:50:01Z</time>
      </trkpt>
      <trkpt lat="46.60582" lon="12.27429">
        <ele>1878.55</ele>
        <time>2012-08-01T14:50:02Z</time>
      </trkpt>
      <trkpt lat="46.60584" lon="12.27442">
        <ele>1878.55</ele>
        <time>2012-08-01T14:50:03Z</time>
      </trkpt>
      <trkpt lat="46.60585" lon="12.27457">
        <ele>1878.07</ele>
        <time>2012-08-01T14:50:04Z</time>
      </trkpt>
      <trkpt lat="46.60585" lon="12.27471">
        <ele>1876.63</ele>
        <time>2012-08-01T14:50:05Z</time>
      </trkpt>
      <trkpt lat="46.60584" lon="12.27483">
        <ele>1876.15</ele>
        <time>2012-08-01T14:50:06Z</time>
      </trkpt>
      <trkpt lat="46.6058" lon="12.27494">
        <ele>1876.15</ele>
        <time>2012-08-01T14:50:07Z</time>
      </trkpt>
      <trkpt lat="46.60576" lon="12.27503">
        <ele>1876.15</ele>
        <time>2012-08-01T14:50:08Z</time>
      </trkpt>
      <trkpt lat="46.60564" lon="12.27521">
        <ele>1875.67</ele>
        <time>2012-08-01T14:50:10Z</time>
      </trkpt>
      <trkpt lat="46.60557" lon="12.27527">
        <ele>1876.15</ele>
        <time>2012-08-01T14:50:11Z</time>
      </trkpt>
      <trkpt lat="46.60548" lon="12.27533">
        <ele>1876.63</ele>
        <time>2012-08-01T14:50:12Z</time>
      </trkpt>
      <trkpt lat="46.6054" lon="12.27537">
        <ele>1876.15</ele>
        <time>2012-08-01T14:50:13Z</time>
      </trkpt>
      <trkpt lat="46.60531" lon="12.2754">
        <ele>1875.67</ele>
        <time>2012-08-01T14:50:14Z</time>
      </trkpt>
      <trkpt lat="46.60522" lon="12.2754">
        <ele>1875.19</ele>
        <time>2012-08-01T14:50:15Z</time>
      </trkpt>
      <trkpt lat="46.60512" lon="12.27539">
        <ele>1876.63</ele>
        <time>2012-08-01T14:50:16Z</time>
      </trkpt>
      <trkpt lat="46.60485" lon="12.27533">
        <ele>1877.59</ele>
        <time>2012-08-01T14:50:18Z</time>
      </trkpt>
      <trkpt lat="46.60471" lon="12.2753">
        <ele>1877.11</ele>
        <time>2012-08-01T14:50:19Z</time>
      </trkpt>
      <trkpt lat="46.60456" lon="12.27531">
        <ele>1876.63</ele>
        <time>2012-08-01T14:50:20Z</time>
      </trkpt>
      <trkpt lat="46.60442" lon="12.27531">
        <ele>1876.63</ele>
        <time>2012-08-01T14:50:21Z</time>
      </trkpt>
      <trkpt lat="46.60428" lon="12.27527">
        <ele>1876.15</ele>
        <time>2012-08-01T14:50:22Z</time>
      </trkpt>
      <trkpt lat="46.60416" lon="12.27519">
        <ele>1874.71</ele>
        <time>2012-08-01T14:50:23Z</time>
      </trkpt>
      <trkpt lat="46.60407" lon="12.27509">
        <ele>1874.23</ele>
        <time>2012-08-01T14:50:24Z</time>
      </trkpt>
      <trkpt lat="46.60398" lon="12.275">
        <ele>1872.79</ele>
        <time>2012-08-01T14:50:25Z</time>
      </trkpt>
      <trkpt lat="46.6039" lon="12.27495">
        <ele>1871.82</ele>
        <time>2012-08-01T14:50:26Z</time>
      </trkpt>
      <trkpt lat="46.60381" lon="12.27495">
        <ele>1871.34</ele>
        <time>2012-08-01T14:50:27Z</time>
      </trkpt>
      <trkpt lat="46.60372" lon="12.27499">
        <ele>1870.86</ele>
        <time>2012-08-01T14:50:28Z</time>
      </trkpt>
      <trkpt lat="46.60364" lon="12.27507">
        <ele>1869.9</ele>
        <time>2012-08-01T14:50:29Z</time>
      </trkpt>
      <trkpt lat="46.60358" lon="12.27517">
        <ele>1868.94</ele>
        <time>2012-08-01T14:50:30Z</time>
      </trkpt>
      <trkpt lat="46.60352" lon="12.27525">
        <ele>1868.46</ele>
        <time>2012-08-01T14:50:31Z</time>
      </trkpt>
      <trkpt lat="46.60345" lon="12.27529">
        <ele>1867.98</ele>
        <time>2012-08-01T14:50:32Z</time>
      </trkpt>
      <trkpt lat="46.60338" lon="12.27529">
        <ele>1867.5</ele>
        <time>2012-08-01T14:50:33Z</time>
      </trkpt>
      <trkpt lat="46.60329" lon="12.27527">
        <ele>1867.98</ele>
        <time>2012-08-01T14:50:34Z</time>
      </trkpt>
      <trkpt lat="46.60319" lon="12.27523">
        <ele>1868.46</ele>
        <time>2012-08-01T14:50:35Z</time>
      </trkpt>
      <trkpt lat="46.60308" lon="12.27516">
        <ele>1868.94</ele>
        <time>2012-08-01T14:50:36Z</time>
      </trkpt>
      <trkpt lat="46.60295" lon="12.27508">
        <ele>1868.46</ele>
        <time>2012-08-01T14:50:37Z</time>
      </trkpt>
      <trkpt lat="46.6019" lon="12.27438">
        <ele>1865.09</ele>
        <time>2012-08-01T14:50:45Z</time>
      </trkpt>
      <trkpt lat="46.60142" lon="12.27406">
        <ele>1865.09</ele>
        <time>2012-08-01T14:50:50Z</time>
      </trkpt>
      <trkpt lat="46.60135" lon="12.27397">
        <ele>1863.65</ele>
        <time>2012-08-01T14:50:51Z</time>
      </trkpt>
      <trkpt lat="46.6013" lon="12.27386">
        <ele>1863.65</ele>
        <time>2012-08-01T14:50:52Z</time>
      </trkpt>
      <trkpt lat="46.60126" lon="12.27373">
        <ele>1864.61</ele>
        <time>2012-08-01T14:50:53Z</time>
      </trkpt>
      <trkpt lat="46.60123" lon="12.27358">
        <ele>1864.13</ele>
        <time>2012-08-01T14:50:54Z</time>
      </trkpt>
      <trkpt lat="46.6012" lon="12.27342">
        <ele>1864.13</ele>
        <time>2012-08-01T14:50:55Z</time>
      </trkpt>
      <trkpt lat="46.60091" lon="12.27194">
        <ele>1866.54</ele>
        <time>2012-08-01T14:51:03Z</time>
      </trkpt>
      <trkpt lat="46.60086" lon="12.27156">
        <ele>1867.02</ele>
        <time>2012-08-01T14:51:06Z</time>
      </trkpt>
      <trkpt lat="46.60086" lon="12.27147">
        <ele>1866.54</ele>
        <time>2012-08-01T14:51:07Z</time>
      </trkpt>
      <trkpt lat="46.60087" lon="12.2712">
        <ele>1867.98</ele>
        <time>2012-08-01T14:51:10Z</time>
      </trkpt>
      <trkpt lat="46.60087" lon="12.27085">
        <ele>1869.9</ele>
        <time>2012-08-01T14:51:13Z</time>
      </trkpt>
      <trkpt lat="46.60086" lon="12.27073">
        <ele>1870.38</ele>
        <time>2012-08-01T14:51:14Z</time>
      </trkpt>
      <trkpt lat="46.60083" lon="12.27059">
        <ele>1870.86</ele>
        <time>2012-08-01T14:51:15Z</time>
      </trkpt>
      <trkpt lat="46.60079" lon="12.27046">
        <ele>1872.3</ele>
        <time>2012-08-01T14:51:16Z</time>
      </trkpt>
      <trkpt lat="46.60074" lon="12.27034">
        <ele>1872.79</ele>
        <time>2012-08-01T14:51:17Z</time>
      </trkpt>
      <trkpt lat="46.60068" lon="12.27025">
        <ele>1872.79</ele>
        <time>2012-08-01T14:51:18Z</time>
      </trkpt>
      <trkpt lat="46.60062" lon="12.27019">
        <ele>1873.27</ele>
        <time>2012-08-01T14:51:19Z</time>
      </trkpt>
      <trkpt lat="46.60056" lon="12.27016">
        <ele>1873.75</ele>
        <time>2012-08-01T14:51:20Z</time>
      </trkpt>
      <trkpt lat="46.6005" lon="12.27013">
        <ele>1873.75</ele>
        <time>2012-08-01T14:51:21Z</time>
      </trkpt>
      <trkpt lat="46.60045" lon="12.27011">
        <ele>1873.27</ele>
        <time>2012-08-01T14:51:22Z</time>
      </trkpt>
      <trkpt lat="46.60008" lon="12.26999">
        <ele>1875.67</ele>
        <time>2012-08-01T14:51:33Z</time>
      </trkpt>
      <trkpt lat="46.60001" lon="12.26998">
        <ele>1876.15</ele>
        <time>2012-08-01T14:51:43Z</time>
      </trkpt>
      <trkpt lat="46.59995" lon="12.26996">
        <ele>1875.67</ele>
        <time>2012-08-01T14:51:55Z</time>
      </trkpt>
      <trkpt lat="46.59985" lon="12.26994">
        <ele>1876.15</ele>
        <time>2012-08-01T14:52:06Z</time>
      </trkpt>
      <trkpt lat="46.59981" lon="12.26993">
        <ele>1876.63</ele>
        <time>2012-08-01T14:52:24Z</time>
      </trkpt>
      <trkpt lat="46.59932" lon="12.26983">
        <ele>1879.51</ele>
        <time>2012-08-01T14:52:38Z</time>
      </trkpt>
      <trkpt lat="46.59929" lon="12.26986">
        <ele>1880</ele>
        <time>2012-08-01T14:52:43Z</time>
      </trkpt>
      <trkpt lat="46.59927" lon="12.26989">
        <ele>1880</ele>
        <time>2012-08-01T14:52:44Z</time>
      </trkpt>
      <trkpt lat="46.59924" lon="12.2699">
        <ele>1880</ele>
        <time>2012-08-01T14:52:45Z</time>
      </trkpt>
      <trkpt lat="46.59922" lon="12.2699">
        <ele>1879.51</ele>
        <time>2012-08-01T14:52:46Z</time>
      </trkpt>
      <trkpt lat="46.59921" lon="12.26991">
        <ele>1879.51</ele>
        <time>2012-08-01T14:52:55Z</time>
      </trkpt>
      <trkpt lat="46.59922" lon="12.2699">
        <ele>1879.03</ele>
        <time>2012-08-01T14:53:24Z</time>
      </trkpt>
      <trkpt lat="46.59922" lon="12.26989">
        <ele>1879.03</ele>
        <time>2012-08-01T14:53:43Z</time>
      </trkpt>
      <trkpt lat="46.59923" lon="12.26988">
        <ele>1879.03</ele>
        <time>2012-08-01T14:54:00Z</time>
      </trkpt>
      <trkpt lat="46.59925" lon="12.26987">
        <ele>1879.51</ele>
        <time>2012-08-01T14:54:01Z</time>
      </trkpt>
      <trkpt lat="46.59928" lon="12.26988">
        <ele>1879.03</ele>
        <time>2012-08-01T14:54:02Z</time>
      </trkpt>
      <trkpt lat="46.59931" lon="12.2699">
        <ele>1878.55</ele>
        <time>2012-08-01T14:54:03Z</time>
      </trkpt>
      <trkpt lat="46.59934" lon="12.26992">
        <ele>1878.55</ele>
        <time>2012-08-01T14:54:04Z</time>
      </trkpt>
      <trkpt lat="46.59937" lon="12.26993">
        <ele>1878.07</ele>
        <time>2012-08-01T14:54:05Z</time>
      </trkpt>
      <trkpt lat="46.59939" lon="12.26994">
        <ele>1878.07</ele>
        <time>2012-08-01T14:54:06Z</time>
      </trkpt>
      <trkpt lat="46.59944" lon="12.26996">
        <ele>1877.59</ele>
        <time>2012-08-01T14:54:18Z</time>
      </trkpt>
      <trkpt lat="46.59946" lon="12.26995">
        <ele>1877.59</ele>
        <time>2012-08-01T14:54:23Z</time>
      </trkpt>
      <trkpt lat="46.59939" lon="12.26982">
        <ele>1877.59</ele>
        <time>2012-08-01T14:54:28Z</time>
      </trkpt>
      <trkpt lat="46.59935" lon="12.26981">
        <ele>1878.55</ele>
        <time>2012-08-01T14:54:29Z</time>
      </trkpt>
      <trkpt lat="46.59931" lon="12.2698">
        <ele>1878.07</ele>
        <time>2012-08-01T14:54:30Z</time>
      </trkpt>
      <trkpt lat="46.59926" lon="12.26979">
        <ele>1878.55</ele>
        <time>2012-08-01T14:54:31Z</time>
      </trkpt>
      <trkpt lat="46.59901" lon="12.26975">
        <ele>1880</ele>
        <time>2012-08-01T14:54:36Z</time>
      </trkpt>
      <trkpt lat="46.59894" lon="12.26972">
        <ele>1880.96</ele>
        <time>2012-08-01T14:54:37Z</time>
      </trkpt>
      <trkpt lat="46.59887" lon="12.26968">
        <ele>1880.96</ele>
        <time>2012-08-01T14:54:38Z</time>
      </trkpt>
      <trkpt lat="46.59879" lon="12.26963">
        <ele>1881.92</ele>
        <time>2012-08-01T14:54:39Z</time>
      </trkpt>
      <trkpt lat="46.59871" lon="12.26957">
        <ele>1882.4</ele>
        <time>2012-08-01T14:54:40Z</time>
      </trkpt>
      <trkpt lat="46.59862" lon="12.26951">
        <ele>1883.84</ele>
        <time>2012-08-01T14:54:41Z</time>
      </trkpt>
      <trkpt lat="46.59808" lon="12.26918">
        <ele>1887.69</ele>
        <time>2012-08-01T14:54:46Z</time>
      </trkpt>
      <trkpt lat="46.59758" lon="12.26893">
        <ele>1891.05</ele>
        <time>2012-08-01T14:54:50Z</time>
      </trkpt>
      <trkpt lat="46.59746" lon="12.26888">
        <ele>1890.57</ele>
        <time>2012-08-01T14:54:51Z</time>
      </trkpt>
      <trkpt lat="46.59733" lon="12.26885">
        <ele>1891.53</ele>
        <time>2012-08-01T14:54:52Z</time>
      </trkpt>
      <trkpt lat="46.59712" lon="12.26882">
        <ele>1892.01</ele>
        <time>2012-08-01T14:54:54Z</time>
      </trkpt>
      <trkpt lat="46.59704" lon="12.26876">
        <ele>1892.01</ele>
        <time>2012-08-01T14:54:55Z</time>
      </trkpt>
      <trkpt lat="46.597" lon="12.26866">
        <ele>1892.97</ele>
        <time>2012-08-01T14:54:56Z</time>
      </trkpt>
      <trkpt lat="46.59699" lon="12.26855">
        <ele>1894.42</ele>
        <time>2012-08-01T14:54:57Z</time>
      </trkpt>
      <trkpt lat="46.597" lon="12.26842">
        <ele>1895.38</ele>
        <time>2012-08-01T14:54:58Z</time>
      </trkpt>
      <trkpt lat="46.59702" lon="12.26829">
        <ele>1896.34</ele>
        <time>2012-08-01T14:54:59Z</time>
      </trkpt>
      <trkpt lat="46.59706" lon="12.26814">
        <ele>1897.3</ele>
        <time>2012-08-01T14:55:00Z</time>
      </trkpt>
      <trkpt lat="46.59711" lon="12.26798">
        <ele>1897.78</ele>
        <time>2012-08-01T14:55:01Z</time>
      </trkpt>
      <trkpt lat="46.59714" lon="12.26782">
        <ele>1899.22</ele>
        <time>2012-08-01T14:55:02Z</time>
      </trkpt>
      <trkpt lat="46.59716" lon="12.26765">
        <ele>1899.22</ele>
        <time>2012-08-01T14:55:03Z</time>
      </trkpt>
      <trkpt lat="46.59717" lon="12.26748">
        <ele>1900.18</ele>
        <time>2012-08-01T14:55:04Z</time>
      </trkpt>
      <trkpt lat="46.59714" lon="12.26731">
        <ele>1901.14</ele>
        <time>2012-08-01T14:55:05Z</time>
      </trkpt>
      <trkpt lat="46.5971" lon="12.26713">
        <ele>1900.66</ele>
        <time>2012-08-01T14:55:06Z</time>
      </trkpt>
      <trkpt lat="46.59701" lon="12.26682">
        <ele>1900.66</ele>
        <time>2012-08-01T14:55:08Z</time>
      </trkpt>
      <trkpt lat="46.59694" lon="12.26669">
        <ele>1900.18</ele>
        <time>2012-08-01T14:55:09Z</time>
      </trkpt>
      <trkpt lat="46.59685" lon="12.26658">
        <ele>1900.66</ele>
        <time>2012-08-01T14:55:10Z</time>
      </trkpt>
      <trkpt lat="46.59676" lon="12.26649">
        <ele>1900.18</ele>
        <time>2012-08-01T14:55:11Z</time>
      </trkpt>
      <trkpt lat="46.59668" lon="12.26642">
        <ele>1899.22</ele>
        <time>2012-08-01T14:55:12Z</time>
      </trkpt>
      <trkpt lat="46.59643" lon="12.26616">
        <ele>1897.78</ele>
        <time>2012-08-01T14:55:16Z</time>
      </trkpt>
      <trkpt lat="46.59639" lon="12.26609">
        <ele>1897.78</ele>
        <time>2012-08-01T14:55:17Z</time>
      </trkpt>
      <trkpt lat="46.59635" lon="12.26601">
        <ele>1897.3</ele>
        <time>2012-08-01T14:55:18Z</time>
      </trkpt>
      <trkpt lat="46.59633" lon="12.26593">
        <ele>1896.82</ele>
        <time>2012-08-01T14:55:19Z</time>
      </trkpt>
      <trkpt lat="46.59632" lon="12.26585">
        <ele>1896.82</ele>
        <time>2012-08-01T14:55:20Z</time>
      </trkpt>
      <trkpt lat="46.59631" lon="12.26576">
        <ele>1896.34</ele>
        <time>2012-08-01T14:55:21Z</time>
      </trkpt>
      <trkpt lat="46.59629" lon="12.26569">
        <ele>1895.86</ele>
        <time>2012-08-01T14:55:22Z</time>
      </trkpt>
      <trkpt lat="46.59626" lon="12.26561">
        <ele>1896.82</ele>
        <time>2012-08-01T14:55:23Z</time>
      </trkpt>
      <trkpt lat="46.59623" lon="12.26553">
        <ele>1895.86</ele>
        <time>2012-08-01T14:55:24Z</time>
      </trkpt>
      <trkpt lat="46.59619" lon="12.26546">
        <ele>1895.86</ele>
        <time>2012-08-01T14:55:25Z</time>
      </trkpt>
      <trkpt lat="46.59613" lon="12.2654">
        <ele>1895.86</ele>
        <time>2012-08-01T14:55:26Z</time>
      </trkpt>
      <trkpt lat="46.59608" lon="12.26536">
        <ele>1895.86</ele>
        <time>2012-08-01T14:55:27Z</time>
      </trkpt>
      <trkpt lat="46.59603" lon="12.26533">
        <ele>1895.38</ele>
        <time>2012-08-01T14:55:28Z</time>
      </trkpt>
      <trkpt lat="46.59598" lon="12.26531">
        <ele>1895.38</ele>
        <time>2012-08-01T14:55:29Z</time>
      </trkpt>
      <trkpt lat="46.59594" lon="12.26527">
        <ele>1894.9</ele>
        <time>2012-08-01T14:55:30Z</time>
      </trkpt>
      <trkpt lat="46.59579" lon="12.26514">
        <ele>1894.42</ele>
        <time>2012-08-01T14:55:38Z</time>
      </trkpt>
      <trkpt lat="46.59578" lon="12.26515">
        <ele>1893.93</ele>
        <time>2012-08-01T14:56:10Z</time>
      </trkpt>
      <trkpt lat="46.59581" lon="12.26515">
        <ele>1894.42</ele>
        <time>2012-08-01T14:56:46Z</time>
      </trkpt>
      <trkpt lat="46.59581" lon="12.26514">
        <ele>1893.93</ele>
        <time>2012-08-01T14:57:04Z</time>
      </trkpt>
      <trkpt lat="46.59576" lon="12.26502">
        <ele>1894.42</ele>
        <time>2012-08-01T14:57:07Z</time>
      </trkpt>
      <trkpt lat="46.59572" lon="12.26497">
        <ele>1894.42</ele>
        <time>2012-08-01T14:57:08Z</time>
      </trkpt>
      <trkpt lat="46.59568" lon="12.26492">
        <ele>1894.42</ele>
        <time>2012-08-01T14:57:09Z</time>
      </trkpt>
      <trkpt lat="46.59507" lon="12.2644">
        <ele>1895.86</ele>
        <time>2012-08-01T14:57:17Z</time>
      </trkpt>
      <trkpt lat="46.59442" lon="12.26403">
        <ele>1896.82</ele>
        <time>2012-08-01T14:57:24Z</time>
      </trkpt>
      <trkpt lat="46.59415" lon="12.26392">
        <ele>1897.78</ele>
        <time>2012-08-01T14:57:27Z</time>
      </trkpt>
      <trkpt lat="46.59405" lon="12.26391">
        <ele>1897.78</ele>
        <time>2012-08-01T14:57:28Z</time>
      </trkpt>
      <trkpt lat="46.59395" lon="12.26391">
        <ele>1898.26</ele>
        <time>2012-08-01T14:57:29Z</time>
      </trkpt>
      <trkpt lat="46.59327" lon="12.26388">
        <ele>1894.42</ele>
        <time>2012-08-01T14:57:35Z</time>
      </trkpt>
      <trkpt lat="46.5929" lon="12.26374">
        <ele>1890.09</ele>
        <time>2012-08-01T14:57:38Z</time>
      </trkpt>
      <trkpt lat="46.59278" lon="12.26366">
        <ele>1889.13</ele>
        <time>2012-08-01T14:57:39Z</time>
      </trkpt>
      <trkpt lat="46.59253" lon="12.26348">
        <ele>1884.32</ele>
        <time>2012-08-01T14:57:41Z</time>
      </trkpt>
      <trkpt lat="46.59228" lon="12.26332">
        <ele>1880.96</ele>
        <time>2012-08-01T14:57:43Z</time>
      </trkpt>
      <trkpt lat="46.59202" lon="12.26316">
        <ele>1877.11</ele>
        <time>2012-08-01T14:57:45Z</time>
      </trkpt>
      <trkpt lat="46.5919" lon="12.26306">
        <ele>1875.19</ele>
        <time>2012-08-01T14:57:46Z</time>
      </trkpt>
      <trkpt lat="46.59166" lon="12.26284">
        <ele>1870.38</ele>
        <time>2012-08-01T14:57:48Z</time>
      </trkpt>
      <trkpt lat="46.59153" lon="12.26274">
        <ele>1868.94</ele>
        <time>2012-08-01T14:57:49Z</time>
      </trkpt>
      <trkpt lat="46.5914" lon="12.26267">
        <ele>1867.02</ele>
        <time>2012-08-01T14:57:50Z</time>
      </trkpt>
      <trkpt lat="46.59126" lon="12.2626">
        <ele>1865.58</ele>
        <time>2012-08-01T14:57:51Z</time>
      </trkpt>
      <trkpt lat="46.59098" lon="12.26248">
        <ele>1859.33</ele>
        <time>2012-08-01T14:57:53Z</time>
      </trkpt>
      <trkpt lat="46.59077" lon="12.26237">
        <ele>1854.04</ele>
        <time>2012-08-01T14:57:55Z</time>
      </trkpt>
      <trkpt lat="46.5906" lon="12.26227">
        <ele>1851.16</ele>
        <time>2012-08-01T14:57:57Z</time>
      </trkpt>
      <trkpt lat="46.59048" lon="12.2622">
        <ele>1847.79</ele>
        <time>2012-08-01T14:57:59Z</time>
      </trkpt>
      <trkpt lat="46.59044" lon="12.26217">
        <ele>1846.83</ele>
        <time>2012-08-01T14:58:00Z</time>
      </trkpt>
      <trkpt lat="46.5904" lon="12.26213">
        <ele>1845.87</ele>
        <time>2012-08-01T14:58:01Z</time>
      </trkpt>
      <trkpt lat="46.59036" lon="12.26208">
        <ele>1845.39</ele>
        <time>2012-08-01T14:58:02Z</time>
      </trkpt>
      <trkpt lat="46.59033" lon="12.262">
        <ele>1844.91</ele>
        <time>2012-08-01T14:58:03Z</time>
      </trkpt>
      <trkpt lat="46.59033" lon="12.26191">
        <ele>1843.47</ele>
        <time>2012-08-01T14:58:04Z</time>
      </trkpt>
      <trkpt lat="46.59033" lon="12.26183">
        <ele>1842.98</ele>
        <time>2012-08-01T14:58:05Z</time>
      </trkpt>
      <trkpt lat="46.59035" lon="12.26176">
        <ele>1841.54</ele>
        <time>2012-08-01T14:58:06Z</time>
      </trkpt>
      <trkpt lat="46.59037" lon="12.26171">
        <ele>1841.06</ele>
        <time>2012-08-01T14:58:07Z</time>
      </trkpt>
      <trkpt lat="46.59039" lon="12.26166">
        <ele>1840.1</ele>
        <time>2012-08-01T14:58:08Z</time>
      </trkpt>
      <trkpt lat="46.59044" lon="12.26151">
        <ele>1839.14</ele>
        <time>2012-08-01T14:58:11Z</time>
      </trkpt>
      <trkpt lat="46.59044" lon="12.26145">
        <ele>1839.62</ele>
        <time>2012-08-01T14:58:12Z</time>
      </trkpt>
      <trkpt lat="46.59042" lon="12.2614">
        <ele>1838.66</ele>
        <time>2012-08-01T14:58:13Z</time>
      </trkpt>
      <trkpt lat="46.59039" lon="12.26135">
        <ele>1838.66</ele>
        <time>2012-08-01T14:58:14Z</time>
      </trkpt>
      <trkpt lat="46.59029" lon="12.26136">
        <ele>1838.18</ele>
        <time>2012-08-01T14:58:16Z</time>
      </trkpt>
      <trkpt lat="46.59025" lon="12.26143">
        <ele>1837.7</ele>
        <time>2012-08-01T14:58:17Z</time>
      </trkpt>
      <trkpt lat="46.59021" lon="12.26152">
        <ele>1836.74</ele>
        <time>2012-08-01T14:58:18Z</time>
      </trkpt>
      <trkpt lat="46.59017" lon="12.26159">
        <ele>1835.29</ele>
        <time>2012-08-01T14:58:19Z</time>
      </trkpt>
      <trkpt lat="46.59012" lon="12.26161">
        <ele>1834.81</ele>
        <time>2012-08-01T14:58:20Z</time>
      </trkpt>
      <trkpt lat="46.59007" lon="12.26161">
        <ele>1833.85</ele>
        <time>2012-08-01T14:58:21Z</time>
      </trkpt>
      <trkpt lat="46.59002" lon="12.26158">
        <ele>1833.85</ele>
        <time>2012-08-01T14:58:22Z</time>
      </trkpt>
      <trkpt lat="46.58998" lon="12.2615">
        <ele>1832.89</ele>
        <time>2012-08-01T14:58:23Z</time>
      </trkpt>
      <trkpt lat="46.58993" lon="12.26137">
        <ele>1834.33</ele>
        <time>2012-08-01T14:58:24Z</time>
      </trkpt>
      <trkpt lat="46.58988" lon="12.26121">
        <ele>1832.89</ele>
        <time>2012-08-01T14:58:25Z</time>
      </trkpt>
      <trkpt lat="46.58981" lon="12.26103">
        <ele>1831.93</ele>
        <time>2012-08-01T14:58:26Z</time>
      </trkpt>
      <trkpt lat="46.58972" lon="12.26089">
        <ele>1830.49</ele>
        <time>2012-08-01T14:58:27Z</time>
      </trkpt>
      <trkpt lat="46.58961" lon="12.26078">
        <ele>1828.08</ele>
        <time>2012-08-01T14:58:28Z</time>
      </trkpt>
      <trkpt lat="46.58937" lon="12.26061">
        <ele>1824.24</ele>
        <time>2012-08-01T14:58:30Z</time>
      </trkpt>
      <trkpt lat="46.58927" lon="12.26044">
        <ele>1823.28</ele>
        <time>2012-08-01T14:58:31Z</time>
      </trkpt>
      <trkpt lat="46.58918" lon="12.26025">
        <ele>1820.87</ele>
        <time>2012-08-01T14:58:32Z</time>
      </trkpt>
      <trkpt lat="46.58911" lon="12.26003">
        <ele>1819.43</ele>
        <time>2012-08-01T14:58:33Z</time>
      </trkpt>
      <trkpt lat="46.58906" lon="12.25978">
        <ele>1817.99</ele>
        <time>2012-08-01T14:58:34Z</time>
      </trkpt>
      <trkpt lat="46.58903" lon="12.2595">
        <ele>1815.59</ele>
        <time>2012-08-01T14:58:35Z</time>
      </trkpt>
      <trkpt lat="46.58903" lon="12.25924">
        <ele>1812.7</ele>
        <time>2012-08-01T14:58:36Z</time>
      </trkpt>
      <trkpt lat="46.58903" lon="12.259">
        <ele>1808.38</ele>
        <time>2012-08-01T14:58:37Z</time>
      </trkpt>
      <trkpt lat="46.58903" lon="12.25885">
        <ele>1805.49</ele>
        <time>2012-08-01T14:58:38Z</time>
      </trkpt>
      <trkpt lat="46.58899" lon="12.25846">
        <ele>1801.65</ele>
        <time>2012-08-01T14:58:40Z</time>
      </trkpt>
      <trkpt lat="46.58894" lon="12.25833">
        <ele>1800.21</ele>
        <time>2012-08-01T14:58:41Z</time>
      </trkpt>
      <trkpt lat="46.58885" lon="12.25822">
        <ele>1798.28</ele>
        <time>2012-08-01T14:58:42Z</time>
      </trkpt>
      <trkpt lat="46.58875" lon="12.25815">
        <ele>1796.84</ele>
        <time>2012-08-01T14:58:43Z</time>
      </trkpt>
      <trkpt lat="46.58865" lon="12.25809">
        <ele>1794.92</ele>
        <time>2012-08-01T14:58:44Z</time>
      </trkpt>
      <trkpt lat="46.58857" lon="12.25802">
        <ele>1793.48</ele>
        <time>2012-08-01T14:58:45Z</time>
      </trkpt>
      <trkpt lat="46.5885" lon="12.25792">
        <ele>1792.03</ele>
        <time>2012-08-01T14:58:46Z</time>
      </trkpt>
      <trkpt lat="46.58844" lon="12.25781">
        <ele>1790.59</ele>
        <time>2012-08-01T14:58:47Z</time>
      </trkpt>
      <trkpt lat="46.58841" lon="12.25765">
        <ele>1790.11</ele>
        <time>2012-08-01T14:58:48Z</time>
      </trkpt>
      <trkpt lat="46.5884" lon="12.25744">
        <ele>1790.59</ele>
        <time>2012-08-01T14:58:49Z</time>
      </trkpt>
      <trkpt lat="46.5884" lon="12.25721">
        <ele>1790.11</ele>
        <time>2012-08-01T14:58:50Z</time>
      </trkpt>
      <trkpt lat="46.58839" lon="12.25676">
        <ele>1789.15</ele>
        <time>2012-08-01T14:58:52Z</time>
      </trkpt>
      <trkpt lat="46.58834" lon="12.25585">
        <ele>1790.11</ele>
        <time>2012-08-01T14:58:57Z</time>
      </trkpt>
      <trkpt lat="46.58831" lon="12.25572">
        <ele>1790.59</ele>
        <time>2012-08-01T14:58:58Z</time>
      </trkpt>
      <trkpt lat="46.58826" lon="12.25562">
        <ele>1791.07</ele>
        <time>2012-08-01T14:58:59Z</time>
      </trkpt>
      <trkpt lat="46.5882" lon="12.25553">
        <ele>1791.07</ele>
        <time>2012-08-01T14:59:00Z</time>
      </trkpt>
      <trkpt lat="46.58814" lon="12.25547">
        <ele>1791.55</ele>
        <time>2012-08-01T14:59:01Z</time>
      </trkpt>
      <trkpt lat="46.58806" lon="12.25542">
        <ele>1791.55</ele>
        <time>2012-08-01T14:59:02Z</time>
      </trkpt>
      <trkpt lat="46.58798" lon="12.25536">
        <ele>1792.03</ele>
        <time>2012-08-01T14:59:03Z</time>
      </trkpt>
      <trkpt lat="46.58713" lon="12.25463">
        <ele>1794.44</ele>
        <time>2012-08-01T14:59:11Z</time>
      </trkpt>
      <trkpt lat="46.58678" lon="12.25436">
        <ele>1793.96</ele>
        <time>2012-08-01T14:59:14Z</time>
      </trkpt>
      <trkpt lat="46.58666" lon="12.25431">
        <ele>1793.48</ele>
        <time>2012-08-01T14:59:15Z</time>
      </trkpt>
      <trkpt lat="46.58638" lon="12.25423">
        <ele>1792.03</ele>
        <time>2012-08-01T14:59:18Z</time>
      </trkpt>
      <trkpt lat="46.58631" lon="12.25421">
        <ele>1791.07</ele>
        <time>2012-08-01T14:59:19Z</time>
      </trkpt>
      <trkpt lat="46.58625" lon="12.25418">
        <ele>1790.11</ele>
        <time>2012-08-01T14:59:20Z</time>
      </trkpt>
      <trkpt lat="46.58622" lon="12.25416">
        <ele>1790.11</ele>
        <time>2012-08-01T14:59:21Z</time>
      </trkpt>
      <trkpt lat="46.58619" lon="12.25414">
        <ele>1789.63</ele>
        <time>2012-08-01T14:59:22Z</time>
      </trkpt>
      <trkpt lat="46.58615" lon="12.2541">
        <ele>1790.11</ele>
        <time>2012-08-01T14:59:26Z</time>
      </trkpt>
      <trkpt lat="46.5861" lon="12.25407">
        <ele>1790.59</ele>
        <time>2012-08-01T14:59:27Z</time>
      </trkpt>
      <trkpt lat="46.58603" lon="12.25406">
        <ele>1791.07</ele>
        <time>2012-08-01T14:59:28Z</time>
      </trkpt>
      <trkpt lat="46.58594" lon="12.25408">
        <ele>1791.55</ele>
        <time>2012-08-01T14:59:29Z</time>
      </trkpt>
      <trkpt lat="46.58583" lon="12.2541">
        <ele>1792.52</ele>
        <time>2012-08-01T14:59:30Z</time>
      </trkpt>
      <trkpt lat="46.58546" lon="12.25414">
        <ele>1791.55</ele>
        <time>2012-08-01T14:59:33Z</time>
      </trkpt>
      <trkpt lat="46.58533" lon="12.25413">
        <ele>1791.55</ele>
        <time>2012-08-01T14:59:34Z</time>
      </trkpt>
      <trkpt lat="46.58503" lon="12.25411">
        <ele>1788.19</ele>
        <time>2012-08-01T14:59:37Z</time>
      </trkpt>
      <trkpt lat="46.58463" lon="12.25406">
        <ele>1784.82</ele>
        <time>2012-08-01T14:59:42Z</time>
      </trkpt>
      <trkpt lat="46.58425" lon="12.25393">
        <ele>1781.94</ele>
        <time>2012-08-01T14:59:47Z</time>
      </trkpt>
      <trkpt lat="46.58419" lon="12.25387">
        <ele>1780.98</ele>
        <time>2012-08-01T14:59:48Z</time>
      </trkpt>
      <trkpt lat="46.58394" lon="12.25355">
        <ele>1778.1</ele>
        <time>2012-08-01T14:59:56Z</time>
      </trkpt>
      <trkpt lat="46.58378" lon="12.25333">
        <ele>1779.06</ele>
        <time>2012-08-01T15:00:02Z</time>
      </trkpt>
      <trkpt lat="46.58374" lon="12.25327">
        <ele>1779.54</ele>
        <time>2012-08-01T15:00:03Z</time>
      </trkpt>
      <trkpt lat="46.58368" lon="12.25323">
        <ele>1779.54</ele>
        <time>2012-08-01T15:00:04Z</time>
      </trkpt>
      <trkpt lat="46.58307" lon="12.25285">
        <ele>1782.9</ele>
        <time>2012-08-01T15:00:11Z</time>
      </trkpt>
      <trkpt lat="46.58204" lon="12.25193">
        <ele>1780.02</ele>
        <time>2012-08-01T15:00:24Z</time>
      </trkpt>
      <trkpt lat="46.58189" lon="12.2518">
        <ele>1780.5</ele>
        <time>2012-08-01T15:00:26Z</time>
      </trkpt>
      <trkpt lat="46.58181" lon="12.25176">
        <ele>1780.02</ele>
        <time>2012-08-01T15:00:27Z</time>
      </trkpt>
      <trkpt lat="46.58172" lon="12.25173">
        <ele>1780.5</ele>
        <time>2012-08-01T15:00:28Z</time>
      </trkpt>
      <trkpt lat="46.58163" lon="12.25171">
        <ele>1780.02</ele>
        <time>2012-08-01T15:00:29Z</time>
      </trkpt>
      <trkpt lat="46.58155" lon="12.25171">
        <ele>1780.02</ele>
        <time>2012-08-01T15:00:30Z</time>
      </trkpt>
      <trkpt lat="46.58146" lon="12.25173">
        <ele>1780.02</ele>
        <time>2012-08-01T15:00:31Z</time>
      </trkpt>
      <trkpt lat="46.58031" lon="12.25202">
        <ele>1781.94</ele>
        <time>2012-08-01T15:00:43Z</time>
      </trkpt>
      <trkpt lat="46.57868" lon="12.25182">
        <ele>1782.9</ele>
        <time>2012-08-01T15:00:57Z</time>
      </trkpt>
      <trkpt lat="46.57751" lon="12.25107">
        <ele>1781.46</ele>
        <time>2012-08-01T15:01:07Z</time>
      </trkpt>
      <trkpt lat="46.57664" lon="12.25049">
        <ele>1778.58</ele>
        <time>2012-08-01T15:01:13Z</time>
      </trkpt>
      <trkpt lat="46.57633" lon="12.25031">
        <ele>1777.61</ele>
        <time>2012-08-01T15:01:15Z</time>
      </trkpt>
      <trkpt lat="46.57587" lon="12.25006">
        <ele>1773.77</ele>
        <time>2012-08-01T15:01:18Z</time>
      </trkpt>
      <trkpt lat="46.57571" lon="12.24997">
        <ele>1774.25</ele>
        <time>2012-08-01T15:01:19Z</time>
      </trkpt>
      <trkpt lat="46.57493" lon="12.24938">
        <ele>1769.92</ele>
        <time>2012-08-01T15:01:24Z</time>
      </trkpt>
      <trkpt lat="46.57392" lon="12.24857">
        <ele>1767.04</ele>
        <time>2012-08-01T15:01:30Z</time>
      </trkpt>
      <trkpt lat="46.5734" lon="12.24816">
        <ele>1763.2</ele>
        <time>2012-08-01T15:01:33Z</time>
      </trkpt>
      <trkpt lat="46.57306" lon="12.24789">
        <ele>1762.23</ele>
        <time>2012-08-01T15:01:35Z</time>
      </trkpt>
      <trkpt lat="46.57255" lon="12.24748">
        <ele>1758.39</ele>
        <time>2012-08-01T15:01:38Z</time>
      </trkpt>
      <trkpt lat="46.57204" lon="12.24708">
        <ele>1754.06</ele>
        <time>2012-08-01T15:01:41Z</time>
      </trkpt>
      <trkpt lat="46.57154" lon="12.24669">
        <ele>1749.74</ele>
        <time>2012-08-01T15:01:44Z</time>
      </trkpt>
      <trkpt lat="46.57121" lon="12.24643">
        <ele>1745.89</ele>
        <time>2012-08-01T15:01:46Z</time>
      </trkpt>
      <trkpt lat="46.57089" lon="12.24617">
        <ele>1742.53</ele>
        <time>2012-08-01T15:01:48Z</time>
      </trkpt>
      <trkpt lat="46.57057" lon="12.24592">
        <ele>1739.16</ele>
        <time>2012-08-01T15:01:50Z</time>
      </trkpt>
      <trkpt lat="46.57026" lon="12.24572">
        <ele>1736.28</ele>
        <time>2012-08-01T15:01:52Z</time>
      </trkpt>
      <trkpt lat="46.57009" lon="12.24564">
        <ele>1734.36</ele>
        <time>2012-08-01T15:01:53Z</time>
      </trkpt>
      <trkpt lat="46.56993" lon="12.2456">
        <ele>1733.39</ele>
        <time>2012-08-01T15:01:54Z</time>
      </trkpt>
      <trkpt lat="46.56975" lon="12.24558">
        <ele>1731.47</ele>
        <time>2012-08-01T15:01:55Z</time>
      </trkpt>
      <trkpt lat="46.56958" lon="12.24559">
        <ele>1730.51</ele>
        <time>2012-08-01T15:01:56Z</time>
      </trkpt>
      <trkpt lat="46.5694" lon="12.24561">
        <ele>1729.07</ele>
        <time>2012-08-01T15:01:57Z</time>
      </trkpt>
      <trkpt lat="46.56906" lon="12.24567">
        <ele>1725.7</ele>
        <time>2012-08-01T15:01:59Z</time>
      </trkpt>
      <trkpt lat="46.56874" lon="12.24572">
        <ele>1722.82</ele>
        <time>2012-08-01T15:02:01Z</time>
      </trkpt>
      <trkpt lat="46.56826" lon="12.2457">
        <ele>1718.97</ele>
        <time>2012-08-01T15:02:04Z</time>
      </trkpt>
      <trkpt lat="46.56801" lon="12.24564">
        <ele>1714.65</ele>
        <time>2012-08-01T15:02:06Z</time>
      </trkpt>
      <trkpt lat="46.5679" lon="12.24559">
        <ele>1713.69</ele>
        <time>2012-08-01T15:02:07Z</time>
      </trkpt>
      <trkpt lat="46.56764" lon="12.24545">
        <ele>1712.25</ele>
        <time>2012-08-01T15:02:09Z</time>
      </trkpt>
      <trkpt lat="46.56749" lon="12.24542">
        <ele>1710.8</ele>
        <time>2012-08-01T15:02:10Z</time>
      </trkpt>
      <trkpt lat="46.56733" lon="12.2454">
        <ele>1708.88</ele>
        <time>2012-08-01T15:02:11Z</time>
      </trkpt>
      <trkpt lat="46.56702" lon="12.2454">
        <ele>1705.52</ele>
        <time>2012-08-01T15:02:13Z</time>
      </trkpt>
      <trkpt lat="46.56671" lon="12.24536">
        <ele>1701.67</ele>
        <time>2012-08-01T15:02:15Z</time>
      </trkpt>
      <trkpt lat="46.56644" lon="12.24533">
        <ele>1697.34</ele>
        <time>2012-08-01T15:02:17Z</time>
      </trkpt>
      <trkpt lat="46.56632" lon="12.24536">
        <ele>1695.42</ele>
        <time>2012-08-01T15:02:18Z</time>
      </trkpt>
      <trkpt lat="46.56623" lon="12.2454">
        <ele>1693.98</ele>
        <time>2012-08-01T15:02:19Z</time>
      </trkpt>
      <trkpt lat="46.56614" lon="12.24542">
        <ele>1691.58</ele>
        <time>2012-08-01T15:02:20Z</time>
      </trkpt>
      <trkpt lat="46.56608" lon="12.24539">
        <ele>1690.62</ele>
        <time>2012-08-01T15:02:21Z</time>
      </trkpt>
      <trkpt lat="46.56602" lon="12.24531">
        <ele>1690.14</ele>
        <time>2012-08-01T15:02:22Z</time>
      </trkpt>
      <trkpt lat="46.566" lon="12.2452">
        <ele>1689.65</ele>
        <time>2012-08-01T15:02:23Z</time>
      </trkpt>
      <trkpt lat="46.56603" lon="12.24508">
        <ele>1689.17</ele>
        <time>2012-08-01T15:02:24Z</time>
      </trkpt>
      <trkpt lat="46.56609" lon="12.24495">
        <ele>1689.17</ele>
        <time>2012-08-01T15:02:25Z</time>
      </trkpt>
      <trkpt lat="46.56614" lon="12.24482">
        <ele>1688.69</ele>
        <time>2012-08-01T15:02:26Z</time>
      </trkpt>
      <trkpt lat="46.56616" lon="12.24469">
        <ele>1687.73</ele>
        <time>2012-08-01T15:02:27Z</time>
      </trkpt>
      <trkpt lat="46.56615" lon="12.24457">
        <ele>1687.25</ele>
        <time>2012-08-01T15:02:28Z</time>
      </trkpt>
      <trkpt lat="46.5661" lon="12.24446">
        <ele>1687.25</ele>
        <time>2012-08-01T15:02:29Z</time>
      </trkpt>
      <trkpt lat="46.56602" lon="12.24439">
        <ele>1687.73</ele>
        <time>2012-08-01T15:02:30Z</time>
      </trkpt>
      <trkpt lat="46.56593" lon="12.24433">
        <ele>1687.73</ele>
        <time>2012-08-01T15:02:31Z</time>
      </trkpt>
      <trkpt lat="46.56581" lon="12.24432">
        <ele>1687.25</ele>
        <time>2012-08-01T15:02:32Z</time>
      </trkpt>
      <trkpt lat="46.56569" lon="12.24432">
        <ele>1685.81</ele>
        <time>2012-08-01T15:02:33Z</time>
      </trkpt>
      <trkpt lat="46.56557" lon="12.24432">
        <ele>1684.85</ele>
        <time>2012-08-01T15:02:34Z</time>
      </trkpt>
      <trkpt lat="46.56548" lon="12.24429">
        <ele>1682.93</ele>
        <time>2012-08-01T15:02:35Z</time>
      </trkpt>
      <trkpt lat="46.56539" lon="12.24426">
        <ele>1681</ele>
        <time>2012-08-01T15:02:36Z</time>
      </trkpt>
      <trkpt lat="46.56532" lon="12.24421">
        <ele>1680.52</ele>
        <time>2012-08-01T15:02:37Z</time>
      </trkpt>
      <trkpt lat="46.56524" lon="12.24413">
        <ele>1680.52</ele>
        <time>2012-08-01T15:02:38Z</time>
      </trkpt>
      <trkpt lat="46.56518" lon="12.24401">
        <ele>1680.52</ele>
        <time>2012-08-01T15:02:39Z</time>
      </trkpt>
      <trkpt lat="46.56512" lon="12.24386">
        <ele>1681</ele>
        <time>2012-08-01T15:02:40Z</time>
      </trkpt>
      <trkpt lat="46.56508" lon="12.24367">
        <ele>1681</ele>
        <time>2012-08-01T15:02:41Z</time>
      </trkpt>
      <trkpt lat="46.56506" lon="12.24348">
        <ele>1681.48</ele>
        <time>2012-08-01T15:02:42Z</time>
      </trkpt>
      <trkpt lat="46.56499" lon="12.24311">
        <ele>1682.44</ele>
        <time>2012-08-01T15:02:44Z</time>
      </trkpt>
      <trkpt lat="46.56492" lon="12.24293">
        <ele>1682.93</ele>
        <time>2012-08-01T15:02:45Z</time>
      </trkpt>
      <trkpt lat="46.56473" lon="12.24245">
        <ele>1681.96</ele>
        <time>2012-08-01T15:02:48Z</time>
      </trkpt>
      <trkpt lat="46.5647" lon="12.2423">
        <ele>1681.96</ele>
        <time>2012-08-01T15:02:49Z</time>
      </trkpt>
      <trkpt lat="46.56468" lon="12.24215">
        <ele>1681.96</ele>
        <time>2012-08-01T15:02:50Z</time>
      </trkpt>
      <trkpt lat="46.56463" lon="12.24201">
        <ele>1681.48</ele>
        <time>2012-08-01T15:02:51Z</time>
      </trkpt>
      <trkpt lat="46.56457" lon="12.24189">
        <ele>1681.48</ele>
        <time>2012-08-01T15:02:52Z</time>
      </trkpt>
      <trkpt lat="46.56448" lon="12.24179">
        <ele>1682.44</ele>
        <time>2012-08-01T15:02:53Z</time>
      </trkpt>
      <trkpt lat="46.56437" lon="12.24171">
        <ele>1681.96</ele>
        <time>2012-08-01T15:02:54Z</time>
      </trkpt>
      <trkpt lat="46.56424" lon="12.24164">
        <ele>1682.93</ele>
        <time>2012-08-01T15:02:55Z</time>
      </trkpt>
      <trkpt lat="46.5641" lon="12.2416">
        <ele>1682.44</ele>
        <time>2012-08-01T15:02:56Z</time>
      </trkpt>
      <trkpt lat="46.56386" lon="12.2415">
        <ele>1682.44</ele>
        <time>2012-08-01T15:02:58Z</time>
      </trkpt>
      <trkpt lat="46.56373" lon="12.2414">
        <ele>1682.44</ele>
        <time>2012-08-01T15:02:59Z</time>
      </trkpt>
      <trkpt lat="46.56361" lon="12.24127">
        <ele>1682.93</ele>
        <time>2012-08-01T15:03:00Z</time>
      </trkpt>
      <trkpt lat="46.5635" lon="12.24112">
        <ele>1683.41</ele>
        <time>2012-08-01T15:03:01Z</time>
      </trkpt>
      <trkpt lat="46.5634" lon="12.24095">
        <ele>1684.85</ele>
        <time>2012-08-01T15:03:02Z</time>
      </trkpt>
      <trkpt lat="46.56332" lon="12.24075">
        <ele>1685.33</ele>
        <time>2012-08-01T15:03:03Z</time>
      </trkpt>
      <trkpt lat="46.56327" lon="12.24055">
        <ele>1685.81</ele>
        <time>2012-08-01T15:03:04Z</time>
      </trkpt>
      <trkpt lat="46.56323" lon="12.24035">
        <ele>1684.37</ele>
        <time>2012-08-01T15:03:05Z</time>
      </trkpt>
      <trkpt lat="46.56319" lon="12.24017">
        <ele>1684.85</ele>
        <time>2012-08-01T15:03:06Z</time>
      </trkpt>
      <trkpt lat="46.56313" lon="12.24">
        <ele>1685.33</ele>
        <time>2012-08-01T15:03:07Z</time>
      </trkpt>
      <trkpt lat="46.56302" lon="12.23988">
        <ele>1686.29</ele>
        <time>2012-08-01T15:03:08Z</time>
      </trkpt>
      <trkpt lat="46.56289" lon="12.2398">
        <ele>1688.21</ele>
        <time>2012-08-01T15:03:09Z</time>
      </trkpt>
      <trkpt lat="46.56277" lon="12.23971">
        <ele>1689.65</ele>
        <time>2012-08-01T15:03:10Z</time>
      </trkpt>
      <trkpt lat="46.56265" lon="12.2396">
        <ele>1690.62</ele>
        <time>2012-08-01T15:03:11Z</time>
      </trkpt>
      <trkpt lat="46.56255" lon="12.23945">
        <ele>1691.58</ele>
        <time>2012-08-01T15:03:12Z</time>
      </trkpt>
      <trkpt lat="46.56246" lon="12.23928">
        <ele>1692.54</ele>
        <time>2012-08-01T15:03:13Z</time>
      </trkpt>
      <trkpt lat="46.56236" lon="12.2391">
        <ele>1693.98</ele>
        <time>2012-08-01T15:03:14Z</time>
      </trkpt>
      <trkpt lat="46.56226" lon="12.23891">
        <ele>1693.98</ele>
        <time>2012-08-01T15:03:15Z</time>
      </trkpt>
      <trkpt lat="46.56188" lon="12.23816">
        <ele>1697.34</ele>
        <time>2012-08-01T15:03:19Z</time>
      </trkpt>
      <trkpt lat="46.56178" lon="12.23801">
        <ele>1697.34</ele>
        <time>2012-08-01T15:03:20Z</time>
      </trkpt>
      <trkpt lat="46.56167" lon="12.2379">
        <ele>1698.31</ele>
        <time>2012-08-01T15:03:21Z</time>
      </trkpt>
      <trkpt lat="46.56153" lon="12.23782">
        <ele>1699.75</ele>
        <time>2012-08-01T15:03:22Z</time>
      </trkpt>
      <trkpt lat="46.5614" lon="12.23775">
        <ele>1701.67</ele>
        <time>2012-08-01T15:03:23Z</time>
      </trkpt>
      <trkpt lat="46.56126" lon="12.23766">
        <ele>1702.63</ele>
        <time>2012-08-01T15:03:24Z</time>
      </trkpt>
      <trkpt lat="46.56113" lon="12.23756">
        <ele>1704.55</ele>
        <time>2012-08-01T15:03:25Z</time>
      </trkpt>
      <trkpt lat="46.56103" lon="12.23742">
        <ele>1704.07</ele>
        <time>2012-08-01T15:03:26Z</time>
      </trkpt>
      <trkpt lat="46.56097" lon="12.23728">
        <ele>1704.55</ele>
        <time>2012-08-01T15:03:27Z</time>
      </trkpt>
      <trkpt lat="46.56093" lon="12.23712">
        <ele>1704.07</ele>
        <time>2012-08-01T15:03:28Z</time>
      </trkpt>
      <trkpt lat="46.56092" lon="12.23693">
        <ele>1705.04</ele>
        <time>2012-08-01T15:03:29Z</time>
      </trkpt>
      <trkpt lat="46.56091" lon="12.23671">
        <ele>1705.52</ele>
        <time>2012-08-01T15:03:30Z</time>
      </trkpt>
      <trkpt lat="46.56086" lon="12.2365">
        <ele>1706</ele>
        <time>2012-08-01T15:03:31Z</time>
      </trkpt>
      <trkpt lat="46.56078" lon="12.23631">
        <ele>1706.96</ele>
        <time>2012-08-01T15:03:32Z</time>
      </trkpt>
      <trkpt lat="46.56069" lon="12.23612">
        <ele>1706.96</ele>
        <time>2012-08-01T15:03:33Z</time>
      </trkpt>
      <trkpt lat="46.56058" lon="12.23597">
        <ele>1708.88</ele>
        <time>2012-08-01T15:03:34Z</time>
      </trkpt>
      <trkpt lat="46.56046" lon="12.23584">
        <ele>1710.32</ele>
        <time>2012-08-01T15:03:35Z</time>
      </trkpt>
      <trkpt lat="46.56032" lon="12.23575">
        <ele>1710.32</ele>
        <time>2012-08-01T15:03:36Z</time>
      </trkpt>
      <trkpt lat="46.56016" lon="12.23571">
        <ele>1711.28</ele>
        <time>2012-08-01T15:03:37Z</time>
      </trkpt>
      <trkpt lat="46.56001" lon="12.23572">
        <ele>1712.25</ele>
        <time>2012-08-01T15:03:38Z</time>
      </trkpt>
      <trkpt lat="46.55987" lon="12.23577">
        <ele>1713.21</ele>
        <time>2012-08-01T15:03:39Z</time>
      </trkpt>
      <trkpt lat="46.55974" lon="12.2358">
        <ele>1713.69</ele>
        <time>2012-08-01T15:03:40Z</time>
      </trkpt>
      <trkpt lat="46.5596" lon="12.23579">
        <ele>1714.65</ele>
        <time>2012-08-01T15:03:41Z</time>
      </trkpt>
      <trkpt lat="46.55945" lon="12.23576">
        <ele>1716.57</ele>
        <time>2012-08-01T15:03:42Z</time>
      </trkpt>
      <trkpt lat="46.5593" lon="12.23572">
        <ele>1718.01</ele>
        <time>2012-08-01T15:03:43Z</time>
      </trkpt>
      <trkpt lat="46.55915" lon="12.23567">
        <ele>1718.49</ele>
        <time>2012-08-01T15:03:44Z</time>
      </trkpt>
      <trkpt lat="46.55901" lon="12.23561">
        <ele>1718.49</ele>
        <time>2012-08-01T15:03:45Z</time>
      </trkpt>
      <trkpt lat="46.55889" lon="12.2355">
        <ele>1719.46</ele>
        <time>2012-08-01T15:03:46Z</time>
      </trkpt>
      <trkpt lat="46.55878" lon="12.23534">
        <ele>1720.42</ele>
        <time>2012-08-01T15:03:47Z</time>
      </trkpt>
      <trkpt lat="46.55857" lon="12.23497">
        <ele>1723.78</ele>
        <time>2012-08-01T15:03:49Z</time>
      </trkpt>
      <trkpt lat="46.55823" lon="12.2344">
        <ele>1727.63</ele>
        <time>2012-08-01T15:03:52Z</time>
      </trkpt>
      <trkpt lat="46.5581" lon="12.23425">
        <ele>1729.55</ele>
        <time>2012-08-01T15:03:53Z</time>
      </trkpt>
      <trkpt lat="46.55772" lon="12.23383">
        <ele>1732.91</ele>
        <time>2012-08-01T15:03:56Z</time>
      </trkpt>
      <trkpt lat="46.55763" lon="12.23368">
        <ele>1732.91</ele>
        <time>2012-08-01T15:03:57Z</time>
      </trkpt>
      <trkpt lat="46.55745" lon="12.23336">
        <ele>1735.32</ele>
        <time>2012-08-01T15:03:59Z</time>
      </trkpt>
      <trkpt lat="46.55736" lon="12.23318">
        <ele>1735.8</ele>
        <time>2012-08-01T15:04:00Z</time>
      </trkpt>
      <trkpt lat="46.55718" lon="12.23282">
        <ele>1737.24</ele>
        <time>2012-08-01T15:04:02Z</time>
      </trkpt>
      <trkpt lat="46.5571" lon="12.23261">
        <ele>1737.24</ele>
        <time>2012-08-01T15:04:03Z</time>
      </trkpt>
      <trkpt lat="46.55705" lon="12.23238">
        <ele>1737.72</ele>
        <time>2012-08-01T15:04:04Z</time>
      </trkpt>
      <trkpt lat="46.55702" lon="12.23213">
        <ele>1738.68</ele>
        <time>2012-08-01T15:04:05Z</time>
      </trkpt>
      <trkpt lat="46.55699" lon="12.23188">
        <ele>1740.12</ele>
        <time>2012-08-01T15:04:06Z</time>
      </trkpt>
      <trkpt lat="46.55695" lon="12.23137">
        <ele>1742.05</ele>
        <time>2012-08-01T15:04:08Z</time>
      </trkpt>
      <trkpt lat="46.55691" lon="12.23087">
        <ele>1742.53</ele>
        <time>2012-08-01T15:04:10Z</time>
      </trkpt>
      <trkpt lat="46.55685" lon="12.23063">
        <ele>1742.53</ele>
        <time>2012-08-01T15:04:11Z</time>
      </trkpt>
      <trkpt lat="46.55676" lon="12.23041">
        <ele>1743.49</ele>
        <time>2012-08-01T15:04:12Z</time>
      </trkpt>
      <trkpt lat="46.55665" lon="12.23021">
        <ele>1743.01</ele>
        <time>2012-08-01T15:04:13Z</time>
      </trkpt>
      <trkpt lat="46.55657" lon="12.23002">
        <ele>1741.57</ele>
        <time>2012-08-01T15:04:14Z</time>
      </trkpt>
      <trkpt lat="46.5565" lon="12.22984">
        <ele>1741.08</ele>
        <time>2012-08-01T15:04:15Z</time>
      </trkpt>
      <trkpt lat="46.55645" lon="12.22967">
        <ele>1741.08</ele>
        <time>2012-08-01T15:04:16Z</time>
      </trkpt>
      <trkpt lat="46.55641" lon="12.22949">
        <ele>1740.6</ele>
        <time>2012-08-01T15:04:17Z</time>
      </trkpt>
      <trkpt lat="46.55613" lon="12.22779">
        <ele>1740.6</ele>
        <time>2012-08-01T15:04:27Z</time>
      </trkpt>
      <trkpt lat="46.55623" lon="12.22673">
        <ele>1744.45</ele>
        <time>2012-08-01T15:04:32Z</time>
      </trkpt>
      <trkpt lat="46.55628" lon="12.22648">
        <ele>1743.97</ele>
        <time>2012-08-01T15:04:33Z</time>
      </trkpt>
      <trkpt lat="46.55646" lon="12.22567">
        <ele>1746.37</ele>
        <time>2012-08-01T15:04:36Z</time>
      </trkpt>
      <trkpt lat="46.55658" lon="12.2251">
        <ele>1747.81</ele>
        <time>2012-08-01T15:04:38Z</time>
      </trkpt>
      <trkpt lat="46.55676" lon="12.22355">
        <ele>1743.49</ele>
        <time>2012-08-01T15:04:43Z</time>
      </trkpt>
      <trkpt lat="46.55678" lon="12.22304">
        <ele>1739.64</ele>
        <time>2012-08-01T15:04:45Z</time>
      </trkpt>
      <trkpt lat="46.55681" lon="12.22283">
        <ele>1738.2</ele>
        <time>2012-08-01T15:04:46Z</time>
      </trkpt>
      <trkpt lat="46.55685" lon="12.22263">
        <ele>1737.72</ele>
        <time>2012-08-01T15:04:47Z</time>
      </trkpt>
      <trkpt lat="46.55691" lon="12.22242">
        <ele>1737.24</ele>
        <time>2012-08-01T15:04:48Z</time>
      </trkpt>
      <trkpt lat="46.557" lon="12.22222">
        <ele>1737.24</ele>
        <time>2012-08-01T15:04:49Z</time>
      </trkpt>
      <trkpt lat="46.55708" lon="12.22201">
        <ele>1737.72</ele>
        <time>2012-08-01T15:04:50Z</time>
      </trkpt>
      <trkpt lat="46.55716" lon="12.22177">
        <ele>1738.2</ele>
        <time>2012-08-01T15:04:51Z</time>
      </trkpt>
      <trkpt lat="46.55723" lon="12.22151">
        <ele>1737.24</ele>
        <time>2012-08-01T15:04:52Z</time>
      </trkpt>
      <trkpt lat="46.55728" lon="12.22125">
        <ele>1736.28</ele>
        <time>2012-08-01T15:04:53Z</time>
      </trkpt>
      <trkpt lat="46.55737" lon="12.22076">
        <ele>1735.32</ele>
        <time>2012-08-01T15:04:55Z</time>
      </trkpt>
      <trkpt lat="46.55739" lon="12.22053">
        <ele>1734.84</ele>
        <time>2012-08-01T15:04:56Z</time>
      </trkpt>
      <trkpt lat="46.55739" lon="12.22032">
        <ele>1734.36</ele>
        <time>2012-08-01T15:04:57Z</time>
      </trkpt>
      <trkpt lat="46.55739" lon="12.22013">
        <ele>1733.88</ele>
        <time>2012-08-01T15:04:58Z</time>
      </trkpt>
      <trkpt lat="46.55741" lon="12.21994">
        <ele>1734.36</ele>
        <time>2012-08-01T15:04:59Z</time>
      </trkpt>
      <trkpt lat="46.55747" lon="12.21975">
        <ele>1733.88</ele>
        <time>2012-08-01T15:05:00Z</time>
      </trkpt>
      <trkpt lat="46.55756" lon="12.21956">
        <ele>1734.36</ele>
        <time>2012-08-01T15:05:01Z</time>
      </trkpt>
      <trkpt lat="46.55769" lon="12.21938">
        <ele>1734.36</ele>
        <time>2012-08-01T15:05:02Z</time>
      </trkpt>
      <trkpt lat="46.55784" lon="12.21922">
        <ele>1733.39</ele>
        <time>2012-08-01T15:05:03Z</time>
      </trkpt>
      <trkpt lat="46.55799" lon="12.21909">
        <ele>1733.39</ele>
        <time>2012-08-01T15:05:04Z</time>
      </trkpt>
      <trkpt lat="46.55824" lon="12.21882">
        <ele>1732.43</ele>
        <time>2012-08-01T15:05:06Z</time>
      </trkpt>
      <trkpt lat="46.55834" lon="12.21868">
        <ele>1732.43</ele>
        <time>2012-08-01T15:05:07Z</time>
      </trkpt>
      <trkpt lat="46.55842" lon="12.21854">
        <ele>1731.95</ele>
        <time>2012-08-01T15:05:08Z</time>
      </trkpt>
      <trkpt lat="46.55849" lon="12.21839">
        <ele>1732.91</ele>
        <time>2012-08-01T15:05:09Z</time>
      </trkpt>
      <trkpt lat="46.55855" lon="12.21824">
        <ele>1733.88</ele>
        <time>2012-08-01T15:05:10Z</time>
      </trkpt>
      <trkpt lat="46.5586" lon="12.21808">
        <ele>1734.84</ele>
        <time>2012-08-01T15:05:11Z</time>
      </trkpt>
      <trkpt lat="46.55864" lon="12.21792">
        <ele>1735.8</ele>
        <time>2012-08-01T15:05:12Z</time>
      </trkpt>
      <trkpt lat="46.55866" lon="12.21777">
        <ele>1735.8</ele>
        <time>2012-08-01T15:05:13Z</time>
      </trkpt>
      <trkpt lat="46.55868" lon="12.21762">
        <ele>1736.76</ele>
        <time>2012-08-01T15:05:14Z</time>
      </trkpt>
      <trkpt lat="46.55869" lon="12.21732">
        <ele>1738.68</ele>
        <time>2012-08-01T15:05:16Z</time>
      </trkpt>
      <trkpt lat="46.55868" lon="12.21717">
        <ele>1739.16</ele>
        <time>2012-08-01T15:05:17Z</time>
      </trkpt>
      <trkpt lat="46.55867" lon="12.21703">
        <ele>1739.64</ele>
        <time>2012-08-01T15:05:18Z</time>
      </trkpt>
      <trkpt lat="46.55865" lon="12.21691">
        <ele>1739.64</ele>
        <time>2012-08-01T15:05:19Z</time>
      </trkpt>
      <trkpt lat="46.55862" lon="12.21679">
        <ele>1739.64</ele>
        <time>2012-08-01T15:05:20Z</time>
      </trkpt>
      <trkpt lat="46.55851" lon="12.21639">
        <ele>1738.68</ele>
        <time>2012-08-01T15:05:27Z</time>
      </trkpt>
      <trkpt lat="46.55852" lon="12.21641">
        <ele>1738.2</ele>
        <time>2012-08-01T15:05:54Z</time>
      </trkpt>
      <trkpt lat="46.55852" lon="12.2164">
        <ele>1737.72</ele>
        <time>2012-08-01T15:06:20Z</time>
      </trkpt>
      <trkpt lat="46.55852" lon="12.21638">
        <ele>1737.72</ele>
        <time>2012-08-01T15:06:46Z</time>
      </trkpt>
      <trkpt lat="46.55834" lon="12.21609">
        <ele>1737.72</ele>
        <time>2012-08-01T15:06:55Z</time>
      </trkpt>
      <trkpt lat="46.55773" lon="12.21558">
        <ele>1736.76</ele>
        <time>2012-08-01T15:07:02Z</time>
      </trkpt>
      <trkpt lat="46.55762" lon="12.21549">
        <ele>1736.28</ele>
        <time>2012-08-01T15:07:03Z</time>
      </trkpt>
      <trkpt lat="46.55751" lon="12.21537">
        <ele>1736.76</ele>
        <time>2012-08-01T15:07:04Z</time>
      </trkpt>
      <trkpt lat="46.55742" lon="12.21522">
        <ele>1737.24</ele>
        <time>2012-08-01T15:07:05Z</time>
      </trkpt>
      <trkpt lat="46.55736" lon="12.21504">
        <ele>1738.68</ele>
        <time>2012-08-01T15:07:06Z</time>
      </trkpt>
      <trkpt lat="46.55721" lon="12.21453">
        <ele>1740.6</ele>
        <time>2012-08-01T15:07:09Z</time>
      </trkpt>
      <trkpt lat="46.55711" lon="12.21444">
        <ele>1741.57</ele>
        <time>2012-08-01T15:07:10Z</time>
      </trkpt>
      <trkpt lat="46.55698" lon="12.21439">
        <ele>1743.01</ele>
        <time>2012-08-01T15:07:11Z</time>
      </trkpt>
      <trkpt lat="46.55658" lon="12.21434">
        <ele>1744.45</ele>
        <time>2012-08-01T15:07:14Z</time>
      </trkpt>
      <trkpt lat="46.55646" lon="12.2143">
        <ele>1744.45</ele>
        <time>2012-08-01T15:07:15Z</time>
      </trkpt>
      <trkpt lat="46.55636" lon="12.21423">
        <ele>1743.97</ele>
        <time>2012-08-01T15:07:16Z</time>
      </trkpt>
      <trkpt lat="46.55628" lon="12.21413">
        <ele>1743.97</ele>
        <time>2012-08-01T15:07:17Z</time>
      </trkpt>
      <trkpt lat="46.55623" lon="12.21399">
        <ele>1744.93</ele>
        <time>2012-08-01T15:07:18Z</time>
      </trkpt>
      <trkpt lat="46.55622" lon="12.21381">
        <ele>1746.85</ele>
        <time>2012-08-01T15:07:19Z</time>
      </trkpt>
      <trkpt lat="46.55623" lon="12.21362">
        <ele>1748.78</ele>
        <time>2012-08-01T15:07:20Z</time>
      </trkpt>
      <trkpt lat="46.55626" lon="12.21318">
        <ele>1752.14</ele>
        <time>2012-08-01T15:07:22Z</time>
      </trkpt>
      <trkpt lat="46.55629" lon="12.21272">
        <ele>1755.99</ele>
        <time>2012-08-01T15:07:24Z</time>
      </trkpt>
      <trkpt lat="46.5563" lon="12.21226">
        <ele>1758.87</ele>
        <time>2012-08-01T15:07:26Z</time>
      </trkpt>
      <trkpt lat="46.55632" lon="12.21178">
        <ele>1763.68</ele>
        <time>2012-08-01T15:07:28Z</time>
      </trkpt>
      <trkpt lat="46.55638" lon="12.21129">
        <ele>1767.04</ele>
        <time>2012-08-01T15:07:30Z</time>
      </trkpt>
      <trkpt lat="46.55648" lon="12.21082">
        <ele>1770.41</ele>
        <time>2012-08-01T15:07:32Z</time>
      </trkpt>
      <trkpt lat="46.55658" lon="12.21019">
        <ele>1775.69</ele>
        <time>2012-08-01T15:07:35Z</time>
      </trkpt>
      <trkpt lat="46.55657" lon="12.20997">
        <ele>1776.65</ele>
        <time>2012-08-01T15:07:36Z</time>
      </trkpt>
      <trkpt lat="46.5565" lon="12.20952">
        <ele>1778.1</ele>
        <time>2012-08-01T15:07:38Z</time>
      </trkpt>
      <trkpt lat="46.55649" lon="12.20929">
        <ele>1779.06</ele>
        <time>2012-08-01T15:07:39Z</time>
      </trkpt>
      <trkpt lat="46.5565" lon="12.20905">
        <ele>1782.42</ele>
        <time>2012-08-01T15:07:40Z</time>
      </trkpt>
      <trkpt lat="46.55651" lon="12.20881">
        <ele>1784.82</ele>
        <time>2012-08-01T15:07:41Z</time>
      </trkpt>
      <trkpt lat="46.55652" lon="12.20856">
        <ele>1786.75</ele>
        <time>2012-08-01T15:07:42Z</time>
      </trkpt>
      <trkpt lat="46.55651" lon="12.20831">
        <ele>1788.67</ele>
        <time>2012-08-01T15:07:43Z</time>
      </trkpt>
      <trkpt lat="46.55649" lon="12.2078">
        <ele>1792.52</ele>
        <time>2012-08-01T15:07:45Z</time>
      </trkpt>
      <trkpt lat="46.55647" lon="12.20755">
        <ele>1793.96</ele>
        <time>2012-08-01T15:07:46Z</time>
      </trkpt>
      <trkpt lat="46.55643" lon="12.2073">
        <ele>1795.4</ele>
        <time>2012-08-01T15:07:47Z</time>
      </trkpt>
      <trkpt lat="46.55637" lon="12.20705">
        <ele>1797.32</ele>
        <time>2012-08-01T15:07:48Z</time>
      </trkpt>
      <trkpt lat="46.5562" lon="12.2064">
        <ele>1800.21</ele>
        <time>2012-08-01T15:07:51Z</time>
      </trkpt>
      <trkpt lat="46.55612" lon="12.20597">
        <ele>1803.09</ele>
        <time>2012-08-01T15:07:53Z</time>
      </trkpt>
      <trkpt lat="46.55611" lon="12.20575">
        <ele>1804.53</ele>
        <time>2012-08-01T15:07:54Z</time>
      </trkpt>
      <trkpt lat="46.55612" lon="12.20553">
        <ele>1805.97</ele>
        <time>2012-08-01T15:07:55Z</time>
      </trkpt>
      <trkpt lat="46.55616" lon="12.20506">
        <ele>1809.34</ele>
        <time>2012-08-01T15:07:57Z</time>
      </trkpt>
      <trkpt lat="46.55628" lon="12.20436">
        <ele>1812.7</ele>
        <time>2012-08-01T15:08:00Z</time>
      </trkpt>
      <trkpt lat="46.55647" lon="12.20369">
        <ele>1816.55</ele>
        <time>2012-08-01T15:08:03Z</time>
      </trkpt>
      <trkpt lat="46.55665" lon="12.20307">
        <ele>1819.91</ele>
        <time>2012-08-01T15:08:06Z</time>
      </trkpt>
      <trkpt lat="46.55682" lon="12.20248">
        <ele>1822.8</ele>
        <time>2012-08-01T15:08:09Z</time>
      </trkpt>
      <trkpt lat="46.55706" lon="12.20183">
        <ele>1826.16</ele>
        <time>2012-08-01T15:08:13Z</time>
      </trkpt>
      <trkpt lat="46.55714" lon="12.20169">
        <ele>1826.16</ele>
        <time>2012-08-01T15:08:14Z</time>
      </trkpt>
      <trkpt lat="46.55734" lon="12.20126">
        <ele>1825.2</ele>
        <time>2012-08-01T15:08:17Z</time>
      </trkpt>
      <trkpt lat="46.55736" lon="12.2011">
        <ele>1825.68</ele>
        <time>2012-08-01T15:08:18Z</time>
      </trkpt>
      <trkpt lat="46.55735" lon="12.20094">
        <ele>1826.16</ele>
        <time>2012-08-01T15:08:19Z</time>
      </trkpt>
      <trkpt lat="46.5573" lon="12.20076">
        <ele>1828.08</ele>
        <time>2012-08-01T15:08:20Z</time>
      </trkpt>
      <trkpt lat="46.55725" lon="12.20059">
        <ele>1827.12</ele>
        <time>2012-08-01T15:08:21Z</time>
      </trkpt>
      <trkpt lat="46.55722" lon="12.20042">
        <ele>1826.64</ele>
        <time>2012-08-01T15:08:22Z</time>
      </trkpt>
      <trkpt lat="46.55721" lon="12.20023">
        <ele>1827.12</ele>
        <time>2012-08-01T15:08:23Z</time>
      </trkpt>
      <trkpt lat="46.55724" lon="12.20003">
        <ele>1827.6</ele>
        <time>2012-08-01T15:08:24Z</time>
      </trkpt>
      <trkpt lat="46.55729" lon="12.19983">
        <ele>1826.64</ele>
        <time>2012-08-01T15:08:25Z</time>
      </trkpt>
      <trkpt lat="46.55736" lon="12.19963">
        <ele>1826.64</ele>
        <time>2012-08-01T15:08:26Z</time>
      </trkpt>
      <trkpt lat="46.55745" lon="12.19921">
        <ele>1825.2</ele>
        <time>2012-08-01T15:08:28Z</time>
      </trkpt>
      <trkpt lat="46.55747" lon="12.19899">
        <ele>1824.24</ele>
        <time>2012-08-01T15:08:29Z</time>
      </trkpt>
      <trkpt lat="46.55744" lon="12.19876">
        <ele>1824.24</ele>
        <time>2012-08-01T15:08:30Z</time>
      </trkpt>
      <trkpt lat="46.55738" lon="12.19831">
        <ele>1820.87</ele>
        <time>2012-08-01T15:08:32Z</time>
      </trkpt>
      <trkpt lat="46.55738" lon="12.1981">
        <ele>1819.43</ele>
        <time>2012-08-01T15:08:33Z</time>
      </trkpt>
      <trkpt lat="46.5574" lon="12.19791">
        <ele>1817.03</ele>
        <time>2012-08-01T15:08:34Z</time>
      </trkpt>
      <trkpt lat="46.55746" lon="12.19759">
        <ele>1814.63</ele>
        <time>2012-08-01T15:08:36Z</time>
      </trkpt>
      <trkpt lat="46.55746" lon="12.19746">
        <ele>1813.66</ele>
        <time>2012-08-01T15:08:37Z</time>
      </trkpt>
      <trkpt lat="46.55742" lon="12.19733">
        <ele>1812.7</ele>
        <time>2012-08-01T15:08:38Z</time>
      </trkpt>
      <trkpt lat="46.55735" lon="12.19723">
        <ele>1813.18</ele>
        <time>2012-08-01T15:08:39Z</time>
      </trkpt>
      <trkpt lat="46.55726" lon="12.19715">
        <ele>1811.74</ele>
        <time>2012-08-01T15:08:40Z</time>
      </trkpt>
      <trkpt lat="46.55717" lon="12.19708">
        <ele>1811.26</ele>
        <time>2012-08-01T15:08:41Z</time>
      </trkpt>
      <trkpt lat="46.55702" lon="12.19695">
        <ele>1808.38</ele>
        <time>2012-08-01T15:08:43Z</time>
      </trkpt>
      <trkpt lat="46.55696" lon="12.19688">
        <ele>1807.42</ele>
        <time>2012-08-01T15:08:44Z</time>
      </trkpt>
      <trkpt lat="46.55691" lon="12.19681">
        <ele>1806.45</ele>
        <time>2012-08-01T15:08:45Z</time>
      </trkpt>
      <trkpt lat="46.55687" lon="12.19673">
        <ele>1806.94</ele>
        <time>2012-08-01T15:08:46Z</time>
      </trkpt>
      <trkpt lat="46.55683" lon="12.19666">
        <ele>1805.97</ele>
        <time>2012-08-01T15:08:47Z</time>
      </trkpt>
      <trkpt lat="46.55672" lon="12.19644">
        <ele>1805.01</ele>
        <time>2012-08-01T15:08:50Z</time>
      </trkpt>
      <trkpt lat="46.55667" lon="12.19637">
        <ele>1804.53</ele>
        <time>2012-08-01T15:08:51Z</time>
      </trkpt>
      <trkpt lat="46.5566" lon="12.19633">
        <ele>1804.05</ele>
        <time>2012-08-01T15:08:52Z</time>
      </trkpt>
      <trkpt lat="46.55652" lon="12.19633">
        <ele>1803.57</ele>
        <time>2012-08-01T15:08:53Z</time>
      </trkpt>
      <trkpt lat="46.55645" lon="12.19637">
        <ele>1802.61</ele>
        <time>2012-08-01T15:08:54Z</time>
      </trkpt>
      <trkpt lat="46.5564" lon="12.19645">
        <ele>1801.65</ele>
        <time>2012-08-01T15:08:55Z</time>
      </trkpt>
      <trkpt lat="46.55637" lon="12.19656">
        <ele>1801.17</ele>
        <time>2012-08-01T15:08:56Z</time>
      </trkpt>
      <trkpt lat="46.55633" lon="12.19669">
        <ele>1801.65</ele>
        <time>2012-08-01T15:08:57Z</time>
      </trkpt>
      <trkpt lat="46.5563" lon="12.19687">
        <ele>1802.13</ele>
        <time>2012-08-01T15:08:58Z</time>
      </trkpt>
      <trkpt lat="46.5563" lon="12.19758">
        <ele>1798.76</ele>
        <time>2012-08-01T15:09:01Z</time>
      </trkpt>
      <trkpt lat="46.55628" lon="12.1979">
        <ele>1794.92</ele>
        <time>2012-08-01T15:09:03Z</time>
      </trkpt>
      <trkpt lat="46.55625" lon="12.19803">
        <ele>1793.96</ele>
        <time>2012-08-01T15:09:04Z</time>
      </trkpt>
      <trkpt lat="46.55619" lon="12.19812">
        <ele>1793</ele>
        <time>2012-08-01T15:09:05Z</time>
      </trkpt>
      <trkpt lat="46.55612" lon="12.19818">
        <ele>1793</ele>
        <time>2012-08-01T15:09:06Z</time>
      </trkpt>
      <trkpt lat="46.55606" lon="12.1982">
        <ele>1793</ele>
        <time>2012-08-01T15:09:07Z</time>
      </trkpt>
      <trkpt lat="46.55601" lon="12.19818">
        <ele>1793.96</ele>
        <time>2012-08-01T15:09:08Z</time>
      </trkpt>
      <trkpt lat="46.55597" lon="12.19811">
        <ele>1793</ele>
        <time>2012-08-01T15:09:09Z</time>
      </trkpt>
      <trkpt lat="46.55594" lon="12.19801">
        <ele>1792.03</ele>
        <time>2012-08-01T15:09:10Z</time>
      </trkpt>
      <trkpt lat="46.55576" lon="12.19751">
        <ele>1786.75</ele>
        <time>2012-08-01T15:09:14Z</time>
      </trkpt>
      <trkpt lat="46.55547" lon="12.19689">
        <ele>1783.86</ele>
        <time>2012-08-01T15:09:16Z</time>
      </trkpt>
      <trkpt lat="46.55512" lon="12.19617">
        <ele>1780.02</ele>
        <time>2012-08-01T15:09:18Z</time>
      </trkpt>
      <trkpt lat="46.55479" lon="12.19546">
        <ele>1775.69</ele>
        <time>2012-08-01T15:09:20Z</time>
      </trkpt>
      <trkpt lat="46.55447" lon="12.1947">
        <ele>1771.85</ele>
        <time>2012-08-01T15:09:22Z</time>
      </trkpt>
      <trkpt lat="46.55424" lon="12.19405">
        <ele>1768.48</ele>
        <time>2012-08-01T15:09:24Z</time>
      </trkpt>
      <trkpt lat="46.55403" lon="12.19343">
        <ele>1765.12</ele>
        <time>2012-08-01T15:09:26Z</time>
      </trkpt>
      <trkpt lat="46.55382" lon="12.19283">
        <ele>1760.79</ele>
        <time>2012-08-01T15:09:28Z</time>
      </trkpt>
      <trkpt lat="46.55362" lon="12.19223">
        <ele>1755.5</ele>
        <time>2012-08-01T15:09:30Z</time>
      </trkpt>
      <trkpt lat="46.55344" lon="12.19165">
        <ele>1749.74</ele>
        <time>2012-08-01T15:09:32Z</time>
      </trkpt>
      <trkpt lat="46.55329" lon="12.1911">
        <ele>1744.93</ele>
        <time>2012-08-01T15:09:34Z</time>
      </trkpt>
      <trkpt lat="46.55314" lon="12.19058">
        <ele>1740.6</ele>
        <time>2012-08-01T15:09:36Z</time>
      </trkpt>
      <trkpt lat="46.55302" lon="12.19013">
        <ele>1735.8</ele>
        <time>2012-08-01T15:09:38Z</time>
      </trkpt>
      <trkpt lat="46.55289" lon="12.18962">
        <ele>1730.51</ele>
        <time>2012-08-01T15:09:41Z</time>
      </trkpt>
      <trkpt lat="46.55282" lon="12.18951">
        <ele>1728.59</ele>
        <time>2012-08-01T15:09:42Z</time>
      </trkpt>
      <trkpt lat="46.55272" lon="12.18944">
        <ele>1728.11</ele>
        <time>2012-08-01T15:09:43Z</time>
      </trkpt>
      <trkpt lat="46.55261" lon="12.18941">
        <ele>1726.67</ele>
        <time>2012-08-01T15:09:44Z</time>
      </trkpt>
      <trkpt lat="46.55251" lon="12.18945">
        <ele>1726.18</ele>
        <time>2012-08-01T15:09:45Z</time>
      </trkpt>
      <trkpt lat="46.55241" lon="12.18955">
        <ele>1725.7</ele>
        <time>2012-08-01T15:09:46Z</time>
      </trkpt>
      <trkpt lat="46.55233" lon="12.18971">
        <ele>1725.22</ele>
        <time>2012-08-01T15:09:47Z</time>
      </trkpt>
      <trkpt lat="46.55226" lon="12.18992">
        <ele>1725.22</ele>
        <time>2012-08-01T15:09:48Z</time>
      </trkpt>
      <trkpt lat="46.55205" lon="12.19053">
        <ele>1720.9</ele>
        <time>2012-08-01T15:09:51Z</time>
      </trkpt>
      <trkpt lat="46.55193" lon="12.1908">
        <ele>1717.53</ele>
        <time>2012-08-01T15:09:53Z</time>
      </trkpt>
      <trkpt lat="46.55187" lon="12.19088">
        <ele>1716.57</ele>
        <time>2012-08-01T15:09:54Z</time>
      </trkpt>
      <trkpt lat="46.55172" lon="12.19092">
        <ele>1713.69</ele>
        <time>2012-08-01T15:09:57Z</time>
      </trkpt>
      <trkpt lat="46.55165" lon="12.19081">
        <ele>1713.69</ele>
        <time>2012-08-01T15:09:58Z</time>
      </trkpt>
      <trkpt lat="46.55161" lon="12.19068">
        <ele>1713.21</ele>
        <time>2012-08-01T15:09:59Z</time>
      </trkpt>
      <trkpt lat="46.55158" lon="12.19039">
        <ele>1711.76</ele>
        <time>2012-08-01T15:10:01Z</time>
      </trkpt>
      <trkpt lat="46.55147" lon="12.18995">
        <ele>1710.32</ele>
        <time>2012-08-01T15:10:03Z</time>
      </trkpt>
      <trkpt lat="46.55146" lon="12.1898">
        <ele>1709.36</ele>
        <time>2012-08-01T15:10:04Z</time>
      </trkpt>
      <trkpt lat="46.55144" lon="12.18909">
        <ele>1706</ele>
        <time>2012-08-01T15:10:10Z</time>
      </trkpt>
      <trkpt lat="46.55144" lon="12.18785">
        <ele>1704.07</ele>
        <time>2012-08-01T15:10:23Z</time>
      </trkpt>
      <trkpt lat="46.55142" lon="12.18752">
        <ele>1704.07</ele>
        <time>2012-08-01T15:10:25Z</time>
      </trkpt>
      <trkpt lat="46.55138" lon="12.18734">
        <ele>1704.55</ele>
        <time>2012-08-01T15:10:26Z</time>
      </trkpt>
      <trkpt lat="46.55133" lon="12.18716">
        <ele>1703.59</ele>
        <time>2012-08-01T15:10:27Z</time>
      </trkpt>
      <trkpt lat="46.55125" lon="12.18696">
        <ele>1703.59</ele>
        <time>2012-08-01T15:10:28Z</time>
      </trkpt>
      <trkpt lat="46.55117" lon="12.18676">
        <ele>1701.67</ele>
        <time>2012-08-01T15:10:29Z</time>
      </trkpt>
      <trkpt lat="46.55089" lon="12.18613">
        <ele>1696.86</ele>
        <time>2012-08-01T15:10:32Z</time>
      </trkpt>
      <trkpt lat="46.55066" lon="12.18549">
        <ele>1692.06</ele>
        <time>2012-08-01T15:10:35Z</time>
      </trkpt>
      <trkpt lat="46.55053" lon="12.18504">
        <ele>1689.17</ele>
        <time>2012-08-01T15:10:37Z</time>
      </trkpt>
      <trkpt lat="46.55042" lon="12.1846">
        <ele>1685.33</ele>
        <time>2012-08-01T15:10:39Z</time>
      </trkpt>
      <trkpt lat="46.55026" lon="12.18393">
        <ele>1681.48</ele>
        <time>2012-08-01T15:10:42Z</time>
      </trkpt>
      <trkpt lat="46.55016" lon="12.18354">
        <ele>1678.12</ele>
        <time>2012-08-01T15:10:44Z</time>
      </trkpt>
      <trkpt lat="46.55006" lon="12.18319">
        <ele>1673.79</ele>
        <time>2012-08-01T15:10:46Z</time>
      </trkpt>
      <trkpt lat="46.54995" lon="12.1827">
        <ele>1669.95</ele>
        <time>2012-08-01T15:10:49Z</time>
      </trkpt>
      <trkpt lat="46.54992" lon="12.18252">
        <ele>1668.99</ele>
        <time>2012-08-01T15:10:50Z</time>
      </trkpt>
      <trkpt lat="46.54991" lon="12.18233">
        <ele>1668.51</ele>
        <time>2012-08-01T15:10:51Z</time>
      </trkpt>
      <trkpt lat="46.5499" lon="12.18215">
        <ele>1667.06</ele>
        <time>2012-08-01T15:10:52Z</time>
      </trkpt>
      <trkpt lat="46.54989" lon="12.18156">
        <ele>1665.14</ele>
        <time>2012-08-01T15:10:55Z</time>
      </trkpt>
      <trkpt lat="46.54988" lon="12.18135">
        <ele>1663.7</ele>
        <time>2012-08-01T15:10:56Z</time>
      </trkpt>
      <trkpt lat="46.54986" lon="12.18115">
        <ele>1662.26</ele>
        <time>2012-08-01T15:10:57Z</time>
      </trkpt>
      <trkpt lat="46.54976" lon="12.18041">
        <ele>1658.89</ele>
        <time>2012-08-01T15:11:01Z</time>
      </trkpt>
      <trkpt lat="46.54969" lon="12.17976">
        <ele>1656.01</ele>
        <time>2012-08-01T15:11:05Z</time>
      </trkpt>
      <trkpt lat="46.54964" lon="12.17906">
        <ele>1653.12</ele>
        <time>2012-08-01T15:11:10Z</time>
      </trkpt>
      <trkpt lat="46.5496" lon="12.1783">
        <ele>1650.72</ele>
        <time>2012-08-01T15:11:15Z</time>
      </trkpt>
      <trkpt lat="46.54957" lon="12.17815">
        <ele>1650.24</ele>
        <time>2012-08-01T15:11:16Z</time>
      </trkpt>
      <trkpt lat="46.54953" lon="12.17801">
        <ele>1649.76</ele>
        <time>2012-08-01T15:11:17Z</time>
      </trkpt>
      <trkpt lat="46.54948" lon="12.17788">
        <ele>1649.28</ele>
        <time>2012-08-01T15:11:18Z</time>
      </trkpt>
      <trkpt lat="46.54941" lon="12.17777">
        <ele>1648.8</ele>
        <time>2012-08-01T15:11:19Z</time>
      </trkpt>
      <trkpt lat="46.54935" lon="12.17767">
        <ele>1648.32</ele>
        <time>2012-08-01T15:11:20Z</time>
      </trkpt>
      <trkpt lat="46.54914" lon="12.17736">
        <ele>1647.36</ele>
        <time>2012-08-01T15:11:23Z</time>
      </trkpt>
      <trkpt lat="46.54883" lon="12.1769">
        <ele>1645.43</ele>
        <time>2012-08-01T15:11:28Z</time>
      </trkpt>
      <trkpt lat="46.54878" lon="12.17679">
        <ele>1644.95</ele>
        <time>2012-08-01T15:11:29Z</time>
      </trkpt>
      <trkpt lat="46.54874" lon="12.17665">
        <ele>1644.47</ele>
        <time>2012-08-01T15:11:30Z</time>
      </trkpt>
      <trkpt lat="46.54871" lon="12.1765">
        <ele>1643.99</ele>
        <time>2012-08-01T15:11:31Z</time>
      </trkpt>
      <trkpt lat="46.54869" lon="12.17635">
        <ele>1643.51</ele>
        <time>2012-08-01T15:11:32Z</time>
      </trkpt>
      <trkpt lat="46.54869" lon="12.17619">
        <ele>1643.51</ele>
        <time>2012-08-01T15:11:33Z</time>
      </trkpt>
      <trkpt lat="46.5487" lon="12.17603">
        <ele>1643.03</ele>
        <time>2012-08-01T15:11:34Z</time>
      </trkpt>
      <trkpt lat="46.54872" lon="12.17588">
        <ele>1642.55</ele>
        <time>2012-08-01T15:11:35Z</time>
      </trkpt>
      <trkpt lat="46.5488" lon="12.17533">
        <ele>1638.7</ele>
        <time>2012-08-01T15:11:39Z</time>
      </trkpt>
      <trkpt lat="46.54887" lon="12.17476">
        <ele>1635.34</ele>
        <time>2012-08-01T15:11:43Z</time>
      </trkpt>
      <trkpt lat="46.54888" lon="12.17459">
        <ele>1634.86</ele>
        <time>2012-08-01T15:11:44Z</time>
      </trkpt>
      <trkpt lat="46.54887" lon="12.1744">
        <ele>1633.9</ele>
        <time>2012-08-01T15:11:45Z</time>
      </trkpt>
      <trkpt lat="46.54879" lon="12.17385">
        <ele>1630.05</ele>
        <time>2012-08-01T15:11:48Z</time>
      </trkpt>
      <trkpt lat="46.54869" lon="12.17327">
        <ele>1626.21</ele>
        <time>2012-08-01T15:11:51Z</time>
      </trkpt>
      <trkpt lat="46.54859" lon="12.17271">
        <ele>1622.36</ele>
        <time>2012-08-01T15:11:54Z</time>
      </trkpt>
      <trkpt lat="46.54849" lon="12.17216">
        <ele>1619.48</ele>
        <time>2012-08-01T15:11:57Z</time>
      </trkpt>
      <trkpt lat="46.5484" lon="12.17166">
        <ele>1614.67</ele>
        <time>2012-08-01T15:12:00Z</time>
      </trkpt>
      <trkpt lat="46.54832" lon="12.17133">
        <ele>1611.31</ele>
        <time>2012-08-01T15:12:03Z</time>
      </trkpt>
      <trkpt lat="46.54829" lon="12.17125">
        <ele>1610.35</ele>
        <time>2012-08-01T15:12:04Z</time>
      </trkpt>
      <trkpt lat="46.54826" lon="12.17119">
        <ele>1609.86</ele>
        <time>2012-08-01T15:12:05Z</time>
      </trkpt>
      <trkpt lat="46.54822" lon="12.17113">
        <ele>1608.9</ele>
        <time>2012-08-01T15:12:06Z</time>
      </trkpt>
      <trkpt lat="46.54816" lon="12.17108">
        <ele>1608.42</ele>
        <time>2012-08-01T15:12:07Z</time>
      </trkpt>
      <trkpt lat="46.54809" lon="12.17103">
        <ele>1607.94</ele>
        <time>2012-08-01T15:12:08Z</time>
      </trkpt>
      <trkpt lat="46.548" lon="12.17101">
        <ele>1607.46</ele>
        <time>2012-08-01T15:12:09Z</time>
      </trkpt>
      <trkpt lat="46.54789" lon="12.17101">
        <ele>1607.94</ele>
        <time>2012-08-01T15:12:10Z</time>
      </trkpt>
      <trkpt lat="46.54777" lon="12.17105">
        <ele>1607.94</ele>
        <time>2012-08-01T15:12:11Z</time>
      </trkpt>
      <trkpt lat="46.54764" lon="12.17116">
        <ele>1606.98</ele>
        <time>2012-08-01T15:12:12Z</time>
      </trkpt>
      <trkpt lat="46.54754" lon="12.17131">
        <ele>1605.06</ele>
        <time>2012-08-01T15:12:13Z</time>
      </trkpt>
      <trkpt lat="46.54745" lon="12.17146">
        <ele>1603.62</ele>
        <time>2012-08-01T15:12:14Z</time>
      </trkpt>
      <trkpt lat="46.54735" lon="12.17159">
        <ele>1601.69</ele>
        <time>2012-08-01T15:12:15Z</time>
      </trkpt>
      <trkpt lat="46.54724" lon="12.17167">
        <ele>1600.73</ele>
        <time>2012-08-01T15:12:16Z</time>
      </trkpt>
      <trkpt lat="46.54713" lon="12.17171">
        <ele>1599.77</ele>
        <time>2012-08-01T15:12:17Z</time>
      </trkpt>
      <trkpt lat="46.54702" lon="12.17169">
        <ele>1598.81</ele>
        <time>2012-08-01T15:12:18Z</time>
      </trkpt>
      <trkpt lat="46.54693" lon="12.1716">
        <ele>1597.37</ele>
        <time>2012-08-01T15:12:19Z</time>
      </trkpt>
      <trkpt lat="46.54685" lon="12.17145">
        <ele>1596.41</ele>
        <time>2012-08-01T15:12:20Z</time>
      </trkpt>
      <trkpt lat="46.54682" lon="12.17125">
        <ele>1596.41</ele>
        <time>2012-08-01T15:12:21Z</time>
      </trkpt>
      <trkpt lat="46.54684" lon="12.17103">
        <ele>1594.96</ele>
        <time>2012-08-01T15:12:22Z</time>
      </trkpt>
      <trkpt lat="46.54691" lon="12.17084">
        <ele>1593.04</ele>
        <time>2012-08-01T15:12:23Z</time>
      </trkpt>
      <trkpt lat="46.54699" lon="12.17067">
        <ele>1591.6</ele>
        <time>2012-08-01T15:12:24Z</time>
      </trkpt>
      <trkpt lat="46.54707" lon="12.17051">
        <ele>1590.64</ele>
        <time>2012-08-01T15:12:25Z</time>
      </trkpt>
      <trkpt lat="46.54715" lon="12.17036">
        <ele>1588.72</ele>
        <time>2012-08-01T15:12:26Z</time>
      </trkpt>
      <trkpt lat="46.54721" lon="12.17019">
        <ele>1587.75</ele>
        <time>2012-08-01T15:12:27Z</time>
      </trkpt>
      <trkpt lat="46.54725" lon="12.17003">
        <ele>1585.83</ele>
        <time>2012-08-01T15:12:28Z</time>
      </trkpt>
      <trkpt lat="46.54724" lon="12.16983">
        <ele>1585.35</ele>
        <time>2012-08-01T15:12:29Z</time>
      </trkpt>
      <trkpt lat="46.54721" lon="12.16962">
        <ele>1584.39</ele>
        <time>2012-08-01T15:12:30Z</time>
      </trkpt>
      <trkpt lat="46.54719" lon="12.16941">
        <ele>1581.99</ele>
        <time>2012-08-01T15:12:31Z</time>
      </trkpt>
      <trkpt lat="46.54718" lon="12.16921">
        <ele>1580.54</ele>
        <time>2012-08-01T15:12:32Z</time>
      </trkpt>
      <trkpt lat="46.5472" lon="12.1687">
        <ele>1576.7</ele>
        <time>2012-08-01T15:12:35Z</time>
      </trkpt>
      <trkpt lat="46.54722" lon="12.16853">
        <ele>1575.74</ele>
        <time>2012-08-01T15:12:36Z</time>
      </trkpt>
      <trkpt lat="46.54727" lon="12.16835">
        <ele>1575.26</ele>
        <time>2012-08-01T15:12:37Z</time>
      </trkpt>
      <trkpt lat="46.54734" lon="12.16815">
        <ele>1575.26</ele>
        <time>2012-08-01T15:12:38Z</time>
      </trkpt>
      <trkpt lat="46.54743" lon="12.16795">
        <ele>1573.82</ele>
        <time>2012-08-01T15:12:39Z</time>
      </trkpt>
      <trkpt lat="46.54761" lon="12.16754">
        <ele>1569.01</ele>
        <time>2012-08-01T15:12:41Z</time>
      </trkpt>
      <trkpt lat="46.54768" lon="12.16733">
        <ele>1568.53</ele>
        <time>2012-08-01T15:12:42Z</time>
      </trkpt>
      <trkpt lat="46.54773" lon="12.1671">
        <ele>1567.09</ele>
        <time>2012-08-01T15:12:43Z</time>
      </trkpt>
      <trkpt lat="46.54775" lon="12.16688">
        <ele>1565.16</ele>
        <time>2012-08-01T15:12:44Z</time>
      </trkpt>
      <trkpt lat="46.54776" lon="12.16669">
        <ele>1562.76</ele>
        <time>2012-08-01T15:12:45Z</time>
      </trkpt>
      <trkpt lat="46.54775" lon="12.16651">
        <ele>1560.84</ele>
        <time>2012-08-01T15:12:46Z</time>
      </trkpt>
      <trkpt lat="46.5477" lon="12.16636">
        <ele>1559.88</ele>
        <time>2012-08-01T15:12:47Z</time>
      </trkpt>
      <trkpt lat="46.54763" lon="12.16623">
        <ele>1559.88</ele>
        <time>2012-08-01T15:12:48Z</time>
      </trkpt>
      <trkpt lat="46.54753" lon="12.16615">
        <ele>1558.43</ele>
        <time>2012-08-01T15:12:49Z</time>
      </trkpt>
      <trkpt lat="46.54742" lon="12.16612">
        <ele>1557.47</ele>
        <time>2012-08-01T15:12:50Z</time>
      </trkpt>
      <trkpt lat="46.5473" lon="12.16616">
        <ele>1556.51</ele>
        <time>2012-08-01T15:12:51Z</time>
      </trkpt>
      <trkpt lat="46.54719" lon="12.16625">
        <ele>1556.03</ele>
        <time>2012-08-01T15:12:52Z</time>
      </trkpt>
      <trkpt lat="46.5471" lon="12.16642">
        <ele>1556.03</ele>
        <time>2012-08-01T15:12:53Z</time>
      </trkpt>
      <trkpt lat="46.54703" lon="12.16664">
        <ele>1556.51</ele>
        <time>2012-08-01T15:12:54Z</time>
      </trkpt>
      <trkpt lat="46.54698" lon="12.16689">
        <ele>1556.99</ele>
        <time>2012-08-01T15:12:55Z</time>
      </trkpt>
      <trkpt lat="46.54693" lon="12.16713">
        <ele>1556.03</ele>
        <time>2012-08-01T15:12:56Z</time>
      </trkpt>
      <trkpt lat="46.54684" lon="12.16755">
        <ele>1552.67</ele>
        <time>2012-08-01T15:12:58Z</time>
      </trkpt>
      <trkpt lat="46.54678" lon="12.16772">
        <ele>1551.71</ele>
        <time>2012-08-01T15:12:59Z</time>
      </trkpt>
      <trkpt lat="46.54671" lon="12.16787">
        <ele>1549.78</ele>
        <time>2012-08-01T15:13:00Z</time>
      </trkpt>
      <trkpt lat="46.54661" lon="12.16794">
        <ele>1549.78</ele>
        <time>2012-08-01T15:13:01Z</time>
      </trkpt>
      <trkpt lat="46.5465" lon="12.16796">
        <ele>1548.82</ele>
        <time>2012-08-01T15:13:02Z</time>
      </trkpt>
      <trkpt lat="46.54639" lon="12.16792">
        <ele>1546.9</ele>
        <time>2012-08-01T15:13:03Z</time>
      </trkpt>
      <trkpt lat="46.5463" lon="12.16783">
        <ele>1545.94</ele>
        <time>2012-08-01T15:13:04Z</time>
      </trkpt>
      <trkpt lat="46.54623" lon="12.16771">
        <ele>1545.46</ele>
        <time>2012-08-01T15:13:05Z</time>
      </trkpt>
      <trkpt lat="46.54618" lon="12.16755">
        <ele>1544.98</ele>
        <time>2012-08-01T15:13:06Z</time>
      </trkpt>
      <trkpt lat="46.54613" lon="12.16735">
        <ele>1544.98</ele>
        <time>2012-08-01T15:13:07Z</time>
      </trkpt>
      <trkpt lat="46.54609" lon="12.16712">
        <ele>1544.5</ele>
        <time>2012-08-01T15:13:08Z</time>
      </trkpt>
      <trkpt lat="46.54606" lon="12.16686">
        <ele>1544.5</ele>
        <time>2012-08-01T15:13:09Z</time>
      </trkpt>
      <trkpt lat="46.54605" lon="12.16659">
        <ele>1543.53</ele>
        <time>2012-08-01T15:13:10Z</time>
      </trkpt>
      <trkpt lat="46.54605" lon="12.1663">
        <ele>1541.13</ele>
        <time>2012-08-01T15:13:11Z</time>
      </trkpt>
      <trkpt lat="46.54607" lon="12.16573">
        <ele>1538.25</ele>
        <time>2012-08-01T15:13:13Z</time>
      </trkpt>
      <trkpt lat="46.54607" lon="12.16548">
        <ele>1533.92</ele>
        <time>2012-08-01T15:13:14Z</time>
      </trkpt>
      <trkpt lat="46.54611" lon="12.16509">
        <ele>1529.11</ele>
        <time>2012-08-01T15:13:16Z</time>
      </trkpt>
      <trkpt lat="46.54612" lon="12.1648">
        <ele>1525.75</ele>
        <time>2012-08-01T15:13:18Z</time>
      </trkpt>
      <trkpt lat="46.54611" lon="12.16469">
        <ele>1524.79</ele>
        <time>2012-08-01T15:13:19Z</time>
      </trkpt>
      <trkpt lat="46.54608" lon="12.16461">
        <ele>1523.35</ele>
        <time>2012-08-01T15:13:20Z</time>
      </trkpt>
      <trkpt lat="46.54603" lon="12.16457">
        <ele>1523.35</ele>
        <time>2012-08-01T15:13:21Z</time>
      </trkpt>
      <trkpt lat="46.54598" lon="12.16457">
        <ele>1523.35</ele>
        <time>2012-08-01T15:13:22Z</time>
      </trkpt>
      <trkpt lat="46.54594" lon="12.16461">
        <ele>1523.35</ele>
        <time>2012-08-01T15:13:23Z</time>
      </trkpt>
      <trkpt lat="46.54586" lon="12.1647">
        <ele>1523.83</ele>
        <time>2012-08-01T15:13:24Z</time>
      </trkpt>
      <trkpt lat="46.54579" lon="12.16479">
        <ele>1524.79</ele>
        <time>2012-08-01T15:13:25Z</time>
      </trkpt>
      <trkpt lat="46.54571" lon="12.16492">
        <ele>1524.31</ele>
        <time>2012-08-01T15:13:26Z</time>
      </trkpt>
      <trkpt lat="46.54563" lon="12.1651">
        <ele>1524.31</ele>
        <time>2012-08-01T15:13:27Z</time>
      </trkpt>
      <trkpt lat="46.54552" lon="12.16528">
        <ele>1524.31</ele>
        <time>2012-08-01T15:13:28Z</time>
      </trkpt>
      <trkpt lat="46.5453" lon="12.16585">
        <ele>1521.42</ele>
        <time>2012-08-01T15:13:31Z</time>
      </trkpt>
      <trkpt lat="46.54519" lon="12.16598">
        <ele>1519.98</ele>
        <time>2012-08-01T15:13:32Z</time>
      </trkpt>
      <trkpt lat="46.5451" lon="12.16604">
        <ele>1519.02</ele>
        <time>2012-08-01T15:13:33Z</time>
      </trkpt>
      <trkpt lat="46.54504" lon="12.16609">
        <ele>1518.54</ele>
        <time>2012-08-01T15:13:34Z</time>
      </trkpt>
      <trkpt lat="46.54498" lon="12.1661">
        <ele>1518.54</ele>
        <time>2012-08-01T15:13:35Z</time>
      </trkpt>
      <trkpt lat="46.54491" lon="12.16607">
        <ele>1518.06</ele>
        <time>2012-08-01T15:13:36Z</time>
      </trkpt>
      <trkpt lat="46.54483" lon="12.16601">
        <ele>1518.54</ele>
        <time>2012-08-01T15:13:37Z</time>
      </trkpt>
      <trkpt lat="46.54475" lon="12.16591">
        <ele>1518.06</ele>
        <time>2012-08-01T15:13:38Z</time>
      </trkpt>
      <trkpt lat="46.54467" lon="12.16581">
        <ele>1517.1</ele>
        <time>2012-08-01T15:13:39Z</time>
      </trkpt>
      <trkpt lat="46.54462" lon="12.16568">
        <ele>1516.14</ele>
        <time>2012-08-01T15:13:40Z</time>
      </trkpt>
      <trkpt lat="46.54456" lon="12.16547">
        <ele>1516.14</ele>
        <time>2012-08-01T15:13:41Z</time>
      </trkpt>
      <trkpt lat="46.54449" lon="12.16522">
        <ele>1514.69</ele>
        <time>2012-08-01T15:13:42Z</time>
      </trkpt>
      <trkpt lat="46.54441" lon="12.16496">
        <ele>1514.69</ele>
        <time>2012-08-01T15:13:43Z</time>
      </trkpt>
      <trkpt lat="46.54434" lon="12.1647">
        <ele>1512.77</ele>
        <time>2012-08-01T15:13:44Z</time>
      </trkpt>
      <trkpt lat="46.54429" lon="12.16444">
        <ele>1511.81</ele>
        <time>2012-08-01T15:13:45Z</time>
      </trkpt>
      <trkpt lat="46.54427" lon="12.16418">
        <ele>1510.37</ele>
        <time>2012-08-01T15:13:46Z</time>
      </trkpt>
      <trkpt lat="46.54423" lon="12.16376">
        <ele>1507.48</ele>
        <time>2012-08-01T15:13:48Z</time>
      </trkpt>
      <trkpt lat="46.54419" lon="12.1636">
        <ele>1506.52</ele>
        <time>2012-08-01T15:13:49Z</time>
      </trkpt>
      <trkpt lat="46.54411" lon="12.16348">
        <ele>1505.56</ele>
        <time>2012-08-01T15:13:50Z</time>
      </trkpt>
      <trkpt lat="46.544" lon="12.16341">
        <ele>1505.08</ele>
        <time>2012-08-01T15:13:51Z</time>
      </trkpt>
      <trkpt lat="46.54385" lon="12.16339">
        <ele>1505.56</ele>
        <time>2012-08-01T15:13:52Z</time>
      </trkpt>
      <trkpt lat="46.54367" lon="12.16339">
        <ele>1506.04</ele>
        <time>2012-08-01T15:13:53Z</time>
      </trkpt>
      <trkpt lat="46.54328" lon="12.16338">
        <ele>1504.6</ele>
        <time>2012-08-01T15:13:55Z</time>
      </trkpt>
      <trkpt lat="46.54308" lon="12.16334">
        <ele>1504.12</ele>
        <time>2012-08-01T15:13:56Z</time>
      </trkpt>
      <trkpt lat="46.54269" lon="12.16322">
        <ele>1500.27</ele>
        <time>2012-08-01T15:13:58Z</time>
      </trkpt>
      <trkpt lat="46.54253" lon="12.16316">
        <ele>1496.91</ele>
        <time>2012-08-01T15:13:59Z</time>
      </trkpt>
      <trkpt lat="46.54238" lon="12.16311">
        <ele>1493.55</ele>
        <time>2012-08-01T15:14:00Z</time>
      </trkpt>
      <trkpt lat="46.54225" lon="12.16305">
        <ele>1492.1</ele>
        <time>2012-08-01T15:14:01Z</time>
      </trkpt>
      <trkpt lat="46.54213" lon="12.16296">
        <ele>1490.18</ele>
        <time>2012-08-01T15:14:02Z</time>
      </trkpt>
      <trkpt lat="46.54203" lon="12.16281">
        <ele>1489.7</ele>
        <time>2012-08-01T15:14:03Z</time>
      </trkpt>
      <trkpt lat="46.54196" lon="12.1626">
        <ele>1488.74</ele>
        <time>2012-08-01T15:14:04Z</time>
      </trkpt>
      <trkpt lat="46.5419" lon="12.16234">
        <ele>1488.74</ele>
        <time>2012-08-01T15:14:05Z</time>
      </trkpt>
      <trkpt lat="46.54184" lon="12.16207">
        <ele>1487.78</ele>
        <time>2012-08-01T15:14:06Z</time>
      </trkpt>
      <trkpt lat="46.54181" lon="12.16178">
        <ele>1486.82</ele>
        <time>2012-08-01T15:14:07Z</time>
      </trkpt>
      <trkpt lat="46.54181" lon="12.16147">
        <ele>1484.89</ele>
        <time>2012-08-01T15:14:08Z</time>
      </trkpt>
      <trkpt lat="46.54183" lon="12.16116">
        <ele>1483.45</ele>
        <time>2012-08-01T15:14:09Z</time>
      </trkpt>
      <trkpt lat="46.54187" lon="12.1606">
        <ele>1477.68</ele>
        <time>2012-08-01T15:14:11Z</time>
      </trkpt>
      <trkpt lat="46.54192" lon="12.16015">
        <ele>1472.88</ele>
        <time>2012-08-01T15:14:13Z</time>
      </trkpt>
      <trkpt lat="46.54196" lon="12.15995">
        <ele>1470.95</ele>
        <time>2012-08-01T15:14:14Z</time>
      </trkpt>
      <trkpt lat="46.54202" lon="12.15978">
        <ele>1469.03</ele>
        <time>2012-08-01T15:14:15Z</time>
      </trkpt>
      <trkpt lat="46.54213" lon="12.15965">
        <ele>1467.59</ele>
        <time>2012-08-01T15:14:16Z</time>
      </trkpt>
      <trkpt lat="46.54226" lon="12.15956">
        <ele>1467.59</ele>
        <time>2012-08-01T15:14:17Z</time>
      </trkpt>
      <trkpt lat="46.54243" lon="12.15951">
        <ele>1468.07</ele>
        <time>2012-08-01T15:14:18Z</time>
      </trkpt>
      <trkpt lat="46.5426" lon="12.15949">
        <ele>1467.11</ele>
        <time>2012-08-01T15:14:19Z</time>
      </trkpt>
      <trkpt lat="46.54304" lon="12.15938">
        <ele>1463.26</ele>
        <time>2012-08-01T15:14:22Z</time>
      </trkpt>
      <trkpt lat="46.54314" lon="12.1593">
        <ele>1462.3</ele>
        <time>2012-08-01T15:14:23Z</time>
      </trkpt>
      <trkpt lat="46.54322" lon="12.15917">
        <ele>1462.3</ele>
        <time>2012-08-01T15:14:24Z</time>
      </trkpt>
      <trkpt lat="46.54326" lon="12.15899">
        <ele>1461.82</ele>
        <time>2012-08-01T15:14:25Z</time>
      </trkpt>
      <trkpt lat="46.54326" lon="12.1588">
        <ele>1461.34</ele>
        <time>2012-08-01T15:14:26Z</time>
      </trkpt>
      <trkpt lat="46.54322" lon="12.15862">
        <ele>1460.38</ele>
        <time>2012-08-01T15:14:27Z</time>
      </trkpt>
      <trkpt lat="46.54313" lon="12.15846">
        <ele>1459.9</ele>
        <time>2012-08-01T15:14:28Z</time>
      </trkpt>
      <trkpt lat="46.543" lon="12.15831">
        <ele>1460.38</ele>
        <time>2012-08-01T15:14:29Z</time>
      </trkpt>
      <trkpt lat="46.54285" lon="12.15819">
        <ele>1459.42</ele>
        <time>2012-08-01T15:14:30Z</time>
      </trkpt>
      <trkpt lat="46.54268" lon="12.15808">
        <ele>1457.5</ele>
        <time>2012-08-01T15:14:31Z</time>
      </trkpt>
      <trkpt lat="46.5424" lon="12.1579">
        <ele>1453.65</ele>
        <time>2012-08-01T15:14:33Z</time>
      </trkpt>
      <trkpt lat="46.54218" lon="12.15769">
        <ele>1449.81</ele>
        <time>2012-08-01T15:14:35Z</time>
      </trkpt>
      <trkpt lat="46.54211" lon="12.15751">
        <ele>1449.81</ele>
        <time>2012-08-01T15:14:36Z</time>
      </trkpt>
      <trkpt lat="46.54208" lon="12.15728">
        <ele>1449.81</ele>
        <time>2012-08-01T15:14:37Z</time>
      </trkpt>
      <trkpt lat="46.54203" lon="12.15683">
        <ele>1445.48</ele>
        <time>2012-08-01T15:14:39Z</time>
      </trkpt>
      <trkpt lat="46.54197" lon="12.15664">
        <ele>1444.04</ele>
        <time>2012-08-01T15:14:40Z</time>
      </trkpt>
      <trkpt lat="46.54188" lon="12.15645">
        <ele>1443.56</ele>
        <time>2012-08-01T15:14:41Z</time>
      </trkpt>
      <trkpt lat="46.54177" lon="12.1563">
        <ele>1441.63</ele>
        <time>2012-08-01T15:14:42Z</time>
      </trkpt>
      <trkpt lat="46.54167" lon="12.15617">
        <ele>1439.23</ele>
        <time>2012-08-01T15:14:43Z</time>
      </trkpt>
      <trkpt lat="46.5416" lon="12.15603">
        <ele>1436.35</ele>
        <time>2012-08-01T15:14:44Z</time>
      </trkpt>
      <trkpt lat="46.54157" lon="12.15588">
        <ele>1435.39</ele>
        <time>2012-08-01T15:14:45Z</time>
      </trkpt>
      <trkpt lat="46.5416" lon="12.1557">
        <ele>1434.42</ele>
        <time>2012-08-01T15:14:46Z</time>
      </trkpt>
      <trkpt lat="46.54168" lon="12.15552">
        <ele>1434.42</ele>
        <time>2012-08-01T15:14:47Z</time>
      </trkpt>
      <trkpt lat="46.54179" lon="12.15533">
        <ele>1433.94</ele>
        <time>2012-08-01T15:14:48Z</time>
      </trkpt>
      <trkpt lat="46.54187" lon="12.15513">
        <ele>1431.06</ele>
        <time>2012-08-01T15:14:49Z</time>
      </trkpt>
      <trkpt lat="46.54193" lon="12.15497">
        <ele>1428.66</ele>
        <time>2012-08-01T15:14:50Z</time>
      </trkpt>
      <trkpt lat="46.54201" lon="12.15485">
        <ele>1426.73</ele>
        <time>2012-08-01T15:14:51Z</time>
      </trkpt>
      <trkpt lat="46.54209" lon="12.15477">
        <ele>1425.29</ele>
        <time>2012-08-01T15:14:52Z</time>
      </trkpt>
      <trkpt lat="46.54219" lon="12.15473">
        <ele>1423.37</ele>
        <time>2012-08-01T15:14:53Z</time>
      </trkpt>
      <trkpt lat="46.54229" lon="12.15472">
        <ele>1422.41</ele>
        <time>2012-08-01T15:14:54Z</time>
      </trkpt>
      <trkpt lat="46.54241" lon="12.15475">
        <ele>1422.41</ele>
        <time>2012-08-01T15:14:55Z</time>
      </trkpt>
      <trkpt lat="46.54249" lon="12.15484">
        <ele>1421.45</ele>
        <time>2012-08-01T15:14:56Z</time>
      </trkpt>
      <trkpt lat="46.54264" lon="12.15505">
        <ele>1419.52</ele>
        <time>2012-08-01T15:14:58Z</time>
      </trkpt>
      <trkpt lat="46.54276" lon="12.1552">
        <ele>1418.56</ele>
        <time>2012-08-01T15:14:59Z</time>
      </trkpt>
      <trkpt lat="46.54289" lon="12.15532">
        <ele>1417.6</ele>
        <time>2012-08-01T15:15:00Z</time>
      </trkpt>
      <trkpt lat="46.54301" lon="12.15543">
        <ele>1415.2</ele>
        <time>2012-08-01T15:15:01Z</time>
      </trkpt>
      <trkpt lat="46.54309" lon="12.15558">
        <ele>1412.79</ele>
        <time>2012-08-01T15:15:02Z</time>
      </trkpt>
      <trkpt lat="46.54318" lon="12.15558">
        <ele>1411.83</ele>
        <time>2012-08-01T15:15:03Z</time>
      </trkpt>
      <trkpt lat="46.54324" lon="12.15549">
        <ele>1410.87</ele>
        <time>2012-08-01T15:15:04Z</time>
      </trkpt>
      <trkpt lat="46.54327" lon="12.15534">
        <ele>1410.39</ele>
        <time>2012-08-01T15:15:05Z</time>
      </trkpt>
      <trkpt lat="46.54326" lon="12.15515">
        <ele>1410.39</ele>
        <time>2012-08-01T15:15:06Z</time>
      </trkpt>
      <trkpt lat="46.54325" lon="12.15493">
        <ele>1409.91</ele>
        <time>2012-08-01T15:15:07Z</time>
      </trkpt>
      <trkpt lat="46.54322" lon="12.15453">
        <ele>1406.07</ele>
        <time>2012-08-01T15:15:09Z</time>
      </trkpt>
      <trkpt lat="46.5432" lon="12.15437">
        <ele>1404.62</ele>
        <time>2012-08-01T15:15:10Z</time>
      </trkpt>
      <trkpt lat="46.54315" lon="12.15422">
        <ele>1403.18</ele>
        <time>2012-08-01T15:15:11Z</time>
      </trkpt>
      <trkpt lat="46.54307" lon="12.15408">
        <ele>1402.7</ele>
        <time>2012-08-01T15:15:12Z</time>
      </trkpt>
      <trkpt lat="46.54296" lon="12.15397">
        <ele>1401.26</ele>
        <time>2012-08-01T15:15:13Z</time>
      </trkpt>
      <trkpt lat="46.54284" lon="12.15387">
        <ele>1400.3</ele>
        <time>2012-08-01T15:15:14Z</time>
      </trkpt>
      <trkpt lat="46.54274" lon="12.15376">
        <ele>1397.89</ele>
        <time>2012-08-01T15:15:15Z</time>
      </trkpt>
      <trkpt lat="46.54268" lon="12.1536">
        <ele>1395.97</ele>
        <time>2012-08-01T15:15:16Z</time>
      </trkpt>
      <trkpt lat="46.54265" lon="12.15342">
        <ele>1394.53</ele>
        <time>2012-08-01T15:15:17Z</time>
      </trkpt>
      <trkpt lat="46.54267" lon="12.15325">
        <ele>1393.09</ele>
        <time>2012-08-01T15:15:18Z</time>
      </trkpt>
      <trkpt lat="46.54275" lon="12.15309">
        <ele>1392.61</ele>
        <time>2012-08-01T15:15:19Z</time>
      </trkpt>
      <trkpt lat="46.54285" lon="12.15293">
        <ele>1392.13</ele>
        <time>2012-08-01T15:15:20Z</time>
      </trkpt>
      <trkpt lat="46.54295" lon="12.15278">
        <ele>1388.76</ele>
        <time>2012-08-01T15:15:21Z</time>
      </trkpt>
      <trkpt lat="46.54303" lon="12.15263">
        <ele>1386.84</ele>
        <time>2012-08-01T15:15:22Z</time>
      </trkpt>
      <trkpt lat="46.54308" lon="12.15247">
        <ele>1384.92</ele>
        <time>2012-08-01T15:15:23Z</time>
      </trkpt>
      <trkpt lat="46.5431" lon="12.15231">
        <ele>1383.96</ele>
        <time>2012-08-01T15:15:24Z</time>
      </trkpt>
      <trkpt lat="46.54307" lon="12.15213">
        <ele>1383.47</ele>
        <time>2012-08-01T15:15:25Z</time>
      </trkpt>
      <trkpt lat="46.54299" lon="12.15198">
        <ele>1382.51</ele>
        <time>2012-08-01T15:15:26Z</time>
      </trkpt>
      <trkpt lat="46.54288" lon="12.15186">
        <ele>1381.07</ele>
        <time>2012-08-01T15:15:27Z</time>
      </trkpt>
      <trkpt lat="46.54279" lon="12.15176">
        <ele>1379.63</ele>
        <time>2012-08-01T15:15:28Z</time>
      </trkpt>
      <trkpt lat="46.54273" lon="12.15164">
        <ele>1377.71</ele>
        <time>2012-08-01T15:15:29Z</time>
      </trkpt>
      <trkpt lat="46.54271" lon="12.15151">
        <ele>1376.26</ele>
        <time>2012-08-01T15:15:30Z</time>
      </trkpt>
      <trkpt lat="46.54273" lon="12.15138">
        <ele>1374.82</ele>
        <time>2012-08-01T15:15:31Z</time>
      </trkpt>
      <trkpt lat="46.54277" lon="12.15126">
        <ele>1374.34</ele>
        <time>2012-08-01T15:15:32Z</time>
      </trkpt>
      <trkpt lat="46.54283" lon="12.15118">
        <ele>1372.42</ele>
        <time>2012-08-01T15:15:33Z</time>
      </trkpt>
      <trkpt lat="46.54287" lon="12.15111">
        <ele>1370.98</ele>
        <time>2012-08-01T15:15:34Z</time>
      </trkpt>
      <trkpt lat="46.54293" lon="12.15108">
        <ele>1370.5</ele>
        <time>2012-08-01T15:15:35Z</time>
      </trkpt>
      <trkpt lat="46.54297" lon="12.15105">
        <ele>1369.05</ele>
        <time>2012-08-01T15:15:36Z</time>
      </trkpt>
      <trkpt lat="46.54303" lon="12.15104">
        <ele>1368.09</ele>
        <time>2012-08-01T15:15:37Z</time>
      </trkpt>
      <trkpt lat="46.54311" lon="12.15104">
        <ele>1366.65</ele>
        <time>2012-08-01T15:15:38Z</time>
      </trkpt>
      <trkpt lat="46.54322" lon="12.15105">
        <ele>1365.69</ele>
        <time>2012-08-01T15:15:39Z</time>
      </trkpt>
      <trkpt lat="46.54333" lon="12.15104">
        <ele>1365.69</ele>
        <time>2012-08-01T15:15:40Z</time>
      </trkpt>
      <trkpt lat="46.54344" lon="12.151">
        <ele>1365.21</ele>
        <time>2012-08-01T15:15:41Z</time>
      </trkpt>
      <trkpt lat="46.54359" lon="12.15101">
        <ele>1365.69</ele>
        <time>2012-08-01T15:15:42Z</time>
      </trkpt>
      <trkpt lat="46.5437" lon="12.15096">
        <ele>1365.69</ele>
        <time>2012-08-01T15:15:43Z</time>
      </trkpt>
      <trkpt lat="46.54381" lon="12.15092">
        <ele>1365.21</ele>
        <time>2012-08-01T15:15:44Z</time>
      </trkpt>
      <trkpt lat="46.5441" lon="12.15075">
        <ele>1362.81</ele>
        <time>2012-08-01T15:15:47Z</time>
      </trkpt>
      <trkpt lat="46.54418" lon="12.15065">
        <ele>1362.81</ele>
        <time>2012-08-01T15:15:48Z</time>
      </trkpt>
      <trkpt lat="46.54423" lon="12.15052">
        <ele>1362.33</ele>
        <time>2012-08-01T15:15:49Z</time>
      </trkpt>
      <trkpt lat="46.54425" lon="12.15038">
        <ele>1362.33</ele>
        <time>2012-08-01T15:15:50Z</time>
      </trkpt>
      <trkpt lat="46.54425" lon="12.15023">
        <ele>1361.84</ele>
        <time>2012-08-01T15:15:51Z</time>
      </trkpt>
      <trkpt lat="46.54424" lon="12.15008">
        <ele>1360.4</ele>
        <time>2012-08-01T15:15:52Z</time>
      </trkpt>
      <trkpt lat="46.54421" lon="12.14992">
        <ele>1359.92</ele>
        <time>2012-08-01T15:15:53Z</time>
      </trkpt>
      <trkpt lat="46.54406" lon="12.14912">
        <ele>1356.08</ele>
        <time>2012-08-01T15:15:58Z</time>
      </trkpt>
      <trkpt lat="46.54396" lon="12.1486">
        <ele>1354.15</ele>
        <time>2012-08-01T15:16:01Z</time>
      </trkpt>
      <trkpt lat="46.54377" lon="12.1477">
        <ele>1350.79</ele>
        <time>2012-08-01T15:16:06Z</time>
      </trkpt>
      <trkpt lat="46.54362" lon="12.14697">
        <ele>1347.43</ele>
        <time>2012-08-01T15:16:10Z</time>
      </trkpt>
      <trkpt lat="46.54336" lon="12.14623">
        <ele>1344.54</ele>
        <time>2012-08-01T15:16:14Z</time>
      </trkpt>
      <trkpt lat="46.54314" lon="12.14569">
        <ele>1340.22</ele>
        <time>2012-08-01T15:16:17Z</time>
      </trkpt>
      <trkpt lat="46.54284" lon="12.14495">
        <ele>1336.85</ele>
        <time>2012-08-01T15:16:21Z</time>
      </trkpt>
      <trkpt lat="46.54269" lon="12.14458">
        <ele>1333.01</ele>
        <time>2012-08-01T15:16:23Z</time>
      </trkpt>
      <trkpt lat="46.54239" lon="12.14387">
        <ele>1329.16</ele>
        <time>2012-08-01T15:16:27Z</time>
      </trkpt>
      <trkpt lat="46.54219" lon="12.14339">
        <ele>1324.83</ele>
        <time>2012-08-01T15:16:30Z</time>
      </trkpt>
      <trkpt lat="46.54186" lon="12.14258">
        <ele>1321.47</ele>
        <time>2012-08-01T15:16:35Z</time>
      </trkpt>
      <trkpt lat="46.54165" lon="12.14211">
        <ele>1317.62</ele>
        <time>2012-08-01T15:16:38Z</time>
      </trkpt>
      <trkpt lat="46.54155" lon="12.14199">
        <ele>1316.66</ele>
        <time>2012-08-01T15:16:39Z</time>
      </trkpt>
      <trkpt lat="46.54145" lon="12.14189">
        <ele>1316.18</ele>
        <time>2012-08-01T15:16:40Z</time>
      </trkpt>
      <trkpt lat="46.54133" lon="12.1418">
        <ele>1315.7</ele>
        <time>2012-08-01T15:16:41Z</time>
      </trkpt>
      <trkpt lat="46.54121" lon="12.14172">
        <ele>1313.78</ele>
        <time>2012-08-01T15:16:42Z</time>
      </trkpt>
      <trkpt lat="46.54075" lon="12.14138">
        <ele>1308.97</ele>
        <time>2012-08-01T15:16:46Z</time>
      </trkpt>
      <trkpt lat="46.54067" lon="12.14126">
        <ele>1307.53</ele>
        <time>2012-08-01T15:16:47Z</time>
      </trkpt>
      <trkpt lat="46.5406" lon="12.14112">
        <ele>1306.57</ele>
        <time>2012-08-01T15:16:48Z</time>
      </trkpt>
      <trkpt lat="46.54057" lon="12.14096">
        <ele>1305.13</ele>
        <time>2012-08-01T15:16:49Z</time>
      </trkpt>
      <trkpt lat="46.54056" lon="12.14079">
        <ele>1303.69</ele>
        <time>2012-08-01T15:16:50Z</time>
      </trkpt>
      <trkpt lat="46.54058" lon="12.14061">
        <ele>1303.2</ele>
        <time>2012-08-01T15:16:51Z</time>
      </trkpt>
      <trkpt lat="46.54063" lon="12.14043">
        <ele>1302.72</ele>
        <time>2012-08-01T15:16:52Z</time>
      </trkpt>
      <trkpt lat="46.54071" lon="12.14027">
        <ele>1301.28</ele>
        <time>2012-08-01T15:16:53Z</time>
      </trkpt>
      <trkpt lat="46.54079" lon="12.14012">
        <ele>1300.32</ele>
        <time>2012-08-01T15:16:54Z</time>
      </trkpt>
      <trkpt lat="46.54092" lon="12.13986">
        <ele>1296.96</ele>
        <time>2012-08-01T15:16:56Z</time>
      </trkpt>
      <trkpt lat="46.54095" lon="12.13973">
        <ele>1296.48</ele>
        <time>2012-08-01T15:16:57Z</time>
      </trkpt>
      <trkpt lat="46.54095" lon="12.13961">
        <ele>1294.55</ele>
        <time>2012-08-01T15:16:58Z</time>
      </trkpt>
      <trkpt lat="46.54093" lon="12.1395">
        <ele>1294.55</ele>
        <time>2012-08-01T15:16:59Z</time>
      </trkpt>
      <trkpt lat="46.54087" lon="12.1394">
        <ele>1293.59</ele>
        <time>2012-08-01T15:17:00Z</time>
      </trkpt>
      <trkpt lat="46.5408" lon="12.13931">
        <ele>1292.63</ele>
        <time>2012-08-01T15:17:01Z</time>
      </trkpt>
      <trkpt lat="46.54071" lon="12.13923">
        <ele>1291.19</ele>
        <time>2012-08-01T15:17:02Z</time>
      </trkpt>
      <trkpt lat="46.5406" lon="12.13918">
        <ele>1289.75</ele>
        <time>2012-08-01T15:17:03Z</time>
      </trkpt>
      <trkpt lat="46.54052" lon="12.1391">
        <ele>1288.3</ele>
        <time>2012-08-01T15:17:04Z</time>
      </trkpt>
      <trkpt lat="46.54046" lon="12.13899">
        <ele>1287.34</ele>
        <time>2012-08-01T15:17:05Z</time>
      </trkpt>
      <trkpt lat="46.54042" lon="12.13887">
        <ele>1286.86</ele>
        <time>2012-08-01T15:17:06Z</time>
      </trkpt>
      <trkpt lat="46.54042" lon="12.13873">
        <ele>1286.38</ele>
        <time>2012-08-01T15:17:07Z</time>
      </trkpt>
      <trkpt lat="46.54043" lon="12.13856">
        <ele>1285.42</ele>
        <time>2012-08-01T15:17:08Z</time>
      </trkpt>
      <trkpt lat="46.54046" lon="12.13837">
        <ele>1284.46</ele>
        <time>2012-08-01T15:17:09Z</time>
      </trkpt>
      <trkpt lat="46.54049" lon="12.13818">
        <ele>1283.98</ele>
        <time>2012-08-01T15:17:10Z</time>
      </trkpt>
      <trkpt lat="46.54052" lon="12.13801">
        <ele>1282.54</ele>
        <time>2012-08-01T15:17:11Z</time>
      </trkpt>
      <trkpt lat="46.54056" lon="12.13769">
        <ele>1279.65</ele>
        <time>2012-08-01T15:17:13Z</time>
      </trkpt>
      <trkpt lat="46.54055" lon="12.13756">
        <ele>1278.21</ele>
        <time>2012-08-01T15:17:14Z</time>
      </trkpt>
      <trkpt lat="46.54052" lon="12.13743">
        <ele>1277.25</ele>
        <time>2012-08-01T15:17:15Z</time>
      </trkpt>
      <trkpt lat="46.54046" lon="12.1373">
        <ele>1276.29</ele>
        <time>2012-08-01T15:17:16Z</time>
      </trkpt>
      <trkpt lat="46.54039" lon="12.1372">
        <ele>1275.81</ele>
        <time>2012-08-01T15:17:17Z</time>
      </trkpt>
      <trkpt lat="46.54031" lon="12.13713">
        <ele>1275.33</ele>
        <time>2012-08-01T15:17:18Z</time>
      </trkpt>
      <trkpt lat="46.54025" lon="12.13706">
        <ele>1272.92</ele>
        <time>2012-08-01T15:17:19Z</time>
      </trkpt>
      <trkpt lat="46.54021" lon="12.137">
        <ele>1271.48</ele>
        <time>2012-08-01T15:17:20Z</time>
      </trkpt>
      <trkpt lat="46.54019" lon="12.13696">
        <ele>1271.48</ele>
        <time>2012-08-01T15:17:21Z</time>
      </trkpt>
      <trkpt lat="46.54018" lon="12.13694">
        <ele>1271</ele>
        <time>2012-08-01T15:17:22Z</time>
      </trkpt>
      <trkpt lat="46.54016" lon="12.13693">
        <ele>1271</ele>
        <time>2012-08-01T15:17:23Z</time>
      </trkpt>
      <trkpt lat="46.54016" lon="12.13695">
        <ele>1271</ele>
        <time>2012-08-01T15:17:31Z</time>
      </trkpt>
      <trkpt lat="46.54018" lon="12.13683">
        <ele>1269.08</ele>
        <time>2012-08-01T15:17:39Z</time>
      </trkpt>
      <trkpt lat="46.5402" lon="12.13669">
        <ele>1268.12</ele>
        <time>2012-08-01T15:17:48Z</time>
      </trkpt>
      <trkpt lat="46.54016" lon="12.1364">
        <ele>1267.16</ele>
        <time>2012-08-01T15:17:59Z</time>
      </trkpt>
      <trkpt lat="46.54016" lon="12.13635">
        <ele>1267.16</ele>
        <time>2012-08-01T15:18:00Z</time>
      </trkpt>
      <trkpt lat="46.54017" lon="12.13629">
        <ele>1267.16</ele>
        <time>2012-08-01T15:18:01Z</time>
      </trkpt>
      <trkpt lat="46.54019" lon="12.13622">
        <ele>1266.67</ele>
        <time>2012-08-01T15:18:02Z</time>
      </trkpt>
      <trkpt lat="46.54025" lon="12.13615">
        <ele>1265.71</ele>
        <time>2012-08-01T15:18:03Z</time>
      </trkpt>
      <trkpt lat="46.54031" lon="12.13608">
        <ele>1265.23</ele>
        <time>2012-08-01T15:18:04Z</time>
      </trkpt>
      <trkpt lat="46.54047" lon="12.13585">
        <ele>1263.79</ele>
        <time>2012-08-01T15:18:07Z</time>
      </trkpt>
      <trkpt lat="46.5405" lon="12.13575">
        <ele>1262.35</ele>
        <time>2012-08-01T15:18:08Z</time>
      </trkpt>
      <trkpt lat="46.54051" lon="12.13566">
        <ele>1261.87</ele>
        <time>2012-08-01T15:18:09Z</time>
      </trkpt>
      <trkpt lat="46.5405" lon="12.13556">
        <ele>1261.87</ele>
        <time>2012-08-01T15:18:10Z</time>
      </trkpt>
      <trkpt lat="46.54047" lon="12.13548">
        <ele>1260.91</ele>
        <time>2012-08-01T15:18:11Z</time>
      </trkpt>
      <trkpt lat="46.54043" lon="12.13539">
        <ele>1260.43</ele>
        <time>2012-08-01T15:18:12Z</time>
      </trkpt>
      <trkpt lat="46.54027" lon="12.13511">
        <ele>1258.5</ele>
        <time>2012-08-01T15:18:16Z</time>
      </trkpt>
      <trkpt lat="46.54024" lon="12.13507">
        <ele>1258.02</ele>
        <time>2012-08-01T15:18:17Z</time>
      </trkpt>
      <trkpt lat="46.5402" lon="12.13503">
        <ele>1257.54</ele>
        <time>2012-08-01T15:18:18Z</time>
      </trkpt>
      <trkpt lat="46.54016" lon="12.13501">
        <ele>1257.54</ele>
        <time>2012-08-01T15:18:19Z</time>
      </trkpt>
      <trkpt lat="46.54013" lon="12.135">
        <ele>1257.06</ele>
        <time>2012-08-01T15:18:20Z</time>
      </trkpt>
      <trkpt lat="46.54011" lon="12.13499">
        <ele>1257.06</ele>
        <time>2012-08-01T15:18:21Z</time>
      </trkpt>
      <trkpt lat="46.54009" lon="12.13498">
        <ele>1256.58</ele>
        <time>2012-08-01T15:18:22Z</time>
      </trkpt>
      <trkpt lat="46.54007" lon="12.13497">
        <ele>1256.58</ele>
        <time>2012-08-01T15:18:23Z</time>
      </trkpt>
      <trkpt lat="46.54006" lon="12.13497">
        <ele>1256.58</ele>
        <time>2012-08-01T15:18:24Z</time>
      </trkpt>
      <trkpt lat="46.54005" lon="12.13496">
        <ele>1257.06</ele>
        <time>2012-08-01T15:18:25Z</time>
      </trkpt>
      <trkpt lat="46.54003" lon="12.13496">
        <ele>1256.58</ele>
        <time>2012-08-01T15:18:26Z</time>
      </trkpt>
      <trkpt lat="46.54001" lon="12.13494">
        <ele>1256.58</ele>
        <time>2012-08-01T15:18:27Z</time>
      </trkpt>
      <trkpt lat="46.53998" lon="12.13492">
        <ele>1257.06</ele>
        <time>2012-08-01T15:18:28Z</time>
      </trkpt>
      <trkpt lat="46.53995" lon="12.1349">
        <ele>1256.58</ele>
        <time>2012-08-01T15:18:29Z</time>
      </trkpt>
      <trkpt lat="46.53993" lon="12.13486">
        <ele>1256.58</ele>
        <time>2012-08-01T15:18:30Z</time>
      </trkpt>
      <trkpt lat="46.53992" lon="12.13481">
        <ele>1256.1</ele>
        <time>2012-08-01T15:18:31Z</time>
      </trkpt>
      <trkpt lat="46.5399" lon="12.13477">
        <ele>1255.62</ele>
        <time>2012-08-01T15:18:32Z</time>
      </trkpt>
      <trkpt lat="46.53989" lon="12.13473">
        <ele>1255.62</ele>
        <time>2012-08-01T15:18:33Z</time>
      </trkpt>
      <trkpt lat="46.53976" lon="12.13426">
        <ele>1252.25</ele>
        <time>2012-08-01T15:18:40Z</time>
      </trkpt>
      <trkpt lat="46.53973" lon="12.13418">
        <ele>1250.81</ele>
        <time>2012-08-01T15:18:41Z</time>
      </trkpt>
      <trkpt lat="46.53969" lon="12.13409">
        <ele>1250.33</ele>
        <time>2012-08-01T15:18:42Z</time>
      </trkpt>
      <trkpt lat="46.53949" lon="12.13373">
        <ele>1247.45</ele>
        <time>2012-08-01T15:18:47Z</time>
      </trkpt>
      <trkpt lat="46.53946" lon="12.13368">
        <ele>1246.97</ele>
        <time>2012-08-01T15:18:48Z</time>
      </trkpt>
      <trkpt lat="46.53936" lon="12.13351">
        <ele>1246.01</ele>
        <time>2012-08-01T15:18:53Z</time>
      </trkpt>
      <trkpt lat="46.53936" lon="12.13348">
        <ele>1246.01</ele>
        <time>2012-08-01T15:18:54Z</time>
      </trkpt>
      <trkpt lat="46.53936" lon="12.13345">
        <ele>1246.01</ele>
        <time>2012-08-01T15:18:55Z</time>
      </trkpt>
      <trkpt lat="46.53948" lon="12.13312">
        <ele>1247.45</ele>
        <time>2012-08-01T15:19:05Z</time>
      </trkpt>
      <trkpt lat="46.53971" lon="12.13247">
        <ele>1244.56</ele>
        <time>2012-08-01T15:19:10Z</time>
      </trkpt>
      <trkpt lat="46.53985" lon="12.13205">
        <ele>1241.68</ele>
        <time>2012-08-01T15:19:14Z</time>
      </trkpt>
      <trkpt lat="46.53992" lon="12.1319">
        <ele>1240.72</ele>
        <time>2012-08-01T15:19:16Z</time>
      </trkpt>
      <trkpt lat="46.53992" lon="12.13183">
        <ele>1240.72</ele>
        <time>2012-08-01T15:19:17Z</time>
      </trkpt>
      <trkpt lat="46.53989" lon="12.13177">
        <ele>1240.24</ele>
        <time>2012-08-01T15:19:18Z</time>
      </trkpt>
      <trkpt lat="46.53984" lon="12.13173">
        <ele>1240.24</ele>
        <time>2012-08-01T15:19:19Z</time>
      </trkpt>
      <trkpt lat="46.53977" lon="12.13169">
        <ele>1240.24</ele>
        <time>2012-08-01T15:19:20Z</time>
      </trkpt>
      <trkpt lat="46.5397" lon="12.13163">
        <ele>1240.72</ele>
        <time>2012-08-01T15:19:21Z</time>
      </trkpt>
      <trkpt lat="46.53962" lon="12.13155">
        <ele>1240.72</ele>
        <time>2012-08-01T15:19:22Z</time>
      </trkpt>
      <trkpt lat="46.53954" lon="12.13146">
        <ele>1241.2</ele>
        <time>2012-08-01T15:19:23Z</time>
      </trkpt>
      <trkpt lat="46.53939" lon="12.13128">
        <ele>1240.24</ele>
        <time>2012-08-01T15:19:25Z</time>
      </trkpt>
      <trkpt lat="46.53935" lon="12.13118">
        <ele>1240.24</ele>
        <time>2012-08-01T15:19:26Z</time>
      </trkpt>
      <trkpt lat="46.53934" lon="12.13106">
        <ele>1239.76</ele>
        <time>2012-08-01T15:19:27Z</time>
      </trkpt>
      <trkpt lat="46.53936" lon="12.13094">
        <ele>1240.24</ele>
        <time>2012-08-01T15:19:28Z</time>
      </trkpt>
      <trkpt lat="46.53941" lon="12.13083">
        <ele>1240.24</ele>
        <time>2012-08-01T15:19:29Z</time>
      </trkpt>
      <trkpt lat="46.53947" lon="12.13072">
        <ele>1241.2</ele>
        <time>2012-08-01T15:19:30Z</time>
      </trkpt>
      <trkpt lat="46.53954" lon="12.1306">
        <ele>1241.2</ele>
        <time>2012-08-01T15:19:31Z</time>
      </trkpt>
      <trkpt lat="46.53963" lon="12.13048">
        <ele>1241.2</ele>
        <time>2012-08-01T15:19:32Z</time>
      </trkpt>
      <trkpt lat="46.54036" lon="12.1297">
        <ele>1243.6</ele>
        <time>2012-08-01T15:19:41Z</time>
      </trkpt>
      <trkpt lat="46.54055" lon="12.12961">
        <ele>1246.49</ele>
        <time>2012-08-01T15:19:43Z</time>
      </trkpt>
      <trkpt lat="46.54066" lon="12.12956">
        <ele>1246.49</ele>
        <time>2012-08-01T15:19:44Z</time>
      </trkpt>
      <trkpt lat="46.54115" lon="12.12931">
        <ele>1249.85</ele>
        <time>2012-08-01T15:19:48Z</time>
      </trkpt>
      <trkpt lat="46.54127" lon="12.12927">
        <ele>1250.33</ele>
        <time>2012-08-01T15:19:49Z</time>
      </trkpt>
      <trkpt lat="46.54138" lon="12.12923">
        <ele>1251.29</ele>
        <time>2012-08-01T15:19:50Z</time>
      </trkpt>
      <trkpt lat="46.54183" lon="12.12913">
        <ele>1254.66</ele>
        <time>2012-08-01T15:19:54Z</time>
      </trkpt>
      <trkpt lat="46.54238" lon="12.12899">
        <ele>1257.54</ele>
        <time>2012-08-01T15:19:59Z</time>
      </trkpt>
      <trkpt lat="46.54247" lon="12.12893">
        <ele>1258.5</ele>
        <time>2012-08-01T15:20:00Z</time>
      </trkpt>
      <trkpt lat="46.54286" lon="12.12864">
        <ele>1261.87</ele>
        <time>2012-08-01T15:20:04Z</time>
      </trkpt>
      <trkpt lat="46.54306" lon="12.12852">
        <ele>1263.31</ele>
        <time>2012-08-01T15:20:06Z</time>
      </trkpt>
      <trkpt lat="46.54316" lon="12.12848">
        <ele>1264.75</ele>
        <time>2012-08-01T15:20:07Z</time>
      </trkpt>
      <trkpt lat="46.54327" lon="12.12847">
        <ele>1264.75</ele>
        <time>2012-08-01T15:20:08Z</time>
      </trkpt>
      <trkpt lat="46.54349" lon="12.12844">
        <ele>1266.67</ele>
        <time>2012-08-01T15:20:10Z</time>
      </trkpt>
      <trkpt lat="46.54359" lon="12.1284">
        <ele>1267.64</ele>
        <time>2012-08-01T15:20:11Z</time>
      </trkpt>
      <trkpt lat="46.54368" lon="12.12833">
        <ele>1268.12</ele>
        <time>2012-08-01T15:20:12Z</time>
      </trkpt>
      <trkpt lat="46.54377" lon="12.12823">
        <ele>1269.08</ele>
        <time>2012-08-01T15:20:13Z</time>
      </trkpt>
      <trkpt lat="46.54384" lon="12.12812">
        <ele>1269.56</ele>
        <time>2012-08-01T15:20:14Z</time>
      </trkpt>
      <trkpt lat="46.54392" lon="12.12802">
        <ele>1270.04</ele>
        <time>2012-08-01T15:20:15Z</time>
      </trkpt>
      <trkpt lat="46.544" lon="12.12794">
        <ele>1270.52</ele>
        <time>2012-08-01T15:20:16Z</time>
      </trkpt>
      <trkpt lat="46.54408" lon="12.12788">
        <ele>1270.52</ele>
        <time>2012-08-01T15:20:17Z</time>
      </trkpt>
      <trkpt lat="46.54416" lon="12.12784">
        <ele>1271</ele>
        <time>2012-08-01T15:20:18Z</time>
      </trkpt>
      <trkpt lat="46.54424" lon="12.12781">
        <ele>1271.48</ele>
        <time>2012-08-01T15:20:19Z</time>
      </trkpt>
      <trkpt lat="46.54433" lon="12.12781">
        <ele>1271.48</ele>
        <time>2012-08-01T15:20:20Z</time>
      </trkpt>
      <trkpt lat="46.5444" lon="12.1278">
        <ele>1271.96</ele>
        <time>2012-08-01T15:20:21Z</time>
      </trkpt>
      <trkpt lat="46.54447" lon="12.12776">
        <ele>1272.44</ele>
        <time>2012-08-01T15:20:22Z</time>
      </trkpt>
      <trkpt lat="46.54452" lon="12.12769">
        <ele>1272.44</ele>
        <time>2012-08-01T15:20:23Z</time>
      </trkpt>
      <trkpt lat="46.54454" lon="12.12763">
        <ele>1272.92</ele>
        <time>2012-08-01T15:20:24Z</time>
      </trkpt>
      <trkpt lat="46.54454" lon="12.12754">
        <ele>1273.88</ele>
        <time>2012-08-01T15:20:25Z</time>
      </trkpt>
      <trkpt lat="46.5445" lon="12.12747">
        <ele>1273.88</ele>
        <time>2012-08-01T15:20:26Z</time>
      </trkpt>
      <trkpt lat="46.54443" lon="12.12745">
        <ele>1274.36</ele>
        <time>2012-08-01T15:20:27Z</time>
      </trkpt>
      <trkpt lat="46.54434" lon="12.12749">
        <ele>1275.33</ele>
        <time>2012-08-01T15:20:28Z</time>
      </trkpt>
      <trkpt lat="46.54423" lon="12.12755">
        <ele>1276.29</ele>
        <time>2012-08-01T15:20:29Z</time>
      </trkpt>
      <trkpt lat="46.5439" lon="12.1277">
        <ele>1275.81</ele>
        <time>2012-08-01T15:20:32Z</time>
      </trkpt>
      <trkpt lat="46.54381" lon="12.1277">
        <ele>1276.77</ele>
        <time>2012-08-01T15:20:33Z</time>
      </trkpt>
      <trkpt lat="46.54372" lon="12.12766">
        <ele>1276.77</ele>
        <time>2012-08-01T15:20:34Z</time>
      </trkpt>
      <trkpt lat="46.54364" lon="12.12755">
        <ele>1277.25</ele>
        <time>2012-08-01T15:20:35Z</time>
      </trkpt>
      <trkpt lat="46.54359" lon="12.1274">
        <ele>1278.21</ele>
        <time>2012-08-01T15:20:36Z</time>
      </trkpt>
      <trkpt lat="46.54356" lon="12.12725">
        <ele>1279.65</ele>
        <time>2012-08-01T15:20:37Z</time>
      </trkpt>
      <trkpt lat="46.54352" lon="12.12708">
        <ele>1280.13</ele>
        <time>2012-08-01T15:20:38Z</time>
      </trkpt>
      <trkpt lat="46.54348" lon="12.12692">
        <ele>1281.09</ele>
        <time>2012-08-01T15:20:39Z</time>
      </trkpt>
      <trkpt lat="46.54342" lon="12.12677">
        <ele>1282.06</ele>
        <time>2012-08-01T15:20:40Z</time>
      </trkpt>
      <trkpt lat="46.54335" lon="12.12662">
        <ele>1282.54</ele>
        <time>2012-08-01T15:20:41Z</time>
      </trkpt>
      <trkpt lat="46.54325" lon="12.12649">
        <ele>1283.98</ele>
        <time>2012-08-01T15:20:42Z</time>
      </trkpt>
      <trkpt lat="46.54316" lon="12.12636">
        <ele>1284.94</ele>
        <time>2012-08-01T15:20:43Z</time>
      </trkpt>
      <trkpt lat="46.54288" lon="12.12595">
        <ele>1287.34</ele>
        <time>2012-08-01T15:20:46Z</time>
      </trkpt>
      <trkpt lat="46.54281" lon="12.12579">
        <ele>1288.3</ele>
        <time>2012-08-01T15:20:47Z</time>
      </trkpt>
      <trkpt lat="46.54275" lon="12.12562">
        <ele>1289.75</ele>
        <time>2012-08-01T15:20:48Z</time>
      </trkpt>
      <trkpt lat="46.54259" lon="12.12494">
        <ele>1292.63</ele>
        <time>2012-08-01T15:20:52Z</time>
      </trkpt>
      <trkpt lat="46.54255" lon="12.1248">
        <ele>1293.11</ele>
        <time>2012-08-01T15:20:53Z</time>
      </trkpt>
      <trkpt lat="46.5425" lon="12.12468">
        <ele>1293.59</ele>
        <time>2012-08-01T15:20:54Z</time>
      </trkpt>
      <trkpt lat="46.54243" lon="12.12459">
        <ele>1294.07</ele>
        <time>2012-08-01T15:20:55Z</time>
      </trkpt>
      <trkpt lat="46.54235" lon="12.12455">
        <ele>1294.55</ele>
        <time>2012-08-01T15:20:56Z</time>
      </trkpt>
      <trkpt lat="46.54225" lon="12.12456">
        <ele>1295.51</ele>
        <time>2012-08-01T15:20:57Z</time>
      </trkpt>
      <trkpt lat="46.54215" lon="12.1246">
        <ele>1295.99</ele>
        <time>2012-08-01T15:20:58Z</time>
      </trkpt>
      <trkpt lat="46.54204" lon="12.12465">
        <ele>1296.48</ele>
        <time>2012-08-01T15:20:59Z</time>
      </trkpt>
      <trkpt lat="46.5418" lon="12.12475">
        <ele>1298.4</ele>
        <time>2012-08-01T15:21:01Z</time>
      </trkpt>
      <trkpt lat="46.54166" lon="12.12477">
        <ele>1299.84</ele>
        <time>2012-08-01T15:21:02Z</time>
      </trkpt>
      <trkpt lat="46.54153" lon="12.12477">
        <ele>1300.8</ele>
        <time>2012-08-01T15:21:03Z</time>
      </trkpt>
      <trkpt lat="46.54139" lon="12.12474">
        <ele>1301.28</ele>
        <time>2012-08-01T15:21:04Z</time>
      </trkpt>
      <trkpt lat="46.54126" lon="12.12471">
        <ele>1302.24</ele>
        <time>2012-08-01T15:21:05Z</time>
      </trkpt>
      <trkpt lat="46.54101" lon="12.12464">
        <ele>1304.17</ele>
        <time>2012-08-01T15:21:07Z</time>
      </trkpt>
      <trkpt lat="46.54029" lon="12.12448">
        <ele>1307.05</ele>
        <time>2012-08-01T15:21:15Z</time>
      </trkpt>
      <trkpt lat="46.54002" lon="12.12438">
        <ele>1308.97</ele>
        <time>2012-08-01T15:21:19Z</time>
      </trkpt>
      <trkpt lat="46.53963" lon="12.12414">
        <ele>1312.34</ele>
        <time>2012-08-01T15:21:25Z</time>
      </trkpt>
      <trkpt lat="46.53943" lon="12.124">
        <ele>1313.3</ele>
        <time>2012-08-01T15:21:28Z</time>
      </trkpt>
      <trkpt lat="46.5393" lon="12.12393">
        <ele>1314.26</ele>
        <time>2012-08-01T15:21:30Z</time>
      </trkpt>
      <trkpt lat="46.53903" lon="12.12385">
        <ele>1317.14</ele>
        <time>2012-08-01T15:21:33Z</time>
      </trkpt>
      <trkpt lat="46.53892" lon="12.12385">
        <ele>1318.1</ele>
        <time>2012-08-01T15:21:34Z</time>
      </trkpt>
      <trkpt lat="46.5388" lon="12.12389">
        <ele>1319.55</ele>
        <time>2012-08-01T15:21:35Z</time>
      </trkpt>
      <trkpt lat="46.53868" lon="12.12396">
        <ele>1319.55</ele>
        <time>2012-08-01T15:21:36Z</time>
      </trkpt>
      <trkpt lat="46.53858" lon="12.12404">
        <ele>1318.59</ele>
        <time>2012-08-01T15:21:37Z</time>
      </trkpt>
      <trkpt lat="46.53847" lon="12.12414">
        <ele>1320.03</ele>
        <time>2012-08-01T15:21:38Z</time>
      </trkpt>
      <trkpt lat="46.53821" lon="12.12439">
        <ele>1323.39</ele>
        <time>2012-08-01T15:21:40Z</time>
      </trkpt>
      <trkpt lat="46.53781" lon="12.12475">
        <ele>1325.31</ele>
        <time>2012-08-01T15:21:43Z</time>
      </trkpt>
      <trkpt lat="46.53758" lon="12.12493">
        <ele>1325.31</ele>
        <time>2012-08-01T15:21:45Z</time>
      </trkpt>
      <trkpt lat="46.53747" lon="12.12497">
        <ele>1326.28</ele>
        <time>2012-08-01T15:21:46Z</time>
      </trkpt>
      <trkpt lat="46.53735" lon="12.12496">
        <ele>1326.76</ele>
        <time>2012-08-01T15:21:47Z</time>
      </trkpt>
      <trkpt lat="46.53723" lon="12.12489">
        <ele>1328.2</ele>
        <time>2012-08-01T15:21:48Z</time>
      </trkpt>
      <trkpt lat="46.53711" lon="12.12479">
        <ele>1328.68</ele>
        <time>2012-08-01T15:21:49Z</time>
      </trkpt>
      <trkpt lat="46.537" lon="12.12466">
        <ele>1330.12</ele>
        <time>2012-08-01T15:21:50Z</time>
      </trkpt>
      <trkpt lat="46.53659" lon="12.12424">
        <ele>1332.52</ele>
        <time>2012-08-01T15:21:54Z</time>
      </trkpt>
      <trkpt lat="46.53651" lon="12.12416">
        <ele>1333.01</ele>
        <time>2012-08-01T15:21:55Z</time>
      </trkpt>
      <trkpt lat="46.53643" lon="12.12411">
        <ele>1333.01</ele>
        <time>2012-08-01T15:21:56Z</time>
      </trkpt>
      <trkpt lat="46.53635" lon="12.12409">
        <ele>1333.97</ele>
        <time>2012-08-01T15:21:57Z</time>
      </trkpt>
      <trkpt lat="46.53614" lon="12.12405">
        <ele>1335.89</ele>
        <time>2012-08-01T15:21:59Z</time>
      </trkpt>
      <trkpt lat="46.53602" lon="12.12401">
        <ele>1336.85</ele>
        <time>2012-08-01T15:22:00Z</time>
      </trkpt>
      <trkpt lat="46.5359" lon="12.12395">
        <ele>1336.85</ele>
        <time>2012-08-01T15:22:01Z</time>
      </trkpt>
      <trkpt lat="46.53542" lon="12.12369">
        <ele>1340.22</ele>
        <time>2012-08-01T15:22:05Z</time>
      </trkpt>
      <trkpt lat="46.5351" lon="12.12348">
        <ele>1343.1</ele>
        <time>2012-08-01T15:22:08Z</time>
      </trkpt>
      <trkpt lat="46.53488" lon="12.12339">
        <ele>1344.06</ele>
        <time>2012-08-01T15:22:10Z</time>
      </trkpt>
      <trkpt lat="46.53417" lon="12.12303">
        <ele>1347.43</ele>
        <time>2012-08-01T15:22:18Z</time>
      </trkpt>
      <trkpt lat="46.53401" lon="12.12289">
        <ele>1347.91</ele>
        <time>2012-08-01T15:22:20Z</time>
      </trkpt>
      <trkpt lat="46.53385" lon="12.12271">
        <ele>1348.39</ele>
        <time>2012-08-01T15:22:22Z</time>
      </trkpt>
      <trkpt lat="46.53378" lon="12.12261">
        <ele>1348.87</ele>
        <time>2012-08-01T15:22:23Z</time>
      </trkpt>
      <trkpt lat="46.53372" lon="12.12248">
        <ele>1348.87</ele>
        <time>2012-08-01T15:22:24Z</time>
      </trkpt>
      <trkpt lat="46.53368" lon="12.12235">
        <ele>1349.35</ele>
        <time>2012-08-01T15:22:25Z</time>
      </trkpt>
      <trkpt lat="46.53364" lon="12.12221">
        <ele>1349.83</ele>
        <time>2012-08-01T15:22:26Z</time>
      </trkpt>
      <trkpt lat="46.5336" lon="12.1221">
        <ele>1350.31</ele>
        <time>2012-08-01T15:22:27Z</time>
      </trkpt>
      <trkpt lat="46.53354" lon="12.12201">
        <ele>1351.27</ele>
        <time>2012-08-01T15:22:28Z</time>
      </trkpt>
      <trkpt lat="46.53346" lon="12.12195">
        <ele>1351.75</ele>
        <time>2012-08-01T15:22:29Z</time>
      </trkpt>
      <trkpt lat="46.53336" lon="12.12189">
        <ele>1352.23</ele>
        <time>2012-08-01T15:22:30Z</time>
      </trkpt>
      <trkpt lat="46.53313" lon="12.12174">
        <ele>1353.67</ele>
        <time>2012-08-01T15:22:32Z</time>
      </trkpt>
      <trkpt lat="46.53302" lon="12.12163">
        <ele>1354.15</ele>
        <time>2012-08-01T15:22:33Z</time>
      </trkpt>
      <trkpt lat="46.53292" lon="12.12151">
        <ele>1355.12</ele>
        <time>2012-08-01T15:22:34Z</time>
      </trkpt>
      <trkpt lat="46.53284" lon="12.12138">
        <ele>1356.56</ele>
        <time>2012-08-01T15:22:35Z</time>
      </trkpt>
      <trkpt lat="46.53277" lon="12.12126">
        <ele>1357.52</ele>
        <time>2012-08-01T15:22:36Z</time>
      </trkpt>
      <trkpt lat="46.5327" lon="12.12115">
        <ele>1358.48</ele>
        <time>2012-08-01T15:22:37Z</time>
      </trkpt>
      <trkpt lat="46.53262" lon="12.12106">
        <ele>1359.44</ele>
        <time>2012-08-01T15:22:38Z</time>
      </trkpt>
      <trkpt lat="46.53252" lon="12.121">
        <ele>1360.88</ele>
        <time>2012-08-01T15:22:39Z</time>
      </trkpt>
      <trkpt lat="46.53241" lon="12.12096">
        <ele>1362.33</ele>
        <time>2012-08-01T15:22:40Z</time>
      </trkpt>
      <trkpt lat="46.53229" lon="12.12095">
        <ele>1362.81</ele>
        <time>2012-08-01T15:22:41Z</time>
      </trkpt>
      <trkpt lat="46.53217" lon="12.12098">
        <ele>1364.25</ele>
        <time>2012-08-01T15:22:42Z</time>
      </trkpt>
      <trkpt lat="46.53204" lon="12.12104">
        <ele>1365.21</ele>
        <time>2012-08-01T15:22:43Z</time>
      </trkpt>
      <trkpt lat="46.53192" lon="12.1211">
        <ele>1366.17</ele>
        <time>2012-08-01T15:22:44Z</time>
      </trkpt>
      <trkpt lat="46.53167" lon="12.12121">
        <ele>1367.61</ele>
        <time>2012-08-01T15:22:46Z</time>
      </trkpt>
      <trkpt lat="46.53153" lon="12.12123">
        <ele>1369.05</ele>
        <time>2012-08-01T15:22:47Z</time>
      </trkpt>
      <trkpt lat="46.53109" lon="12.12119">
        <ele>1372.42</ele>
        <time>2012-08-01T15:22:50Z</time>
      </trkpt>
      <trkpt lat="46.53078" lon="12.12117">
        <ele>1376.26</ele>
        <time>2012-08-01T15:22:52Z</time>
      </trkpt>
      <trkpt lat="46.53044" lon="12.12115">
        <ele>1379.15</ele>
        <time>2012-08-01T15:22:54Z</time>
      </trkpt>
      <trkpt lat="46.52992" lon="12.1211">
        <ele>1383.47</ele>
        <time>2012-08-01T15:22:57Z</time>
      </trkpt>
      <trkpt lat="46.52974" lon="12.12108">
        <ele>1383.47</ele>
        <time>2012-08-01T15:22:58Z</time>
      </trkpt>
      <trkpt lat="46.5294" lon="12.12109">
        <ele>1386.84</ele>
        <time>2012-08-01T15:23:00Z</time>
      </trkpt>
      <trkpt lat="46.5289" lon="12.12123">
        <ele>1390.2</ele>
        <time>2012-08-01T15:23:03Z</time>
      </trkpt>
      <trkpt lat="46.52841" lon="12.12141">
        <ele>1392.61</ele>
        <time>2012-08-01T15:23:06Z</time>
      </trkpt>
      <trkpt lat="46.52827" lon="12.12142">
        <ele>1393.09</ele>
        <time>2012-08-01T15:23:07Z</time>
      </trkpt>
      <trkpt lat="46.52813" lon="12.1214">
        <ele>1394.53</ele>
        <time>2012-08-01T15:23:08Z</time>
      </trkpt>
      <trkpt lat="46.52799" lon="12.12134">
        <ele>1395.01</ele>
        <time>2012-08-01T15:23:09Z</time>
      </trkpt>
      <trkpt lat="46.52785" lon="12.12126">
        <ele>1396.45</ele>
        <time>2012-08-01T15:23:10Z</time>
      </trkpt>
      <trkpt lat="46.52771" lon="12.12116">
        <ele>1398.37</ele>
        <time>2012-08-01T15:23:11Z</time>
      </trkpt>
      <trkpt lat="46.52758" lon="12.12104">
        <ele>1399.34</ele>
        <time>2012-08-01T15:23:12Z</time>
      </trkpt>
      <trkpt lat="46.52707" lon="12.12062">
        <ele>1402.7</ele>
        <time>2012-08-01T15:23:16Z</time>
      </trkpt>
      <trkpt lat="46.52694" lon="12.12057">
        <ele>1404.62</ele>
        <time>2012-08-01T15:23:17Z</time>
      </trkpt>
      <trkpt lat="46.5268" lon="12.12054">
        <ele>1405.1</ele>
        <time>2012-08-01T15:23:18Z</time>
      </trkpt>
      <trkpt lat="46.52665" lon="12.12055">
        <ele>1406.07</ele>
        <time>2012-08-01T15:23:19Z</time>
      </trkpt>
      <trkpt lat="46.5265" lon="12.12058">
        <ele>1407.03</ele>
        <time>2012-08-01T15:23:20Z</time>
      </trkpt>
      <trkpt lat="46.52637" lon="12.12061">
        <ele>1406.55</ele>
        <time>2012-08-01T15:23:21Z</time>
      </trkpt>
      <trkpt lat="46.52623" lon="12.12063">
        <ele>1407.99</ele>
        <time>2012-08-01T15:23:22Z</time>
      </trkpt>
      <trkpt lat="46.52611" lon="12.12059">
        <ele>1408.95</ele>
        <time>2012-08-01T15:23:23Z</time>
      </trkpt>
      <trkpt lat="46.526" lon="12.12051">
        <ele>1409.43</ele>
        <time>2012-08-01T15:23:24Z</time>
      </trkpt>
      <trkpt lat="46.52589" lon="12.1204">
        <ele>1411.35</ele>
        <time>2012-08-01T15:23:25Z</time>
      </trkpt>
      <trkpt lat="46.52578" lon="12.12028">
        <ele>1412.31</ele>
        <time>2012-08-01T15:23:26Z</time>
      </trkpt>
      <trkpt lat="46.52566" lon="12.1202">
        <ele>1413.28</ele>
        <time>2012-08-01T15:23:27Z</time>
      </trkpt>
      <trkpt lat="46.52552" lon="12.12014">
        <ele>1414.72</ele>
        <time>2012-08-01T15:23:28Z</time>
      </trkpt>
      <trkpt lat="46.52537" lon="12.12009">
        <ele>1415.2</ele>
        <time>2012-08-01T15:23:29Z</time>
      </trkpt>
      <trkpt lat="46.52508" lon="12.12002">
        <ele>1419.04</ele>
        <time>2012-08-01T15:23:31Z</time>
      </trkpt>
      <trkpt lat="46.52478" lon="12.11996">
        <ele>1421.93</ele>
        <time>2012-08-01T15:23:33Z</time>
      </trkpt>
      <trkpt lat="46.52408" lon="12.11986">
        <ele>1425.77</ele>
        <time>2012-08-01T15:23:38Z</time>
      </trkpt>
      <trkpt lat="46.52395" lon="12.11987">
        <ele>1427.21</ele>
        <time>2012-08-01T15:23:39Z</time>
      </trkpt>
      <trkpt lat="46.52382" lon="12.11993">
        <ele>1428.66</ele>
        <time>2012-08-01T15:23:40Z</time>
      </trkpt>
      <trkpt lat="46.52371" lon="12.12001">
        <ele>1430.1</ele>
        <time>2012-08-01T15:23:41Z</time>
      </trkpt>
      <trkpt lat="46.5236" lon="12.12011">
        <ele>1431.54</ele>
        <time>2012-08-01T15:23:42Z</time>
      </trkpt>
      <trkpt lat="46.52349" lon="12.12019">
        <ele>1431.54</ele>
        <time>2012-08-01T15:23:43Z</time>
      </trkpt>
      <trkpt lat="46.52226" lon="12.11993">
        <ele>1432.5</ele>
        <time>2012-08-01T15:23:55Z</time>
      </trkpt>
      <trkpt lat="46.52225" lon="12.11978">
        <ele>1441.63</ele>
        <time>2012-08-01T15:23:56Z</time>
      </trkpt>
      <trkpt lat="46.52228" lon="12.11957">
        <ele>1441.63</ele>
        <time>2012-08-01T15:23:57Z</time>
      </trkpt>
      <trkpt lat="46.5223" lon="12.11906">
        <ele>1444.04</ele>
        <time>2012-08-01T15:24:00Z</time>
      </trkpt>
      <trkpt lat="46.52229" lon="12.11856">
        <ele>1446.92</ele>
        <time>2012-08-01T15:24:03Z</time>
      </trkpt>
      <trkpt lat="46.52225" lon="12.11842">
        <ele>1447.88</ele>
        <time>2012-08-01T15:24:04Z</time>
      </trkpt>
      <trkpt lat="46.52218" lon="12.1183">
        <ele>1446.44</ele>
        <time>2012-08-01T15:24:05Z</time>
      </trkpt>
      <trkpt lat="46.52211" lon="12.11818">
        <ele>1449.81</ele>
        <time>2012-08-01T15:24:06Z</time>
      </trkpt>
      <trkpt lat="46.52202" lon="12.11806">
        <ele>1450.29</ele>
        <time>2012-08-01T15:24:07Z</time>
      </trkpt>
      <trkpt lat="46.52192" lon="12.11794">
        <ele>1450.77</ele>
        <time>2012-08-01T15:24:08Z</time>
      </trkpt>
      <trkpt lat="46.52183" lon="12.11781">
        <ele>1453.17</ele>
        <time>2012-08-01T15:24:09Z</time>
      </trkpt>
      <trkpt lat="46.52175" lon="12.11766">
        <ele>1453.65</ele>
        <time>2012-08-01T15:24:10Z</time>
      </trkpt>
      <trkpt lat="46.52167" lon="12.1175">
        <ele>1454.61</ele>
        <time>2012-08-01T15:24:11Z</time>
      </trkpt>
      <trkpt lat="46.5215" lon="12.11695">
        <ele>1457.5</ele>
        <time>2012-08-01T15:24:14Z</time>
      </trkpt>
      <trkpt lat="46.52134" lon="12.1162">
        <ele>1461.34</ele>
        <time>2012-08-01T15:24:18Z</time>
      </trkpt>
      <trkpt lat="46.52126" lon="12.11565">
        <ele>1463.74</ele>
        <time>2012-08-01T15:24:21Z</time>
      </trkpt>
      <trkpt lat="46.52126" lon="12.11547">
        <ele>1466.15</ele>
        <time>2012-08-01T15:24:22Z</time>
      </trkpt>
      <trkpt lat="46.52126" lon="12.1153">
        <ele>1465.19</ele>
        <time>2012-08-01T15:24:23Z</time>
      </trkpt>
      <trkpt lat="46.5212" lon="12.11493">
        <ele>1467.11</ele>
        <time>2012-08-01T15:24:26Z</time>
      </trkpt>
      <trkpt lat="46.52114" lon="12.11482">
        <ele>1469.03</ele>
        <time>2012-08-01T15:24:27Z</time>
      </trkpt>
      <trkpt lat="46.52108" lon="12.11472">
        <ele>1470.47</ele>
        <time>2012-08-01T15:24:28Z</time>
      </trkpt>
      <trkpt lat="46.521" lon="12.11464">
        <ele>1469.99</ele>
        <time>2012-08-01T15:24:29Z</time>
      </trkpt>
      <trkpt lat="46.52092" lon="12.11456">
        <ele>1470.47</ele>
        <time>2012-08-01T15:24:30Z</time>
      </trkpt>
      <trkpt lat="46.52082" lon="12.1145">
        <ele>1470.95</ele>
        <time>2012-08-01T15:24:31Z</time>
      </trkpt>
      <trkpt lat="46.52073" lon="12.11446">
        <ele>1471.44</ele>
        <time>2012-08-01T15:24:32Z</time>
      </trkpt>
      <trkpt lat="46.52064" lon="12.11442">
        <ele>1471.44</ele>
        <time>2012-08-01T15:24:33Z</time>
      </trkpt>
      <trkpt lat="46.52048" lon="12.11436">
        <ele>1472.88</ele>
        <time>2012-08-01T15:24:36Z</time>
      </trkpt>
      <trkpt lat="46.52049" lon="12.11436">
        <ele>1473.84</ele>
        <time>2012-08-01T15:24:38Z</time>
      </trkpt>
      <trkpt lat="46.52052" lon="12.11433">
        <ele>1474.8</ele>
        <time>2012-08-01T15:24:39Z</time>
      </trkpt>
      <trkpt lat="46.52056" lon="12.11431">
        <ele>1475.76</ele>
        <time>2012-08-01T15:24:40Z</time>
      </trkpt>
      <trkpt lat="46.52067" lon="12.11431">
        <ele>1477.68</ele>
        <time>2012-08-01T15:24:42Z</time>
      </trkpt>
      <trkpt lat="46.52076" lon="12.11432">
        <ele>1478.16</ele>
        <time>2012-08-01T15:24:43Z</time>
      </trkpt>
      <trkpt lat="46.52089" lon="12.11436">
        <ele>1478.65</ele>
        <time>2012-08-01T15:24:44Z</time>
      </trkpt>
      <trkpt lat="46.52104" lon="12.11445">
        <ele>1479.13</ele>
        <time>2012-08-01T15:24:45Z</time>
      </trkpt>
      <trkpt lat="46.52116" lon="12.11456">
        <ele>1480.09</ele>
        <time>2012-08-01T15:24:46Z</time>
      </trkpt>
      <trkpt lat="46.52126" lon="12.11471">
        <ele>1481.05</ele>
        <time>2012-08-01T15:24:47Z</time>
      </trkpt>
      <trkpt lat="46.52133" lon="12.11485">
        <ele>1481.53</ele>
        <time>2012-08-01T15:24:48Z</time>
      </trkpt>
      <trkpt lat="46.52138" lon="12.11498">
        <ele>1482.01</ele>
        <time>2012-08-01T15:24:49Z</time>
      </trkpt>
      <trkpt lat="46.52143" lon="12.1151">
        <ele>1482.97</ele>
        <time>2012-08-01T15:24:50Z</time>
      </trkpt>
      <trkpt lat="46.52147" lon="12.11521">
        <ele>1483.45</ele>
        <time>2012-08-01T15:24:51Z</time>
      </trkpt>
      <trkpt lat="46.52152" lon="12.11532">
        <ele>1484.41</ele>
        <time>2012-08-01T15:24:52Z</time>
      </trkpt>
      <trkpt lat="46.5216" lon="12.11542">
        <ele>1485.37</ele>
        <time>2012-08-01T15:24:53Z</time>
      </trkpt>
      <trkpt lat="46.52168" lon="12.1155">
        <ele>1487.78</ele>
        <time>2012-08-01T15:24:54Z</time>
      </trkpt>
      <trkpt lat="46.52178" lon="12.11558">
        <ele>1484.41</ele>
        <time>2012-08-01T15:24:55Z</time>
      </trkpt>
      <trkpt lat="46.52188" lon="12.11567">
        <ele>1488.26</ele>
        <time>2012-08-01T15:24:56Z</time>
      </trkpt>
      <trkpt lat="46.52232" lon="12.11601">
        <ele>1491.14</ele>
        <time>2012-08-01T15:25:00Z</time>
      </trkpt>
      <trkpt lat="46.52252" lon="12.11619">
        <ele>1492.1</ele>
        <time>2012-08-01T15:25:02Z</time>
      </trkpt>
      <trkpt lat="46.52261" lon="12.11629">
        <ele>1491.14</ele>
        <time>2012-08-01T15:25:03Z</time>
      </trkpt>
      <trkpt lat="46.52278" lon="12.11645">
        <ele>1493.55</ele>
        <time>2012-08-01T15:25:05Z</time>
      </trkpt>
      <trkpt lat="46.52286" lon="12.11653">
        <ele>1494.03</ele>
        <time>2012-08-01T15:25:06Z</time>
      </trkpt>
      <trkpt lat="46.52293" lon="12.11658">
        <ele>1494.03</ele>
        <time>2012-08-01T15:25:07Z</time>
      </trkpt>
      <trkpt lat="46.523" lon="12.11659">
        <ele>1494.99</ele>
        <time>2012-08-01T15:25:08Z</time>
      </trkpt>
      <trkpt lat="46.52308" lon="12.11658">
        <ele>1494.99</ele>
        <time>2012-08-01T15:25:09Z</time>
      </trkpt>
      <trkpt lat="46.52315" lon="12.11657">
        <ele>1495.95</ele>
        <time>2012-08-01T15:25:10Z</time>
      </trkpt>
      <trkpt lat="46.52333" lon="12.1165">
        <ele>1499.31</ele>
        <time>2012-08-01T15:25:16Z</time>
      </trkpt>
      <trkpt lat="46.52318" lon="12.11651">
        <ele>1502.2</ele>
        <time>2012-08-01T15:25:20Z</time>
      </trkpt>
      <trkpt lat="46.52306" lon="12.11645">
        <ele>1504.12</ele>
        <time>2012-08-01T15:25:22Z</time>
      </trkpt>
      <trkpt lat="46.5221" lon="12.11532">
        <ele>1504.12</ele>
        <time>2012-08-01T15:25:23Z</time>
      </trkpt>
      <trkpt lat="46.52203" lon="12.11518">
        <ele>1505.08</ele>
        <time>2012-08-01T15:25:24Z</time>
      </trkpt>
      <trkpt lat="46.52198" lon="12.11507">
        <ele>1505.56</ele>
        <time>2012-08-01T15:25:25Z</time>
      </trkpt>
      <trkpt lat="46.52193" lon="12.11497">
        <ele>1506.52</ele>
        <time>2012-08-01T15:25:26Z</time>
      </trkpt>
      <trkpt lat="46.5219" lon="12.11485">
        <ele>1506.52</ele>
        <time>2012-08-01T15:25:27Z</time>
      </trkpt>
      <trkpt lat="46.5219" lon="12.11473">
        <ele>1507</ele>
        <time>2012-08-01T15:25:28Z</time>
      </trkpt>
      <trkpt lat="46.52189" lon="12.1146">
        <ele>1507</ele>
        <time>2012-08-01T15:25:29Z</time>
      </trkpt>
      <trkpt lat="46.52189" lon="12.11424">
        <ele>1509.89</ele>
        <time>2012-08-01T15:25:32Z</time>
      </trkpt>
      <trkpt lat="46.52186" lon="12.11411">
        <ele>1511.33</ele>
        <time>2012-08-01T15:25:33Z</time>
      </trkpt>
      <trkpt lat="46.5218" lon="12.11398">
        <ele>1512.77</ele>
        <time>2012-08-01T15:25:34Z</time>
      </trkpt>
      <trkpt lat="46.52167" lon="12.11375">
        <ele>1513.73</ele>
        <time>2012-08-01T15:25:36Z</time>
      </trkpt>
      <trkpt lat="46.52152" lon="12.11345">
        <ele>1514.69</ele>
        <time>2012-08-01T15:25:39Z</time>
      </trkpt>
      <trkpt lat="46.52152" lon="12.11337">
        <ele>1515.18</ele>
        <time>2012-08-01T15:25:40Z</time>
      </trkpt>
      <trkpt lat="46.52155" lon="12.1133">
        <ele>1515.66</ele>
        <time>2012-08-01T15:25:41Z</time>
      </trkpt>
      <trkpt lat="46.52161" lon="12.11326">
        <ele>1516.14</ele>
        <time>2012-08-01T15:25:42Z</time>
      </trkpt>
      <trkpt lat="46.52168" lon="12.11325">
        <ele>1516.14</ele>
        <time>2012-08-01T15:25:43Z</time>
      </trkpt>
      <trkpt lat="46.52176" lon="12.11326">
        <ele>1517.1</ele>
        <time>2012-08-01T15:25:44Z</time>
      </trkpt>
      <trkpt lat="46.52184" lon="12.11329">
        <ele>1518.54</ele>
        <time>2012-08-01T15:25:45Z</time>
      </trkpt>
      <trkpt lat="46.52192" lon="12.11332">
        <ele>1520.94</ele>
        <time>2012-08-01T15:25:46Z</time>
      </trkpt>
      <trkpt lat="46.522" lon="12.11337">
        <ele>1515.18</ele>
        <time>2012-08-01T15:25:47Z</time>
      </trkpt>
      <trkpt lat="46.52207" lon="12.11343">
        <ele>1521.42</ele>
        <time>2012-08-01T15:25:48Z</time>
      </trkpt>
      <trkpt lat="46.52213" lon="12.11353">
        <ele>1521.42</ele>
        <time>2012-08-01T15:25:49Z</time>
      </trkpt>
      <trkpt lat="46.52219" lon="12.11366">
        <ele>1522.39</ele>
        <time>2012-08-01T15:25:50Z</time>
      </trkpt>
      <trkpt lat="46.52224" lon="12.11381">
        <ele>1523.35</ele>
        <time>2012-08-01T15:25:51Z</time>
      </trkpt>
      <trkpt lat="46.52235" lon="12.11414">
        <ele>1524.79</ele>
        <time>2012-08-01T15:25:53Z</time>
      </trkpt>
      <trkpt lat="46.52254" lon="12.11467">
        <ele>1526.71</ele>
        <time>2012-08-01T15:25:57Z</time>
      </trkpt>
      <trkpt lat="46.5226" lon="12.11474">
        <ele>1527.19</ele>
        <time>2012-08-01T15:25:58Z</time>
      </trkpt>
      <trkpt lat="46.52266" lon="12.11479">
        <ele>1528.15</ele>
        <time>2012-08-01T15:25:59Z</time>
      </trkpt>
      <trkpt lat="46.52274" lon="12.11481">
        <ele>1528.63</ele>
        <time>2012-08-01T15:26:00Z</time>
      </trkpt>
      <trkpt lat="46.52282" lon="12.11479">
        <ele>1529.11</ele>
        <time>2012-08-01T15:26:01Z</time>
      </trkpt>
      <trkpt lat="46.52289" lon="12.11475">
        <ele>1530.08</ele>
        <time>2012-08-01T15:26:02Z</time>
      </trkpt>
      <trkpt lat="46.52297" lon="12.1147">
        <ele>1530.56</ele>
        <time>2012-08-01T15:26:03Z</time>
      </trkpt>
      <trkpt lat="46.52304" lon="12.11464">
        <ele>1531.52</ele>
        <time>2012-08-01T15:26:04Z</time>
      </trkpt>
      <trkpt lat="46.52334" lon="12.11439">
        <ele>1533.44</ele>
        <time>2012-08-01T15:26:08Z</time>
      </trkpt>
      <trkpt lat="46.52339" lon="12.11432">
        <ele>1533.92</ele>
        <time>2012-08-01T15:26:09Z</time>
      </trkpt>
      <trkpt lat="46.5234" lon="12.11423">
        <ele>1534.88</ele>
        <time>2012-08-01T15:26:10Z</time>
      </trkpt>
      <trkpt lat="46.52339" lon="12.11415">
        <ele>1534.4</ele>
        <time>2012-08-01T15:26:11Z</time>
      </trkpt>
      <trkpt lat="46.52333" lon="12.11408">
        <ele>1535.84</ele>
        <time>2012-08-01T15:26:12Z</time>
      </trkpt>
      <trkpt lat="46.52323" lon="12.11404">
        <ele>1537.29</ele>
        <time>2012-08-01T15:26:13Z</time>
      </trkpt>
      <trkpt lat="46.52313" lon="12.11403">
        <ele>1537.77</ele>
        <time>2012-08-01T15:26:14Z</time>
      </trkpt>
      <trkpt lat="46.52306" lon="12.114">
        <ele>1537.29</ele>
        <time>2012-08-01T15:26:15Z</time>
      </trkpt>
      <trkpt lat="46.52301" lon="12.11393">
        <ele>1537.77</ele>
        <time>2012-08-01T15:26:16Z</time>
      </trkpt>
      <trkpt lat="46.52301" lon="12.11384">
        <ele>1537.77</ele>
        <time>2012-08-01T15:26:17Z</time>
      </trkpt>
      <trkpt lat="46.52304" lon="12.11376">
        <ele>1538.25</ele>
        <time>2012-08-01T15:26:18Z</time>
      </trkpt>
      <trkpt lat="46.52309" lon="12.11372">
        <ele>1538.73</ele>
        <time>2012-08-01T15:26:19Z</time>
      </trkpt>
      <trkpt lat="46.52316" lon="12.11371">
        <ele>1539.69</ele>
        <time>2012-08-01T15:26:20Z</time>
      </trkpt>
      <trkpt lat="46.52324" lon="12.11372">
        <ele>1540.17</ele>
        <time>2012-08-01T15:26:21Z</time>
      </trkpt>
      <trkpt lat="46.52352" lon="12.11376">
        <ele>1542.57</ele>
        <time>2012-08-01T15:26:24Z</time>
      </trkpt>
      <trkpt lat="46.52362" lon="12.11374">
        <ele>1542.57</ele>
        <time>2012-08-01T15:26:25Z</time>
      </trkpt>
      <trkpt lat="46.52372" lon="12.11371">
        <ele>1543.53</ele>
        <time>2012-08-01T15:26:26Z</time>
      </trkpt>
      <trkpt lat="46.52382" lon="12.11367">
        <ele>1544.01</ele>
        <time>2012-08-01T15:26:27Z</time>
      </trkpt>
      <trkpt lat="46.52391" lon="12.11362">
        <ele>1544.01</ele>
        <time>2012-08-01T15:26:28Z</time>
      </trkpt>
      <trkpt lat="46.52425" lon="12.11341">
        <ele>1544.01</ele>
        <time>2012-08-01T15:26:32Z</time>
      </trkpt>
      <trkpt lat="46.52431" lon="12.11334">
        <ele>1543.53</ele>
        <time>2012-08-01T15:26:33Z</time>
      </trkpt>
      <trkpt lat="46.52437" lon="12.11325">
        <ele>1543.53</ele>
        <time>2012-08-01T15:26:34Z</time>
      </trkpt>
      <trkpt lat="46.52441" lon="12.11315">
        <ele>1543.53</ele>
        <time>2012-08-01T15:26:35Z</time>
      </trkpt>
      <trkpt lat="46.52443" lon="12.11305">
        <ele>1543.05</ele>
        <time>2012-08-01T15:26:36Z</time>
      </trkpt>
      <trkpt lat="46.52444" lon="12.11293">
        <ele>1543.53</ele>
        <time>2012-08-01T15:26:37Z</time>
      </trkpt>
      <trkpt lat="46.52444" lon="12.1128">
        <ele>1543.05</ele>
        <time>2012-08-01T15:26:38Z</time>
      </trkpt>
      <trkpt lat="46.52441" lon="12.11268">
        <ele>1543.05</ele>
        <time>2012-08-01T15:26:39Z</time>
      </trkpt>
      <trkpt lat="46.52438" lon="12.11256">
        <ele>1543.05</ele>
        <time>2012-08-01T15:26:40Z</time>
      </trkpt>
      <trkpt lat="46.52434" lon="12.11243">
        <ele>1543.53</ele>
        <time>2012-08-01T15:26:41Z</time>
      </trkpt>
      <trkpt lat="46.5242" lon="12.11209">
        <ele>1544.01</ele>
        <time>2012-08-01T15:26:44Z</time>
      </trkpt>
      <trkpt lat="46.52413" lon="12.11198">
        <ele>1544.5</ele>
        <time>2012-08-01T15:26:45Z</time>
      </trkpt>
      <trkpt lat="46.52405" lon="12.11189">
        <ele>1544.5</ele>
        <time>2012-08-01T15:26:46Z</time>
      </trkpt>
      <trkpt lat="46.52311" lon="12.11101">
        <ele>1547.86</ele>
        <time>2012-08-01T15:26:55Z</time>
      </trkpt>
      <trkpt lat="46.52292" lon="12.11082">
        <ele>1549.3</ele>
        <time>2012-08-01T15:26:57Z</time>
      </trkpt>
      <trkpt lat="46.52284" lon="12.11072">
        <ele>1549.3</ele>
        <time>2012-08-01T15:26:58Z</time>
      </trkpt>
      <trkpt lat="46.52277" lon="12.11063">
        <ele>1549.78</ele>
        <time>2012-08-01T15:26:59Z</time>
      </trkpt>
      <trkpt lat="46.52271" lon="12.11053">
        <ele>1550.26</ele>
        <time>2012-08-01T15:27:00Z</time>
      </trkpt>
      <trkpt lat="46.52265" lon="12.11043">
        <ele>1551.22</ele>
        <time>2012-08-01T15:27:01Z</time>
      </trkpt>
      <trkpt lat="46.52261" lon="12.11033">
        <ele>1551.22</ele>
        <time>2012-08-01T15:27:02Z</time>
      </trkpt>
      <trkpt lat="46.52257" lon="12.11023">
        <ele>1551.71</ele>
        <time>2012-08-01T15:27:03Z</time>
      </trkpt>
      <trkpt lat="46.52254" lon="12.11013">
        <ele>1552.19</ele>
        <time>2012-08-01T15:27:04Z</time>
      </trkpt>
      <trkpt lat="46.5225" lon="12.11002">
        <ele>1553.15</ele>
        <time>2012-08-01T15:27:05Z</time>
      </trkpt>
      <trkpt lat="46.52246" lon="12.10989">
        <ele>1554.11</ele>
        <time>2012-08-01T15:27:06Z</time>
      </trkpt>
      <trkpt lat="46.52222" lon="12.10918">
        <ele>1556.51</ele>
        <time>2012-08-01T15:27:11Z</time>
      </trkpt>
      <trkpt lat="46.52222" lon="12.10909">
        <ele>1556.51</ele>
        <time>2012-08-01T15:27:12Z</time>
      </trkpt>
      <trkpt lat="46.52225" lon="12.10902">
        <ele>1557.47</ele>
        <time>2012-08-01T15:27:13Z</time>
      </trkpt>
      <trkpt lat="46.52228" lon="12.10897">
        <ele>1557.95</ele>
        <time>2012-08-01T15:27:14Z</time>
      </trkpt>
      <trkpt lat="46.52231" lon="12.10894">
        <ele>1558.92</ele>
        <time>2012-08-01T15:27:15Z</time>
      </trkpt>
      <trkpt lat="46.52234" lon="12.10892">
        <ele>1560.36</ele>
        <time>2012-08-01T15:27:16Z</time>
      </trkpt>
      <trkpt lat="46.52241" lon="12.10894">
        <ele>1561.32</ele>
        <time>2012-08-01T15:27:17Z</time>
      </trkpt>
      <trkpt lat="46.52249" lon="12.10892">
        <ele>1563.24</ele>
        <time>2012-08-01T15:27:18Z</time>
      </trkpt>
      <trkpt lat="46.52267" lon="12.10899">
        <ele>1564.68</ele>
        <time>2012-08-01T15:27:19Z</time>
      </trkpt>
      <trkpt lat="46.52284" lon="12.10903">
        <ele>1565.16</ele>
        <time>2012-08-01T15:27:20Z</time>
      </trkpt>
      <trkpt lat="46.52326" lon="12.10903">
        <ele>1567.57</ele>
        <time>2012-08-01T15:27:23Z</time>
      </trkpt>
      <trkpt lat="46.52337" lon="12.10897">
        <ele>1569.01</ele>
        <time>2012-08-01T15:27:24Z</time>
      </trkpt>
      <trkpt lat="46.52348" lon="12.10889">
        <ele>1569.97</ele>
        <time>2012-08-01T15:27:25Z</time>
      </trkpt>
      <trkpt lat="46.52357" lon="12.10875">
        <ele>1570.45</ele>
        <time>2012-08-01T15:27:26Z</time>
      </trkpt>
      <trkpt lat="46.52365" lon="12.1086">
        <ele>1571.41</ele>
        <time>2012-08-01T15:27:27Z</time>
      </trkpt>
      <trkpt lat="46.52371" lon="12.10843">
        <ele>1572.85</ele>
        <time>2012-08-01T15:27:28Z</time>
      </trkpt>
      <trkpt lat="46.52389" lon="12.10794">
        <ele>1574.3</ele>
        <time>2012-08-01T15:27:31Z</time>
      </trkpt>
      <trkpt lat="46.52398" lon="12.10769">
        <ele>1575.26</ele>
        <time>2012-08-01T15:27:33Z</time>
      </trkpt>
      <trkpt lat="46.52399" lon="12.10758">
        <ele>1575.74</ele>
        <time>2012-08-01T15:27:34Z</time>
      </trkpt>
      <trkpt lat="46.52397" lon="12.10748">
        <ele>1576.22</ele>
        <time>2012-08-01T15:27:35Z</time>
      </trkpt>
      <trkpt lat="46.52392" lon="12.10741">
        <ele>1577.18</ele>
        <time>2012-08-01T15:27:36Z</time>
      </trkpt>
      <trkpt lat="46.52386" lon="12.10736">
        <ele>1578.62</ele>
        <time>2012-08-01T15:27:37Z</time>
      </trkpt>
      <trkpt lat="46.52377" lon="12.10735">
        <ele>1579.58</ele>
        <time>2012-08-01T15:27:38Z</time>
      </trkpt>
      <trkpt lat="46.52365" lon="12.10739">
        <ele>1580.54</ele>
        <time>2012-08-01T15:27:39Z</time>
      </trkpt>
      <trkpt lat="46.52351" lon="12.10742">
        <ele>1581.51</ele>
        <time>2012-08-01T15:27:40Z</time>
      </trkpt>
      <trkpt lat="46.52338" lon="12.10741">
        <ele>1581.99</ele>
        <time>2012-08-01T15:27:41Z</time>
      </trkpt>
      <trkpt lat="46.52325" lon="12.10736">
        <ele>1583.43</ele>
        <time>2012-08-01T15:27:42Z</time>
      </trkpt>
      <trkpt lat="46.52313" lon="12.10726">
        <ele>1584.39</ele>
        <time>2012-08-01T15:27:43Z</time>
      </trkpt>
      <trkpt lat="46.52303" lon="12.10713">
        <ele>1585.83</ele>
        <time>2012-08-01T15:27:44Z</time>
      </trkpt>
      <trkpt lat="46.52292" lon="12.10699">
        <ele>1586.79</ele>
        <time>2012-08-01T15:27:45Z</time>
      </trkpt>
      <trkpt lat="46.52272" lon="12.10673">
        <ele>1588.24</ele>
        <time>2012-08-01T15:27:47Z</time>
      </trkpt>
      <trkpt lat="46.52243" lon="12.10634">
        <ele>1588.72</ele>
        <time>2012-08-01T15:27:51Z</time>
      </trkpt>
      <trkpt lat="46.5224" lon="12.10628">
        <ele>1588.72</ele>
        <time>2012-08-01T15:27:52Z</time>
      </trkpt>
      <trkpt lat="46.52239" lon="12.10622">
        <ele>1589.2</ele>
        <time>2012-08-01T15:27:53Z</time>
      </trkpt>
      <trkpt lat="46.52241" lon="12.10615">
        <ele>1589.2</ele>
        <time>2012-08-01T15:27:54Z</time>
      </trkpt>
      <trkpt lat="46.52246" lon="12.1061">
        <ele>1589.68</ele>
        <time>2012-08-01T15:27:55Z</time>
      </trkpt>
      <trkpt lat="46.52251" lon="12.10609">
        <ele>1590.16</ele>
        <time>2012-08-01T15:27:56Z</time>
      </trkpt>
      <trkpt lat="46.52255" lon="12.10612">
        <ele>1590.16</ele>
        <time>2012-08-01T15:27:57Z</time>
      </trkpt>
      <trkpt lat="46.52258" lon="12.1062">
        <ele>1591.12</ele>
        <time>2012-08-01T15:27:58Z</time>
      </trkpt>
      <trkpt lat="46.52261" lon="12.10629">
        <ele>1591.6</ele>
        <time>2012-08-01T15:27:59Z</time>
      </trkpt>
      <trkpt lat="46.52265" lon="12.10637">
        <ele>1591.6</ele>
        <time>2012-08-01T15:28:00Z</time>
      </trkpt>
      <trkpt lat="46.52272" lon="12.10642">
        <ele>1592.08</ele>
        <time>2012-08-01T15:28:01Z</time>
      </trkpt>
      <trkpt lat="46.52279" lon="12.10642">
        <ele>1592.56</ele>
        <time>2012-08-01T15:28:02Z</time>
      </trkpt>
      <trkpt lat="46.52285" lon="12.10638">
        <ele>1592.56</ele>
        <time>2012-08-01T15:28:03Z</time>
      </trkpt>
      <trkpt lat="46.5229" lon="12.10631">
        <ele>1593.52</ele>
        <time>2012-08-01T15:28:04Z</time>
      </trkpt>
      <trkpt lat="46.52292" lon="12.10622">
        <ele>1594</ele>
        <time>2012-08-01T15:28:05Z</time>
      </trkpt>
      <trkpt lat="46.52293" lon="12.10611">
        <ele>1594.96</ele>
        <time>2012-08-01T15:28:06Z</time>
      </trkpt>
      <trkpt lat="46.52293" lon="12.10599">
        <ele>1595.45</ele>
        <time>2012-08-01T15:28:07Z</time>
      </trkpt>
      <trkpt lat="46.52292" lon="12.10587">
        <ele>1595.93</ele>
        <time>2012-08-01T15:28:08Z</time>
      </trkpt>
      <trkpt lat="46.52283" lon="12.10523">
        <ele>1602.66</ele>
        <time>2012-08-01T15:28:12Z</time>
      </trkpt>
      <trkpt lat="46.52275" lon="12.10476">
        <ele>1606.02</ele>
        <time>2012-08-01T15:28:14Z</time>
      </trkpt>
      <trkpt lat="46.52266" lon="12.10403">
        <ele>1608.9</ele>
        <time>2012-08-01T15:28:17Z</time>
      </trkpt>
      <trkpt lat="46.52258" lon="12.1035">
        <ele>1609.86</ele>
        <time>2012-08-01T15:28:20Z</time>
      </trkpt>
      <trkpt lat="46.52253" lon="12.10339">
        <ele>1609.86</ele>
        <time>2012-08-01T15:28:21Z</time>
      </trkpt>
      <trkpt lat="46.52247" lon="12.10332">
        <ele>1610.35</ele>
        <time>2012-08-01T15:28:22Z</time>
      </trkpt>
      <trkpt lat="46.5224" lon="12.10328">
        <ele>1611.31</ele>
        <time>2012-08-01T15:28:23Z</time>
      </trkpt>
      <trkpt lat="46.52234" lon="12.10326">
        <ele>1612.27</ele>
        <time>2012-08-01T15:28:24Z</time>
      </trkpt>
      <trkpt lat="46.52229" lon="12.10326">
        <ele>1613.23</ele>
        <time>2012-08-01T15:28:25Z</time>
      </trkpt>
      <trkpt lat="46.52226" lon="12.10328">
        <ele>1613.71</ele>
        <time>2012-08-01T15:28:26Z</time>
      </trkpt>
      <trkpt lat="46.52221" lon="12.10337">
        <ele>1614.19</ele>
        <time>2012-08-01T15:28:27Z</time>
      </trkpt>
      <trkpt lat="46.52214" lon="12.10348">
        <ele>1614.19</ele>
        <time>2012-08-01T15:28:28Z</time>
      </trkpt>
      <trkpt lat="46.52206" lon="12.10358">
        <ele>1615.15</ele>
        <time>2012-08-01T15:28:29Z</time>
      </trkpt>
      <trkpt lat="46.522" lon="12.10361">
        <ele>1615.63</ele>
        <time>2012-08-01T15:28:30Z</time>
      </trkpt>
      <trkpt lat="46.52196" lon="12.10361">
        <ele>1616.59</ele>
        <time>2012-08-01T15:28:31Z</time>
      </trkpt>
      <trkpt lat="46.52191" lon="12.10359">
        <ele>1617.56</ele>
        <time>2012-08-01T15:28:32Z</time>
      </trkpt>
      <trkpt lat="46.52185" lon="12.10354">
        <ele>1618.04</ele>
        <time>2012-08-01T15:28:33Z</time>
      </trkpt>
      <trkpt lat="46.52179" lon="12.1035">
        <ele>1619</ele>
        <time>2012-08-01T15:28:34Z</time>
      </trkpt>
      <trkpt lat="46.52135" lon="12.10298">
        <ele>1622.84</ele>
        <time>2012-08-01T15:28:40Z</time>
      </trkpt>
      <trkpt lat="46.52121" lon="12.10275">
        <ele>1624.28</ele>
        <time>2012-08-01T15:28:42Z</time>
      </trkpt>
      <trkpt lat="46.52116" lon="12.10262">
        <ele>1625.73</ele>
        <time>2012-08-01T15:28:43Z</time>
      </trkpt>
      <trkpt lat="46.52114" lon="12.10249">
        <ele>1625.73</ele>
        <time>2012-08-01T15:28:44Z</time>
      </trkpt>
      <trkpt lat="46.52112" lon="12.10234">
        <ele>1626.21</ele>
        <time>2012-08-01T15:28:45Z</time>
      </trkpt>
      <trkpt lat="46.52112" lon="12.10218">
        <ele>1627.65</ele>
        <time>2012-08-01T15:28:46Z</time>
      </trkpt>
      <trkpt lat="46.52114" lon="12.10201">
        <ele>1629.57</ele>
        <time>2012-08-01T15:28:47Z</time>
      </trkpt>
      <trkpt lat="46.52118" lon="12.10182">
        <ele>1631.98</ele>
        <time>2012-08-01T15:28:48Z</time>
      </trkpt>
      <trkpt lat="46.52122" lon="12.1016">
        <ele>1633.9</ele>
        <time>2012-08-01T15:28:49Z</time>
      </trkpt>
      <trkpt lat="46.52126" lon="12.10138">
        <ele>1634.86</ele>
        <time>2012-08-01T15:28:50Z</time>
      </trkpt>
      <trkpt lat="46.52127" lon="12.10116">
        <ele>1634.86</ele>
        <time>2012-08-01T15:28:51Z</time>
      </trkpt>
      <trkpt lat="46.52126" lon="12.10096">
        <ele>1635.34</ele>
        <time>2012-08-01T15:28:52Z</time>
      </trkpt>
      <trkpt lat="46.52128" lon="12.10082">
        <ele>1634.86</ele>
        <time>2012-08-01T15:28:53Z</time>
      </trkpt>
      <trkpt lat="46.52146" lon="12.10035">
        <ele>1638.22</ele>
        <time>2012-08-01T15:28:57Z</time>
      </trkpt>
      <trkpt lat="46.52154" lon="12.10025">
        <ele>1638.7</ele>
        <time>2012-08-01T15:28:58Z</time>
      </trkpt>
      <trkpt lat="46.5217" lon="12.10022">
        <ele>1639.19</ele>
        <time>2012-08-01T15:28:59Z</time>
      </trkpt>
      <trkpt lat="46.52186" lon="12.10016">
        <ele>1640.15</ele>
        <time>2012-08-01T15:29:00Z</time>
      </trkpt>
      <trkpt lat="46.52198" lon="12.10001">
        <ele>1640.63</ele>
        <time>2012-08-01T15:29:01Z</time>
      </trkpt>
      <trkpt lat="46.52209" lon="12.09984">
        <ele>1641.59</ele>
        <time>2012-08-01T15:29:02Z</time>
      </trkpt>
      <trkpt lat="46.5222" lon="12.09965">
        <ele>1643.03</ele>
        <time>2012-08-01T15:29:03Z</time>
      </trkpt>
      <trkpt lat="46.5224" lon="12.09925">
        <ele>1642.55</ele>
        <time>2012-08-01T15:29:05Z</time>
      </trkpt>
      <trkpt lat="46.52247" lon="12.09903">
        <ele>1643.03</ele>
        <time>2012-08-01T15:29:06Z</time>
      </trkpt>
      <trkpt lat="46.52248" lon="12.09879">
        <ele>1643.03</ele>
        <time>2012-08-01T15:29:07Z</time>
      </trkpt>
      <trkpt lat="46.52246" lon="12.09854">
        <ele>1643.51</ele>
        <time>2012-08-01T15:29:08Z</time>
      </trkpt>
      <trkpt lat="46.5224" lon="12.0983">
        <ele>1644.47</ele>
        <time>2012-08-01T15:29:09Z</time>
      </trkpt>
      <trkpt lat="46.52233" lon="12.09806">
        <ele>1646.4</ele>
        <time>2012-08-01T15:29:10Z</time>
      </trkpt>
      <trkpt lat="46.5221" lon="12.09728">
        <ele>1650.72</ele>
        <time>2012-08-01T15:29:13Z</time>
      </trkpt>
      <trkpt lat="46.52202" lon="12.09703">
        <ele>1650.24</ele>
        <time>2012-08-01T15:29:14Z</time>
      </trkpt>
      <trkpt lat="46.52188" lon="12.09664">
        <ele>1649.28</ele>
        <time>2012-08-01T15:29:16Z</time>
      </trkpt>
      <trkpt lat="46.52183" lon="12.09655">
        <ele>1649.28</ele>
        <time>2012-08-01T15:29:17Z</time>
      </trkpt>
      <trkpt lat="46.52174" lon="12.09647">
        <ele>1650.72</ele>
        <time>2012-08-01T15:29:18Z</time>
      </trkpt>
      <trkpt lat="46.52165" lon="12.09644">
        <ele>1652.16</ele>
        <time>2012-08-01T15:29:19Z</time>
      </trkpt>
      <trkpt lat="46.52154" lon="12.09646">
        <ele>1653.12</ele>
        <time>2012-08-01T15:29:20Z</time>
      </trkpt>
      <trkpt lat="46.52143" lon="12.0965">
        <ele>1654.57</ele>
        <time>2012-08-01T15:29:21Z</time>
      </trkpt>
      <trkpt lat="46.52132" lon="12.09659">
        <ele>1654.09</ele>
        <time>2012-08-01T15:29:22Z</time>
      </trkpt>
      <trkpt lat="46.52121" lon="12.09665">
        <ele>1653.6</ele>
        <time>2012-08-01T15:29:23Z</time>
      </trkpt>
      <trkpt lat="46.52113" lon="12.09663">
        <ele>1654.57</ele>
        <time>2012-08-01T15:29:24Z</time>
      </trkpt>
      <trkpt lat="46.52107" lon="12.09657">
        <ele>1655.05</ele>
        <time>2012-08-01T15:29:25Z</time>
      </trkpt>
      <trkpt lat="46.52101" lon="12.09649">
        <ele>1656.49</ele>
        <time>2012-08-01T15:29:26Z</time>
      </trkpt>
      <trkpt lat="46.52099" lon="12.09642">
        <ele>1657.45</ele>
        <time>2012-08-01T15:29:27Z</time>
      </trkpt>
      <trkpt lat="46.52099" lon="12.09635">
        <ele>1659.37</ele>
        <time>2012-08-01T15:29:28Z</time>
      </trkpt>
      <trkpt lat="46.52102" lon="12.09624">
        <ele>1660.33</ele>
        <time>2012-08-01T15:29:29Z</time>
      </trkpt>
      <trkpt lat="46.52108" lon="12.09608">
        <ele>1661.3</ele>
        <time>2012-08-01T15:29:30Z</time>
      </trkpt>
      <trkpt lat="46.52114" lon="12.09593">
        <ele>1661.78</ele>
        <time>2012-08-01T15:29:31Z</time>
      </trkpt>
      <trkpt lat="46.5212" lon="12.09577">
        <ele>1662.26</ele>
        <time>2012-08-01T15:29:32Z</time>
      </trkpt>
      <trkpt lat="46.52119" lon="12.09563">
        <ele>1662.74</ele>
        <time>2012-08-01T15:29:33Z</time>
      </trkpt>
      <trkpt lat="46.52116" lon="12.09552">
        <ele>1663.22</ele>
        <time>2012-08-01T15:29:34Z</time>
      </trkpt>
      <trkpt lat="46.52109" lon="12.09545">
        <ele>1664.18</ele>
        <time>2012-08-01T15:29:35Z</time>
      </trkpt>
      <trkpt lat="46.52102" lon="12.09541">
        <ele>1666.1</ele>
        <time>2012-08-01T15:29:36Z</time>
      </trkpt>
      <trkpt lat="46.52096" lon="12.0954">
        <ele>1667.54</ele>
        <time>2012-08-01T15:29:37Z</time>
      </trkpt>
      <trkpt lat="46.52074" lon="12.09551">
        <ele>1669.95</ele>
        <time>2012-08-01T15:29:39Z</time>
      </trkpt>
      <trkpt lat="46.52048" lon="12.09561">
        <ele>1670.43</ele>
        <time>2012-08-01T15:29:41Z</time>
      </trkpt>
      <trkpt lat="46.52038" lon="12.09556">
        <ele>1671.39</ele>
        <time>2012-08-01T15:29:42Z</time>
      </trkpt>
      <trkpt lat="46.5203" lon="12.09545">
        <ele>1672.35</ele>
        <time>2012-08-01T15:29:43Z</time>
      </trkpt>
      <trkpt lat="46.52024" lon="12.09528">
        <ele>1673.79</ele>
        <time>2012-08-01T15:29:44Z</time>
      </trkpt>
      <trkpt lat="46.52013" lon="12.09487">
        <ele>1676.68</ele>
        <time>2012-08-01T15:29:46Z</time>
      </trkpt>
      <trkpt lat="46.51995" lon="12.09423">
        <ele>1680.52</ele>
        <time>2012-08-01T15:29:49Z</time>
      </trkpt>
      <trkpt lat="46.51991" lon="12.09406">
        <ele>1681</ele>
        <time>2012-08-01T15:29:50Z</time>
      </trkpt>
      <trkpt lat="46.5199" lon="12.0939">
        <ele>1681</ele>
        <time>2012-08-01T15:29:51Z</time>
      </trkpt>
      <trkpt lat="46.51994" lon="12.09376">
        <ele>1681.96</ele>
        <time>2012-08-01T15:29:52Z</time>
      </trkpt>
      <trkpt lat="46.52002" lon="12.09364">
        <ele>1683.41</ele>
        <time>2012-08-01T15:29:53Z</time>
      </trkpt>
      <trkpt lat="46.52011" lon="12.09353">
        <ele>1684.85</ele>
        <time>2012-08-01T15:29:54Z</time>
      </trkpt>
      <trkpt lat="46.5202" lon="12.09344">
        <ele>1686.29</ele>
        <time>2012-08-01T15:29:55Z</time>
      </trkpt>
      <trkpt lat="46.52028" lon="12.09335">
        <ele>1686.29</ele>
        <time>2012-08-01T15:29:56Z</time>
      </trkpt>
      <trkpt lat="46.52033" lon="12.09326">
        <ele>1686.77</ele>
        <time>2012-08-01T15:29:57Z</time>
      </trkpt>
      <trkpt lat="46.52038" lon="12.09317">
        <ele>1689.17</ele>
        <time>2012-08-01T15:29:58Z</time>
      </trkpt>
      <trkpt lat="46.5204" lon="12.09309">
        <ele>1690.14</ele>
        <time>2012-08-01T15:29:59Z</time>
      </trkpt>
      <trkpt lat="46.5204" lon="12.09301">
        <ele>1691.58</ele>
        <time>2012-08-01T15:30:00Z</time>
      </trkpt>
      <trkpt lat="46.5204" lon="12.09293">
        <ele>1693.02</ele>
        <time>2012-08-01T15:30:01Z</time>
      </trkpt>
      <trkpt lat="46.5204" lon="12.09285">
        <ele>1694.46</ele>
        <time>2012-08-01T15:30:02Z</time>
      </trkpt>
      <trkpt lat="46.52039" lon="12.09267">
        <ele>1696.86</ele>
        <time>2012-08-01T15:30:04Z</time>
      </trkpt>
      <trkpt lat="46.5204" lon="12.09257">
        <ele>1697.34</ele>
        <time>2012-08-01T15:30:05Z</time>
      </trkpt>
      <trkpt lat="46.52044" lon="12.09224">
        <ele>1698.31</ele>
        <time>2012-08-01T15:30:07Z</time>
      </trkpt>
      <trkpt lat="46.52045" lon="12.09202">
        <ele>1699.75</ele>
        <time>2012-08-01T15:30:08Z</time>
      </trkpt>
      <trkpt lat="46.52018" lon="12.08986">
        <ele>1700.23</ele>
        <time>2012-08-01T15:30:15Z</time>
      </trkpt>
      <trkpt lat="46.52014" lon="12.08817">
        <ele>1701.19</ele>
        <time>2012-08-01T15:30:21Z</time>
      </trkpt>
      <trkpt lat="46.52033" lon="12.08681">
        <ele>1704.07</ele>
        <time>2012-08-01T15:30:26Z</time>
      </trkpt>
      <trkpt lat="46.52069" lon="12.08505">
        <ele>1706</ele>
        <time>2012-08-01T15:30:33Z</time>
      </trkpt>
      <trkpt lat="46.52082" lon="12.08474">
        <ele>1704.55</ele>
        <time>2012-08-01T15:30:35Z</time>
      </trkpt>
      <trkpt lat="46.5209" lon="12.08462">
        <ele>1704.07</ele>
        <time>2012-08-01T15:30:36Z</time>
      </trkpt>
      <trkpt lat="46.521" lon="12.08456">
        <ele>1704.55</ele>
        <time>2012-08-01T15:30:37Z</time>
      </trkpt>
      <trkpt lat="46.52111" lon="12.08454">
        <ele>1705.52</ele>
        <time>2012-08-01T15:30:38Z</time>
      </trkpt>
      <trkpt lat="46.52126" lon="12.08457">
        <ele>1706</ele>
        <time>2012-08-01T15:30:39Z</time>
      </trkpt>
      <trkpt lat="46.52141" lon="12.08458">
        <ele>1706</ele>
        <time>2012-08-01T15:30:40Z</time>
      </trkpt>
      <trkpt lat="46.52154" lon="12.08454">
        <ele>1706</ele>
        <time>2012-08-01T15:30:41Z</time>
      </trkpt>
      <trkpt lat="46.52168" lon="12.08446">
        <ele>1706</ele>
        <time>2012-08-01T15:30:42Z</time>
      </trkpt>
      <trkpt lat="46.5218" lon="12.08435">
        <ele>1706</ele>
        <time>2012-08-01T15:30:43Z</time>
      </trkpt>
      <trkpt lat="46.5219" lon="12.08417">
        <ele>1706.96</ele>
        <time>2012-08-01T15:30:44Z</time>
      </trkpt>
      <trkpt lat="46.52198" lon="12.08395">
        <ele>1707.44</ele>
        <time>2012-08-01T15:30:45Z</time>
      </trkpt>
      <trkpt lat="46.52205" lon="12.08372">
        <ele>1708.4</ele>
        <time>2012-08-01T15:30:46Z</time>
      </trkpt>
      <trkpt lat="46.52212" lon="12.08348">
        <ele>1708.4</ele>
        <time>2012-08-01T15:30:47Z</time>
      </trkpt>
      <trkpt lat="46.5225" lon="12.08226">
        <ele>1708.4</ele>
        <time>2012-08-01T15:30:53Z</time>
      </trkpt>
      <trkpt lat="46.52253" lon="12.08211">
        <ele>1708.4</ele>
        <time>2012-08-01T15:30:54Z</time>
      </trkpt>
      <trkpt lat="46.52253" lon="12.08196">
        <ele>1708.4</ele>
        <time>2012-08-01T15:30:55Z</time>
      </trkpt>
      <trkpt lat="46.52248" lon="12.08181">
        <ele>1709.84</ele>
        <time>2012-08-01T15:30:56Z</time>
      </trkpt>
      <trkpt lat="46.52236" lon="12.08164">
        <ele>1709.84</ele>
        <time>2012-08-01T15:30:57Z</time>
      </trkpt>
      <trkpt lat="46.52223" lon="12.08152">
        <ele>1710.32</ele>
        <time>2012-08-01T15:30:58Z</time>
      </trkpt>
      <trkpt lat="46.52208" lon="12.08142">
        <ele>1711.28</ele>
        <time>2012-08-01T15:30:59Z</time>
      </trkpt>
      <trkpt lat="46.52193" lon="12.08134">
        <ele>1712.25</ele>
        <time>2012-08-01T15:31:00Z</time>
      </trkpt>
      <trkpt lat="46.52135" lon="12.08101">
        <ele>1710.8</ele>
        <time>2012-08-01T15:31:04Z</time>
      </trkpt>
      <trkpt lat="46.52126" lon="12.08092">
        <ele>1709.84</ele>
        <time>2012-08-01T15:31:05Z</time>
      </trkpt>
      <trkpt lat="46.52119" lon="12.08079">
        <ele>1710.32</ele>
        <time>2012-08-01T15:31:06Z</time>
      </trkpt>
      <trkpt lat="46.52115" lon="12.08061">
        <ele>1711.28</ele>
        <time>2012-08-01T15:31:07Z</time>
      </trkpt>
      <trkpt lat="46.52115" lon="12.0804">
        <ele>1711.28</ele>
        <time>2012-08-01T15:31:08Z</time>
      </trkpt>
      <trkpt lat="46.52116" lon="12.08018">
        <ele>1712.25</ele>
        <time>2012-08-01T15:31:09Z</time>
      </trkpt>
      <trkpt lat="46.52117" lon="12.07971">
        <ele>1713.21</ele>
        <time>2012-08-01T15:31:11Z</time>
      </trkpt>
      <trkpt lat="46.52114" lon="12.07945">
        <ele>1714.17</ele>
        <time>2012-08-01T15:31:12Z</time>
      </trkpt>
      <trkpt lat="46.52111" lon="12.07919">
        <ele>1715.13</ele>
        <time>2012-08-01T15:31:13Z</time>
      </trkpt>
      <trkpt lat="46.52103" lon="12.07864">
        <ele>1716.09</ele>
        <time>2012-08-01T15:31:15Z</time>
      </trkpt>
      <trkpt lat="46.52063" lon="12.07588">
        <ele>1714.17</ele>
        <time>2012-08-01T15:31:26Z</time>
      </trkpt>
      <trkpt lat="46.52065" lon="12.07571">
        <ele>1714.17</ele>
        <time>2012-08-01T15:31:27Z</time>
      </trkpt>
      <trkpt lat="46.52071" lon="12.07554">
        <ele>1714.65</ele>
        <time>2012-08-01T15:31:28Z</time>
      </trkpt>
      <trkpt lat="46.52081" lon="12.07541">
        <ele>1715.13</ele>
        <time>2012-08-01T15:31:29Z</time>
      </trkpt>
      <trkpt lat="46.52092" lon="12.07529">
        <ele>1715.13</ele>
        <time>2012-08-01T15:31:30Z</time>
      </trkpt>
      <trkpt lat="46.52101" lon="12.07516">
        <ele>1716.09</ele>
        <time>2012-08-01T15:31:31Z</time>
      </trkpt>
      <trkpt lat="46.52107" lon="12.07498">
        <ele>1715.61</ele>
        <time>2012-08-01T15:31:32Z</time>
      </trkpt>
      <trkpt lat="46.5211" lon="12.07476">
        <ele>1716.09</ele>
        <time>2012-08-01T15:31:33Z</time>
      </trkpt>
      <trkpt lat="46.5211" lon="12.07454">
        <ele>1717.05</ele>
        <time>2012-08-01T15:31:34Z</time>
      </trkpt>
      <trkpt lat="46.5211" lon="12.0743">
        <ele>1716.57</ele>
        <time>2012-08-01T15:31:35Z</time>
      </trkpt>
      <trkpt lat="46.52109" lon="12.073">
        <ele>1720.42</ele>
        <time>2012-08-01T15:31:40Z</time>
      </trkpt>
      <trkpt lat="46.52108" lon="12.07272">
        <ele>1720.42</ele>
        <time>2012-08-01T15:31:41Z</time>
      </trkpt>
      <trkpt lat="46.5211" lon="12.07168">
        <ele>1721.86</ele>
        <time>2012-08-01T15:31:45Z</time>
      </trkpt>
      <trkpt lat="46.52115" lon="12.07144">
        <ele>1722.34</ele>
        <time>2012-08-01T15:31:46Z</time>
      </trkpt>
      <trkpt lat="46.52122" lon="12.07121">
        <ele>1722.34</ele>
        <time>2012-08-01T15:31:47Z</time>
      </trkpt>
      <trkpt lat="46.52142" lon="12.07054">
        <ele>1722.34</ele>
        <time>2012-08-01T15:31:50Z</time>
      </trkpt>
      <trkpt lat="46.52144" lon="12.07031">
        <ele>1724.26</ele>
        <time>2012-08-01T15:31:51Z</time>
      </trkpt>
      <trkpt lat="46.52143" lon="12.07007">
        <ele>1723.78</ele>
        <time>2012-08-01T15:31:52Z</time>
      </trkpt>
      <trkpt lat="46.52143" lon="12.06983">
        <ele>1723.78</ele>
        <time>2012-08-01T15:31:53Z</time>
      </trkpt>
      <trkpt lat="46.52146" lon="12.06961">
        <ele>1724.26</ele>
        <time>2012-08-01T15:31:54Z</time>
      </trkpt>
      <trkpt lat="46.52151" lon="12.06939">
        <ele>1724.74</ele>
        <time>2012-08-01T15:31:55Z</time>
      </trkpt>
      <trkpt lat="46.52159" lon="12.06919">
        <ele>1725.22</ele>
        <time>2012-08-01T15:31:56Z</time>
      </trkpt>
      <trkpt lat="46.52167" lon="12.06898">
        <ele>1724.74</ele>
        <time>2012-08-01T15:31:57Z</time>
      </trkpt>
      <trkpt lat="46.52223" lon="12.06769">
        <ele>1726.18</ele>
        <time>2012-08-01T15:32:04Z</time>
      </trkpt>
      <trkpt lat="46.52229" lon="12.06749">
        <ele>1726.18</ele>
        <time>2012-08-01T15:32:05Z</time>
      </trkpt>
      <trkpt lat="46.52232" lon="12.06726">
        <ele>1727.63</ele>
        <time>2012-08-01T15:32:06Z</time>
      </trkpt>
      <trkpt lat="46.52241" lon="12.06656">
        <ele>1730.51</ele>
        <time>2012-08-01T15:32:09Z</time>
      </trkpt>
      <trkpt lat="46.52245" lon="12.0656">
        <ele>1734.36</ele>
        <time>2012-08-01T15:32:13Z</time>
      </trkpt>
      <trkpt lat="46.5224" lon="12.06431">
        <ele>1737.72</ele>
        <time>2012-08-01T15:32:19Z</time>
      </trkpt>
      <trkpt lat="46.52238" lon="12.06356">
        <ele>1741.57</ele>
        <time>2012-08-01T15:32:23Z</time>
      </trkpt>
      <trkpt lat="46.52235" lon="12.06274">
        <ele>1745.89</ele>
        <time>2012-08-01T15:32:27Z</time>
      </trkpt>
      <trkpt lat="46.52234" lon="12.0621">
        <ele>1749.26</ele>
        <time>2012-08-01T15:32:30Z</time>
      </trkpt>
      <trkpt lat="46.52241" lon="12.06145">
        <ele>1753.58</ele>
        <time>2012-08-01T15:32:33Z</time>
      </trkpt>
      <trkpt lat="46.52252" lon="12.06078">
        <ele>1756.95</ele>
        <time>2012-08-01T15:32:36Z</time>
      </trkpt>
      <trkpt lat="46.52265" lon="12.06011">
        <ele>1760.79</ele>
        <time>2012-08-01T15:32:39Z</time>
      </trkpt>
      <trkpt lat="46.52277" lon="12.05942">
        <ele>1764.16</ele>
        <time>2012-08-01T15:32:42Z</time>
      </trkpt>
      <trkpt lat="46.52285" lon="12.05895">
        <ele>1767.52</ele>
        <time>2012-08-01T15:32:44Z</time>
      </trkpt>
      <trkpt lat="46.52301" lon="12.05803">
        <ele>1771.37</ele>
        <time>2012-08-01T15:32:48Z</time>
      </trkpt>
      <trkpt lat="46.52309" lon="12.05735">
        <ele>1774.73</ele>
        <time>2012-08-01T15:32:51Z</time>
      </trkpt>
      <trkpt lat="46.5231" lon="12.05714">
        <ele>1775.69</ele>
        <time>2012-08-01T15:32:52Z</time>
      </trkpt>
      <trkpt lat="46.52308" lon="12.05673">
        <ele>1777.13</ele>
        <time>2012-08-01T15:32:54Z</time>
      </trkpt>
      <trkpt lat="46.52304" lon="12.05616">
        <ele>1780.02</ele>
        <time>2012-08-01T15:32:57Z</time>
      </trkpt>
      <trkpt lat="46.523" lon="12.05574">
        <ele>1783.86</ele>
        <time>2012-08-01T15:32:59Z</time>
      </trkpt>
      <trkpt lat="46.52296" lon="12.05528">
        <ele>1788.19</ele>
        <time>2012-08-01T15:33:01Z</time>
      </trkpt>
      <trkpt lat="46.52291" lon="12.05453">
        <ele>1792.03</ele>
        <time>2012-08-01T15:33:04Z</time>
      </trkpt>
      <trkpt lat="46.52289" lon="12.05401">
        <ele>1794.92</ele>
        <time>2012-08-01T15:33:06Z</time>
      </trkpt>
      <trkpt lat="46.52284" lon="12.05323">
        <ele>1798.76</ele>
        <time>2012-08-01T15:33:09Z</time>
      </trkpt>
      <trkpt lat="46.52279" lon="12.05247">
        <ele>1802.61</ele>
        <time>2012-08-01T15:33:12Z</time>
      </trkpt>
      <trkpt lat="46.52268" lon="12.05173">
        <ele>1805.97</ele>
        <time>2012-08-01T15:33:15Z</time>
      </trkpt>
      <trkpt lat="46.52252" lon="12.05099">
        <ele>1811.26</ele>
        <time>2012-08-01T15:33:18Z</time>
      </trkpt>
      <trkpt lat="46.52244" lon="12.05023">
        <ele>1814.63</ele>
        <time>2012-08-01T15:33:21Z</time>
      </trkpt>
      <trkpt lat="46.52244" lon="12.04997">
        <ele>1816.55</ele>
        <time>2012-08-01T15:33:22Z</time>
      </trkpt>
      <trkpt lat="46.52246" lon="12.04923">
        <ele>1819.91</ele>
        <time>2012-08-01T15:33:25Z</time>
      </trkpt>
      <trkpt lat="46.52243" lon="12.049">
        <ele>1820.87</ele>
        <time>2012-08-01T15:33:26Z</time>
      </trkpt>
      <trkpt lat="46.52238" lon="12.04877">
        <ele>1821.84</ele>
        <time>2012-08-01T15:33:27Z</time>
      </trkpt>
      <trkpt lat="46.5223" lon="12.04855">
        <ele>1823.28</ele>
        <time>2012-08-01T15:33:28Z</time>
      </trkpt>
      <trkpt lat="46.52222" lon="12.04833">
        <ele>1824.24</ele>
        <time>2012-08-01T15:33:29Z</time>
      </trkpt>
      <trkpt lat="46.52215" lon="12.04811">
        <ele>1825.68</ele>
        <time>2012-08-01T15:33:30Z</time>
      </trkpt>
      <trkpt lat="46.5221" lon="12.04787">
        <ele>1827.12</ele>
        <time>2012-08-01T15:33:31Z</time>
      </trkpt>
      <trkpt lat="46.52207" lon="12.04762">
        <ele>1827.6</ele>
        <time>2012-08-01T15:33:32Z</time>
      </trkpt>
      <trkpt lat="46.52206" lon="12.04736">
        <ele>1829.53</ele>
        <time>2012-08-01T15:33:33Z</time>
      </trkpt>
      <trkpt lat="46.52206" lon="12.0471">
        <ele>1830.97</ele>
        <time>2012-08-01T15:33:34Z</time>
      </trkpt>
      <trkpt lat="46.52206" lon="12.04684">
        <ele>1832.41</ele>
        <time>2012-08-01T15:33:35Z</time>
      </trkpt>
      <trkpt lat="46.52207" lon="12.04582">
        <ele>1836.74</ele>
        <time>2012-08-01T15:33:39Z</time>
      </trkpt>
      <trkpt lat="46.52207" lon="12.04531">
        <ele>1839.62</ele>
        <time>2012-08-01T15:33:41Z</time>
      </trkpt>
      <trkpt lat="46.52203" lon="12.04455">
        <ele>1843.47</ele>
        <time>2012-08-01T15:33:44Z</time>
      </trkpt>
      <trkpt lat="46.52193" lon="12.04386">
        <ele>1846.83</ele>
        <time>2012-08-01T15:33:47Z</time>
      </trkpt>
      <trkpt lat="46.52056" lon="12.03719">
        <ele>1931.91</ele>
        <time>2012-08-01T15:50:08Z</time>
      </trkpt>
      <trkpt lat="46.52058" lon="12.03726">
        <ele>1928.06</ele>
        <time>2012-08-01T15:50:09Z</time>
      </trkpt>
      <trkpt lat="46.52074" lon="12.03749">
        <ele>1929.5</ele>
        <time>2012-08-01T15:50:14Z</time>
      </trkpt>
      <trkpt lat="46.52104" lon="12.0374">
        <ele>1928.54</ele>
        <time>2012-08-01T15:50:20Z</time>
      </trkpt>
      <trkpt lat="46.52105" lon="12.03722">
        <ele>1929.02</ele>
        <time>2012-08-01T15:50:22Z</time>
      </trkpt>
      <trkpt lat="46.52104" lon="12.0371">
        <ele>1929.02</ele>
        <time>2012-08-01T15:50:23Z</time>
      </trkpt>
      <trkpt lat="46.52075" lon="12.0356">
        <ele>1932.87</ele>
        <time>2012-08-01T15:50:32Z</time>
      </trkpt>
      <trkpt lat="46.5207" lon="12.03524">
        <ele>1934.31</ele>
        <time>2012-08-01T15:50:34Z</time>
      </trkpt>
      <trkpt lat="46.52059" lon="12.03453">
        <ele>1936.23</ele>
        <time>2012-08-01T15:50:38Z</time>
      </trkpt>
      <trkpt lat="46.52055" lon="12.03436">
        <ele>1936.71</ele>
        <time>2012-08-01T15:50:39Z</time>
      </trkpt>
      <trkpt lat="46.5205" lon="12.03419">
        <ele>1936.71</ele>
        <time>2012-08-01T15:50:40Z</time>
      </trkpt>
      <trkpt lat="46.52045" lon="12.03405">
        <ele>1937.67</ele>
        <time>2012-08-01T15:50:41Z</time>
      </trkpt>
      <trkpt lat="46.52039" lon="12.03393">
        <ele>1938.16</ele>
        <time>2012-08-01T15:50:42Z</time>
      </trkpt>
      <trkpt lat="46.52033" lon="12.03383">
        <ele>1937.67</ele>
        <time>2012-08-01T15:50:43Z</time>
      </trkpt>
      <trkpt lat="46.52022" lon="12.03364">
        <ele>1938.16</ele>
        <time>2012-08-01T15:50:45Z</time>
      </trkpt>
      <trkpt lat="46.52019" lon="12.03353">
        <ele>1938.64</ele>
        <time>2012-08-01T15:50:46Z</time>
      </trkpt>
      <trkpt lat="46.52016" lon="12.03342">
        <ele>1939.12</ele>
        <time>2012-08-01T15:50:47Z</time>
      </trkpt>
      <trkpt lat="46.52015" lon="12.0333">
        <ele>1939.12</ele>
        <time>2012-08-01T15:50:48Z</time>
      </trkpt>
      <trkpt lat="46.52015" lon="12.03319">
        <ele>1939.6</ele>
        <time>2012-08-01T15:50:49Z</time>
      </trkpt>
      <trkpt lat="46.52014" lon="12.03309">
        <ele>1939.6</ele>
        <time>2012-08-01T15:50:50Z</time>
      </trkpt>
      <trkpt lat="46.52014" lon="12.03236">
        <ele>1942.96</ele>
        <time>2012-08-01T15:50:56Z</time>
      </trkpt>
      <trkpt lat="46.52012" lon="12.03187">
        <ele>1943.92</ele>
        <time>2012-08-01T15:51:00Z</time>
      </trkpt>
      <trkpt lat="46.5201" lon="12.03178">
        <ele>1943.92</ele>
        <time>2012-08-01T15:51:01Z</time>
      </trkpt>
      <trkpt lat="46.52008" lon="12.03169">
        <ele>1944.4</ele>
        <time>2012-08-01T15:51:02Z</time>
      </trkpt>
      <trkpt lat="46.52005" lon="12.03162">
        <ele>1944.4</ele>
        <time>2012-08-01T15:51:03Z</time>
      </trkpt>
      <trkpt lat="46.52002" lon="12.03156">
        <ele>1944.88</ele>
        <time>2012-08-01T15:51:04Z</time>
      </trkpt>
      <trkpt lat="46.51987" lon="12.03136">
        <ele>1946.33</ele>
        <time>2012-08-01T15:51:10Z</time>
      </trkpt>
      <trkpt lat="46.51973" lon="12.03119">
        <ele>1948.25</ele>
        <time>2012-08-01T15:51:13Z</time>
      </trkpt>
      <trkpt lat="46.51967" lon="12.03114">
        <ele>1948.25</ele>
        <time>2012-08-01T15:51:14Z</time>
      </trkpt>
      <trkpt lat="46.5196" lon="12.03111">
        <ele>1948.73</ele>
        <time>2012-08-01T15:51:15Z</time>
      </trkpt>
      <trkpt lat="46.51952" lon="12.03111">
        <ele>1949.69</ele>
        <time>2012-08-01T15:51:16Z</time>
      </trkpt>
      <trkpt lat="46.51942" lon="12.03116">
        <ele>1950.65</ele>
        <time>2012-08-01T15:51:17Z</time>
      </trkpt>
      <trkpt lat="46.51932" lon="12.03126">
        <ele>1951.61</ele>
        <time>2012-08-01T15:51:18Z</time>
      </trkpt>
      <trkpt lat="46.51923" lon="12.03137">
        <ele>1953.06</ele>
        <time>2012-08-01T15:51:19Z</time>
      </trkpt>
      <trkpt lat="46.51915" lon="12.03145">
        <ele>1953.06</ele>
        <time>2012-08-01T15:51:20Z</time>
      </trkpt>
      <trkpt lat="46.51907" lon="12.03149">
        <ele>1952.57</ele>
        <time>2012-08-01T15:51:21Z</time>
      </trkpt>
      <trkpt lat="46.51902" lon="12.03147">
        <ele>1953.06</ele>
        <time>2012-08-01T15:51:22Z</time>
      </trkpt>
      <trkpt lat="46.51899" lon="12.0314">
        <ele>1953.54</ele>
        <time>2012-08-01T15:51:23Z</time>
      </trkpt>
      <trkpt lat="46.51899" lon="12.03129">
        <ele>1954.98</ele>
        <time>2012-08-01T15:51:24Z</time>
      </trkpt>
      <trkpt lat="46.51902" lon="12.03117">
        <ele>1955.46</ele>
        <time>2012-08-01T15:51:25Z</time>
      </trkpt>
      <trkpt lat="46.51906" lon="12.03104">
        <ele>1956.9</ele>
        <time>2012-08-01T15:51:26Z</time>
      </trkpt>
      <trkpt lat="46.51912" lon="12.03091">
        <ele>1957.86</ele>
        <time>2012-08-01T15:51:27Z</time>
      </trkpt>
      <trkpt lat="46.51936" lon="12.03054">
        <ele>1959.78</ele>
        <time>2012-08-01T15:51:30Z</time>
      </trkpt>
      <trkpt lat="46.51945" lon="12.03024">
        <ele>1961.71</ele>
        <time>2012-08-01T15:51:33Z</time>
      </trkpt>
      <trkpt lat="46.51941" lon="12.03016">
        <ele>1962.67</ele>
        <time>2012-08-01T15:51:34Z</time>
      </trkpt>
      <trkpt lat="46.51932" lon="12.03012">
        <ele>1963.63</ele>
        <time>2012-08-01T15:51:35Z</time>
      </trkpt>
      <trkpt lat="46.5192" lon="12.0301">
        <ele>1964.59</ele>
        <time>2012-08-01T15:51:36Z</time>
      </trkpt>
      <trkpt lat="46.51907" lon="12.03008">
        <ele>1965.55</ele>
        <time>2012-08-01T15:51:37Z</time>
      </trkpt>
      <trkpt lat="46.5188" lon="12.03002">
        <ele>1968.44</ele>
        <time>2012-08-01T15:51:39Z</time>
      </trkpt>
      <trkpt lat="46.51866" lon="12.02995">
        <ele>1969.4</ele>
        <time>2012-08-01T15:51:40Z</time>
      </trkpt>
      <trkpt lat="46.51852" lon="12.02984">
        <ele>1970.36</ele>
        <time>2012-08-01T15:51:41Z</time>
      </trkpt>
      <trkpt lat="46.51817" lon="12.0295">
        <ele>1972.28</ele>
        <time>2012-08-01T15:51:44Z</time>
      </trkpt>
      <trkpt lat="46.51808" lon="12.02939">
        <ele>1972.28</ele>
        <time>2012-08-01T15:51:45Z</time>
      </trkpt>
      <trkpt lat="46.51803" lon="12.02925">
        <ele>1973.72</ele>
        <time>2012-08-01T15:51:46Z</time>
      </trkpt>
      <trkpt lat="46.51802" lon="12.0291">
        <ele>1974.2</ele>
        <time>2012-08-01T15:51:47Z</time>
      </trkpt>
      <trkpt lat="46.51804" lon="12.02893">
        <ele>1974.69</ele>
        <time>2012-08-01T15:51:48Z</time>
      </trkpt>
      <trkpt lat="46.5181" lon="12.02877">
        <ele>1976.13</ele>
        <time>2012-08-01T15:51:49Z</time>
      </trkpt>
      <trkpt lat="46.51817" lon="12.02861">
        <ele>1977.09</ele>
        <time>2012-08-01T15:51:50Z</time>
      </trkpt>
      <trkpt lat="46.51844" lon="12.02793">
        <ele>1980.93</ele>
        <time>2012-08-01T15:51:54Z</time>
      </trkpt>
      <trkpt lat="46.51858" lon="12.02763">
        <ele>1981.41</ele>
        <time>2012-08-01T15:51:56Z</time>
      </trkpt>
      <trkpt lat="46.51867" lon="12.02754">
        <ele>1981.9</ele>
        <time>2012-08-01T15:51:57Z</time>
      </trkpt>
      <trkpt lat="46.51877" lon="12.02749">
        <ele>1983.34</ele>
        <time>2012-08-01T15:51:58Z</time>
      </trkpt>
      <trkpt lat="46.51889" lon="12.02749">
        <ele>1984.3</ele>
        <time>2012-08-01T15:51:59Z</time>
      </trkpt>
      <trkpt lat="46.51903" lon="12.02751">
        <ele>1984.78</ele>
        <time>2012-08-01T15:52:00Z</time>
      </trkpt>
      <trkpt lat="46.51916" lon="12.02755">
        <ele>1985.74</ele>
        <time>2012-08-01T15:52:01Z</time>
      </trkpt>
      <trkpt lat="46.51971" lon="12.02763">
        <ele>1988.62</ele>
        <time>2012-08-01T15:52:05Z</time>
      </trkpt>
      <trkpt lat="46.51983" lon="12.0276">
        <ele>1989.1</ele>
        <time>2012-08-01T15:52:06Z</time>
      </trkpt>
      <trkpt lat="46.51993" lon="12.02754">
        <ele>1989.1</ele>
        <time>2012-08-01T15:52:07Z</time>
      </trkpt>
      <trkpt lat="46.52" lon="12.02743">
        <ele>1989.1</ele>
        <time>2012-08-01T15:52:08Z</time>
      </trkpt>
      <trkpt lat="46.52005" lon="12.02728">
        <ele>1990.55</ele>
        <time>2012-08-01T15:52:09Z</time>
      </trkpt>
      <trkpt lat="46.52007" lon="12.02711">
        <ele>1991.99</ele>
        <time>2012-08-01T15:52:10Z</time>
      </trkpt>
      <trkpt lat="46.52006" lon="12.02693">
        <ele>1992.95</ele>
        <time>2012-08-01T15:52:11Z</time>
      </trkpt>
      <trkpt lat="46.52004" lon="12.02674">
        <ele>1994.39</ele>
        <time>2012-08-01T15:52:12Z</time>
      </trkpt>
      <trkpt lat="46.52" lon="12.02654">
        <ele>1995.35</ele>
        <time>2012-08-01T15:52:13Z</time>
      </trkpt>
      <trkpt lat="46.51993" lon="12.02613">
        <ele>1999.2</ele>
        <time>2012-08-01T15:52:15Z</time>
      </trkpt>
      <trkpt lat="46.51982" lon="12.02551">
        <ele>2002.56</ele>
        <time>2012-08-01T15:52:18Z</time>
      </trkpt>
      <trkpt lat="46.51976" lon="12.02507">
        <ele>2004.01</ele>
        <time>2012-08-01T15:52:20Z</time>
      </trkpt>
      <trkpt lat="46.51975" lon="12.02485">
        <ele>2005.45</ele>
        <time>2012-08-01T15:52:21Z</time>
      </trkpt>
      <trkpt lat="46.51976" lon="12.02418">
        <ele>2008.81</ele>
        <time>2012-08-01T15:52:24Z</time>
      </trkpt>
      <trkpt lat="46.51977" lon="12.02356">
        <ele>2012.18</ele>
        <time>2012-08-01T15:52:27Z</time>
      </trkpt>
      <trkpt lat="46.51973" lon="12.02336">
        <ele>2013.14</ele>
        <time>2012-08-01T15:52:28Z</time>
      </trkpt>
      <trkpt lat="46.51966" lon="12.02319">
        <ele>2014.58</ele>
        <time>2012-08-01T15:52:29Z</time>
      </trkpt>
      <trkpt lat="46.51959" lon="12.02304">
        <ele>2015.06</ele>
        <time>2012-08-01T15:52:30Z</time>
      </trkpt>
      <trkpt lat="46.51952" lon="12.02291">
        <ele>2015.54</ele>
        <time>2012-08-01T15:52:31Z</time>
      </trkpt>
      <trkpt lat="46.51948" lon="12.02279">
        <ele>2015.54</ele>
        <time>2012-08-01T15:52:32Z</time>
      </trkpt>
      <trkpt lat="46.51948" lon="12.02267">
        <ele>2015.54</ele>
        <time>2012-08-01T15:52:33Z</time>
      </trkpt>
      <trkpt lat="46.51952" lon="12.02256">
        <ele>2016.5</ele>
        <time>2012-08-01T15:52:34Z</time>
      </trkpt>
      <trkpt lat="46.51958" lon="12.02248">
        <ele>2017.46</ele>
        <time>2012-08-01T15:52:35Z</time>
      </trkpt>
      <trkpt lat="46.51965" lon="12.02244">
        <ele>2017.94</ele>
        <time>2012-08-01T15:52:36Z</time>
      </trkpt>
      <trkpt lat="46.51973" lon="12.02247">
        <ele>2018.91</ele>
        <time>2012-08-01T15:52:37Z</time>
      </trkpt>
      <trkpt lat="46.51982" lon="12.02255">
        <ele>2019.87</ele>
        <time>2012-08-01T15:52:38Z</time>
      </trkpt>
      <trkpt lat="46.51992" lon="12.02268">
        <ele>2021.31</ele>
        <time>2012-08-01T15:52:39Z</time>
      </trkpt>
      <trkpt lat="46.52001" lon="12.02283">
        <ele>2022.75</ele>
        <time>2012-08-01T15:52:40Z</time>
      </trkpt>
      <trkpt lat="46.52006" lon="12.02301">
        <ele>2023.71</ele>
        <time>2012-08-01T15:52:41Z</time>
      </trkpt>
      <trkpt lat="46.52009" lon="12.02317">
        <ele>2024.19</ele>
        <time>2012-08-01T15:52:42Z</time>
      </trkpt>
      <trkpt lat="46.52011" lon="12.02331">
        <ele>2024.19</ele>
        <time>2012-08-01T15:52:43Z</time>
      </trkpt>
      <trkpt lat="46.52016" lon="12.02339">
        <ele>2024.19</ele>
        <time>2012-08-01T15:52:44Z</time>
      </trkpt>
      <trkpt lat="46.52022" lon="12.02344">
        <ele>2024.19</ele>
        <time>2012-08-01T15:52:45Z</time>
      </trkpt>
      <trkpt lat="46.52029" lon="12.02342">
        <ele>2024.19</ele>
        <time>2012-08-01T15:52:46Z</time>
      </trkpt>
      <trkpt lat="46.52036" lon="12.02337">
        <ele>2024.67</ele>
        <time>2012-08-01T15:52:47Z</time>
      </trkpt>
      <trkpt lat="46.52039" lon="12.02327">
        <ele>2025.64</ele>
        <time>2012-08-01T15:52:48Z</time>
      </trkpt>
      <trkpt lat="46.52039" lon="12.02315">
        <ele>2026.6</ele>
        <time>2012-08-01T15:52:49Z</time>
      </trkpt>
      <trkpt lat="46.52036" lon="12.023">
        <ele>2027.56</ele>
        <time>2012-08-01T15:52:50Z</time>
      </trkpt>
      <trkpt lat="46.52033" lon="12.02282">
        <ele>2028.04</ele>
        <time>2012-08-01T15:52:51Z</time>
      </trkpt>
      <trkpt lat="46.52033" lon="12.02264">
        <ele>2029</ele>
        <time>2012-08-01T15:52:52Z</time>
      </trkpt>
      <trkpt lat="46.52035" lon="12.02247">
        <ele>2029.48</ele>
        <time>2012-08-01T15:52:53Z</time>
      </trkpt>
      <trkpt lat="46.52039" lon="12.0223">
        <ele>2030.44</ele>
        <time>2012-08-01T15:52:54Z</time>
      </trkpt>
      <trkpt lat="46.52042" lon="12.02213">
        <ele>2031.4</ele>
        <time>2012-08-01T15:52:55Z</time>
      </trkpt>
      <trkpt lat="46.52045" lon="12.02196">
        <ele>2032.84</ele>
        <time>2012-08-01T15:52:56Z</time>
      </trkpt>
      <trkpt lat="46.52045" lon="12.02179">
        <ele>2034.29</ele>
        <time>2012-08-01T15:52:57Z</time>
      </trkpt>
      <trkpt lat="46.52043" lon="12.02162">
        <ele>2034.29</ele>
        <time>2012-08-01T15:52:58Z</time>
      </trkpt>
      <trkpt lat="46.52029" lon="12.02099">
        <ele>2038.13</ele>
        <time>2012-08-01T15:53:02Z</time>
      </trkpt>
      <trkpt lat="46.52023" lon="12.02085">
        <ele>2038.61</ele>
        <time>2012-08-01T15:53:03Z</time>
      </trkpt>
      <trkpt lat="46.52016" lon="12.02072">
        <ele>2040.05</ele>
        <time>2012-08-01T15:53:04Z</time>
      </trkpt>
      <trkpt lat="46.52007" lon="12.02061">
        <ele>2041.02</ele>
        <time>2012-08-01T15:53:05Z</time>
      </trkpt>
      <trkpt lat="46.51998" lon="12.02049">
        <ele>2041.98</ele>
        <time>2012-08-01T15:53:06Z</time>
      </trkpt>
      <trkpt lat="46.51969" lon="12.02015">
        <ele>2043.9</ele>
        <time>2012-08-01T15:53:09Z</time>
      </trkpt>
      <trkpt lat="46.51962" lon="12.02004">
        <ele>2044.38</ele>
        <time>2012-08-01T15:53:10Z</time>
      </trkpt>
      <trkpt lat="46.51957" lon="12.01992">
        <ele>2044.86</ele>
        <time>2012-08-01T15:53:11Z</time>
      </trkpt>
      <trkpt lat="46.51955" lon="12.01978">
        <ele>2045.34</ele>
        <time>2012-08-01T15:53:12Z</time>
      </trkpt>
      <trkpt lat="46.51955" lon="12.01965">
        <ele>2046.3</ele>
        <time>2012-08-01T15:53:13Z</time>
      </trkpt>
      <trkpt lat="46.51958" lon="12.01952">
        <ele>2047.26</ele>
        <time>2012-08-01T15:53:14Z</time>
      </trkpt>
      <trkpt lat="46.51964" lon="12.01941">
        <ele>2049.19</ele>
        <time>2012-08-01T15:53:15Z</time>
      </trkpt>
      <trkpt lat="46.51972" lon="12.01932">
        <ele>2050.15</ele>
        <time>2012-08-01T15:53:16Z</time>
      </trkpt>
      <trkpt lat="46.51981" lon="12.01924">
        <ele>2051.11</ele>
        <time>2012-08-01T15:53:17Z</time>
      </trkpt>
      <trkpt lat="46.51991" lon="12.01918">
        <ele>2052.07</ele>
        <time>2012-08-01T15:53:18Z</time>
      </trkpt>
      <trkpt lat="46.52024" lon="12.01895">
        <ele>2054.96</ele>
        <time>2012-08-01T15:53:21Z</time>
      </trkpt>
      <trkpt lat="46.52034" lon="12.01885">
        <ele>2056.4</ele>
        <time>2012-08-01T15:53:22Z</time>
      </trkpt>
      <trkpt lat="46.52043" lon="12.01873">
        <ele>2057.36</ele>
        <time>2012-08-01T15:53:23Z</time>
      </trkpt>
      <trkpt lat="46.52051" lon="12.01859">
        <ele>2058.32</ele>
        <time>2012-08-01T15:53:24Z</time>
      </trkpt>
      <trkpt lat="46.52058" lon="12.01845">
        <ele>2059.28</ele>
        <time>2012-08-01T15:53:25Z</time>
      </trkpt>
      <trkpt lat="46.52078" lon="12.018">
        <ele>2062.65</ele>
        <time>2012-08-01T15:53:28Z</time>
      </trkpt>
      <trkpt lat="46.52081" lon="12.01784">
        <ele>2063.61</ele>
        <time>2012-08-01T15:53:29Z</time>
      </trkpt>
      <trkpt lat="46.52084" lon="12.01766">
        <ele>2064.57</ele>
        <time>2012-08-01T15:53:30Z</time>
      </trkpt>
      <trkpt lat="46.52084" lon="12.01749">
        <ele>2065.53</ele>
        <time>2012-08-01T15:53:31Z</time>
      </trkpt>
      <trkpt lat="46.52082" lon="12.01731">
        <ele>2066.49</ele>
        <time>2012-08-01T15:53:32Z</time>
      </trkpt>
      <trkpt lat="46.52079" lon="12.01714">
        <ele>2067.45</ele>
        <time>2012-08-01T15:53:33Z</time>
      </trkpt>
      <trkpt lat="46.52073" lon="12.01698">
        <ele>2068.89</ele>
        <time>2012-08-01T15:53:34Z</time>
      </trkpt>
      <trkpt lat="46.52065" lon="12.01683">
        <ele>2069.86</ele>
        <time>2012-08-01T15:53:35Z</time>
      </trkpt>
      <trkpt lat="46.52057" lon="12.01668">
        <ele>2070.34</ele>
        <time>2012-08-01T15:53:36Z</time>
      </trkpt>
      <trkpt lat="46.52034" lon="12.01623">
        <ele>2074.18</ele>
        <time>2012-08-01T15:53:39Z</time>
      </trkpt>
      <trkpt lat="46.5201" lon="12.01574">
        <ele>2077.07</ele>
        <time>2012-08-01T15:53:42Z</time>
      </trkpt>
      <trkpt lat="46.51986" lon="12.01521">
        <ele>2081.39</ele>
        <time>2012-08-01T15:53:45Z</time>
      </trkpt>
      <trkpt lat="46.51978" lon="12.01504">
        <ele>2081.39</ele>
        <time>2012-08-01T15:53:46Z</time>
      </trkpt>
      <trkpt lat="46.51957" lon="12.01451">
        <ele>2084.28</ele>
        <time>2012-08-01T15:53:49Z</time>
      </trkpt>
      <trkpt lat="46.51953" lon="12.01432">
        <ele>2084.76</ele>
        <time>2012-08-01T15:53:50Z</time>
      </trkpt>
      <trkpt lat="46.5195" lon="12.01412">
        <ele>2085.72</ele>
        <time>2012-08-01T15:53:51Z</time>
      </trkpt>
      <trkpt lat="46.51948" lon="12.01391">
        <ele>2087.16</ele>
        <time>2012-08-01T15:53:52Z</time>
      </trkpt>
      <trkpt lat="46.51946" lon="12.01371">
        <ele>2087.64</ele>
        <time>2012-08-01T15:53:53Z</time>
      </trkpt>
      <trkpt lat="46.5194" lon="12.01288">
        <ele>2090.52</ele>
        <time>2012-08-01T15:53:57Z</time>
      </trkpt>
      <trkpt lat="46.51935" lon="12.0125">
        <ele>2091.49</ele>
        <time>2012-08-01T15:53:59Z</time>
      </trkpt>
      <trkpt lat="46.5192" lon="12.01126">
        <ele>2094.37</ele>
        <time>2012-08-01T15:54:07Z</time>
      </trkpt>
      <trkpt lat="46.51921" lon="12.01112">
        <ele>2094.37</ele>
        <time>2012-08-01T15:54:08Z</time>
      </trkpt>
      <trkpt lat="46.51924" lon="12.01058">
        <ele>2096.77</ele>
        <time>2012-08-01T15:54:12Z</time>
      </trkpt>
      <trkpt lat="46.51922" lon="12.01045">
        <ele>2097.25</ele>
        <time>2012-08-01T15:54:13Z</time>
      </trkpt>
      <trkpt lat="46.51919" lon="12.01032">
        <ele>2097.25</ele>
        <time>2012-08-01T15:54:14Z</time>
      </trkpt>
      <trkpt lat="46.51915" lon="12.01018">
        <ele>2097.73</ele>
        <time>2012-08-01T15:54:15Z</time>
      </trkpt>
      <trkpt lat="46.5191" lon="12.01005">
        <ele>2098.7</ele>
        <time>2012-08-01T15:54:16Z</time>
      </trkpt>
      <trkpt lat="46.51905" lon="12.00992">
        <ele>2098.7</ele>
        <time>2012-08-01T15:54:17Z</time>
      </trkpt>
      <trkpt lat="46.51887" lon="12.00928">
        <ele>2100.14</ele>
        <time>2012-08-01T15:54:23Z</time>
      </trkpt>
      <trkpt lat="46.51888" lon="12.00917">
        <ele>2101.1</ele>
        <time>2012-08-01T15:54:24Z</time>
      </trkpt>
      <trkpt lat="46.5189" lon="12.00906">
        <ele>2101.1</ele>
        <time>2012-08-01T15:54:25Z</time>
      </trkpt>
      <trkpt lat="46.51894" lon="12.00894">
        <ele>2101.58</ele>
        <time>2012-08-01T15:54:26Z</time>
      </trkpt>
      <trkpt lat="46.51896" lon="12.00881">
        <ele>2101.1</ele>
        <time>2012-08-01T15:54:27Z</time>
      </trkpt>
      <trkpt lat="46.51897" lon="12.00868">
        <ele>2101.1</ele>
        <time>2012-08-01T15:54:28Z</time>
      </trkpt>
      <trkpt lat="46.51897" lon="12.00855">
        <ele>2101.58</ele>
        <time>2012-08-01T15:54:29Z</time>
      </trkpt>
      <trkpt lat="46.51898" lon="12.00841">
        <ele>2100.62</ele>
        <time>2012-08-01T15:54:30Z</time>
      </trkpt>
      <trkpt lat="46.519" lon="12.00829">
        <ele>2100.62</ele>
        <time>2012-08-01T15:54:31Z</time>
      </trkpt>
      <trkpt lat="46.51905" lon="12.00818">
        <ele>2100.62</ele>
        <time>2012-08-01T15:54:32Z</time>
      </trkpt>
      <trkpt lat="46.51912" lon="12.00809">
        <ele>2100.62</ele>
        <time>2012-08-01T15:54:33Z</time>
      </trkpt>
      <trkpt lat="46.5192" lon="12.00803">
        <ele>2101.1</ele>
        <time>2012-08-01T15:54:34Z</time>
      </trkpt>
      <trkpt lat="46.5193" lon="12.00799">
        <ele>2102.06</ele>
        <time>2012-08-01T15:54:35Z</time>
      </trkpt>
      <trkpt lat="46.5194" lon="12.00797">
        <ele>2102.06</ele>
        <time>2012-08-01T15:54:36Z</time>
      </trkpt>
      <trkpt lat="46.51952" lon="12.00794">
        <ele>2103.5</ele>
        <time>2012-08-01T15:54:37Z</time>
      </trkpt>
      <trkpt lat="46.52016" lon="12.00783">
        <ele>2106.39</ele>
        <time>2012-08-01T15:54:42Z</time>
      </trkpt>
      <trkpt lat="46.52044" lon="12.00776">
        <ele>2108.31</ele>
        <time>2012-08-01T15:54:44Z</time>
      </trkpt>
      <trkpt lat="46.52056" lon="12.00768">
        <ele>2108.31</ele>
        <time>2012-08-01T15:54:45Z</time>
      </trkpt>
      <trkpt lat="46.52068" lon="12.00758">
        <ele>2109.75</ele>
        <time>2012-08-01T15:54:46Z</time>
      </trkpt>
      <trkpt lat="46.52079" lon="12.00745">
        <ele>2111.19</ele>
        <time>2012-08-01T15:54:47Z</time>
      </trkpt>
      <trkpt lat="46.5209" lon="12.0073">
        <ele>2112.63</ele>
        <time>2012-08-01T15:54:48Z</time>
      </trkpt>
      <trkpt lat="46.521" lon="12.00714">
        <ele>2113.12</ele>
        <time>2012-08-01T15:54:49Z</time>
      </trkpt>
      <trkpt lat="46.52128" lon="12.00665">
        <ele>2116.96</ele>
        <time>2012-08-01T15:54:52Z</time>
      </trkpt>
      <trkpt lat="46.52158" lon="12.00617">
        <ele>2120.32</ele>
        <time>2012-08-01T15:54:55Z</time>
      </trkpt>
      <trkpt lat="46.52187" lon="12.00566">
        <ele>2124.65</ele>
        <time>2012-08-01T15:54:58Z</time>
      </trkpt>
      <trkpt lat="46.52196" lon="12.00548">
        <ele>2126.57</ele>
        <time>2012-08-01T15:54:59Z</time>
      </trkpt>
      <trkpt lat="46.52202" lon="12.00529">
        <ele>2127.53</ele>
        <time>2012-08-01T15:55:00Z</time>
      </trkpt>
      <trkpt lat="46.52207" lon="12.00509">
        <ele>2129.46</ele>
        <time>2012-08-01T15:55:01Z</time>
      </trkpt>
      <trkpt lat="46.52211" lon="12.00487">
        <ele>2130.42</ele>
        <time>2012-08-01T15:55:02Z</time>
      </trkpt>
      <trkpt lat="46.52212" lon="12.00466">
        <ele>2131.86</ele>
        <time>2012-08-01T15:55:03Z</time>
      </trkpt>
      <trkpt lat="46.52221" lon="12.00406">
        <ele>2135.71</ele>
        <time>2012-08-01T15:55:06Z</time>
      </trkpt>
      <trkpt lat="46.52226" lon="12.00387">
        <ele>2136.67</ele>
        <time>2012-08-01T15:55:07Z</time>
      </trkpt>
      <trkpt lat="46.52232" lon="12.00368">
        <ele>2138.11</ele>
        <time>2012-08-01T15:55:08Z</time>
      </trkpt>
      <trkpt lat="46.5225" lon="12.00315">
        <ele>2141.95</ele>
        <time>2012-08-01T15:55:11Z</time>
      </trkpt>
      <trkpt lat="46.52253" lon="12.00298">
        <ele>2143.4</ele>
        <time>2012-08-01T15:55:12Z</time>
      </trkpt>
      <trkpt lat="46.52255" lon="12.00281">
        <ele>2144.36</ele>
        <time>2012-08-01T15:55:13Z</time>
      </trkpt>
      <trkpt lat="46.52255" lon="12.00264">
        <ele>2145.32</ele>
        <time>2012-08-01T15:55:14Z</time>
      </trkpt>
      <trkpt lat="46.52256" lon="12.00248">
        <ele>2146.28</ele>
        <time>2012-08-01T15:55:15Z</time>
      </trkpt>
      <trkpt lat="46.52258" lon="12.00215">
        <ele>2148.2</ele>
        <time>2012-08-01T15:55:17Z</time>
      </trkpt>
      <trkpt lat="46.5226" lon="12.00199">
        <ele>2148.68</ele>
        <time>2012-08-01T15:55:18Z</time>
      </trkpt>
      <trkpt lat="46.52263" lon="12.00184">
        <ele>2150.13</ele>
        <time>2012-08-01T15:55:19Z</time>
      </trkpt>
      <trkpt lat="46.52267" lon="12.0017">
        <ele>2151.09</ele>
        <time>2012-08-01T15:55:20Z</time>
      </trkpt>
      <trkpt lat="46.52272" lon="12.00156">
        <ele>2152.53</ele>
        <time>2012-08-01T15:55:21Z</time>
      </trkpt>
      <trkpt lat="46.5229" lon="12.00113">
        <ele>2156.86</ele>
        <time>2012-08-01T15:55:24Z</time>
      </trkpt>
      <trkpt lat="46.5231" lon="12.00071">
        <ele>2160.22</ele>
        <time>2012-08-01T15:55:27Z</time>
      </trkpt>
      <trkpt lat="46.52328" lon="12.00029">
        <ele>2164.06</ele>
        <time>2012-08-01T15:55:30Z</time>
      </trkpt>
      <trkpt lat="46.52348" lon="11.99985">
        <ele>2167.91</ele>
        <time>2012-08-01T15:55:33Z</time>
      </trkpt>
      <trkpt lat="46.52368" lon="11.9994">
        <ele>2172.24</ele>
        <time>2012-08-01T15:55:36Z</time>
      </trkpt>
      <trkpt lat="46.5239" lon="11.99897">
        <ele>2175.6</ele>
        <time>2012-08-01T15:55:39Z</time>
      </trkpt>
      <trkpt lat="46.52416" lon="11.99858">
        <ele>2179.93</ele>
        <time>2012-08-01T15:55:42Z</time>
      </trkpt>
      <trkpt lat="46.52446" lon="11.99826">
        <ele>2183.77</ele>
        <time>2012-08-01T15:55:45Z</time>
      </trkpt>
      <trkpt lat="46.52477" lon="11.99796">
        <ele>2188.1</ele>
        <time>2012-08-01T15:55:48Z</time>
      </trkpt>
      <trkpt lat="46.52486" lon="11.99784">
        <ele>2188.58</ele>
        <time>2012-08-01T15:55:49Z</time>
      </trkpt>
      <trkpt lat="46.5251" lon="11.99743">
        <ele>2190.02</ele>
        <time>2012-08-01T15:55:52Z</time>
      </trkpt>
      <trkpt lat="46.52587" lon="11.996">
        <ele>2187.14</ele>
        <time>2012-08-01T15:56:01Z</time>
      </trkpt>
      <trkpt lat="46.52596" lon="11.9958">
        <ele>2187.14</ele>
        <time>2012-08-01T15:56:02Z</time>
      </trkpt>
      <trkpt lat="46.52642" lon="11.99486">
        <ele>2184.25</ele>
        <time>2012-08-01T15:56:07Z</time>
      </trkpt>
      <trkpt lat="46.52714" lon="11.99346">
        <ele>2180.41</ele>
        <time>2012-08-01T15:56:15Z</time>
      </trkpt>
      <trkpt lat="46.52797" lon="11.99178">
        <ele>2179.45</ele>
        <time>2012-08-01T15:56:26Z</time>
      </trkpt>
      <trkpt lat="46.52893" lon="11.98998">
        <ele>2177.52</ele>
        <time>2012-08-01T15:56:40Z</time>
      </trkpt>
      <trkpt lat="46.52902" lon="11.9899">
        <ele>2176.56</ele>
        <time>2012-08-01T15:56:41Z</time>
      </trkpt>
      <trkpt lat="46.52911" lon="11.98984">
        <ele>2176.56</ele>
        <time>2012-08-01T15:56:42Z</time>
      </trkpt>
      <trkpt lat="46.5292" lon="11.9898">
        <ele>2175.6</ele>
        <time>2012-08-01T15:56:43Z</time>
      </trkpt>
      <trkpt lat="46.52929" lon="11.98977">
        <ele>2175.6</ele>
        <time>2012-08-01T15:56:44Z</time>
      </trkpt>
      <trkpt lat="46.52938" lon="11.98974">
        <ele>2175.12</ele>
        <time>2012-08-01T15:56:45Z</time>
      </trkpt>
      <trkpt lat="46.5298" lon="11.98964">
        <ele>2174.16</ele>
        <time>2012-08-01T15:56:49Z</time>
      </trkpt>
      <trkpt lat="46.52991" lon="11.98959">
        <ele>2174.16</ele>
        <time>2012-08-01T15:56:50Z</time>
      </trkpt>
      <trkpt lat="46.53022" lon="11.98945">
        <ele>2172.72</ele>
        <time>2012-08-01T15:56:53Z</time>
      </trkpt>
      <trkpt lat="46.53034" lon="11.98944">
        <ele>2171.76</ele>
        <time>2012-08-01T15:56:54Z</time>
      </trkpt>
      <trkpt lat="46.53044" lon="11.98945">
        <ele>2171.76</ele>
        <time>2012-08-01T15:56:55Z</time>
      </trkpt>
      <trkpt lat="46.53095" lon="11.9895">
        <ele>2169.35</ele>
        <time>2012-08-01T15:57:00Z</time>
      </trkpt>
      <trkpt lat="46.53105" lon="11.98946">
        <ele>2168.87</ele>
        <time>2012-08-01T15:57:01Z</time>
      </trkpt>
      <trkpt lat="46.53113" lon="11.9894">
        <ele>2168.87</ele>
        <time>2012-08-01T15:57:02Z</time>
      </trkpt>
      <trkpt lat="46.53121" lon="11.98932">
        <ele>2168.39</ele>
        <time>2012-08-01T15:57:03Z</time>
      </trkpt>
      <trkpt lat="46.53129" lon="11.98924">
        <ele>2167.43</ele>
        <time>2012-08-01T15:57:04Z</time>
      </trkpt>
      <trkpt lat="46.53164" lon="11.98892">
        <ele>2164.06</ele>
        <time>2012-08-01T15:57:09Z</time>
      </trkpt>
      <trkpt lat="46.53168" lon="11.98886">
        <ele>2164.55</ele>
        <time>2012-08-01T15:57:10Z</time>
      </trkpt>
      <trkpt lat="46.5317" lon="11.98879">
        <ele>2164.06</ele>
        <time>2012-08-01T15:57:11Z</time>
      </trkpt>
      <trkpt lat="46.53171" lon="11.98874">
        <ele>2163.58</ele>
        <time>2012-08-01T15:57:12Z</time>
      </trkpt>
      <trkpt lat="46.53173" lon="11.9887">
        <ele>2163.1</ele>
        <time>2012-08-01T15:57:13Z</time>
      </trkpt>
      <trkpt lat="46.53175" lon="11.98868">
        <ele>2163.58</ele>
        <time>2012-08-01T15:57:14Z</time>
      </trkpt>
      <trkpt lat="46.53177" lon="11.98867">
        <ele>2163.1</ele>
        <time>2012-08-01T15:57:15Z</time>
      </trkpt>
      <trkpt lat="46.53179" lon="11.98867">
        <ele>2163.58</ele>
        <time>2012-08-01T15:57:16Z</time>
      </trkpt>
      <trkpt lat="46.53183" lon="11.98866">
        <ele>2164.06</ele>
        <time>2012-08-01T15:57:26Z</time>
      </trkpt>
      <trkpt lat="46.53184" lon="11.98867">
        <ele>2163.58</ele>
        <time>2012-08-01T15:57:53Z</time>
      </trkpt>
      <trkpt lat="46.53184" lon="11.98866">
        <ele>2163.58</ele>
        <time>2012-08-01T15:58:24Z</time>
      </trkpt>
      <trkpt lat="46.53184" lon="11.98864">
        <ele>2164.06</ele>
        <time>2012-08-01T15:59:01Z</time>
      </trkpt>
      <trkpt lat="46.53184" lon="11.98863">
        <ele>2164.55</ele>
        <time>2012-08-01T15:59:38Z</time>
      </trkpt>
      <trkpt lat="46.53185" lon="11.98863">
        <ele>2164.06</ele>
        <time>2012-08-01T16:00:10Z</time>
      </trkpt>
      <trkpt lat="46.53182" lon="11.98864">
        <ele>2164.55</ele>
        <time>2012-08-01T16:00:23Z</time>
      </trkpt>
      <trkpt lat="46.5318" lon="11.98864">
        <ele>2164.06</ele>
        <time>2012-08-01T16:00:38Z</time>
      </trkpt>
      <trkpt lat="46.5318" lon="11.98866">
        <ele>2164.06</ele>
        <time>2012-08-01T16:00:47Z</time>
      </trkpt>
      <trkpt lat="46.53186" lon="11.98881">
        <ele>2163.58</ele>
        <time>2012-08-01T16:00:53Z</time>
      </trkpt>
      <trkpt lat="46.5319" lon="11.98883">
        <ele>2164.06</ele>
        <time>2012-08-01T16:00:54Z</time>
      </trkpt>
      <trkpt lat="46.53195" lon="11.98885">
        <ele>2163.1</ele>
        <time>2012-08-01T16:00:55Z</time>
      </trkpt>
      <trkpt lat="46.53227" lon="11.98899">
        <ele>2159.74</ele>
        <time>2012-08-01T16:01:00Z</time>
      </trkpt>
      <trkpt lat="46.53235" lon="11.989">
        <ele>2159.26</ele>
        <time>2012-08-01T16:01:01Z</time>
      </trkpt>
      <trkpt lat="46.53244" lon="11.98899">
        <ele>2158.3</ele>
        <time>2012-08-01T16:01:02Z</time>
      </trkpt>
      <trkpt lat="46.53254" lon="11.98896">
        <ele>2157.82</ele>
        <time>2012-08-01T16:01:03Z</time>
      </trkpt>
      <trkpt lat="46.53263" lon="11.98891">
        <ele>2156.37</ele>
        <time>2012-08-01T16:01:04Z</time>
      </trkpt>
      <trkpt lat="46.53273" lon="11.98885">
        <ele>2155.89</ele>
        <time>2012-08-01T16:01:05Z</time>
      </trkpt>
      <trkpt lat="46.53282" lon="11.98877">
        <ele>2154.93</ele>
        <time>2012-08-01T16:01:06Z</time>
      </trkpt>
      <trkpt lat="46.53292" lon="11.98871">
        <ele>2153.01</ele>
        <time>2012-08-01T16:01:07Z</time>
      </trkpt>
      <trkpt lat="46.53302" lon="11.98865">
        <ele>2152.53</ele>
        <time>2012-08-01T16:01:08Z</time>
      </trkpt>
      <trkpt lat="46.53312" lon="11.98861">
        <ele>2151.09</ele>
        <time>2012-08-01T16:01:09Z</time>
      </trkpt>
      <trkpt lat="46.53324" lon="11.9886">
        <ele>2149.65</ele>
        <time>2012-08-01T16:01:10Z</time>
      </trkpt>
      <trkpt lat="46.53336" lon="11.98862">
        <ele>2149.16</ele>
        <time>2012-08-01T16:01:11Z</time>
      </trkpt>
      <trkpt lat="46.53347" lon="11.98868">
        <ele>2147.72</ele>
        <time>2012-08-01T16:01:12Z</time>
      </trkpt>
      <trkpt lat="46.53358" lon="11.98878">
        <ele>2146.28</ele>
        <time>2012-08-01T16:01:13Z</time>
      </trkpt>
      <trkpt lat="46.53368" lon="11.98891">
        <ele>2145.8</ele>
        <time>2012-08-01T16:01:14Z</time>
      </trkpt>
      <trkpt lat="46.53375" lon="11.98907">
        <ele>2144.36</ele>
        <time>2012-08-01T16:01:15Z</time>
      </trkpt>
      <trkpt lat="46.53379" lon="11.98922">
        <ele>2142.44</ele>
        <time>2012-08-01T16:01:16Z</time>
      </trkpt>
      <trkpt lat="46.53383" lon="11.98935">
        <ele>2141.47</ele>
        <time>2012-08-01T16:01:17Z</time>
      </trkpt>
      <trkpt lat="46.53388" lon="11.98947">
        <ele>2140.99</ele>
        <time>2012-08-01T16:01:18Z</time>
      </trkpt>
      <trkpt lat="46.53395" lon="11.98957">
        <ele>2139.55</ele>
        <time>2012-08-01T16:01:19Z</time>
      </trkpt>
      <trkpt lat="46.53403" lon="11.98963">
        <ele>2138.11</ele>
        <time>2012-08-01T16:01:20Z</time>
      </trkpt>
      <trkpt lat="46.53412" lon="11.98965">
        <ele>2137.63</ele>
        <time>2012-08-01T16:01:21Z</time>
      </trkpt>
      <trkpt lat="46.53422" lon="11.98962">
        <ele>2136.19</ele>
        <time>2012-08-01T16:01:22Z</time>
      </trkpt>
      <trkpt lat="46.5343" lon="11.98955">
        <ele>2135.23</ele>
        <time>2012-08-01T16:01:23Z</time>
      </trkpt>
      <trkpt lat="46.53436" lon="11.98945">
        <ele>2134.26</ele>
        <time>2012-08-01T16:01:24Z</time>
      </trkpt>
      <trkpt lat="46.53439" lon="11.98933">
        <ele>2133.3</ele>
        <time>2012-08-01T16:01:25Z</time>
      </trkpt>
      <trkpt lat="46.53438" lon="11.9892">
        <ele>2133.3</ele>
        <time>2012-08-01T16:01:26Z</time>
      </trkpt>
      <trkpt lat="46.53433" lon="11.98907">
        <ele>2132.82</ele>
        <time>2012-08-01T16:01:27Z</time>
      </trkpt>
      <trkpt lat="46.53426" lon="11.98896">
        <ele>2132.34</ele>
        <time>2012-08-01T16:01:28Z</time>
      </trkpt>
      <trkpt lat="46.53419" lon="11.98886">
        <ele>2131.38</ele>
        <time>2012-08-01T16:01:29Z</time>
      </trkpt>
      <trkpt lat="46.5341" lon="11.98875">
        <ele>2130.42</ele>
        <time>2012-08-01T16:01:30Z</time>
      </trkpt>
      <trkpt lat="46.53402" lon="11.98864">
        <ele>2128.98</ele>
        <time>2012-08-01T16:01:31Z</time>
      </trkpt>
      <trkpt lat="46.53395" lon="11.98851">
        <ele>2128.5</ele>
        <time>2012-08-01T16:01:32Z</time>
      </trkpt>
      <trkpt lat="46.53388" lon="11.98836">
        <ele>2127.53</ele>
        <time>2012-08-01T16:01:33Z</time>
      </trkpt>
      <trkpt lat="46.53382" lon="11.98819">
        <ele>2125.61</ele>
        <time>2012-08-01T16:01:34Z</time>
      </trkpt>
      <trkpt lat="46.53377" lon="11.98801">
        <ele>2124.17</ele>
        <time>2012-08-01T16:01:35Z</time>
      </trkpt>
      <trkpt lat="46.53374" lon="11.98781">
        <ele>2123.21</ele>
        <time>2012-08-01T16:01:36Z</time>
      </trkpt>
      <trkpt lat="46.53372" lon="11.98761">
        <ele>2121.29</ele>
        <time>2012-08-01T16:01:37Z</time>
      </trkpt>
      <trkpt lat="46.53366" lon="11.98722">
        <ele>2118.88</ele>
        <time>2012-08-01T16:01:39Z</time>
      </trkpt>
      <trkpt lat="46.53361" lon="11.98706">
        <ele>2116.48</ele>
        <time>2012-08-01T16:01:40Z</time>
      </trkpt>
      <trkpt lat="46.53355" lon="11.98693">
        <ele>2115.52</ele>
        <time>2012-08-01T16:01:41Z</time>
      </trkpt>
      <trkpt lat="46.53347" lon="11.98682">
        <ele>2113.6</ele>
        <time>2012-08-01T16:01:42Z</time>
      </trkpt>
      <trkpt lat="46.53341" lon="11.98672">
        <ele>2112.63</ele>
        <time>2012-08-01T16:01:43Z</time>
      </trkpt>
      <trkpt lat="46.53335" lon="11.98662">
        <ele>2110.71</ele>
        <time>2012-08-01T16:01:44Z</time>
      </trkpt>
      <trkpt lat="46.53331" lon="11.9865">
        <ele>2109.75</ele>
        <time>2012-08-01T16:01:45Z</time>
      </trkpt>
      <trkpt lat="46.53326" lon="11.98628">
        <ele>2107.35</ele>
        <time>2012-08-01T16:01:47Z</time>
      </trkpt>
      <trkpt lat="46.53328" lon="11.98623">
        <ele>2107.35</ele>
        <time>2012-08-01T16:01:48Z</time>
      </trkpt>
      <trkpt lat="46.53335" lon="11.98624">
        <ele>2106.39</ele>
        <time>2012-08-01T16:01:49Z</time>
      </trkpt>
      <trkpt lat="46.53344" lon="11.98628">
        <ele>2105.91</ele>
        <time>2012-08-01T16:01:50Z</time>
      </trkpt>
      <trkpt lat="46.53354" lon="11.98634">
        <ele>2105.42</ele>
        <time>2012-08-01T16:01:51Z</time>
      </trkpt>
      <trkpt lat="46.53363" lon="11.98641">
        <ele>2104.94</ele>
        <time>2012-08-01T16:01:52Z</time>
      </trkpt>
      <trkpt lat="46.53383" lon="11.98658">
        <ele>2103.5</ele>
        <time>2012-08-01T16:01:54Z</time>
      </trkpt>
      <trkpt lat="46.53391" lon="11.98669">
        <ele>2102.06</ele>
        <time>2012-08-01T16:01:55Z</time>
      </trkpt>
      <trkpt lat="46.53398" lon="11.98684">
        <ele>2101.58</ele>
        <time>2012-08-01T16:01:56Z</time>
      </trkpt>
      <trkpt lat="46.53403" lon="11.98701">
        <ele>2100.62</ele>
        <time>2012-08-01T16:01:57Z</time>
      </trkpt>
      <trkpt lat="46.53408" lon="11.98718">
        <ele>2099.18</ele>
        <time>2012-08-01T16:01:58Z</time>
      </trkpt>
      <trkpt lat="46.53412" lon="11.98732">
        <ele>2098.21</ele>
        <time>2012-08-01T16:01:59Z</time>
      </trkpt>
      <trkpt lat="46.53415" lon="11.98745">
        <ele>2096.77</ele>
        <time>2012-08-01T16:02:00Z</time>
      </trkpt>
      <trkpt lat="46.53421" lon="11.98756">
        <ele>2095.81</ele>
        <time>2012-08-01T16:02:01Z</time>
      </trkpt>
      <trkpt lat="46.53427" lon="11.98764">
        <ele>2094.85</ele>
        <time>2012-08-01T16:02:02Z</time>
      </trkpt>
      <trkpt lat="46.53435" lon="11.98767">
        <ele>2094.37</ele>
        <time>2012-08-01T16:02:03Z</time>
      </trkpt>
      <trkpt lat="46.53447" lon="11.98765">
        <ele>2093.89</ele>
        <time>2012-08-01T16:02:04Z</time>
      </trkpt>
      <trkpt lat="46.53455" lon="11.98757">
        <ele>2092.93</ele>
        <time>2012-08-01T16:02:05Z</time>
      </trkpt>
      <trkpt lat="46.53459" lon="11.98746">
        <ele>2092.93</ele>
        <time>2012-08-01T16:02:06Z</time>
      </trkpt>
      <trkpt lat="46.5346" lon="11.98733">
        <ele>2092.45</ele>
        <time>2012-08-01T16:02:07Z</time>
      </trkpt>
      <trkpt lat="46.53459" lon="11.9872">
        <ele>2091.49</ele>
        <time>2012-08-01T16:02:08Z</time>
      </trkpt>
      <trkpt lat="46.53458" lon="11.98706">
        <ele>2090.04</ele>
        <time>2012-08-01T16:02:09Z</time>
      </trkpt>
      <trkpt lat="46.53457" lon="11.98691">
        <ele>2089.08</ele>
        <time>2012-08-01T16:02:10Z</time>
      </trkpt>
      <trkpt lat="46.53456" lon="11.98675">
        <ele>2088.6</ele>
        <time>2012-08-01T16:02:11Z</time>
      </trkpt>
      <trkpt lat="46.53457" lon="11.98659">
        <ele>2087.64</ele>
        <time>2012-08-01T16:02:12Z</time>
      </trkpt>
      <trkpt lat="46.53462" lon="11.98607">
        <ele>2084.28</ele>
        <time>2012-08-01T16:02:15Z</time>
      </trkpt>
      <trkpt lat="46.53466" lon="11.98527">
        <ele>2080.43</ele>
        <time>2012-08-01T16:02:19Z</time>
      </trkpt>
      <trkpt lat="46.53464" lon="11.98507">
        <ele>2078.51</ele>
        <time>2012-08-01T16:02:20Z</time>
      </trkpt>
      <trkpt lat="46.53459" lon="11.98487">
        <ele>2077.07</ele>
        <time>2012-08-01T16:02:21Z</time>
      </trkpt>
      <trkpt lat="46.53451" lon="11.98468">
        <ele>2075.62</ele>
        <time>2012-08-01T16:02:22Z</time>
      </trkpt>
      <trkpt lat="46.53441" lon="11.98452">
        <ele>2073.7</ele>
        <time>2012-08-01T16:02:23Z</time>
      </trkpt>
      <trkpt lat="46.53431" lon="11.98439">
        <ele>2071.78</ele>
        <time>2012-08-01T16:02:24Z</time>
      </trkpt>
      <trkpt lat="46.53422" lon="11.98427">
        <ele>2070.34</ele>
        <time>2012-08-01T16:02:25Z</time>
      </trkpt>
      <trkpt lat="46.53414" lon="11.98416">
        <ele>2068.41</ele>
        <time>2012-08-01T16:02:26Z</time>
      </trkpt>
      <trkpt lat="46.53409" lon="11.98405">
        <ele>2067.93</ele>
        <time>2012-08-01T16:02:27Z</time>
      </trkpt>
      <trkpt lat="46.53405" lon="11.98392">
        <ele>2066.97</ele>
        <time>2012-08-01T16:02:28Z</time>
      </trkpt>
      <trkpt lat="46.53405" lon="11.98379">
        <ele>2065.53</ele>
        <time>2012-08-01T16:02:29Z</time>
      </trkpt>
      <trkpt lat="46.53408" lon="11.98366">
        <ele>2064.57</ele>
        <time>2012-08-01T16:02:30Z</time>
      </trkpt>
      <trkpt lat="46.53415" lon="11.98358">
        <ele>2063.61</ele>
        <time>2012-08-01T16:02:31Z</time>
      </trkpt>
      <trkpt lat="46.53424" lon="11.98355">
        <ele>2063.13</ele>
        <time>2012-08-01T16:02:32Z</time>
      </trkpt>
      <trkpt lat="46.53434" lon="11.98359">
        <ele>2063.13</ele>
        <time>2012-08-01T16:02:33Z</time>
      </trkpt>
      <trkpt lat="46.53444" lon="11.98365">
        <ele>2062.17</ele>
        <time>2012-08-01T16:02:34Z</time>
      </trkpt>
      <trkpt lat="46.53454" lon="11.98372">
        <ele>2061.2</ele>
        <time>2012-08-01T16:02:35Z</time>
      </trkpt>
      <trkpt lat="46.53496" lon="11.98402">
        <ele>2057.84</ele>
        <time>2012-08-01T16:02:39Z</time>
      </trkpt>
      <trkpt lat="46.53506" lon="11.98413">
        <ele>2056.88</ele>
        <time>2012-08-01T16:02:40Z</time>
      </trkpt>
      <trkpt lat="46.53515" lon="11.98425">
        <ele>2055.92</ele>
        <time>2012-08-01T16:02:41Z</time>
      </trkpt>
      <trkpt lat="46.53524" lon="11.9844">
        <ele>2055.44</ele>
        <time>2012-08-01T16:02:42Z</time>
      </trkpt>
      <trkpt lat="46.53531" lon="11.98456">
        <ele>2053.51</ele>
        <time>2012-08-01T16:02:43Z</time>
      </trkpt>
      <trkpt lat="46.53537" lon="11.98474">
        <ele>2051.11</ele>
        <time>2012-08-01T16:02:44Z</time>
      </trkpt>
      <trkpt lat="46.53542" lon="11.98493">
        <ele>2050.15</ele>
        <time>2012-08-01T16:02:45Z</time>
      </trkpt>
      <trkpt lat="46.53549" lon="11.9851">
        <ele>2048.23</ele>
        <time>2012-08-01T16:02:46Z</time>
      </trkpt>
      <trkpt lat="46.53556" lon="11.98524">
        <ele>2046.78</ele>
        <time>2012-08-01T16:02:47Z</time>
      </trkpt>
      <trkpt lat="46.53565" lon="11.98536">
        <ele>2045.82</ele>
        <time>2012-08-01T16:02:48Z</time>
      </trkpt>
      <trkpt lat="46.53576" lon="11.98545">
        <ele>2044.86</ele>
        <time>2012-08-01T16:02:49Z</time>
      </trkpt>
      <trkpt lat="46.53589" lon="11.98549">
        <ele>2043.9</ele>
        <time>2012-08-01T16:02:50Z</time>
      </trkpt>
      <trkpt lat="46.53602" lon="11.9855">
        <ele>2042.46</ele>
        <time>2012-08-01T16:02:51Z</time>
      </trkpt>
      <trkpt lat="46.53616" lon="11.98547">
        <ele>2041.98</ele>
        <time>2012-08-01T16:02:52Z</time>
      </trkpt>
      <trkpt lat="46.53629" lon="11.98539">
        <ele>2040.05</ele>
        <time>2012-08-01T16:02:53Z</time>
      </trkpt>
      <trkpt lat="46.53642" lon="11.9853">
        <ele>2039.09</ele>
        <time>2012-08-01T16:02:54Z</time>
      </trkpt>
      <trkpt lat="46.53668" lon="11.9851">
        <ele>2035.73</ele>
        <time>2012-08-01T16:02:56Z</time>
      </trkpt>
      <trkpt lat="46.53712" lon="11.98485">
        <ele>2031.4</ele>
        <time>2012-08-01T16:02:59Z</time>
      </trkpt>
      <trkpt lat="46.53728" lon="11.98481">
        <ele>2029.96</ele>
        <time>2012-08-01T16:03:00Z</time>
      </trkpt>
      <trkpt lat="46.53778" lon="11.98475">
        <ele>2025.64</ele>
        <time>2012-08-01T16:03:03Z</time>
      </trkpt>
      <trkpt lat="46.53812" lon="11.98471">
        <ele>2022.27</ele>
        <time>2012-08-01T16:03:05Z</time>
      </trkpt>
      <trkpt lat="46.53866" lon="11.98464">
        <ele>2016.5</ele>
        <time>2012-08-01T16:03:08Z</time>
      </trkpt>
      <trkpt lat="46.53901" lon="11.98454">
        <ele>2013.62</ele>
        <time>2012-08-01T16:03:10Z</time>
      </trkpt>
      <trkpt lat="46.53917" lon="11.98445">
        <ele>2011.7</ele>
        <time>2012-08-01T16:03:11Z</time>
      </trkpt>
      <trkpt lat="46.53933" lon="11.98433">
        <ele>2010.73</ele>
        <time>2012-08-01T16:03:12Z</time>
      </trkpt>
      <trkpt lat="46.53947" lon="11.98419">
        <ele>2008.81</ele>
        <time>2012-08-01T16:03:13Z</time>
      </trkpt>
      <trkpt lat="46.5396" lon="11.98403">
        <ele>2006.41</ele>
        <time>2012-08-01T16:03:14Z</time>
      </trkpt>
      <trkpt lat="46.53971" lon="11.98387">
        <ele>2004.97</ele>
        <time>2012-08-01T16:03:15Z</time>
      </trkpt>
      <trkpt lat="46.54007" lon="11.98341">
        <ele>2000.16</ele>
        <time>2012-08-01T16:03:18Z</time>
      </trkpt>
      <trkpt lat="46.54029" lon="11.98311">
        <ele>1997.28</ele>
        <time>2012-08-01T16:03:20Z</time>
      </trkpt>
      <trkpt lat="46.54061" lon="11.98265">
        <ele>1992.95</ele>
        <time>2012-08-01T16:03:23Z</time>
      </trkpt>
      <trkpt lat="46.54083" lon="11.98234">
        <ele>1989.59</ele>
        <time>2012-08-01T16:03:25Z</time>
      </trkpt>
      <trkpt lat="46.54101" lon="11.98205">
        <ele>1986.22</ele>
        <time>2012-08-01T16:03:27Z</time>
      </trkpt>
      <trkpt lat="46.54108" lon="11.9819">
        <ele>1984.78</ele>
        <time>2012-08-01T16:03:28Z</time>
      </trkpt>
      <trkpt lat="46.54119" lon="11.98153">
        <ele>1982.86</ele>
        <time>2012-08-01T16:03:30Z</time>
      </trkpt>
      <trkpt lat="46.54124" lon="11.9813">
        <ele>1982.86</ele>
        <time>2012-08-01T16:03:31Z</time>
      </trkpt>
      <trkpt lat="46.54139" lon="11.98049">
        <ele>1978.05</ele>
        <time>2012-08-01T16:03:34Z</time>
      </trkpt>
      <trkpt lat="46.54148" lon="11.97995">
        <ele>1974.2</ele>
        <time>2012-08-01T16:03:36Z</time>
      </trkpt>
      <trkpt lat="46.54153" lon="11.9797">
        <ele>1971.8</ele>
        <time>2012-08-01T16:03:37Z</time>
      </trkpt>
      <trkpt lat="46.54159" lon="11.97946">
        <ele>1969.88</ele>
        <time>2012-08-01T16:03:38Z</time>
      </trkpt>
      <trkpt lat="46.54167" lon="11.97922">
        <ele>1967.96</ele>
        <time>2012-08-01T16:03:39Z</time>
      </trkpt>
      <trkpt lat="46.54177" lon="11.97898">
        <ele>1966.03</ele>
        <time>2012-08-01T16:03:40Z</time>
      </trkpt>
      <trkpt lat="46.54188" lon="11.97874">
        <ele>1964.59</ele>
        <time>2012-08-01T16:03:41Z</time>
      </trkpt>
      <trkpt lat="46.54211" lon="11.97826">
        <ele>1960.75</ele>
        <time>2012-08-01T16:03:43Z</time>
      </trkpt>
      <trkpt lat="46.54234" lon="11.9778">
        <ele>1956.42</ele>
        <time>2012-08-01T16:03:45Z</time>
      </trkpt>
      <trkpt lat="46.54255" lon="11.97736">
        <ele>1952.57</ele>
        <time>2012-08-01T16:03:47Z</time>
      </trkpt>
      <trkpt lat="46.54271" lon="11.97695">
        <ele>1949.21</ele>
        <time>2012-08-01T16:03:49Z</time>
      </trkpt>
      <trkpt lat="46.54277" lon="11.97673">
        <ele>1947.77</ele>
        <time>2012-08-01T16:03:50Z</time>
      </trkpt>
      <trkpt lat="46.5428" lon="11.9765">
        <ele>1945.85</ele>
        <time>2012-08-01T16:03:51Z</time>
      </trkpt>
      <trkpt lat="46.54281" lon="11.97626">
        <ele>1944.88</ele>
        <time>2012-08-01T16:03:52Z</time>
      </trkpt>
      <trkpt lat="46.5428" lon="11.97602">
        <ele>1943.92</ele>
        <time>2012-08-01T16:03:53Z</time>
      </trkpt>
      <trkpt lat="46.54279" lon="11.97579">
        <ele>1941.04</ele>
        <time>2012-08-01T16:03:54Z</time>
      </trkpt>
      <trkpt lat="46.54279" lon="11.97531">
        <ele>1937.67</ele>
        <time>2012-08-01T16:03:56Z</time>
      </trkpt>
      <trkpt lat="46.54283" lon="11.97508">
        <ele>1935.75</ele>
        <time>2012-08-01T16:03:57Z</time>
      </trkpt>
      <trkpt lat="46.54289" lon="11.97486">
        <ele>1934.79</ele>
        <time>2012-08-01T16:03:58Z</time>
      </trkpt>
      <trkpt lat="46.54298" lon="11.97465">
        <ele>1933.35</ele>
        <time>2012-08-01T16:03:59Z</time>
      </trkpt>
      <trkpt lat="46.54307" lon="11.97444">
        <ele>1931.43</ele>
        <time>2012-08-01T16:04:00Z</time>
      </trkpt>
      <trkpt lat="46.54316" lon="11.97424">
        <ele>1929.98</ele>
        <time>2012-08-01T16:04:01Z</time>
      </trkpt>
      <trkpt lat="46.54323" lon="11.97402">
        <ele>1928.54</ele>
        <time>2012-08-01T16:04:02Z</time>
      </trkpt>
      <trkpt lat="46.54328" lon="11.97382">
        <ele>1926.62</ele>
        <time>2012-08-01T16:04:03Z</time>
      </trkpt>
      <trkpt lat="46.54336" lon="11.97348">
        <ele>1923.25</ele>
        <time>2012-08-01T16:04:05Z</time>
      </trkpt>
      <trkpt lat="46.54342" lon="11.97334">
        <ele>1922.29</ele>
        <time>2012-08-01T16:04:06Z</time>
      </trkpt>
      <trkpt lat="46.5435" lon="11.97325">
        <ele>1920.85</ele>
        <time>2012-08-01T16:04:07Z</time>
      </trkpt>
      <trkpt lat="46.54359" lon="11.9732">
        <ele>1918.93</ele>
        <time>2012-08-01T16:04:08Z</time>
      </trkpt>
      <trkpt lat="46.54371" lon="11.9732">
        <ele>1918.45</ele>
        <time>2012-08-01T16:04:09Z</time>
      </trkpt>
      <trkpt lat="46.54385" lon="11.97325">
        <ele>1918.45</ele>
        <time>2012-08-01T16:04:10Z</time>
      </trkpt>
      <trkpt lat="46.54401" lon="11.97331">
        <ele>1917.49</ele>
        <time>2012-08-01T16:04:11Z</time>
      </trkpt>
      <trkpt lat="46.54451" lon="11.97352">
        <ele>1914.12</ele>
        <time>2012-08-01T16:04:14Z</time>
      </trkpt>
      <trkpt lat="46.54485" lon="11.97363">
        <ele>1910.76</ele>
        <time>2012-08-01T16:04:16Z</time>
      </trkpt>
      <trkpt lat="46.54502" lon="11.97364">
        <ele>1909.8</ele>
        <time>2012-08-01T16:04:17Z</time>
      </trkpt>
      <trkpt lat="46.54519" lon="11.97363">
        <ele>1908.83</ele>
        <time>2012-08-01T16:04:18Z</time>
      </trkpt>
      <trkpt lat="46.54535" lon="11.97359">
        <ele>1907.39</ele>
        <time>2012-08-01T16:04:19Z</time>
      </trkpt>
      <trkpt lat="46.5455" lon="11.97356">
        <ele>1906.43</ele>
        <time>2012-08-01T16:04:20Z</time>
      </trkpt>
      <trkpt lat="46.54588" lon="11.97349">
        <ele>1902.59</ele>
        <time>2012-08-01T16:04:23Z</time>
      </trkpt>
      <trkpt lat="46.54601" lon="11.9735">
        <ele>1902.11</ele>
        <time>2012-08-01T16:04:24Z</time>
      </trkpt>
      <trkpt lat="46.54615" lon="11.97353">
        <ele>1901.63</ele>
        <time>2012-08-01T16:04:25Z</time>
      </trkpt>
      <trkpt lat="46.54629" lon="11.97359">
        <ele>1901.14</ele>
        <time>2012-08-01T16:04:26Z</time>
      </trkpt>
      <trkpt lat="46.54643" lon="11.97368">
        <ele>1899.7</ele>
        <time>2012-08-01T16:04:27Z</time>
      </trkpt>
      <trkpt lat="46.54657" lon="11.97377">
        <ele>1897.3</ele>
        <time>2012-08-01T16:04:28Z</time>
      </trkpt>
      <trkpt lat="46.54671" lon="11.97383">
        <ele>1896.34</ele>
        <time>2012-08-01T16:04:29Z</time>
      </trkpt>
      <trkpt lat="46.54684" lon="11.97387">
        <ele>1895.86</ele>
        <time>2012-08-01T16:04:30Z</time>
      </trkpt>
      <trkpt lat="46.54697" lon="11.9739">
        <ele>1893.93</ele>
        <time>2012-08-01T16:04:31Z</time>
      </trkpt>
      <trkpt lat="46.54709" lon="11.97395">
        <ele>1892.97</ele>
        <time>2012-08-01T16:04:32Z</time>
      </trkpt>
      <trkpt lat="46.54719" lon="11.97406">
        <ele>1892.01</ele>
        <time>2012-08-01T16:04:33Z</time>
      </trkpt>
      <trkpt lat="46.54727" lon="11.9742">
        <ele>1891.05</ele>
        <time>2012-08-01T16:04:34Z</time>
      </trkpt>
      <trkpt lat="46.54733" lon="11.97439">
        <ele>1890.09</ele>
        <time>2012-08-01T16:04:35Z</time>
      </trkpt>
      <trkpt lat="46.54738" lon="11.97462">
        <ele>1889.61</ele>
        <time>2012-08-01T16:04:36Z</time>
      </trkpt>
      <trkpt lat="46.54744" lon="11.97487">
        <ele>1889.13</ele>
        <time>2012-08-01T16:04:37Z</time>
      </trkpt>
      <trkpt lat="46.54751" lon="11.97511">
        <ele>1887.21</ele>
        <time>2012-08-01T16:04:38Z</time>
      </trkpt>
      <trkpt lat="46.54763" lon="11.9755">
        <ele>1882.88</ele>
        <time>2012-08-01T16:04:40Z</time>
      </trkpt>
      <trkpt lat="46.54764" lon="11.97571">
        <ele>1880.96</ele>
        <time>2012-08-01T16:04:41Z</time>
      </trkpt>
      <trkpt lat="46.54767" lon="11.97609">
        <ele>1878.07</ele>
        <time>2012-08-01T16:04:43Z</time>
      </trkpt>
      <trkpt lat="46.54774" lon="11.97627">
        <ele>1877.59</ele>
        <time>2012-08-01T16:04:44Z</time>
      </trkpt>
      <trkpt lat="46.54785" lon="11.97644">
        <ele>1877.11</ele>
        <time>2012-08-01T16:04:45Z</time>
      </trkpt>
      <trkpt lat="46.54821" lon="11.97686">
        <ele>1872.79</ele>
        <time>2012-08-01T16:04:48Z</time>
      </trkpt>
      <trkpt lat="46.54835" lon="11.97695">
        <ele>1871.82</ele>
        <time>2012-08-01T16:04:49Z</time>
      </trkpt>
      <trkpt lat="46.5485" lon="11.97702">
        <ele>1871.34</ele>
        <time>2012-08-01T16:04:50Z</time>
      </trkpt>
      <trkpt lat="46.5488" lon="11.97709">
        <ele>1866.54</ele>
        <time>2012-08-01T16:04:52Z</time>
      </trkpt>
      <trkpt lat="46.54905" lon="11.97721">
        <ele>1865.09</ele>
        <time>2012-08-01T16:04:54Z</time>
      </trkpt>
      <trkpt lat="46.54915" lon="11.97733">
        <ele>1864.13</ele>
        <time>2012-08-01T16:04:55Z</time>
      </trkpt>
      <trkpt lat="46.54924" lon="11.97747">
        <ele>1862.21</ele>
        <time>2012-08-01T16:04:56Z</time>
      </trkpt>
      <trkpt lat="46.54934" lon="11.97761">
        <ele>1861.73</ele>
        <time>2012-08-01T16:04:57Z</time>
      </trkpt>
      <trkpt lat="46.54945" lon="11.97773">
        <ele>1860.77</ele>
        <time>2012-08-01T16:04:58Z</time>
      </trkpt>
      <trkpt lat="46.54956" lon="11.97784">
        <ele>1859.81</ele>
        <time>2012-08-01T16:04:59Z</time>
      </trkpt>
      <trkpt lat="46.54967" lon="11.97791">
        <ele>1857.4</ele>
        <time>2012-08-01T16:05:00Z</time>
      </trkpt>
      <trkpt lat="46.54978" lon="11.97795">
        <ele>1855.96</ele>
        <time>2012-08-01T16:05:01Z</time>
      </trkpt>
      <trkpt lat="46.54991" lon="11.97795">
        <ele>1855.48</ele>
        <time>2012-08-01T16:05:02Z</time>
      </trkpt>
      <trkpt lat="46.55005" lon="11.97789">
        <ele>1855</ele>
        <time>2012-08-01T16:05:03Z</time>
      </trkpt>
      <trkpt lat="46.55018" lon="11.97778">
        <ele>1854.52</ele>
        <time>2012-08-01T16:05:04Z</time>
      </trkpt>
      <trkpt lat="46.55032" lon="11.97766">
        <ele>1852.6</ele>
        <time>2012-08-01T16:05:05Z</time>
      </trkpt>
      <trkpt lat="46.55058" lon="11.97745">
        <ele>1849.71</ele>
        <time>2012-08-01T16:05:07Z</time>
      </trkpt>
      <trkpt lat="46.55086" lon="11.97731">
        <ele>1846.83</ele>
        <time>2012-08-01T16:05:09Z</time>
      </trkpt>
      <trkpt lat="46.55101" lon="11.97729">
        <ele>1845.39</ele>
        <time>2012-08-01T16:05:10Z</time>
      </trkpt>
      <trkpt lat="46.55116" lon="11.97731">
        <ele>1843.95</ele>
        <time>2012-08-01T16:05:11Z</time>
      </trkpt>
      <trkpt lat="46.55129" lon="11.97735">
        <ele>1841.54</ele>
        <time>2012-08-01T16:05:12Z</time>
      </trkpt>
      <trkpt lat="46.55142" lon="11.97743">
        <ele>1840.58</ele>
        <time>2012-08-01T16:05:13Z</time>
      </trkpt>
      <trkpt lat="46.55156" lon="11.97754">
        <ele>1840.1</ele>
        <time>2012-08-01T16:05:14Z</time>
      </trkpt>
      <trkpt lat="46.5517" lon="11.97767">
        <ele>1839.62</ele>
        <time>2012-08-01T16:05:15Z</time>
      </trkpt>
      <trkpt lat="46.55192" lon="11.97794">
        <ele>1835.29</ele>
        <time>2012-08-01T16:05:17Z</time>
      </trkpt>
      <trkpt lat="46.55199" lon="11.9781">
        <ele>1834.33</ele>
        <time>2012-08-01T16:05:18Z</time>
      </trkpt>
      <trkpt lat="46.55205" lon="11.97826">
        <ele>1832.89</ele>
        <time>2012-08-01T16:05:19Z</time>
      </trkpt>
      <trkpt lat="46.55211" lon="11.97842">
        <ele>1830.97</ele>
        <time>2012-08-01T16:05:20Z</time>
      </trkpt>
      <trkpt lat="46.55222" lon="11.97854">
        <ele>1830.97</ele>
        <time>2012-08-01T16:05:21Z</time>
      </trkpt>
      <trkpt lat="46.55235" lon="11.97863">
        <ele>1830.01</ele>
        <time>2012-08-01T16:05:22Z</time>
      </trkpt>
      <trkpt lat="46.55249" lon="11.97867">
        <ele>1828.56</ele>
        <time>2012-08-01T16:05:23Z</time>
      </trkpt>
      <trkpt lat="46.55262" lon="11.9787">
        <ele>1827.12</ele>
        <time>2012-08-01T16:05:24Z</time>
      </trkpt>
      <trkpt lat="46.55271" lon="11.9787">
        <ele>1825.2</ele>
        <time>2012-08-01T16:05:25Z</time>
      </trkpt>
      <trkpt lat="46.55279" lon="11.97866">
        <ele>1824.72</ele>
        <time>2012-08-01T16:05:26Z</time>
      </trkpt>
      <trkpt lat="46.55286" lon="11.97859">
        <ele>1824.72</ele>
        <time>2012-08-01T16:05:27Z</time>
      </trkpt>
      <trkpt lat="46.55289" lon="11.97848">
        <ele>1824.24</ele>
        <time>2012-08-01T16:05:28Z</time>
      </trkpt>
      <trkpt lat="46.5529" lon="11.97837">
        <ele>1823.28</ele>
        <time>2012-08-01T16:05:29Z</time>
      </trkpt>
      <trkpt lat="46.55288" lon="11.97827">
        <ele>1824.24</ele>
        <time>2012-08-01T16:05:30Z</time>
      </trkpt>
      <trkpt lat="46.55283" lon="11.9782">
        <ele>1824.24</ele>
        <time>2012-08-01T16:05:31Z</time>
      </trkpt>
      <trkpt lat="46.55274" lon="11.97811">
        <ele>1823.28</ele>
        <time>2012-08-01T16:05:32Z</time>
      </trkpt>
      <trkpt lat="46.55261" lon="11.97799">
        <ele>1822.32</ele>
        <time>2012-08-01T16:05:33Z</time>
      </trkpt>
      <trkpt lat="46.55248" lon="11.97782">
        <ele>1820.87</ele>
        <time>2012-08-01T16:05:34Z</time>
      </trkpt>
      <trkpt lat="46.55238" lon="11.97763">
        <ele>1819.91</ele>
        <time>2012-08-01T16:05:35Z</time>
      </trkpt>
      <trkpt lat="46.55228" lon="11.97745">
        <ele>1818.95</ele>
        <time>2012-08-01T16:05:36Z</time>
      </trkpt>
      <trkpt lat="46.55217" lon="11.9773">
        <ele>1817.51</ele>
        <time>2012-08-01T16:05:37Z</time>
      </trkpt>
      <trkpt lat="46.55207" lon="11.97718">
        <ele>1816.07</ele>
        <time>2012-08-01T16:05:38Z</time>
      </trkpt>
      <trkpt lat="46.55193" lon="11.97697">
        <ele>1813.18</ele>
        <time>2012-08-01T16:05:40Z</time>
      </trkpt>
      <trkpt lat="46.5519" lon="11.97685">
        <ele>1812.7</ele>
        <time>2012-08-01T16:05:41Z</time>
      </trkpt>
      <trkpt lat="46.55189" lon="11.97673">
        <ele>1812.22</ele>
        <time>2012-08-01T16:05:42Z</time>
      </trkpt>
      <trkpt lat="46.55192" lon="11.97665">
        <ele>1811.26</ele>
        <time>2012-08-01T16:05:43Z</time>
      </trkpt>
      <trkpt lat="46.55197" lon="11.97659">
        <ele>1811.26</ele>
        <time>2012-08-01T16:05:44Z</time>
      </trkpt>
      <trkpt lat="46.55201" lon="11.97655">
        <ele>1811.74</ele>
        <time>2012-08-01T16:05:45Z</time>
      </trkpt>
      <trkpt lat="46.55206" lon="11.97653">
        <ele>1811.26</ele>
        <time>2012-08-01T16:05:46Z</time>
      </trkpt>
      <trkpt lat="46.55211" lon="11.97653">
        <ele>1811.26</ele>
        <time>2012-08-01T16:05:47Z</time>
      </trkpt>
      <trkpt lat="46.55217" lon="11.97656">
        <ele>1809.34</ele>
        <time>2012-08-01T16:05:48Z</time>
      </trkpt>
      <trkpt lat="46.55224" lon="11.97661">
        <ele>1807.9</ele>
        <time>2012-08-01T16:05:49Z</time>
      </trkpt>
      <trkpt lat="46.55234" lon="11.97672">
        <ele>1806.45</ele>
        <time>2012-08-01T16:05:50Z</time>
      </trkpt>
      <trkpt lat="46.55247" lon="11.97684">
        <ele>1805.01</ele>
        <time>2012-08-01T16:05:51Z</time>
      </trkpt>
      <trkpt lat="46.55262" lon="11.97688">
        <ele>1804.53</ele>
        <time>2012-08-01T16:05:52Z</time>
      </trkpt>
      <trkpt lat="46.55278" lon="11.97687">
        <ele>1803.57</ele>
        <time>2012-08-01T16:05:53Z</time>
      </trkpt>
      <trkpt lat="46.55294" lon="11.97689">
        <ele>1802.13</ele>
        <time>2012-08-01T16:05:54Z</time>
      </trkpt>
      <trkpt lat="46.55308" lon="11.97691">
        <ele>1800.69</ele>
        <time>2012-08-01T16:05:55Z</time>
      </trkpt>
      <trkpt lat="46.55321" lon="11.97694">
        <ele>1799.24</ele>
        <time>2012-08-01T16:05:56Z</time>
      </trkpt>
      <trkpt lat="46.55335" lon="11.97702">
        <ele>1798.28</ele>
        <time>2012-08-01T16:05:57Z</time>
      </trkpt>
      <trkpt lat="46.55347" lon="11.97716">
        <ele>1796.84</ele>
        <time>2012-08-01T16:05:58Z</time>
      </trkpt>
      <trkpt lat="46.55357" lon="11.97734">
        <ele>1796.36</ele>
        <time>2012-08-01T16:05:59Z</time>
      </trkpt>
      <trkpt lat="46.55365" lon="11.97751">
        <ele>1795.4</ele>
        <time>2012-08-01T16:06:00Z</time>
      </trkpt>
      <trkpt lat="46.55373" lon="11.97764">
        <ele>1794.44</ele>
        <time>2012-08-01T16:06:01Z</time>
      </trkpt>
      <trkpt lat="46.5538" lon="11.97774">
        <ele>1793</ele>
        <time>2012-08-01T16:06:02Z</time>
      </trkpt>
      <trkpt lat="46.55388" lon="11.97778">
        <ele>1793</ele>
        <time>2012-08-01T16:06:03Z</time>
      </trkpt>
      <trkpt lat="46.55403" lon="11.9777">
        <ele>1792.03</ele>
        <time>2012-08-01T16:06:05Z</time>
      </trkpt>
      <trkpt lat="46.55405" lon="11.97761">
        <ele>1791.55</ele>
        <time>2012-08-01T16:06:06Z</time>
      </trkpt>
      <trkpt lat="46.55402" lon="11.97751">
        <ele>1791.55</ele>
        <time>2012-08-01T16:06:07Z</time>
      </trkpt>
      <trkpt lat="46.55398" lon="11.9774">
        <ele>1791.55</ele>
        <time>2012-08-01T16:06:08Z</time>
      </trkpt>
      <trkpt lat="46.55389" lon="11.97728">
        <ele>1791.07</ele>
        <time>2012-08-01T16:06:09Z</time>
      </trkpt>
      <trkpt lat="46.55378" lon="11.97713">
        <ele>1790.59</ele>
        <time>2012-08-01T16:06:10Z</time>
      </trkpt>
      <trkpt lat="46.55364" lon="11.97698">
        <ele>1789.63</ele>
        <time>2012-08-01T16:06:11Z</time>
      </trkpt>
      <trkpt lat="46.55322" lon="11.97652">
        <ele>1784.82</ele>
        <time>2012-08-01T16:06:14Z</time>
      </trkpt>
      <trkpt lat="46.55279" lon="11.97603">
        <ele>1780.98</ele>
        <time>2012-08-01T16:06:17Z</time>
      </trkpt>
      <trkpt lat="46.55266" lon="11.97585">
        <ele>1779.06</ele>
        <time>2012-08-01T16:06:18Z</time>
      </trkpt>
      <trkpt lat="46.55241" lon="11.97544">
        <ele>1775.21</ele>
        <time>2012-08-01T16:06:20Z</time>
      </trkpt>
      <trkpt lat="46.55228" lon="11.97526">
        <ele>1773.77</ele>
        <time>2012-08-01T16:06:21Z</time>
      </trkpt>
      <trkpt lat="46.55214" lon="11.9751">
        <ele>1772.81</ele>
        <time>2012-08-01T16:06:22Z</time>
      </trkpt>
      <trkpt lat="46.55185" lon="11.97478">
        <ele>1769.44</ele>
        <time>2012-08-01T16:06:24Z</time>
      </trkpt>
      <trkpt lat="46.55173" lon="11.9746">
        <ele>1767.04</ele>
        <time>2012-08-01T16:06:25Z</time>
      </trkpt>
      <trkpt lat="46.55165" lon="11.9744">
        <ele>1765.6</ele>
        <time>2012-08-01T16:06:26Z</time>
      </trkpt>
      <trkpt lat="46.55149" lon="11.97405">
        <ele>1762.71</ele>
        <time>2012-08-01T16:06:28Z</time>
      </trkpt>
      <trkpt lat="46.55136" lon="11.97391">
        <ele>1762.23</ele>
        <time>2012-08-01T16:06:29Z</time>
      </trkpt>
      <trkpt lat="46.55107" lon="11.97368">
        <ele>1759.35</ele>
        <time>2012-08-01T16:06:31Z</time>
      </trkpt>
      <trkpt lat="46.55094" lon="11.97351">
        <ele>1758.87</ele>
        <time>2012-08-01T16:06:32Z</time>
      </trkpt>
      <trkpt lat="46.55082" lon="11.97331">
        <ele>1757.91</ele>
        <time>2012-08-01T16:06:33Z</time>
      </trkpt>
      <trkpt lat="46.55053" lon="11.97268">
        <ele>1753.58</ele>
        <time>2012-08-01T16:06:36Z</time>
      </trkpt>
      <trkpt lat="46.55047" lon="11.97246">
        <ele>1751.66</ele>
        <time>2012-08-01T16:06:37Z</time>
      </trkpt>
      <trkpt lat="46.55042" lon="11.97222">
        <ele>1750.22</ele>
        <time>2012-08-01T16:06:38Z</time>
      </trkpt>
      <trkpt lat="46.55037" lon="11.97174">
        <ele>1747.33</ele>
        <time>2012-08-01T16:06:40Z</time>
      </trkpt>
      <trkpt lat="46.55039" lon="11.9715">
        <ele>1745.41</ele>
        <time>2012-08-01T16:06:41Z</time>
      </trkpt>
      <trkpt lat="46.55044" lon="11.97127">
        <ele>1744.45</ele>
        <time>2012-08-01T16:06:42Z</time>
      </trkpt>
      <trkpt lat="46.55058" lon="11.97083">
        <ele>1740.6</ele>
        <time>2012-08-01T16:06:44Z</time>
      </trkpt>
      <trkpt lat="46.55061" lon="11.97059">
        <ele>1740.6</ele>
        <time>2012-08-01T16:06:45Z</time>
      </trkpt>
      <trkpt lat="46.5506" lon="11.97033">
        <ele>1739.16</ele>
        <time>2012-08-01T16:06:46Z</time>
      </trkpt>
      <trkpt lat="46.55056" lon="11.97006">
        <ele>1738.68</ele>
        <time>2012-08-01T16:06:47Z</time>
      </trkpt>
      <trkpt lat="46.5505" lon="11.9698">
        <ele>1737.72</ele>
        <time>2012-08-01T16:06:48Z</time>
      </trkpt>
      <trkpt lat="46.55036" lon="11.9693">
        <ele>1734.36</ele>
        <time>2012-08-01T16:06:50Z</time>
      </trkpt>
      <trkpt lat="46.55017" lon="11.96859">
        <ele>1730.51</ele>
        <time>2012-08-01T16:06:53Z</time>
      </trkpt>
      <trkpt lat="46.5501" lon="11.96839">
        <ele>1728.11</ele>
        <time>2012-08-01T16:06:54Z</time>
      </trkpt>
      <trkpt lat="46.55002" lon="11.96822">
        <ele>1726.67</ele>
        <time>2012-08-01T16:06:55Z</time>
      </trkpt>
      <trkpt lat="46.54991" lon="11.96807">
        <ele>1725.7</ele>
        <time>2012-08-01T16:06:56Z</time>
      </trkpt>
      <trkpt lat="46.54977" lon="11.96795">
        <ele>1725.7</ele>
        <time>2012-08-01T16:06:57Z</time>
      </trkpt>
      <trkpt lat="46.54962" lon="11.96785">
        <ele>1724.74</ele>
        <time>2012-08-01T16:06:58Z</time>
      </trkpt>
      <trkpt lat="46.54946" lon="11.96776">
        <ele>1723.3</ele>
        <time>2012-08-01T16:06:59Z</time>
      </trkpt>
      <trkpt lat="46.54931" lon="11.96764">
        <ele>1721.86</ele>
        <time>2012-08-01T16:07:00Z</time>
      </trkpt>
      <trkpt lat="46.5492" lon="11.9675">
        <ele>1720.42</ele>
        <time>2012-08-01T16:07:01Z</time>
      </trkpt>
      <trkpt lat="46.54908" lon="11.96737">
        <ele>1718.97</ele>
        <time>2012-08-01T16:07:02Z</time>
      </trkpt>
      <trkpt lat="46.54897" lon="11.96727">
        <ele>1718.49</ele>
        <time>2012-08-01T16:07:03Z</time>
      </trkpt>
      <trkpt lat="46.54887" lon="11.9672">
        <ele>1716.57</ele>
        <time>2012-08-01T16:07:04Z</time>
      </trkpt>
      <trkpt lat="46.54878" lon="11.96713">
        <ele>1715.61</ele>
        <time>2012-08-01T16:07:05Z</time>
      </trkpt>
      <trkpt lat="46.54874" lon="11.96705">
        <ele>1715.13</ele>
        <time>2012-08-01T16:07:06Z</time>
      </trkpt>
      <trkpt lat="46.54872" lon="11.96695">
        <ele>1714.65</ele>
        <time>2012-08-01T16:07:07Z</time>
      </trkpt>
      <trkpt lat="46.54873" lon="11.96686">
        <ele>1713.69</ele>
        <time>2012-08-01T16:07:08Z</time>
      </trkpt>
      <trkpt lat="46.54876" lon="11.9668">
        <ele>1713.69</ele>
        <time>2012-08-01T16:07:09Z</time>
      </trkpt>
      <trkpt lat="46.54883" lon="11.96679">
        <ele>1713.69</ele>
        <time>2012-08-01T16:07:10Z</time>
      </trkpt>
      <trkpt lat="46.5489" lon="11.96685">
        <ele>1713.21</ele>
        <time>2012-08-01T16:07:11Z</time>
      </trkpt>
      <trkpt lat="46.54896" lon="11.96696">
        <ele>1713.21</ele>
        <time>2012-08-01T16:07:12Z</time>
      </trkpt>
      <trkpt lat="46.54902" lon="11.96708">
        <ele>1712.25</ele>
        <time>2012-08-01T16:07:13Z</time>
      </trkpt>
      <trkpt lat="46.5491" lon="11.9672">
        <ele>1712.73</ele>
        <time>2012-08-01T16:07:14Z</time>
      </trkpt>
      <trkpt lat="46.54919" lon="11.96731">
        <ele>1712.25</ele>
        <time>2012-08-01T16:07:15Z</time>
      </trkpt>
      <trkpt lat="46.5493" lon="11.96739">
        <ele>1711.28</ele>
        <time>2012-08-01T16:07:16Z</time>
      </trkpt>
      <trkpt lat="46.54943" lon="11.96744">
        <ele>1710.32</ele>
        <time>2012-08-01T16:07:17Z</time>
      </trkpt>
      <trkpt lat="46.54959" lon="11.96743">
        <ele>1709.84</ele>
        <time>2012-08-01T16:07:18Z</time>
      </trkpt>
      <trkpt lat="46.54976" lon="11.9674">
        <ele>1709.84</ele>
        <time>2012-08-01T16:07:19Z</time>
      </trkpt>
      <trkpt lat="46.54994" lon="11.96739">
        <ele>1707.92</ele>
        <time>2012-08-01T16:07:20Z</time>
      </trkpt>
      <trkpt lat="46.55028" lon="11.9674">
        <ele>1704.55</ele>
        <time>2012-08-01T16:07:22Z</time>
      </trkpt>
      <trkpt lat="46.55058" lon="11.96739">
        <ele>1700.71</ele>
        <time>2012-08-01T16:07:24Z</time>
      </trkpt>
      <trkpt lat="46.55071" lon="11.96742">
        <ele>1699.75</ele>
        <time>2012-08-01T16:07:25Z</time>
      </trkpt>
      <trkpt lat="46.55084" lon="11.96747">
        <ele>1698.31</ele>
        <time>2012-08-01T16:07:26Z</time>
      </trkpt>
      <trkpt lat="46.55096" lon="11.96755">
        <ele>1696.86</ele>
        <time>2012-08-01T16:07:27Z</time>
      </trkpt>
      <trkpt lat="46.55107" lon="11.96766">
        <ele>1695.9</ele>
        <time>2012-08-01T16:07:28Z</time>
      </trkpt>
      <trkpt lat="46.55118" lon="11.96778">
        <ele>1693.98</ele>
        <time>2012-08-01T16:07:29Z</time>
      </trkpt>
      <trkpt lat="46.55158" lon="11.96827">
        <ele>1690.14</ele>
        <time>2012-08-01T16:07:33Z</time>
      </trkpt>
      <trkpt lat="46.55167" lon="11.9684">
        <ele>1688.69</ele>
        <time>2012-08-01T16:07:34Z</time>
      </trkpt>
      <trkpt lat="46.55174" lon="11.96854">
        <ele>1687.25</ele>
        <time>2012-08-01T16:07:35Z</time>
      </trkpt>
      <trkpt lat="46.55188" lon="11.96881">
        <ele>1685.81</ele>
        <time>2012-08-01T16:07:37Z</time>
      </trkpt>
      <trkpt lat="46.55198" lon="11.96892">
        <ele>1684.85</ele>
        <time>2012-08-01T16:07:38Z</time>
      </trkpt>
      <trkpt lat="46.55209" lon="11.96899">
        <ele>1684.37</ele>
        <time>2012-08-01T16:07:39Z</time>
      </trkpt>
      <trkpt lat="46.55221" lon="11.96902">
        <ele>1683.89</ele>
        <time>2012-08-01T16:07:40Z</time>
      </trkpt>
      <trkpt lat="46.55232" lon="11.96901">
        <ele>1682.93</ele>
        <time>2012-08-01T16:07:41Z</time>
      </trkpt>
      <trkpt lat="46.55243" lon="11.96895">
        <ele>1682.44</ele>
        <time>2012-08-01T16:07:42Z</time>
      </trkpt>
      <trkpt lat="46.55253" lon="11.96886">
        <ele>1681</ele>
        <time>2012-08-01T16:07:43Z</time>
      </trkpt>
      <trkpt lat="46.55263" lon="11.96876">
        <ele>1680.52</ele>
        <time>2012-08-01T16:07:44Z</time>
      </trkpt>
      <trkpt lat="46.55284" lon="11.96857">
        <ele>1679.56</ele>
        <time>2012-08-01T16:07:46Z</time>
      </trkpt>
      <trkpt lat="46.5536" lon="11.96784">
        <ele>1681.48</ele>
        <time>2012-08-01T16:07:52Z</time>
      </trkpt>
      <trkpt lat="46.55507" lon="11.96647">
        <ele>1680.04</ele>
        <time>2012-08-01T16:08:02Z</time>
      </trkpt>
      <trkpt lat="46.55598" lon="11.96555">
        <ele>1679.56</ele>
        <time>2012-08-01T16:08:09Z</time>
      </trkpt>
      <trkpt lat="46.55608" lon="11.96538">
        <ele>1679.56</ele>
        <time>2012-08-01T16:08:10Z</time>
      </trkpt>
      <trkpt lat="46.5567" lon="11.9642">
        <ele>1677.64</ele>
        <time>2012-08-01T16:08:18Z</time>
      </trkpt>
      <trkpt lat="46.55743" lon="11.96285">
        <ele>1674.27</ele>
        <time>2012-08-01T16:08:26Z</time>
      </trkpt>
      <trkpt lat="46.5576" lon="11.96255">
        <ele>1670.43</ele>
        <time>2012-08-01T16:08:28Z</time>
      </trkpt>
      <trkpt lat="46.5582" lon="11.96106">
        <ele>1667.06</ele>
        <time>2012-08-01T16:08:37Z</time>
      </trkpt>
      <trkpt lat="46.55824" lon="11.96088">
        <ele>1667.06</ele>
        <time>2012-08-01T16:08:38Z</time>
      </trkpt>
      <trkpt lat="46.55839" lon="11.96014">
        <ele>1665.14</ele>
        <time>2012-08-01T16:08:42Z</time>
      </trkpt>
      <trkpt lat="46.55851" lon="11.95956">
        <ele>1663.22</ele>
        <time>2012-08-01T16:08:45Z</time>
      </trkpt>
      <trkpt lat="46.55957" lon="11.95796">
        <ele>1663.22</ele>
        <time>2012-08-01T16:08:56Z</time>
      </trkpt>
      <trkpt lat="46.55965" lon="11.95781">
        <ele>1656.97</ele>
        <time>2012-08-01T16:08:57Z</time>
      </trkpt>
      <trkpt lat="46.55982" lon="11.95752">
        <ele>1655.53</ele>
        <time>2012-08-01T16:08:59Z</time>
      </trkpt>
      <trkpt lat="46.56049" lon="11.95638">
        <ele>1653.12</ele>
        <time>2012-08-01T16:09:07Z</time>
      </trkpt>
      <trkpt lat="46.56063" lon="11.9561">
        <ele>1651.2</ele>
        <time>2012-08-01T16:09:09Z</time>
      </trkpt>
      <trkpt lat="46.56068" lon="11.95596">
        <ele>1650.72</ele>
        <time>2012-08-01T16:09:10Z</time>
      </trkpt>
      <trkpt lat="46.56072" lon="11.95583">
        <ele>1650.72</ele>
        <time>2012-08-01T16:09:11Z</time>
      </trkpt>
      <trkpt lat="46.56074" lon="11.9557">
        <ele>1650.24</ele>
        <time>2012-08-01T16:09:12Z</time>
      </trkpt>
      <trkpt lat="46.56077" lon="11.95556">
        <ele>1649.76</ele>
        <time>2012-08-01T16:09:13Z</time>
      </trkpt>
      <trkpt lat="46.56083" lon="11.95506">
        <ele>1648.32</ele>
        <time>2012-08-01T16:09:17Z</time>
      </trkpt>
      <trkpt lat="46.56097" lon="11.95423">
        <ele>1645.91</ele>
        <time>2012-08-01T16:09:24Z</time>
      </trkpt>
      <trkpt lat="46.56102" lon="11.95412">
        <ele>1645.43</ele>
        <time>2012-08-01T16:09:25Z</time>
      </trkpt>
      <trkpt lat="46.56109" lon="11.95401">
        <ele>1646.4</ele>
        <time>2012-08-01T16:09:26Z</time>
      </trkpt>
      <trkpt lat="46.56118" lon="11.9539">
        <ele>1645.43</ele>
        <time>2012-08-01T16:09:27Z</time>
      </trkpt>
      <trkpt lat="46.56126" lon="11.9538">
        <ele>1645.91</ele>
        <time>2012-08-01T16:09:28Z</time>
      </trkpt>
      <trkpt lat="46.56192" lon="11.95298">
        <ele>1644.47</ele>
        <time>2012-08-01T16:09:35Z</time>
      </trkpt>
      <trkpt lat="46.56199" lon="11.95282">
        <ele>1644.95</ele>
        <time>2012-08-01T16:09:36Z</time>
      </trkpt>
      <trkpt lat="46.56204" lon="11.95265">
        <ele>1644.95</ele>
        <time>2012-08-01T16:09:37Z</time>
      </trkpt>
      <trkpt lat="46.5626" lon="11.95058">
        <ele>1645.43</ele>
        <time>2012-08-01T16:09:49Z</time>
      </trkpt>
      <trkpt lat="46.56325" lon="11.9491">
        <ele>1648.8</ele>
        <time>2012-08-01T16:09:58Z</time>
      </trkpt>
      <trkpt lat="46.56386" lon="11.94768">
        <ele>1646.88</ele>
        <time>2012-08-01T16:10:07Z</time>
      </trkpt>
      <trkpt lat="46.56416" lon="11.94696">
        <ele>1643.03</ele>
        <time>2012-08-01T16:10:12Z</time>
      </trkpt>
      <trkpt lat="46.56424" lon="11.94664">
        <ele>1641.59</ele>
        <time>2012-08-01T16:10:14Z</time>
      </trkpt>
      <trkpt lat="46.56426" lon="11.94648">
        <ele>1640.63</ele>
        <time>2012-08-01T16:10:15Z</time>
      </trkpt>
      <trkpt lat="46.56426" lon="11.9463">
        <ele>1640.15</ele>
        <time>2012-08-01T16:10:16Z</time>
      </trkpt>
      <trkpt lat="46.56425" lon="11.94612">
        <ele>1639.19</ele>
        <time>2012-08-01T16:10:17Z</time>
      </trkpt>
      <trkpt lat="46.56423" lon="11.94595">
        <ele>1638.22</ele>
        <time>2012-08-01T16:10:18Z</time>
      </trkpt>
      <trkpt lat="46.56421" lon="11.94577">
        <ele>1637.26</ele>
        <time>2012-08-01T16:10:19Z</time>
      </trkpt>
      <trkpt lat="46.56421" lon="11.94558">
        <ele>1636.3</ele>
        <time>2012-08-01T16:10:20Z</time>
      </trkpt>
      <trkpt lat="46.56424" lon="11.9454">
        <ele>1634.38</ele>
        <time>2012-08-01T16:10:21Z</time>
      </trkpt>
      <trkpt lat="46.56428" lon="11.94523">
        <ele>1633.42</ele>
        <time>2012-08-01T16:10:22Z</time>
      </trkpt>
      <trkpt lat="46.56436" lon="11.94508">
        <ele>1632.94</ele>
        <time>2012-08-01T16:10:23Z</time>
      </trkpt>
      <trkpt lat="46.56444" lon="11.94496">
        <ele>1630.53</ele>
        <time>2012-08-01T16:10:24Z</time>
      </trkpt>
      <trkpt lat="46.56454" lon="11.94486">
        <ele>1629.09</ele>
        <time>2012-08-01T16:10:25Z</time>
      </trkpt>
      <trkpt lat="46.56463" lon="11.94479">
        <ele>1628.13</ele>
        <time>2012-08-01T16:10:26Z</time>
      </trkpt>
      <trkpt lat="46.56473" lon="11.94473">
        <ele>1627.65</ele>
        <time>2012-08-01T16:10:27Z</time>
      </trkpt>
      <trkpt lat="46.56483" lon="11.94469">
        <ele>1626.69</ele>
        <time>2012-08-01T16:10:28Z</time>
      </trkpt>
      <trkpt lat="46.56524" lon="11.94452">
        <ele>1625.25</ele>
        <time>2012-08-01T16:10:32Z</time>
      </trkpt>
      <trkpt lat="46.56533" lon="11.94444">
        <ele>1624.28</ele>
        <time>2012-08-01T16:10:33Z</time>
      </trkpt>
      <trkpt lat="46.56541" lon="11.94433">
        <ele>1623.8</ele>
        <time>2012-08-01T16:10:34Z</time>
      </trkpt>
      <trkpt lat="46.56548" lon="11.9442">
        <ele>1623.32</ele>
        <time>2012-08-01T16:10:35Z</time>
      </trkpt>
      <trkpt lat="46.56552" lon="11.94405">
        <ele>1621.88</ele>
        <time>2012-08-01T16:10:36Z</time>
      </trkpt>
      <trkpt lat="46.56555" lon="11.94389">
        <ele>1620.44</ele>
        <time>2012-08-01T16:10:37Z</time>
      </trkpt>
      <trkpt lat="46.56556" lon="11.94372">
        <ele>1619.96</ele>
        <time>2012-08-01T16:10:38Z</time>
      </trkpt>
      <trkpt lat="46.56556" lon="11.94356">
        <ele>1619</ele>
        <time>2012-08-01T16:10:39Z</time>
      </trkpt>
      <trkpt lat="46.56558" lon="11.9434">
        <ele>1617.56</ele>
        <time>2012-08-01T16:10:40Z</time>
      </trkpt>
      <trkpt lat="46.5656" lon="11.94324">
        <ele>1617.07</ele>
        <time>2012-08-01T16:10:41Z</time>
      </trkpt>
      <trkpt lat="46.56564" lon="11.9431">
        <ele>1616.11</ele>
        <time>2012-08-01T16:10:42Z</time>
      </trkpt>
      <trkpt lat="46.56571" lon="11.94297">
        <ele>1615.15</ele>
        <time>2012-08-01T16:10:43Z</time>
      </trkpt>
      <trkpt lat="46.56578" lon="11.94284">
        <ele>1613.71</ele>
        <time>2012-08-01T16:10:44Z</time>
      </trkpt>
      <trkpt lat="46.56607" lon="11.94228">
        <ele>1609.86</ele>
        <time>2012-08-01T16:10:48Z</time>
      </trkpt>
      <trkpt lat="46.56623" lon="11.94191">
        <ele>1606.5</ele>
        <time>2012-08-01T16:10:51Z</time>
      </trkpt>
      <trkpt lat="46.56626" lon="11.94178">
        <ele>1606.02</ele>
        <time>2012-08-01T16:10:52Z</time>
      </trkpt>
      <trkpt lat="46.56629" lon="11.94165">
        <ele>1605.06</ele>
        <time>2012-08-01T16:10:53Z</time>
      </trkpt>
      <trkpt lat="46.56637" lon="11.94113">
        <ele>1602.17</ele>
        <time>2012-08-01T16:10:57Z</time>
      </trkpt>
      <trkpt lat="46.56641" lon="11.94099">
        <ele>1601.69</ele>
        <time>2012-08-01T16:10:58Z</time>
      </trkpt>
      <trkpt lat="46.56647" lon="11.94088">
        <ele>1600.73</ele>
        <time>2012-08-01T16:10:59Z</time>
      </trkpt>
      <trkpt lat="46.56655" lon="11.94079">
        <ele>1600.25</ele>
        <time>2012-08-01T16:11:00Z</time>
      </trkpt>
      <trkpt lat="46.56664" lon="11.94074">
        <ele>1598.81</ele>
        <time>2012-08-01T16:11:01Z</time>
      </trkpt>
      <trkpt lat="46.56674" lon="11.94071">
        <ele>1597.37</ele>
        <time>2012-08-01T16:11:02Z</time>
      </trkpt>
      <trkpt lat="46.56682" lon="11.94072">
        <ele>1596.89</ele>
        <time>2012-08-01T16:11:03Z</time>
      </trkpt>
      <trkpt lat="46.56691" lon="11.94074">
        <ele>1595.93</ele>
        <time>2012-08-01T16:11:04Z</time>
      </trkpt>
      <trkpt lat="46.567" lon="11.94077">
        <ele>1595.45</ele>
        <time>2012-08-01T16:11:05Z</time>
      </trkpt>
      <trkpt lat="46.5671" lon="11.94078">
        <ele>1594.48</ele>
        <time>2012-08-01T16:11:06Z</time>
      </trkpt>
      <trkpt lat="46.5672" lon="11.94077">
        <ele>1594</ele>
        <time>2012-08-01T16:11:07Z</time>
      </trkpt>
      <trkpt lat="46.5673" lon="11.94073">
        <ele>1593.04</ele>
        <time>2012-08-01T16:11:08Z</time>
      </trkpt>
      <trkpt lat="46.5674" lon="11.94069">
        <ele>1592.56</ele>
        <time>2012-08-01T16:11:09Z</time>
      </trkpt>
      <trkpt lat="46.56749" lon="11.94063">
        <ele>1591.12</ele>
        <time>2012-08-01T16:11:10Z</time>
      </trkpt>
      <trkpt lat="46.56757" lon="11.94055">
        <ele>1590.16</ele>
        <time>2012-08-01T16:11:11Z</time>
      </trkpt>
      <trkpt lat="46.56765" lon="11.94046">
        <ele>1589.68</ele>
        <time>2012-08-01T16:11:12Z</time>
      </trkpt>
      <trkpt lat="46.56772" lon="11.94036">
        <ele>1588.72</ele>
        <time>2012-08-01T16:11:13Z</time>
      </trkpt>
      <trkpt lat="46.56777" lon="11.94025">
        <ele>1587.27</ele>
        <time>2012-08-01T16:11:14Z</time>
      </trkpt>
      <trkpt lat="46.56781" lon="11.94015">
        <ele>1586.79</ele>
        <time>2012-08-01T16:11:15Z</time>
      </trkpt>
      <trkpt lat="46.56785" lon="11.94003">
        <ele>1585.83</ele>
        <time>2012-08-01T16:11:16Z</time>
      </trkpt>
      <trkpt lat="46.56788" lon="11.9399">
        <ele>1585.35</ele>
        <time>2012-08-01T16:11:17Z</time>
      </trkpt>
      <trkpt lat="46.56791" lon="11.93975">
        <ele>1584.87</ele>
        <time>2012-08-01T16:11:18Z</time>
      </trkpt>
      <trkpt lat="46.56798" lon="11.93929">
        <ele>1581.03</ele>
        <time>2012-08-01T16:11:21Z</time>
      </trkpt>
      <trkpt lat="46.56811" lon="11.93883">
        <ele>1577.66</ele>
        <time>2012-08-01T16:11:24Z</time>
      </trkpt>
      <trkpt lat="46.56826" lon="11.93837">
        <ele>1573.33</ele>
        <time>2012-08-01T16:11:27Z</time>
      </trkpt>
      <trkpt lat="46.5683" lon="11.9382">
        <ele>1572.37</ele>
        <time>2012-08-01T16:11:28Z</time>
      </trkpt>
      <trkpt lat="46.56831" lon="11.93802">
        <ele>1570.45</ele>
        <time>2012-08-01T16:11:29Z</time>
      </trkpt>
      <trkpt lat="46.56835" lon="11.93748">
        <ele>1567.09</ele>
        <time>2012-08-01T16:11:32Z</time>
      </trkpt>
      <trkpt lat="46.56842" lon="11.93697">
        <ele>1563.24</ele>
        <time>2012-08-01T16:11:35Z</time>
      </trkpt>
      <trkpt lat="46.56847" lon="11.93681">
        <ele>1562.28</ele>
        <time>2012-08-01T16:11:36Z</time>
      </trkpt>
      <trkpt lat="46.56863" lon="11.93638">
        <ele>1558.43</ele>
        <time>2012-08-01T16:11:39Z</time>
      </trkpt>
      <trkpt lat="46.56869" lon="11.93625">
        <ele>1557.95</ele>
        <time>2012-08-01T16:11:40Z</time>
      </trkpt>
      <trkpt lat="46.56901" lon="11.93581">
        <ele>1555.55</ele>
        <time>2012-08-01T16:11:44Z</time>
      </trkpt>
      <trkpt lat="46.56927" lon="11.9356">
        <ele>1553.63</ele>
        <time>2012-08-01T16:11:48Z</time>
      </trkpt>
      <trkpt lat="46.56931" lon="11.93558">
        <ele>1552.67</ele>
        <time>2012-08-01T16:11:49Z</time>
      </trkpt>
      <trkpt lat="46.56935" lon="11.93556">
        <ele>1553.15</ele>
        <time>2012-08-01T16:11:50Z</time>
      </trkpt>
      <trkpt lat="46.56944" lon="11.93553">
        <ele>1553.15</ele>
        <time>2012-08-01T16:11:52Z</time>
      </trkpt>
      <trkpt lat="46.56948" lon="11.93547">
        <ele>1553.15</ele>
        <time>2012-08-01T16:11:53Z</time>
      </trkpt>
      <trkpt lat="46.5695" lon="11.93538">
        <ele>1553.15</ele>
        <time>2012-08-01T16:11:54Z</time>
      </trkpt>
      <trkpt lat="46.56951" lon="11.93515">
        <ele>1553.15</ele>
        <time>2012-08-01T16:11:56Z</time>
      </trkpt>
      <trkpt lat="46.56952" lon="11.93502">
        <ele>1553.15</ele>
        <time>2012-08-01T16:11:57Z</time>
      </trkpt>
      <trkpt lat="46.56954" lon="11.9349">
        <ele>1552.67</ele>
        <time>2012-08-01T16:11:58Z</time>
      </trkpt>
      <trkpt lat="46.56967" lon="11.93432">
        <ele>1549.3</ele>
        <time>2012-08-01T16:12:03Z</time>
      </trkpt>
      <trkpt lat="46.57006" lon="11.93249">
        <ele>1549.3</ele>
        <time>2012-08-01T16:12:17Z</time>
      </trkpt>
      <trkpt lat="46.57025" lon="11.93179">
        <ele>1549.78</ele>
        <time>2012-08-01T16:12:22Z</time>
      </trkpt>
      <trkpt lat="46.57037" lon="11.93151">
        <ele>1548.82</ele>
        <time>2012-08-01T16:12:24Z</time>
      </trkpt>
      <trkpt lat="46.57053" lon="11.93128">
        <ele>1544.98</ele>
        <time>2012-08-01T16:12:26Z</time>
      </trkpt>
      <trkpt lat="46.57063" lon="11.93117">
        <ele>1546.42</ele>
        <time>2012-08-01T16:12:27Z</time>
      </trkpt>
      <trkpt lat="46.57109" lon="11.93062">
        <ele>1545.94</ele>
        <time>2012-08-01T16:12:32Z</time>
      </trkpt>
      <trkpt lat="46.57117" lon="11.93048">
        <ele>1546.42</ele>
        <time>2012-08-01T16:12:33Z</time>
      </trkpt>
      <trkpt lat="46.57124" lon="11.93034">
        <ele>1545.94</ele>
        <time>2012-08-01T16:12:34Z</time>
      </trkpt>
      <trkpt lat="46.57131" lon="11.93018">
        <ele>1545.94</ele>
        <time>2012-08-01T16:12:35Z</time>
      </trkpt>
      <trkpt lat="46.57136" lon="11.93002">
        <ele>1545.94</ele>
        <time>2012-08-01T16:12:36Z</time>
      </trkpt>
      <trkpt lat="46.57184" lon="11.92921">
        <ele>1547.86</ele>
        <time>2012-08-01T16:12:42Z</time>
      </trkpt>
      <trkpt lat="46.57194" lon="11.92911">
        <ele>1547.38</ele>
        <time>2012-08-01T16:12:43Z</time>
      </trkpt>
      <trkpt lat="46.57225" lon="11.92885">
        <ele>1548.82</ele>
        <time>2012-08-01T16:12:46Z</time>
      </trkpt>
      <trkpt lat="46.57247" lon="11.92872">
        <ele>1549.78</ele>
        <time>2012-08-01T16:12:48Z</time>
      </trkpt>
      <trkpt lat="46.57274" lon="11.92854">
        <ele>1549.3</ele>
        <time>2012-08-01T16:12:52Z</time>
      </trkpt>
      <trkpt lat="46.57276" lon="11.92852">
        <ele>1549.3</ele>
        <time>2012-08-01T16:12:53Z</time>
      </trkpt>
      <trkpt lat="46.57288" lon="11.92853">
        <ele>1549.3</ele>
        <time>2012-08-01T16:12:57Z</time>
      </trkpt>
      <trkpt lat="46.57292" lon="11.92856">
        <ele>1549.78</ele>
        <time>2012-08-01T16:12:58Z</time>
      </trkpt>
      <trkpt lat="46.57298" lon="11.92857">
        <ele>1549.78</ele>
        <time>2012-08-01T16:12:59Z</time>
      </trkpt>
      <trkpt lat="46.57304" lon="11.92858">
        <ele>1549.78</ele>
        <time>2012-08-01T16:13:00Z</time>
      </trkpt>
      <trkpt lat="46.57311" lon="11.92857">
        <ele>1549.78</ele>
        <time>2012-08-01T16:13:01Z</time>
      </trkpt>
      <trkpt lat="46.57373" lon="11.92841">
        <ele>1553.63</ele>
        <time>2012-08-01T16:13:08Z</time>
      </trkpt>
      <trkpt lat="46.57383" lon="11.92837">
        <ele>1549.78</ele>
        <time>2012-08-01T16:13:09Z</time>
      </trkpt>
      <trkpt lat="46.57472" lon="11.92796">
        <ele>1545.46</ele>
        <time>2012-08-01T16:13:17Z</time>
      </trkpt>
      <trkpt lat="46.57484" lon="11.92789">
        <ele>1545.94</ele>
        <time>2012-08-01T16:13:18Z</time>
      </trkpt>
      <trkpt lat="46.57543" lon="11.92735">
        <ele>1543.53</ele>
        <time>2012-08-01T16:13:23Z</time>
      </trkpt>
      <trkpt lat="46.57585" lon="11.92656">
        <ele>1540.65</ele>
        <time>2012-08-01T16:13:28Z</time>
      </trkpt>
      <trkpt lat="46.57604" lon="11.92585">
        <ele>1537.77</ele>
        <time>2012-08-01T16:13:32Z</time>
      </trkpt>
      <trkpt lat="46.57612" lon="11.92553">
        <ele>1536.32</ele>
        <time>2012-08-01T16:13:34Z</time>
      </trkpt>
      <trkpt lat="46.57617" lon="11.92541">
        <ele>1535.36</ele>
        <time>2012-08-01T16:13:35Z</time>
      </trkpt>
      <trkpt lat="46.57624" lon="11.92529">
        <ele>1534.88</ele>
        <time>2012-08-01T16:13:36Z</time>
      </trkpt>
      <trkpt lat="46.57633" lon="11.92518">
        <ele>1535.36</ele>
        <time>2012-08-01T16:13:37Z</time>
      </trkpt>
      <trkpt lat="46.57644" lon="11.92508">
        <ele>1533.92</ele>
        <time>2012-08-01T16:13:38Z</time>
      </trkpt>
      <trkpt lat="46.57655" lon="11.92499">
        <ele>1533.92</ele>
        <time>2012-08-01T16:13:39Z</time>
      </trkpt>
      <trkpt lat="46.57698" lon="11.92461">
        <ele>1532</ele>
        <time>2012-08-01T16:13:43Z</time>
      </trkpt>
      <trkpt lat="46.57708" lon="11.92448">
        <ele>1531.52</ele>
        <time>2012-08-01T16:13:44Z</time>
      </trkpt>
      <trkpt lat="46.57718" lon="11.92434">
        <ele>1530.56</ele>
        <time>2012-08-01T16:13:45Z</time>
      </trkpt>
      <trkpt lat="46.57727" lon="11.92418">
        <ele>1530.08</ele>
        <time>2012-08-01T16:13:46Z</time>
      </trkpt>
      <trkpt lat="46.57735" lon="11.924">
        <ele>1530.08</ele>
        <time>2012-08-01T16:13:47Z</time>
      </trkpt>
      <trkpt lat="46.57741" lon="11.92382">
        <ele>1529.11</ele>
        <time>2012-08-01T16:13:48Z</time>
      </trkpt>
      <trkpt lat="46.57747" lon="11.92363">
        <ele>1528.63</ele>
        <time>2012-08-01T16:13:49Z</time>
      </trkpt>
      <trkpt lat="46.57751" lon="11.92344">
        <ele>1527.19</ele>
        <time>2012-08-01T16:13:50Z</time>
      </trkpt>
      <trkpt lat="46.57755" lon="11.92325">
        <ele>1526.71</ele>
        <time>2012-08-01T16:13:51Z</time>
      </trkpt>
      <trkpt lat="46.57781" lon="11.92219">
        <ele>1522.87</ele>
        <time>2012-08-01T16:13:57Z</time>
      </trkpt>
      <trkpt lat="46.57788" lon="11.92205">
        <ele>1522.39</ele>
        <time>2012-08-01T16:13:58Z</time>
      </trkpt>
      <trkpt lat="46.57796" lon="11.92193">
        <ele>1521.42</ele>
        <time>2012-08-01T16:13:59Z</time>
      </trkpt>
      <trkpt lat="46.57805" lon="11.92183">
        <ele>1520.46</ele>
        <time>2012-08-01T16:14:00Z</time>
      </trkpt>
      <trkpt lat="46.57815" lon="11.92175">
        <ele>1513.73</ele>
        <time>2012-08-01T16:14:01Z</time>
      </trkpt>
      <trkpt lat="46.57825" lon="11.92168">
        <ele>1520.94</ele>
        <time>2012-08-01T16:14:02Z</time>
      </trkpt>
      <trkpt lat="46.57835" lon="11.92162">
        <ele>1517.58</ele>
        <time>2012-08-01T16:14:03Z</time>
      </trkpt>
      <trkpt lat="46.57873" lon="11.92134">
        <ele>1517.58</ele>
        <time>2012-08-01T16:14:07Z</time>
      </trkpt>
      <trkpt lat="46.5788" lon="11.92121">
        <ele>1517.58</ele>
        <time>2012-08-01T16:14:08Z</time>
      </trkpt>
      <trkpt lat="46.57884" lon="11.92105">
        <ele>1517.1</ele>
        <time>2012-08-01T16:14:09Z</time>
      </trkpt>
      <trkpt lat="46.57886" lon="11.92087">
        <ele>1516.62</ele>
        <time>2012-08-01T16:14:10Z</time>
      </trkpt>
      <trkpt lat="46.57888" lon="11.92072">
        <ele>1515.66</ele>
        <time>2012-08-01T16:14:11Z</time>
      </trkpt>
      <trkpt lat="46.57892" lon="11.92059">
        <ele>1514.69</ele>
        <time>2012-08-01T16:14:12Z</time>
      </trkpt>
      <trkpt lat="46.57898" lon="11.92049">
        <ele>1514.21</ele>
        <time>2012-08-01T16:14:13Z</time>
      </trkpt>
      <trkpt lat="46.57904" lon="11.92043">
        <ele>1513.73</ele>
        <time>2012-08-01T16:14:14Z</time>
      </trkpt>
      <trkpt lat="46.57912" lon="11.92041">
        <ele>1513.25</ele>
        <time>2012-08-01T16:14:15Z</time>
      </trkpt>
      <trkpt lat="46.57921" lon="11.92044">
        <ele>1512.77</ele>
        <time>2012-08-01T16:14:16Z</time>
      </trkpt>
      <trkpt lat="46.57931" lon="11.92049">
        <ele>1512.77</ele>
        <time>2012-08-01T16:14:17Z</time>
      </trkpt>
      <trkpt lat="46.57952" lon="11.92059">
        <ele>1511.33</ele>
        <time>2012-08-01T16:14:19Z</time>
      </trkpt>
      <trkpt lat="46.57963" lon="11.92061">
        <ele>1511.33</ele>
        <time>2012-08-01T16:14:20Z</time>
      </trkpt>
      <trkpt lat="46.57973" lon="11.9206">
        <ele>1510.37</ele>
        <time>2012-08-01T16:14:21Z</time>
      </trkpt>
      <trkpt lat="46.57982" lon="11.92056">
        <ele>1509.41</ele>
        <time>2012-08-01T16:14:22Z</time>
      </trkpt>
      <trkpt lat="46.57992" lon="11.9205">
        <ele>1509.41</ele>
        <time>2012-08-01T16:14:23Z</time>
      </trkpt>
      <trkpt lat="46.58001" lon="11.92044">
        <ele>1508.93</ele>
        <time>2012-08-01T16:14:24Z</time>
      </trkpt>
      <trkpt lat="46.58042" lon="11.92017">
        <ele>1507</ele>
        <time>2012-08-01T16:14:28Z</time>
      </trkpt>
      <trkpt lat="46.58114" lon="11.91959">
        <ele>1504.12</ele>
        <time>2012-08-01T16:14:36Z</time>
      </trkpt>
      <trkpt lat="46.58124" lon="11.91935">
        <ele>1503.16</ele>
        <time>2012-08-01T16:14:38Z</time>
      </trkpt>
      <trkpt lat="46.58127" lon="11.91921">
        <ele>1502.68</ele>
        <time>2012-08-01T16:14:39Z</time>
      </trkpt>
      <trkpt lat="46.58129" lon="11.91907">
        <ele>1502.68</ele>
        <time>2012-08-01T16:14:40Z</time>
      </trkpt>
      <trkpt lat="46.58134" lon="11.9185">
        <ele>1499.79</ele>
        <time>2012-08-01T16:14:44Z</time>
      </trkpt>
      <trkpt lat="46.58137" lon="11.91835">
        <ele>1499.31</ele>
        <time>2012-08-01T16:14:45Z</time>
      </trkpt>
      <trkpt lat="46.58141" lon="11.9182">
        <ele>1498.35</ele>
        <time>2012-08-01T16:14:46Z</time>
      </trkpt>
      <trkpt lat="46.58161" lon="11.91761">
        <ele>1495.47</ele>
        <time>2012-08-01T16:14:50Z</time>
      </trkpt>
      <trkpt lat="46.58165" lon="11.91745">
        <ele>1494.03</ele>
        <time>2012-08-01T16:14:51Z</time>
      </trkpt>
      <trkpt lat="46.58169" lon="11.91728">
        <ele>1493.06</ele>
        <time>2012-08-01T16:14:52Z</time>
      </trkpt>
      <trkpt lat="46.58172" lon="11.91711">
        <ele>1492.58</ele>
        <time>2012-08-01T16:14:53Z</time>
      </trkpt>
      <trkpt lat="46.5818" lon="11.91657">
        <ele>1489.22</ele>
        <time>2012-08-01T16:14:56Z</time>
      </trkpt>
      <trkpt lat="46.58184" lon="11.91639">
        <ele>1488.26</ele>
        <time>2012-08-01T16:14:57Z</time>
      </trkpt>
      <trkpt lat="46.5819" lon="11.91623">
        <ele>1487.78</ele>
        <time>2012-08-01T16:14:58Z</time>
      </trkpt>
      <trkpt lat="46.58211" lon="11.91578">
        <ele>1484.41</ele>
        <time>2012-08-01T16:15:01Z</time>
      </trkpt>
      <trkpt lat="46.58228" lon="11.9153">
        <ele>1481.05</ele>
        <time>2012-08-01T16:15:04Z</time>
      </trkpt>
      <trkpt lat="46.58246" lon="11.91467">
        <ele>1477.68</ele>
        <time>2012-08-01T16:15:08Z</time>
      </trkpt>
      <trkpt lat="46.58264" lon="11.91423">
        <ele>1474.8</ele>
        <time>2012-08-01T16:15:11Z</time>
      </trkpt>
      <trkpt lat="46.58272" lon="11.9141">
        <ele>1474.32</ele>
        <time>2012-08-01T16:15:12Z</time>
      </trkpt>
      <trkpt lat="46.58307" lon="11.91358">
        <ele>1470.47</ele>
        <time>2012-08-01T16:15:16Z</time>
      </trkpt>
      <trkpt lat="46.58322" lon="11.91332">
        <ele>1468.07</ele>
        <time>2012-08-01T16:15:18Z</time>
      </trkpt>
      <trkpt lat="46.58325" lon="11.91317">
        <ele>1467.59</ele>
        <time>2012-08-01T16:15:19Z</time>
      </trkpt>
      <trkpt lat="46.58327" lon="11.91301">
        <ele>1467.11</ele>
        <time>2012-08-01T16:15:20Z</time>
      </trkpt>
      <trkpt lat="46.58327" lon="11.91287">
        <ele>1465.67</ele>
        <time>2012-08-01T16:15:21Z</time>
      </trkpt>
      <trkpt lat="46.58329" lon="11.91273">
        <ele>1465.19</ele>
        <time>2012-08-01T16:15:22Z</time>
      </trkpt>
      <trkpt lat="46.58333" lon="11.9126">
        <ele>1464.23</ele>
        <time>2012-08-01T16:15:23Z</time>
      </trkpt>
      <trkpt lat="46.58337" lon="11.91247">
        <ele>1463.26</ele>
        <time>2012-08-01T16:15:24Z</time>
      </trkpt>
      <trkpt lat="46.58343" lon="11.91236">
        <ele>1462.3</ele>
        <time>2012-08-01T16:15:25Z</time>
      </trkpt>
      <trkpt lat="46.58366" lon="11.9119">
        <ele>1458.94</ele>
        <time>2012-08-01T16:15:29Z</time>
      </trkpt>
      <trkpt lat="46.58371" lon="11.91179">
        <ele>1458.46</ele>
        <time>2012-08-01T16:15:30Z</time>
      </trkpt>
      <trkpt lat="46.58375" lon="11.91167">
        <ele>1457.5</ele>
        <time>2012-08-01T16:15:31Z</time>
      </trkpt>
      <trkpt lat="46.58377" lon="11.91156">
        <ele>1457.02</ele>
        <time>2012-08-01T16:15:32Z</time>
      </trkpt>
      <trkpt lat="46.58377" lon="11.91144">
        <ele>1456.05</ele>
        <time>2012-08-01T16:15:33Z</time>
      </trkpt>
      <trkpt lat="46.58375" lon="11.91133">
        <ele>1455.57</ele>
        <time>2012-08-01T16:15:34Z</time>
      </trkpt>
      <trkpt lat="46.5837" lon="11.91123">
        <ele>1455.09</ele>
        <time>2012-08-01T16:15:35Z</time>
      </trkpt>
      <trkpt lat="46.58363" lon="11.91115">
        <ele>1454.61</ele>
        <time>2012-08-01T16:15:36Z</time>
      </trkpt>
      <trkpt lat="46.58355" lon="11.9111">
        <ele>1454.13</ele>
        <time>2012-08-01T16:15:37Z</time>
      </trkpt>
      <trkpt lat="46.58347" lon="11.91108">
        <ele>1452.69</ele>
        <time>2012-08-01T16:15:38Z</time>
      </trkpt>
      <trkpt lat="46.58339" lon="11.91107">
        <ele>1452.69</ele>
        <time>2012-08-01T16:15:39Z</time>
      </trkpt>
      <trkpt lat="46.5833" lon="11.91107">
        <ele>1452.21</ele>
        <time>2012-08-01T16:15:40Z</time>
      </trkpt>
      <trkpt lat="46.58322" lon="11.91106">
        <ele>1450.77</ele>
        <time>2012-08-01T16:15:41Z</time>
      </trkpt>
      <trkpt lat="46.58315" lon="11.91103">
        <ele>1450.29</ele>
        <time>2012-08-01T16:15:42Z</time>
      </trkpt>
      <trkpt lat="46.58309" lon="11.91097">
        <ele>1449.32</ele>
        <time>2012-08-01T16:15:43Z</time>
      </trkpt>
      <trkpt lat="46.58305" lon="11.91089">
        <ele>1449.32</ele>
        <time>2012-08-01T16:15:44Z</time>
      </trkpt>
      <trkpt lat="46.58302" lon="11.91079">
        <ele>1448.36</ele>
        <time>2012-08-01T16:15:45Z</time>
      </trkpt>
      <trkpt lat="46.583" lon="11.91067">
        <ele>1447.4</ele>
        <time>2012-08-01T16:15:46Z</time>
      </trkpt>
      <trkpt lat="46.58301" lon="11.91053">
        <ele>1446.44</ele>
        <time>2012-08-01T16:15:47Z</time>
      </trkpt>
      <trkpt lat="46.58304" lon="11.9104">
        <ele>1446.44</ele>
        <time>2012-08-01T16:15:48Z</time>
      </trkpt>
      <trkpt lat="46.58309" lon="11.91027">
        <ele>1445.96</ele>
        <time>2012-08-01T16:15:49Z</time>
      </trkpt>
      <trkpt lat="46.58314" lon="11.91012">
        <ele>1445</ele>
        <time>2012-08-01T16:15:50Z</time>
      </trkpt>
      <trkpt lat="46.58335" lon="11.90956">
        <ele>1441.15</ele>
        <time>2012-08-01T16:15:54Z</time>
      </trkpt>
      <trkpt lat="46.58341" lon="11.90945">
        <ele>1440.19</ele>
        <time>2012-08-01T16:15:55Z</time>
      </trkpt>
      <trkpt lat="46.58349" lon="11.90935">
        <ele>1439.71</ele>
        <time>2012-08-01T16:15:56Z</time>
      </trkpt>
      <trkpt lat="46.58358" lon="11.90928">
        <ele>1438.75</ele>
        <time>2012-08-01T16:15:57Z</time>
      </trkpt>
      <trkpt lat="46.58366" lon="11.90923">
        <ele>1437.31</ele>
        <time>2012-08-01T16:15:58Z</time>
      </trkpt>
      <trkpt lat="46.58375" lon="11.90921">
        <ele>1436.83</ele>
        <time>2012-08-01T16:15:59Z</time>
      </trkpt>
      <trkpt lat="46.58382" lon="11.90918">
        <ele>1435.87</ele>
        <time>2012-08-01T16:16:00Z</time>
      </trkpt>
      <trkpt lat="46.58388" lon="11.90915">
        <ele>1435.39</ele>
        <time>2012-08-01T16:16:01Z</time>
      </trkpt>
      <trkpt lat="46.58394" lon="11.90911">
        <ele>1434.42</ele>
        <time>2012-08-01T16:16:02Z</time>
      </trkpt>
      <trkpt lat="46.58398" lon="11.90905">
        <ele>1434.42</ele>
        <time>2012-08-01T16:16:03Z</time>
      </trkpt>
      <trkpt lat="46.584" lon="11.90897">
        <ele>1433.94</ele>
        <time>2012-08-01T16:16:04Z</time>
      </trkpt>
      <trkpt lat="46.58399" lon="11.9089">
        <ele>1434.42</ele>
        <time>2012-08-01T16:16:05Z</time>
      </trkpt>
      <trkpt lat="46.58396" lon="11.90884">
        <ele>1433.46</ele>
        <time>2012-08-01T16:16:06Z</time>
      </trkpt>
      <trkpt lat="46.58391" lon="11.90881">
        <ele>1432.98</ele>
        <time>2012-08-01T16:16:07Z</time>
      </trkpt>
      <trkpt lat="46.58385" lon="11.90881">
        <ele>1432.98</ele>
        <time>2012-08-01T16:16:08Z</time>
      </trkpt>
      <trkpt lat="46.58378" lon="11.90884">
        <ele>1432.5</ele>
        <time>2012-08-01T16:16:09Z</time>
      </trkpt>
      <trkpt lat="46.58371" lon="11.90887">
        <ele>1432.02</ele>
        <time>2012-08-01T16:16:10Z</time>
      </trkpt>
      <trkpt lat="46.58364" lon="11.90889">
        <ele>1431.54</ele>
        <time>2012-08-01T16:16:11Z</time>
      </trkpt>
      <trkpt lat="46.58358" lon="11.90889">
        <ele>1430.1</ele>
        <time>2012-08-01T16:16:12Z</time>
      </trkpt>
      <trkpt lat="46.58352" lon="11.90886">
        <ele>1430.1</ele>
        <time>2012-08-01T16:16:13Z</time>
      </trkpt>
      <trkpt lat="46.58348" lon="11.90881">
        <ele>1428.66</ele>
        <time>2012-08-01T16:16:14Z</time>
      </trkpt>
      <trkpt lat="46.58345" lon="11.90874">
        <ele>1429.14</ele>
        <time>2012-08-01T16:16:15Z</time>
      </trkpt>
      <trkpt lat="46.58346" lon="11.90867">
        <ele>1428.18</ele>
        <time>2012-08-01T16:16:16Z</time>
      </trkpt>
      <trkpt lat="46.5835" lon="11.90859">
        <ele>1428.18</ele>
        <time>2012-08-01T16:16:17Z</time>
      </trkpt>
      <trkpt lat="46.58357" lon="11.90852">
        <ele>1427.7</ele>
        <time>2012-08-01T16:16:18Z</time>
      </trkpt>
      <trkpt lat="46.58363" lon="11.90844">
        <ele>1427.21</ele>
        <time>2012-08-01T16:16:19Z</time>
      </trkpt>
      <trkpt lat="46.58368" lon="11.90835">
        <ele>1426.73</ele>
        <time>2012-08-01T16:16:20Z</time>
      </trkpt>
      <trkpt lat="46.58372" lon="11.90825">
        <ele>1425.77</ele>
        <time>2012-08-01T16:16:21Z</time>
      </trkpt>
      <trkpt lat="46.58375" lon="11.90813">
        <ele>1425.29</ele>
        <time>2012-08-01T16:16:22Z</time>
      </trkpt>
      <trkpt lat="46.58378" lon="11.908">
        <ele>1425.29</ele>
        <time>2012-08-01T16:16:23Z</time>
      </trkpt>
      <trkpt lat="46.5838" lon="11.90786">
        <ele>1424.81</ele>
        <time>2012-08-01T16:16:24Z</time>
      </trkpt>
      <trkpt lat="46.58382" lon="11.90773">
        <ele>1424.81</ele>
        <time>2012-08-01T16:16:25Z</time>
      </trkpt>
      <trkpt lat="46.58386" lon="11.90761">
        <ele>1424.81</ele>
        <time>2012-08-01T16:16:26Z</time>
      </trkpt>
      <trkpt lat="46.58391" lon="11.90751">
        <ele>1424.81</ele>
        <time>2012-08-01T16:16:27Z</time>
      </trkpt>
      <trkpt lat="46.58398" lon="11.90744">
        <ele>1425.29</ele>
        <time>2012-08-01T16:16:28Z</time>
      </trkpt>
      <trkpt lat="46.58406" lon="11.90741">
        <ele>1425.29</ele>
        <time>2012-08-01T16:16:29Z</time>
      </trkpt>
      <trkpt lat="46.58415" lon="11.90739">
        <ele>1426.25</ele>
        <time>2012-08-01T16:16:30Z</time>
      </trkpt>
      <trkpt lat="46.58424" lon="11.9074">
        <ele>1427.7</ele>
        <time>2012-08-01T16:16:31Z</time>
      </trkpt>
      <trkpt lat="46.58433" lon="11.9074">
        <ele>1427.7</ele>
        <time>2012-08-01T16:16:32Z</time>
      </trkpt>
      <trkpt lat="46.58461" lon="11.90748">
        <ele>1430.58</ele>
        <time>2012-08-01T16:16:35Z</time>
      </trkpt>
      <trkpt lat="46.58479" lon="11.90757">
        <ele>1432.02</ele>
        <time>2012-08-01T16:16:37Z</time>
      </trkpt>
      <trkpt lat="46.58488" lon="11.90759">
        <ele>1432.98</ele>
        <time>2012-08-01T16:16:38Z</time>
      </trkpt>
      <trkpt lat="46.58498" lon="11.90759">
        <ele>1433.94</ele>
        <time>2012-08-01T16:16:39Z</time>
      </trkpt>
      <trkpt lat="46.58507" lon="11.90757">
        <ele>1434.42</ele>
        <time>2012-08-01T16:16:40Z</time>
      </trkpt>
      <trkpt lat="46.58516" lon="11.90752">
        <ele>1434.42</ele>
        <time>2012-08-01T16:16:41Z</time>
      </trkpt>
      <trkpt lat="46.58524" lon="11.90745">
        <ele>1435.39</ele>
        <time>2012-08-01T16:16:42Z</time>
      </trkpt>
      <trkpt lat="46.58531" lon="11.90736">
        <ele>1435.39</ele>
        <time>2012-08-01T16:16:43Z</time>
      </trkpt>
      <trkpt lat="46.58537" lon="11.90724">
        <ele>1436.35</ele>
        <time>2012-08-01T16:16:44Z</time>
      </trkpt>
      <trkpt lat="46.58541" lon="11.90712">
        <ele>1437.31</ele>
        <time>2012-08-01T16:16:45Z</time>
      </trkpt>
      <trkpt lat="46.58543" lon="11.90697">
        <ele>1437.79</ele>
        <time>2012-08-01T16:16:46Z</time>
      </trkpt>
      <trkpt lat="46.58544" lon="11.90683">
        <ele>1438.27</ele>
        <time>2012-08-01T16:16:47Z</time>
      </trkpt>
      <trkpt lat="46.58543" lon="11.90669">
        <ele>1439.23</ele>
        <time>2012-08-01T16:16:48Z</time>
      </trkpt>
      <trkpt lat="46.5854" lon="11.90655">
        <ele>1440.19</ele>
        <time>2012-08-01T16:16:49Z</time>
      </trkpt>
      <trkpt lat="46.58536" lon="11.90642">
        <ele>1439.71</ele>
        <time>2012-08-01T16:16:50Z</time>
      </trkpt>
      <trkpt lat="46.58531" lon="11.90629">
        <ele>1441.15</ele>
        <time>2012-08-01T16:16:51Z</time>
      </trkpt>
      <trkpt lat="46.58522" lon="11.90603">
        <ele>1441.63</ele>
        <time>2012-08-01T16:16:53Z</time>
      </trkpt>
      <trkpt lat="46.58502" lon="11.90545">
        <ele>1445</ele>
        <time>2012-08-01T16:16:57Z</time>
      </trkpt>
      <trkpt lat="46.58474" lon="11.9046">
        <ele>1447.4</ele>
        <time>2012-08-01T16:17:05Z</time>
      </trkpt>
      <trkpt lat="46.58473" lon="11.90454">
        <ele>1447.4</ele>
        <time>2012-08-01T16:17:06Z</time>
      </trkpt>
      <trkpt lat="46.58474" lon="11.90449">
        <ele>1447.88</ele>
        <time>2012-08-01T16:17:07Z</time>
      </trkpt>
      <trkpt lat="46.58475" lon="11.90444">
        <ele>1448.36</ele>
        <time>2012-08-01T16:17:08Z</time>
      </trkpt>
      <trkpt lat="46.58476" lon="11.9044">
        <ele>1447.88</ele>
        <time>2012-08-01T16:17:09Z</time>
      </trkpt>
      <trkpt lat="46.58478" lon="11.90438">
        <ele>1448.36</ele>
        <time>2012-08-01T16:17:10Z</time>
      </trkpt>
      <trkpt lat="46.5848" lon="11.90436">
        <ele>1448.36</ele>
        <time>2012-08-01T16:17:17Z</time>
      </trkpt>
      <trkpt lat="46.58483" lon="11.90435">
        <ele>1448.36</ele>
        <time>2012-08-01T16:17:18Z</time>
      </trkpt>
      <trkpt lat="46.58489" lon="11.90435">
        <ele>1448.84</ele>
        <time>2012-08-01T16:17:19Z</time>
      </trkpt>
      <trkpt lat="46.58504" lon="11.90438">
        <ele>1448.84</ele>
        <time>2012-08-01T16:17:21Z</time>
      </trkpt>
      <trkpt lat="46.58513" lon="11.90438">
        <ele>1448.84</ele>
        <time>2012-08-01T16:17:22Z</time>
      </trkpt>
      <trkpt lat="46.58523" lon="11.90435">
        <ele>1449.81</ele>
        <time>2012-08-01T16:17:23Z</time>
      </trkpt>
      <trkpt lat="46.58533" lon="11.90431">
        <ele>1449.32</ele>
        <time>2012-08-01T16:17:24Z</time>
      </trkpt>
      <trkpt lat="46.58543" lon="11.90425">
        <ele>1448.84</ele>
        <time>2012-08-01T16:17:25Z</time>
      </trkpt>
      <trkpt lat="46.58553" lon="11.90419">
        <ele>1448.36</ele>
        <time>2012-08-01T16:17:26Z</time>
      </trkpt>
      <trkpt lat="46.58681" lon="11.90356">
        <ele>1445</ele>
        <time>2012-08-01T16:17:38Z</time>
      </trkpt>
      <trkpt lat="46.58761" lon="11.90319">
        <ele>1442.11</ele>
        <time>2012-08-01T16:17:47Z</time>
      </trkpt>
      <trkpt lat="46.58766" lon="11.90317">
        <ele>1441.63</ele>
        <time>2012-08-01T16:17:48Z</time>
      </trkpt>
      <trkpt lat="46.5877" lon="11.90318">
        <ele>1441.63</ele>
        <time>2012-08-01T16:17:49Z</time>
      </trkpt>
      <trkpt lat="46.58783" lon="11.90323">
        <ele>1440.19</ele>
        <time>2012-08-01T16:17:59Z</time>
      </trkpt>
      <trkpt lat="46.5881" lon="11.90304">
        <ele>1444.52</ele>
        <time>2012-08-01T16:21:26Z</time>
      </trkpt>
      <trkpt lat="46.58808" lon="11.90304">
        <ele>1444.52</ele>
        <time>2012-08-01T16:21:27Z</time>
      </trkpt>
      <trkpt lat="46.58804" lon="11.90305">
        <ele>1441.15</ele>
        <time>2012-08-01T16:21:42Z</time>
      </trkpt>
      <trkpt lat="46.58803" lon="11.90305">
        <ele>1437.79</ele>
        <time>2012-08-01T16:21:49Z</time>
      </trkpt>
      <trkpt lat="46.58804" lon="11.90307">
        <ele>1437.31</ele>
        <time>2012-08-01T16:21:51Z</time>
      </trkpt>
      <trkpt lat="46.58805" lon="11.90308">
        <ele>1435.87</ele>
        <time>2012-08-01T16:21:53Z</time>
      </trkpt>
      <trkpt lat="46.58808" lon="11.90309">
        <ele>1432.5</ele>
        <time>2012-08-01T16:21:59Z</time>
      </trkpt>
      <trkpt lat="46.58808" lon="11.90309">
        <ele>1432.5</ele>
        <time>2012-08-01T16:22:00Z</time>
      </trkpt>
      <trkpt lat="46.58809" lon="11.9031">
        <ele>1429.62</ele>
        <time>2012-08-01T16:22:06Z</time>
      </trkpt>
      <trkpt lat="46.58809" lon="11.90311">
        <ele>1426.25</ele>
        <time>2012-08-01T16:22:15Z</time>
      </trkpt>
      <trkpt lat="46.58809" lon="11.90314">
        <ele>1422.89</ele>
        <time>2012-08-01T16:22:30Z</time>
      </trkpt>
      <trkpt lat="46.58807" lon="11.90317">
        <ele>1420</ele>
        <time>2012-08-01T16:22:50Z</time>
      </trkpt>
      <trkpt lat="46.58809" lon="11.90312">
        <ele>1416.64</ele>
        <time>2012-08-01T16:23:13Z</time>
      </trkpt>
      <trkpt lat="46.5881" lon="11.90311">
        <ele>1413.76</ele>
        <time>2012-08-01T16:23:36Z</time>
      </trkpt>
      <trkpt lat="46.58809" lon="11.90309">
        <ele>1407.03</ele>
        <time>2012-08-01T16:23:50Z</time>
      </trkpt>
      <trkpt lat="46.58809" lon="11.90309">
        <ele>1418.08</ele>
        <time>2012-08-01T16:23:51Z</time>
      </trkpt>
      <trkpt lat="46.58809" lon="11.90309">
        <ele>1412.79</ele>
        <time>2012-08-01T16:23:52Z</time>
      </trkpt>
      <trkpt lat="46.58809" lon="11.90309">
        <ele>1413.28</ele>
        <time>2012-08-01T16:23:53Z</time>
      </trkpt>
      <trkpt lat="46.58809" lon="11.90307">
        <ele>1412.79</ele>
        <time>2012-08-01T16:24:15Z</time>
      </trkpt>
      <trkpt lat="46.58807" lon="11.90303">
        <ele>1408.47</ele>
        <time>2012-08-01T16:24:22Z</time>
      </trkpt>
      <trkpt lat="46.58806" lon="11.90303">
        <ele>1413.76</ele>
        <time>2012-08-01T16:24:23Z</time>
      </trkpt>
      <trkpt lat="46.58805" lon="11.90301">
        <ele>1412.79</ele>
        <time>2012-08-01T16:24:27Z</time>
      </trkpt>
      <trkpt lat="46.58795" lon="11.90298">
        <ele>1413.28</ele>
        <time>2012-08-01T16:24:31Z</time>
      </trkpt>
      <trkpt lat="46.58791" lon="11.903">
        <ele>1413.28</ele>
        <time>2012-08-01T16:24:32Z</time>
      </trkpt>
      <trkpt lat="46.58785" lon="11.90304">
        <ele>1414.24</ele>
        <time>2012-08-01T16:24:33Z</time>
      </trkpt>
      <trkpt lat="46.58762" lon="11.90315">
        <ele>1415.68</ele>
        <time>2012-08-01T16:24:36Z</time>
      </trkpt>
      <trkpt lat="46.58721" lon="11.90335">
        <ele>1418.08</ele>
        <time>2012-08-01T16:24:40Z</time>
      </trkpt>
      <trkpt lat="46.58581" lon="11.904">
        <ele>1420.97</ele>
        <time>2012-08-01T16:24:53Z</time>
      </trkpt>
      <trkpt lat="46.58531" lon="11.90428">
        <ele>1421.93</ele>
        <time>2012-08-01T16:24:58Z</time>
      </trkpt>
      <trkpt lat="46.58521" lon="11.90431">
        <ele>1422.41</ele>
        <time>2012-08-01T16:24:59Z</time>
      </trkpt>
      <trkpt lat="46.5851" lon="11.90432">
        <ele>1422.89</ele>
        <time>2012-08-01T16:25:00Z</time>
      </trkpt>
      <trkpt lat="46.585" lon="11.90431">
        <ele>1423.37</ele>
        <time>2012-08-01T16:25:01Z</time>
      </trkpt>
      <trkpt lat="46.58489" lon="11.90428">
        <ele>1423.37</ele>
        <time>2012-08-01T16:25:02Z</time>
      </trkpt>
      <trkpt lat="46.58478" lon="11.90425">
        <ele>1423.85</ele>
        <time>2012-08-01T16:25:03Z</time>
      </trkpt>
      <trkpt lat="46.58444" lon="11.90416">
        <ele>1424.81</ele>
        <time>2012-08-01T16:25:06Z</time>
      </trkpt>
      <trkpt lat="46.58336" lon="11.90389">
        <ele>1426.73</ele>
        <time>2012-08-01T16:25:16Z</time>
      </trkpt>
      <trkpt lat="46.58317" lon="11.90381">
        <ele>1427.21</ele>
        <time>2012-08-01T16:25:18Z</time>
      </trkpt>
      <trkpt lat="46.58276" lon="11.90366">
        <ele>1427.7</ele>
        <time>2012-08-01T16:25:22Z</time>
      </trkpt>
      <trkpt lat="46.58267" lon="11.90359">
        <ele>1428.18</ele>
        <time>2012-08-01T16:25:23Z</time>
      </trkpt>
      <trkpt lat="46.58259" lon="11.90349">
        <ele>1428.18</ele>
        <time>2012-08-01T16:25:24Z</time>
      </trkpt>
      <trkpt lat="46.58205" lon="11.90189">
        <ele>1431.54</ele>
        <time>2012-08-01T16:25:35Z</time>
      </trkpt>
      <trkpt lat="46.58201" lon="11.90173">
        <ele>1432.5</ele>
        <time>2012-08-01T16:25:36Z</time>
      </trkpt>
      <trkpt lat="46.58197" lon="11.90158">
        <ele>1432.5</ele>
        <time>2012-08-01T16:25:37Z</time>
      </trkpt>
      <trkpt lat="46.5819" lon="11.90143">
        <ele>1432.98</ele>
        <time>2012-08-01T16:25:38Z</time>
      </trkpt>
      <trkpt lat="46.58162" lon="11.90095">
        <ele>1433.94</ele>
        <time>2012-08-01T16:25:43Z</time>
      </trkpt>
      <trkpt lat="46.58111" lon="11.90028">
        <ele>1438.75</ele>
        <time>2012-08-01T16:25:49Z</time>
      </trkpt>
      <trkpt lat="46.58102" lon="11.90017">
        <ele>1437.79</ele>
        <time>2012-08-01T16:25:50Z</time>
      </trkpt>
      <trkpt lat="46.58039" lon="11.89939">
        <ele>1441.15</ele>
        <time>2012-08-01T16:25:57Z</time>
      </trkpt>
      <trkpt lat="46.58034" lon="11.89927">
        <ele>1439.71</ele>
        <time>2012-08-01T16:25:58Z</time>
      </trkpt>
      <trkpt lat="46.58024" lon="11.89904">
        <ele>1439.23</ele>
        <time>2012-08-01T16:26:00Z</time>
      </trkpt>
      <trkpt lat="46.58018" lon="11.89893">
        <ele>1439.71</ele>
        <time>2012-08-01T16:26:01Z</time>
      </trkpt>
      <trkpt lat="46.58011" lon="11.89884">
        <ele>1439.23</ele>
        <time>2012-08-01T16:26:02Z</time>
      </trkpt>
      <trkpt lat="46.58003" lon="11.89876">
        <ele>1440.19</ele>
        <time>2012-08-01T16:26:03Z</time>
      </trkpt>
      <trkpt lat="46.57895" lon="11.89798">
        <ele>1440.67</ele>
        <time>2012-08-01T16:26:14Z</time>
      </trkpt>
      <trkpt lat="46.57887" lon="11.89788">
        <ele>1440.67</ele>
        <time>2012-08-01T16:26:15Z</time>
      </trkpt>
      <trkpt lat="46.5788" lon="11.89777">
        <ele>1439.23</ele>
        <time>2012-08-01T16:26:16Z</time>
      </trkpt>
      <trkpt lat="46.578" lon="11.89615">
        <ele>1441.15</ele>
        <time>2012-08-01T16:26:28Z</time>
      </trkpt>
      <trkpt lat="46.57756" lon="11.89508">
        <ele>1441.63</ele>
        <time>2012-08-01T16:26:35Z</time>
      </trkpt>
      <trkpt lat="46.57748" lon="11.89495">
        <ele>1442.11</ele>
        <time>2012-08-01T16:26:36Z</time>
      </trkpt>
      <trkpt lat="46.57738" lon="11.89484">
        <ele>1442.11</ele>
        <time>2012-08-01T16:26:37Z</time>
      </trkpt>
      <trkpt lat="46.57727" lon="11.89475">
        <ele>1442.11</ele>
        <time>2012-08-01T16:26:38Z</time>
      </trkpt>
      <trkpt lat="46.57717" lon="11.89466">
        <ele>1441.63</ele>
        <time>2012-08-01T16:26:39Z</time>
      </trkpt>
      <trkpt lat="46.57661" lon="11.89408">
        <ele>1441.63</ele>
        <time>2012-08-01T16:26:45Z</time>
      </trkpt>
      <trkpt lat="46.57654" lon="11.89395">
        <ele>1441.63</ele>
        <time>2012-08-01T16:26:46Z</time>
      </trkpt>
      <trkpt lat="46.57617" lon="11.89324">
        <ele>1441.63</ele>
        <time>2012-08-01T16:26:52Z</time>
      </trkpt>
      <trkpt lat="46.57608" lon="11.89314">
        <ele>1441.63</ele>
        <time>2012-08-01T16:26:53Z</time>
      </trkpt>
      <trkpt lat="46.57597" lon="11.89307">
        <ele>1441.15</ele>
        <time>2012-08-01T16:26:54Z</time>
      </trkpt>
      <trkpt lat="46.57586" lon="11.89303">
        <ele>1442.6</ele>
        <time>2012-08-01T16:26:55Z</time>
      </trkpt>
      <trkpt lat="46.57574" lon="11.89301">
        <ele>1443.08</ele>
        <time>2012-08-01T16:26:56Z</time>
      </trkpt>
      <trkpt lat="46.57561" lon="11.893">
        <ele>1443.56</ele>
        <time>2012-08-01T16:26:57Z</time>
      </trkpt>
      <trkpt lat="46.5753" lon="11.893">
        <ele>1445</ele>
        <time>2012-08-01T16:27:00Z</time>
      </trkpt>
      <trkpt lat="46.57471" lon="11.89298">
        <ele>1447.88</ele>
        <time>2012-08-01T16:27:07Z</time>
      </trkpt>
      <trkpt lat="46.57461" lon="11.89296">
        <ele>1448.84</ele>
        <time>2012-08-01T16:27:08Z</time>
      </trkpt>
      <trkpt lat="46.57452" lon="11.89294">
        <ele>1449.32</ele>
        <time>2012-08-01T16:27:09Z</time>
      </trkpt>
      <trkpt lat="46.57444" lon="11.8929">
        <ele>1449.81</ele>
        <time>2012-08-01T16:27:10Z</time>
      </trkpt>
      <trkpt lat="46.57436" lon="11.89286">
        <ele>1449.81</ele>
        <time>2012-08-01T16:27:11Z</time>
      </trkpt>
      <trkpt lat="46.57428" lon="11.89282">
        <ele>1450.29</ele>
        <time>2012-08-01T16:27:12Z</time>
      </trkpt>
      <trkpt lat="46.57375" lon="11.89247">
        <ele>1452.69</ele>
        <time>2012-08-01T16:27:18Z</time>
      </trkpt>
      <trkpt lat="46.57367" lon="11.89239">
        <ele>1452.69</ele>
        <time>2012-08-01T16:27:19Z</time>
      </trkpt>
      <trkpt lat="46.57359" lon="11.89231">
        <ele>1452.21</ele>
        <time>2012-08-01T16:27:20Z</time>
      </trkpt>
      <trkpt lat="46.57284" lon="11.89156">
        <ele>1454.61</ele>
        <time>2012-08-01T16:27:29Z</time>
      </trkpt>
      <trkpt lat="46.57231" lon="11.89114">
        <ele>1456.53</ele>
        <time>2012-08-01T16:27:34Z</time>
      </trkpt>
      <trkpt lat="46.5722" lon="11.89109">
        <ele>1457.02</ele>
        <time>2012-08-01T16:27:35Z</time>
      </trkpt>
      <trkpt lat="46.57209" lon="11.89107">
        <ele>1457.02</ele>
        <time>2012-08-01T16:27:36Z</time>
      </trkpt>
      <trkpt lat="46.57198" lon="11.89106">
        <ele>1457.5</ele>
        <time>2012-08-01T16:27:37Z</time>
      </trkpt>
      <trkpt lat="46.57186" lon="11.89106">
        <ele>1457.98</ele>
        <time>2012-08-01T16:27:38Z</time>
      </trkpt>
      <trkpt lat="46.57175" lon="11.89104">
        <ele>1458.94</ele>
        <time>2012-08-01T16:27:39Z</time>
      </trkpt>
      <trkpt lat="46.57164" lon="11.89101">
        <ele>1458.94</ele>
        <time>2012-08-01T16:27:40Z</time>
      </trkpt>
      <trkpt lat="46.57123" lon="11.89088">
        <ele>1460.38</ele>
        <time>2012-08-01T16:27:44Z</time>
      </trkpt>
      <trkpt lat="46.57029" lon="11.89082">
        <ele>1463.74</ele>
        <time>2012-08-01T16:27:52Z</time>
      </trkpt>
      <trkpt lat="46.57015" lon="11.89082">
        <ele>1464.23</ele>
        <time>2012-08-01T16:27:53Z</time>
      </trkpt>
      <trkpt lat="46.56938" lon="11.8907">
        <ele>1465.19</ele>
        <time>2012-08-01T16:28:00Z</time>
      </trkpt>
      <trkpt lat="46.56918" lon="11.89058">
        <ele>1465.67</ele>
        <time>2012-08-01T16:28:02Z</time>
      </trkpt>
      <trkpt lat="46.56909" lon="11.89051">
        <ele>1465.67</ele>
        <time>2012-08-01T16:28:03Z</time>
      </trkpt>
      <trkpt lat="46.569" lon="11.89044">
        <ele>1465.67</ele>
        <time>2012-08-01T16:28:04Z</time>
      </trkpt>
      <trkpt lat="46.56893" lon="11.89035">
        <ele>1466.15</ele>
        <time>2012-08-01T16:28:05Z</time>
      </trkpt>
      <trkpt lat="46.56885" lon="11.89026">
        <ele>1466.63</ele>
        <time>2012-08-01T16:28:06Z</time>
      </trkpt>
      <trkpt lat="46.56878" lon="11.89016">
        <ele>1467.11</ele>
        <time>2012-08-01T16:28:07Z</time>
      </trkpt>
      <trkpt lat="46.56871" lon="11.89005">
        <ele>1467.11</ele>
        <time>2012-08-01T16:28:08Z</time>
      </trkpt>
      <trkpt lat="46.56864" lon="11.88992">
        <ele>1467.59</ele>
        <time>2012-08-01T16:28:09Z</time>
      </trkpt>
      <trkpt lat="46.56858" lon="11.88979">
        <ele>1468.07</ele>
        <time>2012-08-01T16:28:10Z</time>
      </trkpt>
      <trkpt lat="46.56853" lon="11.88966">
        <ele>1469.03</ele>
        <time>2012-08-01T16:28:11Z</time>
      </trkpt>
      <trkpt lat="46.56849" lon="11.88951">
        <ele>1469.03</ele>
        <time>2012-08-01T16:28:12Z</time>
      </trkpt>
      <trkpt lat="46.56796" lon="11.8879">
        <ele>1470.95</ele>
        <time>2012-08-01T16:28:24Z</time>
      </trkpt>
      <trkpt lat="46.56772" lon="11.88749">
        <ele>1471.92</ele>
        <time>2012-08-01T16:28:28Z</time>
      </trkpt>
      <trkpt lat="46.56765" lon="11.8874">
        <ele>1471.92</ele>
        <time>2012-08-01T16:28:29Z</time>
      </trkpt>
      <trkpt lat="46.56756" lon="11.88733">
        <ele>1471.44</ele>
        <time>2012-08-01T16:28:30Z</time>
      </trkpt>
      <trkpt lat="46.56748" lon="11.88728">
        <ele>1471.44</ele>
        <time>2012-08-01T16:28:31Z</time>
      </trkpt>
      <trkpt lat="46.56739" lon="11.88724">
        <ele>1471.92</ele>
        <time>2012-08-01T16:28:32Z</time>
      </trkpt>
      <trkpt lat="46.5673" lon="11.88721">
        <ele>1471.92</ele>
        <time>2012-08-01T16:28:33Z</time>
      </trkpt>
      <trkpt lat="46.56719" lon="11.88719">
        <ele>1471.92</ele>
        <time>2012-08-01T16:28:34Z</time>
      </trkpt>
      <trkpt lat="46.56709" lon="11.88719">
        <ele>1471.92</ele>
        <time>2012-08-01T16:28:35Z</time>
      </trkpt>
      <trkpt lat="46.567" lon="11.8872">
        <ele>1471.92</ele>
        <time>2012-08-01T16:28:36Z</time>
      </trkpt>
      <trkpt lat="46.56691" lon="11.88722">
        <ele>1472.4</ele>
        <time>2012-08-01T16:28:37Z</time>
      </trkpt>
      <trkpt lat="46.56682" lon="11.88726">
        <ele>1472.4</ele>
        <time>2012-08-01T16:28:38Z</time>
      </trkpt>
      <trkpt lat="46.56673" lon="11.88731">
        <ele>1472.4</ele>
        <time>2012-08-01T16:28:39Z</time>
      </trkpt>
      <trkpt lat="46.56653" lon="11.88739">
        <ele>1472.88</ele>
        <time>2012-08-01T16:28:41Z</time>
      </trkpt>
      <trkpt lat="46.56642" lon="11.88741">
        <ele>1474.32</ele>
        <time>2012-08-01T16:28:42Z</time>
      </trkpt>
      <trkpt lat="46.5663" lon="11.88741">
        <ele>1474.8</ele>
        <time>2012-08-01T16:28:43Z</time>
      </trkpt>
      <trkpt lat="46.56618" lon="11.8874">
        <ele>1475.76</ele>
        <time>2012-08-01T16:28:44Z</time>
      </trkpt>
      <trkpt lat="46.56605" lon="11.88736">
        <ele>1476.72</ele>
        <time>2012-08-01T16:28:45Z</time>
      </trkpt>
      <trkpt lat="46.56592" lon="11.88732">
        <ele>1477.68</ele>
        <time>2012-08-01T16:28:46Z</time>
      </trkpt>
      <trkpt lat="46.5658" lon="11.88727">
        <ele>1478.16</ele>
        <time>2012-08-01T16:28:47Z</time>
      </trkpt>
      <trkpt lat="46.56511" lon="11.88692">
        <ele>1482.01</ele>
        <time>2012-08-01T16:28:54Z</time>
      </trkpt>
      <trkpt lat="46.56476" lon="11.88675">
        <ele>1484.41</ele>
        <time>2012-08-01T16:28:58Z</time>
      </trkpt>
      <trkpt lat="46.56456" lon="11.88661">
        <ele>1486.34</ele>
        <time>2012-08-01T16:29:00Z</time>
      </trkpt>
      <trkpt lat="46.56446" lon="11.88652">
        <ele>1487.3</ele>
        <time>2012-08-01T16:29:01Z</time>
      </trkpt>
      <trkpt lat="46.56436" lon="11.88641">
        <ele>1488.26</ele>
        <time>2012-08-01T16:29:02Z</time>
      </trkpt>
      <trkpt lat="46.56425" lon="11.88627">
        <ele>1489.7</ele>
        <time>2012-08-01T16:29:03Z</time>
      </trkpt>
      <trkpt lat="46.56414" lon="11.88611">
        <ele>1492.1</ele>
        <time>2012-08-01T16:29:04Z</time>
      </trkpt>
      <trkpt lat="46.56392" lon="11.88577">
        <ele>1493.06</ele>
        <time>2012-08-01T16:29:06Z</time>
      </trkpt>
      <trkpt lat="46.56346" lon="11.88515">
        <ele>1494.99</ele>
        <time>2012-08-01T16:29:12Z</time>
      </trkpt>
      <trkpt lat="46.56311" lon="11.8848">
        <ele>1497.87</ele>
        <time>2012-08-01T16:29:16Z</time>
      </trkpt>
      <trkpt lat="46.56284" lon="11.88452">
        <ele>1499.79</ele>
        <time>2012-08-01T16:29:19Z</time>
      </trkpt>
      <trkpt lat="46.56256" lon="11.88425">
        <ele>1501.24</ele>
        <time>2012-08-01T16:29:22Z</time>
      </trkpt>
      <trkpt lat="46.56247" lon="11.88414">
        <ele>1501.72</ele>
        <time>2012-08-01T16:29:23Z</time>
      </trkpt>
      <trkpt lat="46.56239" lon="11.88402">
        <ele>1502.68</ele>
        <time>2012-08-01T16:29:24Z</time>
      </trkpt>
      <trkpt lat="46.56231" lon="11.88389">
        <ele>1502.68</ele>
        <time>2012-08-01T16:29:25Z</time>
      </trkpt>
      <trkpt lat="46.56192" lon="11.88324">
        <ele>1504.6</ele>
        <time>2012-08-01T16:29:30Z</time>
      </trkpt>
      <trkpt lat="46.56168" lon="11.88297">
        <ele>1507.48</ele>
        <time>2012-08-01T16:29:32Z</time>
      </trkpt>
      <trkpt lat="46.56145" lon="11.88278">
        <ele>1507</ele>
        <time>2012-08-01T16:29:34Z</time>
      </trkpt>
      <trkpt lat="46.56085" lon="11.88233">
        <ele>1507.97</ele>
        <time>2012-08-01T16:29:37Z</time>
      </trkpt>
      <trkpt lat="46.5605" lon="11.88217">
        <ele>1507.48</ele>
        <time>2012-08-01T16:29:39Z</time>
      </trkpt>
      <trkpt lat="46.56002" lon="11.88202">
        <ele>1505.56</ele>
        <time>2012-08-01T16:29:42Z</time>
      </trkpt>
      <trkpt lat="46.55989" lon="11.88191">
        <ele>1505.08</ele>
        <time>2012-08-01T16:29:43Z</time>
      </trkpt>
      <trkpt lat="46.55975" lon="11.88175">
        <ele>1506.04</ele>
        <time>2012-08-01T16:29:44Z</time>
      </trkpt>
      <trkpt lat="46.55964" lon="11.88157">
        <ele>1506.52</ele>
        <time>2012-08-01T16:29:45Z</time>
      </trkpt>
      <trkpt lat="46.55953" lon="11.88136">
        <ele>1506.04</ele>
        <time>2012-08-01T16:29:46Z</time>
      </trkpt>
      <trkpt lat="46.55783" lon="11.87847">
        <ele>1505.56</ele>
        <time>2012-08-01T16:30:00Z</time>
      </trkpt>
      <trkpt lat="46.55735" lon="11.8777">
        <ele>1503.64</ele>
        <time>2012-08-01T16:30:04Z</time>
      </trkpt>
      <trkpt lat="46.55721" lon="11.87755">
        <ele>1504.12</ele>
        <time>2012-08-01T16:30:05Z</time>
      </trkpt>
      <trkpt lat="46.55705" lon="11.87743">
        <ele>1504.6</ele>
        <time>2012-08-01T16:30:06Z</time>
      </trkpt>
      <trkpt lat="46.55597" lon="11.87674">
        <ele>1507.97</ele>
        <time>2012-08-01T16:30:13Z</time>
      </trkpt>
      <trkpt lat="46.55582" lon="11.87664">
        <ele>1507.97</ele>
        <time>2012-08-01T16:30:14Z</time>
      </trkpt>
      <trkpt lat="46.55501" lon="11.87613">
        <ele>1508.93</ele>
        <time>2012-08-01T16:30:21Z</time>
      </trkpt>
      <trkpt lat="46.55476" lon="11.87598">
        <ele>1509.89</ele>
        <time>2012-08-01T16:30:23Z</time>
      </trkpt>
      <trkpt lat="46.55436" lon="11.87573">
        <ele>1512.29</ele>
        <time>2012-08-01T16:30:26Z</time>
      </trkpt>
      <trkpt lat="46.55393" lon="11.87546">
        <ele>1515.18</ele>
        <time>2012-08-01T16:30:29Z</time>
      </trkpt>
      <trkpt lat="46.553" lon="11.87485">
        <ele>1518.06</ele>
        <time>2012-08-01T16:30:36Z</time>
      </trkpt>
      <trkpt lat="46.55256" lon="11.87457">
        <ele>1519.02</ele>
        <time>2012-08-01T16:30:40Z</time>
      </trkpt>
      <trkpt lat="46.55185" lon="11.87424">
        <ele>1522.39</ele>
        <time>2012-08-01T16:30:46Z</time>
      </trkpt>
      <trkpt lat="46.5516" lon="11.87417">
        <ele>1523.35</ele>
        <time>2012-08-01T16:30:48Z</time>
      </trkpt>
      <trkpt lat="46.55073" lon="11.87418">
        <ele>1527.19</ele>
        <time>2012-08-01T16:30:55Z</time>
      </trkpt>
      <trkpt lat="46.54992" lon="11.87444">
        <ele>1530.08</ele>
        <time>2012-08-01T16:31:03Z</time>
      </trkpt>
      <trkpt lat="46.5494" lon="11.87463">
        <ele>1532.96</ele>
        <time>2012-08-01T16:31:11Z</time>
      </trkpt>
      <trkpt lat="46.54884" lon="11.87483">
        <ele>1536.8</ele>
        <time>2012-08-01T16:31:19Z</time>
      </trkpt>
      <trkpt lat="46.54877" lon="11.87486">
        <ele>1536.8</ele>
        <time>2012-08-01T16:31:20Z</time>
      </trkpt>
      <trkpt lat="46.54839" lon="11.87499">
        <ele>1540.17</ele>
        <time>2012-08-01T16:31:25Z</time>
      </trkpt>
      <trkpt lat="46.54788" lon="11.8752">
        <ele>1543.53</ele>
        <time>2012-08-01T16:31:33Z</time>
      </trkpt>
      <trkpt lat="46.54766" lon="11.87533">
        <ele>1545.46</ele>
        <time>2012-08-01T16:31:37Z</time>
      </trkpt>
      <trkpt lat="46.5476" lon="11.87535">
        <ele>1545.94</ele>
        <time>2012-08-01T16:31:38Z</time>
      </trkpt>
      <trkpt lat="46.54754" lon="11.87535">
        <ele>1546.42</ele>
        <time>2012-08-01T16:31:39Z</time>
      </trkpt>
      <trkpt lat="46.54748" lon="11.87534">
        <ele>1546.9</ele>
        <time>2012-08-01T16:31:40Z</time>
      </trkpt>
      <trkpt lat="46.54743" lon="11.87531">
        <ele>1547.38</ele>
        <time>2012-08-01T16:31:41Z</time>
      </trkpt>
      <trkpt lat="46.54739" lon="11.87527">
        <ele>1547.38</ele>
        <time>2012-08-01T16:31:42Z</time>
      </trkpt>
      <trkpt lat="46.54734" lon="11.87524">
        <ele>1547.38</ele>
        <time>2012-08-01T16:31:43Z</time>
      </trkpt>
      <trkpt lat="46.54731" lon="11.8752">
        <ele>1547.86</ele>
        <time>2012-08-01T16:31:44Z</time>
      </trkpt>
      <trkpt lat="46.54727" lon="11.87517">
        <ele>1548.34</ele>
        <time>2012-08-01T16:31:45Z</time>
      </trkpt>
      <trkpt lat="46.54723" lon="11.87513">
        <ele>1548.34</ele>
        <time>2012-08-01T16:31:46Z</time>
      </trkpt>
      <trkpt lat="46.54719" lon="11.8751">
        <ele>1548.82</ele>
        <time>2012-08-01T16:31:47Z</time>
      </trkpt>
      <trkpt lat="46.54714" lon="11.87508">
        <ele>1549.3</ele>
        <time>2012-08-01T16:31:48Z</time>
      </trkpt>
      <trkpt lat="46.54708" lon="11.87508">
        <ele>1549.78</ele>
        <time>2012-08-01T16:31:49Z</time>
      </trkpt>
      <trkpt lat="46.54702" lon="11.87508">
        <ele>1550.26</ele>
        <time>2012-08-01T16:31:50Z</time>
      </trkpt>
      <trkpt lat="46.5469" lon="11.87511">
        <ele>1551.22</ele>
        <time>2012-08-01T16:31:52Z</time>
      </trkpt>
      <trkpt lat="46.54685" lon="11.87514">
        <ele>1551.71</ele>
        <time>2012-08-01T16:31:53Z</time>
      </trkpt>
      <trkpt lat="46.54681" lon="11.8752">
        <ele>1551.71</ele>
        <time>2012-08-01T16:31:54Z</time>
      </trkpt>
      <trkpt lat="46.54678" lon="11.87527">
        <ele>1552.19</ele>
        <time>2012-08-01T16:31:55Z</time>
      </trkpt>
      <trkpt lat="46.54676" lon="11.87536">
        <ele>1552.67</ele>
        <time>2012-08-01T16:31:56Z</time>
      </trkpt>
      <trkpt lat="46.54678" lon="11.87544">
        <ele>1552.67</ele>
        <time>2012-08-01T16:31:57Z</time>
      </trkpt>
      <trkpt lat="46.5468" lon="11.87552">
        <ele>1553.63</ele>
        <time>2012-08-01T16:31:58Z</time>
      </trkpt>
      <trkpt lat="46.54685" lon="11.87558">
        <ele>1554.11</ele>
        <time>2012-08-01T16:31:59Z</time>
      </trkpt>
      <trkpt lat="46.54689" lon="11.87563">
        <ele>1554.11</ele>
        <time>2012-08-01T16:32:00Z</time>
      </trkpt>
      <trkpt lat="46.54693" lon="11.87568">
        <ele>1554.11</ele>
        <time>2012-08-01T16:32:01Z</time>
      </trkpt>
      <trkpt lat="46.54696" lon="11.87573">
        <ele>1555.07</ele>
        <time>2012-08-01T16:32:02Z</time>
      </trkpt>
      <trkpt lat="46.54699" lon="11.8758">
        <ele>1555.55</ele>
        <time>2012-08-01T16:32:03Z</time>
      </trkpt>
      <trkpt lat="46.54699" lon="11.87588">
        <ele>1555.55</ele>
        <time>2012-08-01T16:32:04Z</time>
      </trkpt>
      <trkpt lat="46.54698" lon="11.87594">
        <ele>1556.51</ele>
        <time>2012-08-01T16:32:05Z</time>
      </trkpt>
      <trkpt lat="46.54695" lon="11.876">
        <ele>1556.03</ele>
        <time>2012-08-01T16:32:06Z</time>
      </trkpt>
      <trkpt lat="46.54691" lon="11.87605">
        <ele>1556.51</ele>
        <time>2012-08-01T16:32:07Z</time>
      </trkpt>
      <trkpt lat="46.54687" lon="11.87609">
        <ele>1556.99</ele>
        <time>2012-08-01T16:32:08Z</time>
      </trkpt>
      <trkpt lat="46.54682" lon="11.87612">
        <ele>1557.47</ele>
        <time>2012-08-01T16:32:09Z</time>
      </trkpt>
      <trkpt lat="46.54658" lon="11.87631">
        <ele>1559.4</ele>
        <time>2012-08-01T16:32:13Z</time>
      </trkpt>
      <trkpt lat="46.54652" lon="11.87633">
        <ele>1559.4</ele>
        <time>2012-08-01T16:32:14Z</time>
      </trkpt>
      <trkpt lat="46.54644" lon="11.87633">
        <ele>1560.36</ele>
        <time>2012-08-01T16:32:15Z</time>
      </trkpt>
      <trkpt lat="46.54635" lon="11.8763">
        <ele>1560.84</ele>
        <time>2012-08-01T16:32:16Z</time>
      </trkpt>
      <trkpt lat="46.54626" lon="11.87624">
        <ele>1561.32</ele>
        <time>2012-08-01T16:32:17Z</time>
      </trkpt>
      <trkpt lat="46.54617" lon="11.87618">
        <ele>1560.84</ele>
        <time>2012-08-01T16:32:18Z</time>
      </trkpt>
      <trkpt lat="46.54609" lon="11.87611">
        <ele>1561.32</ele>
        <time>2012-08-01T16:32:19Z</time>
      </trkpt>
      <trkpt lat="46.54603" lon="11.87601">
        <ele>1562.28</ele>
        <time>2012-08-01T16:32:20Z</time>
      </trkpt>
      <trkpt lat="46.54598" lon="11.87591">
        <ele>1562.76</ele>
        <time>2012-08-01T16:32:21Z</time>
      </trkpt>
      <trkpt lat="46.54595" lon="11.87582">
        <ele>1563.72</ele>
        <time>2012-08-01T16:32:22Z</time>
      </trkpt>
      <trkpt lat="46.54594" lon="11.87571">
        <ele>1564.2</ele>
        <time>2012-08-01T16:32:23Z</time>
      </trkpt>
      <trkpt lat="46.54593" lon="11.87561">
        <ele>1565.16</ele>
        <time>2012-08-01T16:32:24Z</time>
      </trkpt>
      <trkpt lat="46.54592" lon="11.8755">
        <ele>1565.64</ele>
        <time>2012-08-01T16:32:25Z</time>
      </trkpt>
      <trkpt lat="46.5459" lon="11.87531">
        <ele>1566.61</ele>
        <time>2012-08-01T16:32:27Z</time>
      </trkpt>
      <trkpt lat="46.54586" lon="11.87525">
        <ele>1567.09</ele>
        <time>2012-08-01T16:32:28Z</time>
      </trkpt>
      <trkpt lat="46.5458" lon="11.87523">
        <ele>1567.57</ele>
        <time>2012-08-01T16:32:29Z</time>
      </trkpt>
      <trkpt lat="46.54574" lon="11.87526">
        <ele>1568.05</ele>
        <time>2012-08-01T16:32:30Z</time>
      </trkpt>
      <trkpt lat="46.54569" lon="11.87533">
        <ele>1569.01</ele>
        <time>2012-08-01T16:32:31Z</time>
      </trkpt>
      <trkpt lat="46.54567" lon="11.87542">
        <ele>1569.49</ele>
        <time>2012-08-01T16:32:32Z</time>
      </trkpt>
      <trkpt lat="46.54567" lon="11.87553">
        <ele>1569.97</ele>
        <time>2012-08-01T16:32:33Z</time>
      </trkpt>
      <trkpt lat="46.54568" lon="11.87564">
        <ele>1570.45</ele>
        <time>2012-08-01T16:32:34Z</time>
      </trkpt>
      <trkpt lat="46.54568" lon="11.87596">
        <ele>1571.89</ele>
        <time>2012-08-01T16:32:37Z</time>
      </trkpt>
      <trkpt lat="46.54565" lon="11.87605">
        <ele>1572.85</ele>
        <time>2012-08-01T16:32:38Z</time>
      </trkpt>
      <trkpt lat="46.54559" lon="11.87609">
        <ele>1573.33</ele>
        <time>2012-08-01T16:32:39Z</time>
      </trkpt>
      <trkpt lat="46.54552" lon="11.87609">
        <ele>1574.3</ele>
        <time>2012-08-01T16:32:40Z</time>
      </trkpt>
      <trkpt lat="46.54543" lon="11.87605">
        <ele>1576.7</ele>
        <time>2012-08-01T16:32:41Z</time>
      </trkpt>
      <trkpt lat="46.54534" lon="11.87599">
        <ele>1578.14</ele>
        <time>2012-08-01T16:32:42Z</time>
      </trkpt>
      <trkpt lat="46.54524" lon="11.87591">
        <ele>1579.58</ele>
        <time>2012-08-01T16:32:43Z</time>
      </trkpt>
      <trkpt lat="46.54497" lon="11.87569">
        <ele>1581.99</ele>
        <time>2012-08-01T16:32:46Z</time>
      </trkpt>
      <trkpt lat="46.5449" lon="11.87568">
        <ele>1583.43</ele>
        <time>2012-08-01T16:32:47Z</time>
      </trkpt>
      <trkpt lat="46.54484" lon="11.87572">
        <ele>1583.91</ele>
        <time>2012-08-01T16:32:48Z</time>
      </trkpt>
      <trkpt lat="46.54479" lon="11.8758">
        <ele>1584.87</ele>
        <time>2012-08-01T16:32:49Z</time>
      </trkpt>
      <trkpt lat="46.54478" lon="11.87592">
        <ele>1584.87</ele>
        <time>2012-08-01T16:32:50Z</time>
      </trkpt>
      <trkpt lat="46.54481" lon="11.87605">
        <ele>1586.31</ele>
        <time>2012-08-01T16:32:51Z</time>
      </trkpt>
      <trkpt lat="46.54484" lon="11.87618">
        <ele>1586.79</ele>
        <time>2012-08-01T16:32:52Z</time>
      </trkpt>
      <trkpt lat="46.54489" lon="11.87632">
        <ele>1587.75</ele>
        <time>2012-08-01T16:32:53Z</time>
      </trkpt>
      <trkpt lat="46.54493" lon="11.87645">
        <ele>1588.24</ele>
        <time>2012-08-01T16:32:54Z</time>
      </trkpt>
      <trkpt lat="46.54495" lon="11.87658">
        <ele>1588.72</ele>
        <time>2012-08-01T16:32:55Z</time>
      </trkpt>
      <trkpt lat="46.54493" lon="11.87669">
        <ele>1589.2</ele>
        <time>2012-08-01T16:32:56Z</time>
      </trkpt>
      <trkpt lat="46.54487" lon="11.87677">
        <ele>1591.12</ele>
        <time>2012-08-01T16:32:57Z</time>
      </trkpt>
      <trkpt lat="46.54478" lon="11.8768">
        <ele>1592.08</ele>
        <time>2012-08-01T16:32:58Z</time>
      </trkpt>
      <trkpt lat="46.54469" lon="11.87677">
        <ele>1594.48</ele>
        <time>2012-08-01T16:32:59Z</time>
      </trkpt>
      <trkpt lat="46.5446" lon="11.87672">
        <ele>1594.96</ele>
        <time>2012-08-01T16:33:00Z</time>
      </trkpt>
      <trkpt lat="46.54449" lon="11.87666">
        <ele>1595.45</ele>
        <time>2012-08-01T16:33:01Z</time>
      </trkpt>
      <trkpt lat="46.54439" lon="11.87661">
        <ele>1594.96</ele>
        <time>2012-08-01T16:33:02Z</time>
      </trkpt>
      <trkpt lat="46.5443" lon="11.87659">
        <ele>1594.96</ele>
        <time>2012-08-01T16:33:03Z</time>
      </trkpt>
      <trkpt lat="46.54423" lon="11.87663">
        <ele>1594.96</ele>
        <time>2012-08-01T16:33:04Z</time>
      </trkpt>
      <trkpt lat="46.54418" lon="11.8767">
        <ele>1594.96</ele>
        <time>2012-08-01T16:33:05Z</time>
      </trkpt>
      <trkpt lat="46.54414" lon="11.8768">
        <ele>1595.45</ele>
        <time>2012-08-01T16:33:06Z</time>
      </trkpt>
      <trkpt lat="46.54413" lon="11.87691">
        <ele>1595.93</ele>
        <time>2012-08-01T16:33:07Z</time>
      </trkpt>
      <trkpt lat="46.54414" lon="11.87705">
        <ele>1597.37</ele>
        <time>2012-08-01T16:33:08Z</time>
      </trkpt>
      <trkpt lat="46.54418" lon="11.87721">
        <ele>1597.85</ele>
        <time>2012-08-01T16:33:09Z</time>
      </trkpt>
      <trkpt lat="46.54422" lon="11.87738">
        <ele>1599.29</ele>
        <time>2012-08-01T16:33:10Z</time>
      </trkpt>
      <trkpt lat="46.54424" lon="11.87756">
        <ele>1600.25</ele>
        <time>2012-08-01T16:33:11Z</time>
      </trkpt>
      <trkpt lat="46.54424" lon="11.87776">
        <ele>1602.17</ele>
        <time>2012-08-01T16:33:12Z</time>
      </trkpt>
      <trkpt lat="46.54423" lon="11.87794">
        <ele>1603.62</ele>
        <time>2012-08-01T16:33:13Z</time>
      </trkpt>
      <trkpt lat="46.54422" lon="11.87813">
        <ele>1604.1</ele>
        <time>2012-08-01T16:33:14Z</time>
      </trkpt>
      <trkpt lat="46.54423" lon="11.87845">
        <ele>1606.02</ele>
        <time>2012-08-01T16:33:16Z</time>
      </trkpt>
      <trkpt lat="46.54421" lon="11.87858">
        <ele>1606.5</ele>
        <time>2012-08-01T16:33:17Z</time>
      </trkpt>
      <trkpt lat="46.54416" lon="11.87867">
        <ele>1606.98</ele>
        <time>2012-08-01T16:33:18Z</time>
      </trkpt>
      <trkpt lat="46.54409" lon="11.8787">
        <ele>1607.94</ele>
        <time>2012-08-01T16:33:19Z</time>
      </trkpt>
      <trkpt lat="46.54402" lon="11.87867">
        <ele>1608.9</ele>
        <time>2012-08-01T16:33:20Z</time>
      </trkpt>
      <trkpt lat="46.54397" lon="11.87857">
        <ele>1609.86</ele>
        <time>2012-08-01T16:33:21Z</time>
      </trkpt>
      <trkpt lat="46.54393" lon="11.87844">
        <ele>1611.31</ele>
        <time>2012-08-01T16:33:22Z</time>
      </trkpt>
      <trkpt lat="46.54389" lon="11.8783">
        <ele>1611.79</ele>
        <time>2012-08-01T16:33:23Z</time>
      </trkpt>
      <trkpt lat="46.54386" lon="11.87816">
        <ele>1612.27</ele>
        <time>2012-08-01T16:33:24Z</time>
      </trkpt>
      <trkpt lat="46.54379" lon="11.87779">
        <ele>1613.23</ele>
        <time>2012-08-01T16:33:27Z</time>
      </trkpt>
      <trkpt lat="46.54375" lon="11.87771">
        <ele>1613.71</ele>
        <time>2012-08-01T16:33:28Z</time>
      </trkpt>
      <trkpt lat="46.54369" lon="11.87765">
        <ele>1614.19</ele>
        <time>2012-08-01T16:33:29Z</time>
      </trkpt>
      <trkpt lat="46.54362" lon="11.87762">
        <ele>1613.71</ele>
        <time>2012-08-01T16:33:30Z</time>
      </trkpt>
      <trkpt lat="46.54354" lon="11.87764">
        <ele>1613.71</ele>
        <time>2012-08-01T16:33:31Z</time>
      </trkpt>
      <trkpt lat="46.54346" lon="11.87769">
        <ele>1617.56</ele>
        <time>2012-08-01T16:33:32Z</time>
      </trkpt>
      <trkpt lat="46.54338" lon="11.87777">
        <ele>1618.52</ele>
        <time>2012-08-01T16:33:33Z</time>
      </trkpt>
      <trkpt lat="46.54331" lon="11.87788">
        <ele>1619.96</ele>
        <time>2012-08-01T16:33:34Z</time>
      </trkpt>
      <trkpt lat="46.54327" lon="11.87802">
        <ele>1620.44</ele>
        <time>2012-08-01T16:33:35Z</time>
      </trkpt>
      <trkpt lat="46.54325" lon="11.87817">
        <ele>1621.4</ele>
        <time>2012-08-01T16:33:36Z</time>
      </trkpt>
      <trkpt lat="46.54326" lon="11.87834">
        <ele>1623.32</ele>
        <time>2012-08-01T16:33:37Z</time>
      </trkpt>
      <trkpt lat="46.5433" lon="11.87851">
        <ele>1622.84</ele>
        <time>2012-08-01T16:33:38Z</time>
      </trkpt>
      <trkpt lat="46.54334" lon="11.87868">
        <ele>1623.32</ele>
        <time>2012-08-01T16:33:39Z</time>
      </trkpt>
      <trkpt lat="46.54338" lon="11.87884">
        <ele>1624.28</ele>
        <time>2012-08-01T16:33:40Z</time>
      </trkpt>
      <trkpt lat="46.5434" lon="11.879">
        <ele>1623.8</ele>
        <time>2012-08-01T16:33:41Z</time>
      </trkpt>
      <trkpt lat="46.54339" lon="11.87916">
        <ele>1624.28</ele>
        <time>2012-08-01T16:33:42Z</time>
      </trkpt>
      <trkpt lat="46.54337" lon="11.87932">
        <ele>1625.25</ele>
        <time>2012-08-01T16:33:43Z</time>
      </trkpt>
      <trkpt lat="46.54331" lon="11.87948">
        <ele>1626.21</ele>
        <time>2012-08-01T16:33:44Z</time>
      </trkpt>
      <trkpt lat="46.54325" lon="11.87963">
        <ele>1628.13</ele>
        <time>2012-08-01T16:33:45Z</time>
      </trkpt>
      <trkpt lat="46.5431" lon="11.88005">
        <ele>1629.57</ele>
        <time>2012-08-01T16:33:48Z</time>
      </trkpt>
      <trkpt lat="46.54305" lon="11.88016">
        <ele>1630.53</ele>
        <time>2012-08-01T16:33:49Z</time>
      </trkpt>
      <trkpt lat="46.543" lon="11.88024">
        <ele>1630.53</ele>
        <time>2012-08-01T16:33:50Z</time>
      </trkpt>
      <trkpt lat="46.54293" lon="11.88025">
        <ele>1631.49</ele>
        <time>2012-08-01T16:33:51Z</time>
      </trkpt>
      <trkpt lat="46.54287" lon="11.88022">
        <ele>1632.94</ele>
        <time>2012-08-01T16:33:52Z</time>
      </trkpt>
      <trkpt lat="46.54282" lon="11.88016">
        <ele>1633.42</ele>
        <time>2012-08-01T16:33:53Z</time>
      </trkpt>
      <trkpt lat="46.54279" lon="11.88009">
        <ele>1633.42</ele>
        <time>2012-08-01T16:33:54Z</time>
      </trkpt>
      <trkpt lat="46.54278" lon="11.88002">
        <ele>1632.94</ele>
        <time>2012-08-01T16:33:55Z</time>
      </trkpt>
      <trkpt lat="46.54279" lon="11.87996">
        <ele>1632.94</ele>
        <time>2012-08-01T16:33:56Z</time>
      </trkpt>
      <trkpt lat="46.54278" lon="11.87992">
        <ele>1632.94</ele>
        <time>2012-08-01T16:33:57Z</time>
      </trkpt>
      <trkpt lat="46.54278" lon="11.87989">
        <ele>1632.94</ele>
        <time>2012-08-01T16:33:58Z</time>
      </trkpt>
      <trkpt lat="46.54278" lon="11.87988">
        <ele>1632.94</ele>
        <time>2012-08-01T16:34:07Z</time>
      </trkpt>
      <trkpt lat="46.5428" lon="11.87988">
        <ele>1633.42</ele>
        <time>2012-08-01T16:34:36Z</time>
      </trkpt>
      <trkpt lat="46.54281" lon="11.8799">
        <ele>1632.94</ele>
        <time>2012-08-01T16:35:03Z</time>
      </trkpt>
      <trkpt lat="46.5428" lon="11.87988">
        <ele>1632.94</ele>
        <time>2012-08-01T16:35:40Z</time>
      </trkpt>
      <trkpt lat="46.54277" lon="11.87984">
        <ele>1633.9</ele>
        <time>2012-08-01T16:35:56Z</time>
      </trkpt>
      <trkpt lat="46.54275" lon="11.87979">
        <ele>1633.9</ele>
        <time>2012-08-01T16:35:57Z</time>
      </trkpt>
      <trkpt lat="46.54271" lon="11.87962">
        <ele>1635.34</ele>
        <time>2012-08-01T16:35:59Z</time>
      </trkpt>
      <trkpt lat="46.54268" lon="11.87953">
        <ele>1636.3</ele>
        <time>2012-08-01T16:36:00Z</time>
      </trkpt>
      <trkpt lat="46.54263" lon="11.87945">
        <ele>1636.78</ele>
        <time>2012-08-01T16:36:01Z</time>
      </trkpt>
      <trkpt lat="46.54256" lon="11.87939">
        <ele>1637.74</ele>
        <time>2012-08-01T16:36:02Z</time>
      </trkpt>
      <trkpt lat="46.54248" lon="11.87937">
        <ele>1639.19</ele>
        <time>2012-08-01T16:36:03Z</time>
      </trkpt>
      <trkpt lat="46.5424" lon="11.87937">
        <ele>1639.67</ele>
        <time>2012-08-01T16:36:04Z</time>
      </trkpt>
      <trkpt lat="46.54233" lon="11.87941">
        <ele>1639.67</ele>
        <time>2012-08-01T16:36:05Z</time>
      </trkpt>
      <trkpt lat="46.54226" lon="11.87949">
        <ele>1640.63</ele>
        <time>2012-08-01T16:36:06Z</time>
      </trkpt>
      <trkpt lat="46.54223" lon="11.87959">
        <ele>1641.11</ele>
        <time>2012-08-01T16:36:07Z</time>
      </trkpt>
      <trkpt lat="46.54222" lon="11.8797">
        <ele>1642.07</ele>
        <time>2012-08-01T16:36:08Z</time>
      </trkpt>
      <trkpt lat="46.54223" lon="11.87983">
        <ele>1643.03</ele>
        <time>2012-08-01T16:36:09Z</time>
      </trkpt>
      <trkpt lat="46.54224" lon="11.87997">
        <ele>1644.47</ele>
        <time>2012-08-01T16:36:10Z</time>
      </trkpt>
      <trkpt lat="46.54224" lon="11.88012">
        <ele>1645.43</ele>
        <time>2012-08-01T16:36:11Z</time>
      </trkpt>
      <trkpt lat="46.54223" lon="11.88028">
        <ele>1646.4</ele>
        <time>2012-08-01T16:36:12Z</time>
      </trkpt>
      <trkpt lat="46.54222" lon="11.88045">
        <ele>1647.84</ele>
        <time>2012-08-01T16:36:13Z</time>
      </trkpt>
      <trkpt lat="46.54211" lon="11.88119">
        <ele>1651.68</ele>
        <time>2012-08-01T16:36:17Z</time>
      </trkpt>
      <trkpt lat="46.54207" lon="11.88157">
        <ele>1655.05</ele>
        <time>2012-08-01T16:36:19Z</time>
      </trkpt>
      <trkpt lat="46.54203" lon="11.88202">
        <ele>1656.49</ele>
        <time>2012-08-01T16:36:22Z</time>
      </trkpt>
      <trkpt lat="46.54199" lon="11.88211">
        <ele>1657.45</ele>
        <time>2012-08-01T16:36:23Z</time>
      </trkpt>
      <trkpt lat="46.54194" lon="11.88214">
        <ele>1657.45</ele>
        <time>2012-08-01T16:36:24Z</time>
      </trkpt>
      <trkpt lat="46.54188" lon="11.88211">
        <ele>1658.41</ele>
        <time>2012-08-01T16:36:25Z</time>
      </trkpt>
      <trkpt lat="46.54182" lon="11.88203">
        <ele>1659.37</ele>
        <time>2012-08-01T16:36:26Z</time>
      </trkpt>
      <trkpt lat="46.54177" lon="11.88193">
        <ele>1660.81</ele>
        <time>2012-08-01T16:36:27Z</time>
      </trkpt>
      <trkpt lat="46.54172" lon="11.88184">
        <ele>1660.81</ele>
        <time>2012-08-01T16:36:28Z</time>
      </trkpt>
      <trkpt lat="46.54167" lon="11.88176">
        <ele>1662.26</ele>
        <time>2012-08-01T16:36:29Z</time>
      </trkpt>
      <trkpt lat="46.54159" lon="11.88173">
        <ele>1662.74</ele>
        <time>2012-08-01T16:36:30Z</time>
      </trkpt>
      <trkpt lat="46.54151" lon="11.88174">
        <ele>1662.74</ele>
        <time>2012-08-01T16:36:31Z</time>
      </trkpt>
      <trkpt lat="46.54145" lon="11.88181">
        <ele>1663.22</ele>
        <time>2012-08-01T16:36:32Z</time>
      </trkpt>
      <trkpt lat="46.5414" lon="11.88192">
        <ele>1663.7</ele>
        <time>2012-08-01T16:36:33Z</time>
      </trkpt>
      <trkpt lat="46.54138" lon="11.88205">
        <ele>1664.66</ele>
        <time>2012-08-01T16:36:34Z</time>
      </trkpt>
      <trkpt lat="46.54137" lon="11.88219">
        <ele>1666.1</ele>
        <time>2012-08-01T16:36:35Z</time>
      </trkpt>
      <trkpt lat="46.54139" lon="11.88233">
        <ele>1667.06</ele>
        <time>2012-08-01T16:36:36Z</time>
      </trkpt>
      <trkpt lat="46.54142" lon="11.88248">
        <ele>1667.54</ele>
        <time>2012-08-01T16:36:37Z</time>
      </trkpt>
      <trkpt lat="46.54144" lon="11.88263">
        <ele>1668.51</ele>
        <time>2012-08-01T16:36:38Z</time>
      </trkpt>
      <trkpt lat="46.54142" lon="11.88277">
        <ele>1669.47</ele>
        <time>2012-08-01T16:36:39Z</time>
      </trkpt>
      <trkpt lat="46.54136" lon="11.88291">
        <ele>1671.39</ele>
        <time>2012-08-01T16:36:40Z</time>
      </trkpt>
      <trkpt lat="46.54129" lon="11.88305">
        <ele>1672.83</ele>
        <time>2012-08-01T16:36:41Z</time>
      </trkpt>
      <trkpt lat="46.54123" lon="11.88319">
        <ele>1673.79</ele>
        <time>2012-08-01T16:36:42Z</time>
      </trkpt>
      <trkpt lat="46.54119" lon="11.88335">
        <ele>1675.23</ele>
        <time>2012-08-01T16:36:43Z</time>
      </trkpt>
      <trkpt lat="46.54119" lon="11.88351">
        <ele>1675.23</ele>
        <time>2012-08-01T16:36:44Z</time>
      </trkpt>
      <trkpt lat="46.54121" lon="11.88366">
        <ele>1675.72</ele>
        <time>2012-08-01T16:36:45Z</time>
      </trkpt>
      <trkpt lat="46.54123" lon="11.88379">
        <ele>1676.68</ele>
        <time>2012-08-01T16:36:46Z</time>
      </trkpt>
      <trkpt lat="46.54122" lon="11.88392">
        <ele>1676.68</ele>
        <time>2012-08-01T16:36:47Z</time>
      </trkpt>
      <trkpt lat="46.54117" lon="11.88402">
        <ele>1678.12</ele>
        <time>2012-08-01T16:36:48Z</time>
      </trkpt>
      <trkpt lat="46.5411" lon="11.88409">
        <ele>1678.6</ele>
        <time>2012-08-01T16:36:49Z</time>
      </trkpt>
      <trkpt lat="46.541" lon="11.88412">
        <ele>1680.04</ele>
        <time>2012-08-01T16:36:50Z</time>
      </trkpt>
      <trkpt lat="46.54088" lon="11.88412">
        <ele>1681</ele>
        <time>2012-08-01T16:36:51Z</time>
      </trkpt>
      <trkpt lat="46.54076" lon="11.88409">
        <ele>1681.96</ele>
        <time>2012-08-01T16:36:52Z</time>
      </trkpt>
      <trkpt lat="46.54065" lon="11.88403">
        <ele>1682.44</ele>
        <time>2012-08-01T16:36:53Z</time>
      </trkpt>
      <trkpt lat="46.54054" lon="11.88394">
        <ele>1683.41</ele>
        <time>2012-08-01T16:36:54Z</time>
      </trkpt>
      <trkpt lat="46.54044" lon="11.88386">
        <ele>1682.93</ele>
        <time>2012-08-01T16:36:55Z</time>
      </trkpt>
      <trkpt lat="46.54034" lon="11.88378">
        <ele>1683.89</ele>
        <time>2012-08-01T16:36:56Z</time>
      </trkpt>
      <trkpt lat="46.54023" lon="11.88373">
        <ele>1683.41</ele>
        <time>2012-08-01T16:36:57Z</time>
      </trkpt>
      <trkpt lat="46.54012" lon="11.88373">
        <ele>1683.41</ele>
        <time>2012-08-01T16:36:58Z</time>
      </trkpt>
      <trkpt lat="46.54001" lon="11.88378">
        <ele>1683.41</ele>
        <time>2012-08-01T16:36:59Z</time>
      </trkpt>
      <trkpt lat="46.5399" lon="11.88388">
        <ele>1684.85</ele>
        <time>2012-08-01T16:37:00Z</time>
      </trkpt>
      <trkpt lat="46.53978" lon="11.88399">
        <ele>1685.33</ele>
        <time>2012-08-01T16:37:01Z</time>
      </trkpt>
      <trkpt lat="46.53939" lon="11.88434">
        <ele>1687.25</ele>
        <time>2012-08-01T16:37:04Z</time>
      </trkpt>
      <trkpt lat="46.5391" lon="11.88456">
        <ele>1688.69</ele>
        <time>2012-08-01T16:37:06Z</time>
      </trkpt>
      <trkpt lat="46.53842" lon="11.88514">
        <ele>1689.65</ele>
        <time>2012-08-01T16:37:11Z</time>
      </trkpt>
      <trkpt lat="46.53831" lon="11.88529">
        <ele>1690.14</ele>
        <time>2012-08-01T16:37:12Z</time>
      </trkpt>
      <trkpt lat="46.53812" lon="11.88564">
        <ele>1690.14</ele>
        <time>2012-08-01T16:37:14Z</time>
      </trkpt>
      <trkpt lat="46.53806" lon="11.88581">
        <ele>1689.65</ele>
        <time>2012-08-01T16:37:15Z</time>
      </trkpt>
      <trkpt lat="46.53804" lon="11.88597">
        <ele>1689.17</ele>
        <time>2012-08-01T16:37:16Z</time>
      </trkpt>
      <trkpt lat="46.538" lon="11.88614">
        <ele>1688.69</ele>
        <time>2012-08-01T16:37:17Z</time>
      </trkpt>
      <trkpt lat="46.53795" lon="11.8863">
        <ele>1689.65</ele>
        <time>2012-08-01T16:37:18Z</time>
      </trkpt>
      <trkpt lat="46.53788" lon="11.88645">
        <ele>1689.65</ele>
        <time>2012-08-01T16:37:19Z</time>
      </trkpt>
      <trkpt lat="46.53778" lon="11.88656">
        <ele>1689.17</ele>
        <time>2012-08-01T16:37:20Z</time>
      </trkpt>
      <trkpt lat="46.53766" lon="11.88663">
        <ele>1689.65</ele>
        <time>2012-08-01T16:37:21Z</time>
      </trkpt>
      <trkpt lat="46.53753" lon="11.88666">
        <ele>1690.14</ele>
        <time>2012-08-01T16:37:22Z</time>
      </trkpt>
      <trkpt lat="46.5374" lon="11.88668">
        <ele>1690.14</ele>
        <time>2012-08-01T16:37:23Z</time>
      </trkpt>
      <trkpt lat="46.53726" lon="11.88668">
        <ele>1690.62</ele>
        <time>2012-08-01T16:37:24Z</time>
      </trkpt>
      <trkpt lat="46.53687" lon="11.88672">
        <ele>1692.06</ele>
        <time>2012-08-01T16:37:27Z</time>
      </trkpt>
      <trkpt lat="46.53675" lon="11.88679">
        <ele>1692.06</ele>
        <time>2012-08-01T16:37:28Z</time>
      </trkpt>
      <trkpt lat="46.53664" lon="11.88692">
        <ele>1693.02</ele>
        <time>2012-08-01T16:37:29Z</time>
      </trkpt>
      <trkpt lat="46.53653" lon="11.88705">
        <ele>1693.98</ele>
        <time>2012-08-01T16:37:30Z</time>
      </trkpt>
      <trkpt lat="46.5364" lon="11.88716">
        <ele>1696.38</ele>
        <time>2012-08-01T16:37:31Z</time>
      </trkpt>
      <trkpt lat="46.53626" lon="11.88725">
        <ele>1697.83</ele>
        <time>2012-08-01T16:37:32Z</time>
      </trkpt>
      <trkpt lat="46.53611" lon="11.88732">
        <ele>1698.79</ele>
        <time>2012-08-01T16:37:33Z</time>
      </trkpt>
      <trkpt lat="46.53596" lon="11.88738">
        <ele>1700.71</ele>
        <time>2012-08-01T16:37:34Z</time>
      </trkpt>
      <trkpt lat="46.53583" lon="11.88746">
        <ele>1701.67</ele>
        <time>2012-08-01T16:37:35Z</time>
      </trkpt>
      <trkpt lat="46.53572" lon="11.88752">
        <ele>1701.19</ele>
        <time>2012-08-01T16:37:36Z</time>
      </trkpt>
      <trkpt lat="46.53562" lon="11.88754">
        <ele>1701.19</ele>
        <time>2012-08-01T16:37:37Z</time>
      </trkpt>
      <trkpt lat="46.53554" lon="11.88751">
        <ele>1701.19</ele>
        <time>2012-08-01T16:37:38Z</time>
      </trkpt>
      <trkpt lat="46.53549" lon="11.88743">
        <ele>1701.19</ele>
        <time>2012-08-01T16:37:39Z</time>
      </trkpt>
      <trkpt lat="46.53549" lon="11.88733">
        <ele>1702.15</ele>
        <time>2012-08-01T16:37:40Z</time>
      </trkpt>
      <trkpt lat="46.53553" lon="11.88722">
        <ele>1703.59</ele>
        <time>2012-08-01T16:37:41Z</time>
      </trkpt>
      <trkpt lat="46.5356" lon="11.88712">
        <ele>1703.59</ele>
        <time>2012-08-01T16:37:42Z</time>
      </trkpt>
      <trkpt lat="46.53567" lon="11.88704">
        <ele>1704.55</ele>
        <time>2012-08-01T16:37:43Z</time>
      </trkpt>
      <trkpt lat="46.53571" lon="11.88694">
        <ele>1704.07</ele>
        <time>2012-08-01T16:37:44Z</time>
      </trkpt>
      <trkpt lat="46.53572" lon="11.88683">
        <ele>1705.52</ele>
        <time>2012-08-01T16:37:45Z</time>
      </trkpt>
      <trkpt lat="46.53568" lon="11.88675">
        <ele>1706.48</ele>
        <time>2012-08-01T16:37:46Z</time>
      </trkpt>
      <trkpt lat="46.53561" lon="11.8867">
        <ele>1707.44</ele>
        <time>2012-08-01T16:37:47Z</time>
      </trkpt>
      <trkpt lat="46.53552" lon="11.88671">
        <ele>1708.4</ele>
        <time>2012-08-01T16:37:48Z</time>
      </trkpt>
      <trkpt lat="46.53543" lon="11.88676">
        <ele>1708.88</ele>
        <time>2012-08-01T16:37:49Z</time>
      </trkpt>
      <trkpt lat="46.53532" lon="11.8868">
        <ele>1709.84</ele>
        <time>2012-08-01T16:37:50Z</time>
      </trkpt>
      <trkpt lat="46.53519" lon="11.88682">
        <ele>1711.76</ele>
        <time>2012-08-01T16:37:51Z</time>
      </trkpt>
      <trkpt lat="46.53505" lon="11.88682">
        <ele>1712.73</ele>
        <time>2012-08-01T16:37:52Z</time>
      </trkpt>
      <trkpt lat="46.53477" lon="11.88679">
        <ele>1716.09</ele>
        <time>2012-08-01T16:37:54Z</time>
      </trkpt>
      <trkpt lat="46.53435" lon="11.88675">
        <ele>1718.01</ele>
        <time>2012-08-01T16:37:57Z</time>
      </trkpt>
      <trkpt lat="46.53424" lon="11.88669">
        <ele>1718.49</ele>
        <time>2012-08-01T16:37:58Z</time>
      </trkpt>
      <trkpt lat="46.53415" lon="11.88659">
        <ele>1718.97</ele>
        <time>2012-08-01T16:37:59Z</time>
      </trkpt>
      <trkpt lat="46.53408" lon="11.88644">
        <ele>1720.42</ele>
        <time>2012-08-01T16:38:00Z</time>
      </trkpt>
      <trkpt lat="46.53405" lon="11.88627">
        <ele>1720.42</ele>
        <time>2012-08-01T16:38:01Z</time>
      </trkpt>
      <trkpt lat="46.53405" lon="11.88608">
        <ele>1721.86</ele>
        <time>2012-08-01T16:38:02Z</time>
      </trkpt>
      <trkpt lat="46.53406" lon="11.88588">
        <ele>1722.34</ele>
        <time>2012-08-01T16:38:03Z</time>
      </trkpt>
      <trkpt lat="46.53408" lon="11.8857">
        <ele>1721.86</ele>
        <time>2012-08-01T16:38:04Z</time>
      </trkpt>
      <trkpt lat="46.53408" lon="11.88554">
        <ele>1722.34</ele>
        <time>2012-08-01T16:38:05Z</time>
      </trkpt>
      <trkpt lat="46.53406" lon="11.88539">
        <ele>1722.82</ele>
        <time>2012-08-01T16:38:06Z</time>
      </trkpt>
      <trkpt lat="46.53401" lon="11.88525">
        <ele>1723.3</ele>
        <time>2012-08-01T16:38:07Z</time>
      </trkpt>
      <trkpt lat="46.53391" lon="11.88514">
        <ele>1724.26</ele>
        <time>2012-08-01T16:38:08Z</time>
      </trkpt>
      <trkpt lat="46.53379" lon="11.88506">
        <ele>1725.7</ele>
        <time>2012-08-01T16:38:09Z</time>
      </trkpt>
      <trkpt lat="46.53366" lon="11.885">
        <ele>1727.15</ele>
        <time>2012-08-01T16:38:10Z</time>
      </trkpt>
      <trkpt lat="46.53351" lon="11.88494">
        <ele>1728.11</ele>
        <time>2012-08-01T16:38:11Z</time>
      </trkpt>
      <trkpt lat="46.53338" lon="11.88484">
        <ele>1730.03</ele>
        <time>2012-08-01T16:38:12Z</time>
      </trkpt>
      <trkpt lat="46.53324" lon="11.88472">
        <ele>1730.03</ele>
        <time>2012-08-01T16:38:13Z</time>
      </trkpt>
      <trkpt lat="46.53311" lon="11.8846">
        <ele>1731.47</ele>
        <time>2012-08-01T16:38:14Z</time>
      </trkpt>
      <trkpt lat="46.53284" lon="11.88436">
        <ele>1733.39</ele>
        <time>2012-08-01T16:38:16Z</time>
      </trkpt>
      <trkpt lat="46.53269" lon="11.88428">
        <ele>1733.88</ele>
        <time>2012-08-01T16:38:17Z</time>
      </trkpt>
      <trkpt lat="46.53254" lon="11.88423">
        <ele>1735.32</ele>
        <time>2012-08-01T16:38:18Z</time>
      </trkpt>
      <trkpt lat="46.53238" lon="11.88422">
        <ele>1736.76</ele>
        <time>2012-08-01T16:38:19Z</time>
      </trkpt>
      <trkpt lat="46.53222" lon="11.88423">
        <ele>1737.72</ele>
        <time>2012-08-01T16:38:20Z</time>
      </trkpt>
      <trkpt lat="46.53206" lon="11.88425">
        <ele>1738.2</ele>
        <time>2012-08-01T16:38:21Z</time>
      </trkpt>
      <trkpt lat="46.53158" lon="11.8843">
        <ele>1742.05</ele>
        <time>2012-08-01T16:38:24Z</time>
      </trkpt>
      <trkpt lat="46.53144" lon="11.8843">
        <ele>1742.05</ele>
        <time>2012-08-01T16:38:25Z</time>
      </trkpt>
      <trkpt lat="46.53132" lon="11.88426">
        <ele>1742.05</ele>
        <time>2012-08-01T16:38:26Z</time>
      </trkpt>
      <trkpt lat="46.53121" lon="11.88419">
        <ele>1743.49</ele>
        <time>2012-08-01T16:38:27Z</time>
      </trkpt>
      <trkpt lat="46.5311" lon="11.88407">
        <ele>1744.45</ele>
        <time>2012-08-01T16:38:28Z</time>
      </trkpt>
      <trkpt lat="46.53101" lon="11.88392">
        <ele>1746.37</ele>
        <time>2012-08-01T16:38:29Z</time>
      </trkpt>
      <trkpt lat="46.53091" lon="11.88376">
        <ele>1748.78</ele>
        <time>2012-08-01T16:38:30Z</time>
      </trkpt>
      <trkpt lat="46.53044" lon="11.88308">
        <ele>1752.14</ele>
        <time>2012-08-01T16:38:34Z</time>
      </trkpt>
      <trkpt lat="46.53018" lon="11.88274">
        <ele>1753.1</ele>
        <time>2012-08-01T16:38:36Z</time>
      </trkpt>
      <trkpt lat="46.5295" lon="11.8819">
        <ele>1756.47</ele>
        <time>2012-08-01T16:38:41Z</time>
      </trkpt>
      <trkpt lat="46.52909" lon="11.88138">
        <ele>1760.31</ele>
        <time>2012-08-01T16:38:44Z</time>
      </trkpt>
      <trkpt lat="46.52897" lon="11.88118">
        <ele>1762.23</ele>
        <time>2012-08-01T16:38:45Z</time>
      </trkpt>
      <trkpt lat="46.52863" lon="11.88059">
        <ele>1765.6</ele>
        <time>2012-08-01T16:38:48Z</time>
      </trkpt>
      <trkpt lat="46.5285" lon="11.88042">
        <ele>1766.56</ele>
        <time>2012-08-01T16:38:49Z</time>
      </trkpt>
      <trkpt lat="46.52821" lon="11.88009">
        <ele>1769.92</ele>
        <time>2012-08-01T16:38:51Z</time>
      </trkpt>
      <trkpt lat="46.52792" lon="11.87974">
        <ele>1773.77</ele>
        <time>2012-08-01T16:38:53Z</time>
      </trkpt>
      <trkpt lat="46.52746" lon="11.87927">
        <ele>1778.1</ele>
        <time>2012-08-01T16:38:56Z</time>
      </trkpt>
      <trkpt lat="46.52696" lon="11.87889">
        <ele>1782.42</ele>
        <time>2012-08-01T16:38:59Z</time>
      </trkpt>
      <trkpt lat="46.52661" lon="11.87866">
        <ele>1785.31</ele>
        <time>2012-08-01T16:39:01Z</time>
      </trkpt>
      <trkpt lat="46.52608" lon="11.87831">
        <ele>1789.63</ele>
        <time>2012-08-01T16:39:04Z</time>
      </trkpt>
      <trkpt lat="46.52574" lon="11.87809">
        <ele>1792.52</ele>
        <time>2012-08-01T16:39:06Z</time>
      </trkpt>
      <trkpt lat="46.52541" lon="11.87783">
        <ele>1795.88</ele>
        <time>2012-08-01T16:39:08Z</time>
      </trkpt>
      <trkpt lat="46.52526" lon="11.87767">
        <ele>1796.84</ele>
        <time>2012-08-01T16:39:09Z</time>
      </trkpt>
      <trkpt lat="46.52497" lon="11.8773">
        <ele>1799.73</ele>
        <time>2012-08-01T16:39:11Z</time>
      </trkpt>
      <trkpt lat="46.52429" lon="11.87639">
        <ele>1805.01</ele>
        <time>2012-08-01T16:39:16Z</time>
      </trkpt>
      <trkpt lat="46.52399" lon="11.87608">
        <ele>1809.82</ele>
        <time>2012-08-01T16:39:18Z</time>
      </trkpt>
      <trkpt lat="46.52349" lon="11.87565">
        <ele>1813.66</ele>
        <time>2012-08-01T16:39:21Z</time>
      </trkpt>
      <trkpt lat="46.52299" lon="11.8752">
        <ele>1817.51</ele>
        <time>2012-08-01T16:39:24Z</time>
      </trkpt>
      <trkpt lat="46.52214" lon="11.87449">
        <ele>1820.87</ele>
        <time>2012-08-01T16:39:29Z</time>
      </trkpt>
      <trkpt lat="46.52142" lon="11.8739">
        <ele>1821.84</ele>
        <time>2012-08-01T16:39:34Z</time>
      </trkpt>
      <trkpt lat="46.52126" lon="11.87384">
        <ele>1822.8</ele>
        <time>2012-08-01T16:39:35Z</time>
      </trkpt>
      <trkpt lat="46.5211" lon="11.8738">
        <ele>1822.8</ele>
        <time>2012-08-01T16:39:36Z</time>
      </trkpt>
      <trkpt lat="46.52093" lon="11.87379">
        <ele>1825.68</ele>
        <time>2012-08-01T16:39:37Z</time>
      </trkpt>
      <trkpt lat="46.52076" lon="11.87378">
        <ele>1826.16</ele>
        <time>2012-08-01T16:39:38Z</time>
      </trkpt>
      <trkpt lat="46.52023" lon="11.87379">
        <ele>1829.05</ele>
        <time>2012-08-01T16:39:41Z</time>
      </trkpt>
      <trkpt lat="46.51987" lon="11.8738">
        <ele>1830.49</ele>
        <time>2012-08-01T16:39:43Z</time>
      </trkpt>
      <trkpt lat="46.51935" lon="11.87375">
        <ele>1834.33</ele>
        <time>2012-08-01T16:39:46Z</time>
      </trkpt>
      <trkpt lat="46.51918" lon="11.87369">
        <ele>1835.77</ele>
        <time>2012-08-01T16:39:47Z</time>
      </trkpt>
      <trkpt lat="46.51901" lon="11.8736">
        <ele>1836.26</ele>
        <time>2012-08-01T16:39:48Z</time>
      </trkpt>
      <trkpt lat="46.51852" lon="11.87329">
        <ele>1840.58</ele>
        <time>2012-08-01T16:39:51Z</time>
      </trkpt>
      <trkpt lat="46.51789" lon="11.87293">
        <ele>1843.47</ele>
        <time>2012-08-01T16:39:55Z</time>
      </trkpt>
      <trkpt lat="46.5176" lon="11.87282">
        <ele>1844.91</ele>
        <time>2012-08-01T16:39:57Z</time>
      </trkpt>
      <trkpt lat="46.51743" lon="11.8728">
        <ele>1844.91</ele>
        <time>2012-08-01T16:39:58Z</time>
      </trkpt>
      <trkpt lat="46.5171" lon="11.87281">
        <ele>1846.83</ele>
        <time>2012-08-01T16:40:00Z</time>
      </trkpt>
      <trkpt lat="46.51583" lon="11.8728">
        <ele>1850.68</ele>
        <time>2012-08-01T16:40:07Z</time>
      </trkpt>
      <trkpt lat="46.51528" lon="11.87262">
        <ele>1854.04</ele>
        <time>2012-08-01T16:40:10Z</time>
      </trkpt>
      <trkpt lat="46.51474" lon="11.87244">
        <ele>1857.4</ele>
        <time>2012-08-01T16:40:13Z</time>
      </trkpt>
      <trkpt lat="46.51409" lon="11.87229">
        <ele>1857.4</ele>
        <time>2012-08-01T16:40:17Z</time>
      </trkpt>
      <trkpt lat="46.51396" lon="11.87231">
        <ele>1858.37</ele>
        <time>2012-08-01T16:40:18Z</time>
      </trkpt>
      <trkpt lat="46.51383" lon="11.87237">
        <ele>1857.89</ele>
        <time>2012-08-01T16:40:19Z</time>
      </trkpt>
      <trkpt lat="46.51371" lon="11.87247">
        <ele>1858.37</ele>
        <time>2012-08-01T16:40:20Z</time>
      </trkpt>
      <trkpt lat="46.51358" lon="11.8726">
        <ele>1859.33</ele>
        <time>2012-08-01T16:40:21Z</time>
      </trkpt>
      <trkpt lat="46.51345" lon="11.87275">
        <ele>1858.85</ele>
        <time>2012-08-01T16:40:22Z</time>
      </trkpt>
      <trkpt lat="46.5123" lon="11.8741">
        <ele>1855.96</ele>
        <time>2012-08-01T16:40:30Z</time>
      </trkpt>
      <trkpt lat="46.51105" lon="11.87493">
        <ele>1853.56</ele>
        <time>2012-08-01T16:40:37Z</time>
      </trkpt>
      <trkpt lat="46.51052" lon="11.87528">
        <ele>1849.71</ele>
        <time>2012-08-01T16:40:40Z</time>
      </trkpt>
      <trkpt lat="46.51003" lon="11.8757">
        <ele>1844.91</ele>
        <time>2012-08-01T16:40:43Z</time>
      </trkpt>
      <trkpt lat="46.50989" lon="11.87587">
        <ele>1843.47</ele>
        <time>2012-08-01T16:40:44Z</time>
      </trkpt>
      <trkpt lat="46.50977" lon="11.87605">
        <ele>1841.06</ele>
        <time>2012-08-01T16:40:45Z</time>
      </trkpt>
      <trkpt lat="46.50967" lon="11.87622">
        <ele>1839.14</ele>
        <time>2012-08-01T16:40:46Z</time>
      </trkpt>
      <trkpt lat="46.5095" lon="11.87649">
        <ele>1834.33</ele>
        <time>2012-08-01T16:40:48Z</time>
      </trkpt>
      <trkpt lat="46.5094" lon="11.87658">
        <ele>1833.85</ele>
        <time>2012-08-01T16:40:49Z</time>
      </trkpt>
      <trkpt lat="46.5093" lon="11.87663">
        <ele>1831.93</ele>
        <time>2012-08-01T16:40:50Z</time>
      </trkpt>
      <trkpt lat="46.50918" lon="11.87664">
        <ele>1830.97</ele>
        <time>2012-08-01T16:40:51Z</time>
      </trkpt>
      <trkpt lat="46.50906" lon="11.87658">
        <ele>1830.01</ele>
        <time>2012-08-01T16:40:52Z</time>
      </trkpt>
      <trkpt lat="46.50895" lon="11.87648">
        <ele>1829.05</ele>
        <time>2012-08-01T16:40:53Z</time>
      </trkpt>
      <trkpt lat="46.50886" lon="11.87637">
        <ele>1827.6</ele>
        <time>2012-08-01T16:40:54Z</time>
      </trkpt>
      <trkpt lat="46.50878" lon="11.87629">
        <ele>1826.64</ele>
        <time>2012-08-01T16:40:55Z</time>
      </trkpt>
      <trkpt lat="46.5087" lon="11.87626">
        <ele>1824.72</ele>
        <time>2012-08-01T16:40:56Z</time>
      </trkpt>
      <trkpt lat="46.50862" lon="11.87629">
        <ele>1824.72</ele>
        <time>2012-08-01T16:40:57Z</time>
      </trkpt>
      <trkpt lat="46.50855" lon="11.87636">
        <ele>1823.76</ele>
        <time>2012-08-01T16:40:58Z</time>
      </trkpt>
      <trkpt lat="46.5085" lon="11.87647">
        <ele>1823.76</ele>
        <time>2012-08-01T16:40:59Z</time>
      </trkpt>
      <trkpt lat="46.50846" lon="11.87662">
        <ele>1822.32</ele>
        <time>2012-08-01T16:41:00Z</time>
      </trkpt>
      <trkpt lat="46.50841" lon="11.87678">
        <ele>1820.87</ele>
        <time>2012-08-01T16:41:01Z</time>
      </trkpt>
      <trkpt lat="46.50832" lon="11.8769">
        <ele>1818.95</ele>
        <time>2012-08-01T16:41:02Z</time>
      </trkpt>
      <trkpt lat="46.5082" lon="11.87697">
        <ele>1817.99</ele>
        <time>2012-08-01T16:41:03Z</time>
      </trkpt>
      <trkpt lat="46.50809" lon="11.87705">
        <ele>1817.51</ele>
        <time>2012-08-01T16:41:04Z</time>
      </trkpt>
      <trkpt lat="46.50798" lon="11.87718">
        <ele>1816.07</ele>
        <time>2012-08-01T16:41:05Z</time>
      </trkpt>
      <trkpt lat="46.5079" lon="11.87734">
        <ele>1816.07</ele>
        <time>2012-08-01T16:41:06Z</time>
      </trkpt>
      <trkpt lat="46.50782" lon="11.87751">
        <ele>1814.15</ele>
        <time>2012-08-01T16:41:07Z</time>
      </trkpt>
      <trkpt lat="46.50772" lon="11.87766">
        <ele>1812.7</ele>
        <time>2012-08-01T16:41:08Z</time>
      </trkpt>
      <trkpt lat="46.50762" lon="11.87778">
        <ele>1811.74</ele>
        <time>2012-08-01T16:41:09Z</time>
      </trkpt>
      <trkpt lat="46.5075" lon="11.87785">
        <ele>1810.3</ele>
        <time>2012-08-01T16:41:10Z</time>
      </trkpt>
      <trkpt lat="46.50737" lon="11.87787">
        <ele>1808.86</ele>
        <time>2012-08-01T16:41:11Z</time>
      </trkpt>
      <trkpt lat="46.50726" lon="11.87786">
        <ele>1807.9</ele>
        <time>2012-08-01T16:41:12Z</time>
      </trkpt>
      <trkpt lat="46.50717" lon="11.87783">
        <ele>1806.45</ele>
        <time>2012-08-01T16:41:13Z</time>
      </trkpt>
      <trkpt lat="46.5071" lon="11.87778">
        <ele>1804.53</ele>
        <time>2012-08-01T16:41:14Z</time>
      </trkpt>
      <trkpt lat="46.50706" lon="11.8777">
        <ele>1803.09</ele>
        <time>2012-08-01T16:41:15Z</time>
      </trkpt>
      <trkpt lat="46.50707" lon="11.8776">
        <ele>1802.61</ele>
        <time>2012-08-01T16:41:16Z</time>
      </trkpt>
      <trkpt lat="46.50711" lon="11.87752">
        <ele>1802.13</ele>
        <time>2012-08-01T16:41:17Z</time>
      </trkpt>
      <trkpt lat="46.50718" lon="11.87745">
        <ele>1803.09</ele>
        <time>2012-08-01T16:41:18Z</time>
      </trkpt>
      <trkpt lat="46.50727" lon="11.87738">
        <ele>1802.13</ele>
        <time>2012-08-01T16:41:19Z</time>
      </trkpt>
      <trkpt lat="46.5074" lon="11.87731">
        <ele>1802.13</ele>
        <time>2012-08-01T16:41:20Z</time>
      </trkpt>
      <trkpt lat="46.50752" lon="11.87725">
        <ele>1800.21</ele>
        <time>2012-08-01T16:41:21Z</time>
      </trkpt>
      <trkpt lat="46.50762" lon="11.87719">
        <ele>1799.24</ele>
        <time>2012-08-01T16:41:22Z</time>
      </trkpt>
      <trkpt lat="46.50769" lon="11.87712">
        <ele>1798.28</ele>
        <time>2012-08-01T16:41:23Z</time>
      </trkpt>
      <trkpt lat="46.50773" lon="11.87703">
        <ele>1796.84</ele>
        <time>2012-08-01T16:41:24Z</time>
      </trkpt>
      <trkpt lat="46.50772" lon="11.87692">
        <ele>1797.32</ele>
        <time>2012-08-01T16:41:25Z</time>
      </trkpt>
      <trkpt lat="46.5077" lon="11.87683">
        <ele>1796.36</ele>
        <time>2012-08-01T16:41:26Z</time>
      </trkpt>
      <trkpt lat="46.50764" lon="11.87662">
        <ele>1795.88</ele>
        <time>2012-08-01T16:41:29Z</time>
      </trkpt>
      <trkpt lat="46.50759" lon="11.87659">
        <ele>1795.4</ele>
        <time>2012-08-01T16:41:30Z</time>
      </trkpt>
      <trkpt lat="46.50683" lon="11.87733">
        <ele>1794.44</ele>
        <time>2012-08-01T16:41:32Z</time>
      </trkpt>
      <trkpt lat="46.5065" lon="11.87756">
        <ele>1791.07</ele>
        <time>2012-08-01T16:41:34Z</time>
      </trkpt>
      <trkpt lat="46.50633" lon="11.87764">
        <ele>1789.63</ele>
        <time>2012-08-01T16:41:35Z</time>
      </trkpt>
      <trkpt lat="46.50615" lon="11.87769">
        <ele>1787.71</ele>
        <time>2012-08-01T16:41:36Z</time>
      </trkpt>
      <trkpt lat="46.50559" lon="11.87777">
        <ele>1783.86</ele>
        <time>2012-08-01T16:41:39Z</time>
      </trkpt>
      <trkpt lat="46.50499" lon="11.8778">
        <ele>1779.06</ele>
        <time>2012-08-01T16:41:42Z</time>
      </trkpt>
      <trkpt lat="46.50459" lon="11.87782">
        <ele>1775.69</ele>
        <time>2012-08-01T16:41:44Z</time>
      </trkpt>
      <trkpt lat="46.50425" lon="11.87783">
        <ele>1769.44</ele>
        <time>2012-08-01T16:41:46Z</time>
      </trkpt>
      <trkpt lat="46.5041" lon="11.87782">
        <ele>1768</ele>
        <time>2012-08-01T16:41:47Z</time>
      </trkpt>
      <trkpt lat="46.50395" lon="11.87777">
        <ele>1765.6</ele>
        <time>2012-08-01T16:41:48Z</time>
      </trkpt>
      <trkpt lat="46.50382" lon="11.87769">
        <ele>1765.6</ele>
        <time>2012-08-01T16:41:49Z</time>
      </trkpt>
      <trkpt lat="46.5037" lon="11.87758">
        <ele>1763.68</ele>
        <time>2012-08-01T16:41:50Z</time>
      </trkpt>
      <trkpt lat="46.5036" lon="11.87745">
        <ele>1762.23</ele>
        <time>2012-08-01T16:41:51Z</time>
      </trkpt>
      <trkpt lat="46.50354" lon="11.8773">
        <ele>1760.79</ele>
        <time>2012-08-01T16:41:52Z</time>
      </trkpt>
      <trkpt lat="46.5035" lon="11.87715">
        <ele>1759.35</ele>
        <time>2012-08-01T16:41:53Z</time>
      </trkpt>
      <trkpt lat="46.50347" lon="11.87702">
        <ele>1757.91</ele>
        <time>2012-08-01T16:41:54Z</time>
      </trkpt>
      <trkpt lat="46.50341" lon="11.87693">
        <ele>1757.43</ele>
        <time>2012-08-01T16:41:55Z</time>
      </trkpt>
      <trkpt lat="46.50332" lon="11.87688">
        <ele>1756.95</ele>
        <time>2012-08-01T16:41:56Z</time>
      </trkpt>
      <trkpt lat="46.50322" lon="11.87688">
        <ele>1755.99</ele>
        <time>2012-08-01T16:41:57Z</time>
      </trkpt>
      <trkpt lat="46.5031" lon="11.87694">
        <ele>1755.99</ele>
        <time>2012-08-01T16:41:58Z</time>
      </trkpt>
      <trkpt lat="46.50297" lon="11.87703">
        <ele>1754.54</ele>
        <time>2012-08-01T16:41:59Z</time>
      </trkpt>
      <trkpt lat="46.50286" lon="11.87714">
        <ele>1752.62</ele>
        <time>2012-08-01T16:42:00Z</time>
      </trkpt>
      <trkpt lat="46.50276" lon="11.87727">
        <ele>1751.66</ele>
        <time>2012-08-01T16:42:01Z</time>
      </trkpt>
      <trkpt lat="46.50269" lon="11.87744">
        <ele>1751.18</ele>
        <time>2012-08-01T16:42:02Z</time>
      </trkpt>
      <trkpt lat="46.50263" lon="11.87764">
        <ele>1750.22</ele>
        <time>2012-08-01T16:42:03Z</time>
      </trkpt>
      <trkpt lat="46.50259" lon="11.87785">
        <ele>1748.78</ele>
        <time>2012-08-01T16:42:04Z</time>
      </trkpt>
      <trkpt lat="46.50253" lon="11.87804">
        <ele>1748.29</ele>
        <time>2012-08-01T16:42:05Z</time>
      </trkpt>
      <trkpt lat="46.50245" lon="11.87822">
        <ele>1746.37</ele>
        <time>2012-08-01T16:42:06Z</time>
      </trkpt>
      <trkpt lat="46.50234" lon="11.87838">
        <ele>1745.41</ele>
        <time>2012-08-01T16:42:07Z</time>
      </trkpt>
      <trkpt lat="46.50222" lon="11.87851">
        <ele>1744.45</ele>
        <time>2012-08-01T16:42:08Z</time>
      </trkpt>
      <trkpt lat="46.50211" lon="11.87865">
        <ele>1742.53</ele>
        <time>2012-08-01T16:42:09Z</time>
      </trkpt>
      <trkpt lat="46.50202" lon="11.87882">
        <ele>1741.57</ele>
        <time>2012-08-01T16:42:10Z</time>
      </trkpt>
      <trkpt lat="46.50195" lon="11.87904">
        <ele>1740.6</ele>
        <time>2012-08-01T16:42:11Z</time>
      </trkpt>
      <trkpt lat="46.5019" lon="11.87928">
        <ele>1739.64</ele>
        <time>2012-08-01T16:42:12Z</time>
      </trkpt>
      <trkpt lat="46.50186" lon="11.87954">
        <ele>1739.16</ele>
        <time>2012-08-01T16:42:13Z</time>
      </trkpt>
      <trkpt lat="46.50174" lon="11.88039">
        <ele>1735.32</ele>
        <time>2012-08-01T16:42:16Z</time>
      </trkpt>
      <trkpt lat="46.50169" lon="11.88132">
        <ele>1731.95</ele>
        <time>2012-08-01T16:42:19Z</time>
      </trkpt>
      <trkpt lat="46.50168" lon="11.88188">
        <ele>1726.67</ele>
        <time>2012-08-01T16:42:21Z</time>
      </trkpt>
      <trkpt lat="46.50167" lon="11.88236">
        <ele>1721.38</ele>
        <time>2012-08-01T16:42:23Z</time>
      </trkpt>
      <trkpt lat="46.50169" lon="11.88259">
        <ele>1720.42</ele>
        <time>2012-08-01T16:42:24Z</time>
      </trkpt>
      <trkpt lat="46.50172" lon="11.88283">
        <ele>1718.97</ele>
        <time>2012-08-01T16:42:25Z</time>
      </trkpt>
      <trkpt lat="46.50187" lon="11.88358">
        <ele>1714.65</ele>
        <time>2012-08-01T16:42:28Z</time>
      </trkpt>
      <trkpt lat="46.50189" lon="11.88383">
        <ele>1712.73</ele>
        <time>2012-08-01T16:42:29Z</time>
      </trkpt>
      <trkpt lat="46.5019" lon="11.88408">
        <ele>1711.76</ele>
        <time>2012-08-01T16:42:30Z</time>
      </trkpt>
      <trkpt lat="46.50193" lon="11.8843">
        <ele>1709.84</ele>
        <time>2012-08-01T16:42:31Z</time>
      </trkpt>
      <trkpt lat="46.50197" lon="11.8845">
        <ele>1707.92</ele>
        <time>2012-08-01T16:42:32Z</time>
      </trkpt>
      <trkpt lat="46.50201" lon="11.8847">
        <ele>1706</ele>
        <time>2012-08-01T16:42:33Z</time>
      </trkpt>
      <trkpt lat="46.50201" lon="11.88489">
        <ele>1703.11</ele>
        <time>2012-08-01T16:42:34Z</time>
      </trkpt>
      <trkpt lat="46.50198" lon="11.88509">
        <ele>1702.63</ele>
        <time>2012-08-01T16:42:35Z</time>
      </trkpt>
      <trkpt lat="46.50191" lon="11.88528">
        <ele>1701.19</ele>
        <time>2012-08-01T16:42:36Z</time>
      </trkpt>
      <trkpt lat="46.50183" lon="11.88549">
        <ele>1700.71</ele>
        <time>2012-08-01T16:42:37Z</time>
      </trkpt>
      <trkpt lat="46.5016" lon="11.88615">
        <ele>1696.38</ele>
        <time>2012-08-01T16:42:40Z</time>
      </trkpt>
      <trkpt lat="46.50149" lon="11.88659">
        <ele>1693.5</ele>
        <time>2012-08-01T16:42:42Z</time>
      </trkpt>
      <trkpt lat="46.50147" lon="11.8868">
        <ele>1691.58</ele>
        <time>2012-08-01T16:42:43Z</time>
      </trkpt>
      <trkpt lat="46.50146" lon="11.88697">
        <ele>1689.17</ele>
        <time>2012-08-01T16:42:44Z</time>
      </trkpt>
      <trkpt lat="46.50148" lon="11.88713">
        <ele>1687.73</ele>
        <time>2012-08-01T16:42:45Z</time>
      </trkpt>
      <trkpt lat="46.5015" lon="11.88726">
        <ele>1685.81</ele>
        <time>2012-08-01T16:42:46Z</time>
      </trkpt>
      <trkpt lat="46.5015" lon="11.88737">
        <ele>1684.85</ele>
        <time>2012-08-01T16:42:47Z</time>
      </trkpt>
      <trkpt lat="46.50147" lon="11.88745">
        <ele>1683.89</ele>
        <time>2012-08-01T16:42:48Z</time>
      </trkpt>
      <trkpt lat="46.50142" lon="11.88748">
        <ele>1682.93</ele>
        <time>2012-08-01T16:42:49Z</time>
      </trkpt>
      <trkpt lat="46.50136" lon="11.88746">
        <ele>1682.93</ele>
        <time>2012-08-01T16:42:50Z</time>
      </trkpt>
      <trkpt lat="46.50132" lon="11.88739">
        <ele>1681.96</ele>
        <time>2012-08-01T16:42:51Z</time>
      </trkpt>
      <trkpt lat="46.50131" lon="11.88729">
        <ele>1681.96</ele>
        <time>2012-08-01T16:42:52Z</time>
      </trkpt>
      <trkpt lat="46.5013" lon="11.88717">
        <ele>1681</ele>
        <time>2012-08-01T16:42:53Z</time>
      </trkpt>
      <trkpt lat="46.50129" lon="11.88703">
        <ele>1681.96</ele>
        <time>2012-08-01T16:42:54Z</time>
      </trkpt>
      <trkpt lat="46.50125" lon="11.88598">
        <ele>1678.12</ele>
        <time>2012-08-01T16:42:59Z</time>
      </trkpt>
      <trkpt lat="46.50121" lon="11.88551">
        <ele>1674.75</ele>
        <time>2012-08-01T16:43:01Z</time>
      </trkpt>
      <trkpt lat="46.50119" lon="11.88508">
        <ele>1671.87</ele>
        <time>2012-08-01T16:43:03Z</time>
      </trkpt>
      <trkpt lat="46.50119" lon="11.88472">
        <ele>1668.02</ele>
        <time>2012-08-01T16:43:05Z</time>
      </trkpt>
      <trkpt lat="46.5012" lon="11.88446">
        <ele>1666.1</ele>
        <time>2012-08-01T16:43:07Z</time>
      </trkpt>
      <trkpt lat="46.50117" lon="11.88436">
        <ele>1665.14</ele>
        <time>2012-08-01T16:43:08Z</time>
      </trkpt>
      <trkpt lat="46.5011" lon="11.8843">
        <ele>1664.18</ele>
        <time>2012-08-01T16:43:09Z</time>
      </trkpt>
      <trkpt lat="46.50102" lon="11.88431">
        <ele>1663.7</ele>
        <time>2012-08-01T16:43:10Z</time>
      </trkpt>
      <trkpt lat="46.50095" lon="11.88437">
        <ele>1663.22</ele>
        <time>2012-08-01T16:43:11Z</time>
      </trkpt>
      <trkpt lat="46.50088" lon="11.88446">
        <ele>1663.22</ele>
        <time>2012-08-01T16:43:12Z</time>
      </trkpt>
      <trkpt lat="46.50083" lon="11.88459">
        <ele>1663.7</ele>
        <time>2012-08-01T16:43:13Z</time>
      </trkpt>
      <trkpt lat="46.50079" lon="11.88476">
        <ele>1662.74</ele>
        <time>2012-08-01T16:43:14Z</time>
      </trkpt>
      <trkpt lat="46.50078" lon="11.88495">
        <ele>1661.78</ele>
        <time>2012-08-01T16:43:15Z</time>
      </trkpt>
      <trkpt lat="46.50076" lon="11.88526">
        <ele>1658.41</ele>
        <time>2012-08-01T16:43:17Z</time>
      </trkpt>
      <trkpt lat="46.50073" lon="11.88538">
        <ele>1657.45</ele>
        <time>2012-08-01T16:43:18Z</time>
      </trkpt>
      <trkpt lat="46.50069" lon="11.88545">
        <ele>1656.01</ele>
        <time>2012-08-01T16:43:19Z</time>
      </trkpt>
      <trkpt lat="46.50064" lon="11.88547">
        <ele>1655.53</ele>
        <time>2012-08-01T16:43:20Z</time>
      </trkpt>
      <trkpt lat="46.50059" lon="11.88544">
        <ele>1654.57</ele>
        <time>2012-08-01T16:43:21Z</time>
      </trkpt>
      <trkpt lat="46.50055" lon="11.88538">
        <ele>1654.57</ele>
        <time>2012-08-01T16:43:22Z</time>
      </trkpt>
      <trkpt lat="46.50053" lon="11.8853">
        <ele>1654.57</ele>
        <time>2012-08-01T16:43:23Z</time>
      </trkpt>
      <trkpt lat="46.50052" lon="11.88498">
        <ele>1654.09</ele>
        <time>2012-08-01T16:43:25Z</time>
      </trkpt>
      <trkpt lat="46.50054" lon="11.8847">
        <ele>1653.6</ele>
        <time>2012-08-01T16:43:26Z</time>
      </trkpt>
      <trkpt lat="46.50057" lon="11.88436">
        <ele>1652.16</ele>
        <time>2012-08-01T16:43:27Z</time>
      </trkpt>
      <trkpt lat="46.50056" lon="11.88405">
        <ele>1651.2</ele>
        <time>2012-08-01T16:43:28Z</time>
      </trkpt>
      <trkpt lat="46.50052" lon="11.88377">
        <ele>1649.28</ele>
        <time>2012-08-01T16:43:29Z</time>
      </trkpt>
      <trkpt lat="46.50044" lon="11.88353">
        <ele>1648.32</ele>
        <time>2012-08-01T16:43:30Z</time>
      </trkpt>
      <trkpt lat="46.50035" lon="11.88331">
        <ele>1644.95</ele>
        <time>2012-08-01T16:43:31Z</time>
      </trkpt>
      <trkpt lat="46.50027" lon="11.88311">
        <ele>1643.03</ele>
        <time>2012-08-01T16:43:32Z</time>
      </trkpt>
      <trkpt lat="46.5002" lon="11.88287">
        <ele>1641.11</ele>
        <time>2012-08-01T16:43:33Z</time>
      </trkpt>
      <trkpt lat="46.50002" lon="11.8821">
        <ele>1637.26</ele>
        <time>2012-08-01T16:43:36Z</time>
      </trkpt>
      <trkpt lat="46.49988" lon="11.88131">
        <ele>1633.9</ele>
        <time>2012-08-01T16:43:39Z</time>
      </trkpt>
      <trkpt lat="46.49977" lon="11.88053">
        <ele>1630.53</ele>
        <time>2012-08-01T16:43:42Z</time>
      </trkpt>
      <trkpt lat="46.49971" lon="11.88008">
        <ele>1626.21</ele>
        <time>2012-08-01T16:43:44Z</time>
      </trkpt>
      <trkpt lat="46.49964" lon="11.87971">
        <ele>1623.32</ele>
        <time>2012-08-01T16:43:46Z</time>
      </trkpt>
      <trkpt lat="46.49958" lon="11.87955">
        <ele>1622.84</ele>
        <time>2012-08-01T16:43:47Z</time>
      </trkpt>
      <trkpt lat="46.49948" lon="11.87927">
        <ele>1620.44</ele>
        <time>2012-08-01T16:43:49Z</time>
      </trkpt>
      <trkpt lat="46.49945" lon="11.87911">
        <ele>1619.48</ele>
        <time>2012-08-01T16:43:50Z</time>
      </trkpt>
      <trkpt lat="46.49943" lon="11.87894">
        <ele>1619</ele>
        <time>2012-08-01T16:43:51Z</time>
      </trkpt>
      <trkpt lat="46.49936" lon="11.87801">
        <ele>1615.63</ele>
        <time>2012-08-01T16:43:56Z</time>
      </trkpt>
      <trkpt lat="46.49928" lon="11.8775">
        <ele>1612.75</ele>
        <time>2012-08-01T16:43:59Z</time>
      </trkpt>
      <trkpt lat="46.49925" lon="11.87734">
        <ele>1611.31</ele>
        <time>2012-08-01T16:44:00Z</time>
      </trkpt>
      <trkpt lat="46.49925" lon="11.87719">
        <ele>1610.35</ele>
        <time>2012-08-01T16:44:01Z</time>
      </trkpt>
      <trkpt lat="46.49926" lon="11.87702">
        <ele>1609.86</ele>
        <time>2012-08-01T16:44:02Z</time>
      </trkpt>
      <trkpt lat="46.4993" lon="11.87686">
        <ele>1608.9</ele>
        <time>2012-08-01T16:44:03Z</time>
      </trkpt>
      <trkpt lat="46.49934" lon="11.8767">
        <ele>1607.94</ele>
        <time>2012-08-01T16:44:04Z</time>
      </trkpt>
      <trkpt lat="46.49935" lon="11.87653">
        <ele>1608.42</ele>
        <time>2012-08-01T16:44:05Z</time>
      </trkpt>
      <trkpt lat="46.49933" lon="11.87635">
        <ele>1607.94</ele>
        <time>2012-08-01T16:44:06Z</time>
      </trkpt>
      <trkpt lat="46.49929" lon="11.87618">
        <ele>1607.46</ele>
        <time>2012-08-01T16:44:07Z</time>
      </trkpt>
      <trkpt lat="46.49926" lon="11.87602">
        <ele>1606.02</ele>
        <time>2012-08-01T16:44:08Z</time>
      </trkpt>
      <trkpt lat="46.49925" lon="11.87585">
        <ele>1604.58</ele>
        <time>2012-08-01T16:44:09Z</time>
      </trkpt>
      <trkpt lat="46.49926" lon="11.87569">
        <ele>1604.58</ele>
        <time>2012-08-01T16:44:10Z</time>
      </trkpt>
      <trkpt lat="46.4993" lon="11.87554">
        <ele>1603.62</ele>
        <time>2012-08-01T16:44:11Z</time>
      </trkpt>
      <trkpt lat="46.49933" lon="11.8754">
        <ele>1603.14</ele>
        <time>2012-08-01T16:44:12Z</time>
      </trkpt>
      <trkpt lat="46.49935" lon="11.87528">
        <ele>1602.17</ele>
        <time>2012-08-01T16:44:13Z</time>
      </trkpt>
      <trkpt lat="46.49934" lon="11.87516">
        <ele>1601.69</ele>
        <time>2012-08-01T16:44:14Z</time>
      </trkpt>
      <trkpt lat="46.49929" lon="11.87505">
        <ele>1601.21</ele>
        <time>2012-08-01T16:44:15Z</time>
      </trkpt>
      <trkpt lat="46.49922" lon="11.87496">
        <ele>1601.21</ele>
        <time>2012-08-01T16:44:16Z</time>
      </trkpt>
      <trkpt lat="46.49912" lon="11.87489">
        <ele>1600.73</ele>
        <time>2012-08-01T16:44:17Z</time>
      </trkpt>
      <trkpt lat="46.49901" lon="11.87484">
        <ele>1600.25</ele>
        <time>2012-08-01T16:44:18Z</time>
      </trkpt>
      <trkpt lat="46.49889" lon="11.8748">
        <ele>1599.77</ele>
        <time>2012-08-01T16:44:19Z</time>
      </trkpt>
      <trkpt lat="46.49878" lon="11.87474">
        <ele>1599.29</ele>
        <time>2012-08-01T16:44:20Z</time>
      </trkpt>
      <trkpt lat="46.49847" lon="11.87455">
        <ele>1597.37</ele>
        <time>2012-08-01T16:44:23Z</time>
      </trkpt>
      <trkpt lat="46.49837" lon="11.87451">
        <ele>1596.41</ele>
        <time>2012-08-01T16:44:24Z</time>
      </trkpt>
      <trkpt lat="46.49828" lon="11.87449">
        <ele>1595.93</ele>
        <time>2012-08-01T16:44:25Z</time>
      </trkpt>
      <trkpt lat="46.49794" lon="11.87445">
        <ele>1594.48</ele>
        <time>2012-08-01T16:44:29Z</time>
      </trkpt>
      <trkpt lat="46.49787" lon="11.87448">
        <ele>1594</ele>
        <time>2012-08-01T16:44:30Z</time>
      </trkpt>
      <trkpt lat="46.4978" lon="11.87453">
        <ele>1593.52</ele>
        <time>2012-08-01T16:44:31Z</time>
      </trkpt>
      <trkpt lat="46.49775" lon="11.8746">
        <ele>1593.04</ele>
        <time>2012-08-01T16:44:32Z</time>
      </trkpt>
      <trkpt lat="46.49772" lon="11.8747">
        <ele>1593.04</ele>
        <time>2012-08-01T16:44:33Z</time>
      </trkpt>
      <trkpt lat="46.4977" lon="11.87481">
        <ele>1592.56</ele>
        <time>2012-08-01T16:44:34Z</time>
      </trkpt>
      <trkpt lat="46.49766" lon="11.87498">
        <ele>1590.64</ele>
        <time>2012-08-01T16:44:36Z</time>
      </trkpt>
      <trkpt lat="46.49765" lon="11.87503">
        <ele>1590.64</ele>
        <time>2012-08-01T16:44:37Z</time>
      </trkpt>
      <trkpt lat="46.49763" lon="11.8751">
        <ele>1590.16</ele>
        <time>2012-08-01T16:44:43Z</time>
      </trkpt>
      <trkpt lat="46.4976" lon="11.87512">
        <ele>1590.64</ele>
        <time>2012-08-01T16:44:44Z</time>
      </trkpt>
      <trkpt lat="46.49755" lon="11.87512">
        <ele>1590.64</ele>
        <time>2012-08-01T16:44:45Z</time>
      </trkpt>
      <trkpt lat="46.4975" lon="11.87509">
        <ele>1591.12</ele>
        <time>2012-08-01T16:44:46Z</time>
      </trkpt>
      <trkpt lat="46.49746" lon="11.87502">
        <ele>1591.6</ele>
        <time>2012-08-01T16:44:47Z</time>
      </trkpt>
      <trkpt lat="46.49743" lon="11.87493">
        <ele>1592.08</ele>
        <time>2012-08-01T16:44:48Z</time>
      </trkpt>
      <trkpt lat="46.4974" lon="11.87482">
        <ele>1593.52</ele>
        <time>2012-08-01T16:44:49Z</time>
      </trkpt>
      <trkpt lat="46.49738" lon="11.87469">
        <ele>1594.48</ele>
        <time>2012-08-01T16:44:50Z</time>
      </trkpt>
      <trkpt lat="46.49725" lon="11.87409">
        <ele>1597.85</ele>
        <time>2012-08-01T16:44:55Z</time>
      </trkpt>
      <trkpt lat="46.49722" lon="11.87398">
        <ele>1597.37</ele>
        <time>2012-08-01T16:44:56Z</time>
      </trkpt>
      <trkpt lat="46.49719" lon="11.87386">
        <ele>1599.29</ele>
        <time>2012-08-01T16:44:57Z</time>
      </trkpt>
      <trkpt lat="46.49714" lon="11.87375">
        <ele>1600.25</ele>
        <time>2012-08-01T16:44:58Z</time>
      </trkpt>
      <trkpt lat="46.49708" lon="11.87364">
        <ele>1601.21</ele>
        <time>2012-08-01T16:44:59Z</time>
      </trkpt>
      <trkpt lat="46.49701" lon="11.87356">
        <ele>1602.17</ele>
        <time>2012-08-01T16:45:00Z</time>
      </trkpt>
      <trkpt lat="46.49692" lon="11.87349">
        <ele>1602.66</ele>
        <time>2012-08-01T16:45:01Z</time>
      </trkpt>
      <trkpt lat="46.49682" lon="11.87345">
        <ele>1604.1</ele>
        <time>2012-08-01T16:45:02Z</time>
      </trkpt>
      <trkpt lat="46.49671" lon="11.87342">
        <ele>1605.54</ele>
        <time>2012-08-01T16:45:03Z</time>
      </trkpt>
      <trkpt lat="46.49651" lon="11.87334">
        <ele>1606.98</ele>
        <time>2012-08-01T16:45:05Z</time>
      </trkpt>
      <trkpt lat="46.49644" lon="11.87327">
        <ele>1606.5</ele>
        <time>2012-08-01T16:45:06Z</time>
      </trkpt>
      <trkpt lat="46.49641" lon="11.87316">
        <ele>1606.98</ele>
        <time>2012-08-01T16:45:07Z</time>
      </trkpt>
      <trkpt lat="46.49642" lon="11.87302">
        <ele>1607.94</ele>
        <time>2012-08-01T16:45:08Z</time>
      </trkpt>
      <trkpt lat="46.49645" lon="11.87288">
        <ele>1609.38</ele>
        <time>2012-08-01T16:45:09Z</time>
      </trkpt>
      <trkpt lat="46.4965" lon="11.87272">
        <ele>1610.35</ele>
        <time>2012-08-01T16:45:10Z</time>
      </trkpt>
      <trkpt lat="46.49664" lon="11.87222">
        <ele>1614.67</ele>
        <time>2012-08-01T16:45:13Z</time>
      </trkpt>
      <trkpt lat="46.49669" lon="11.87206">
        <ele>1614.67</ele>
        <time>2012-08-01T16:45:14Z</time>
      </trkpt>
      <trkpt lat="46.49676" lon="11.87179">
        <ele>1615.63</ele>
        <time>2012-08-01T16:45:16Z</time>
      </trkpt>
      <trkpt lat="46.49677" lon="11.87167">
        <ele>1615.63</ele>
        <time>2012-08-01T16:45:17Z</time>
      </trkpt>
      <trkpt lat="46.49675" lon="11.87156">
        <ele>1616.11</ele>
        <time>2012-08-01T16:45:18Z</time>
      </trkpt>
      <trkpt lat="46.49668" lon="11.87149">
        <ele>1616.11</ele>
        <time>2012-08-01T16:45:19Z</time>
      </trkpt>
      <trkpt lat="46.4966" lon="11.87148">
        <ele>1617.07</ele>
        <time>2012-08-01T16:45:20Z</time>
      </trkpt>
      <trkpt lat="46.49652" lon="11.87153">
        <ele>1618.52</ele>
        <time>2012-08-01T16:45:21Z</time>
      </trkpt>
      <trkpt lat="46.49643" lon="11.87161">
        <ele>1620.44</ele>
        <time>2012-08-01T16:45:22Z</time>
      </trkpt>
      <trkpt lat="46.49634" lon="11.87171">
        <ele>1620.92</ele>
        <time>2012-08-01T16:45:23Z</time>
      </trkpt>
      <trkpt lat="46.49625" lon="11.8718">
        <ele>1621.88</ele>
        <time>2012-08-01T16:45:24Z</time>
      </trkpt>
      <trkpt lat="46.49617" lon="11.87186">
        <ele>1621.4</ele>
        <time>2012-08-01T16:45:25Z</time>
      </trkpt>
      <trkpt lat="46.4961" lon="11.87187">
        <ele>1621.4</ele>
        <time>2012-08-01T16:45:26Z</time>
      </trkpt>
      <trkpt lat="46.49604" lon="11.87183">
        <ele>1621.4</ele>
        <time>2012-08-01T16:45:27Z</time>
      </trkpt>
      <trkpt lat="46.496" lon="11.87175">
        <ele>1622.36</ele>
        <time>2012-08-01T16:45:28Z</time>
      </trkpt>
      <trkpt lat="46.49597" lon="11.87166">
        <ele>1623.32</ele>
        <time>2012-08-01T16:45:29Z</time>
      </trkpt>
      <trkpt lat="46.49597" lon="11.87156">
        <ele>1624.77</ele>
        <time>2012-08-01T16:45:30Z</time>
      </trkpt>
      <trkpt lat="46.49598" lon="11.87143">
        <ele>1625.73</ele>
        <time>2012-08-01T16:45:31Z</time>
      </trkpt>
      <trkpt lat="46.49603" lon="11.87124">
        <ele>1627.17</ele>
        <time>2012-08-01T16:45:32Z</time>
      </trkpt>
      <trkpt lat="46.49615" lon="11.87074">
        <ele>1628.13</ele>
        <time>2012-08-01T16:45:35Z</time>
      </trkpt>
      <trkpt lat="46.49616" lon="11.8706">
        <ele>1628.61</ele>
        <time>2012-08-01T16:45:36Z</time>
      </trkpt>
      <trkpt lat="46.49613" lon="11.87049">
        <ele>1629.09</ele>
        <time>2012-08-01T16:45:37Z</time>
      </trkpt>
      <trkpt lat="46.49606" lon="11.87043">
        <ele>1629.57</ele>
        <time>2012-08-01T16:45:38Z</time>
      </trkpt>
      <trkpt lat="46.49597" lon="11.87045">
        <ele>1631.01</ele>
        <time>2012-08-01T16:45:39Z</time>
      </trkpt>
      <trkpt lat="46.49588" lon="11.87052">
        <ele>1631.98</ele>
        <time>2012-08-01T16:45:40Z</time>
      </trkpt>
      <trkpt lat="46.49581" lon="11.87061">
        <ele>1632.46</ele>
        <time>2012-08-01T16:45:41Z</time>
      </trkpt>
      <trkpt lat="46.49573" lon="11.87068">
        <ele>1632.94</ele>
        <time>2012-08-01T16:45:42Z</time>
      </trkpt>
      <trkpt lat="46.49566" lon="11.87071">
        <ele>1632.94</ele>
        <time>2012-08-01T16:45:43Z</time>
      </trkpt>
      <trkpt lat="46.49559" lon="11.87069">
        <ele>1633.9</ele>
        <time>2012-08-01T16:45:44Z</time>
      </trkpt>
      <trkpt lat="46.49553" lon="11.8706">
        <ele>1634.38</ele>
        <time>2012-08-01T16:45:45Z</time>
      </trkpt>
      <trkpt lat="46.4955" lon="11.87048">
        <ele>1636.3</ele>
        <time>2012-08-01T16:45:46Z</time>
      </trkpt>
      <trkpt lat="46.49547" lon="11.87033">
        <ele>1637.26</ele>
        <time>2012-08-01T16:45:47Z</time>
      </trkpt>
      <trkpt lat="46.49536" lon="11.86984">
        <ele>1640.63</ele>
        <time>2012-08-01T16:45:50Z</time>
      </trkpt>
      <trkpt lat="46.49527" lon="11.86949">
        <ele>1643.03</ele>
        <time>2012-08-01T16:45:52Z</time>
      </trkpt>
      <trkpt lat="46.49521" lon="11.86933">
        <ele>1644.95</ele>
        <time>2012-08-01T16:45:53Z</time>
      </trkpt>
      <trkpt lat="46.49513" lon="11.86918">
        <ele>1644.95</ele>
        <time>2012-08-01T16:45:54Z</time>
      </trkpt>
      <trkpt lat="46.49487" lon="11.86873">
        <ele>1648.8</ele>
        <time>2012-08-01T16:45:57Z</time>
      </trkpt>
      <trkpt lat="46.4948" lon="11.86857">
        <ele>1650.24</ele>
        <time>2012-08-01T16:45:58Z</time>
      </trkpt>
      <trkpt lat="46.49476" lon="11.86839">
        <ele>1650.72</ele>
        <time>2012-08-01T16:45:59Z</time>
      </trkpt>
      <trkpt lat="46.49474" lon="11.86822">
        <ele>1651.68</ele>
        <time>2012-08-01T16:46:00Z</time>
      </trkpt>
      <trkpt lat="46.49475" lon="11.86804">
        <ele>1652.64</ele>
        <time>2012-08-01T16:46:01Z</time>
      </trkpt>
      <trkpt lat="46.49473" lon="11.86787">
        <ele>1653.12</ele>
        <time>2012-08-01T16:46:02Z</time>
      </trkpt>
      <trkpt lat="46.49469" lon="11.8677">
        <ele>1654.57</ele>
        <time>2012-08-01T16:46:03Z</time>
      </trkpt>
      <trkpt lat="46.49462" lon="11.86753">
        <ele>1656.01</ele>
        <time>2012-08-01T16:46:04Z</time>
      </trkpt>
      <trkpt lat="46.49453" lon="11.86738">
        <ele>1657.93</ele>
        <time>2012-08-01T16:46:05Z</time>
      </trkpt>
      <trkpt lat="46.49444" lon="11.86723">
        <ele>1658.41</ele>
        <time>2012-08-01T16:46:06Z</time>
      </trkpt>
      <trkpt lat="46.49435" lon="11.8671">
        <ele>1658.41</ele>
        <time>2012-08-01T16:46:07Z</time>
      </trkpt>
      <trkpt lat="46.49423" lon="11.86688">
        <ele>1658.89</ele>
        <time>2012-08-01T16:46:09Z</time>
      </trkpt>
      <trkpt lat="46.49421" lon="11.86679">
        <ele>1658.89</ele>
        <time>2012-08-01T16:46:10Z</time>
      </trkpt>
      <trkpt lat="46.49421" lon="11.86671">
        <ele>1659.37</ele>
        <time>2012-08-01T16:46:11Z</time>
      </trkpt>
      <trkpt lat="46.49426" lon="11.86668">
        <ele>1659.85</ele>
        <time>2012-08-01T16:46:12Z</time>
      </trkpt>
      <trkpt lat="46.49431" lon="11.8667">
        <ele>1660.33</ele>
        <time>2012-08-01T16:46:13Z</time>
      </trkpt>
      <trkpt lat="46.49437" lon="11.86677">
        <ele>1661.3</ele>
        <time>2012-08-01T16:46:14Z</time>
      </trkpt>
      <trkpt lat="46.4944" lon="11.86687">
        <ele>1661.78</ele>
        <time>2012-08-01T16:46:15Z</time>
      </trkpt>
      <trkpt lat="46.49445" lon="11.86697">
        <ele>1661.78</ele>
        <time>2012-08-01T16:46:16Z</time>
      </trkpt>
      <trkpt lat="46.4945" lon="11.86704">
        <ele>1662.26</ele>
        <time>2012-08-01T16:46:17Z</time>
      </trkpt>
      <trkpt lat="46.49456" lon="11.86707">
        <ele>1662.74</ele>
        <time>2012-08-01T16:46:18Z</time>
      </trkpt>
      <trkpt lat="46.49463" lon="11.86704">
        <ele>1663.22</ele>
        <time>2012-08-01T16:46:19Z</time>
      </trkpt>
      <trkpt lat="46.49469" lon="11.86695">
        <ele>1664.66</ele>
        <time>2012-08-01T16:46:20Z</time>
      </trkpt>
      <trkpt lat="46.49472" lon="11.86684">
        <ele>1665.62</ele>
        <time>2012-08-01T16:46:21Z</time>
      </trkpt>
      <trkpt lat="46.49477" lon="11.86671">
        <ele>1666.58</ele>
        <time>2012-08-01T16:46:22Z</time>
      </trkpt>
      <trkpt lat="46.49484" lon="11.86663">
        <ele>1667.54</ele>
        <time>2012-08-01T16:46:23Z</time>
      </trkpt>
      <trkpt lat="46.49494" lon="11.8666">
        <ele>1667.54</ele>
        <time>2012-08-01T16:46:24Z</time>
      </trkpt>
      <trkpt lat="46.49504" lon="11.86663">
        <ele>1669.47</ele>
        <time>2012-08-01T16:46:25Z</time>
      </trkpt>
      <trkpt lat="46.49515" lon="11.8667">
        <ele>1670.43</ele>
        <time>2012-08-01T16:46:26Z</time>
      </trkpt>
      <trkpt lat="46.49525" lon="11.86677">
        <ele>1670.91</ele>
        <time>2012-08-01T16:46:27Z</time>
      </trkpt>
      <trkpt lat="46.49542" lon="11.86688">
        <ele>1671.87</ele>
        <time>2012-08-01T16:46:29Z</time>
      </trkpt>
      <trkpt lat="46.4955" lon="11.86691">
        <ele>1672.35</ele>
        <time>2012-08-01T16:46:30Z</time>
      </trkpt>
      <trkpt lat="46.49556" lon="11.86689">
        <ele>1672.35</ele>
        <time>2012-08-01T16:46:31Z</time>
      </trkpt>
      <trkpt lat="46.49561" lon="11.86683">
        <ele>1673.31</ele>
        <time>2012-08-01T16:46:32Z</time>
      </trkpt>
      <trkpt lat="46.49561" lon="11.86674">
        <ele>1673.31</ele>
        <time>2012-08-01T16:46:33Z</time>
      </trkpt>
      <trkpt lat="46.49557" lon="11.86664">
        <ele>1674.75</ele>
        <time>2012-08-01T16:46:34Z</time>
      </trkpt>
      <trkpt lat="46.4955" lon="11.86654">
        <ele>1676.2</ele>
        <time>2012-08-01T16:46:35Z</time>
      </trkpt>
      <trkpt lat="46.49542" lon="11.86643">
        <ele>1677.16</ele>
        <time>2012-08-01T16:46:36Z</time>
      </trkpt>
      <trkpt lat="46.49535" lon="11.86631">
        <ele>1678.12</ele>
        <time>2012-08-01T16:46:37Z</time>
      </trkpt>
      <trkpt lat="46.49528" lon="11.86617">
        <ele>1679.56</ele>
        <time>2012-08-01T16:46:38Z</time>
      </trkpt>
      <trkpt lat="46.49523" lon="11.86601">
        <ele>1680.52</ele>
        <time>2012-08-01T16:46:39Z</time>
      </trkpt>
      <trkpt lat="46.4952" lon="11.86584">
        <ele>1681.48</ele>
        <time>2012-08-01T16:46:40Z</time>
      </trkpt>
      <trkpt lat="46.49517" lon="11.86565">
        <ele>1682.44</ele>
        <time>2012-08-01T16:46:41Z</time>
      </trkpt>
      <trkpt lat="46.49508" lon="11.86506">
        <ele>1686.77</ele>
        <time>2012-08-01T16:46:44Z</time>
      </trkpt>
      <trkpt lat="46.49502" lon="11.86463">
        <ele>1690.62</ele>
        <time>2012-08-01T16:46:46Z</time>
      </trkpt>
      <trkpt lat="46.49487" lon="11.86379">
        <ele>1695.42</ele>
        <time>2012-08-01T16:46:50Z</time>
      </trkpt>
      <trkpt lat="46.49484" lon="11.86358">
        <ele>1696.38</ele>
        <time>2012-08-01T16:46:51Z</time>
      </trkpt>
      <trkpt lat="46.49481" lon="11.86335">
        <ele>1698.31</ele>
        <time>2012-08-01T16:46:52Z</time>
      </trkpt>
      <trkpt lat="46.4948" lon="11.86313">
        <ele>1699.27</ele>
        <time>2012-08-01T16:46:53Z</time>
      </trkpt>
      <trkpt lat="46.49474" lon="11.86248">
        <ele>1702.63</ele>
        <time>2012-08-01T16:46:56Z</time>
      </trkpt>
      <trkpt lat="46.49467" lon="11.86229">
        <ele>1704.07</ele>
        <time>2012-08-01T16:46:57Z</time>
      </trkpt>
      <trkpt lat="46.49458" lon="11.86212">
        <ele>1704.55</ele>
        <time>2012-08-01T16:46:58Z</time>
      </trkpt>
      <trkpt lat="46.49429" lon="11.8616">
        <ele>1709.36</ele>
        <time>2012-08-01T16:47:01Z</time>
      </trkpt>
      <trkpt lat="46.49421" lon="11.86141">
        <ele>1709.84</ele>
        <time>2012-08-01T16:47:02Z</time>
      </trkpt>
      <trkpt lat="46.49416" lon="11.86121">
        <ele>1711.28</ele>
        <time>2012-08-01T16:47:03Z</time>
      </trkpt>
      <trkpt lat="46.49413" lon="11.86099">
        <ele>1712.25</ele>
        <time>2012-08-01T16:47:04Z</time>
      </trkpt>
      <trkpt lat="46.49413" lon="11.86077">
        <ele>1713.69</ele>
        <time>2012-08-01T16:47:05Z</time>
      </trkpt>
      <trkpt lat="46.49411" lon="11.86054">
        <ele>1715.13</ele>
        <time>2012-08-01T16:47:06Z</time>
      </trkpt>
      <trkpt lat="46.49407" lon="11.86032">
        <ele>1716.09</ele>
        <time>2012-08-01T16:47:07Z</time>
      </trkpt>
      <trkpt lat="46.49402" lon="11.8601">
        <ele>1717.53</ele>
        <time>2012-08-01T16:47:08Z</time>
      </trkpt>
      <trkpt lat="46.49392" lon="11.85974">
        <ele>1718.49</ele>
        <time>2012-08-01T16:47:10Z</time>
      </trkpt>
      <trkpt lat="46.49387" lon="11.8596">
        <ele>1718.97</ele>
        <time>2012-08-01T16:47:11Z</time>
      </trkpt>
      <trkpt lat="46.4938" lon="11.85948">
        <ele>1719.46</ele>
        <time>2012-08-01T16:47:12Z</time>
      </trkpt>
      <trkpt lat="46.4937" lon="11.85942">
        <ele>1720.42</ele>
        <time>2012-08-01T16:47:13Z</time>
      </trkpt>
      <trkpt lat="46.49358" lon="11.8594">
        <ele>1722.34</ele>
        <time>2012-08-01T16:47:14Z</time>
      </trkpt>
      <trkpt lat="46.49347" lon="11.85941">
        <ele>1721.86</ele>
        <time>2012-08-01T16:47:15Z</time>
      </trkpt>
      <trkpt lat="46.49337" lon="11.85942">
        <ele>1722.34</ele>
        <time>2012-08-01T16:47:16Z</time>
      </trkpt>
      <trkpt lat="46.4933" lon="11.85938">
        <ele>1721.86</ele>
        <time>2012-08-01T16:47:17Z</time>
      </trkpt>
      <trkpt lat="46.49326" lon="11.85931">
        <ele>1722.82</ele>
        <time>2012-08-01T16:47:18Z</time>
      </trkpt>
      <trkpt lat="46.49325" lon="11.85919">
        <ele>1723.78</ele>
        <time>2012-08-01T16:47:19Z</time>
      </trkpt>
      <trkpt lat="46.49327" lon="11.85906">
        <ele>1725.22</ele>
        <time>2012-08-01T16:47:20Z</time>
      </trkpt>
      <trkpt lat="46.4933" lon="11.8589">
        <ele>1726.67</ele>
        <time>2012-08-01T16:47:21Z</time>
      </trkpt>
      <trkpt lat="46.49335" lon="11.85858">
        <ele>1728.59</ele>
        <time>2012-08-01T16:47:23Z</time>
      </trkpt>
      <trkpt lat="46.49335" lon="11.85845">
        <ele>1729.07</ele>
        <time>2012-08-01T16:47:24Z</time>
      </trkpt>
      <trkpt lat="46.49331" lon="11.85834">
        <ele>1729.55</ele>
        <time>2012-08-01T16:47:25Z</time>
      </trkpt>
      <trkpt lat="46.49324" lon="11.85826">
        <ele>1730.51</ele>
        <time>2012-08-01T16:47:26Z</time>
      </trkpt>
      <trkpt lat="46.49315" lon="11.85823">
        <ele>1730.99</ele>
        <time>2012-08-01T16:47:27Z</time>
      </trkpt>
      <trkpt lat="46.49307" lon="11.85818">
        <ele>1731.47</ele>
        <time>2012-08-01T16:47:28Z</time>
      </trkpt>
      <trkpt lat="46.49302" lon="11.85809">
        <ele>1731.47</ele>
        <time>2012-08-01T16:47:29Z</time>
      </trkpt>
      <trkpt lat="46.49301" lon="11.85796">
        <ele>1732.43</ele>
        <time>2012-08-01T16:47:30Z</time>
      </trkpt>
      <trkpt lat="46.493" lon="11.85782">
        <ele>1734.36</ele>
        <time>2012-08-01T16:47:31Z</time>
      </trkpt>
      <trkpt lat="46.49299" lon="11.85755">
        <ele>1734.36</ele>
        <time>2012-08-01T16:47:33Z</time>
      </trkpt>
      <trkpt lat="46.49301" lon="11.85745">
        <ele>1734.84</ele>
        <time>2012-08-01T16:47:34Z</time>
      </trkpt>
      <trkpt lat="46.49306" lon="11.8574">
        <ele>1734.84</ele>
        <time>2012-08-01T16:47:35Z</time>
      </trkpt>
      <trkpt lat="46.49312" lon="11.85741">
        <ele>1735.32</ele>
        <time>2012-08-01T16:47:36Z</time>
      </trkpt>
      <trkpt lat="46.49315" lon="11.85748">
        <ele>1736.28</ele>
        <time>2012-08-01T16:47:37Z</time>
      </trkpt>
      <trkpt lat="46.49315" lon="11.85758">
        <ele>1736.76</ele>
        <time>2012-08-01T16:47:38Z</time>
      </trkpt>
      <trkpt lat="46.49317" lon="11.85769">
        <ele>1737.72</ele>
        <time>2012-08-01T16:47:39Z</time>
      </trkpt>
      <trkpt lat="46.49321" lon="11.85776">
        <ele>1737.72</ele>
        <time>2012-08-01T16:47:40Z</time>
      </trkpt>
      <trkpt lat="46.49327" lon="11.85777">
        <ele>1738.2</ele>
        <time>2012-08-01T16:47:41Z</time>
      </trkpt>
      <trkpt lat="46.49333" lon="11.85773">
        <ele>1738.68</ele>
        <time>2012-08-01T16:47:42Z</time>
      </trkpt>
      <trkpt lat="46.49335" lon="11.85763">
        <ele>1739.64</ele>
        <time>2012-08-01T16:47:43Z</time>
      </trkpt>
      <trkpt lat="46.49334" lon="11.85751">
        <ele>1740.6</ele>
        <time>2012-08-01T16:47:44Z</time>
      </trkpt>
      <trkpt lat="46.49331" lon="11.85736">
        <ele>1742.53</ele>
        <time>2012-08-01T16:47:45Z</time>
      </trkpt>
      <trkpt lat="46.49327" lon="11.8572">
        <ele>1743.01</ele>
        <time>2012-08-01T16:47:46Z</time>
      </trkpt>
      <trkpt lat="46.49324" lon="11.85707">
        <ele>1743.49</ele>
        <time>2012-08-01T16:47:47Z</time>
      </trkpt>
      <trkpt lat="46.49322" lon="11.85696">
        <ele>1743.01</ele>
        <time>2012-08-01T16:47:48Z</time>
      </trkpt>
      <trkpt lat="46.49324" lon="11.85688">
        <ele>1743.49</ele>
        <time>2012-08-01T16:47:49Z</time>
      </trkpt>
      <trkpt lat="46.49327" lon="11.85683">
        <ele>1743.49</ele>
        <time>2012-08-01T16:47:50Z</time>
      </trkpt>
      <trkpt lat="46.49332" lon="11.85686">
        <ele>1744.45</ele>
        <time>2012-08-01T16:47:51Z</time>
      </trkpt>
      <trkpt lat="46.49336" lon="11.85694">
        <ele>1744.93</ele>
        <time>2012-08-01T16:47:52Z</time>
      </trkpt>
      <trkpt lat="46.49339" lon="11.85702">
        <ele>1745.89</ele>
        <time>2012-08-01T16:47:53Z</time>
      </trkpt>
      <trkpt lat="46.49344" lon="11.85708">
        <ele>1745.89</ele>
        <time>2012-08-01T16:47:54Z</time>
      </trkpt>
      <trkpt lat="46.4935" lon="11.85707">
        <ele>1746.37</ele>
        <time>2012-08-01T16:47:55Z</time>
      </trkpt>
      <trkpt lat="46.49355" lon="11.85701">
        <ele>1747.33</ele>
        <time>2012-08-01T16:47:56Z</time>
      </trkpt>
      <trkpt lat="46.49355" lon="11.8569">
        <ele>1747.81</ele>
        <time>2012-08-01T16:47:57Z</time>
      </trkpt>
      <trkpt lat="46.49351" lon="11.85678">
        <ele>1749.26</ele>
        <time>2012-08-01T16:47:58Z</time>
      </trkpt>
      <trkpt lat="46.49346" lon="11.85664">
        <ele>1750.22</ele>
        <time>2012-08-01T16:47:59Z</time>
      </trkpt>
      <trkpt lat="46.49333" lon="11.85637">
        <ele>1751.66</ele>
        <time>2012-08-01T16:48:01Z</time>
      </trkpt>
      <trkpt lat="46.49328" lon="11.85622">
        <ele>1752.62</ele>
        <time>2012-08-01T16:48:02Z</time>
      </trkpt>
      <trkpt lat="46.49325" lon="11.85606">
        <ele>1753.58</ele>
        <time>2012-08-01T16:48:03Z</time>
      </trkpt>
      <trkpt lat="46.49324" lon="11.85589">
        <ele>1755.5</ele>
        <time>2012-08-01T16:48:04Z</time>
      </trkpt>
      <trkpt lat="46.49323" lon="11.85572">
        <ele>1755.5</ele>
        <time>2012-08-01T16:48:05Z</time>
      </trkpt>
      <trkpt lat="46.49321" lon="11.85558">
        <ele>1756.47</ele>
        <time>2012-08-01T16:48:06Z</time>
      </trkpt>
      <trkpt lat="46.49317" lon="11.85543">
        <ele>1756.95</ele>
        <time>2012-08-01T16:48:07Z</time>
      </trkpt>
      <trkpt lat="46.49311" lon="11.85531">
        <ele>1758.39</ele>
        <time>2012-08-01T16:48:08Z</time>
      </trkpt>
      <trkpt lat="46.49303" lon="11.85523">
        <ele>1759.35</ele>
        <time>2012-08-01T16:48:09Z</time>
      </trkpt>
      <trkpt lat="46.49293" lon="11.85518">
        <ele>1760.79</ele>
        <time>2012-08-01T16:48:10Z</time>
      </trkpt>
      <trkpt lat="46.49281" lon="11.85514">
        <ele>1761.27</ele>
        <time>2012-08-01T16:48:11Z</time>
      </trkpt>
      <trkpt lat="46.49269" lon="11.85511">
        <ele>1763.2</ele>
        <time>2012-08-01T16:48:12Z</time>
      </trkpt>
      <trkpt lat="46.49222" lon="11.85498">
        <ele>1765.6</ele>
        <time>2012-08-01T16:48:16Z</time>
      </trkpt>
      <trkpt lat="46.49213" lon="11.8549">
        <ele>1767.04</ele>
        <time>2012-08-01T16:48:17Z</time>
      </trkpt>
      <trkpt lat="46.49204" lon="11.85479">
        <ele>1769.44</ele>
        <time>2012-08-01T16:48:18Z</time>
      </trkpt>
      <trkpt lat="46.49194" lon="11.85467">
        <ele>1770.41</ele>
        <time>2012-08-01T16:48:19Z</time>
      </trkpt>
      <trkpt lat="46.49183" lon="11.85456">
        <ele>1771.37</ele>
        <time>2012-08-01T16:48:20Z</time>
      </trkpt>
      <trkpt lat="46.49171" lon="11.85445">
        <ele>1773.29</ele>
        <time>2012-08-01T16:48:21Z</time>
      </trkpt>
      <trkpt lat="46.49136" lon="11.85411">
        <ele>1776.65</ele>
        <time>2012-08-01T16:48:24Z</time>
      </trkpt>
      <trkpt lat="46.49127" lon="11.85399">
        <ele>1776.17</ele>
        <time>2012-08-01T16:48:25Z</time>
      </trkpt>
      <trkpt lat="46.49119" lon="11.85385">
        <ele>1778.1</ele>
        <time>2012-08-01T16:48:26Z</time>
      </trkpt>
      <trkpt lat="46.49114" lon="11.85369">
        <ele>1778.58</ele>
        <time>2012-08-01T16:48:27Z</time>
      </trkpt>
      <trkpt lat="46.49103" lon="11.85333">
        <ele>1781.94</ele>
        <time>2012-08-01T16:48:29Z</time>
      </trkpt>
      <trkpt lat="46.4909" lon="11.85295">
        <ele>1785.31</ele>
        <time>2012-08-01T16:48:31Z</time>
      </trkpt>
      <trkpt lat="46.49081" lon="11.85279">
        <ele>1785.79</ele>
        <time>2012-08-01T16:48:32Z</time>
      </trkpt>
      <trkpt lat="46.49063" lon="11.85252">
        <ele>1788.19</ele>
        <time>2012-08-01T16:48:34Z</time>
      </trkpt>
      <trkpt lat="46.49057" lon="11.85234">
        <ele>1789.63</ele>
        <time>2012-08-01T16:48:35Z</time>
      </trkpt>
      <trkpt lat="46.49053" lon="11.85214">
        <ele>1790.59</ele>
        <time>2012-08-01T16:48:36Z</time>
      </trkpt>
      <trkpt lat="46.49042" lon="11.85146">
        <ele>1793.96</ele>
        <time>2012-08-01T16:48:39Z</time>
      </trkpt>
      <trkpt lat="46.49032" lon="11.85071">
        <ele>1798.28</ele>
        <time>2012-08-01T16:48:42Z</time>
      </trkpt>
      <trkpt lat="46.49027" lon="11.84996">
        <ele>1801.17</ele>
        <time>2012-08-01T16:48:45Z</time>
      </trkpt>
      <trkpt lat="46.49026" lon="11.84973">
        <ele>1801.17</ele>
        <time>2012-08-01T16:48:46Z</time>
      </trkpt>
      <trkpt lat="46.49024" lon="11.84952">
        <ele>1801.17</ele>
        <time>2012-08-01T16:48:47Z</time>
      </trkpt>
      <trkpt lat="46.4902" lon="11.84932">
        <ele>1802.61</ele>
        <time>2012-08-01T16:48:48Z</time>
      </trkpt>
      <trkpt lat="46.49013" lon="11.84913">
        <ele>1803.57</ele>
        <time>2012-08-01T16:48:49Z</time>
      </trkpt>
      <trkpt lat="46.48986" lon="11.84857">
        <ele>1807.9</ele>
        <time>2012-08-01T16:48:52Z</time>
      </trkpt>
      <trkpt lat="46.48975" lon="11.8484">
        <ele>1809.34</ele>
        <time>2012-08-01T16:48:53Z</time>
      </trkpt>
      <trkpt lat="46.48962" lon="11.84825">
        <ele>1810.3</ele>
        <time>2012-08-01T16:48:54Z</time>
      </trkpt>
      <trkpt lat="46.48924" lon="11.84792">
        <ele>1813.18</ele>
        <time>2012-08-01T16:48:57Z</time>
      </trkpt>
      <trkpt lat="46.48913" lon="11.84789">
        <ele>1813.18</ele>
        <time>2012-08-01T16:48:58Z</time>
      </trkpt>
      <trkpt lat="46.48903" lon="11.84786">
        <ele>1813.18</ele>
        <time>2012-08-01T16:48:59Z</time>
      </trkpt>
      <trkpt lat="46.48896" lon="11.84781">
        <ele>1813.66</ele>
        <time>2012-08-01T16:49:00Z</time>
      </trkpt>
      <trkpt lat="46.48891" lon="11.84772">
        <ele>1814.15</ele>
        <time>2012-08-01T16:49:01Z</time>
      </trkpt>
      <trkpt lat="46.4889" lon="11.84761">
        <ele>1815.11</ele>
        <time>2012-08-01T16:49:02Z</time>
      </trkpt>
      <trkpt lat="46.48891" lon="11.84753">
        <ele>1816.07</ele>
        <time>2012-08-01T16:49:03Z</time>
      </trkpt>
      <trkpt lat="46.48898" lon="11.84748">
        <ele>1817.99</ele>
        <time>2012-08-01T16:49:04Z</time>
      </trkpt>
      <trkpt lat="46.48906" lon="11.84742">
        <ele>1817.99</ele>
        <time>2012-08-01T16:49:05Z</time>
      </trkpt>
      <trkpt lat="46.48912" lon="11.84733">
        <ele>1817.99</ele>
        <time>2012-08-01T16:49:06Z</time>
      </trkpt>
      <trkpt lat="46.48915" lon="11.84725">
        <ele>1818.47</ele>
        <time>2012-08-01T16:49:07Z</time>
      </trkpt>
      <trkpt lat="46.48913" lon="11.84717">
        <ele>1819.91</ele>
        <time>2012-08-01T16:49:08Z</time>
      </trkpt>
      <trkpt lat="46.48906" lon="11.8471">
        <ele>1821.35</ele>
        <time>2012-08-01T16:49:09Z</time>
      </trkpt>
      <trkpt lat="46.48896" lon="11.84704">
        <ele>1822.32</ele>
        <time>2012-08-01T16:49:10Z</time>
      </trkpt>
      <trkpt lat="46.48887" lon="11.84698">
        <ele>1823.28</ele>
        <time>2012-08-01T16:49:11Z</time>
      </trkpt>
      <trkpt lat="46.48881" lon="11.84689">
        <ele>1823.76</ele>
        <time>2012-08-01T16:49:12Z</time>
      </trkpt>
      <trkpt lat="46.48876" lon="11.84676">
        <ele>1825.2</ele>
        <time>2012-08-01T16:49:13Z</time>
      </trkpt>
      <trkpt lat="46.48874" lon="11.8466">
        <ele>1827.12</ele>
        <time>2012-08-01T16:49:14Z</time>
      </trkpt>
      <trkpt lat="46.48874" lon="11.84641">
        <ele>1828.08</ele>
        <time>2012-08-01T16:49:15Z</time>
      </trkpt>
      <trkpt lat="46.48873" lon="11.84578">
        <ele>1832.89</ele>
        <time>2012-08-01T16:49:18Z</time>
      </trkpt>
      <trkpt lat="46.48867" lon="11.84514">
        <ele>1836.26</ele>
        <time>2012-08-01T16:49:21Z</time>
      </trkpt>
      <trkpt lat="46.48863" lon="11.84497">
        <ele>1836.74</ele>
        <time>2012-08-01T16:49:22Z</time>
      </trkpt>
      <trkpt lat="46.48858" lon="11.84482">
        <ele>1836.74</ele>
        <time>2012-08-01T16:49:23Z</time>
      </trkpt>
      <trkpt lat="46.48853" lon="11.84471">
        <ele>1836.26</ele>
        <time>2012-08-01T16:49:24Z</time>
      </trkpt>
      <trkpt lat="46.48846" lon="11.84464">
        <ele>1836.26</ele>
        <time>2012-08-01T16:49:25Z</time>
      </trkpt>
      <trkpt lat="46.48837" lon="11.8446">
        <ele>1837.22</ele>
        <time>2012-08-01T16:49:26Z</time>
      </trkpt>
      <trkpt lat="46.48828" lon="11.84462">
        <ele>1838.18</ele>
        <time>2012-08-01T16:49:27Z</time>
      </trkpt>
      <trkpt lat="46.48818" lon="11.8447">
        <ele>1838.18</ele>
        <time>2012-08-01T16:49:28Z</time>
      </trkpt>
      <trkpt lat="46.48811" lon="11.84483">
        <ele>1838.18</ele>
        <time>2012-08-01T16:49:29Z</time>
      </trkpt>
      <trkpt lat="46.48804" lon="11.84499">
        <ele>1839.62</ele>
        <time>2012-08-01T16:49:30Z</time>
      </trkpt>
      <trkpt lat="46.48798" lon="11.84515">
        <ele>1839.62</ele>
        <time>2012-08-01T16:49:31Z</time>
      </trkpt>
      <trkpt lat="46.48784" lon="11.84549">
        <ele>1839.62</ele>
        <time>2012-08-01T16:49:34Z</time>
      </trkpt>
      <trkpt lat="46.48778" lon="11.84554">
        <ele>1840.1</ele>
        <time>2012-08-01T16:49:35Z</time>
      </trkpt>
      <trkpt lat="46.48772" lon="11.84555">
        <ele>1840.1</ele>
        <time>2012-08-01T16:49:36Z</time>
      </trkpt>
      <trkpt lat="46.48759" lon="11.84548">
        <ele>1840.58</ele>
        <time>2012-08-01T16:49:38Z</time>
      </trkpt>
      <trkpt lat="46.48754" lon="11.84544">
        <ele>1842.5</ele>
        <time>2012-08-01T16:49:39Z</time>
      </trkpt>
      <trkpt lat="46.48752" lon="11.84539">
        <ele>1842.98</ele>
        <time>2012-08-01T16:49:40Z</time>
      </trkpt>
      <trkpt lat="46.48753" lon="11.84531">
        <ele>1844.43</ele>
        <time>2012-08-01T16:49:41Z</time>
      </trkpt>
      <trkpt lat="46.48758" lon="11.84513">
        <ele>1844.43</ele>
        <time>2012-08-01T16:49:42Z</time>
      </trkpt>
      <trkpt lat="46.48762" lon="11.84496">
        <ele>1845.39</ele>
        <time>2012-08-01T16:49:43Z</time>
      </trkpt>
      <trkpt lat="46.48764" lon="11.84479">
        <ele>1845.87</ele>
        <time>2012-08-01T16:49:44Z</time>
      </trkpt>
      <trkpt lat="46.48765" lon="11.84463">
        <ele>1846.83</ele>
        <time>2012-08-01T16:49:45Z</time>
      </trkpt>
      <trkpt lat="46.48764" lon="11.84449">
        <ele>1847.31</ele>
        <time>2012-08-01T16:49:46Z</time>
      </trkpt>
      <trkpt lat="46.48764" lon="11.84436">
        <ele>1848.27</ele>
        <time>2012-08-01T16:49:47Z</time>
      </trkpt>
      <trkpt lat="46.48764" lon="11.84422">
        <ele>1849.23</ele>
        <time>2012-08-01T16:49:48Z</time>
      </trkpt>
      <trkpt lat="46.48766" lon="11.84409">
        <ele>1849.23</ele>
        <time>2012-08-01T16:49:49Z</time>
      </trkpt>
      <trkpt lat="46.48769" lon="11.84397">
        <ele>1850.19</ele>
        <time>2012-08-01T16:49:50Z</time>
      </trkpt>
      <trkpt lat="46.4877" lon="11.84387">
        <ele>1850.68</ele>
        <time>2012-08-01T16:49:51Z</time>
      </trkpt>
      <trkpt lat="46.4877" lon="11.84377">
        <ele>1851.16</ele>
        <time>2012-08-01T16:49:52Z</time>
      </trkpt>
      <trkpt lat="46.48768" lon="11.84368">
        <ele>1851.64</ele>
        <time>2012-08-01T16:49:53Z</time>
      </trkpt>
      <trkpt lat="46.48763" lon="11.84363">
        <ele>1852.12</ele>
        <time>2012-08-01T16:49:54Z</time>
      </trkpt>
      <trkpt lat="46.48757" lon="11.84364">
        <ele>1852.6</ele>
        <time>2012-08-01T16:49:55Z</time>
      </trkpt>
      <trkpt lat="46.48751" lon="11.8437">
        <ele>1853.08</ele>
        <time>2012-08-01T16:49:56Z</time>
      </trkpt>
      <trkpt lat="46.48749" lon="11.8438">
        <ele>1853.56</ele>
        <time>2012-08-01T16:49:57Z</time>
      </trkpt>
      <trkpt lat="46.4875" lon="11.84389">
        <ele>1854.04</ele>
        <time>2012-08-01T16:49:58Z</time>
      </trkpt>
      <trkpt lat="46.48751" lon="11.84398">
        <ele>1854.04</ele>
        <time>2012-08-01T16:49:59Z</time>
      </trkpt>
      <trkpt lat="46.4875" lon="11.84406">
        <ele>1854.52</ele>
        <time>2012-08-01T16:50:00Z</time>
      </trkpt>
      <trkpt lat="46.48747" lon="11.84412">
        <ele>1854.52</ele>
        <time>2012-08-01T16:50:01Z</time>
      </trkpt>
      <trkpt lat="46.48741" lon="11.84415">
        <ele>1855</ele>
        <time>2012-08-01T16:50:02Z</time>
      </trkpt>
      <trkpt lat="46.48736" lon="11.84412">
        <ele>1855.96</ele>
        <time>2012-08-01T16:50:03Z</time>
      </trkpt>
      <trkpt lat="46.48733" lon="11.84404">
        <ele>1856.44</ele>
        <time>2012-08-01T16:50:04Z</time>
      </trkpt>
      <trkpt lat="46.48731" lon="11.84393">
        <ele>1857.4</ele>
        <time>2012-08-01T16:50:05Z</time>
      </trkpt>
      <trkpt lat="46.48732" lon="11.84381">
        <ele>1857.89</ele>
        <time>2012-08-01T16:50:06Z</time>
      </trkpt>
      <trkpt lat="46.48735" lon="11.84323">
        <ele>1861.25</ele>
        <time>2012-08-01T16:50:11Z</time>
      </trkpt>
      <trkpt lat="46.48734" lon="11.84294">
        <ele>1862.69</ele>
        <time>2012-08-01T16:50:14Z</time>
      </trkpt>
      <trkpt lat="46.4873" lon="11.84288">
        <ele>1862.69</ele>
        <time>2012-08-01T16:50:15Z</time>
      </trkpt>
      <trkpt lat="46.48725" lon="11.84285">
        <ele>1863.17</ele>
        <time>2012-08-01T16:50:16Z</time>
      </trkpt>
      <trkpt lat="46.48718" lon="11.84288">
        <ele>1863.17</ele>
        <time>2012-08-01T16:50:17Z</time>
      </trkpt>
      <trkpt lat="46.48713" lon="11.84295">
        <ele>1864.13</ele>
        <time>2012-08-01T16:50:18Z</time>
      </trkpt>
      <trkpt lat="46.48711" lon="11.84307">
        <ele>1865.58</ele>
        <time>2012-08-01T16:50:19Z</time>
      </trkpt>
      <trkpt lat="46.48709" lon="11.8432">
        <ele>1866.06</ele>
        <time>2012-08-01T16:50:20Z</time>
      </trkpt>
      <trkpt lat="46.48708" lon="11.84333">
        <ele>1867.02</ele>
        <time>2012-08-01T16:50:21Z</time>
      </trkpt>
      <trkpt lat="46.48708" lon="11.84345">
        <ele>1866.54</ele>
        <time>2012-08-01T16:50:22Z</time>
      </trkpt>
      <trkpt lat="46.48707" lon="11.84355">
        <ele>1867.5</ele>
        <time>2012-08-01T16:50:23Z</time>
      </trkpt>
      <trkpt lat="46.48704" lon="11.84363">
        <ele>1867.5</ele>
        <time>2012-08-01T16:50:24Z</time>
      </trkpt>
      <trkpt lat="46.487" lon="11.84369">
        <ele>1868.46</ele>
        <time>2012-08-01T16:50:25Z</time>
      </trkpt>
      <trkpt lat="46.48694" lon="11.8437">
        <ele>1868.46</ele>
        <time>2012-08-01T16:50:26Z</time>
      </trkpt>
      <trkpt lat="46.48689" lon="11.84366">
        <ele>1869.42</ele>
        <time>2012-08-01T16:50:27Z</time>
      </trkpt>
      <trkpt lat="46.48686" lon="11.84356">
        <ele>1869.9</ele>
        <time>2012-08-01T16:50:28Z</time>
      </trkpt>
      <trkpt lat="46.48688" lon="11.84344">
        <ele>1870.38</ele>
        <time>2012-08-01T16:50:29Z</time>
      </trkpt>
      <trkpt lat="46.48689" lon="11.8433">
        <ele>1871.82</ele>
        <time>2012-08-01T16:50:30Z</time>
      </trkpt>
      <trkpt lat="46.48689" lon="11.84313">
        <ele>1873.75</ele>
        <time>2012-08-01T16:50:31Z</time>
      </trkpt>
      <trkpt lat="46.48687" lon="11.84294">
        <ele>1874.71</ele>
        <time>2012-08-01T16:50:32Z</time>
      </trkpt>
      <trkpt lat="46.48682" lon="11.8425">
        <ele>1878.55</ele>
        <time>2012-08-01T16:50:34Z</time>
      </trkpt>
      <trkpt lat="46.48672" lon="11.84174">
        <ele>1880.48</ele>
        <time>2012-08-01T16:50:38Z</time>
      </trkpt>
      <trkpt lat="46.48668" lon="11.84164">
        <ele>1880.48</ele>
        <time>2012-08-01T16:50:39Z</time>
      </trkpt>
      <trkpt lat="46.48661" lon="11.84159">
        <ele>1880.48</ele>
        <time>2012-08-01T16:50:40Z</time>
      </trkpt>
      <trkpt lat="46.48654" lon="11.84162">
        <ele>1880.96</ele>
        <time>2012-08-01T16:50:41Z</time>
      </trkpt>
      <trkpt lat="46.48647" lon="11.84172">
        <ele>1881.92</ele>
        <time>2012-08-01T16:50:42Z</time>
      </trkpt>
      <trkpt lat="46.48642" lon="11.84187">
        <ele>1883.84</ele>
        <time>2012-08-01T16:50:43Z</time>
      </trkpt>
      <trkpt lat="46.48638" lon="11.84204">
        <ele>1884.8</ele>
        <time>2012-08-01T16:50:44Z</time>
      </trkpt>
      <trkpt lat="46.48633" lon="11.84244">
        <ele>1888.65</ele>
        <time>2012-08-01T16:50:46Z</time>
      </trkpt>
      <trkpt lat="46.48632" lon="11.84263">
        <ele>1889.13</ele>
        <time>2012-08-01T16:50:47Z</time>
      </trkpt>
      <trkpt lat="46.48632" lon="11.84279">
        <ele>1888.65</ele>
        <time>2012-08-01T16:50:48Z</time>
      </trkpt>
      <trkpt lat="46.4863" lon="11.84291">
        <ele>1889.13</ele>
        <time>2012-08-01T16:50:49Z</time>
      </trkpt>
      <trkpt lat="46.48626" lon="11.84299">
        <ele>1889.61</ele>
        <time>2012-08-01T16:50:50Z</time>
      </trkpt>
      <trkpt lat="46.4862" lon="11.84301">
        <ele>1889.61</ele>
        <time>2012-08-01T16:50:51Z</time>
      </trkpt>
      <trkpt lat="46.48614" lon="11.84295">
        <ele>1890.57</ele>
        <time>2012-08-01T16:50:52Z</time>
      </trkpt>
      <trkpt lat="46.48609" lon="11.84283">
        <ele>1892.01</ele>
        <time>2012-08-01T16:50:53Z</time>
      </trkpt>
      <trkpt lat="46.48606" lon="11.84266">
        <ele>1893.93</ele>
        <time>2012-08-01T16:50:54Z</time>
      </trkpt>
      <trkpt lat="46.48602" lon="11.84247">
        <ele>1895.86</ele>
        <time>2012-08-01T16:50:55Z</time>
      </trkpt>
      <trkpt lat="46.48595" lon="11.84201">
        <ele>1899.7</ele>
        <time>2012-08-01T16:50:57Z</time>
      </trkpt>
      <trkpt lat="46.48584" lon="11.84156">
        <ele>1902.59</ele>
        <time>2012-08-01T16:50:59Z</time>
      </trkpt>
      <trkpt lat="46.48575" lon="11.84137">
        <ele>1903.07</ele>
        <time>2012-08-01T16:51:00Z</time>
      </trkpt>
      <trkpt lat="46.48556" lon="11.84104">
        <ele>1905.47</ele>
        <time>2012-08-01T16:51:02Z</time>
      </trkpt>
      <trkpt lat="46.48551" lon="11.84083">
        <ele>1906.43</ele>
        <time>2012-08-01T16:51:03Z</time>
      </trkpt>
      <trkpt lat="46.4855" lon="11.8406">
        <ele>1907.87</ele>
        <time>2012-08-01T16:51:04Z</time>
      </trkpt>
      <trkpt lat="46.48552" lon="11.84037">
        <ele>1909.32</ele>
        <time>2012-08-01T16:51:05Z</time>
      </trkpt>
      <trkpt lat="46.48558" lon="11.84015">
        <ele>1910.28</ele>
        <time>2012-08-01T16:51:06Z</time>
      </trkpt>
      <trkpt lat="46.48565" lon="11.83994">
        <ele>1912.2</ele>
        <time>2012-08-01T16:51:07Z</time>
      </trkpt>
      <trkpt lat="46.48571" lon="11.83971">
        <ele>1913.64</ele>
        <time>2012-08-01T16:51:08Z</time>
      </trkpt>
      <trkpt lat="46.48574" lon="11.83948">
        <ele>1914.6</ele>
        <time>2012-08-01T16:51:09Z</time>
      </trkpt>
      <trkpt lat="46.48578" lon="11.83897">
        <ele>1915.08</ele>
        <time>2012-08-01T16:51:12Z</time>
      </trkpt>
      <trkpt lat="46.48574" lon="11.83888">
        <ele>1914.6</ele>
        <time>2012-08-01T16:51:13Z</time>
      </trkpt>
      <trkpt lat="46.48567" lon="11.83885">
        <ele>1915.56</ele>
        <time>2012-08-01T16:51:14Z</time>
      </trkpt>
      <trkpt lat="46.48559" lon="11.83889">
        <ele>1916.04</ele>
        <time>2012-08-01T16:51:15Z</time>
      </trkpt>
      <trkpt lat="46.48551" lon="11.83899">
        <ele>1917.49</ele>
        <time>2012-08-01T16:51:16Z</time>
      </trkpt>
      <trkpt lat="46.48545" lon="11.83913">
        <ele>1918.45</ele>
        <time>2012-08-01T16:51:17Z</time>
      </trkpt>
      <trkpt lat="46.48537" lon="11.83929">
        <ele>1919.89</ele>
        <time>2012-08-01T16:51:18Z</time>
      </trkpt>
      <trkpt lat="46.48528" lon="11.83943">
        <ele>1921.33</ele>
        <time>2012-08-01T16:51:19Z</time>
      </trkpt>
      <trkpt lat="46.48518" lon="11.83955">
        <ele>1921.81</ele>
        <time>2012-08-01T16:51:20Z</time>
      </trkpt>
      <trkpt lat="46.4851" lon="11.8397">
        <ele>1922.29</ele>
        <time>2012-08-01T16:51:21Z</time>
      </trkpt>
      <trkpt lat="46.48505" lon="11.83987">
        <ele>1923.74</ele>
        <time>2012-08-01T16:51:22Z</time>
      </trkpt>
      <trkpt lat="46.48502" lon="11.84007">
        <ele>1925.66</ele>
        <time>2012-08-01T16:51:23Z</time>
      </trkpt>
      <trkpt lat="46.485" lon="11.84029">
        <ele>1926.62</ele>
        <time>2012-08-01T16:51:24Z</time>
      </trkpt>
      <trkpt lat="46.48495" lon="11.84071">
        <ele>1929.98</ele>
        <time>2012-08-01T16:51:26Z</time>
      </trkpt>
      <trkpt lat="46.48491" lon="11.8409">
        <ele>1930.95</ele>
        <time>2012-08-01T16:51:27Z</time>
      </trkpt>
      <trkpt lat="46.48475" lon="11.84132">
        <ele>1931.43</ele>
        <time>2012-08-01T16:51:30Z</time>
      </trkpt>
      <trkpt lat="46.48468" lon="11.84139">
        <ele>1931.91</ele>
        <time>2012-08-01T16:51:31Z</time>
      </trkpt>
      <trkpt lat="46.48462" lon="11.84138">
        <ele>1932.39</ele>
        <time>2012-08-01T16:51:32Z</time>
      </trkpt>
      <trkpt lat="46.48456" lon="11.84132">
        <ele>1932.87</ele>
        <time>2012-08-01T16:51:33Z</time>
      </trkpt>
      <trkpt lat="46.48452" lon="11.84126">
        <ele>1933.35</ele>
        <time>2012-08-01T16:51:34Z</time>
      </trkpt>
      <trkpt lat="46.48454" lon="11.84118">
        <ele>1934.31</ele>
        <time>2012-08-01T16:51:35Z</time>
      </trkpt>
      <trkpt lat="46.48458" lon="11.8411">
        <ele>1936.71</ele>
        <time>2012-08-01T16:51:36Z</time>
      </trkpt>
      <trkpt lat="46.48463" lon="11.84099">
        <ele>1937.19</ele>
        <time>2012-08-01T16:51:37Z</time>
      </trkpt>
      <trkpt lat="46.48467" lon="11.84081">
        <ele>1938.16</ele>
        <time>2012-08-01T16:51:38Z</time>
      </trkpt>
      <trkpt lat="46.48467" lon="11.8406">
        <ele>1939.6</ele>
        <time>2012-08-01T16:51:39Z</time>
      </trkpt>
      <trkpt lat="46.48466" lon="11.8404">
        <ele>1940.08</ele>
        <time>2012-08-01T16:51:40Z</time>
      </trkpt>
      <trkpt lat="46.48458" lon="11.83974">
        <ele>1944.4</ele>
        <time>2012-08-01T16:51:43Z</time>
      </trkpt>
      <trkpt lat="46.48446" lon="11.83907">
        <ele>1947.77</ele>
        <time>2012-08-01T16:51:46Z</time>
      </trkpt>
      <trkpt lat="46.48428" lon="11.83807">
        <ele>1950.65</ele>
        <time>2012-08-01T16:51:51Z</time>
      </trkpt>
      <trkpt lat="46.48428" lon="11.83787">
        <ele>1951.61</ele>
        <time>2012-08-01T16:51:52Z</time>
      </trkpt>
      <trkpt lat="46.4843" lon="11.83766">
        <ele>1953.06</ele>
        <time>2012-08-01T16:51:53Z</time>
      </trkpt>
      <trkpt lat="46.48435" lon="11.83725">
        <ele>1956.42</ele>
        <time>2012-08-01T16:51:55Z</time>
      </trkpt>
      <trkpt lat="46.4844" lon="11.83642">
        <ele>1961.23</ele>
        <time>2012-08-01T16:51:59Z</time>
      </trkpt>
      <trkpt lat="46.48439" lon="11.83553">
        <ele>1965.55</ele>
        <time>2012-08-01T16:52:03Z</time>
      </trkpt>
      <trkpt lat="46.48433" lon="11.83484">
        <ele>1969.4</ele>
        <time>2012-08-01T16:52:06Z</time>
      </trkpt>
      <trkpt lat="46.4843" lon="11.83461">
        <ele>1970.84</ele>
        <time>2012-08-01T16:52:07Z</time>
      </trkpt>
      <trkpt lat="46.4843" lon="11.83437">
        <ele>1972.28</ele>
        <time>2012-08-01T16:52:08Z</time>
      </trkpt>
      <trkpt lat="46.48433" lon="11.83414">
        <ele>1973.72</ele>
        <time>2012-08-01T16:52:09Z</time>
      </trkpt>
      <trkpt lat="46.48438" lon="11.83392">
        <ele>1975.17</ele>
        <time>2012-08-01T16:52:10Z</time>
      </trkpt>
      <trkpt lat="46.48446" lon="11.83369">
        <ele>1976.61</ele>
        <time>2012-08-01T16:52:11Z</time>
      </trkpt>
      <trkpt lat="46.48461" lon="11.83324">
        <ele>1979.97</ele>
        <time>2012-08-01T16:52:13Z</time>
      </trkpt>
      <trkpt lat="46.48491" lon="11.83232">
        <ele>1986.22</ele>
        <time>2012-08-01T16:52:17Z</time>
      </trkpt>
      <trkpt lat="46.48512" lon="11.8314">
        <ele>1987.18</ele>
        <time>2012-08-01T16:52:22Z</time>
      </trkpt>
      <trkpt lat="46.48513" lon="11.83127">
        <ele>1987.18</ele>
        <time>2012-08-01T16:52:23Z</time>
      </trkpt>
      <trkpt lat="46.4851" lon="11.83117">
        <ele>1987.18</ele>
        <time>2012-08-01T16:52:24Z</time>
      </trkpt>
      <trkpt lat="46.48504" lon="11.83112">
        <ele>1987.18</ele>
        <time>2012-08-01T16:52:25Z</time>
      </trkpt>
      <trkpt lat="46.48497" lon="11.83113">
        <ele>1987.18</ele>
        <time>2012-08-01T16:52:26Z</time>
      </trkpt>
      <trkpt lat="46.4849" lon="11.8312">
        <ele>1988.14</ele>
        <time>2012-08-01T16:52:27Z</time>
      </trkpt>
      <trkpt lat="46.48484" lon="11.83133">
        <ele>1989.59</ele>
        <time>2012-08-01T16:52:28Z</time>
      </trkpt>
      <trkpt lat="46.48478" lon="11.83149">
        <ele>1990.07</ele>
        <time>2012-08-01T16:52:29Z</time>
      </trkpt>
      <trkpt lat="46.4847" lon="11.83165">
        <ele>1991.03</ele>
        <time>2012-08-01T16:52:30Z</time>
      </trkpt>
      <trkpt lat="46.48461" lon="11.8318">
        <ele>1991.51</ele>
        <time>2012-08-01T16:52:31Z</time>
      </trkpt>
      <trkpt lat="46.48444" lon="11.83208">
        <ele>1992.95</ele>
        <time>2012-08-01T16:52:33Z</time>
      </trkpt>
      <trkpt lat="46.48431" lon="11.83226">
        <ele>1992.47</ele>
        <time>2012-08-01T16:52:35Z</time>
      </trkpt>
      <trkpt lat="46.48425" lon="11.83226">
        <ele>1992.47</ele>
        <time>2012-08-01T16:52:36Z</time>
      </trkpt>
      <trkpt lat="46.4842" lon="11.83219">
        <ele>1993.43</ele>
        <time>2012-08-01T16:52:37Z</time>
      </trkpt>
      <trkpt lat="46.48418" lon="11.83208">
        <ele>1994.39</ele>
        <time>2012-08-01T16:52:38Z</time>
      </trkpt>
      <trkpt lat="46.48421" lon="11.83194">
        <ele>1995.35</ele>
        <time>2012-08-01T16:52:39Z</time>
      </trkpt>
      <trkpt lat="46.48426" lon="11.83179">
        <ele>1996.8</ele>
        <time>2012-08-01T16:52:40Z</time>
      </trkpt>
      <trkpt lat="46.48441" lon="11.83124">
        <ele>2001.12</ele>
        <time>2012-08-01T16:52:43Z</time>
      </trkpt>
      <trkpt lat="46.48453" lon="11.83083">
        <ele>2004.97</ele>
        <time>2012-08-01T16:52:45Z</time>
      </trkpt>
      <trkpt lat="46.48462" lon="11.83064">
        <ele>2005.93</ele>
        <time>2012-08-01T16:52:46Z</time>
      </trkpt>
      <trkpt lat="46.48472" lon="11.83046">
        <ele>2007.37</ele>
        <time>2012-08-01T16:52:47Z</time>
      </trkpt>
      <trkpt lat="46.48484" lon="11.8303">
        <ele>2008.81</ele>
        <time>2012-08-01T16:52:48Z</time>
      </trkpt>
      <trkpt lat="46.48506" lon="11.83001">
        <ele>2009.77</ele>
        <time>2012-08-01T16:52:50Z</time>
      </trkpt>
      <trkpt lat="46.48515" lon="11.82988">
        <ele>2010.25</ele>
        <time>2012-08-01T16:52:51Z</time>
      </trkpt>
      <trkpt lat="46.48521" lon="11.82973">
        <ele>2011.7</ele>
        <time>2012-08-01T16:52:52Z</time>
      </trkpt>
      <trkpt lat="46.48525" lon="11.82956">
        <ele>2012.66</ele>
        <time>2012-08-01T16:52:53Z</time>
      </trkpt>
      <trkpt lat="46.48526" lon="11.82937">
        <ele>2013.14</ele>
        <time>2012-08-01T16:52:54Z</time>
      </trkpt>
      <trkpt lat="46.48524" lon="11.82916">
        <ele>2015.06</ele>
        <time>2012-08-01T16:52:55Z</time>
      </trkpt>
      <trkpt lat="46.4852" lon="11.82855">
        <ele>2018.43</ele>
        <time>2012-08-01T16:52:58Z</time>
      </trkpt>
      <trkpt lat="46.48519" lon="11.82836">
        <ele>2018.43</ele>
        <time>2012-08-01T16:52:59Z</time>
      </trkpt>
      <trkpt lat="46.48517" lon="11.8282">
        <ele>2019.39</ele>
        <time>2012-08-01T16:53:00Z</time>
      </trkpt>
      <trkpt lat="46.48513" lon="11.82807">
        <ele>2019.39</ele>
        <time>2012-08-01T16:53:01Z</time>
      </trkpt>
      <trkpt lat="46.48507" lon="11.82798">
        <ele>2019.87</ele>
        <time>2012-08-01T16:53:02Z</time>
      </trkpt>
      <trkpt lat="46.48499" lon="11.82795">
        <ele>2020.35</ele>
        <time>2012-08-01T16:53:03Z</time>
      </trkpt>
      <trkpt lat="46.48491" lon="11.82796">
        <ele>2021.31</ele>
        <time>2012-08-01T16:53:04Z</time>
      </trkpt>
      <trkpt lat="46.48484" lon="11.82804">
        <ele>2021.79</ele>
        <time>2012-08-01T16:53:05Z</time>
      </trkpt>
      <trkpt lat="46.48479" lon="11.82816">
        <ele>2021.79</ele>
        <time>2012-08-01T16:53:06Z</time>
      </trkpt>
      <trkpt lat="46.48478" lon="11.82832">
        <ele>2023.23</ele>
        <time>2012-08-01T16:53:07Z</time>
      </trkpt>
      <trkpt lat="46.48481" lon="11.82849">
        <ele>2024.19</ele>
        <time>2012-08-01T16:53:08Z</time>
      </trkpt>
      <trkpt lat="46.48485" lon="11.82866">
        <ele>2025.15</ele>
        <time>2012-08-01T16:53:09Z</time>
      </trkpt>
      <trkpt lat="46.48486" lon="11.82882">
        <ele>2025.64</ele>
        <time>2012-08-01T16:53:10Z</time>
      </trkpt>
      <trkpt lat="46.48484" lon="11.82898">
        <ele>2027.56</ele>
        <time>2012-08-01T16:53:11Z</time>
      </trkpt>
      <trkpt lat="46.4848" lon="11.82913">
        <ele>2028.52</ele>
        <time>2012-08-01T16:53:12Z</time>
      </trkpt>
      <trkpt lat="46.48476" lon="11.82926">
        <ele>2028.04</ele>
        <time>2012-08-01T16:53:13Z</time>
      </trkpt>
      <trkpt lat="46.48472" lon="11.82934">
        <ele>2029</ele>
        <time>2012-08-01T16:53:14Z</time>
      </trkpt>
      <trkpt lat="46.48466" lon="11.82937">
        <ele>2028.52</ele>
        <time>2012-08-01T16:53:15Z</time>
      </trkpt>
      <trkpt lat="46.48462" lon="11.82934">
        <ele>2029.48</ele>
        <time>2012-08-01T16:53:16Z</time>
      </trkpt>
      <trkpt lat="46.4846" lon="11.82926">
        <ele>2029.96</ele>
        <time>2012-08-01T16:53:17Z</time>
      </trkpt>
      <trkpt lat="46.48462" lon="11.82915">
        <ele>2031.4</ele>
        <time>2012-08-01T16:53:18Z</time>
      </trkpt>
      <trkpt lat="46.48466" lon="11.82905">
        <ele>2032.84</ele>
        <time>2012-08-01T16:53:19Z</time>
      </trkpt>
      <trkpt lat="46.48469" lon="11.82894">
        <ele>2033.33</ele>
        <time>2012-08-01T16:53:20Z</time>
      </trkpt>
      <trkpt lat="46.4847" lon="11.82884">
        <ele>2033.33</ele>
        <time>2012-08-01T16:53:21Z</time>
      </trkpt>
      <trkpt lat="46.48466" lon="11.82876">
        <ele>2034.29</ele>
        <time>2012-08-01T16:53:22Z</time>
      </trkpt>
      <trkpt lat="46.4846" lon="11.82874">
        <ele>2034.77</ele>
        <time>2012-08-01T16:53:23Z</time>
      </trkpt>
      <trkpt lat="46.48453" lon="11.82878">
        <ele>2035.73</ele>
        <time>2012-08-01T16:53:24Z</time>
      </trkpt>
      <trkpt lat="46.48447" lon="11.82886">
        <ele>2037.17</ele>
        <time>2012-08-01T16:53:25Z</time>
      </trkpt>
      <trkpt lat="46.48441" lon="11.82897">
        <ele>2038.13</ele>
        <time>2012-08-01T16:53:26Z</time>
      </trkpt>
      <trkpt lat="46.48435" lon="11.82912">
        <ele>2039.57</ele>
        <time>2012-08-01T16:53:27Z</time>
      </trkpt>
      <trkpt lat="46.48428" lon="11.82929">
        <ele>2039.57</ele>
        <time>2012-08-01T16:53:28Z</time>
      </trkpt>
      <trkpt lat="46.4842" lon="11.82944">
        <ele>2040.54</ele>
        <time>2012-08-01T16:53:29Z</time>
      </trkpt>
      <trkpt lat="46.4841" lon="11.8296">
        <ele>2041.98</ele>
        <time>2012-08-01T16:53:30Z</time>
      </trkpt>
      <trkpt lat="46.48395" lon="11.8299">
        <ele>2043.42</ele>
        <time>2012-08-01T16:53:32Z</time>
      </trkpt>
      <trkpt lat="46.4839" lon="11.83003">
        <ele>2042.94</ele>
        <time>2012-08-01T16:53:33Z</time>
      </trkpt>
      <trkpt lat="46.48385" lon="11.83014">
        <ele>2043.42</ele>
        <time>2012-08-01T16:53:34Z</time>
      </trkpt>
      <trkpt lat="46.48379" lon="11.83021">
        <ele>2043.9</ele>
        <time>2012-08-01T16:53:35Z</time>
      </trkpt>
      <trkpt lat="46.48373" lon="11.83021">
        <ele>2042.94</ele>
        <time>2012-08-01T16:53:36Z</time>
      </trkpt>
      <trkpt lat="46.48369" lon="11.83016">
        <ele>2043.9</ele>
        <time>2012-08-01T16:53:37Z</time>
      </trkpt>
      <trkpt lat="46.48369" lon="11.83008">
        <ele>2044.38</ele>
        <time>2012-08-01T16:53:38Z</time>
      </trkpt>
      <trkpt lat="46.48372" lon="11.82999">
        <ele>2045.34</ele>
        <time>2012-08-01T16:53:39Z</time>
      </trkpt>
      <trkpt lat="46.48379" lon="11.82991">
        <ele>2046.3</ele>
        <time>2012-08-01T16:53:40Z</time>
      </trkpt>
      <trkpt lat="46.48386" lon="11.82981">
        <ele>2047.75</ele>
        <time>2012-08-01T16:53:41Z</time>
      </trkpt>
      <trkpt lat="46.48392" lon="11.82967">
        <ele>2048.71</ele>
        <time>2012-08-01T16:53:42Z</time>
      </trkpt>
      <trkpt lat="46.48397" lon="11.82952">
        <ele>2050.15</ele>
        <time>2012-08-01T16:53:43Z</time>
      </trkpt>
      <trkpt lat="46.48399" lon="11.82934">
        <ele>2051.11</ele>
        <time>2012-08-01T16:53:44Z</time>
      </trkpt>
      <trkpt lat="46.48402" lon="11.82915">
        <ele>2053.03</ele>
        <time>2012-08-01T16:53:45Z</time>
      </trkpt>
      <trkpt lat="46.48406" lon="11.82877">
        <ele>2054.96</ele>
        <time>2012-08-01T16:53:47Z</time>
      </trkpt>
      <trkpt lat="46.48405" lon="11.82856">
        <ele>2055.92</ele>
        <time>2012-08-01T16:53:48Z</time>
      </trkpt>
      <trkpt lat="46.48399" lon="11.82813">
        <ele>2058.8</ele>
        <time>2012-08-01T16:53:50Z</time>
      </trkpt>
      <trkpt lat="46.48391" lon="11.82771">
        <ele>2060.72</ele>
        <time>2012-08-01T16:53:52Z</time>
      </trkpt>
      <trkpt lat="46.48384" lon="11.82753">
        <ele>2061.2</ele>
        <time>2012-08-01T16:53:53Z</time>
      </trkpt>
      <trkpt lat="46.48376" lon="11.82736">
        <ele>2062.17</ele>
        <time>2012-08-01T16:53:54Z</time>
      </trkpt>
      <trkpt lat="46.48368" lon="11.8272">
        <ele>2062.65</ele>
        <time>2012-08-01T16:53:55Z</time>
      </trkpt>
      <trkpt lat="46.48363" lon="11.82706">
        <ele>2062.17</ele>
        <time>2012-08-01T16:53:56Z</time>
      </trkpt>
      <trkpt lat="46.48359" lon="11.82693">
        <ele>2063.13</ele>
        <time>2012-08-01T16:53:57Z</time>
      </trkpt>
      <trkpt lat="46.48359" lon="11.82679">
        <ele>2062.65</ele>
        <time>2012-08-01T16:53:58Z</time>
      </trkpt>
      <trkpt lat="46.48363" lon="11.82668">
        <ele>2063.61</ele>
        <time>2012-08-01T16:53:59Z</time>
      </trkpt>
      <trkpt lat="46.48372" lon="11.82659">
        <ele>2064.57</ele>
        <time>2012-08-01T16:54:00Z</time>
      </trkpt>
      <trkpt lat="46.48382" lon="11.82653">
        <ele>2066.49</ele>
        <time>2012-08-01T16:54:01Z</time>
      </trkpt>
      <trkpt lat="46.48391" lon="11.82644">
        <ele>2066.97</ele>
        <time>2012-08-01T16:54:02Z</time>
      </trkpt>
      <trkpt lat="46.48399" lon="11.82631">
        <ele>2067.93</ele>
        <time>2012-08-01T16:54:03Z</time>
      </trkpt>
      <trkpt lat="46.48405" lon="11.82616">
        <ele>2068.89</ele>
        <time>2012-08-01T16:54:04Z</time>
      </trkpt>
      <trkpt lat="46.48408" lon="11.82598">
        <ele>2069.86</ele>
        <time>2012-08-01T16:54:05Z</time>
      </trkpt>
      <trkpt lat="46.48412" lon="11.82579">
        <ele>2071.78</ele>
        <time>2012-08-01T16:54:06Z</time>
      </trkpt>
      <trkpt lat="46.48417" lon="11.82561">
        <ele>2072.26</ele>
        <time>2012-08-01T16:54:07Z</time>
      </trkpt>
      <trkpt lat="46.48424" lon="11.82544">
        <ele>2074.18</ele>
        <time>2012-08-01T16:54:08Z</time>
      </trkpt>
      <trkpt lat="46.4843" lon="11.82526">
        <ele>2075.14</ele>
        <time>2012-08-01T16:54:09Z</time>
      </trkpt>
      <trkpt lat="46.48434" lon="11.82508">
        <ele>2076.1</ele>
        <time>2012-08-01T16:54:10Z</time>
      </trkpt>
      <trkpt lat="46.48438" lon="11.82491">
        <ele>2076.1</ele>
        <time>2012-08-01T16:54:11Z</time>
      </trkpt>
      <trkpt lat="46.48446" lon="11.82478">
        <ele>2077.07</ele>
        <time>2012-08-01T16:54:12Z</time>
      </trkpt>
      <trkpt lat="46.48456" lon="11.82467">
        <ele>2078.51</ele>
        <time>2012-08-01T16:54:13Z</time>
      </trkpt>
      <trkpt lat="46.48466" lon="11.82455">
        <ele>2079.47</ele>
        <time>2012-08-01T16:54:14Z</time>
      </trkpt>
      <trkpt lat="46.48476" lon="11.82444">
        <ele>2080.43</ele>
        <time>2012-08-01T16:54:15Z</time>
      </trkpt>
      <trkpt lat="46.48484" lon="11.82437">
        <ele>2080.43</ele>
        <time>2012-08-01T16:54:16Z</time>
      </trkpt>
      <trkpt lat="46.48492" lon="11.82433">
        <ele>2080.43</ele>
        <time>2012-08-01T16:54:17Z</time>
      </trkpt>
      <trkpt lat="46.48498" lon="11.82429">
        <ele>2081.39</ele>
        <time>2012-08-01T16:54:18Z</time>
      </trkpt>
      <trkpt lat="46.48502" lon="11.82421">
        <ele>2081.39</ele>
        <time>2012-08-01T16:54:19Z</time>
      </trkpt>
      <trkpt lat="46.48502" lon="11.82411">
        <ele>2081.87</ele>
        <time>2012-08-01T16:54:20Z</time>
      </trkpt>
      <trkpt lat="46.48498" lon="11.82405">
        <ele>2082.83</ele>
        <time>2012-08-01T16:54:21Z</time>
      </trkpt>
      <trkpt lat="46.48491" lon="11.82402">
        <ele>2083.31</ele>
        <time>2012-08-01T16:54:22Z</time>
      </trkpt>
      <trkpt lat="46.48482" lon="11.82404">
        <ele>2083.79</ele>
        <time>2012-08-01T16:54:23Z</time>
      </trkpt>
      <trkpt lat="46.48473" lon="11.82406">
        <ele>2084.76</ele>
        <time>2012-08-01T16:54:24Z</time>
      </trkpt>
      <trkpt lat="46.48464" lon="11.8241">
        <ele>2085.72</ele>
        <time>2012-08-01T16:54:25Z</time>
      </trkpt>
      <trkpt lat="46.48456" lon="11.82413">
        <ele>2085.72</ele>
        <time>2012-08-01T16:54:26Z</time>
      </trkpt>
      <trkpt lat="46.4845" lon="11.82416">
        <ele>2086.2</ele>
        <time>2012-08-01T16:54:27Z</time>
      </trkpt>
      <trkpt lat="46.48446" lon="11.82419">
        <ele>2086.2</ele>
        <time>2012-08-01T16:54:28Z</time>
      </trkpt>
      <trkpt lat="46.48443" lon="11.82421">
        <ele>2086.2</ele>
        <time>2012-08-01T16:54:29Z</time>
      </trkpt>
      <trkpt lat="46.48441" lon="11.82422">
        <ele>2086.2</ele>
        <time>2012-08-01T16:54:30Z</time>
      </trkpt>
      <trkpt lat="46.4844" lon="11.82422">
        <ele>2086.68</ele>
        <time>2012-08-01T16:54:41Z</time>
      </trkpt>
      <trkpt lat="46.4844" lon="11.82422">
        <ele>2081.39</ele>
        <time>2012-08-01T16:55:15Z</time>
      </trkpt>
      <trkpt lat="46.4844" lon="11.82422">
        <ele>2087.64</ele>
        <time>2012-08-01T16:55:16Z</time>
      </trkpt>
      <trkpt lat="46.4844" lon="11.82422">
        <ele>2083.79</ele>
        <time>2012-08-01T16:55:32Z</time>
      </trkpt>
      <trkpt lat="46.4844" lon="11.82422">
        <ele>2088.12</ele>
        <time>2012-08-01T16:55:33Z</time>
      </trkpt>
      <trkpt lat="46.48441" lon="11.82422">
        <ele>2072.74</ele>
        <time>2012-08-01T17:00:56Z</time>
      </trkpt>
      <trkpt lat="46.48441" lon="11.82421">
        <ele>2072.74</ele>
        <time>2012-08-01T17:00:57Z</time>
      </trkpt>
      <trkpt lat="46.48442" lon="11.82423">
        <ele>2076.1</ele>
        <time>2012-08-01T17:01:04Z</time>
      </trkpt>
      <trkpt lat="46.48441" lon="11.82423">
        <ele>2079.47</ele>
        <time>2012-08-01T17:01:07Z</time>
      </trkpt>
      <trkpt lat="46.48441" lon="11.82422">
        <ele>2082.35</ele>
        <time>2012-08-01T17:01:10Z</time>
      </trkpt>
      <trkpt lat="46.48441" lon="11.82422">
        <ele>2085.72</ele>
        <time>2012-08-01T17:01:13Z</time>
      </trkpt>
      <trkpt lat="46.4844" lon="11.82422">
        <ele>2089.08</ele>
        <time>2012-08-01T17:01:17Z</time>
      </trkpt>
      <trkpt lat="46.4844" lon="11.82421">
        <ele>2092.93</ele>
        <time>2012-08-01T17:01:22Z</time>
      </trkpt>
      <trkpt lat="46.48439" lon="11.82421">
        <ele>2095.81</ele>
        <time>2012-08-01T17:01:27Z</time>
      </trkpt>
      <trkpt lat="46.4844" lon="11.82422">
        <ele>2098.7</ele>
        <time>2012-08-01T17:01:33Z</time>
      </trkpt>
      <trkpt lat="46.4844" lon="11.82422">
        <ele>2100.62</ele>
        <time>2012-08-01T17:01:37Z</time>
      </trkpt>
      <trkpt lat="46.4844" lon="11.8242">
        <ele>2103.02</ele>
        <time>2012-08-01T17:01:45Z</time>
      </trkpt>
      <trkpt lat="46.48424" lon="11.82418">
        <ele>2106.87</ele>
        <time>2012-08-01T17:01:50Z</time>
      </trkpt>
      <trkpt lat="46.48417" lon="11.82422">
        <ele>2107.83</ele>
        <time>2012-08-01T17:01:51Z</time>
      </trkpt>
      <trkpt lat="46.48409" lon="11.82428">
        <ele>2109.27</ele>
        <time>2012-08-01T17:01:52Z</time>
      </trkpt>
      <trkpt lat="46.484" lon="11.82436">
        <ele>2110.23</ele>
        <time>2012-08-01T17:01:53Z</time>
      </trkpt>
      <trkpt lat="46.48392" lon="11.82446">
        <ele>2111.19</ele>
        <time>2012-08-01T17:01:54Z</time>
      </trkpt>
      <trkpt lat="46.48365" lon="11.82477">
        <ele>2115.04</ele>
        <time>2012-08-01T17:01:57Z</time>
      </trkpt>
      <trkpt lat="46.48357" lon="11.8249">
        <ele>2116</ele>
        <time>2012-08-01T17:01:58Z</time>
      </trkpt>
      <trkpt lat="46.48349" lon="11.82505">
        <ele>2117.44</ele>
        <time>2012-08-01T17:01:59Z</time>
      </trkpt>
      <trkpt lat="46.48328" lon="11.82553">
        <ele>2120.81</ele>
        <time>2012-08-01T17:02:02Z</time>
      </trkpt>
      <trkpt lat="46.48311" lon="11.82591">
        <ele>2121.29</ele>
        <time>2012-08-01T17:02:05Z</time>
      </trkpt>
      <trkpt lat="46.48305" lon="11.82594">
        <ele>2121.77</ele>
        <time>2012-08-01T17:02:06Z</time>
      </trkpt>
      <trkpt lat="46.48299" lon="11.82592">
        <ele>2122.25</ele>
        <time>2012-08-01T17:02:07Z</time>
      </trkpt>
      <trkpt lat="46.48295" lon="11.82585">
        <ele>2122.73</ele>
        <time>2012-08-01T17:02:08Z</time>
      </trkpt>
      <trkpt lat="46.48294" lon="11.82574">
        <ele>2123.21</ele>
        <time>2012-08-01T17:02:09Z</time>
      </trkpt>
      <trkpt lat="46.48294" lon="11.82563">
        <ele>2124.65</ele>
        <time>2012-08-01T17:02:10Z</time>
      </trkpt>
      <trkpt lat="46.48299" lon="11.82551">
        <ele>2125.61</ele>
        <time>2012-08-01T17:02:11Z</time>
      </trkpt>
      <trkpt lat="46.48305" lon="11.82537">
        <ele>2126.57</ele>
        <time>2012-08-01T17:02:12Z</time>
      </trkpt>
      <trkpt lat="46.4831" lon="11.82523">
        <ele>2127.53</ele>
        <time>2012-08-01T17:02:13Z</time>
      </trkpt>
      <trkpt lat="46.48315" lon="11.82507">
        <ele>2129.46</ele>
        <time>2012-08-01T17:02:14Z</time>
      </trkpt>
      <trkpt lat="46.48318" lon="11.82489">
        <ele>2129.94</ele>
        <time>2012-08-01T17:02:15Z</time>
      </trkpt>
      <trkpt lat="46.4832" lon="11.82469">
        <ele>2130.9</ele>
        <time>2012-08-01T17:02:16Z</time>
      </trkpt>
      <trkpt lat="46.48329" lon="11.82407">
        <ele>2133.78</ele>
        <time>2012-08-01T17:02:19Z</time>
      </trkpt>
      <trkpt lat="46.4834" lon="11.82348">
        <ele>2135.71</ele>
        <time>2012-08-01T17:02:22Z</time>
      </trkpt>
      <trkpt lat="46.48343" lon="11.82332">
        <ele>2136.19</ele>
        <time>2012-08-01T17:02:23Z</time>
      </trkpt>
      <trkpt lat="46.48349" lon="11.8232">
        <ele>2136.67</ele>
        <time>2012-08-01T17:02:24Z</time>
      </trkpt>
      <trkpt lat="46.48356" lon="11.82311">
        <ele>2136.67</ele>
        <time>2012-08-01T17:02:25Z</time>
      </trkpt>
      <trkpt lat="46.48365" lon="11.82308">
        <ele>2137.63</ele>
        <time>2012-08-01T17:02:26Z</time>
      </trkpt>
      <trkpt lat="46.48372" lon="11.82305">
        <ele>2137.63</ele>
        <time>2012-08-01T17:02:27Z</time>
      </trkpt>
      <trkpt lat="46.48378" lon="11.823">
        <ele>2137.15</ele>
        <time>2012-08-01T17:02:28Z</time>
      </trkpt>
      <trkpt lat="46.4838" lon="11.82292">
        <ele>2138.11</ele>
        <time>2012-08-01T17:02:29Z</time>
      </trkpt>
      <trkpt lat="46.4838" lon="11.82285">
        <ele>2138.59</ele>
        <time>2012-08-01T17:02:30Z</time>
      </trkpt>
      <trkpt lat="46.48375" lon="11.82279">
        <ele>2138.59</ele>
        <time>2012-08-01T17:02:31Z</time>
      </trkpt>
      <trkpt lat="46.48368" lon="11.82277">
        <ele>2139.07</ele>
        <time>2012-08-01T17:02:32Z</time>
      </trkpt>
      <trkpt lat="46.48359" lon="11.82277">
        <ele>2140.51</ele>
        <time>2012-08-01T17:02:33Z</time>
      </trkpt>
      <trkpt lat="46.4835" lon="11.82277">
        <ele>2141.47</ele>
        <time>2012-08-01T17:02:34Z</time>
      </trkpt>
      <trkpt lat="46.4833" lon="11.82279">
        <ele>2143.4</ele>
        <time>2012-08-01T17:02:36Z</time>
      </trkpt>
      <trkpt lat="46.48321" lon="11.82285">
        <ele>2143.88</ele>
        <time>2012-08-01T17:02:37Z</time>
      </trkpt>
      <trkpt lat="46.48315" lon="11.82296">
        <ele>2145.8</ele>
        <time>2012-08-01T17:02:38Z</time>
      </trkpt>
      <trkpt lat="46.4831" lon="11.8231">
        <ele>2146.28</ele>
        <time>2012-08-01T17:02:39Z</time>
      </trkpt>
      <trkpt lat="46.48304" lon="11.82323">
        <ele>2146.76</ele>
        <time>2012-08-01T17:02:40Z</time>
      </trkpt>
      <trkpt lat="46.48297" lon="11.82334">
        <ele>2147.72</ele>
        <time>2012-08-01T17:02:41Z</time>
      </trkpt>
      <trkpt lat="46.48287" lon="11.82341">
        <ele>2149.16</ele>
        <time>2012-08-01T17:02:42Z</time>
      </trkpt>
      <trkpt lat="46.48276" lon="11.82347">
        <ele>2150.13</ele>
        <time>2012-08-01T17:02:43Z</time>
      </trkpt>
      <trkpt lat="46.48264" lon="11.82352">
        <ele>2151.57</ele>
        <time>2012-08-01T17:02:44Z</time>
      </trkpt>
      <trkpt lat="46.4823" lon="11.82364">
        <ele>2153.01</ele>
        <time>2012-08-01T17:02:47Z</time>
      </trkpt>
      <trkpt lat="46.48221" lon="11.82364">
        <ele>2153.01</ele>
        <time>2012-08-01T17:02:48Z</time>
      </trkpt>
      <trkpt lat="46.48213" lon="11.82358">
        <ele>2153.97</ele>
        <time>2012-08-01T17:02:49Z</time>
      </trkpt>
      <trkpt lat="46.48207" lon="11.82347">
        <ele>2155.41</ele>
        <time>2012-08-01T17:02:50Z</time>
      </trkpt>
      <trkpt lat="46.48204" lon="11.82334">
        <ele>2156.37</ele>
        <time>2012-08-01T17:02:51Z</time>
      </trkpt>
      <trkpt lat="46.48207" lon="11.82321">
        <ele>2156.37</ele>
        <time>2012-08-01T17:02:52Z</time>
      </trkpt>
      <trkpt lat="46.48213" lon="11.82308">
        <ele>2157.82</ele>
        <time>2012-08-01T17:02:53Z</time>
      </trkpt>
      <trkpt lat="46.48222" lon="11.82299">
        <ele>2159.26</ele>
        <time>2012-08-01T17:02:54Z</time>
      </trkpt>
      <trkpt lat="46.48232" lon="11.82293">
        <ele>2159.74</ele>
        <time>2012-08-01T17:02:55Z</time>
      </trkpt>
      <trkpt lat="46.48243" lon="11.82287">
        <ele>2160.22</ele>
        <time>2012-08-01T17:02:56Z</time>
      </trkpt>
      <trkpt lat="46.48254" lon="11.82279">
        <ele>2161.18</ele>
        <time>2012-08-01T17:02:57Z</time>
      </trkpt>
      <trkpt lat="46.48265" lon="11.82269">
        <ele>2162.62</ele>
        <time>2012-08-01T17:02:58Z</time>
      </trkpt>
      <trkpt lat="46.48274" lon="11.82257">
        <ele>2164.06</ele>
        <time>2012-08-01T17:02:59Z</time>
      </trkpt>
      <trkpt lat="46.48283" lon="11.82243">
        <ele>2165.03</ele>
        <time>2012-08-01T17:03:00Z</time>
      </trkpt>
      <trkpt lat="46.4829" lon="11.82226">
        <ele>2165.51</ele>
        <time>2012-08-01T17:03:01Z</time>
      </trkpt>
      <trkpt lat="46.48296" lon="11.82207">
        <ele>2167.43</ele>
        <time>2012-08-01T17:03:02Z</time>
      </trkpt>
      <trkpt lat="46.48301" lon="11.82187">
        <ele>2167.43</ele>
        <time>2012-08-01T17:03:03Z</time>
      </trkpt>
      <trkpt lat="46.48305" lon="11.82166">
        <ele>2169.83</ele>
        <time>2012-08-01T17:03:04Z</time>
      </trkpt>
      <trkpt lat="46.48312" lon="11.82122">
        <ele>2173.68</ele>
        <time>2012-08-01T17:03:06Z</time>
      </trkpt>
      <trkpt lat="46.4832" lon="11.82055">
        <ele>2176.08</ele>
        <time>2012-08-01T17:03:09Z</time>
      </trkpt>
      <trkpt lat="46.48326" lon="11.81984">
        <ele>2179.45</ele>
        <time>2012-08-01T17:03:12Z</time>
      </trkpt>
      <trkpt lat="46.4833" lon="11.8196">
        <ele>2180.89</ele>
        <time>2012-08-01T17:03:13Z</time>
      </trkpt>
      <trkpt lat="46.48335" lon="11.81937">
        <ele>2182.33</ele>
        <time>2012-08-01T17:03:14Z</time>
      </trkpt>
      <trkpt lat="46.48353" lon="11.81869">
        <ele>2186.18</ele>
        <time>2012-08-01T17:03:17Z</time>
      </trkpt>
      <trkpt lat="46.48373" lon="11.81803">
        <ele>2190.5</ele>
        <time>2012-08-01T17:03:20Z</time>
      </trkpt>
      <trkpt lat="46.48385" lon="11.81764">
        <ele>2190.98</ele>
        <time>2012-08-01T17:03:22Z</time>
      </trkpt>
      <trkpt lat="46.48391" lon="11.81747">
        <ele>2191.94</ele>
        <time>2012-08-01T17:03:23Z</time>
      </trkpt>
      <trkpt lat="46.48398" lon="11.81733">
        <ele>2191.94</ele>
        <time>2012-08-01T17:03:24Z</time>
      </trkpt>
      <trkpt lat="46.48409" lon="11.81724">
        <ele>2193.87</ele>
        <time>2012-08-01T17:03:25Z</time>
      </trkpt>
      <trkpt lat="46.48422" lon="11.81719">
        <ele>2194.83</ele>
        <time>2012-08-01T17:03:26Z</time>
      </trkpt>
      <trkpt lat="46.48434" lon="11.81716">
        <ele>2195.79</ele>
        <time>2012-08-01T17:03:27Z</time>
      </trkpt>
      <trkpt lat="46.48445" lon="11.81714">
        <ele>2194.83</ele>
        <time>2012-08-01T17:03:28Z</time>
      </trkpt>
      <trkpt lat="46.48455" lon="11.81709">
        <ele>2195.79</ele>
        <time>2012-08-01T17:03:29Z</time>
      </trkpt>
      <trkpt lat="46.48466" lon="11.81699">
        <ele>2197.23</ele>
        <time>2012-08-01T17:03:30Z</time>
      </trkpt>
      <trkpt lat="46.48475" lon="11.81685">
        <ele>2198.19</ele>
        <time>2012-08-01T17:03:31Z</time>
      </trkpt>
      <trkpt lat="46.48483" lon="11.81669">
        <ele>2199.63</ele>
        <time>2012-08-01T17:03:32Z</time>
      </trkpt>
      <trkpt lat="46.48499" lon="11.81634">
        <ele>2200.11</ele>
        <time>2012-08-01T17:03:34Z</time>
      </trkpt>
      <trkpt lat="46.48522" lon="11.81588">
        <ele>2201.56</ele>
        <time>2012-08-01T17:03:37Z</time>
      </trkpt>
      <trkpt lat="46.48532" lon="11.81579">
        <ele>2201.56</ele>
        <time>2012-08-01T17:03:38Z</time>
      </trkpt>
      <trkpt lat="46.48543" lon="11.81575">
        <ele>2202.04</ele>
        <time>2012-08-01T17:03:39Z</time>
      </trkpt>
      <trkpt lat="46.48556" lon="11.81576">
        <ele>2203.48</ele>
        <time>2012-08-01T17:03:40Z</time>
      </trkpt>
      <trkpt lat="46.48568" lon="11.81583">
        <ele>2203.48</ele>
        <time>2012-08-01T17:03:41Z</time>
      </trkpt>
      <trkpt lat="46.48579" lon="11.81591">
        <ele>2204.44</ele>
        <time>2012-08-01T17:03:42Z</time>
      </trkpt>
      <trkpt lat="46.48589" lon="11.81597">
        <ele>2204.92</ele>
        <time>2012-08-01T17:03:43Z</time>
      </trkpt>
      <trkpt lat="46.48599" lon="11.816">
        <ele>2205.4</ele>
        <time>2012-08-01T17:03:44Z</time>
      </trkpt>
      <trkpt lat="46.48609" lon="11.81597">
        <ele>2206.36</ele>
        <time>2012-08-01T17:03:45Z</time>
      </trkpt>
      <trkpt lat="46.48619" lon="11.81591">
        <ele>2207.32</ele>
        <time>2012-08-01T17:03:46Z</time>
      </trkpt>
      <trkpt lat="46.48629" lon="11.81581">
        <ele>2208.29</ele>
        <time>2012-08-01T17:03:47Z</time>
      </trkpt>
      <trkpt lat="46.48649" lon="11.81561">
        <ele>2211.17</ele>
        <time>2012-08-01T17:03:49Z</time>
      </trkpt>
      <trkpt lat="46.48669" lon="11.8154">
        <ele>2214.53</ele>
        <time>2012-08-01T17:03:51Z</time>
      </trkpt>
      <trkpt lat="46.48676" lon="11.81529">
        <ele>2215.01</ele>
        <time>2012-08-01T17:03:52Z</time>
      </trkpt>
      <trkpt lat="46.48682" lon="11.81516">
        <ele>2215.98</ele>
        <time>2012-08-01T17:03:53Z</time>
      </trkpt>
      <trkpt lat="46.48684" lon="11.815">
        <ele>2216.94</ele>
        <time>2012-08-01T17:03:54Z</time>
      </trkpt>
      <trkpt lat="46.48684" lon="11.81482">
        <ele>2218.38</ele>
        <time>2012-08-01T17:03:55Z</time>
      </trkpt>
      <trkpt lat="46.48683" lon="11.81464">
        <ele>2219.34</ele>
        <time>2012-08-01T17:03:56Z</time>
      </trkpt>
      <trkpt lat="46.4868" lon="11.81446">
        <ele>2219.82</ele>
        <time>2012-08-01T17:03:57Z</time>
      </trkpt>
      <trkpt lat="46.48675" lon="11.81387">
        <ele>2222.22</ele>
        <time>2012-08-01T17:04:01Z</time>
      </trkpt>
      <trkpt lat="46.48676" lon="11.81375">
        <ele>2222.22</ele>
        <time>2012-08-01T17:04:02Z</time>
      </trkpt>
      <trkpt lat="46.4868" lon="11.81365">
        <ele>2222.71</ele>
        <time>2012-08-01T17:04:03Z</time>
      </trkpt>
      <trkpt lat="46.48685" lon="11.81358">
        <ele>2223.67</ele>
        <time>2012-08-01T17:04:04Z</time>
      </trkpt>
      <trkpt lat="46.48693" lon="11.81355">
        <ele>2223.67</ele>
        <time>2012-08-01T17:04:05Z</time>
      </trkpt>
      <trkpt lat="46.48702" lon="11.81358">
        <ele>2224.15</ele>
        <time>2012-08-01T17:04:06Z</time>
      </trkpt>
      <trkpt lat="46.4871" lon="11.81364">
        <ele>2225.11</ele>
        <time>2012-08-01T17:04:07Z</time>
      </trkpt>
      <trkpt lat="46.48718" lon="11.81368">
        <ele>2226.07</ele>
        <time>2012-08-01T17:04:08Z</time>
      </trkpt>
      <trkpt lat="46.48727" lon="11.81368">
        <ele>2227.03</ele>
        <time>2012-08-01T17:04:09Z</time>
      </trkpt>
      <trkpt lat="46.48734" lon="11.81365">
        <ele>2227.51</ele>
        <time>2012-08-01T17:04:10Z</time>
      </trkpt>
      <trkpt lat="46.48741" lon="11.81358">
        <ele>2228.47</ele>
        <time>2012-08-01T17:04:11Z</time>
      </trkpt>
      <trkpt lat="46.48745" lon="11.81346">
        <ele>2229.92</ele>
        <time>2012-08-01T17:04:12Z</time>
      </trkpt>
      <trkpt lat="46.48747" lon="11.81329">
        <ele>2229.92</ele>
        <time>2012-08-01T17:04:13Z</time>
      </trkpt>
      <trkpt lat="46.48748" lon="11.8131">
        <ele>2230.4</ele>
        <time>2012-08-01T17:04:14Z</time>
      </trkpt>
      <trkpt lat="46.48751" lon="11.8127">
        <ele>2233.28</ele>
        <time>2012-08-01T17:04:16Z</time>
      </trkpt>
      <trkpt lat="46.48753" lon="11.8125">
        <ele>2233.76</ele>
        <time>2012-08-01T17:04:17Z</time>
      </trkpt>
      <trkpt lat="46.48758" lon="11.81232">
        <ele>2234.24</ele>
        <time>2012-08-01T17:04:18Z</time>
      </trkpt>
      <trkpt lat="46.48765" lon="11.81214">
        <ele>2234.72</ele>
        <time>2012-08-01T17:04:19Z</time>
      </trkpt>
      <trkpt lat="46.48773" lon="11.81197">
        <ele>2235.2</ele>
        <time>2012-08-01T17:04:20Z</time>
      </trkpt>
      <trkpt lat="46.48782" lon="11.8118">
        <ele>2235.68</ele>
        <time>2012-08-01T17:04:21Z</time>
      </trkpt>
      <trkpt lat="46.48815" lon="11.81112">
        <ele>2231.84</ele>
        <time>2012-08-01T17:04:25Z</time>
      </trkpt>
      <trkpt lat="46.48857" lon="11.8099">
        <ele>2229.92</ele>
        <time>2012-08-01T17:04:31Z</time>
      </trkpt>
      <trkpt lat="46.48883" lon="11.80924">
        <ele>2225.59</ele>
        <time>2012-08-01T17:04:34Z</time>
      </trkpt>
      <trkpt lat="46.4889" lon="11.80902">
        <ele>2223.67</ele>
        <time>2012-08-01T17:04:35Z</time>
      </trkpt>
      <trkpt lat="46.48895" lon="11.80877">
        <ele>2222.71</ele>
        <time>2012-08-01T17:04:36Z</time>
      </trkpt>
      <trkpt lat="46.48897" lon="11.80851">
        <ele>2222.71</ele>
        <time>2012-08-01T17:04:37Z</time>
      </trkpt>
      <trkpt lat="46.489" lon="11.80774">
        <ele>2216.94</ele>
        <time>2012-08-01T17:04:40Z</time>
      </trkpt>
      <trkpt lat="46.48902" lon="11.80752">
        <ele>2215.5</ele>
        <time>2012-08-01T17:04:41Z</time>
      </trkpt>
      <trkpt lat="46.48906" lon="11.80734">
        <ele>2213.09</ele>
        <time>2012-08-01T17:04:42Z</time>
      </trkpt>
      <trkpt lat="46.48911" lon="11.80719">
        <ele>2211.17</ele>
        <time>2012-08-01T17:04:43Z</time>
      </trkpt>
      <trkpt lat="46.48919" lon="11.80695">
        <ele>2208.29</ele>
        <time>2012-08-01T17:04:45Z</time>
      </trkpt>
      <trkpt lat="46.48919" lon="11.80685">
        <ele>2207.32</ele>
        <time>2012-08-01T17:04:46Z</time>
      </trkpt>
      <trkpt lat="46.48915" lon="11.80678">
        <ele>2206.84</ele>
        <time>2012-08-01T17:04:47Z</time>
      </trkpt>
      <trkpt lat="46.48908" lon="11.80676">
        <ele>2206.36</ele>
        <time>2012-08-01T17:04:48Z</time>
      </trkpt>
      <trkpt lat="46.48901" lon="11.80681">
        <ele>2205.88</ele>
        <time>2012-08-01T17:04:49Z</time>
      </trkpt>
      <trkpt lat="46.48895" lon="11.80692">
        <ele>2206.36</ele>
        <time>2012-08-01T17:04:50Z</time>
      </trkpt>
      <trkpt lat="46.48888" lon="11.80707">
        <ele>2205.88</ele>
        <time>2012-08-01T17:04:51Z</time>
      </trkpt>
      <trkpt lat="46.4886" lon="11.80776">
        <ele>2203</ele>
        <time>2012-08-01T17:04:55Z</time>
      </trkpt>
      <trkpt lat="46.48853" lon="11.80787">
        <ele>2201.56</ele>
        <time>2012-08-01T17:04:56Z</time>
      </trkpt>
      <trkpt lat="46.48846" lon="11.80792">
        <ele>2200.59</ele>
        <time>2012-08-01T17:04:57Z</time>
      </trkpt>
      <trkpt lat="46.48839" lon="11.80791">
        <ele>2200.11</ele>
        <time>2012-08-01T17:04:58Z</time>
      </trkpt>
      <trkpt lat="46.48832" lon="11.80784">
        <ele>2199.63</ele>
        <time>2012-08-01T17:04:59Z</time>
      </trkpt>
      <trkpt lat="46.48828" lon="11.80773">
        <ele>2198.67</ele>
        <time>2012-08-01T17:05:00Z</time>
      </trkpt>
      <trkpt lat="46.48828" lon="11.80759">
        <ele>2198.19</ele>
        <time>2012-08-01T17:05:01Z</time>
      </trkpt>
      <trkpt lat="46.48832" lon="11.80741">
        <ele>2199.63</ele>
        <time>2012-08-01T17:05:02Z</time>
      </trkpt>
      <trkpt lat="46.48839" lon="11.80722">
        <ele>2199.15</ele>
        <time>2012-08-01T17:05:03Z</time>
      </trkpt>
      <trkpt lat="46.48847" lon="11.80699">
        <ele>2199.15</ele>
        <time>2012-08-01T17:05:04Z</time>
      </trkpt>
      <trkpt lat="46.48853" lon="11.80674">
        <ele>2198.19</ele>
        <time>2012-08-01T17:05:05Z</time>
      </trkpt>
      <trkpt lat="46.48858" lon="11.80648">
        <ele>2198.19</ele>
        <time>2012-08-01T17:05:06Z</time>
      </trkpt>
      <trkpt lat="46.48866" lon="11.80602">
        <ele>2193.87</ele>
        <time>2012-08-01T17:05:08Z</time>
      </trkpt>
      <trkpt lat="46.48873" lon="11.80565">
        <ele>2188.58</ele>
        <time>2012-08-01T17:05:10Z</time>
      </trkpt>
      <trkpt lat="46.48877" lon="11.80551">
        <ele>2188.1</ele>
        <time>2012-08-01T17:05:11Z</time>
      </trkpt>
      <trkpt lat="46.48878" lon="11.80539">
        <ele>2186.18</ele>
        <time>2012-08-01T17:05:12Z</time>
      </trkpt>
      <trkpt lat="46.48875" lon="11.80528">
        <ele>2185.21</ele>
        <time>2012-08-01T17:05:13Z</time>
      </trkpt>
      <trkpt lat="46.48869" lon="11.80521">
        <ele>2183.77</ele>
        <time>2012-08-01T17:05:14Z</time>
      </trkpt>
      <trkpt lat="46.48861" lon="11.80519">
        <ele>2183.29</ele>
        <time>2012-08-01T17:05:15Z</time>
      </trkpt>
      <trkpt lat="46.48851" lon="11.80522">
        <ele>2182.81</ele>
        <time>2012-08-01T17:05:16Z</time>
      </trkpt>
      <trkpt lat="46.48844" lon="11.80533">
        <ele>2182.81</ele>
        <time>2012-08-01T17:05:17Z</time>
      </trkpt>
      <trkpt lat="46.48838" lon="11.80546">
        <ele>2180.89</ele>
        <time>2012-08-01T17:05:18Z</time>
      </trkpt>
      <trkpt lat="46.48825" lon="11.8057">
        <ele>2178.48</ele>
        <time>2012-08-01T17:05:21Z</time>
      </trkpt>
      <trkpt lat="46.48825" lon="11.80574">
        <ele>2177.52</ele>
        <time>2012-08-01T17:05:22Z</time>
      </trkpt>
      <trkpt lat="46.48829" lon="11.80575">
        <ele>2178</ele>
        <time>2012-08-01T17:05:23Z</time>
      </trkpt>
      <trkpt lat="46.48837" lon="11.80573">
        <ele>2178.48</ele>
        <time>2012-08-01T17:05:24Z</time>
      </trkpt>
      <trkpt lat="46.48847" lon="11.80569">
        <ele>2178.97</ele>
        <time>2012-08-01T17:05:25Z</time>
      </trkpt>
      <trkpt lat="46.48856" lon="11.80549">
        <ele>2177.04</ele>
        <time>2012-08-01T17:05:26Z</time>
      </trkpt>
      <trkpt lat="46.48873" lon="11.80518">
        <ele>2173.68</ele>
        <time>2012-08-01T17:05:28Z</time>
      </trkpt>
      <trkpt lat="46.48878" lon="11.80493">
        <ele>2171.27</ele>
        <time>2012-08-01T17:05:30Z</time>
      </trkpt>
      <trkpt lat="46.48864" lon="11.80477">
        <ele>2169.83</ele>
        <time>2012-08-01T17:05:32Z</time>
      </trkpt>
      <trkpt lat="46.48855" lon="11.80478">
        <ele>2169.35</ele>
        <time>2012-08-01T17:05:33Z</time>
      </trkpt>
      <trkpt lat="46.48846" lon="11.80484">
        <ele>2169.35</ele>
        <time>2012-08-01T17:05:34Z</time>
      </trkpt>
      <trkpt lat="46.48833" lon="11.8048">
        <ele>2168.39</ele>
        <time>2012-08-01T17:05:35Z</time>
      </trkpt>
      <trkpt lat="46.48827" lon="11.80488">
        <ele>2167.43</ele>
        <time>2012-08-01T17:05:36Z</time>
      </trkpt>
      <trkpt lat="46.48822" lon="11.80493">
        <ele>2166.47</ele>
        <time>2012-08-01T17:05:37Z</time>
      </trkpt>
      <trkpt lat="46.48816" lon="11.80488">
        <ele>2166.47</ele>
        <time>2012-08-01T17:05:38Z</time>
      </trkpt>
      <trkpt lat="46.48814" lon="11.80478">
        <ele>2165.99</ele>
        <time>2012-08-01T17:05:39Z</time>
      </trkpt>
      <trkpt lat="46.48814" lon="11.8046">
        <ele>2165.99</ele>
        <time>2012-08-01T17:05:40Z</time>
      </trkpt>
      <trkpt lat="46.4882" lon="11.80443">
        <ele>2166.47</ele>
        <time>2012-08-01T17:05:41Z</time>
      </trkpt>
      <trkpt lat="46.4883" lon="11.80427">
        <ele>2165.99</ele>
        <time>2012-08-01T17:05:42Z</time>
      </trkpt>
      <trkpt lat="46.48842" lon="11.80411">
        <ele>2165.99</ele>
        <time>2012-08-01T17:05:43Z</time>
      </trkpt>
      <trkpt lat="46.48856" lon="11.80397">
        <ele>2165.03</ele>
        <time>2012-08-01T17:05:44Z</time>
      </trkpt>
      <trkpt lat="46.4887" lon="11.80381">
        <ele>2164.06</ele>
        <time>2012-08-01T17:05:45Z</time>
      </trkpt>
      <trkpt lat="46.48893" lon="11.80353">
        <ele>2160.7</ele>
        <time>2012-08-01T17:05:47Z</time>
      </trkpt>
      <trkpt lat="46.48909" lon="11.80335">
        <ele>2156.86</ele>
        <time>2012-08-01T17:05:49Z</time>
      </trkpt>
      <trkpt lat="46.48913" lon="11.80326">
        <ele>2155.89</ele>
        <time>2012-08-01T17:05:50Z</time>
      </trkpt>
      <trkpt lat="46.48912" lon="11.80317">
        <ele>2155.41</ele>
        <time>2012-08-01T17:05:51Z</time>
      </trkpt>
      <trkpt lat="46.48905" lon="11.80311">
        <ele>2154.45</ele>
        <time>2012-08-01T17:05:52Z</time>
      </trkpt>
      <trkpt lat="46.48894" lon="11.8031">
        <ele>2153.97</ele>
        <time>2012-08-01T17:05:53Z</time>
      </trkpt>
      <trkpt lat="46.48882" lon="11.80312">
        <ele>2154.45</ele>
        <time>2012-08-01T17:05:54Z</time>
      </trkpt>
      <trkpt lat="46.48869" lon="11.80316">
        <ele>2153.49</ele>
        <time>2012-08-01T17:05:55Z</time>
      </trkpt>
      <trkpt lat="46.48856" lon="11.80321">
        <ele>2152.05</ele>
        <time>2012-08-01T17:05:56Z</time>
      </trkpt>
      <trkpt lat="46.48846" lon="11.80326">
        <ele>2150.61</ele>
        <time>2012-08-01T17:05:57Z</time>
      </trkpt>
      <trkpt lat="46.48837" lon="11.80326">
        <ele>2149.65</ele>
        <time>2012-08-01T17:05:58Z</time>
      </trkpt>
      <trkpt lat="46.48829" lon="11.80322">
        <ele>2148.68</ele>
        <time>2012-08-01T17:05:59Z</time>
      </trkpt>
      <trkpt lat="46.48824" lon="11.80312">
        <ele>2147.72</ele>
        <time>2012-08-01T17:06:00Z</time>
      </trkpt>
      <trkpt lat="46.48823" lon="11.80297">
        <ele>2147.24</ele>
        <time>2012-08-01T17:06:01Z</time>
      </trkpt>
      <trkpt lat="46.48826" lon="11.80279">
        <ele>2148.2</ele>
        <time>2012-08-01T17:06:02Z</time>
      </trkpt>
      <trkpt lat="46.48835" lon="11.80258">
        <ele>2147.72</ele>
        <time>2012-08-01T17:06:03Z</time>
      </trkpt>
      <trkpt lat="46.48845" lon="11.80235">
        <ele>2147.72</ele>
        <time>2012-08-01T17:06:04Z</time>
      </trkpt>
      <trkpt lat="46.48875" lon="11.80169">
        <ele>2143.4</ele>
        <time>2012-08-01T17:06:07Z</time>
      </trkpt>
      <trkpt lat="46.48883" lon="11.80151">
        <ele>2139.55</ele>
        <time>2012-08-01T17:06:08Z</time>
      </trkpt>
      <trkpt lat="46.48889" lon="11.80134">
        <ele>2138.11</ele>
        <time>2012-08-01T17:06:09Z</time>
      </trkpt>
      <trkpt lat="46.48892" lon="11.80118">
        <ele>2136.67</ele>
        <time>2012-08-01T17:06:10Z</time>
      </trkpt>
      <trkpt lat="46.48891" lon="11.80101">
        <ele>2136.19</ele>
        <time>2012-08-01T17:06:11Z</time>
      </trkpt>
      <trkpt lat="46.48885" lon="11.80085">
        <ele>2135.23</ele>
        <time>2012-08-01T17:06:12Z</time>
      </trkpt>
      <trkpt lat="46.48876" lon="11.80074">
        <ele>2133.3</ele>
        <time>2012-08-01T17:06:13Z</time>
      </trkpt>
      <trkpt lat="46.48865" lon="11.80069">
        <ele>2132.82</ele>
        <time>2012-08-01T17:06:14Z</time>
      </trkpt>
      <trkpt lat="46.48851" lon="11.8007">
        <ele>2132.34</ele>
        <time>2012-08-01T17:06:15Z</time>
      </trkpt>
      <trkpt lat="46.48838" lon="11.80078">
        <ele>2130.9</ele>
        <time>2012-08-01T17:06:16Z</time>
      </trkpt>
      <trkpt lat="46.48824" lon="11.80085">
        <ele>2129.94</ele>
        <time>2012-08-01T17:06:17Z</time>
      </trkpt>
      <trkpt lat="46.48809" lon="11.80086">
        <ele>2128.5</ele>
        <time>2012-08-01T17:06:18Z</time>
      </trkpt>
      <trkpt lat="46.48792" lon="11.80081">
        <ele>2128.02</ele>
        <time>2012-08-01T17:06:19Z</time>
      </trkpt>
      <trkpt lat="46.48775" lon="11.80075">
        <ele>2127.05</ele>
        <time>2012-08-01T17:06:20Z</time>
      </trkpt>
      <trkpt lat="46.48742" lon="11.80063">
        <ele>2123.69</ele>
        <time>2012-08-01T17:06:22Z</time>
      </trkpt>
      <trkpt lat="46.48696" lon="11.80036">
        <ele>2119.36</ele>
        <time>2012-08-01T17:06:25Z</time>
      </trkpt>
      <trkpt lat="46.48682" lon="11.80024">
        <ele>2118.4</ele>
        <time>2012-08-01T17:06:26Z</time>
      </trkpt>
      <trkpt lat="46.48647" lon="11.79989">
        <ele>2113.6</ele>
        <time>2012-08-01T17:06:29Z</time>
      </trkpt>
      <trkpt lat="46.48637" lon="11.79984">
        <ele>2111.67</ele>
        <time>2012-08-01T17:06:30Z</time>
      </trkpt>
      <trkpt lat="46.48629" lon="11.79983">
        <ele>2109.75</ele>
        <time>2012-08-01T17:06:31Z</time>
      </trkpt>
      <trkpt lat="46.48622" lon="11.79979">
        <ele>2108.79</ele>
        <time>2012-08-01T17:06:32Z</time>
      </trkpt>
      <trkpt lat="46.48619" lon="11.79971">
        <ele>2108.31</ele>
        <time>2012-08-01T17:06:33Z</time>
      </trkpt>
      <trkpt lat="46.4862" lon="11.79961">
        <ele>2107.83</ele>
        <time>2012-08-01T17:06:34Z</time>
      </trkpt>
      <trkpt lat="46.48627" lon="11.79955">
        <ele>2106.87</ele>
        <time>2012-08-01T17:06:35Z</time>
      </trkpt>
      <trkpt lat="46.48637" lon="11.79955">
        <ele>2107.83</ele>
        <time>2012-08-01T17:06:36Z</time>
      </trkpt>
      <trkpt lat="46.48649" lon="11.79959">
        <ele>2107.83</ele>
        <time>2012-08-01T17:06:37Z</time>
      </trkpt>
      <trkpt lat="46.48704" lon="11.79978">
        <ele>2103.98</ele>
        <time>2012-08-01T17:06:41Z</time>
      </trkpt>
      <trkpt lat="46.48713" lon="11.79981">
        <ele>2102.06</ele>
        <time>2012-08-01T17:06:42Z</time>
      </trkpt>
      <trkpt lat="46.4872" lon="11.79979">
        <ele>2101.1</ele>
        <time>2012-08-01T17:06:43Z</time>
      </trkpt>
      <trkpt lat="46.48724" lon="11.79972">
        <ele>2100.62</ele>
        <time>2012-08-01T17:06:44Z</time>
      </trkpt>
      <trkpt lat="46.48724" lon="11.79963">
        <ele>2099.66</ele>
        <time>2012-08-01T17:06:45Z</time>
      </trkpt>
      <trkpt lat="46.4872" lon="11.79956">
        <ele>2099.66</ele>
        <time>2012-08-01T17:06:46Z</time>
      </trkpt>
      <trkpt lat="46.48713" lon="11.7995">
        <ele>2099.66</ele>
        <time>2012-08-01T17:06:47Z</time>
      </trkpt>
      <trkpt lat="46.48702" lon="11.79944">
        <ele>2099.66</ele>
        <time>2012-08-01T17:06:48Z</time>
      </trkpt>
      <trkpt lat="46.48689" lon="11.79931">
        <ele>2099.18</ele>
        <time>2012-08-01T17:06:49Z</time>
      </trkpt>
      <trkpt lat="46.48677" lon="11.79914">
        <ele>2099.18</ele>
        <time>2012-08-01T17:06:50Z</time>
      </trkpt>
      <trkpt lat="46.48663" lon="11.79895">
        <ele>2098.7</ele>
        <time>2012-08-01T17:06:51Z</time>
      </trkpt>
      <trkpt lat="46.48625" lon="11.79841">
        <ele>2094.37</ele>
        <time>2012-08-01T17:06:54Z</time>
      </trkpt>
      <trkpt lat="46.48615" lon="11.79828">
        <ele>2091.49</ele>
        <time>2012-08-01T17:06:55Z</time>
      </trkpt>
      <trkpt lat="46.48604" lon="11.79819">
        <ele>2089.56</ele>
        <time>2012-08-01T17:06:56Z</time>
      </trkpt>
      <trkpt lat="46.48593" lon="11.79817">
        <ele>2088.12</ele>
        <time>2012-08-01T17:06:57Z</time>
      </trkpt>
      <trkpt lat="46.48575" lon="11.79816">
        <ele>2085.72</ele>
        <time>2012-08-01T17:06:59Z</time>
      </trkpt>
      <trkpt lat="46.48569" lon="11.79809">
        <ele>2085.24</ele>
        <time>2012-08-01T17:07:00Z</time>
      </trkpt>
      <trkpt lat="46.48568" lon="11.79799">
        <ele>2084.28</ele>
        <time>2012-08-01T17:07:01Z</time>
      </trkpt>
      <trkpt lat="46.48573" lon="11.7979">
        <ele>2083.79</ele>
        <time>2012-08-01T17:07:02Z</time>
      </trkpt>
      <trkpt lat="46.4858" lon="11.79788">
        <ele>2083.31</ele>
        <time>2012-08-01T17:07:03Z</time>
      </trkpt>
      <trkpt lat="46.48588" lon="11.79788">
        <ele>2083.79</ele>
        <time>2012-08-01T17:07:04Z</time>
      </trkpt>
      <trkpt lat="46.48596" lon="11.79787">
        <ele>2083.79</ele>
        <time>2012-08-01T17:07:05Z</time>
      </trkpt>
      <trkpt lat="46.48605" lon="11.79779">
        <ele>2083.79</ele>
        <time>2012-08-01T17:07:06Z</time>
      </trkpt>
      <trkpt lat="46.48614" lon="11.79766">
        <ele>2083.31</ele>
        <time>2012-08-01T17:07:07Z</time>
      </trkpt>
      <trkpt lat="46.48633" lon="11.79741">
        <ele>2080.91</ele>
        <time>2012-08-01T17:07:09Z</time>
      </trkpt>
      <trkpt lat="46.48645" lon="11.79737">
        <ele>2080.43</ele>
        <time>2012-08-01T17:07:10Z</time>
      </trkpt>
      <trkpt lat="46.48657" lon="11.79739">
        <ele>2079.95</ele>
        <time>2012-08-01T17:07:11Z</time>
      </trkpt>
      <trkpt lat="46.48667" lon="11.79749">
        <ele>2078.51</ele>
        <time>2012-08-01T17:07:12Z</time>
      </trkpt>
      <trkpt lat="46.48673" lon="11.79761">
        <ele>2077.55</ele>
        <time>2012-08-01T17:07:13Z</time>
      </trkpt>
      <trkpt lat="46.4868" lon="11.79771">
        <ele>2076.59</ele>
        <time>2012-08-01T17:07:14Z</time>
      </trkpt>
      <trkpt lat="46.48688" lon="11.79776">
        <ele>2076.1</ele>
        <time>2012-08-01T17:07:15Z</time>
      </trkpt>
      <trkpt lat="46.48697" lon="11.79777">
        <ele>2075.62</ele>
        <time>2012-08-01T17:07:16Z</time>
      </trkpt>
      <trkpt lat="46.48705" lon="11.79773">
        <ele>2074.66</ele>
        <time>2012-08-01T17:07:17Z</time>
      </trkpt>
      <trkpt lat="46.4871" lon="11.79761">
        <ele>2074.18</ele>
        <time>2012-08-01T17:07:18Z</time>
      </trkpt>
      <trkpt lat="46.48713" lon="11.79748">
        <ele>2073.7</ele>
        <time>2012-08-01T17:07:19Z</time>
      </trkpt>
      <trkpt lat="46.48717" lon="11.79734">
        <ele>2071.78</ele>
        <time>2012-08-01T17:07:20Z</time>
      </trkpt>
      <trkpt lat="46.48727" lon="11.79725">
        <ele>2072.74</ele>
        <time>2012-08-01T17:07:21Z</time>
      </trkpt>
      <trkpt lat="46.48739" lon="11.7972">
        <ele>2072.74</ele>
        <time>2012-08-01T17:07:22Z</time>
      </trkpt>
      <trkpt lat="46.48763" lon="11.79712">
        <ele>2071.3</ele>
        <time>2012-08-01T17:07:24Z</time>
      </trkpt>
      <trkpt lat="46.48772" lon="11.79702">
        <ele>2070.82</ele>
        <time>2012-08-01T17:07:25Z</time>
      </trkpt>
      <trkpt lat="46.48778" lon="11.79688">
        <ele>2070.34</ele>
        <time>2012-08-01T17:07:26Z</time>
      </trkpt>
      <trkpt lat="46.4878" lon="11.79671">
        <ele>2069.86</ele>
        <time>2012-08-01T17:07:27Z</time>
      </trkpt>
      <trkpt lat="46.48778" lon="11.7965">
        <ele>2069.38</ele>
        <time>2012-08-01T17:07:28Z</time>
      </trkpt>
      <trkpt lat="46.48772" lon="11.79628">
        <ele>2069.38</ele>
        <time>2012-08-01T17:07:29Z</time>
      </trkpt>
      <trkpt lat="46.48769" lon="11.79603">
        <ele>2068.89</ele>
        <time>2012-08-01T17:07:30Z</time>
      </trkpt>
      <trkpt lat="46.48768" lon="11.79577">
        <ele>2068.41</ele>
        <time>2012-08-01T17:07:31Z</time>
      </trkpt>
      <trkpt lat="46.48765" lon="11.79459">
        <ele>2064.57</ele>
        <time>2012-08-01T17:07:35Z</time>
      </trkpt>
      <trkpt lat="46.48763" lon="11.79408">
        <ele>2060.24</ele>
        <time>2012-08-01T17:07:37Z</time>
      </trkpt>
      <trkpt lat="46.48761" lon="11.79365">
        <ele>2056.88</ele>
        <time>2012-08-01T17:07:39Z</time>
      </trkpt>
      <trkpt lat="46.48762" lon="11.79345">
        <ele>2055.44</ele>
        <time>2012-08-01T17:07:40Z</time>
      </trkpt>
      <trkpt lat="46.48766" lon="11.79328">
        <ele>2053.99</ele>
        <time>2012-08-01T17:07:41Z</time>
      </trkpt>
      <trkpt lat="46.48774" lon="11.79313">
        <ele>2053.03</ele>
        <time>2012-08-01T17:07:42Z</time>
      </trkpt>
      <trkpt lat="46.48785" lon="11.79302">
        <ele>2052.55</ele>
        <time>2012-08-01T17:07:43Z</time>
      </trkpt>
      <trkpt lat="46.488" lon="11.79293">
        <ele>2052.55</ele>
        <time>2012-08-01T17:07:44Z</time>
      </trkpt>
      <trkpt lat="46.48816" lon="11.79288">
        <ele>2051.59</ele>
        <time>2012-08-01T17:07:45Z</time>
      </trkpt>
      <trkpt lat="46.48833" lon="11.7928">
        <ele>2051.11</ele>
        <time>2012-08-01T17:07:46Z</time>
      </trkpt>
      <trkpt lat="46.48849" lon="11.79267">
        <ele>2050.63</ele>
        <time>2012-08-01T17:07:47Z</time>
      </trkpt>
      <trkpt lat="46.48864" lon="11.7925">
        <ele>2049.67</ele>
        <time>2012-08-01T17:07:48Z</time>
      </trkpt>
      <trkpt lat="46.48879" lon="11.79233">
        <ele>2046.78</ele>
        <time>2012-08-01T17:07:49Z</time>
      </trkpt>
      <trkpt lat="46.48903" lon="11.79201">
        <ele>2042.46</ele>
        <time>2012-08-01T17:07:51Z</time>
      </trkpt>
      <trkpt lat="46.48911" lon="11.79186">
        <ele>2040.54</ele>
        <time>2012-08-01T17:07:52Z</time>
      </trkpt>
      <trkpt lat="46.48922" lon="11.7916">
        <ele>2037.17</ele>
        <time>2012-08-01T17:07:54Z</time>
      </trkpt>
      <trkpt lat="46.48928" lon="11.79151">
        <ele>2036.21</ele>
        <time>2012-08-01T17:07:55Z</time>
      </trkpt>
      <trkpt lat="46.48935" lon="11.79146">
        <ele>2035.25</ele>
        <time>2012-08-01T17:07:56Z</time>
      </trkpt>
      <trkpt lat="46.48943" lon="11.79143">
        <ele>2035.73</ele>
        <time>2012-08-01T17:07:57Z</time>
      </trkpt>
      <trkpt lat="46.48952" lon="11.79143">
        <ele>2035.73</ele>
        <time>2012-08-01T17:07:58Z</time>
      </trkpt>
      <trkpt lat="46.48961" lon="11.79144">
        <ele>2035.25</ele>
        <time>2012-08-01T17:07:59Z</time>
      </trkpt>
      <trkpt lat="46.48969" lon="11.79148">
        <ele>2034.77</ele>
        <time>2012-08-01T17:08:00Z</time>
      </trkpt>
      <trkpt lat="46.48974" lon="11.79153">
        <ele>2034.29</ele>
        <time>2012-08-01T17:08:01Z</time>
      </trkpt>
      <trkpt lat="46.48978" lon="11.79163">
        <ele>2033.33</ele>
        <time>2012-08-01T17:08:02Z</time>
      </trkpt>
      <trkpt lat="46.48982" lon="11.79176">
        <ele>2030.92</ele>
        <time>2012-08-01T17:08:03Z</time>
      </trkpt>
      <trkpt lat="46.48985" lon="11.79193">
        <ele>2029.96</ele>
        <time>2012-08-01T17:08:04Z</time>
      </trkpt>
      <trkpt lat="46.48987" lon="11.79208">
        <ele>2029</ele>
        <time>2012-08-01T17:08:05Z</time>
      </trkpt>
      <trkpt lat="46.48991" lon="11.79225">
        <ele>2028.52</ele>
        <time>2012-08-01T17:08:06Z</time>
      </trkpt>
      <trkpt lat="46.48996" lon="11.79233">
        <ele>2028.52</ele>
        <time>2012-08-01T17:08:07Z</time>
      </trkpt>
      <trkpt lat="46.49005" lon="11.7924">
        <ele>2027.56</ele>
        <time>2012-08-01T17:08:08Z</time>
      </trkpt>
      <trkpt lat="46.49015" lon="11.79231">
        <ele>2026.6</ele>
        <time>2012-08-01T17:08:10Z</time>
      </trkpt>
      <trkpt lat="46.49012" lon="11.79222">
        <ele>2027.08</ele>
        <time>2012-08-01T17:08:11Z</time>
      </trkpt>
      <trkpt lat="46.49007" lon="11.7921">
        <ele>2028.04</ele>
        <time>2012-08-01T17:08:12Z</time>
      </trkpt>
      <trkpt lat="46.49002" lon="11.79192">
        <ele>2028.52</ele>
        <time>2012-08-01T17:08:13Z</time>
      </trkpt>
      <trkpt lat="46.48987" lon="11.79127">
        <ele>2025.15</ele>
        <time>2012-08-01T17:08:16Z</time>
      </trkpt>
      <trkpt lat="46.48979" lon="11.79106">
        <ele>2024.19</ele>
        <time>2012-08-01T17:08:17Z</time>
      </trkpt>
      <trkpt lat="46.4897" lon="11.79087">
        <ele>2022.75</ele>
        <time>2012-08-01T17:08:18Z</time>
      </trkpt>
      <trkpt lat="46.48952" lon="11.79058">
        <ele>2018.43</ele>
        <time>2012-08-01T17:08:20Z</time>
      </trkpt>
      <trkpt lat="46.48942" lon="11.79048">
        <ele>2017.94</ele>
        <time>2012-08-01T17:08:21Z</time>
      </trkpt>
      <trkpt lat="46.48931" lon="11.79043">
        <ele>2016.5</ele>
        <time>2012-08-01T17:08:22Z</time>
      </trkpt>
      <trkpt lat="46.4892" lon="11.79044">
        <ele>2016.02</ele>
        <time>2012-08-01T17:08:23Z</time>
      </trkpt>
      <trkpt lat="46.48908" lon="11.79053">
        <ele>2015.54</ele>
        <time>2012-08-01T17:08:24Z</time>
      </trkpt>
      <trkpt lat="46.48881" lon="11.79082">
        <ele>2015.06</ele>
        <time>2012-08-01T17:08:26Z</time>
      </trkpt>
      <trkpt lat="46.48864" lon="11.79094">
        <ele>2014.1</ele>
        <time>2012-08-01T17:08:27Z</time>
      </trkpt>
      <trkpt lat="46.48812" lon="11.79127">
        <ele>2010.25</ele>
        <time>2012-08-01T17:08:30Z</time>
      </trkpt>
      <trkpt lat="46.48781" lon="11.79142">
        <ele>2007.37</ele>
        <time>2012-08-01T17:08:32Z</time>
      </trkpt>
      <trkpt lat="46.48764" lon="11.79143">
        <ele>2005.93</ele>
        <time>2012-08-01T17:08:33Z</time>
      </trkpt>
      <trkpt lat="46.48748" lon="11.79139">
        <ele>2004.49</ele>
        <time>2012-08-01T17:08:34Z</time>
      </trkpt>
      <trkpt lat="46.48719" lon="11.79128">
        <ele>2001.12</ele>
        <time>2012-08-01T17:08:36Z</time>
      </trkpt>
      <trkpt lat="46.48706" lon="11.79125">
        <ele>1998.72</ele>
        <time>2012-08-01T17:08:37Z</time>
      </trkpt>
      <trkpt lat="46.48695" lon="11.79126">
        <ele>1997.28</ele>
        <time>2012-08-01T17:08:38Z</time>
      </trkpt>
      <trkpt lat="46.48685" lon="11.79132">
        <ele>1997.28</ele>
        <time>2012-08-01T17:08:39Z</time>
      </trkpt>
      <trkpt lat="46.48678" lon="11.79146">
        <ele>1996.32</ele>
        <time>2012-08-01T17:08:40Z</time>
      </trkpt>
      <trkpt lat="46.48673" lon="11.79165">
        <ele>1995.83</ele>
        <time>2012-08-01T17:08:41Z</time>
      </trkpt>
      <trkpt lat="46.48668" lon="11.79183">
        <ele>1994.39</ele>
        <time>2012-08-01T17:08:42Z</time>
      </trkpt>
      <trkpt lat="46.48663" lon="11.79197">
        <ele>1992.95</ele>
        <time>2012-08-01T17:08:43Z</time>
      </trkpt>
      <trkpt lat="46.48655" lon="11.79204">
        <ele>1991.03</ele>
        <time>2012-08-01T17:08:44Z</time>
      </trkpt>
      <trkpt lat="46.48647" lon="11.79207">
        <ele>1990.55</ele>
        <time>2012-08-01T17:08:45Z</time>
      </trkpt>
      <trkpt lat="46.48639" lon="11.79207">
        <ele>1991.03</ele>
        <time>2012-08-01T17:08:46Z</time>
      </trkpt>
      <trkpt lat="46.48633" lon="11.79203">
        <ele>1991.03</ele>
        <time>2012-08-01T17:08:47Z</time>
      </trkpt>
      <trkpt lat="46.48627" lon="11.79193">
        <ele>1990.07</ele>
        <time>2012-08-01T17:08:48Z</time>
      </trkpt>
      <trkpt lat="46.4862" lon="11.7918">
        <ele>1989.1</ele>
        <time>2012-08-01T17:08:49Z</time>
      </trkpt>
      <trkpt lat="46.48611" lon="11.79156">
        <ele>1987.18</ele>
        <time>2012-08-01T17:08:50Z</time>
      </trkpt>
      <trkpt lat="46.48606" lon="11.79141">
        <ele>1985.74</ele>
        <time>2012-08-01T17:08:51Z</time>
      </trkpt>
      <trkpt lat="46.48602" lon="11.79127">
        <ele>1985.26</ele>
        <time>2012-08-01T17:08:52Z</time>
      </trkpt>
      <trkpt lat="46.48597" lon="11.79116">
        <ele>1984.3</ele>
        <time>2012-08-01T17:08:53Z</time>
      </trkpt>
      <trkpt lat="46.48589" lon="11.79102">
        <ele>1983.82</ele>
        <time>2012-08-01T17:08:54Z</time>
      </trkpt>
      <trkpt lat="46.48579" lon="11.79092">
        <ele>1984.3</ele>
        <time>2012-08-01T17:08:55Z</time>
      </trkpt>
      <trkpt lat="46.48569" lon="11.79086">
        <ele>1983.82</ele>
        <time>2012-08-01T17:08:56Z</time>
      </trkpt>
      <trkpt lat="46.48558" lon="11.79084">
        <ele>1982.86</ele>
        <time>2012-08-01T17:08:57Z</time>
      </trkpt>
      <trkpt lat="46.48548" lon="11.79085">
        <ele>1981.9</ele>
        <time>2012-08-01T17:08:58Z</time>
      </trkpt>
      <trkpt lat="46.48537" lon="11.79089">
        <ele>1981.41</ele>
        <time>2012-08-01T17:08:59Z</time>
      </trkpt>
      <trkpt lat="46.48528" lon="11.79093">
        <ele>1980.45</ele>
        <time>2012-08-01T17:09:00Z</time>
      </trkpt>
      <trkpt lat="46.48519" lon="11.791">
        <ele>1979.01</ele>
        <time>2012-08-01T17:09:01Z</time>
      </trkpt>
      <trkpt lat="46.48511" lon="11.79107">
        <ele>1977.57</ele>
        <time>2012-08-01T17:09:02Z</time>
      </trkpt>
      <trkpt lat="46.48502" lon="11.7911">
        <ele>1976.13</ele>
        <time>2012-08-01T17:09:03Z</time>
      </trkpt>
      <trkpt lat="46.48493" lon="11.79108">
        <ele>1975.65</ele>
        <time>2012-08-01T17:09:04Z</time>
      </trkpt>
      <trkpt lat="46.48485" lon="11.79103">
        <ele>1975.17</ele>
        <time>2012-08-01T17:09:05Z</time>
      </trkpt>
      <trkpt lat="46.48478" lon="11.79096">
        <ele>1974.2</ele>
        <time>2012-08-01T17:09:06Z</time>
      </trkpt>
      <trkpt lat="46.48474" lon="11.79088">
        <ele>1973.72</ele>
        <time>2012-08-01T17:09:07Z</time>
      </trkpt>
      <trkpt lat="46.48471" lon="11.79074">
        <ele>1973.24</ele>
        <time>2012-08-01T17:09:08Z</time>
      </trkpt>
      <trkpt lat="46.48471" lon="11.79056">
        <ele>1972.76</ele>
        <time>2012-08-01T17:09:09Z</time>
      </trkpt>
      <trkpt lat="46.4847" lon="11.79037">
        <ele>1972.76</ele>
        <time>2012-08-01T17:09:10Z</time>
      </trkpt>
      <trkpt lat="46.48464" lon="11.7902">
        <ele>1973.72</ele>
        <time>2012-08-01T17:09:11Z</time>
      </trkpt>
      <trkpt lat="46.48456" lon="11.79001">
        <ele>1973.72</ele>
        <time>2012-08-01T17:09:12Z</time>
      </trkpt>
      <trkpt lat="46.48449" lon="11.78977">
        <ele>1972.28</ele>
        <time>2012-08-01T17:09:13Z</time>
      </trkpt>
      <trkpt lat="46.48444" lon="11.7895">
        <ele>1971.32</ele>
        <time>2012-08-01T17:09:14Z</time>
      </trkpt>
      <trkpt lat="46.4844" lon="11.78921">
        <ele>1970.84</ele>
        <time>2012-08-01T17:09:15Z</time>
      </trkpt>
      <trkpt lat="46.48434" lon="11.78895">
        <ele>1969.88</ele>
        <time>2012-08-01T17:09:16Z</time>
      </trkpt>
      <trkpt lat="46.48428" lon="11.7887">
        <ele>1966.51</ele>
        <time>2012-08-01T17:09:17Z</time>
      </trkpt>
      <trkpt lat="46.48417" lon="11.78829">
        <ele>1962.67</ele>
        <time>2012-08-01T17:09:19Z</time>
      </trkpt>
      <trkpt lat="46.48412" lon="11.78815">
        <ele>1961.23</ele>
        <time>2012-08-01T17:09:20Z</time>
      </trkpt>
      <trkpt lat="46.48403" lon="11.78805">
        <ele>1960.27</ele>
        <time>2012-08-01T17:09:21Z</time>
      </trkpt>
      <trkpt lat="46.4839" lon="11.78798">
        <ele>1960.27</ele>
        <time>2012-08-01T17:09:22Z</time>
      </trkpt>
      <trkpt lat="46.48376" lon="11.78794">
        <ele>1960.27</ele>
        <time>2012-08-01T17:09:23Z</time>
      </trkpt>
      <trkpt lat="46.4836" lon="11.78792">
        <ele>1958.82</ele>
        <time>2012-08-01T17:09:24Z</time>
      </trkpt>
      <trkpt lat="46.48343" lon="11.78793">
        <ele>1958.34</ele>
        <time>2012-08-01T17:09:25Z</time>
      </trkpt>
      <trkpt lat="46.48325" lon="11.78799">
        <ele>1957.86</ele>
        <time>2012-08-01T17:09:26Z</time>
      </trkpt>
      <trkpt lat="46.48307" lon="11.78807">
        <ele>1957.38</ele>
        <time>2012-08-01T17:09:27Z</time>
      </trkpt>
      <trkpt lat="46.48287" lon="11.78814">
        <ele>1956.42</ele>
        <time>2012-08-01T17:09:28Z</time>
      </trkpt>
      <trkpt lat="46.48267" lon="11.78818">
        <ele>1954.02</ele>
        <time>2012-08-01T17:09:29Z</time>
      </trkpt>
      <trkpt lat="46.48249" lon="11.7882">
        <ele>1952.09</ele>
        <time>2012-08-01T17:09:30Z</time>
      </trkpt>
      <trkpt lat="46.48215" lon="11.78822">
        <ele>1948.25</ele>
        <time>2012-08-01T17:09:32Z</time>
      </trkpt>
      <trkpt lat="46.48202" lon="11.78823">
        <ele>1946.81</ele>
        <time>2012-08-01T17:09:33Z</time>
      </trkpt>
      <trkpt lat="46.48191" lon="11.78827">
        <ele>1945.36</ele>
        <time>2012-08-01T17:09:34Z</time>
      </trkpt>
      <trkpt lat="46.48183" lon="11.78837">
        <ele>1943.92</ele>
        <time>2012-08-01T17:09:35Z</time>
      </trkpt>
      <trkpt lat="46.48177" lon="11.78848">
        <ele>1943.92</ele>
        <time>2012-08-01T17:09:36Z</time>
      </trkpt>
      <trkpt lat="46.48171" lon="11.78855">
        <ele>1942.96</ele>
        <time>2012-08-01T17:09:37Z</time>
      </trkpt>
      <trkpt lat="46.48164" lon="11.78857">
        <ele>1942</ele>
        <time>2012-08-01T17:09:38Z</time>
      </trkpt>
      <trkpt lat="46.48159" lon="11.78852">
        <ele>1941.04</ele>
        <time>2012-08-01T17:09:39Z</time>
      </trkpt>
      <trkpt lat="46.48157" lon="11.78842">
        <ele>1940.56</ele>
        <time>2012-08-01T17:09:40Z</time>
      </trkpt>
      <trkpt lat="46.4816" lon="11.78829">
        <ele>1940.56</ele>
        <time>2012-08-01T17:09:41Z</time>
      </trkpt>
      <trkpt lat="46.48167" lon="11.78816">
        <ele>1940.08</ele>
        <time>2012-08-01T17:09:42Z</time>
      </trkpt>
      <trkpt lat="46.48175" lon="11.78804">
        <ele>1939.6</ele>
        <time>2012-08-01T17:09:43Z</time>
      </trkpt>
      <trkpt lat="46.48183" lon="11.78793">
        <ele>1939.12</ele>
        <time>2012-08-01T17:09:44Z</time>
      </trkpt>
      <trkpt lat="46.48193" lon="11.78789">
        <ele>1938.16</ele>
        <time>2012-08-01T17:09:45Z</time>
      </trkpt>
      <trkpt lat="46.48205" lon="11.7879">
        <ele>1938.16</ele>
        <time>2012-08-01T17:09:46Z</time>
      </trkpt>
      <trkpt lat="46.48219" lon="11.78793">
        <ele>1937.67</ele>
        <time>2012-08-01T17:09:47Z</time>
      </trkpt>
      <trkpt lat="46.48234" lon="11.78792">
        <ele>1937.19</ele>
        <time>2012-08-01T17:09:48Z</time>
      </trkpt>
      <trkpt lat="46.4825" lon="11.78788">
        <ele>1937.19</ele>
        <time>2012-08-01T17:09:49Z</time>
      </trkpt>
      <trkpt lat="46.48267" lon="11.7878">
        <ele>1936.71</ele>
        <time>2012-08-01T17:09:50Z</time>
      </trkpt>
      <trkpt lat="46.48284" lon="11.78768">
        <ele>1935.75</ele>
        <time>2012-08-01T17:09:51Z</time>
      </trkpt>
      <trkpt lat="46.48299" lon="11.78755">
        <ele>1934.31</ele>
        <time>2012-08-01T17:09:52Z</time>
      </trkpt>
      <trkpt lat="46.48323" lon="11.7873">
        <ele>1929.98</ele>
        <time>2012-08-01T17:09:54Z</time>
      </trkpt>
      <trkpt lat="46.48333" lon="11.78719">
        <ele>1928.06</ele>
        <time>2012-08-01T17:09:55Z</time>
      </trkpt>
      <trkpt lat="46.48344" lon="11.78711">
        <ele>1926.62</ele>
        <time>2012-08-01T17:09:56Z</time>
      </trkpt>
      <trkpt lat="46.48357" lon="11.78707">
        <ele>1926.62</ele>
        <time>2012-08-01T17:09:57Z</time>
      </trkpt>
      <trkpt lat="46.4837" lon="11.78705">
        <ele>1926.14</ele>
        <time>2012-08-01T17:09:58Z</time>
      </trkpt>
      <trkpt lat="46.48386" lon="11.78706">
        <ele>1925.18</ele>
        <time>2012-08-01T17:09:59Z</time>
      </trkpt>
      <trkpt lat="46.48404" lon="11.78707">
        <ele>1925.18</ele>
        <time>2012-08-01T17:10:00Z</time>
      </trkpt>
      <trkpt lat="46.48438" lon="11.78705">
        <ele>1921.81</ele>
        <time>2012-08-01T17:10:02Z</time>
      </trkpt>
      <trkpt lat="46.48453" lon="11.78706">
        <ele>1919.89</ele>
        <time>2012-08-01T17:10:03Z</time>
      </trkpt>
      <trkpt lat="46.48468" lon="11.78712">
        <ele>1918.93</ele>
        <time>2012-08-01T17:10:04Z</time>
      </trkpt>
      <trkpt lat="46.48482" lon="11.78719">
        <ele>1916.53</ele>
        <time>2012-08-01T17:10:05Z</time>
      </trkpt>
      <trkpt lat="46.48494" lon="11.78727">
        <ele>1915.08</ele>
        <time>2012-08-01T17:10:06Z</time>
      </trkpt>
      <trkpt lat="46.48505" lon="11.78737">
        <ele>1914.12</ele>
        <time>2012-08-01T17:10:07Z</time>
      </trkpt>
      <trkpt lat="46.48514" lon="11.78751">
        <ele>1913.16</ele>
        <time>2012-08-01T17:10:08Z</time>
      </trkpt>
      <trkpt lat="46.48521" lon="11.78767">
        <ele>1912.2</ele>
        <time>2012-08-01T17:10:09Z</time>
      </trkpt>
      <trkpt lat="46.48528" lon="11.78781">
        <ele>1911.24</ele>
        <time>2012-08-01T17:10:10Z</time>
      </trkpt>
      <trkpt lat="46.48536" lon="11.7879">
        <ele>1909.8</ele>
        <time>2012-08-01T17:10:11Z</time>
      </trkpt>
      <trkpt lat="46.48545" lon="11.78795">
        <ele>1908.83</ele>
        <time>2012-08-01T17:10:12Z</time>
      </trkpt>
      <trkpt lat="46.48556" lon="11.78795">
        <ele>1908.83</ele>
        <time>2012-08-01T17:10:13Z</time>
      </trkpt>
      <trkpt lat="46.48565" lon="11.78784">
        <ele>1909.8</ele>
        <time>2012-08-01T17:10:14Z</time>
      </trkpt>
      <trkpt lat="46.48571" lon="11.78765">
        <ele>1909.8</ele>
        <time>2012-08-01T17:10:15Z</time>
      </trkpt>
      <trkpt lat="46.48575" lon="11.78747">
        <ele>1907.39</ele>
        <time>2012-08-01T17:10:16Z</time>
      </trkpt>
      <trkpt lat="46.48579" lon="11.7873">
        <ele>1904.51</ele>
        <time>2012-08-01T17:10:17Z</time>
      </trkpt>
      <trkpt lat="46.48586" lon="11.7872">
        <ele>1903.55</ele>
        <time>2012-08-01T17:10:18Z</time>
      </trkpt>
      <trkpt lat="46.48594" lon="11.78714">
        <ele>1903.07</ele>
        <time>2012-08-01T17:10:19Z</time>
      </trkpt>
      <trkpt lat="46.48605" lon="11.78712">
        <ele>1903.55</ele>
        <time>2012-08-01T17:10:20Z</time>
      </trkpt>
      <trkpt lat="46.48618" lon="11.78713">
        <ele>1903.07</ele>
        <time>2012-08-01T17:10:21Z</time>
      </trkpt>
      <trkpt lat="46.48633" lon="11.78716">
        <ele>1902.59</ele>
        <time>2012-08-01T17:10:22Z</time>
      </trkpt>
      <trkpt lat="46.48664" lon="11.7873">
        <ele>1899.22</ele>
        <time>2012-08-01T17:10:24Z</time>
      </trkpt>
      <trkpt lat="46.48679" lon="11.78739">
        <ele>1899.22</ele>
        <time>2012-08-01T17:10:25Z</time>
      </trkpt>
      <trkpt lat="46.48694" lon="11.78751">
        <ele>1898.26</ele>
        <time>2012-08-01T17:10:26Z</time>
      </trkpt>
      <trkpt lat="46.4871" lon="11.78764">
        <ele>1898.26</ele>
        <time>2012-08-01T17:10:27Z</time>
      </trkpt>
      <trkpt lat="46.48727" lon="11.78777">
        <ele>1896.82</ele>
        <time>2012-08-01T17:10:28Z</time>
      </trkpt>
      <trkpt lat="46.48743" lon="11.78791">
        <ele>1894.42</ele>
        <time>2012-08-01T17:10:29Z</time>
      </trkpt>
      <trkpt lat="46.48761" lon="11.78803">
        <ele>1893.45</ele>
        <time>2012-08-01T17:10:30Z</time>
      </trkpt>
      <trkpt lat="46.48777" lon="11.7881">
        <ele>1890.57</ele>
        <time>2012-08-01T17:10:31Z</time>
      </trkpt>
      <trkpt lat="46.48793" lon="11.78815">
        <ele>1889.13</ele>
        <time>2012-08-01T17:10:32Z</time>
      </trkpt>
      <trkpt lat="46.4881" lon="11.78816">
        <ele>1888.65</ele>
        <time>2012-08-01T17:10:33Z</time>
      </trkpt>
      <trkpt lat="46.48827" lon="11.78812">
        <ele>1888.17</ele>
        <time>2012-08-01T17:10:34Z</time>
      </trkpt>
      <trkpt lat="46.48844" lon="11.78803">
        <ele>1886.72</ele>
        <time>2012-08-01T17:10:35Z</time>
      </trkpt>
      <trkpt lat="46.48857" lon="11.7879">
        <ele>1885.76</ele>
        <time>2012-08-01T17:10:36Z</time>
      </trkpt>
      <trkpt lat="46.48868" lon="11.78777">
        <ele>1883.84</ele>
        <time>2012-08-01T17:10:37Z</time>
      </trkpt>
      <trkpt lat="46.48878" lon="11.78766">
        <ele>1882.4</ele>
        <time>2012-08-01T17:10:38Z</time>
      </trkpt>
      <trkpt lat="46.48889" lon="11.78758">
        <ele>1881.44</ele>
        <time>2012-08-01T17:10:39Z</time>
      </trkpt>
      <trkpt lat="46.48904" lon="11.78755">
        <ele>1881.44</ele>
        <time>2012-08-01T17:10:40Z</time>
      </trkpt>
      <trkpt lat="46.48921" lon="11.78755">
        <ele>1880.48</ele>
        <time>2012-08-01T17:10:41Z</time>
      </trkpt>
      <trkpt lat="46.48939" lon="11.78757">
        <ele>1880.48</ele>
        <time>2012-08-01T17:10:42Z</time>
      </trkpt>
      <trkpt lat="46.48958" lon="11.78757">
        <ele>1880</ele>
        <time>2012-08-01T17:10:43Z</time>
      </trkpt>
      <trkpt lat="46.48978" lon="11.78755">
        <ele>1879.03</ele>
        <time>2012-08-01T17:10:44Z</time>
      </trkpt>
      <trkpt lat="46.49021" lon="11.78749">
        <ele>1876.63</ele>
        <time>2012-08-01T17:10:46Z</time>
      </trkpt>
      <trkpt lat="46.49061" lon="11.78747">
        <ele>1872.3</ele>
        <time>2012-08-01T17:10:48Z</time>
      </trkpt>
      <trkpt lat="46.4908" lon="11.78745">
        <ele>1869.42</ele>
        <time>2012-08-01T17:10:49Z</time>
      </trkpt>
      <trkpt lat="46.49113" lon="11.78735">
        <ele>1867.02</ele>
        <time>2012-08-01T17:10:51Z</time>
      </trkpt>
      <trkpt lat="46.49128" lon="11.78723">
        <ele>1865.09</ele>
        <time>2012-08-01T17:10:52Z</time>
      </trkpt>
      <trkpt lat="46.49141" lon="11.78712">
        <ele>1862.69</ele>
        <time>2012-08-01T17:10:53Z</time>
      </trkpt>
      <trkpt lat="46.49155" lon="11.78704">
        <ele>1860.77</ele>
        <time>2012-08-01T17:10:54Z</time>
      </trkpt>
      <trkpt lat="46.49169" lon="11.787">
        <ele>1859.33</ele>
        <time>2012-08-01T17:10:55Z</time>
      </trkpt>
      <trkpt lat="46.49186" lon="11.787">
        <ele>1859.33</ele>
        <time>2012-08-01T17:10:56Z</time>
      </trkpt>
      <trkpt lat="46.49204" lon="11.78702">
        <ele>1858.37</ele>
        <time>2012-08-01T17:10:57Z</time>
      </trkpt>
      <trkpt lat="46.49261" lon="11.78712">
        <ele>1854.52</ele>
        <time>2012-08-01T17:11:00Z</time>
      </trkpt>
      <trkpt lat="46.4928" lon="11.78719">
        <ele>1852.6</ele>
        <time>2012-08-01T17:11:01Z</time>
      </trkpt>
      <trkpt lat="46.49297" lon="11.78726">
        <ele>1851.64</ele>
        <time>2012-08-01T17:11:02Z</time>
      </trkpt>
      <trkpt lat="46.49312" lon="11.7873">
        <ele>1849.23</ele>
        <time>2012-08-01T17:11:03Z</time>
      </trkpt>
      <trkpt lat="46.49327" lon="11.78734">
        <ele>1847.31</ele>
        <time>2012-08-01T17:11:04Z</time>
      </trkpt>
      <trkpt lat="46.4934" lon="11.78735">
        <ele>1845.39</ele>
        <time>2012-08-01T17:11:05Z</time>
      </trkpt>
      <trkpt lat="46.49352" lon="11.78733">
        <ele>1843.95</ele>
        <time>2012-08-01T17:11:06Z</time>
      </trkpt>
      <trkpt lat="46.49362" lon="11.78727">
        <ele>1842.5</ele>
        <time>2012-08-01T17:11:07Z</time>
      </trkpt>
      <trkpt lat="46.4937" lon="11.78715">
        <ele>1841.54</ele>
        <time>2012-08-01T17:11:08Z</time>
      </trkpt>
      <trkpt lat="46.49376" lon="11.78698">
        <ele>1842.02</ele>
        <time>2012-08-01T17:11:09Z</time>
      </trkpt>
      <trkpt lat="46.4938" lon="11.78681">
        <ele>1840.1</ele>
        <time>2012-08-01T17:11:10Z</time>
      </trkpt>
      <trkpt lat="46.49386" lon="11.78666">
        <ele>1838.18</ele>
        <time>2012-08-01T17:11:11Z</time>
      </trkpt>
      <trkpt lat="46.49394" lon="11.78655">
        <ele>1837.7</ele>
        <time>2012-08-01T17:11:12Z</time>
      </trkpt>
      <trkpt lat="46.49404" lon="11.78647">
        <ele>1837.22</ele>
        <time>2012-08-01T17:11:13Z</time>
      </trkpt>
      <trkpt lat="46.49416" lon="11.78643">
        <ele>1836.26</ele>
        <time>2012-08-01T17:11:14Z</time>
      </trkpt>
      <trkpt lat="46.49428" lon="11.78645">
        <ele>1836.26</ele>
        <time>2012-08-01T17:11:15Z</time>
      </trkpt>
      <trkpt lat="46.4944" lon="11.78653">
        <ele>1836.26</ele>
        <time>2012-08-01T17:11:16Z</time>
      </trkpt>
      <trkpt lat="46.49453" lon="11.78665">
        <ele>1835.77</ele>
        <time>2012-08-01T17:11:17Z</time>
      </trkpt>
      <trkpt lat="46.49466" lon="11.78676">
        <ele>1835.29</ele>
        <time>2012-08-01T17:11:18Z</time>
      </trkpt>
      <trkpt lat="46.4948" lon="11.78684">
        <ele>1833.85</ele>
        <time>2012-08-01T17:11:19Z</time>
      </trkpt>
      <trkpt lat="46.49524" lon="11.78701">
        <ele>1829.53</ele>
        <time>2012-08-01T17:11:22Z</time>
      </trkpt>
      <trkpt lat="46.49537" lon="11.78707">
        <ele>1828.56</ele>
        <time>2012-08-01T17:11:23Z</time>
      </trkpt>
      <trkpt lat="46.49548" lon="11.78715">
        <ele>1826.64</ele>
        <time>2012-08-01T17:11:24Z</time>
      </trkpt>
      <trkpt lat="46.49575" lon="11.78737">
        <ele>1823.76</ele>
        <time>2012-08-01T17:11:27Z</time>
      </trkpt>
      <trkpt lat="46.49583" lon="11.78738">
        <ele>1822.8</ele>
        <time>2012-08-01T17:11:28Z</time>
      </trkpt>
      <trkpt lat="46.4959" lon="11.78738">
        <ele>1821.84</ele>
        <time>2012-08-01T17:11:29Z</time>
      </trkpt>
      <trkpt lat="46.49595" lon="11.78734">
        <ele>1821.84</ele>
        <time>2012-08-01T17:11:30Z</time>
      </trkpt>
      <trkpt lat="46.49597" lon="11.78727">
        <ele>1821.35</ele>
        <time>2012-08-01T17:11:31Z</time>
      </trkpt>
      <trkpt lat="46.49595" lon="11.78716">
        <ele>1821.35</ele>
        <time>2012-08-01T17:11:32Z</time>
      </trkpt>
      <trkpt lat="46.49591" lon="11.78703">
        <ele>1820.39</ele>
        <time>2012-08-01T17:11:33Z</time>
      </trkpt>
      <trkpt lat="46.49585" lon="11.78689">
        <ele>1819.91</ele>
        <time>2012-08-01T17:11:34Z</time>
      </trkpt>
      <trkpt lat="46.49574" lon="11.78662">
        <ele>1818.47</ele>
        <time>2012-08-01T17:11:36Z</time>
      </trkpt>
      <trkpt lat="46.49566" lon="11.78651">
        <ele>1817.99</ele>
        <time>2012-08-01T17:11:37Z</time>
      </trkpt>
      <trkpt lat="46.49557" lon="11.78641">
        <ele>1816.55</ele>
        <time>2012-08-01T17:11:38Z</time>
      </trkpt>
      <trkpt lat="46.4953" lon="11.78612">
        <ele>1814.15</ele>
        <time>2012-08-01T17:11:41Z</time>
      </trkpt>
      <trkpt lat="46.49522" lon="11.786">
        <ele>1813.18</ele>
        <time>2012-08-01T17:11:42Z</time>
      </trkpt>
      <trkpt lat="46.49515" lon="11.78587">
        <ele>1812.7</ele>
        <time>2012-08-01T17:11:43Z</time>
      </trkpt>
      <trkpt lat="46.49507" lon="11.78575">
        <ele>1812.22</ele>
        <time>2012-08-01T17:11:44Z</time>
      </trkpt>
      <trkpt lat="46.49498" lon="11.78565">
        <ele>1811.74</ele>
        <time>2012-08-01T17:11:45Z</time>
      </trkpt>
      <trkpt lat="46.49488" lon="11.78556">
        <ele>1809.82</ele>
        <time>2012-08-01T17:11:46Z</time>
      </trkpt>
      <trkpt lat="46.49478" lon="11.78549">
        <ele>1809.34</ele>
        <time>2012-08-01T17:11:47Z</time>
      </trkpt>
      <trkpt lat="46.49454" lon="11.78532">
        <ele>1807.42</ele>
        <time>2012-08-01T17:11:49Z</time>
      </trkpt>
      <trkpt lat="46.49443" lon="11.78521">
        <ele>1806.94</ele>
        <time>2012-08-01T17:11:50Z</time>
      </trkpt>
      <trkpt lat="46.49434" lon="11.78508">
        <ele>1805.49</ele>
        <time>2012-08-01T17:11:51Z</time>
      </trkpt>
      <trkpt lat="46.49426" lon="11.78495">
        <ele>1804.53</ele>
        <time>2012-08-01T17:11:52Z</time>
      </trkpt>
      <trkpt lat="46.4942" lon="11.7848">
        <ele>1803.57</ele>
        <time>2012-08-01T17:11:53Z</time>
      </trkpt>
      <trkpt lat="46.49416" lon="11.78465">
        <ele>1802.61</ele>
        <time>2012-08-01T17:11:54Z</time>
      </trkpt>
      <trkpt lat="46.49412" lon="11.78451">
        <ele>1802.13</ele>
        <time>2012-08-01T17:11:55Z</time>
      </trkpt>
      <trkpt lat="46.49406" lon="11.7844">
        <ele>1801.65</ele>
        <time>2012-08-01T17:11:56Z</time>
      </trkpt>
      <trkpt lat="46.49397" lon="11.78433">
        <ele>1800.69</ele>
        <time>2012-08-01T17:11:57Z</time>
      </trkpt>
      <trkpt lat="46.49388" lon="11.78431">
        <ele>1799.73</ele>
        <time>2012-08-01T17:11:58Z</time>
      </trkpt>
      <trkpt lat="46.49377" lon="11.78433">
        <ele>1799.24</ele>
        <time>2012-08-01T17:11:59Z</time>
      </trkpt>
      <trkpt lat="46.49366" lon="11.78438">
        <ele>1798.76</ele>
        <time>2012-08-01T17:12:00Z</time>
      </trkpt>
      <trkpt lat="46.49356" lon="11.78444">
        <ele>1798.76</ele>
        <time>2012-08-01T17:12:01Z</time>
      </trkpt>
      <trkpt lat="46.49345" lon="11.78451">
        <ele>1798.28</ele>
        <time>2012-08-01T17:12:02Z</time>
      </trkpt>
      <trkpt lat="46.49335" lon="11.7846">
        <ele>1797.32</ele>
        <time>2012-08-01T17:12:03Z</time>
      </trkpt>
      <trkpt lat="46.49308" lon="11.78492">
        <ele>1793.96</ele>
        <time>2012-08-01T17:12:06Z</time>
      </trkpt>
      <trkpt lat="46.49303" lon="11.78505">
        <ele>1793</ele>
        <time>2012-08-01T17:12:07Z</time>
      </trkpt>
      <trkpt lat="46.49301" lon="11.78519">
        <ele>1792.52</ele>
        <time>2012-08-01T17:12:08Z</time>
      </trkpt>
      <trkpt lat="46.49298" lon="11.78532">
        <ele>1791.55</ele>
        <time>2012-08-01T17:12:09Z</time>
      </trkpt>
      <trkpt lat="46.49294" lon="11.78543">
        <ele>1790.11</ele>
        <time>2012-08-01T17:12:10Z</time>
      </trkpt>
      <trkpt lat="46.49287" lon="11.7855">
        <ele>1789.15</ele>
        <time>2012-08-01T17:12:11Z</time>
      </trkpt>
      <trkpt lat="46.49278" lon="11.78553">
        <ele>1788.19</ele>
        <time>2012-08-01T17:12:12Z</time>
      </trkpt>
      <trkpt lat="46.49268" lon="11.78549">
        <ele>1787.23</ele>
        <time>2012-08-01T17:12:13Z</time>
      </trkpt>
      <trkpt lat="46.49257" lon="11.7854">
        <ele>1788.19</ele>
        <time>2012-08-01T17:12:14Z</time>
      </trkpt>
      <trkpt lat="46.49245" lon="11.78527">
        <ele>1788.67</ele>
        <time>2012-08-01T17:12:15Z</time>
      </trkpt>
      <trkpt lat="46.49233" lon="11.7851">
        <ele>1789.63</ele>
        <time>2012-08-01T17:12:16Z</time>
      </trkpt>
      <trkpt lat="46.49206" lon="11.78474">
        <ele>1786.27</ele>
        <time>2012-08-01T17:12:18Z</time>
      </trkpt>
      <trkpt lat="46.49185" lon="11.7845">
        <ele>1780.5</ele>
        <time>2012-08-01T17:12:20Z</time>
      </trkpt>
      <trkpt lat="46.49174" lon="11.78446">
        <ele>1779.54</ele>
        <time>2012-08-01T17:12:21Z</time>
      </trkpt>
      <trkpt lat="46.49163" lon="11.78449">
        <ele>1778.1</ele>
        <time>2012-08-01T17:12:22Z</time>
      </trkpt>
      <trkpt lat="46.49147" lon="11.78457">
        <ele>1776.17</ele>
        <time>2012-08-01T17:12:24Z</time>
      </trkpt>
      <trkpt lat="46.49143" lon="11.78457">
        <ele>1775.69</ele>
        <time>2012-08-01T17:12:25Z</time>
      </trkpt>
      <trkpt lat="46.49142" lon="11.78453">
        <ele>1775.69</ele>
        <time>2012-08-01T17:12:26Z</time>
      </trkpt>
      <trkpt lat="46.49146" lon="11.78445">
        <ele>1775.69</ele>
        <time>2012-08-01T17:12:27Z</time>
      </trkpt>
      <trkpt lat="46.49154" lon="11.78437">
        <ele>1776.65</ele>
        <time>2012-08-01T17:12:28Z</time>
      </trkpt>
      <trkpt lat="46.49166" lon="11.78435">
        <ele>1776.65</ele>
        <time>2012-08-01T17:12:29Z</time>
      </trkpt>
      <trkpt lat="46.49181" lon="11.78439">
        <ele>1776.65</ele>
        <time>2012-08-01T17:12:30Z</time>
      </trkpt>
      <trkpt lat="46.49196" lon="11.78448">
        <ele>1775.69</ele>
        <time>2012-08-01T17:12:31Z</time>
      </trkpt>
      <trkpt lat="46.49209" lon="11.78456">
        <ele>1774.25</ele>
        <time>2012-08-01T17:12:32Z</time>
      </trkpt>
      <trkpt lat="46.4923" lon="11.78469">
        <ele>1769.92</ele>
        <time>2012-08-01T17:12:34Z</time>
      </trkpt>
      <trkpt lat="46.49238" lon="11.78473">
        <ele>1768.96</ele>
        <time>2012-08-01T17:12:35Z</time>
      </trkpt>
      <trkpt lat="46.49246" lon="11.78472">
        <ele>1768.48</ele>
        <time>2012-08-01T17:12:36Z</time>
      </trkpt>
      <trkpt lat="46.49252" lon="11.78468">
        <ele>1768</ele>
        <time>2012-08-01T17:12:37Z</time>
      </trkpt>
      <trkpt lat="46.49253" lon="11.78459">
        <ele>1767.52</ele>
        <time>2012-08-01T17:12:38Z</time>
      </trkpt>
      <trkpt lat="46.4925" lon="11.78447">
        <ele>1767.52</ele>
        <time>2012-08-01T17:12:39Z</time>
      </trkpt>
      <trkpt lat="46.49246" lon="11.78437">
        <ele>1767.52</ele>
        <time>2012-08-01T17:12:40Z</time>
      </trkpt>
      <trkpt lat="46.49239" lon="11.78429">
        <ele>1767.52</ele>
        <time>2012-08-01T17:12:41Z</time>
      </trkpt>
      <trkpt lat="46.4923" lon="11.78421">
        <ele>1767.04</ele>
        <time>2012-08-01T17:12:42Z</time>
      </trkpt>
      <trkpt lat="46.4922" lon="11.7841">
        <ele>1766.08</ele>
        <time>2012-08-01T17:12:43Z</time>
      </trkpt>
      <trkpt lat="46.49206" lon="11.78394">
        <ele>1765.6</ele>
        <time>2012-08-01T17:12:44Z</time>
      </trkpt>
      <trkpt lat="46.49191" lon="11.78375">
        <ele>1762.23</ele>
        <time>2012-08-01T17:12:45Z</time>
      </trkpt>
      <trkpt lat="46.49178" lon="11.78359">
        <ele>1760.79</ele>
        <time>2012-08-01T17:12:46Z</time>
      </trkpt>
      <trkpt lat="46.49158" lon="11.78335">
        <ele>1756.95</ele>
        <time>2012-08-01T17:12:48Z</time>
      </trkpt>
      <trkpt lat="46.4915" lon="11.78322">
        <ele>1755.5</ele>
        <time>2012-08-01T17:12:49Z</time>
      </trkpt>
      <trkpt lat="46.49142" lon="11.7831">
        <ele>1755.5</ele>
        <time>2012-08-01T17:12:50Z</time>
      </trkpt>
      <trkpt lat="46.49145" lon="11.78298">
        <ele>1755.02</ele>
        <time>2012-08-01T17:12:51Z</time>
      </trkpt>
      <trkpt lat="46.49148" lon="11.78291">
        <ele>1754.06</ele>
        <time>2012-08-01T17:12:52Z</time>
      </trkpt>
      <trkpt lat="46.49155" lon="11.78288">
        <ele>1753.1</ele>
        <time>2012-08-01T17:12:53Z</time>
      </trkpt>
      <trkpt lat="46.49161" lon="11.78287">
        <ele>1751.66</ele>
        <time>2012-08-01T17:12:54Z</time>
      </trkpt>
      <trkpt lat="46.49181" lon="11.78283">
        <ele>1750.22</ele>
        <time>2012-08-01T17:12:57Z</time>
      </trkpt>
      <trkpt lat="46.49186" lon="11.7828">
        <ele>1748.78</ele>
        <time>2012-08-01T17:12:58Z</time>
      </trkpt>
      <trkpt lat="46.49191" lon="11.78274">
        <ele>1748.78</ele>
        <time>2012-08-01T17:12:59Z</time>
      </trkpt>
      <trkpt lat="46.49193" lon="11.78266">
        <ele>1747.81</ele>
        <time>2012-08-01T17:13:00Z</time>
      </trkpt>
      <trkpt lat="46.49193" lon="11.78254">
        <ele>1747.33</ele>
        <time>2012-08-01T17:13:01Z</time>
      </trkpt>
      <trkpt lat="46.4919" lon="11.78243">
        <ele>1746.37</ele>
        <time>2012-08-01T17:13:02Z</time>
      </trkpt>
      <trkpt lat="46.49186" lon="11.78232">
        <ele>1746.37</ele>
        <time>2012-08-01T17:13:03Z</time>
      </trkpt>
      <trkpt lat="46.49179" lon="11.78222">
        <ele>1745.89</ele>
        <time>2012-08-01T17:13:04Z</time>
      </trkpt>
      <trkpt lat="46.4917" lon="11.78216">
        <ele>1745.89</ele>
        <time>2012-08-01T17:13:05Z</time>
      </trkpt>
      <trkpt lat="46.49161" lon="11.78211">
        <ele>1746.37</ele>
        <time>2012-08-01T17:13:06Z</time>
      </trkpt>
      <trkpt lat="46.49151" lon="11.78206">
        <ele>1745.41</ele>
        <time>2012-08-01T17:13:07Z</time>
      </trkpt>
      <trkpt lat="46.49043" lon="11.7815">
        <ele>1743.01</ele>
        <time>2012-08-01T17:13:19Z</time>
      </trkpt>
      <trkpt lat="46.49038" lon="11.78149">
        <ele>1742.53</ele>
        <time>2012-08-01T17:13:20Z</time>
      </trkpt>
      <trkpt lat="46.49033" lon="11.7815">
        <ele>1742.05</ele>
        <time>2012-08-01T17:13:21Z</time>
      </trkpt>
      <trkpt lat="46.49028" lon="11.78152">
        <ele>1742.05</ele>
        <time>2012-08-01T17:13:22Z</time>
      </trkpt>
      <trkpt lat="46.49023" lon="11.78158">
        <ele>1742.05</ele>
        <time>2012-08-01T17:13:23Z</time>
      </trkpt>
      <trkpt lat="46.4902" lon="11.78168">
        <ele>1742.05</ele>
        <time>2012-08-01T17:13:24Z</time>
      </trkpt>
      <trkpt lat="46.49018" lon="11.78183">
        <ele>1742.53</ele>
        <time>2012-08-01T17:13:25Z</time>
      </trkpt>
      <trkpt lat="46.49017" lon="11.78201">
        <ele>1743.01</ele>
        <time>2012-08-01T17:13:26Z</time>
      </trkpt>
      <trkpt lat="46.49014" lon="11.78223">
        <ele>1742.53</ele>
        <time>2012-08-01T17:13:27Z</time>
      </trkpt>
      <trkpt lat="46.49005" lon="11.7827">
        <ele>1741.08</ele>
        <time>2012-08-01T17:13:29Z</time>
      </trkpt>
      <trkpt lat="46.48998" lon="11.78317">
        <ele>1737.24</ele>
        <time>2012-08-01T17:13:31Z</time>
      </trkpt>
      <trkpt lat="46.48995" lon="11.78335">
        <ele>1735.32</ele>
        <time>2012-08-01T17:13:32Z</time>
      </trkpt>
      <trkpt lat="46.4899" lon="11.7835">
        <ele>1733.88</ele>
        <time>2012-08-01T17:13:33Z</time>
      </trkpt>
      <trkpt lat="46.48981" lon="11.7836">
        <ele>1731.95</ele>
        <time>2012-08-01T17:13:34Z</time>
      </trkpt>
      <trkpt lat="46.48967" lon="11.78365">
        <ele>1731.95</ele>
        <time>2012-08-01T17:13:35Z</time>
      </trkpt>
      <trkpt lat="46.48951" lon="11.78368">
        <ele>1731.95</ele>
        <time>2012-08-01T17:13:36Z</time>
      </trkpt>
      <trkpt lat="46.48902" lon="11.78376">
        <ele>1727.63</ele>
        <time>2012-08-01T17:13:39Z</time>
      </trkpt>
      <trkpt lat="46.48886" lon="11.78373">
        <ele>1726.67</ele>
        <time>2012-08-01T17:13:40Z</time>
      </trkpt>
      <trkpt lat="46.48872" lon="11.78364">
        <ele>1724.74</ele>
        <time>2012-08-01T17:13:41Z</time>
      </trkpt>
      <trkpt lat="46.48848" lon="11.78345">
        <ele>1722.34</ele>
        <time>2012-08-01T17:13:43Z</time>
      </trkpt>
      <trkpt lat="46.48833" lon="11.78341">
        <ele>1722.34</ele>
        <time>2012-08-01T17:13:44Z</time>
      </trkpt>
      <trkpt lat="46.48817" lon="11.78341">
        <ele>1720.9</ele>
        <time>2012-08-01T17:13:45Z</time>
      </trkpt>
      <trkpt lat="46.48799" lon="11.78346">
        <ele>1721.38</ele>
        <time>2012-08-01T17:13:46Z</time>
      </trkpt>
      <trkpt lat="46.4878" lon="11.78352">
        <ele>1720.42</ele>
        <time>2012-08-01T17:13:47Z</time>
      </trkpt>
      <trkpt lat="46.48749" lon="11.78364">
        <ele>1713.21</ele>
        <time>2012-08-01T17:13:49Z</time>
      </trkpt>
      <trkpt lat="46.48727" lon="11.78374">
        <ele>1709.36</ele>
        <time>2012-08-01T17:13:51Z</time>
      </trkpt>
      <trkpt lat="46.48719" lon="11.78375">
        <ele>1708.4</ele>
        <time>2012-08-01T17:13:52Z</time>
      </trkpt>
      <trkpt lat="46.48714" lon="11.78371">
        <ele>1706.48</ele>
        <time>2012-08-01T17:13:53Z</time>
      </trkpt>
      <trkpt lat="46.48711" lon="11.78365">
        <ele>1706</ele>
        <time>2012-08-01T17:13:54Z</time>
      </trkpt>
      <trkpt lat="46.48713" lon="11.78355">
        <ele>1705.52</ele>
        <time>2012-08-01T17:13:55Z</time>
      </trkpt>
      <trkpt lat="46.48719" lon="11.78347">
        <ele>1705.52</ele>
        <time>2012-08-01T17:13:56Z</time>
      </trkpt>
      <trkpt lat="46.4873" lon="11.78341">
        <ele>1706</ele>
        <time>2012-08-01T17:13:57Z</time>
      </trkpt>
      <trkpt lat="46.48744" lon="11.78335">
        <ele>1706</ele>
        <time>2012-08-01T17:13:58Z</time>
      </trkpt>
      <trkpt lat="46.48758" lon="11.78325">
        <ele>1705.52</ele>
        <time>2012-08-01T17:13:59Z</time>
      </trkpt>
      <trkpt lat="46.48773" lon="11.78312">
        <ele>1705.52</ele>
        <time>2012-08-01T17:14:00Z</time>
      </trkpt>
      <trkpt lat="46.48786" lon="11.78298">
        <ele>1703.59</ele>
        <time>2012-08-01T17:14:01Z</time>
      </trkpt>
      <trkpt lat="46.48797" lon="11.78284">
        <ele>1701.67</ele>
        <time>2012-08-01T17:14:02Z</time>
      </trkpt>
      <trkpt lat="46.4881" lon="11.78262">
        <ele>1698.31</ele>
        <time>2012-08-01T17:14:04Z</time>
      </trkpt>
      <trkpt lat="46.48813" lon="11.78252">
        <ele>1697.34</ele>
        <time>2012-08-01T17:14:05Z</time>
      </trkpt>
      <trkpt lat="46.48811" lon="11.78243">
        <ele>1696.38</ele>
        <time>2012-08-01T17:14:06Z</time>
      </trkpt>
      <trkpt lat="46.48805" lon="11.78238">
        <ele>1696.38</ele>
        <time>2012-08-01T17:14:07Z</time>
      </trkpt>
      <trkpt lat="46.48796" lon="11.78239">
        <ele>1696.86</ele>
        <time>2012-08-01T17:14:08Z</time>
      </trkpt>
      <trkpt lat="46.48786" lon="11.78246">
        <ele>1696.86</ele>
        <time>2012-08-01T17:14:09Z</time>
      </trkpt>
      <trkpt lat="46.48773" lon="11.78257">
        <ele>1696.86</ele>
        <time>2012-08-01T17:14:10Z</time>
      </trkpt>
      <trkpt lat="46.48758" lon="11.78265">
        <ele>1696.86</ele>
        <time>2012-08-01T17:14:11Z</time>
      </trkpt>
      <trkpt lat="46.4874" lon="11.78268">
        <ele>1696.38</ele>
        <time>2012-08-01T17:14:12Z</time>
      </trkpt>
      <trkpt lat="46.48722" lon="11.7827">
        <ele>1694.94</ele>
        <time>2012-08-01T17:14:13Z</time>
      </trkpt>
      <trkpt lat="46.48685" lon="11.78275">
        <ele>1692.06</ele>
        <time>2012-08-01T17:14:15Z</time>
      </trkpt>
      <trkpt lat="46.48648" lon="11.78276">
        <ele>1688.69</ele>
        <time>2012-08-01T17:14:17Z</time>
      </trkpt>
      <trkpt lat="46.48631" lon="11.78274">
        <ele>1686.29</ele>
        <time>2012-08-01T17:14:18Z</time>
      </trkpt>
      <trkpt lat="46.48614" lon="11.78266">
        <ele>1684.37</ele>
        <time>2012-08-01T17:14:19Z</time>
      </trkpt>
      <trkpt lat="46.48596" lon="11.78253">
        <ele>1682.93</ele>
        <time>2012-08-01T17:14:20Z</time>
      </trkpt>
      <trkpt lat="46.48562" lon="11.78227">
        <ele>1681</ele>
        <time>2012-08-01T17:14:22Z</time>
      </trkpt>
      <trkpt lat="46.48544" lon="11.78217">
        <ele>1680.52</ele>
        <time>2012-08-01T17:14:23Z</time>
      </trkpt>
      <trkpt lat="46.48526" lon="11.7821">
        <ele>1679.56</ele>
        <time>2012-08-01T17:14:24Z</time>
      </trkpt>
      <trkpt lat="46.48485" lon="11.78195">
        <ele>1675.72</ele>
        <time>2012-08-01T17:14:26Z</time>
      </trkpt>
      <trkpt lat="46.48445" lon="11.78175">
        <ele>1671.87</ele>
        <time>2012-08-01T17:14:28Z</time>
      </trkpt>
      <trkpt lat="46.48407" lon="11.7815">
        <ele>1668.99</ele>
        <time>2012-08-01T17:14:30Z</time>
      </trkpt>
      <trkpt lat="46.48333" lon="11.78095">
        <ele>1663.7</ele>
        <time>2012-08-01T17:14:34Z</time>
      </trkpt>
      <trkpt lat="46.48301" lon="11.78077">
        <ele>1661.78</ele>
        <time>2012-08-01T17:14:36Z</time>
      </trkpt>
      <trkpt lat="46.48283" lon="11.78073">
        <ele>1661.78</ele>
        <time>2012-08-01T17:14:37Z</time>
      </trkpt>
      <trkpt lat="46.48264" lon="11.78072">
        <ele>1661.78</ele>
        <time>2012-08-01T17:14:38Z</time>
      </trkpt>
      <trkpt lat="46.48192" lon="11.78063">
        <ele>1657.45</ele>
        <time>2012-08-01T17:14:42Z</time>
      </trkpt>
      <trkpt lat="46.48177" lon="11.78057">
        <ele>1656.49</ele>
        <time>2012-08-01T17:14:43Z</time>
      </trkpt>
      <trkpt lat="46.48164" lon="11.78048">
        <ele>1654.57</ele>
        <time>2012-08-01T17:14:44Z</time>
      </trkpt>
      <trkpt lat="46.48153" lon="11.78039">
        <ele>1653.6</ele>
        <time>2012-08-01T17:14:45Z</time>
      </trkpt>
      <trkpt lat="46.48144" lon="11.78033">
        <ele>1652.64</ele>
        <time>2012-08-01T17:14:46Z</time>
      </trkpt>
      <trkpt lat="46.48133" lon="11.78033">
        <ele>1652.64</ele>
        <time>2012-08-01T17:14:47Z</time>
      </trkpt>
      <trkpt lat="46.48121" lon="11.7804">
        <ele>1653.12</ele>
        <time>2012-08-01T17:14:48Z</time>
      </trkpt>
      <trkpt lat="46.4811" lon="11.7805">
        <ele>1652.64</ele>
        <time>2012-08-01T17:14:49Z</time>
      </trkpt>
      <trkpt lat="46.481" lon="11.78056">
        <ele>1650.24</ele>
        <time>2012-08-01T17:14:50Z</time>
      </trkpt>
      <trkpt lat="46.4809" lon="11.78058">
        <ele>1649.76</ele>
        <time>2012-08-01T17:14:51Z</time>
      </trkpt>
      <trkpt lat="46.48081" lon="11.78055">
        <ele>1648.8</ele>
        <time>2012-08-01T17:14:52Z</time>
      </trkpt>
      <trkpt lat="46.48073" lon="11.78047">
        <ele>1648.8</ele>
        <time>2012-08-01T17:14:53Z</time>
      </trkpt>
      <trkpt lat="46.48069" lon="11.78033">
        <ele>1648.8</ele>
        <time>2012-08-01T17:14:54Z</time>
      </trkpt>
      <trkpt lat="46.48066" lon="11.78016">
        <ele>1648.32</ele>
        <time>2012-08-01T17:14:55Z</time>
      </trkpt>
      <trkpt lat="46.48059" lon="11.78001">
        <ele>1648.32</ele>
        <time>2012-08-01T17:14:56Z</time>
      </trkpt>
      <trkpt lat="46.48049" lon="11.77992">
        <ele>1647.84</ele>
        <time>2012-08-01T17:14:57Z</time>
      </trkpt>
      <trkpt lat="46.4804" lon="11.77988">
        <ele>1646.88</ele>
        <time>2012-08-01T17:14:58Z</time>
      </trkpt>
      <trkpt lat="46.48031" lon="11.7799">
        <ele>1646.88</ele>
        <time>2012-08-01T17:14:59Z</time>
      </trkpt>
      <trkpt lat="46.48021" lon="11.77995">
        <ele>1646.4</ele>
        <time>2012-08-01T17:15:00Z</time>
      </trkpt>
      <trkpt lat="46.48011" lon="11.78008">
        <ele>1648.32</ele>
        <time>2012-08-01T17:15:01Z</time>
      </trkpt>
      <trkpt lat="46.48005" lon="11.78023">
        <ele>1645.43</ele>
        <time>2012-08-01T17:15:02Z</time>
      </trkpt>
      <trkpt lat="46.47998" lon="11.78035">
        <ele>1643.99</ele>
        <time>2012-08-01T17:15:03Z</time>
      </trkpt>
      <trkpt lat="46.47991" lon="11.78044">
        <ele>1643.03</ele>
        <time>2012-08-01T17:15:04Z</time>
      </trkpt>
      <trkpt lat="46.47983" lon="11.78043">
        <ele>1642.07</ele>
        <time>2012-08-01T17:15:05Z</time>
      </trkpt>
      <trkpt lat="46.47975" lon="11.78036">
        <ele>1642.07</ele>
        <time>2012-08-01T17:15:06Z</time>
      </trkpt>
      <trkpt lat="46.47968" lon="11.78027">
        <ele>1641.59</ele>
        <time>2012-08-01T17:15:07Z</time>
      </trkpt>
      <trkpt lat="46.47964" lon="11.78014">
        <ele>1640.63</ele>
        <time>2012-08-01T17:15:08Z</time>
      </trkpt>
      <trkpt lat="46.47974" lon="11.77989">
        <ele>1635.34</ele>
        <time>2012-08-01T17:21:34Z</time>
      </trkpt>
      <trkpt lat="46.47971" lon="11.77988">
        <ele>1635.34</ele>
        <time>2012-08-01T17:21:35Z</time>
      </trkpt>
      <trkpt lat="46.47967" lon="11.77991">
        <ele>1631.98</ele>
        <time>2012-08-01T17:21:55Z</time>
      </trkpt>
      <trkpt lat="46.47966" lon="11.77991">
        <ele>1628.13</ele>
        <time>2012-08-01T17:21:59Z</time>
      </trkpt>
      <trkpt lat="46.47965" lon="11.77989">
        <ele>1625.25</ele>
        <time>2012-08-01T17:22:04Z</time>
      </trkpt>
      <trkpt lat="46.47964" lon="11.77989">
        <ele>1622.84</ele>
        <time>2012-08-01T17:22:07Z</time>
      </trkpt>
      <trkpt lat="46.47962" lon="11.77991">
        <ele>1619.96</ele>
        <time>2012-08-01T17:22:13Z</time>
      </trkpt>
      <trkpt lat="46.47964" lon="11.77991">
        <ele>1618.04</ele>
        <time>2012-08-01T17:22:29Z</time>
      </trkpt>
      <trkpt lat="46.47955" lon="11.77978">
        <ele>1618.04</ele>
        <time>2012-08-01T17:22:34Z</time>
      </trkpt>
      <trkpt lat="46.47951" lon="11.77973">
        <ele>1617.07</ele>
        <time>2012-08-01T17:22:35Z</time>
      </trkpt>
      <trkpt lat="46.47944" lon="11.77968">
        <ele>1617.56</ele>
        <time>2012-08-01T17:22:36Z</time>
      </trkpt>
      <trkpt lat="46.47936" lon="11.77965">
        <ele>1616.59</ele>
        <time>2012-08-01T17:22:37Z</time>
      </trkpt>
      <trkpt lat="46.47927" lon="11.77963">
        <ele>1615.63</ele>
        <time>2012-08-01T17:22:38Z</time>
      </trkpt>
      <trkpt lat="46.47917" lon="11.7796">
        <ele>1615.15</ele>
        <time>2012-08-01T17:22:39Z</time>
      </trkpt>
      <trkpt lat="46.47907" lon="11.77955">
        <ele>1614.67</ele>
        <time>2012-08-01T17:22:40Z</time>
      </trkpt>
      <trkpt lat="46.47897" lon="11.77947">
        <ele>1613.71</ele>
        <time>2012-08-01T17:22:41Z</time>
      </trkpt>
      <trkpt lat="46.47868" lon="11.77924">
        <ele>1611.31</ele>
        <time>2012-08-01T17:22:44Z</time>
      </trkpt>
      <trkpt lat="46.47837" lon="11.77907">
        <ele>1607.94</ele>
        <time>2012-08-01T17:22:47Z</time>
      </trkpt>
      <trkpt lat="46.47818" lon="11.77894">
        <ele>1606.5</ele>
        <time>2012-08-01T17:22:49Z</time>
      </trkpt>
      <trkpt lat="46.47799" lon="11.77885">
        <ele>1604.58</ele>
        <time>2012-08-01T17:22:51Z</time>
      </trkpt>
      <trkpt lat="46.4779" lon="11.77883">
        <ele>1603.14</ele>
        <time>2012-08-01T17:22:52Z</time>
      </trkpt>
      <trkpt lat="46.47783" lon="11.77883">
        <ele>1602.17</ele>
        <time>2012-08-01T17:22:53Z</time>
      </trkpt>
      <trkpt lat="46.47773" lon="11.77882">
        <ele>1601.21</ele>
        <time>2012-08-01T17:22:55Z</time>
      </trkpt>
      <trkpt lat="46.47771" lon="11.77878">
        <ele>1600.73</ele>
        <time>2012-08-01T17:22:56Z</time>
      </trkpt>
      <trkpt lat="46.47774" lon="11.77872">
        <ele>1599.77</ele>
        <time>2012-08-01T17:22:57Z</time>
      </trkpt>
      <trkpt lat="46.47779" lon="11.77868">
        <ele>1599.77</ele>
        <time>2012-08-01T17:22:58Z</time>
      </trkpt>
      <trkpt lat="46.47787" lon="11.77866">
        <ele>1599.77</ele>
        <time>2012-08-01T17:22:59Z</time>
      </trkpt>
      <trkpt lat="46.47796" lon="11.77866">
        <ele>1599.29</ele>
        <time>2012-08-01T17:23:00Z</time>
      </trkpt>
      <trkpt lat="46.47805" lon="11.77868">
        <ele>1598.33</ele>
        <time>2012-08-01T17:23:01Z</time>
      </trkpt>
      <trkpt lat="46.47815" lon="11.77869">
        <ele>1597.85</ele>
        <time>2012-08-01T17:23:02Z</time>
      </trkpt>
      <trkpt lat="46.47827" lon="11.77872">
        <ele>1596.89</ele>
        <time>2012-08-01T17:23:03Z</time>
      </trkpt>
      <trkpt lat="46.47839" lon="11.77874">
        <ele>1596.41</ele>
        <time>2012-08-01T17:23:04Z</time>
      </trkpt>
      <trkpt lat="46.47851" lon="11.77874">
        <ele>1594.96</ele>
        <time>2012-08-01T17:23:05Z</time>
      </trkpt>
      <trkpt lat="46.47884" lon="11.77875">
        <ele>1591.12</ele>
        <time>2012-08-01T17:23:08Z</time>
      </trkpt>
      <trkpt lat="46.47908" lon="11.7788">
        <ele>1589.68</ele>
        <time>2012-08-01T17:23:11Z</time>
      </trkpt>
      <trkpt lat="46.47913" lon="11.77878">
        <ele>1588.72</ele>
        <time>2012-08-01T17:23:12Z</time>
      </trkpt>
      <trkpt lat="46.47916" lon="11.77873">
        <ele>1588.72</ele>
        <time>2012-08-01T17:23:13Z</time>
      </trkpt>
      <trkpt lat="46.47915" lon="11.77867">
        <ele>1587.75</ele>
        <time>2012-08-01T17:23:14Z</time>
      </trkpt>
      <trkpt lat="46.4791" lon="11.77861">
        <ele>1588.24</ele>
        <time>2012-08-01T17:23:15Z</time>
      </trkpt>
      <trkpt lat="46.47901" lon="11.77857">
        <ele>1587.75</ele>
        <time>2012-08-01T17:23:16Z</time>
      </trkpt>
      <trkpt lat="46.4789" lon="11.77855">
        <ele>1587.27</ele>
        <time>2012-08-01T17:23:17Z</time>
      </trkpt>
      <trkpt lat="46.47879" lon="11.77854">
        <ele>1587.27</ele>
        <time>2012-08-01T17:23:18Z</time>
      </trkpt>
      <trkpt lat="46.47866" lon="11.7785">
        <ele>1586.31</ele>
        <time>2012-08-01T17:23:19Z</time>
      </trkpt>
      <trkpt lat="46.47831" lon="11.77832">
        <ele>1583.43</ele>
        <time>2012-08-01T17:23:22Z</time>
      </trkpt>
      <trkpt lat="46.47801" lon="11.77812">
        <ele>1580.54</ele>
        <time>2012-08-01T17:23:25Z</time>
      </trkpt>
      <trkpt lat="46.4779" lon="11.77809">
        <ele>1579.58</ele>
        <time>2012-08-01T17:23:26Z</time>
      </trkpt>
      <trkpt lat="46.47758" lon="11.77805">
        <ele>1576.22</ele>
        <time>2012-08-01T17:23:29Z</time>
      </trkpt>
      <trkpt lat="46.47748" lon="11.77804">
        <ele>1575.74</ele>
        <time>2012-08-01T17:23:30Z</time>
      </trkpt>
      <trkpt lat="46.47732" lon="11.77804">
        <ele>1573.33</ele>
        <time>2012-08-01T17:23:32Z</time>
      </trkpt>
      <trkpt lat="46.47726" lon="11.77803">
        <ele>1572.37</ele>
        <time>2012-08-01T17:23:33Z</time>
      </trkpt>
      <trkpt lat="46.47723" lon="11.77799">
        <ele>1571.41</ele>
        <time>2012-08-01T17:23:34Z</time>
      </trkpt>
      <trkpt lat="46.47722" lon="11.77794">
        <ele>1570.93</ele>
        <time>2012-08-01T17:23:35Z</time>
      </trkpt>
      <trkpt lat="46.47725" lon="11.77789">
        <ele>1569.97</ele>
        <time>2012-08-01T17:23:36Z</time>
      </trkpt>
      <trkpt lat="46.47731" lon="11.77785">
        <ele>1569.49</ele>
        <time>2012-08-01T17:23:37Z</time>
      </trkpt>
      <trkpt lat="46.4774" lon="11.77786">
        <ele>1569.49</ele>
        <time>2012-08-01T17:23:38Z</time>
      </trkpt>
      <trkpt lat="46.4775" lon="11.77787">
        <ele>1569.49</ele>
        <time>2012-08-01T17:23:39Z</time>
      </trkpt>
      <trkpt lat="46.47763" lon="11.77786">
        <ele>1569.97</ele>
        <time>2012-08-01T17:23:40Z</time>
      </trkpt>
      <trkpt lat="46.47777" lon="11.77782">
        <ele>1569.01</ele>
        <time>2012-08-01T17:23:41Z</time>
      </trkpt>
      <trkpt lat="46.47789" lon="11.77776">
        <ele>1567.57</ele>
        <time>2012-08-01T17:23:42Z</time>
      </trkpt>
      <trkpt lat="46.47801" lon="11.77771">
        <ele>1566.12</ele>
        <time>2012-08-01T17:23:43Z</time>
      </trkpt>
      <trkpt lat="46.47811" lon="11.77767">
        <ele>1564.68</ele>
        <time>2012-08-01T17:23:44Z</time>
      </trkpt>
      <trkpt lat="46.47821" lon="11.77768">
        <ele>1563.72</ele>
        <time>2012-08-01T17:23:45Z</time>
      </trkpt>
      <trkpt lat="46.47829" lon="11.77774">
        <ele>1562.76</ele>
        <time>2012-08-01T17:23:46Z</time>
      </trkpt>
      <trkpt lat="46.47843" lon="11.77785">
        <ele>1561.32</ele>
        <time>2012-08-01T17:23:48Z</time>
      </trkpt>
      <trkpt lat="46.4785" lon="11.77786">
        <ele>1561.32</ele>
        <time>2012-08-01T17:23:49Z</time>
      </trkpt>
      <trkpt lat="46.47854" lon="11.77784">
        <ele>1560.36</ele>
        <time>2012-08-01T17:23:50Z</time>
      </trkpt>
      <trkpt lat="46.47854" lon="11.77778">
        <ele>1559.88</ele>
        <time>2012-08-01T17:23:51Z</time>
      </trkpt>
      <trkpt lat="46.4785" lon="11.7777">
        <ele>1559.88</ele>
        <time>2012-08-01T17:23:52Z</time>
      </trkpt>
      <trkpt lat="46.47843" lon="11.77762">
        <ele>1559.88</ele>
        <time>2012-08-01T17:23:53Z</time>
      </trkpt>
      <trkpt lat="46.47832" lon="11.77755">
        <ele>1559.4</ele>
        <time>2012-08-01T17:23:54Z</time>
      </trkpt>
      <trkpt lat="46.47806" lon="11.77743">
        <ele>1559.4</ele>
        <time>2012-08-01T17:23:56Z</time>
      </trkpt>
      <trkpt lat="46.47765" lon="11.77739">
        <ele>1554.59</ele>
        <time>2012-08-01T17:23:59Z</time>
      </trkpt>
      <trkpt lat="46.47755" lon="11.77741">
        <ele>1553.15</ele>
        <time>2012-08-01T17:24:00Z</time>
      </trkpt>
      <trkpt lat="46.47738" lon="11.77745">
        <ele>1551.22</ele>
        <time>2012-08-01T17:24:02Z</time>
      </trkpt>
      <trkpt lat="46.47732" lon="11.77743">
        <ele>1549.78</ele>
        <time>2012-08-01T17:24:03Z</time>
      </trkpt>
      <trkpt lat="46.47729" lon="11.77739">
        <ele>1549.3</ele>
        <time>2012-08-01T17:24:04Z</time>
      </trkpt>
      <trkpt lat="46.47729" lon="11.77732">
        <ele>1548.34</ele>
        <time>2012-08-01T17:24:05Z</time>
      </trkpt>
      <trkpt lat="46.47733" lon="11.77724">
        <ele>1548.34</ele>
        <time>2012-08-01T17:24:06Z</time>
      </trkpt>
      <trkpt lat="46.47739" lon="11.77719">
        <ele>1547.86</ele>
        <time>2012-08-01T17:24:07Z</time>
      </trkpt>
      <trkpt lat="46.47748" lon="11.77717">
        <ele>1547.86</ele>
        <time>2012-08-01T17:24:08Z</time>
      </trkpt>
      <trkpt lat="46.4776" lon="11.77716">
        <ele>1547.86</ele>
        <time>2012-08-01T17:24:09Z</time>
      </trkpt>
      <trkpt lat="46.47773" lon="11.77713">
        <ele>1547.86</ele>
        <time>2012-08-01T17:24:10Z</time>
      </trkpt>
      <trkpt lat="46.47785" lon="11.7771">
        <ele>1546.9</ele>
        <time>2012-08-01T17:24:11Z</time>
      </trkpt>
      <trkpt lat="46.47813" lon="11.777">
        <ele>1543.53</ele>
        <time>2012-08-01T17:24:14Z</time>
      </trkpt>
      <trkpt lat="46.47819" lon="11.77694">
        <ele>1543.05</ele>
        <time>2012-08-01T17:24:15Z</time>
      </trkpt>
      <trkpt lat="46.47823" lon="11.77686">
        <ele>1542.57</ele>
        <time>2012-08-01T17:24:16Z</time>
      </trkpt>
      <trkpt lat="46.47823" lon="11.77676">
        <ele>1541.61</ele>
        <time>2012-08-01T17:24:17Z</time>
      </trkpt>
      <trkpt lat="46.4782" lon="11.77666">
        <ele>1540.65</ele>
        <time>2012-08-01T17:24:18Z</time>
      </trkpt>
      <trkpt lat="46.47814" lon="11.77659">
        <ele>1540.65</ele>
        <time>2012-08-01T17:24:19Z</time>
      </trkpt>
      <trkpt lat="46.47806" lon="11.77658">
        <ele>1539.21</ele>
        <time>2012-08-01T17:24:20Z</time>
      </trkpt>
      <trkpt lat="46.47797" lon="11.77663">
        <ele>1539.69</ele>
        <time>2012-08-01T17:24:21Z</time>
      </trkpt>
      <trkpt lat="46.47787" lon="11.77671">
        <ele>1538.73</ele>
        <time>2012-08-01T17:24:22Z</time>
      </trkpt>
      <trkpt lat="46.47774" lon="11.77678">
        <ele>1538.73</ele>
        <time>2012-08-01T17:24:23Z</time>
      </trkpt>
      <trkpt lat="46.4776" lon="11.77682">
        <ele>1537.77</ele>
        <time>2012-08-01T17:24:24Z</time>
      </trkpt>
      <trkpt lat="46.47745" lon="11.77684">
        <ele>1537.29</ele>
        <time>2012-08-01T17:24:25Z</time>
      </trkpt>
      <trkpt lat="46.47731" lon="11.77686">
        <ele>1535.84</ele>
        <time>2012-08-01T17:24:26Z</time>
      </trkpt>
      <trkpt lat="46.47716" lon="11.77689">
        <ele>1534.4</ele>
        <time>2012-08-01T17:24:27Z</time>
      </trkpt>
      <trkpt lat="46.47674" lon="11.77703">
        <ele>1530.56</ele>
        <time>2012-08-01T17:24:30Z</time>
      </trkpt>
      <trkpt lat="46.47661" lon="11.77706">
        <ele>1529.11</ele>
        <time>2012-08-01T17:24:31Z</time>
      </trkpt>
      <trkpt lat="46.47647" lon="11.77708">
        <ele>1528.15</ele>
        <time>2012-08-01T17:24:32Z</time>
      </trkpt>
      <trkpt lat="46.47634" lon="11.77714">
        <ele>1528.15</ele>
        <time>2012-08-01T17:24:33Z</time>
      </trkpt>
      <trkpt lat="46.47622" lon="11.77724">
        <ele>1527.19</ele>
        <time>2012-08-01T17:24:34Z</time>
      </trkpt>
      <trkpt lat="46.4761" lon="11.77736">
        <ele>1525.27</ele>
        <time>2012-08-01T17:24:35Z</time>
      </trkpt>
      <trkpt lat="46.47598" lon="11.77747">
        <ele>1523.83</ele>
        <time>2012-08-01T17:24:36Z</time>
      </trkpt>
      <trkpt lat="46.47585" lon="11.77753">
        <ele>1523.35</ele>
        <time>2012-08-01T17:24:37Z</time>
      </trkpt>
      <trkpt lat="46.4757" lon="11.77756">
        <ele>1522.39</ele>
        <time>2012-08-01T17:24:38Z</time>
      </trkpt>
      <trkpt lat="46.47556" lon="11.77756">
        <ele>1521.42</ele>
        <time>2012-08-01T17:24:39Z</time>
      </trkpt>
      <trkpt lat="46.47543" lon="11.77754">
        <ele>1519.98</ele>
        <time>2012-08-01T17:24:40Z</time>
      </trkpt>
      <trkpt lat="46.4753" lon="11.77751">
        <ele>1518.06</ele>
        <time>2012-08-01T17:24:41Z</time>
      </trkpt>
      <trkpt lat="46.4752" lon="11.77748">
        <ele>1516.62</ele>
        <time>2012-08-01T17:24:42Z</time>
      </trkpt>
      <trkpt lat="46.47509" lon="11.77749">
        <ele>1516.14</ele>
        <time>2012-08-01T17:24:43Z</time>
      </trkpt>
      <trkpt lat="46.47497" lon="11.77754">
        <ele>1515.18</ele>
        <time>2012-08-01T17:24:44Z</time>
      </trkpt>
      <trkpt lat="46.47485" lon="11.7776">
        <ele>1514.21</ele>
        <time>2012-08-01T17:24:45Z</time>
      </trkpt>
      <trkpt lat="46.47472" lon="11.77765">
        <ele>1513.25</ele>
        <time>2012-08-01T17:24:46Z</time>
      </trkpt>
      <trkpt lat="46.4746" lon="11.7777">
        <ele>1512.77</ele>
        <time>2012-08-01T17:24:47Z</time>
      </trkpt>
      <trkpt lat="46.47449" lon="11.77777">
        <ele>1511.33</ele>
        <time>2012-08-01T17:24:48Z</time>
      </trkpt>
      <trkpt lat="46.47439" lon="11.77787">
        <ele>1510.37</ele>
        <time>2012-08-01T17:24:49Z</time>
      </trkpt>
      <trkpt lat="46.4743" lon="11.77797">
        <ele>1509.89</ele>
        <time>2012-08-01T17:24:50Z</time>
      </trkpt>
      <trkpt lat="46.47412" lon="11.77817">
        <ele>1507</ele>
        <time>2012-08-01T17:24:52Z</time>
      </trkpt>
      <trkpt lat="46.47405" lon="11.77827">
        <ele>1506.04</ele>
        <time>2012-08-01T17:24:53Z</time>
      </trkpt>
      <trkpt lat="46.47395" lon="11.77843">
        <ele>1505.08</ele>
        <time>2012-08-01T17:24:55Z</time>
      </trkpt>
      <trkpt lat="46.47389" lon="11.77846">
        <ele>1504.12</ele>
        <time>2012-08-01T17:24:56Z</time>
      </trkpt>
      <trkpt lat="46.47384" lon="11.77844">
        <ele>1503.16</ele>
        <time>2012-08-01T17:24:57Z</time>
      </trkpt>
      <trkpt lat="46.47381" lon="11.77836">
        <ele>1502.68</ele>
        <time>2012-08-01T17:24:58Z</time>
      </trkpt>
      <trkpt lat="46.47381" lon="11.77827">
        <ele>1502.68</ele>
        <time>2012-08-01T17:24:59Z</time>
      </trkpt>
      <trkpt lat="46.47385" lon="11.77817">
        <ele>1502.2</ele>
        <time>2012-08-01T17:25:00Z</time>
      </trkpt>
      <trkpt lat="46.47392" lon="11.77807">
        <ele>1502.2</ele>
        <time>2012-08-01T17:25:01Z</time>
      </trkpt>
      <trkpt lat="46.47401" lon="11.77798">
        <ele>1502.2</ele>
        <time>2012-08-01T17:25:02Z</time>
      </trkpt>
      <trkpt lat="46.47411" lon="11.7779">
        <ele>1501.72</ele>
        <time>2012-08-01T17:25:03Z</time>
      </trkpt>
      <trkpt lat="46.47422" lon="11.77782">
        <ele>1501.24</ele>
        <time>2012-08-01T17:25:04Z</time>
      </trkpt>
      <trkpt lat="46.47432" lon="11.77771">
        <ele>1500.27</ele>
        <time>2012-08-01T17:25:05Z</time>
      </trkpt>
      <trkpt lat="46.4744" lon="11.77758">
        <ele>1499.31</ele>
        <time>2012-08-01T17:25:06Z</time>
      </trkpt>
      <trkpt lat="46.47448" lon="11.77745">
        <ele>1497.87</ele>
        <time>2012-08-01T17:25:07Z</time>
      </trkpt>
      <trkpt lat="46.4746" lon="11.77718">
        <ele>1495.95</ele>
        <time>2012-08-01T17:25:09Z</time>
      </trkpt>
      <trkpt lat="46.47476" lon="11.77676">
        <ele>1493.06</ele>
        <time>2012-08-01T17:25:12Z</time>
      </trkpt>
      <trkpt lat="46.47482" lon="11.77665">
        <ele>1492.58</ele>
        <time>2012-08-01T17:25:13Z</time>
      </trkpt>
      <trkpt lat="46.4749" lon="11.77657">
        <ele>1491.62</ele>
        <time>2012-08-01T17:25:14Z</time>
      </trkpt>
      <trkpt lat="46.475" lon="11.77654">
        <ele>1490.18</ele>
        <time>2012-08-01T17:25:15Z</time>
      </trkpt>
      <trkpt lat="46.4751" lon="11.77652">
        <ele>1490.18</ele>
        <time>2012-08-01T17:25:16Z</time>
      </trkpt>
      <trkpt lat="46.4752" lon="11.7765">
        <ele>1489.22</ele>
        <time>2012-08-01T17:25:17Z</time>
      </trkpt>
      <trkpt lat="46.4753" lon="11.77645">
        <ele>1488.26</ele>
        <time>2012-08-01T17:25:18Z</time>
      </trkpt>
      <trkpt lat="46.47538" lon="11.77638">
        <ele>1487.3</ele>
        <time>2012-08-01T17:25:19Z</time>
      </trkpt>
      <trkpt lat="46.47545" lon="11.77629">
        <ele>1486.34</ele>
        <time>2012-08-01T17:25:20Z</time>
      </trkpt>
      <trkpt lat="46.4755" lon="11.77617">
        <ele>1485.85</ele>
        <time>2012-08-01T17:25:21Z</time>
      </trkpt>
      <trkpt lat="46.47552" lon="11.77605">
        <ele>1484.89</ele>
        <time>2012-08-01T17:25:22Z</time>
      </trkpt>
      <trkpt lat="46.47555" lon="11.77593">
        <ele>1484.41</ele>
        <time>2012-08-01T17:25:23Z</time>
      </trkpt>
      <trkpt lat="46.4756" lon="11.77582">
        <ele>1483.45</ele>
        <time>2012-08-01T17:25:24Z</time>
      </trkpt>
      <trkpt lat="46.47566" lon="11.77574">
        <ele>1483.45</ele>
        <time>2012-08-01T17:25:25Z</time>
      </trkpt>
      <trkpt lat="46.47572" lon="11.77566">
        <ele>1482.97</ele>
        <time>2012-08-01T17:25:26Z</time>
      </trkpt>
      <trkpt lat="46.47605" lon="11.77527">
        <ele>1479.61</ele>
        <time>2012-08-01T17:25:32Z</time>
      </trkpt>
      <trkpt lat="46.47609" lon="11.77521">
        <ele>1479.13</ele>
        <time>2012-08-01T17:25:33Z</time>
      </trkpt>
      <trkpt lat="46.47612" lon="11.77513">
        <ele>1478.16</ele>
        <time>2012-08-01T17:25:34Z</time>
      </trkpt>
      <trkpt lat="46.47611" lon="11.77504">
        <ele>1478.16</ele>
        <time>2012-08-01T17:25:35Z</time>
      </trkpt>
      <trkpt lat="46.47606" lon="11.77499">
        <ele>1478.16</ele>
        <time>2012-08-01T17:25:36Z</time>
      </trkpt>
      <trkpt lat="46.476" lon="11.77497">
        <ele>1478.16</ele>
        <time>2012-08-01T17:25:37Z</time>
      </trkpt>
      <trkpt lat="46.47595" lon="11.77501">
        <ele>1477.68</ele>
        <time>2012-08-01T17:25:38Z</time>
      </trkpt>
      <trkpt lat="46.47591" lon="11.77507">
        <ele>1477.68</ele>
        <time>2012-08-01T17:25:39Z</time>
      </trkpt>
      <trkpt lat="46.47587" lon="11.77514">
        <ele>1477.2</ele>
        <time>2012-08-01T17:25:40Z</time>
      </trkpt>
      <trkpt lat="46.47583" lon="11.77521">
        <ele>1477.2</ele>
        <time>2012-08-01T17:25:41Z</time>
      </trkpt>
      <trkpt lat="46.47578" lon="11.77527">
        <ele>1476.72</ele>
        <time>2012-08-01T17:25:42Z</time>
      </trkpt>
      <trkpt lat="46.47573" lon="11.77532">
        <ele>1476.24</ele>
        <time>2012-08-01T17:25:43Z</time>
      </trkpt>
      <trkpt lat="46.47568" lon="11.77536">
        <ele>1476.24</ele>
        <time>2012-08-01T17:25:44Z</time>
      </trkpt>
      <trkpt lat="46.47562" lon="11.7754">
        <ele>1476.72</ele>
        <time>2012-08-01T17:25:45Z</time>
      </trkpt>
      <trkpt lat="46.47555" lon="11.77543">
        <ele>1476.24</ele>
        <time>2012-08-01T17:25:46Z</time>
      </trkpt>
      <trkpt lat="46.47543" lon="11.77552">
        <ele>1475.28</ele>
        <time>2012-08-01T17:25:48Z</time>
      </trkpt>
      <trkpt lat="46.47537" lon="11.77558">
        <ele>1474.8</ele>
        <time>2012-08-01T17:25:49Z</time>
      </trkpt>
      <trkpt lat="46.47512" lon="11.77582">
        <ele>1473.36</ele>
        <time>2012-08-01T17:25:53Z</time>
      </trkpt>
      <trkpt lat="46.47504" lon="11.77585">
        <ele>1472.88</ele>
        <time>2012-08-01T17:25:54Z</time>
      </trkpt>
      <trkpt lat="46.47497" lon="11.77586">
        <ele>1472.88</ele>
        <time>2012-08-01T17:25:55Z</time>
      </trkpt>
      <trkpt lat="46.4749" lon="11.77588">
        <ele>1472.4</ele>
        <time>2012-08-01T17:25:56Z</time>
      </trkpt>
      <trkpt lat="46.47483" lon="11.77591">
        <ele>1472.4</ele>
        <time>2012-08-01T17:25:57Z</time>
      </trkpt>
      <trkpt lat="46.47475" lon="11.77596">
        <ele>1471.44</ele>
        <time>2012-08-01T17:25:58Z</time>
      </trkpt>
      <trkpt lat="46.47467" lon="11.77603">
        <ele>1471.44</ele>
        <time>2012-08-01T17:25:59Z</time>
      </trkpt>
      <trkpt lat="46.4746" lon="11.77611">
        <ele>1470.95</ele>
        <time>2012-08-01T17:26:00Z</time>
      </trkpt>
      <trkpt lat="46.47453" lon="11.77619">
        <ele>1469.99</ele>
        <time>2012-08-01T17:26:01Z</time>
      </trkpt>
      <trkpt lat="46.47441" lon="11.77637">
        <ele>1468.55</ele>
        <time>2012-08-01T17:26:03Z</time>
      </trkpt>
      <trkpt lat="46.47436" lon="11.77647">
        <ele>1468.55</ele>
        <time>2012-08-01T17:26:04Z</time>
      </trkpt>
      <trkpt lat="46.4742" lon="11.77676">
        <ele>1466.63</ele>
        <time>2012-08-01T17:26:07Z</time>
      </trkpt>
      <trkpt lat="46.47413" lon="11.77682">
        <ele>1465.67</ele>
        <time>2012-08-01T17:26:08Z</time>
      </trkpt>
      <trkpt lat="46.47404" lon="11.77687">
        <ele>1465.67</ele>
        <time>2012-08-01T17:26:09Z</time>
      </trkpt>
      <trkpt lat="46.47356" lon="11.77705">
        <ele>1462.3</ele>
        <time>2012-08-01T17:26:14Z</time>
      </trkpt>
      <trkpt lat="46.47345" lon="11.77707">
        <ele>1462.3</ele>
        <time>2012-08-01T17:26:15Z</time>
      </trkpt>
      <trkpt lat="46.47279" lon="11.7771">
        <ele>1460.38</ele>
        <time>2012-08-01T17:26:23Z</time>
      </trkpt>
      <trkpt lat="46.47273" lon="11.77706">
        <ele>1460.38</ele>
        <time>2012-08-01T17:26:24Z</time>
      </trkpt>
      <trkpt lat="46.47268" lon="11.777">
        <ele>1459.9</ele>
        <time>2012-08-01T17:26:25Z</time>
      </trkpt>
      <trkpt lat="46.47265" lon="11.77693">
        <ele>1460.38</ele>
        <time>2012-08-01T17:26:26Z</time>
      </trkpt>
      <trkpt lat="46.47265" lon="11.77683">
        <ele>1459.9</ele>
        <time>2012-08-01T17:26:27Z</time>
      </trkpt>
      <trkpt lat="46.47268" lon="11.77673">
        <ele>1460.38</ele>
        <time>2012-08-01T17:26:28Z</time>
      </trkpt>
      <trkpt lat="46.47272" lon="11.77663">
        <ele>1460.38</ele>
        <time>2012-08-01T17:26:29Z</time>
      </trkpt>
      <trkpt lat="46.47278" lon="11.77654">
        <ele>1459.9</ele>
        <time>2012-08-01T17:26:30Z</time>
      </trkpt>
      <trkpt lat="46.47284" lon="11.77644">
        <ele>1460.86</ele>
        <time>2012-08-01T17:26:31Z</time>
      </trkpt>
      <trkpt lat="46.47363" lon="11.77522">
        <ele>1458.94</ele>
        <time>2012-08-01T17:26:42Z</time>
      </trkpt>
      <trkpt lat="46.4745" lon="11.77389">
        <ele>1459.9</ele>
        <time>2012-08-01T17:26:55Z</time>
      </trkpt>
      <trkpt lat="46.47541" lon="11.77243">
        <ele>1461.82</ele>
        <time>2012-08-01T17:27:08Z</time>
      </trkpt>
      <trkpt lat="46.47611" lon="11.77126">
        <ele>1463.26</ele>
        <time>2012-08-01T17:27:20Z</time>
      </trkpt>
      <trkpt lat="46.47645" lon="11.77076">
        <ele>1462.3</ele>
        <time>2012-08-01T17:27:25Z</time>
      </trkpt>
      <trkpt lat="46.47653" lon="11.77068">
        <ele>1461.82</ele>
        <time>2012-08-01T17:27:26Z</time>
      </trkpt>
      <trkpt lat="46.4766" lon="11.77062">
        <ele>1460.38</ele>
        <time>2012-08-01T17:27:27Z</time>
      </trkpt>
      <trkpt lat="46.47667" lon="11.77057">
        <ele>1458.46</ele>
        <time>2012-08-01T17:27:29Z</time>
      </trkpt>
      <trkpt lat="46.47681" lon="11.77047">
        <ele>1458.46</ele>
        <time>2012-08-01T17:27:36Z</time>
      </trkpt>
      <trkpt lat="46.47711" lon="11.77023">
        <ele>1458.94</ele>
        <time>2012-08-01T17:27:42Z</time>
      </trkpt>
      <trkpt lat="46.47714" lon="11.77017">
        <ele>1458.94</ele>
        <time>2012-08-01T17:27:43Z</time>
      </trkpt>
      <trkpt lat="46.47717" lon="11.7701">
        <ele>1458.94</ele>
        <time>2012-08-01T17:27:44Z</time>
      </trkpt>
      <trkpt lat="46.4772" lon="11.77001">
        <ele>1458.94</ele>
        <time>2012-08-01T17:27:45Z</time>
      </trkpt>
      <trkpt lat="46.47723" lon="11.76992">
        <ele>1458.94</ele>
        <time>2012-08-01T17:27:46Z</time>
      </trkpt>
      <trkpt lat="46.47756" lon="11.76876">
        <ele>1457.02</ele>
        <time>2012-08-01T17:27:55Z</time>
      </trkpt>
      <trkpt lat="46.47757" lon="11.76862">
        <ele>1457.02</ele>
        <time>2012-08-01T17:27:56Z</time>
      </trkpt>
      <trkpt lat="46.47756" lon="11.76849">
        <ele>1456.05</ele>
        <time>2012-08-01T17:27:57Z</time>
      </trkpt>
      <trkpt lat="46.47754" lon="11.76837">
        <ele>1455.57</ele>
        <time>2012-08-01T17:27:58Z</time>
      </trkpt>
      <trkpt lat="46.4775" lon="11.76825">
        <ele>1455.57</ele>
        <time>2012-08-01T17:27:59Z</time>
      </trkpt>
      <trkpt lat="46.47747" lon="11.76813">
        <ele>1455.57</ele>
        <time>2012-08-01T17:28:00Z</time>
      </trkpt>
      <trkpt lat="46.47733" lon="11.76694">
        <ele>1454.61</ele>
        <time>2012-08-01T17:28:10Z</time>
      </trkpt>
      <trkpt lat="46.47729" lon="11.76605">
        <ele>1454.13</ele>
        <time>2012-08-01T17:28:18Z</time>
      </trkpt>
      <trkpt lat="46.4773" lon="11.76593">
        <ele>1453.65</ele>
        <time>2012-08-01T17:28:19Z</time>
      </trkpt>
      <trkpt lat="46.47734" lon="11.76581">
        <ele>1454.61</ele>
        <time>2012-08-01T17:28:20Z</time>
      </trkpt>
      <trkpt lat="46.47738" lon="11.7657">
        <ele>1454.61</ele>
        <time>2012-08-01T17:28:21Z</time>
      </trkpt>
      <trkpt lat="46.47744" lon="11.7656">
        <ele>1454.61</ele>
        <time>2012-08-01T17:28:22Z</time>
      </trkpt>
      <trkpt lat="46.4775" lon="11.76549">
        <ele>1455.09</ele>
        <time>2012-08-01T17:28:23Z</time>
      </trkpt>
      <trkpt lat="46.4777" lon="11.76504">
        <ele>1455.57</ele>
        <time>2012-08-01T17:28:27Z</time>
      </trkpt>
      <trkpt lat="46.47772" lon="11.76491">
        <ele>1455.09</ele>
        <time>2012-08-01T17:28:28Z</time>
      </trkpt>
      <trkpt lat="46.47812" lon="11.7636">
        <ele>1456.05</ele>
        <time>2012-08-01T17:28:39Z</time>
      </trkpt>
      <trkpt lat="46.47832" lon="11.76327">
        <ele>1457.02</ele>
        <time>2012-08-01T17:28:42Z</time>
      </trkpt>
      <trkpt lat="46.47846" lon="11.76306">
        <ele>1457.02</ele>
        <time>2012-08-01T17:28:44Z</time>
      </trkpt>
      <trkpt lat="46.47852" lon="11.76294">
        <ele>1457.02</ele>
        <time>2012-08-01T17:28:45Z</time>
      </trkpt>
      <trkpt lat="46.4787" lon="11.76263">
        <ele>1456.05</ele>
        <time>2012-08-01T17:28:48Z</time>
      </trkpt>
      <trkpt lat="46.47877" lon="11.76254">
        <ele>1456.05</ele>
        <time>2012-08-01T17:28:49Z</time>
      </trkpt>
      <trkpt lat="46.47885" lon="11.76246">
        <ele>1456.05</ele>
        <time>2012-08-01T17:28:50Z</time>
      </trkpt>
      <trkpt lat="46.47928" lon="11.76201">
        <ele>1454.13</ele>
        <time>2012-08-01T17:28:55Z</time>
      </trkpt>
      <trkpt lat="46.47935" lon="11.76188">
        <ele>1454.13</ele>
        <time>2012-08-01T17:28:56Z</time>
      </trkpt>
      <trkpt lat="46.47941" lon="11.76174">
        <ele>1453.65</ele>
        <time>2012-08-01T17:28:57Z</time>
      </trkpt>
      <trkpt lat="46.47944" lon="11.76158">
        <ele>1453.65</ele>
        <time>2012-08-01T17:28:58Z</time>
      </trkpt>
      <trkpt lat="46.47946" lon="11.76143">
        <ele>1452.69</ele>
        <time>2012-08-01T17:28:59Z</time>
      </trkpt>
      <trkpt lat="46.47948" lon="11.76128">
        <ele>1452.21</ele>
        <time>2012-08-01T17:29:00Z</time>
      </trkpt>
      <trkpt lat="46.47949" lon="11.76113">
        <ele>1451.73</ele>
        <time>2012-08-01T17:29:01Z</time>
      </trkpt>
      <trkpt lat="46.47954" lon="11.76056">
        <ele>1450.29</ele>
        <time>2012-08-01T17:29:05Z</time>
      </trkpt>
      <trkpt lat="46.47954" lon="11.76039">
        <ele>1450.29</ele>
        <time>2012-08-01T17:29:06Z</time>
      </trkpt>
      <trkpt lat="46.47952" lon="11.76022">
        <ele>1450.29</ele>
        <time>2012-08-01T17:29:07Z</time>
      </trkpt>
      <trkpt lat="46.47948" lon="11.76005">
        <ele>1450.29</ele>
        <time>2012-08-01T17:29:08Z</time>
      </trkpt>
      <trkpt lat="46.47943" lon="11.75988">
        <ele>1449.32</ele>
        <time>2012-08-01T17:29:09Z</time>
      </trkpt>
      <trkpt lat="46.47915" lon="11.75886">
        <ele>1445.96</ele>
        <time>2012-08-01T17:29:15Z</time>
      </trkpt>
      <trkpt lat="46.47896" lon="11.75818">
        <ele>1444.52</ele>
        <time>2012-08-01T17:29:19Z</time>
      </trkpt>
      <trkpt lat="46.47893" lon="11.758">
        <ele>1444.04</ele>
        <time>2012-08-01T17:29:20Z</time>
      </trkpt>
      <trkpt lat="46.47891" lon="11.75782">
        <ele>1443.08</ele>
        <time>2012-08-01T17:29:21Z</time>
      </trkpt>
      <trkpt lat="46.47891" lon="11.75764">
        <ele>1443.56</ele>
        <time>2012-08-01T17:29:22Z</time>
      </trkpt>
      <trkpt lat="46.47894" lon="11.75746">
        <ele>1443.08</ele>
        <time>2012-08-01T17:29:23Z</time>
      </trkpt>
      <trkpt lat="46.47897" lon="11.75727">
        <ele>1443.08</ele>
        <time>2012-08-01T17:29:24Z</time>
      </trkpt>
      <trkpt lat="46.47902" lon="11.75709">
        <ele>1442.11</ele>
        <time>2012-08-01T17:29:25Z</time>
      </trkpt>
      <trkpt lat="46.47911" lon="11.75673">
        <ele>1441.63</ele>
        <time>2012-08-01T17:29:27Z</time>
      </trkpt>
      <trkpt lat="46.47914" lon="11.75655">
        <ele>1441.15</ele>
        <time>2012-08-01T17:29:28Z</time>
      </trkpt>
      <trkpt lat="46.47914" lon="11.75638">
        <ele>1440.67</ele>
        <time>2012-08-01T17:29:29Z</time>
      </trkpt>
      <trkpt lat="46.47913" lon="11.7562">
        <ele>1440.19</ele>
        <time>2012-08-01T17:29:30Z</time>
      </trkpt>
      <trkpt lat="46.47911" lon="11.75604">
        <ele>1439.71</ele>
        <time>2012-08-01T17:29:31Z</time>
      </trkpt>
      <trkpt lat="46.47908" lon="11.7559">
        <ele>1439.71</ele>
        <time>2012-08-01T17:29:32Z</time>
      </trkpt>
      <trkpt lat="46.47904" lon="11.75579">
        <ele>1438.27</ele>
        <time>2012-08-01T17:29:33Z</time>
      </trkpt>
      <trkpt lat="46.47893" lon="11.75542">
        <ele>1437.31</ele>
        <time>2012-08-01T17:29:37Z</time>
      </trkpt>
      <trkpt lat="46.47886" lon="11.75483">
        <ele>1436.35</ele>
        <time>2012-08-01T17:29:43Z</time>
      </trkpt>
      <trkpt lat="46.47886" lon="11.75473">
        <ele>1436.35</ele>
        <time>2012-08-01T17:29:44Z</time>
      </trkpt>
      <trkpt lat="46.47888" lon="11.75463">
        <ele>1436.35</ele>
        <time>2012-08-01T17:29:45Z</time>
      </trkpt>
      <trkpt lat="46.47891" lon="11.75452">
        <ele>1436.35</ele>
        <time>2012-08-01T17:29:46Z</time>
      </trkpt>
      <trkpt lat="46.47894" lon="11.75441">
        <ele>1436.83</ele>
        <time>2012-08-01T17:29:47Z</time>
      </trkpt>
      <trkpt lat="46.47898" lon="11.75428">
        <ele>1436.83</ele>
        <time>2012-08-01T17:29:48Z</time>
      </trkpt>
      <trkpt lat="46.47904" lon="11.75414">
        <ele>1437.31</ele>
        <time>2012-08-01T17:29:49Z</time>
      </trkpt>
      <trkpt lat="46.47926" lon="11.75354">
        <ele>1436.83</ele>
        <time>2012-08-01T17:29:53Z</time>
      </trkpt>
      <trkpt lat="46.47929" lon="11.75337">
        <ele>1435.87</ele>
        <time>2012-08-01T17:29:54Z</time>
      </trkpt>
      <trkpt lat="46.47931" lon="11.75318">
        <ele>1435.87</ele>
        <time>2012-08-01T17:29:55Z</time>
      </trkpt>
      <trkpt lat="46.4793" lon="11.753">
        <ele>1435.39</ele>
        <time>2012-08-01T17:29:56Z</time>
      </trkpt>
      <trkpt lat="46.47929" lon="11.75283">
        <ele>1434.91</ele>
        <time>2012-08-01T17:29:57Z</time>
      </trkpt>
      <trkpt lat="46.4792" lon="11.75206">
        <ele>1432.98</ele>
        <time>2012-08-01T17:30:02Z</time>
      </trkpt>
      <trkpt lat="46.47916" lon="11.75191">
        <ele>1433.46</ele>
        <time>2012-08-01T17:30:03Z</time>
      </trkpt>
      <trkpt lat="46.47912" lon="11.75176">
        <ele>1432.98</ele>
        <time>2012-08-01T17:30:04Z</time>
      </trkpt>
      <trkpt lat="46.47898" lon="11.75135">
        <ele>1430.58</ele>
        <time>2012-08-01T17:30:08Z</time>
      </trkpt>
      <trkpt lat="46.47897" lon="11.75129">
        <ele>1430.1</ele>
        <time>2012-08-01T17:30:09Z</time>
      </trkpt>
      <trkpt lat="46.47896" lon="11.75125">
        <ele>1430.1</ele>
        <time>2012-08-01T17:30:10Z</time>
      </trkpt>
      <trkpt lat="46.47895" lon="11.75121">
        <ele>1430.1</ele>
        <time>2012-08-01T17:30:11Z</time>
      </trkpt>
      <trkpt lat="46.47894" lon="11.75121">
        <ele>1429.62</ele>
        <time>2012-08-01T17:30:22Z</time>
      </trkpt>
      <trkpt lat="46.47893" lon="11.75121">
        <ele>1429.62</ele>
        <time>2012-08-01T17:30:57Z</time>
      </trkpt>
      <trkpt lat="46.47894" lon="11.75123">
        <ele>1429.62</ele>
        <time>2012-08-01T17:31:35Z</time>
      </trkpt>
      <trkpt lat="46.47892" lon="11.75124">
        <ele>1429.62</ele>
        <time>2012-08-01T17:32:17Z</time>
      </trkpt>
      <trkpt lat="46.47892" lon="11.75122">
        <ele>1429.62</ele>
        <time>2012-08-01T17:32:58Z</time>
      </trkpt>
      <trkpt lat="46.47892" lon="11.75122">
        <ele>1430.58</ele>
        <time>2012-08-01T17:33:31Z</time>
      </trkpt>
      <trkpt lat="46.47897" lon="11.75115">
        <ele>1432.02</ele>
        <time>2012-08-01T17:35:09Z</time>
      </trkpt>
      <trkpt lat="46.47897" lon="11.75115">
        <ele>1432.5</ele>
        <time>2012-08-01T17:35:10Z</time>
      </trkpt>
      <trkpt lat="46.47894" lon="11.75119">
        <ele>1429.62</ele>
        <time>2012-08-01T17:35:28Z</time>
      </trkpt>
      <trkpt lat="46.47893" lon="11.7512">
        <ele>1428.18</ele>
        <time>2012-08-01T17:35:32Z</time>
      </trkpt>
      <trkpt lat="46.47889" lon="11.75112">
        <ele>1428.66</ele>
        <time>2012-08-01T17:35:35Z</time>
      </trkpt>
      <trkpt lat="46.47886" lon="11.75106">
        <ele>1428.18</ele>
        <time>2012-08-01T17:35:36Z</time>
      </trkpt>
      <trkpt lat="46.47883" lon="11.75099">
        <ele>1428.18</ele>
        <time>2012-08-01T17:35:37Z</time>
      </trkpt>
      <trkpt lat="46.47879" lon="11.7509">
        <ele>1428.18</ele>
        <time>2012-08-01T17:35:38Z</time>
      </trkpt>
      <trkpt lat="46.47875" lon="11.7508">
        <ele>1428.18</ele>
        <time>2012-08-01T17:35:39Z</time>
      </trkpt>
      <trkpt lat="46.47872" lon="11.75068">
        <ele>1428.66</ele>
        <time>2012-08-01T17:35:40Z</time>
      </trkpt>
      <trkpt lat="46.47842" lon="11.74969">
        <ele>1426.73</ele>
        <time>2012-08-01T17:35:48Z</time>
      </trkpt>
      <trkpt lat="46.47809" lon="11.74877">
        <ele>1424.33</ele>
        <time>2012-08-01T17:35:58Z</time>
      </trkpt>
      <trkpt lat="46.4776" lon="11.74785">
        <ele>1425.29</ele>
        <time>2012-08-01T17:36:08Z</time>
      </trkpt>
      <trkpt lat="46.4774" lon="11.74723">
        <ele>1424.81</ele>
        <time>2012-08-01T17:36:12Z</time>
      </trkpt>
      <trkpt lat="46.47736" lon="11.74706">
        <ele>1425.29</ele>
        <time>2012-08-01T17:36:13Z</time>
      </trkpt>
      <trkpt lat="46.47695" lon="11.7455">
        <ele>1428.66</ele>
        <time>2012-08-01T17:36:22Z</time>
      </trkpt>
      <trkpt lat="46.47685" lon="11.74517">
        <ele>1429.62</ele>
        <time>2012-08-01T17:36:24Z</time>
      </trkpt>
      <trkpt lat="46.4768" lon="11.74501">
        <ele>1430.1</ele>
        <time>2012-08-01T17:36:25Z</time>
      </trkpt>
      <trkpt lat="46.47677" lon="11.74484">
        <ele>1430.1</ele>
        <time>2012-08-01T17:36:26Z</time>
      </trkpt>
      <trkpt lat="46.47676" lon="11.74466">
        <ele>1430.58</ele>
        <time>2012-08-01T17:36:27Z</time>
      </trkpt>
      <trkpt lat="46.47676" lon="11.74449">
        <ele>1430.58</ele>
        <time>2012-08-01T17:36:28Z</time>
      </trkpt>
      <trkpt lat="46.47678" lon="11.74433">
        <ele>1431.06</ele>
        <time>2012-08-01T17:36:29Z</time>
      </trkpt>
      <trkpt lat="46.4768" lon="11.74416">
        <ele>1431.06</ele>
        <time>2012-08-01T17:36:30Z</time>
      </trkpt>
      <trkpt lat="46.47684" lon="11.74384">
        <ele>1431.06</ele>
        <time>2012-08-01T17:36:32Z</time>
      </trkpt>
      <trkpt lat="46.47684" lon="11.74367">
        <ele>1431.54</ele>
        <time>2012-08-01T17:36:33Z</time>
      </trkpt>
      <trkpt lat="46.47682" lon="11.7435">
        <ele>1432.5</ele>
        <time>2012-08-01T17:36:34Z</time>
      </trkpt>
      <trkpt lat="46.4768" lon="11.74333">
        <ele>1432.5</ele>
        <time>2012-08-01T17:36:35Z</time>
      </trkpt>
      <trkpt lat="46.47677" lon="11.74315">
        <ele>1432.5</ele>
        <time>2012-08-01T17:36:36Z</time>
      </trkpt>
      <trkpt lat="46.47648" lon="11.74171">
        <ele>1434.42</ele>
        <time>2012-08-01T17:36:46Z</time>
      </trkpt>
      <trkpt lat="46.47623" lon="11.74056">
        <ele>1434.91</ele>
        <time>2012-08-01T17:36:54Z</time>
      </trkpt>
      <trkpt lat="46.47618" lon="11.74043">
        <ele>1434.42</ele>
        <time>2012-08-01T17:36:55Z</time>
      </trkpt>
      <trkpt lat="46.47611" lon="11.7403">
        <ele>1434.42</ele>
        <time>2012-08-01T17:36:56Z</time>
      </trkpt>
      <trkpt lat="46.47603" lon="11.74018">
        <ele>1433.94</ele>
        <time>2012-08-01T17:36:57Z</time>
      </trkpt>
      <trkpt lat="46.47594" lon="11.74008">
        <ele>1433.94</ele>
        <time>2012-08-01T17:36:58Z</time>
      </trkpt>
      <trkpt lat="46.47585" lon="11.73998">
        <ele>1433.46</ele>
        <time>2012-08-01T17:36:59Z</time>
      </trkpt>
      <trkpt lat="46.47526" lon="11.73939">
        <ele>1430.1</ele>
        <time>2012-08-01T17:37:05Z</time>
      </trkpt>
      <trkpt lat="46.47516" lon="11.73929">
        <ele>1430.1</ele>
        <time>2012-08-01T17:37:06Z</time>
      </trkpt>
      <trkpt lat="46.47467" lon="11.73876">
        <ele>1426.73</ele>
        <time>2012-08-01T17:37:11Z</time>
      </trkpt>
      <trkpt lat="46.47449" lon="11.7385">
        <ele>1425.77</ele>
        <time>2012-08-01T17:37:13Z</time>
      </trkpt>
      <trkpt lat="46.47402" lon="11.73772">
        <ele>1422.41</ele>
        <time>2012-08-01T17:37:19Z</time>
      </trkpt>
      <trkpt lat="46.47352" lon="11.73678">
        <ele>1419.52</ele>
        <time>2012-08-01T17:37:26Z</time>
      </trkpt>
      <trkpt lat="46.47347" lon="11.73662">
        <ele>1419.52</ele>
        <time>2012-08-01T17:37:27Z</time>
      </trkpt>
      <trkpt lat="46.47344" lon="11.73646">
        <ele>1418.56</ele>
        <time>2012-08-01T17:37:28Z</time>
      </trkpt>
      <trkpt lat="46.47343" lon="11.73628">
        <ele>1418.56</ele>
        <time>2012-08-01T17:37:29Z</time>
      </trkpt>
      <trkpt lat="46.47343" lon="11.73611">
        <ele>1418.56</ele>
        <time>2012-08-01T17:37:30Z</time>
      </trkpt>
      <trkpt lat="46.47344" lon="11.73593">
        <ele>1418.08</ele>
        <time>2012-08-01T17:37:31Z</time>
      </trkpt>
      <trkpt lat="46.47346" lon="11.73574">
        <ele>1418.08</ele>
        <time>2012-08-01T17:37:32Z</time>
      </trkpt>
      <trkpt lat="46.47349" lon="11.73498">
        <ele>1417.12</ele>
        <time>2012-08-01T17:37:36Z</time>
      </trkpt>
      <trkpt lat="46.47347" lon="11.7348">
        <ele>1416.64</ele>
        <time>2012-08-01T17:37:37Z</time>
      </trkpt>
      <trkpt lat="46.47344" lon="11.73463">
        <ele>1415.68</ele>
        <time>2012-08-01T17:37:38Z</time>
      </trkpt>
      <trkpt lat="46.4734" lon="11.73446">
        <ele>1415.68</ele>
        <time>2012-08-01T17:37:39Z</time>
      </trkpt>
      <trkpt lat="46.47312" lon="11.73338">
        <ele>1413.76</ele>
        <time>2012-08-01T17:37:45Z</time>
      </trkpt>
      <trkpt lat="46.47265" lon="11.73161">
        <ele>1410.39</ele>
        <time>2012-08-01T17:37:54Z</time>
      </trkpt>
      <trkpt lat="46.47258" lon="11.73144">
        <ele>1410.39</ele>
        <time>2012-08-01T17:37:55Z</time>
      </trkpt>
      <trkpt lat="46.47249" lon="11.73129">
        <ele>1409.91</ele>
        <time>2012-08-01T17:37:56Z</time>
      </trkpt>
      <trkpt lat="46.4724" lon="11.73114">
        <ele>1409.91</ele>
        <time>2012-08-01T17:37:57Z</time>
      </trkpt>
      <trkpt lat="46.47228" lon="11.73102">
        <ele>1409.91</ele>
        <time>2012-08-01T17:37:58Z</time>
      </trkpt>
      <trkpt lat="46.47215" lon="11.7309">
        <ele>1410.87</ele>
        <time>2012-08-01T17:37:59Z</time>
      </trkpt>
      <trkpt lat="46.47201" lon="11.73079">
        <ele>1411.35</ele>
        <time>2012-08-01T17:38:00Z</time>
      </trkpt>
      <trkpt lat="46.47186" lon="11.73069">
        <ele>1411.35</ele>
        <time>2012-08-01T17:38:01Z</time>
      </trkpt>
      <trkpt lat="46.47069" lon="11.72973">
        <ele>1409.91</ele>
        <time>2012-08-01T17:38:10Z</time>
      </trkpt>
      <trkpt lat="46.47025" lon="11.72919">
        <ele>1407.99</ele>
        <time>2012-08-01T17:38:14Z</time>
      </trkpt>
      <trkpt lat="46.47016" lon="11.72905">
        <ele>1407.99</ele>
        <time>2012-08-01T17:38:15Z</time>
      </trkpt>
      <trkpt lat="46.47008" lon="11.72891">
        <ele>1407.51</ele>
        <time>2012-08-01T17:38:16Z</time>
      </trkpt>
      <trkpt lat="46.47" lon="11.72873">
        <ele>1407.03</ele>
        <time>2012-08-01T17:38:17Z</time>
      </trkpt>
      <trkpt lat="46.46994" lon="11.72855">
        <ele>1406.07</ele>
        <time>2012-08-01T17:38:18Z</time>
      </trkpt>
      <trkpt lat="46.46989" lon="11.72835">
        <ele>1405.58</ele>
        <time>2012-08-01T17:38:19Z</time>
      </trkpt>
      <trkpt lat="46.46984" lon="11.72815">
        <ele>1405.1</ele>
        <time>2012-08-01T17:38:20Z</time>
      </trkpt>
      <trkpt lat="46.46958" lon="11.72712">
        <ele>1401.74</ele>
        <time>2012-08-01T17:38:25Z</time>
      </trkpt>
      <trkpt lat="46.4694" lon="11.72636">
        <ele>1397.89</ele>
        <time>2012-08-01T17:38:29Z</time>
      </trkpt>
      <trkpt lat="46.46935" lon="11.72619">
        <ele>1397.89</ele>
        <time>2012-08-01T17:38:30Z</time>
      </trkpt>
      <trkpt lat="46.46929" lon="11.72603">
        <ele>1397.41</ele>
        <time>2012-08-01T17:38:31Z</time>
      </trkpt>
      <trkpt lat="46.46921" lon="11.72589">
        <ele>1396.93</ele>
        <time>2012-08-01T17:38:32Z</time>
      </trkpt>
      <trkpt lat="46.46913" lon="11.72576">
        <ele>1396.45</ele>
        <time>2012-08-01T17:38:33Z</time>
      </trkpt>
      <trkpt lat="46.46867" lon="11.72519">
        <ele>1395.97</ele>
        <time>2012-08-01T17:38:38Z</time>
      </trkpt>
      <trkpt lat="46.4686" lon="11.72506">
        <ele>1395.97</ele>
        <time>2012-08-01T17:38:39Z</time>
      </trkpt>
      <trkpt lat="46.46853" lon="11.72492">
        <ele>1395.49</ele>
        <time>2012-08-01T17:38:40Z</time>
      </trkpt>
      <trkpt lat="46.46848" lon="11.72478">
        <ele>1394.53</ele>
        <time>2012-08-01T17:38:41Z</time>
      </trkpt>
      <trkpt lat="46.46844" lon="11.72463">
        <ele>1394.53</ele>
        <time>2012-08-01T17:38:42Z</time>
      </trkpt>
      <trkpt lat="46.4684" lon="11.72446">
        <ele>1394.53</ele>
        <time>2012-08-01T17:38:43Z</time>
      </trkpt>
      <trkpt lat="46.46811" lon="11.72323">
        <ele>1393.57</ele>
        <time>2012-08-01T17:38:50Z</time>
      </trkpt>
      <trkpt lat="46.46805" lon="11.72307">
        <ele>1393.09</ele>
        <time>2012-08-01T17:38:51Z</time>
      </trkpt>
      <trkpt lat="46.46798" lon="11.72291">
        <ele>1393.09</ele>
        <time>2012-08-01T17:38:52Z</time>
      </trkpt>
      <trkpt lat="46.4679" lon="11.72277">
        <ele>1392.61</ele>
        <time>2012-08-01T17:38:53Z</time>
      </trkpt>
      <trkpt lat="46.4678" lon="11.72264">
        <ele>1393.57</ele>
        <time>2012-08-01T17:38:54Z</time>
      </trkpt>
      <trkpt lat="46.46769" lon="11.72252">
        <ele>1393.57</ele>
        <time>2012-08-01T17:38:55Z</time>
      </trkpt>
      <trkpt lat="46.46643" lon="11.72079">
        <ele>1390.68</ele>
        <time>2012-08-01T17:39:07Z</time>
      </trkpt>
      <trkpt lat="46.46583" lon="11.71963">
        <ele>1388.28</ele>
        <time>2012-08-01T17:39:15Z</time>
      </trkpt>
      <trkpt lat="46.46522" lon="11.71738">
        <ele>1386.36</ele>
        <time>2012-08-01T17:39:29Z</time>
      </trkpt>
      <trkpt lat="46.46517" lon="11.71726">
        <ele>1385.88</ele>
        <time>2012-08-01T17:39:30Z</time>
      </trkpt>
      <trkpt lat="46.46512" lon="11.71715">
        <ele>1385.88</ele>
        <time>2012-08-01T17:39:31Z</time>
      </trkpt>
      <trkpt lat="46.46505" lon="11.71705">
        <ele>1385.88</ele>
        <time>2012-08-01T17:39:32Z</time>
      </trkpt>
      <trkpt lat="46.46498" lon="11.71697">
        <ele>1385.88</ele>
        <time>2012-08-01T17:39:33Z</time>
      </trkpt>
      <trkpt lat="46.4649" lon="11.71689">
        <ele>1385.88</ele>
        <time>2012-08-01T17:39:34Z</time>
      </trkpt>
      <trkpt lat="46.46481" lon="11.71681">
        <ele>1385.88</ele>
        <time>2012-08-01T17:39:35Z</time>
      </trkpt>
      <trkpt lat="46.46472" lon="11.71674">
        <ele>1385.4</ele>
        <time>2012-08-01T17:39:36Z</time>
      </trkpt>
      <trkpt lat="46.46327" lon="11.71564">
        <ele>1385.4</ele>
        <time>2012-08-01T17:39:51Z</time>
      </trkpt>
      <trkpt lat="46.46318" lon="11.71552">
        <ele>1385.88</ele>
        <time>2012-08-01T17:39:52Z</time>
      </trkpt>
      <trkpt lat="46.46265" lon="11.71464">
        <ele>1386.84</ele>
        <time>2012-08-01T17:39:59Z</time>
      </trkpt>
      <trkpt lat="46.46214" lon="11.71331">
        <ele>1388.28</ele>
        <time>2012-08-01T17:40:08Z</time>
      </trkpt>
      <trkpt lat="46.46157" lon="11.71164">
        <ele>1385.4</ele>
        <time>2012-08-01T17:40:18Z</time>
      </trkpt>
      <trkpt lat="46.46117" lon="11.71048">
        <ele>1382.03</ele>
        <time>2012-08-01T17:40:25Z</time>
      </trkpt>
      <trkpt lat="46.46105" lon="11.71013">
        <ele>1381.07</ele>
        <time>2012-08-01T17:40:27Z</time>
      </trkpt>
      <trkpt lat="46.4602" lon="11.70798">
        <ele>1382.03</ele>
        <time>2012-08-01T17:40:39Z</time>
      </trkpt>
      <trkpt lat="46.45981" lon="11.70683">
        <ele>1385.4</ele>
        <time>2012-08-01T17:40:45Z</time>
      </trkpt>
      <trkpt lat="46.45975" lon="11.70663">
        <ele>1385.4</ele>
        <time>2012-08-01T17:40:46Z</time>
      </trkpt>
      <trkpt lat="46.45962" lon="11.70602">
        <ele>1386.84</ele>
        <time>2012-08-01T17:40:49Z</time>
      </trkpt>
      <trkpt lat="46.4596" lon="11.70581">
        <ele>1387.32</ele>
        <time>2012-08-01T17:40:50Z</time>
      </trkpt>
      <trkpt lat="46.45947" lon="11.70346">
        <ele>1384.44</ele>
        <time>2012-08-01T17:41:02Z</time>
      </trkpt>
      <trkpt lat="46.45927" lon="11.70263">
        <ele>1383.47</ele>
        <time>2012-08-01T17:41:07Z</time>
      </trkpt>
      <trkpt lat="46.4592" lon="11.70249">
        <ele>1382.99</ele>
        <time>2012-08-01T17:41:08Z</time>
      </trkpt>
      <trkpt lat="46.45913" lon="11.70235">
        <ele>1382.51</ele>
        <time>2012-08-01T17:41:09Z</time>
      </trkpt>
      <trkpt lat="46.45862" lon="11.70163">
        <ele>1382.99</ele>
        <time>2012-08-01T17:41:15Z</time>
      </trkpt>
      <trkpt lat="46.45853" lon="11.70156">
        <ele>1382.99</ele>
        <time>2012-08-01T17:41:16Z</time>
      </trkpt>
      <trkpt lat="46.45844" lon="11.70149">
        <ele>1382.51</ele>
        <time>2012-08-01T17:41:17Z</time>
      </trkpt>
      <trkpt lat="46.45753" lon="11.7012">
        <ele>1381.55</ele>
        <time>2012-08-01T17:41:27Z</time>
      </trkpt>
      <trkpt lat="46.45724" lon="11.70111">
        <ele>1380.59</ele>
        <time>2012-08-01T17:41:30Z</time>
      </trkpt>
      <trkpt lat="46.45715" lon="11.70105">
        <ele>1380.11</ele>
        <time>2012-08-01T17:41:31Z</time>
      </trkpt>
      <trkpt lat="46.45707" lon="11.70096">
        <ele>1380.11</ele>
        <time>2012-08-01T17:41:32Z</time>
      </trkpt>
      <trkpt lat="46.457" lon="11.70086">
        <ele>1380.11</ele>
        <time>2012-08-01T17:41:33Z</time>
      </trkpt>
      <trkpt lat="46.45694" lon="11.70074">
        <ele>1380.11</ele>
        <time>2012-08-01T17:41:34Z</time>
      </trkpt>
      <trkpt lat="46.45688" lon="11.70061">
        <ele>1380.11</ele>
        <time>2012-08-01T17:41:35Z</time>
      </trkpt>
      <trkpt lat="46.45662" lon="11.7001">
        <ele>1379.63</ele>
        <time>2012-08-01T17:41:39Z</time>
      </trkpt>
      <trkpt lat="46.45654" lon="11.69999">
        <ele>1379.15</ele>
        <time>2012-08-01T17:41:40Z</time>
      </trkpt>
      <trkpt lat="46.45645" lon="11.6999">
        <ele>1379.63</ele>
        <time>2012-08-01T17:41:41Z</time>
      </trkpt>
      <trkpt lat="46.45635" lon="11.69982">
        <ele>1379.15</ele>
        <time>2012-08-01T17:41:42Z</time>
      </trkpt>
      <trkpt lat="46.45624" lon="11.69975">
        <ele>1377.71</ele>
        <time>2012-08-01T17:41:43Z</time>
      </trkpt>
      <trkpt lat="46.45612" lon="11.69968">
        <ele>1378.19</ele>
        <time>2012-08-01T17:41:44Z</time>
      </trkpt>
      <trkpt lat="46.456" lon="11.69964">
        <ele>1377.71</ele>
        <time>2012-08-01T17:41:45Z</time>
      </trkpt>
      <trkpt lat="46.45589" lon="11.6996">
        <ele>1376.75</ele>
        <time>2012-08-01T17:41:46Z</time>
      </trkpt>
      <trkpt lat="46.4554" lon="11.69949">
        <ele>1372.9</ele>
        <time>2012-08-01T17:41:50Z</time>
      </trkpt>
      <trkpt lat="46.4549" lon="11.69938">
        <ele>1370.02</ele>
        <time>2012-08-01T17:41:54Z</time>
      </trkpt>
      <trkpt lat="46.45453" lon="11.69931">
        <ele>1367.61</ele>
        <time>2012-08-01T17:41:57Z</time>
      </trkpt>
      <trkpt lat="46.45388" lon="11.69918">
        <ele>1363.77</ele>
        <time>2012-08-01T17:42:02Z</time>
      </trkpt>
      <trkpt lat="46.45374" lon="11.69914">
        <ele>1363.77</ele>
        <time>2012-08-01T17:42:03Z</time>
      </trkpt>
      <trkpt lat="46.45312" lon="11.69899">
        <ele>1359.44</ele>
        <time>2012-08-01T17:42:07Z</time>
      </trkpt>
      <trkpt lat="46.45249" lon="11.69881">
        <ele>1356.56</ele>
        <time>2012-08-01T17:42:11Z</time>
      </trkpt>
      <trkpt lat="46.45206" lon="11.69866">
        <ele>1355.12</ele>
        <time>2012-08-01T17:42:14Z</time>
      </trkpt>
      <trkpt lat="46.45091" lon="11.69811">
        <ele>1351.75</ele>
        <time>2012-08-01T17:42:23Z</time>
      </trkpt>
      <trkpt lat="46.44955" lon="11.69759">
        <ele>1348.87</ele>
        <time>2012-08-01T17:42:34Z</time>
      </trkpt>
      <trkpt lat="46.44809" lon="11.69713">
        <ele>1345.98</ele>
        <time>2012-08-01T17:42:47Z</time>
      </trkpt>
      <trkpt lat="46.44767" lon="11.69685">
        <ele>1344.54</ele>
        <time>2012-08-01T17:42:52Z</time>
      </trkpt>
      <trkpt lat="46.4476" lon="11.69677">
        <ele>1344.54</ele>
        <time>2012-08-01T17:42:53Z</time>
      </trkpt>
      <trkpt lat="46.44755" lon="11.69668">
        <ele>1344.06</ele>
        <time>2012-08-01T17:42:54Z</time>
      </trkpt>
      <trkpt lat="46.44749" lon="11.6966">
        <ele>1344.06</ele>
        <time>2012-08-01T17:42:55Z</time>
      </trkpt>
      <trkpt lat="46.44743" lon="11.69655">
        <ele>1343.58</ele>
        <time>2012-08-01T17:42:56Z</time>
      </trkpt>
      <trkpt lat="46.44736" lon="11.69653">
        <ele>1343.58</ele>
        <time>2012-08-01T17:42:57Z</time>
      </trkpt>
      <trkpt lat="46.44729" lon="11.69655">
        <ele>1343.58</ele>
        <time>2012-08-01T17:42:58Z</time>
      </trkpt>
      <trkpt lat="46.44722" lon="11.69659">
        <ele>1343.58</ele>
        <time>2012-08-01T17:42:59Z</time>
      </trkpt>
      <trkpt lat="46.44715" lon="11.69665">
        <ele>1343.58</ele>
        <time>2012-08-01T17:43:00Z</time>
      </trkpt>
      <trkpt lat="46.44708" lon="11.69669">
        <ele>1344.06</ele>
        <time>2012-08-01T17:43:01Z</time>
      </trkpt>
      <trkpt lat="46.447" lon="11.69672">
        <ele>1343.58</ele>
        <time>2012-08-01T17:43:02Z</time>
      </trkpt>
      <trkpt lat="46.44691" lon="11.69673">
        <ele>1344.06</ele>
        <time>2012-08-01T17:43:03Z</time>
      </trkpt>
      <trkpt lat="46.44681" lon="11.69674">
        <ele>1343.58</ele>
        <time>2012-08-01T17:43:04Z</time>
      </trkpt>
      <trkpt lat="46.4467" lon="11.69673">
        <ele>1343.1</ele>
        <time>2012-08-01T17:43:05Z</time>
      </trkpt>
      <trkpt lat="46.4466" lon="11.69671">
        <ele>1343.1</ele>
        <time>2012-08-01T17:43:06Z</time>
      </trkpt>
      <trkpt lat="46.44649" lon="11.69669">
        <ele>1342.62</ele>
        <time>2012-08-01T17:43:07Z</time>
      </trkpt>
      <trkpt lat="46.4451" lon="11.69627">
        <ele>1341.66</ele>
        <time>2012-08-01T17:43:20Z</time>
      </trkpt>
      <trkpt lat="46.4436" lon="11.69576">
        <ele>1342.62</ele>
        <time>2012-08-01T17:43:34Z</time>
      </trkpt>
      <trkpt lat="46.44349" lon="11.69574">
        <ele>1342.62</ele>
        <time>2012-08-01T17:43:35Z</time>
      </trkpt>
      <trkpt lat="46.44318" lon="11.69566">
        <ele>1344.54</ele>
        <time>2012-08-01T17:43:38Z</time>
      </trkpt>
      <trkpt lat="46.44268" lon="11.69553">
        <ele>1346.46</ele>
        <time>2012-08-01T17:43:43Z</time>
      </trkpt>
      <trkpt lat="46.44183" lon="11.69534">
        <ele>1347.43</ele>
        <time>2012-08-01T17:43:53Z</time>
      </trkpt>
      <trkpt lat="46.44174" lon="11.69534">
        <ele>1346.94</ele>
        <time>2012-08-01T17:43:54Z</time>
      </trkpt>
      <trkpt lat="46.44166" lon="11.69536">
        <ele>1346.46</ele>
        <time>2012-08-01T17:43:55Z</time>
      </trkpt>
      <trkpt lat="46.44158" lon="11.6954">
        <ele>1346.46</ele>
        <time>2012-08-01T17:43:56Z</time>
      </trkpt>
      <trkpt lat="46.44149" lon="11.69546">
        <ele>1346.46</ele>
        <time>2012-08-01T17:43:57Z</time>
      </trkpt>
      <trkpt lat="46.44142" lon="11.69552">
        <ele>1345.5</ele>
        <time>2012-08-01T17:43:58Z</time>
      </trkpt>
      <trkpt lat="46.44103" lon="11.69578">
        <ele>1343.1</ele>
        <time>2012-08-01T17:44:03Z</time>
      </trkpt>
      <trkpt lat="46.44095" lon="11.6958">
        <ele>1342.14</ele>
        <time>2012-08-01T17:44:04Z</time>
      </trkpt>
      <trkpt lat="46.44086" lon="11.6958">
        <ele>1342.14</ele>
        <time>2012-08-01T17:44:05Z</time>
      </trkpt>
      <trkpt lat="46.44077" lon="11.69578">
        <ele>1341.66</ele>
        <time>2012-08-01T17:44:06Z</time>
      </trkpt>
      <trkpt lat="46.44067" lon="11.69575">
        <ele>1341.66</ele>
        <time>2012-08-01T17:44:07Z</time>
      </trkpt>
      <trkpt lat="46.44059" lon="11.69569">
        <ele>1341.66</ele>
        <time>2012-08-01T17:44:08Z</time>
      </trkpt>
      <trkpt lat="46.44051" lon="11.69562">
        <ele>1341.66</ele>
        <time>2012-08-01T17:44:09Z</time>
      </trkpt>
      <trkpt lat="46.44043" lon="11.69553">
        <ele>1340.7</ele>
        <time>2012-08-01T17:44:10Z</time>
      </trkpt>
      <trkpt lat="46.44037" lon="11.69543">
        <ele>1340.7</ele>
        <time>2012-08-01T17:44:11Z</time>
      </trkpt>
      <trkpt lat="46.4403" lon="11.69532">
        <ele>1340.22</ele>
        <time>2012-08-01T17:44:12Z</time>
      </trkpt>
      <trkpt lat="46.43972" lon="11.69438">
        <ele>1338.29</ele>
        <time>2012-08-01T17:44:20Z</time>
      </trkpt>
      <trkpt lat="46.43926" lon="11.69362">
        <ele>1334.93</ele>
        <time>2012-08-01T17:44:27Z</time>
      </trkpt>
      <trkpt lat="46.43861" lon="11.69268">
        <ele>1332.04</ele>
        <time>2012-08-01T17:44:36Z</time>
      </trkpt>
      <trkpt lat="46.43807" lon="11.69215">
        <ele>1330.12</ele>
        <time>2012-08-01T17:44:42Z</time>
      </trkpt>
      <trkpt lat="46.43737" lon="11.6916">
        <ele>1326.76</ele>
        <time>2012-08-01T17:44:52Z</time>
      </trkpt>
      <trkpt lat="46.43697" lon="11.69129">
        <ele>1324.83</ele>
        <time>2012-08-01T17:45:03Z</time>
      </trkpt>
    </trkseg>
  </trk>
</gpx>